<?xml version="1.0" encoding="UTF-8" standalone="no" ?>
<gpx xmlns="http://www.topografix.com/GPX/1/1" xmlns:xsi="http://www.w3.org/2001/XMLSchema-instance" xsi:schemaLocation="http://www.topografix.com/GPX/1/1 http://www.topografix.com/GPX/1/1/gpx.xsd" version="1.1" creator="VisuGPX - https://www.visugpx.com">
  <metadata>
    <name>POULDU 2018-2019</name>
  </metadata>
  <trk>
    <name><![CDATA[double 8 Kerfany]]></name>
    <trkseg>
      <trkpt lat="47.77272" lon="-3.55103">
        <ele>44</ele>
        <time>2019-07-14T09:34:56Z</time>
      </trkpt>
      <trkpt lat="47.77272" lon="-3.55103">
        <ele>44</ele>
        <time>2019-07-14T09:34:57Z</time>
      </trkpt>
      <trkpt lat="47.77272" lon="-3.55103">
        <ele>44</ele>
        <time>2019-07-14T09:34:58Z</time>
      </trkpt>
      <trkpt lat="47.77272" lon="-3.55103">
        <ele>44</ele>
        <time>2019-07-14T09:34:59Z</time>
      </trkpt>
      <trkpt lat="47.77272" lon="-3.55103">
        <ele>44</ele>
        <time>2019-07-14T09:35:00Z</time>
      </trkpt>
      <trkpt lat="47.77272" lon="-3.55103">
        <ele>44</ele>
        <time>2019-07-14T09:35:01Z</time>
      </trkpt>
      <trkpt lat="47.77271" lon="-3.55103">
        <ele>44</ele>
        <time>2019-07-14T09:35:02Z</time>
      </trkpt>
      <trkpt lat="47.77271" lon="-3.55103">
        <ele>44</ele>
        <time>2019-07-14T09:35:03Z</time>
      </trkpt>
      <trkpt lat="47.77271" lon="-3.55103">
        <ele>44</ele>
        <time>2019-07-14T09:35:04Z</time>
      </trkpt>
      <trkpt lat="47.77271" lon="-3.55103">
        <ele>44</ele>
        <time>2019-07-14T09:35:05Z</time>
      </trkpt>
      <trkpt lat="47.77271" lon="-3.55103">
        <ele>43</ele>
        <time>2019-07-14T09:35:06Z</time>
      </trkpt>
      <trkpt lat="47.77271" lon="-3.55103">
        <ele>43</ele>
        <time>2019-07-14T09:35:07Z</time>
      </trkpt>
      <trkpt lat="47.77272" lon="-3.55103">
        <ele>43</ele>
        <time>2019-07-14T09:35:08Z</time>
      </trkpt>
      <trkpt lat="47.77273" lon="-3.55103">
        <ele>43</ele>
        <time>2019-07-14T09:35:09Z</time>
      </trkpt>
      <trkpt lat="47.77274" lon="-3.55103">
        <ele>43</ele>
        <time>2019-07-14T09:35:10Z</time>
      </trkpt>
      <trkpt lat="47.77275" lon="-3.55102">
        <ele>43</ele>
        <time>2019-07-14T09:35:11Z</time>
      </trkpt>
      <trkpt lat="47.77277" lon="-3.55101">
        <ele>43</ele>
        <time>2019-07-14T09:35:12Z</time>
      </trkpt>
      <trkpt lat="47.77277" lon="-3.55098">
        <ele>43</ele>
        <time>2019-07-14T09:35:13Z</time>
      </trkpt>
      <trkpt lat="47.77279" lon="-3.55094">
        <ele>43</ele>
        <time>2019-07-14T09:35:14Z</time>
      </trkpt>
      <trkpt lat="47.7728" lon="-3.55091">
        <ele>42</ele>
        <time>2019-07-14T09:35:15Z</time>
      </trkpt>
      <trkpt lat="47.77282" lon="-3.55087">
        <ele>42</ele>
        <time>2019-07-14T09:35:16Z</time>
      </trkpt>
      <trkpt lat="47.77284" lon="-3.55085">
        <ele>42</ele>
        <time>2019-07-14T09:35:17Z</time>
      </trkpt>
      <trkpt lat="47.77286" lon="-3.55084">
        <ele>42</ele>
        <time>2019-07-14T09:35:18Z</time>
      </trkpt>
      <trkpt lat="47.77288" lon="-3.55083">
        <ele>42</ele>
        <time>2019-07-14T09:35:19Z</time>
      </trkpt>
      <trkpt lat="47.7729" lon="-3.55082">
        <ele>42</ele>
        <time>2019-07-14T09:35:20Z</time>
      </trkpt>
      <trkpt lat="47.77292" lon="-3.55083">
        <ele>41</ele>
        <time>2019-07-14T09:35:21Z</time>
      </trkpt>
      <trkpt lat="47.77294" lon="-3.55084">
        <ele>41</ele>
        <time>2019-07-14T09:35:22Z</time>
      </trkpt>
      <trkpt lat="47.77297" lon="-3.55085">
        <ele>41</ele>
        <time>2019-07-14T09:35:23Z</time>
      </trkpt>
      <trkpt lat="47.773" lon="-3.55087">
        <ele>41</ele>
        <time>2019-07-14T09:35:24Z</time>
      </trkpt>
      <trkpt lat="47.77303" lon="-3.55088">
        <ele>41</ele>
        <time>2019-07-14T09:35:25Z</time>
      </trkpt>
      <trkpt lat="47.77306" lon="-3.5509">
        <ele>41</ele>
        <time>2019-07-14T09:35:26Z</time>
      </trkpt>
      <trkpt lat="47.77309" lon="-3.55091">
        <ele>41</ele>
        <time>2019-07-14T09:35:27Z</time>
      </trkpt>
      <trkpt lat="47.77312" lon="-3.55093">
        <ele>41</ele>
        <time>2019-07-14T09:35:28Z</time>
      </trkpt>
      <trkpt lat="47.77315" lon="-3.55094">
        <ele>40</ele>
        <time>2019-07-14T09:35:29Z</time>
      </trkpt>
      <trkpt lat="47.77318" lon="-3.55096">
        <ele>40</ele>
        <time>2019-07-14T09:35:30Z</time>
      </trkpt>
      <trkpt lat="47.77321" lon="-3.55098">
        <ele>40</ele>
        <time>2019-07-14T09:35:31Z</time>
      </trkpt>
      <trkpt lat="47.77324" lon="-3.551">
        <ele>40</ele>
        <time>2019-07-14T09:35:32Z</time>
      </trkpt>
      <trkpt lat="47.77327" lon="-3.55102">
        <ele>40</ele>
        <time>2019-07-14T09:35:33Z</time>
      </trkpt>
      <trkpt lat="47.77331" lon="-3.55104">
        <ele>41</ele>
        <time>2019-07-14T09:35:34Z</time>
      </trkpt>
      <trkpt lat="47.77336" lon="-3.55107">
        <ele>41</ele>
        <time>2019-07-14T09:35:35Z</time>
      </trkpt>
      <trkpt lat="47.7734" lon="-3.5511">
        <ele>41</ele>
        <time>2019-07-14T09:35:36Z</time>
      </trkpt>
      <trkpt lat="47.77345" lon="-3.55112">
        <ele>41</ele>
        <time>2019-07-14T09:35:37Z</time>
      </trkpt>
      <trkpt lat="47.77351" lon="-3.55113">
        <ele>41</ele>
        <time>2019-07-14T09:35:38Z</time>
      </trkpt>
      <trkpt lat="47.77355" lon="-3.55114">
        <ele>41</ele>
        <time>2019-07-14T09:35:39Z</time>
      </trkpt>
      <trkpt lat="47.77361" lon="-3.55114">
        <ele>41</ele>
        <time>2019-07-14T09:35:40Z</time>
      </trkpt>
      <trkpt lat="47.77365" lon="-3.55114">
        <ele>41</ele>
        <time>2019-07-14T09:35:41Z</time>
      </trkpt>
      <trkpt lat="47.77369" lon="-3.55114">
        <ele>42</ele>
        <time>2019-07-14T09:35:42Z</time>
      </trkpt>
      <trkpt lat="47.77374" lon="-3.55114">
        <ele>42</ele>
        <time>2019-07-14T09:35:43Z</time>
      </trkpt>
      <trkpt lat="47.77378" lon="-3.55115">
        <ele>42</ele>
        <time>2019-07-14T09:35:44Z</time>
      </trkpt>
      <trkpt lat="47.77382" lon="-3.55116">
        <ele>42</ele>
        <time>2019-07-14T09:35:45Z</time>
      </trkpt>
      <trkpt lat="47.77386" lon="-3.55118">
        <ele>42</ele>
        <time>2019-07-14T09:35:46Z</time>
      </trkpt>
      <trkpt lat="47.7739" lon="-3.55121">
        <ele>42</ele>
        <time>2019-07-14T09:35:47Z</time>
      </trkpt>
      <trkpt lat="47.77393" lon="-3.55124">
        <ele>42</ele>
        <time>2019-07-14T09:35:48Z</time>
      </trkpt>
      <trkpt lat="47.77396" lon="-3.55129">
        <ele>42</ele>
        <time>2019-07-14T09:35:49Z</time>
      </trkpt>
      <trkpt lat="47.77398" lon="-3.55134">
        <ele>42</ele>
        <time>2019-07-14T09:35:50Z</time>
      </trkpt>
      <trkpt lat="47.77401" lon="-3.55139">
        <ele>42</ele>
        <time>2019-07-14T09:35:51Z</time>
      </trkpt>
      <trkpt lat="47.77403" lon="-3.55144">
        <ele>41</ele>
        <time>2019-07-14T09:35:52Z</time>
      </trkpt>
      <trkpt lat="47.77405" lon="-3.55148">
        <ele>41</ele>
        <time>2019-07-14T09:35:53Z</time>
      </trkpt>
      <trkpt lat="47.77406" lon="-3.55153">
        <ele>41</ele>
        <time>2019-07-14T09:35:54Z</time>
      </trkpt>
      <trkpt lat="47.77407" lon="-3.55159">
        <ele>41</ele>
        <time>2019-07-14T09:35:55Z</time>
      </trkpt>
      <trkpt lat="47.77406" lon="-3.55164">
        <ele>41</ele>
        <time>2019-07-14T09:35:56Z</time>
      </trkpt>
      <trkpt lat="47.77405" lon="-3.5517">
        <ele>41</ele>
        <time>2019-07-14T09:35:57Z</time>
      </trkpt>
      <trkpt lat="47.77402" lon="-3.55175">
        <ele>41</ele>
        <time>2019-07-14T09:35:58Z</time>
      </trkpt>
      <trkpt lat="47.774" lon="-3.5518">
        <ele>41</ele>
        <time>2019-07-14T09:35:59Z</time>
      </trkpt>
      <trkpt lat="47.77398" lon="-3.55185">
        <ele>41</ele>
        <time>2019-07-14T09:36:00Z</time>
      </trkpt>
      <trkpt lat="47.77395" lon="-3.5519">
        <ele>41</ele>
        <time>2019-07-14T09:36:01Z</time>
      </trkpt>
      <trkpt lat="47.77393" lon="-3.55196">
        <ele>41</ele>
        <time>2019-07-14T09:36:02Z</time>
      </trkpt>
      <trkpt lat="47.77391" lon="-3.55201">
        <ele>40</ele>
        <time>2019-07-14T09:36:03Z</time>
      </trkpt>
      <trkpt lat="47.77388" lon="-3.55206">
        <ele>40</ele>
        <time>2019-07-14T09:36:04Z</time>
      </trkpt>
      <trkpt lat="47.77385" lon="-3.5521">
        <ele>40</ele>
        <time>2019-07-14T09:36:05Z</time>
      </trkpt>
      <trkpt lat="47.77382" lon="-3.55215">
        <ele>40</ele>
        <time>2019-07-14T09:36:06Z</time>
      </trkpt>
      <trkpt lat="47.77379" lon="-3.55219">
        <ele>40</ele>
        <time>2019-07-14T09:36:07Z</time>
      </trkpt>
      <trkpt lat="47.77376" lon="-3.55223">
        <ele>40</ele>
        <time>2019-07-14T09:36:08Z</time>
      </trkpt>
      <trkpt lat="47.77373" lon="-3.55228">
        <ele>40</ele>
        <time>2019-07-14T09:36:09Z</time>
      </trkpt>
      <trkpt lat="47.7737" lon="-3.55232">
        <ele>40</ele>
        <time>2019-07-14T09:36:10Z</time>
      </trkpt>
      <trkpt lat="47.77368" lon="-3.55236">
        <ele>39</ele>
        <time>2019-07-14T09:36:11Z</time>
      </trkpt>
      <trkpt lat="47.77365" lon="-3.55238">
        <ele>39</ele>
        <time>2019-07-14T09:36:12Z</time>
      </trkpt>
      <trkpt lat="47.77364" lon="-3.5524">
        <ele>39</ele>
        <time>2019-07-14T09:36:13Z</time>
      </trkpt>
      <trkpt lat="47.77363" lon="-3.5524">
        <ele>39</ele>
        <time>2019-07-14T09:36:14Z</time>
      </trkpt>
      <trkpt lat="47.77362" lon="-3.5524">
        <ele>39</ele>
        <time>2019-07-14T09:36:15Z</time>
      </trkpt>
      <trkpt lat="47.77362" lon="-3.55239">
        <ele>38</ele>
        <time>2019-07-14T09:36:16Z</time>
      </trkpt>
      <trkpt lat="47.77362" lon="-3.55243">
        <ele>37</ele>
        <time>2019-07-14T09:36:17Z</time>
      </trkpt>
      <trkpt lat="47.77364" lon="-3.55245">
        <ele>37</ele>
        <time>2019-07-14T09:36:18Z</time>
      </trkpt>
      <trkpt lat="47.77366" lon="-3.55247">
        <ele>37</ele>
        <time>2019-07-14T09:36:19Z</time>
      </trkpt>
      <trkpt lat="47.77369" lon="-3.5525">
        <ele>37</ele>
        <time>2019-07-14T09:36:20Z</time>
      </trkpt>
      <trkpt lat="47.77372" lon="-3.55254">
        <ele>37</ele>
        <time>2019-07-14T09:36:21Z</time>
      </trkpt>
      <trkpt lat="47.77376" lon="-3.55258">
        <ele>38</ele>
        <time>2019-07-14T09:36:22Z</time>
      </trkpt>
      <trkpt lat="47.7738" lon="-3.55261">
        <ele>38</ele>
        <time>2019-07-14T09:36:23Z</time>
      </trkpt>
      <trkpt lat="47.77384" lon="-3.55265">
        <ele>38</ele>
        <time>2019-07-14T09:36:24Z</time>
      </trkpt>
      <trkpt lat="47.77389" lon="-3.55269">
        <ele>38</ele>
        <time>2019-07-14T09:36:25Z</time>
      </trkpt>
      <trkpt lat="47.77393" lon="-3.55272">
        <ele>38</ele>
        <time>2019-07-14T09:36:26Z</time>
      </trkpt>
      <trkpt lat="47.77398" lon="-3.55276">
        <ele>38</ele>
        <time>2019-07-14T09:36:27Z</time>
      </trkpt>
      <trkpt lat="47.77402" lon="-3.5528">
        <ele>38</ele>
        <time>2019-07-14T09:36:28Z</time>
      </trkpt>
      <trkpt lat="47.77407" lon="-3.55284">
        <ele>38</ele>
        <time>2019-07-14T09:36:29Z</time>
      </trkpt>
      <trkpt lat="47.77411" lon="-3.55288">
        <ele>38</ele>
        <time>2019-07-14T09:36:30Z</time>
      </trkpt>
      <trkpt lat="47.77415" lon="-3.55292">
        <ele>38</ele>
        <time>2019-07-14T09:36:31Z</time>
      </trkpt>
      <trkpt lat="47.7742" lon="-3.55296">
        <ele>38</ele>
        <time>2019-07-14T09:36:32Z</time>
      </trkpt>
      <trkpt lat="47.77424" lon="-3.55301">
        <ele>38</ele>
        <time>2019-07-14T09:36:33Z</time>
      </trkpt>
      <trkpt lat="47.77429" lon="-3.55305">
        <ele>39</ele>
        <time>2019-07-14T09:36:34Z</time>
      </trkpt>
      <trkpt lat="47.77434" lon="-3.55309">
        <ele>39</ele>
        <time>2019-07-14T09:36:35Z</time>
      </trkpt>
      <trkpt lat="47.77439" lon="-3.55314">
        <ele>39</ele>
        <time>2019-07-14T09:36:36Z</time>
      </trkpt>
      <trkpt lat="47.77444" lon="-3.55318">
        <ele>39</ele>
        <time>2019-07-14T09:36:37Z</time>
      </trkpt>
      <trkpt lat="47.77448" lon="-3.55322">
        <ele>39</ele>
        <time>2019-07-14T09:36:38Z</time>
      </trkpt>
      <trkpt lat="47.77454" lon="-3.55326">
        <ele>39</ele>
        <time>2019-07-14T09:36:39Z</time>
      </trkpt>
      <trkpt lat="47.77458" lon="-3.5533">
        <ele>39</ele>
        <time>2019-07-14T09:36:40Z</time>
      </trkpt>
      <trkpt lat="47.77464" lon="-3.55335">
        <ele>39</ele>
        <time>2019-07-14T09:36:41Z</time>
      </trkpt>
      <trkpt lat="47.77468" lon="-3.55339">
        <ele>39</ele>
        <time>2019-07-14T09:36:42Z</time>
      </trkpt>
      <trkpt lat="47.77473" lon="-3.55344">
        <ele>39</ele>
        <time>2019-07-14T09:36:43Z</time>
      </trkpt>
      <trkpt lat="47.77478" lon="-3.55349">
        <ele>39</ele>
        <time>2019-07-14T09:36:44Z</time>
      </trkpt>
      <trkpt lat="47.77482" lon="-3.55353">
        <ele>39</ele>
        <time>2019-07-14T09:36:45Z</time>
      </trkpt>
      <trkpt lat="47.77487" lon="-3.55357">
        <ele>39</ele>
        <time>2019-07-14T09:36:46Z</time>
      </trkpt>
      <trkpt lat="47.77491" lon="-3.55361">
        <ele>39</ele>
        <time>2019-07-14T09:36:47Z</time>
      </trkpt>
      <trkpt lat="47.77494" lon="-3.55364">
        <ele>39</ele>
        <time>2019-07-14T09:36:48Z</time>
      </trkpt>
      <trkpt lat="47.77499" lon="-3.55368">
        <ele>39</ele>
        <time>2019-07-14T09:36:49Z</time>
      </trkpt>
      <trkpt lat="47.77503" lon="-3.55373">
        <ele>39</ele>
        <time>2019-07-14T09:36:50Z</time>
      </trkpt>
      <trkpt lat="47.77506" lon="-3.55377">
        <ele>38</ele>
        <time>2019-07-14T09:36:51Z</time>
      </trkpt>
      <trkpt lat="47.77511" lon="-3.55381">
        <ele>38</ele>
        <time>2019-07-14T09:36:52Z</time>
      </trkpt>
      <trkpt lat="47.77515" lon="-3.55385">
        <ele>38</ele>
        <time>2019-07-14T09:36:53Z</time>
      </trkpt>
      <trkpt lat="47.77519" lon="-3.55389">
        <ele>38</ele>
        <time>2019-07-14T09:36:54Z</time>
      </trkpt>
      <trkpt lat="47.77524" lon="-3.55391">
        <ele>38</ele>
        <time>2019-07-14T09:36:55Z</time>
      </trkpt>
      <trkpt lat="47.77528" lon="-3.55393">
        <ele>38</ele>
        <time>2019-07-14T09:36:56Z</time>
      </trkpt>
      <trkpt lat="47.77533" lon="-3.55395">
        <ele>38</ele>
        <time>2019-07-14T09:36:57Z</time>
      </trkpt>
      <trkpt lat="47.77536" lon="-3.55397">
        <ele>38</ele>
        <time>2019-07-14T09:36:58Z</time>
      </trkpt>
      <trkpt lat="47.7754" lon="-3.55397">
        <ele>38</ele>
        <time>2019-07-14T09:36:59Z</time>
      </trkpt>
      <trkpt lat="47.77544" lon="-3.55398">
        <ele>38</ele>
        <time>2019-07-14T09:37:00Z</time>
      </trkpt>
      <trkpt lat="47.77547" lon="-3.55398">
        <ele>38</ele>
        <time>2019-07-14T09:37:01Z</time>
      </trkpt>
      <trkpt lat="47.77551" lon="-3.55399">
        <ele>38</ele>
        <time>2019-07-14T09:37:02Z</time>
      </trkpt>
      <trkpt lat="47.77555" lon="-3.55399">
        <ele>38</ele>
        <time>2019-07-14T09:37:03Z</time>
      </trkpt>
      <trkpt lat="47.7756" lon="-3.55399">
        <ele>39</ele>
        <time>2019-07-14T09:37:04Z</time>
      </trkpt>
      <trkpt lat="47.77565" lon="-3.55399">
        <ele>39</ele>
        <time>2019-07-14T09:37:05Z</time>
      </trkpt>
      <trkpt lat="47.7757" lon="-3.55399">
        <ele>39</ele>
        <time>2019-07-14T09:37:06Z</time>
      </trkpt>
      <trkpt lat="47.77575" lon="-3.554">
        <ele>39</ele>
        <time>2019-07-14T09:37:07Z</time>
      </trkpt>
      <trkpt lat="47.77581" lon="-3.554">
        <ele>39</ele>
        <time>2019-07-14T09:37:08Z</time>
      </trkpt>
      <trkpt lat="47.77586" lon="-3.55399">
        <ele>39</ele>
        <time>2019-07-14T09:37:09Z</time>
      </trkpt>
      <trkpt lat="47.77591" lon="-3.55399">
        <ele>39</ele>
        <time>2019-07-14T09:37:10Z</time>
      </trkpt>
      <trkpt lat="47.77597" lon="-3.55397">
        <ele>39</ele>
        <time>2019-07-14T09:37:11Z</time>
      </trkpt>
      <trkpt lat="47.77603" lon="-3.55395">
        <ele>39</ele>
        <time>2019-07-14T09:37:12Z</time>
      </trkpt>
      <trkpt lat="47.77609" lon="-3.55393">
        <ele>39</ele>
        <time>2019-07-14T09:37:13Z</time>
      </trkpt>
      <trkpt lat="47.77615" lon="-3.55392">
        <ele>40</ele>
        <time>2019-07-14T09:37:14Z</time>
      </trkpt>
      <trkpt lat="47.77621" lon="-3.5539">
        <ele>40</ele>
        <time>2019-07-14T09:37:15Z</time>
      </trkpt>
      <trkpt lat="47.77627" lon="-3.55388">
        <ele>40</ele>
        <time>2019-07-14T09:37:16Z</time>
      </trkpt>
      <trkpt lat="47.77633" lon="-3.55386">
        <ele>40</ele>
        <time>2019-07-14T09:37:17Z</time>
      </trkpt>
      <trkpt lat="47.77638" lon="-3.55383">
        <ele>40</ele>
        <time>2019-07-14T09:37:18Z</time>
      </trkpt>
      <trkpt lat="47.77644" lon="-3.5538">
        <ele>40</ele>
        <time>2019-07-14T09:37:19Z</time>
      </trkpt>
      <trkpt lat="47.77649" lon="-3.55378">
        <ele>40</ele>
        <time>2019-07-14T09:37:20Z</time>
      </trkpt>
      <trkpt lat="47.77654" lon="-3.55375">
        <ele>40</ele>
        <time>2019-07-14T09:37:21Z</time>
      </trkpt>
      <trkpt lat="47.7766" lon="-3.55372">
        <ele>40</ele>
        <time>2019-07-14T09:37:22Z</time>
      </trkpt>
      <trkpt lat="47.77666" lon="-3.5537">
        <ele>40</ele>
        <time>2019-07-14T09:37:23Z</time>
      </trkpt>
      <trkpt lat="47.77671" lon="-3.55368">
        <ele>41</ele>
        <time>2019-07-14T09:37:24Z</time>
      </trkpt>
      <trkpt lat="47.77676" lon="-3.5537">
        <ele>41</ele>
        <time>2019-07-14T09:37:25Z</time>
      </trkpt>
      <trkpt lat="47.7768" lon="-3.55374">
        <ele>41</ele>
        <time>2019-07-14T09:37:26Z</time>
      </trkpt>
      <trkpt lat="47.77684" lon="-3.55379">
        <ele>41</ele>
        <time>2019-07-14T09:37:27Z</time>
      </trkpt>
      <trkpt lat="47.77687" lon="-3.55386">
        <ele>41</ele>
        <time>2019-07-14T09:37:28Z</time>
      </trkpt>
      <trkpt lat="47.7769" lon="-3.55394">
        <ele>41</ele>
        <time>2019-07-14T09:37:29Z</time>
      </trkpt>
      <trkpt lat="47.77694" lon="-3.55402">
        <ele>41</ele>
        <time>2019-07-14T09:37:30Z</time>
      </trkpt>
      <trkpt lat="47.77697" lon="-3.5541">
        <ele>41</ele>
        <time>2019-07-14T09:37:31Z</time>
      </trkpt>
      <trkpt lat="47.777" lon="-3.55418">
        <ele>40</ele>
        <time>2019-07-14T09:37:32Z</time>
      </trkpt>
      <trkpt lat="47.77703" lon="-3.55426">
        <ele>40</ele>
        <time>2019-07-14T09:37:33Z</time>
      </trkpt>
      <trkpt lat="47.77707" lon="-3.55435">
        <ele>40</ele>
        <time>2019-07-14T09:37:34Z</time>
      </trkpt>
      <trkpt lat="47.7771" lon="-3.55443">
        <ele>40</ele>
        <time>2019-07-14T09:37:35Z</time>
      </trkpt>
      <trkpt lat="47.77713" lon="-3.55452">
        <ele>39</ele>
        <time>2019-07-14T09:37:36Z</time>
      </trkpt>
      <trkpt lat="47.77717" lon="-3.55459">
        <ele>39</ele>
        <time>2019-07-14T09:37:37Z</time>
      </trkpt>
      <trkpt lat="47.77721" lon="-3.55466">
        <ele>38</ele>
        <time>2019-07-14T09:37:38Z</time>
      </trkpt>
      <trkpt lat="47.77725" lon="-3.55472">
        <ele>38</ele>
        <time>2019-07-14T09:37:39Z</time>
      </trkpt>
      <trkpt lat="47.7773" lon="-3.55479">
        <ele>37</ele>
        <time>2019-07-14T09:37:40Z</time>
      </trkpt>
      <trkpt lat="47.77734" lon="-3.55485">
        <ele>37</ele>
        <time>2019-07-14T09:37:41Z</time>
      </trkpt>
      <trkpt lat="47.77739" lon="-3.55491">
        <ele>36</ele>
        <time>2019-07-14T09:37:42Z</time>
      </trkpt>
      <trkpt lat="47.77743" lon="-3.55497">
        <ele>36</ele>
        <time>2019-07-14T09:37:43Z</time>
      </trkpt>
      <trkpt lat="47.77748" lon="-3.55503">
        <ele>35</ele>
        <time>2019-07-14T09:37:44Z</time>
      </trkpt>
      <trkpt lat="47.77753" lon="-3.55509">
        <ele>35</ele>
        <time>2019-07-14T09:37:45Z</time>
      </trkpt>
      <trkpt lat="47.77757" lon="-3.55515">
        <ele>34</ele>
        <time>2019-07-14T09:37:46Z</time>
      </trkpt>
      <trkpt lat="47.77761" lon="-3.55521">
        <ele>34</ele>
        <time>2019-07-14T09:37:47Z</time>
      </trkpt>
      <trkpt lat="47.77764" lon="-3.55526">
        <ele>34</ele>
        <time>2019-07-14T09:37:48Z</time>
      </trkpt>
      <trkpt lat="47.77767" lon="-3.55531">
        <ele>33</ele>
        <time>2019-07-14T09:37:49Z</time>
      </trkpt>
      <trkpt lat="47.77768" lon="-3.55537">
        <ele>33</ele>
        <time>2019-07-14T09:37:50Z</time>
      </trkpt>
      <trkpt lat="47.77769" lon="-3.55541">
        <ele>33</ele>
        <time>2019-07-14T09:37:51Z</time>
      </trkpt>
      <trkpt lat="47.77768" lon="-3.55547">
        <ele>32</ele>
        <time>2019-07-14T09:37:52Z</time>
      </trkpt>
      <trkpt lat="47.77765" lon="-3.5555">
        <ele>32</ele>
        <time>2019-07-14T09:37:53Z</time>
      </trkpt>
      <trkpt lat="47.77761" lon="-3.55553">
        <ele>32</ele>
        <time>2019-07-14T09:37:54Z</time>
      </trkpt>
      <trkpt lat="47.77756" lon="-3.55554">
        <ele>32</ele>
        <time>2019-07-14T09:37:55Z</time>
      </trkpt>
      <trkpt lat="47.77751" lon="-3.55555">
        <ele>31</ele>
        <time>2019-07-14T09:37:56Z</time>
      </trkpt>
      <trkpt lat="47.77745" lon="-3.55556">
        <ele>31</ele>
        <time>2019-07-14T09:37:57Z</time>
      </trkpt>
      <trkpt lat="47.77739" lon="-3.55557">
        <ele>31</ele>
        <time>2019-07-14T09:37:58Z</time>
      </trkpt>
      <trkpt lat="47.77733" lon="-3.55558">
        <ele>31</ele>
        <time>2019-07-14T09:37:59Z</time>
      </trkpt>
      <trkpt lat="47.77726" lon="-3.55559">
        <ele>31</ele>
        <time>2019-07-14T09:38:00Z</time>
      </trkpt>
      <trkpt lat="47.77719" lon="-3.55561">
        <ele>31</ele>
        <time>2019-07-14T09:38:01Z</time>
      </trkpt>
      <trkpt lat="47.77712" lon="-3.55564">
        <ele>31</ele>
        <time>2019-07-14T09:38:02Z</time>
      </trkpt>
      <trkpt lat="47.77705" lon="-3.55568">
        <ele>30</ele>
        <time>2019-07-14T09:38:03Z</time>
      </trkpt>
      <trkpt lat="47.77698" lon="-3.55573">
        <ele>30</ele>
        <time>2019-07-14T09:38:04Z</time>
      </trkpt>
      <trkpt lat="47.77691" lon="-3.55579">
        <ele>30</ele>
        <time>2019-07-14T09:38:05Z</time>
      </trkpt>
      <trkpt lat="47.77684" lon="-3.55585">
        <ele>30</ele>
        <time>2019-07-14T09:38:06Z</time>
      </trkpt>
      <trkpt lat="47.77677" lon="-3.5559">
        <ele>29</ele>
        <time>2019-07-14T09:38:07Z</time>
      </trkpt>
      <trkpt lat="47.77671" lon="-3.55596">
        <ele>29</ele>
        <time>2019-07-14T09:38:08Z</time>
      </trkpt>
      <trkpt lat="47.77665" lon="-3.55602">
        <ele>29</ele>
        <time>2019-07-14T09:38:09Z</time>
      </trkpt>
      <trkpt lat="47.77659" lon="-3.55608">
        <ele>29</ele>
        <time>2019-07-14T09:38:10Z</time>
      </trkpt>
      <trkpt lat="47.77654" lon="-3.55613">
        <ele>29</ele>
        <time>2019-07-14T09:38:11Z</time>
      </trkpt>
      <trkpt lat="47.77648" lon="-3.55618">
        <ele>29</ele>
        <time>2019-07-14T09:38:12Z</time>
      </trkpt>
      <trkpt lat="47.77643" lon="-3.55623">
        <ele>29</ele>
        <time>2019-07-14T09:38:13Z</time>
      </trkpt>
      <trkpt lat="47.77638" lon="-3.55629">
        <ele>29</ele>
        <time>2019-07-14T09:38:14Z</time>
      </trkpt>
      <trkpt lat="47.77634" lon="-3.55633">
        <ele>29</ele>
        <time>2019-07-14T09:38:15Z</time>
      </trkpt>
      <trkpt lat="47.77629" lon="-3.55638">
        <ele>29</ele>
        <time>2019-07-14T09:38:16Z</time>
      </trkpt>
      <trkpt lat="47.77625" lon="-3.55643">
        <ele>29</ele>
        <time>2019-07-14T09:38:17Z</time>
      </trkpt>
      <trkpt lat="47.7762" lon="-3.55647">
        <ele>29</ele>
        <time>2019-07-14T09:38:18Z</time>
      </trkpt>
      <trkpt lat="47.77616" lon="-3.55651">
        <ele>29</ele>
        <time>2019-07-14T09:38:19Z</time>
      </trkpt>
      <trkpt lat="47.77612" lon="-3.55655">
        <ele>28</ele>
        <time>2019-07-14T09:38:20Z</time>
      </trkpt>
      <trkpt lat="47.77609" lon="-3.5566">
        <ele>28</ele>
        <time>2019-07-14T09:38:21Z</time>
      </trkpt>
      <trkpt lat="47.77605" lon="-3.55664">
        <ele>28</ele>
        <time>2019-07-14T09:38:22Z</time>
      </trkpt>
      <trkpt lat="47.77601" lon="-3.55668">
        <ele>28</ele>
        <time>2019-07-14T09:38:23Z</time>
      </trkpt>
      <trkpt lat="47.77597" lon="-3.55673">
        <ele>28</ele>
        <time>2019-07-14T09:38:24Z</time>
      </trkpt>
      <trkpt lat="47.77592" lon="-3.55678">
        <ele>28</ele>
        <time>2019-07-14T09:38:25Z</time>
      </trkpt>
      <trkpt lat="47.77587" lon="-3.55683">
        <ele>28</ele>
        <time>2019-07-14T09:38:26Z</time>
      </trkpt>
      <trkpt lat="47.77582" lon="-3.55688">
        <ele>28</ele>
        <time>2019-07-14T09:38:27Z</time>
      </trkpt>
      <trkpt lat="47.77578" lon="-3.55694">
        <ele>28</ele>
        <time>2019-07-14T09:38:28Z</time>
      </trkpt>
      <trkpt lat="47.77573" lon="-3.557">
        <ele>28</ele>
        <time>2019-07-14T09:38:29Z</time>
      </trkpt>
      <trkpt lat="47.77568" lon="-3.55706">
        <ele>28</ele>
        <time>2019-07-14T09:38:30Z</time>
      </trkpt>
      <trkpt lat="47.77562" lon="-3.55712">
        <ele>27</ele>
        <time>2019-07-14T09:38:31Z</time>
      </trkpt>
      <trkpt lat="47.77557" lon="-3.55718">
        <ele>27</ele>
        <time>2019-07-14T09:38:32Z</time>
      </trkpt>
      <trkpt lat="47.77552" lon="-3.55724">
        <ele>27</ele>
        <time>2019-07-14T09:38:33Z</time>
      </trkpt>
      <trkpt lat="47.77546" lon="-3.5573">
        <ele>27</ele>
        <time>2019-07-14T09:38:34Z</time>
      </trkpt>
      <trkpt lat="47.77542" lon="-3.55736">
        <ele>26</ele>
        <time>2019-07-14T09:38:35Z</time>
      </trkpt>
      <trkpt lat="47.77538" lon="-3.55742">
        <ele>26</ele>
        <time>2019-07-14T09:38:36Z</time>
      </trkpt>
      <trkpt lat="47.77536" lon="-3.55749">
        <ele>26</ele>
        <time>2019-07-14T09:38:37Z</time>
      </trkpt>
      <trkpt lat="47.77536" lon="-3.55756">
        <ele>26</ele>
        <time>2019-07-14T09:38:38Z</time>
      </trkpt>
      <trkpt lat="47.77537" lon="-3.55763">
        <ele>26</ele>
        <time>2019-07-14T09:38:39Z</time>
      </trkpt>
      <trkpt lat="47.7754" lon="-3.5577">
        <ele>25</ele>
        <time>2019-07-14T09:38:40Z</time>
      </trkpt>
      <trkpt lat="47.77542" lon="-3.55776">
        <ele>25</ele>
        <time>2019-07-14T09:38:41Z</time>
      </trkpt>
      <trkpt lat="47.77545" lon="-3.55783">
        <ele>26</ele>
        <time>2019-07-14T09:38:42Z</time>
      </trkpt>
      <trkpt lat="47.77548" lon="-3.5579">
        <ele>26</ele>
        <time>2019-07-14T09:38:43Z</time>
      </trkpt>
      <trkpt lat="47.77551" lon="-3.55796">
        <ele>26</ele>
        <time>2019-07-14T09:38:44Z</time>
      </trkpt>
      <trkpt lat="47.77554" lon="-3.55803">
        <ele>26</ele>
        <time>2019-07-14T09:38:45Z</time>
      </trkpt>
      <trkpt lat="47.77556" lon="-3.55809">
        <ele>26</ele>
        <time>2019-07-14T09:38:46Z</time>
      </trkpt>
      <trkpt lat="47.77559" lon="-3.55816">
        <ele>26</ele>
        <time>2019-07-14T09:38:47Z</time>
      </trkpt>
      <trkpt lat="47.77562" lon="-3.55823">
        <ele>26</ele>
        <time>2019-07-14T09:38:48Z</time>
      </trkpt>
      <trkpt lat="47.77565" lon="-3.55829">
        <ele>27</ele>
        <time>2019-07-14T09:38:49Z</time>
      </trkpt>
      <trkpt lat="47.77569" lon="-3.55836">
        <ele>27</ele>
        <time>2019-07-14T09:38:50Z</time>
      </trkpt>
      <trkpt lat="47.77572" lon="-3.55842">
        <ele>27</ele>
        <time>2019-07-14T09:38:51Z</time>
      </trkpt>
      <trkpt lat="47.77575" lon="-3.55849">
        <ele>27</ele>
        <time>2019-07-14T09:38:52Z</time>
      </trkpt>
      <trkpt lat="47.77577" lon="-3.55855">
        <ele>27</ele>
        <time>2019-07-14T09:38:53Z</time>
      </trkpt>
      <trkpt lat="47.77579" lon="-3.55861">
        <ele>27</ele>
        <time>2019-07-14T09:38:54Z</time>
      </trkpt>
      <trkpt lat="47.77582" lon="-3.55867">
        <ele>27</ele>
        <time>2019-07-14T09:38:55Z</time>
      </trkpt>
      <trkpt lat="47.77585" lon="-3.55873">
        <ele>28</ele>
        <time>2019-07-14T09:38:56Z</time>
      </trkpt>
      <trkpt lat="47.77588" lon="-3.55879">
        <ele>28</ele>
        <time>2019-07-14T09:38:57Z</time>
      </trkpt>
      <trkpt lat="47.77591" lon="-3.55886">
        <ele>28</ele>
        <time>2019-07-14T09:38:58Z</time>
      </trkpt>
      <trkpt lat="47.77593" lon="-3.55892">
        <ele>28</ele>
        <time>2019-07-14T09:38:59Z</time>
      </trkpt>
      <trkpt lat="47.77596" lon="-3.55898">
        <ele>28</ele>
        <time>2019-07-14T09:39:00Z</time>
      </trkpt>
      <trkpt lat="47.77598" lon="-3.55904">
        <ele>28</ele>
        <time>2019-07-14T09:39:01Z</time>
      </trkpt>
      <trkpt lat="47.776" lon="-3.5591">
        <ele>28</ele>
        <time>2019-07-14T09:39:02Z</time>
      </trkpt>
      <trkpt lat="47.77603" lon="-3.55916">
        <ele>28</ele>
        <time>2019-07-14T09:39:03Z</time>
      </trkpt>
      <trkpt lat="47.77605" lon="-3.55922">
        <ele>28</ele>
        <time>2019-07-14T09:39:04Z</time>
      </trkpt>
      <trkpt lat="47.77607" lon="-3.55928">
        <ele>28</ele>
        <time>2019-07-14T09:39:05Z</time>
      </trkpt>
      <trkpt lat="47.77609" lon="-3.55934">
        <ele>28</ele>
        <time>2019-07-14T09:39:06Z</time>
      </trkpt>
      <trkpt lat="47.7761" lon="-3.55938">
        <ele>28</ele>
        <time>2019-07-14T09:39:07Z</time>
      </trkpt>
      <trkpt lat="47.77611" lon="-3.55941">
        <ele>28</ele>
        <time>2019-07-14T09:39:08Z</time>
      </trkpt>
      <trkpt lat="47.77613" lon="-3.55942">
        <ele>28</ele>
        <time>2019-07-14T09:39:09Z</time>
      </trkpt>
      <trkpt lat="47.77614" lon="-3.55943">
        <ele>28</ele>
        <time>2019-07-14T09:39:10Z</time>
      </trkpt>
      <trkpt lat="47.77615" lon="-3.55944">
        <ele>28</ele>
        <time>2019-07-14T09:39:11Z</time>
      </trkpt>
      <trkpt lat="47.77616" lon="-3.55945">
        <ele>29</ele>
        <time>2019-07-14T09:39:12Z</time>
      </trkpt>
      <trkpt lat="47.77617" lon="-3.55947">
        <ele>29</ele>
        <time>2019-07-14T09:39:13Z</time>
      </trkpt>
      <trkpt lat="47.77618" lon="-3.55949">
        <ele>29</ele>
        <time>2019-07-14T09:39:14Z</time>
      </trkpt>
      <trkpt lat="47.77618" lon="-3.55951">
        <ele>29</ele>
        <time>2019-07-14T09:39:15Z</time>
      </trkpt>
      <trkpt lat="47.77619" lon="-3.55954">
        <ele>29</ele>
        <time>2019-07-14T09:39:16Z</time>
      </trkpt>
      <trkpt lat="47.77621" lon="-3.55957">
        <ele>29</ele>
        <time>2019-07-14T09:39:17Z</time>
      </trkpt>
      <trkpt lat="47.77623" lon="-3.55961">
        <ele>30</ele>
        <time>2019-07-14T09:39:18Z</time>
      </trkpt>
      <trkpt lat="47.77625" lon="-3.55963">
        <ele>30</ele>
        <time>2019-07-14T09:39:19Z</time>
      </trkpt>
      <trkpt lat="47.77627" lon="-3.55966">
        <ele>30</ele>
        <time>2019-07-14T09:39:20Z</time>
      </trkpt>
      <trkpt lat="47.77629" lon="-3.55969">
        <ele>30</ele>
        <time>2019-07-14T09:39:21Z</time>
      </trkpt>
      <trkpt lat="47.77631" lon="-3.55971">
        <ele>31</ele>
        <time>2019-07-14T09:39:22Z</time>
      </trkpt>
      <trkpt lat="47.77634" lon="-3.55974">
        <ele>31</ele>
        <time>2019-07-14T09:39:23Z</time>
      </trkpt>
      <trkpt lat="47.77637" lon="-3.55977">
        <ele>31</ele>
        <time>2019-07-14T09:39:24Z</time>
      </trkpt>
      <trkpt lat="47.7764" lon="-3.55979">
        <ele>31</ele>
        <time>2019-07-14T09:39:25Z</time>
      </trkpt>
      <trkpt lat="47.77644" lon="-3.55981">
        <ele>32</ele>
        <time>2019-07-14T09:39:26Z</time>
      </trkpt>
      <trkpt lat="47.77647" lon="-3.55983">
        <ele>32</ele>
        <time>2019-07-14T09:39:27Z</time>
      </trkpt>
      <trkpt lat="47.77651" lon="-3.55986">
        <ele>32</ele>
        <time>2019-07-14T09:39:28Z</time>
      </trkpt>
      <trkpt lat="47.77654" lon="-3.55989">
        <ele>32</ele>
        <time>2019-07-14T09:39:29Z</time>
      </trkpt>
      <trkpt lat="47.77657" lon="-3.55991">
        <ele>32</ele>
        <time>2019-07-14T09:39:30Z</time>
      </trkpt>
      <trkpt lat="47.77661" lon="-3.55993">
        <ele>33</ele>
        <time>2019-07-14T09:39:31Z</time>
      </trkpt>
      <trkpt lat="47.77664" lon="-3.55995">
        <ele>33</ele>
        <time>2019-07-14T09:39:32Z</time>
      </trkpt>
      <trkpt lat="47.77666" lon="-3.55997">
        <ele>33</ele>
        <time>2019-07-14T09:39:33Z</time>
      </trkpt>
      <trkpt lat="47.77669" lon="-3.55999">
        <ele>33</ele>
        <time>2019-07-14T09:39:34Z</time>
      </trkpt>
      <trkpt lat="47.77671" lon="-3.56002">
        <ele>33</ele>
        <time>2019-07-14T09:39:35Z</time>
      </trkpt>
      <trkpt lat="47.77675" lon="-3.56006">
        <ele>34</ele>
        <time>2019-07-14T09:39:36Z</time>
      </trkpt>
      <trkpt lat="47.77678" lon="-3.5601">
        <ele>34</ele>
        <time>2019-07-14T09:39:37Z</time>
      </trkpt>
      <trkpt lat="47.77683" lon="-3.56014">
        <ele>34</ele>
        <time>2019-07-14T09:39:38Z</time>
      </trkpt>
      <trkpt lat="47.77687" lon="-3.56018">
        <ele>34</ele>
        <time>2019-07-14T09:39:39Z</time>
      </trkpt>
      <trkpt lat="47.77692" lon="-3.56021">
        <ele>34</ele>
        <time>2019-07-14T09:39:40Z</time>
      </trkpt>
      <trkpt lat="47.77697" lon="-3.56024">
        <ele>35</ele>
        <time>2019-07-14T09:39:41Z</time>
      </trkpt>
      <trkpt lat="47.77701" lon="-3.56027">
        <ele>35</ele>
        <time>2019-07-14T09:39:42Z</time>
      </trkpt>
      <trkpt lat="47.77706" lon="-3.56029">
        <ele>35</ele>
        <time>2019-07-14T09:39:43Z</time>
      </trkpt>
      <trkpt lat="47.7771" lon="-3.56031">
        <ele>35</ele>
        <time>2019-07-14T09:39:44Z</time>
      </trkpt>
      <trkpt lat="47.77714" lon="-3.56033">
        <ele>35</ele>
        <time>2019-07-14T09:39:45Z</time>
      </trkpt>
      <trkpt lat="47.77717" lon="-3.56035">
        <ele>36</ele>
        <time>2019-07-14T09:39:46Z</time>
      </trkpt>
      <trkpt lat="47.7772" lon="-3.56036">
        <ele>36</ele>
        <time>2019-07-14T09:39:47Z</time>
      </trkpt>
      <trkpt lat="47.77723" lon="-3.56038">
        <ele>36</ele>
        <time>2019-07-14T09:39:48Z</time>
      </trkpt>
      <trkpt lat="47.77727" lon="-3.56039">
        <ele>36</ele>
        <time>2019-07-14T09:39:49Z</time>
      </trkpt>
      <trkpt lat="47.77731" lon="-3.5604">
        <ele>36</ele>
        <time>2019-07-14T09:39:50Z</time>
      </trkpt>
      <trkpt lat="47.77735" lon="-3.56042">
        <ele>36</ele>
        <time>2019-07-14T09:39:51Z</time>
      </trkpt>
      <trkpt lat="47.77738" lon="-3.56043">
        <ele>36</ele>
        <time>2019-07-14T09:39:52Z</time>
      </trkpt>
      <trkpt lat="47.77741" lon="-3.56045">
        <ele>37</ele>
        <time>2019-07-14T09:39:53Z</time>
      </trkpt>
      <trkpt lat="47.77743" lon="-3.56047">
        <ele>37</ele>
        <time>2019-07-14T09:39:54Z</time>
      </trkpt>
      <trkpt lat="47.77742" lon="-3.5605">
        <ele>37</ele>
        <time>2019-07-14T09:39:55Z</time>
      </trkpt>
      <trkpt lat="47.77741" lon="-3.56054">
        <ele>37</ele>
        <time>2019-07-14T09:39:56Z</time>
      </trkpt>
      <trkpt lat="47.7774" lon="-3.5606">
        <ele>36</ele>
        <time>2019-07-14T09:39:57Z</time>
      </trkpt>
      <trkpt lat="47.77739" lon="-3.56066">
        <ele>36</ele>
        <time>2019-07-14T09:39:58Z</time>
      </trkpt>
      <trkpt lat="47.77737" lon="-3.56071">
        <ele>36</ele>
        <time>2019-07-14T09:39:59Z</time>
      </trkpt>
      <trkpt lat="47.77736" lon="-3.56075">
        <ele>36</ele>
        <time>2019-07-14T09:40:00Z</time>
      </trkpt>
      <trkpt lat="47.77735" lon="-3.56078">
        <ele>36</ele>
        <time>2019-07-14T09:40:01Z</time>
      </trkpt>
      <trkpt lat="47.77735" lon="-3.56082">
        <ele>36</ele>
        <time>2019-07-14T09:40:02Z</time>
      </trkpt>
      <trkpt lat="47.77734" lon="-3.56088">
        <ele>36</ele>
        <time>2019-07-14T09:40:03Z</time>
      </trkpt>
      <trkpt lat="47.77733" lon="-3.56093">
        <ele>36</ele>
        <time>2019-07-14T09:40:04Z</time>
      </trkpt>
      <trkpt lat="47.77732" lon="-3.56099">
        <ele>36</ele>
        <time>2019-07-14T09:40:05Z</time>
      </trkpt>
      <trkpt lat="47.7773" lon="-3.56104">
        <ele>35</ele>
        <time>2019-07-14T09:40:06Z</time>
      </trkpt>
      <trkpt lat="47.77729" lon="-3.56109">
        <ele>35</ele>
        <time>2019-07-14T09:40:07Z</time>
      </trkpt>
      <trkpt lat="47.77727" lon="-3.56114">
        <ele>35</ele>
        <time>2019-07-14T09:40:08Z</time>
      </trkpt>
      <trkpt lat="47.77726" lon="-3.56118">
        <ele>35</ele>
        <time>2019-07-14T09:40:09Z</time>
      </trkpt>
      <trkpt lat="47.77724" lon="-3.56123">
        <ele>35</ele>
        <time>2019-07-14T09:40:10Z</time>
      </trkpt>
      <trkpt lat="47.77723" lon="-3.56128">
        <ele>35</ele>
        <time>2019-07-14T09:40:11Z</time>
      </trkpt>
      <trkpt lat="47.77721" lon="-3.56132">
        <ele>35</ele>
        <time>2019-07-14T09:40:12Z</time>
      </trkpt>
      <trkpt lat="47.7772" lon="-3.56137">
        <ele>35</ele>
        <time>2019-07-14T09:40:13Z</time>
      </trkpt>
      <trkpt lat="47.77718" lon="-3.56141">
        <ele>35</ele>
        <time>2019-07-14T09:40:14Z</time>
      </trkpt>
      <trkpt lat="47.77717" lon="-3.56146">
        <ele>35</ele>
        <time>2019-07-14T09:40:15Z</time>
      </trkpt>
      <trkpt lat="47.77715" lon="-3.56151">
        <ele>35</ele>
        <time>2019-07-14T09:40:16Z</time>
      </trkpt>
      <trkpt lat="47.77713" lon="-3.56156">
        <ele>35</ele>
        <time>2019-07-14T09:40:17Z</time>
      </trkpt>
      <trkpt lat="47.77712" lon="-3.56162">
        <ele>35</ele>
        <time>2019-07-14T09:40:18Z</time>
      </trkpt>
      <trkpt lat="47.7771" lon="-3.56166">
        <ele>35</ele>
        <time>2019-07-14T09:40:19Z</time>
      </trkpt>
      <trkpt lat="47.77709" lon="-3.56171">
        <ele>35</ele>
        <time>2019-07-14T09:40:20Z</time>
      </trkpt>
      <trkpt lat="47.77708" lon="-3.56176">
        <ele>35</ele>
        <time>2019-07-14T09:40:21Z</time>
      </trkpt>
      <trkpt lat="47.77707" lon="-3.56182">
        <ele>35</ele>
        <time>2019-07-14T09:40:22Z</time>
      </trkpt>
      <trkpt lat="47.77706" lon="-3.56187">
        <ele>35</ele>
        <time>2019-07-14T09:40:23Z</time>
      </trkpt>
      <trkpt lat="47.77704" lon="-3.56192">
        <ele>35</ele>
        <time>2019-07-14T09:40:24Z</time>
      </trkpt>
      <trkpt lat="47.77703" lon="-3.56197">
        <ele>35</ele>
        <time>2019-07-14T09:40:25Z</time>
      </trkpt>
      <trkpt lat="47.77701" lon="-3.56203">
        <ele>35</ele>
        <time>2019-07-14T09:40:26Z</time>
      </trkpt>
      <trkpt lat="47.777" lon="-3.56207">
        <ele>35</ele>
        <time>2019-07-14T09:40:27Z</time>
      </trkpt>
      <trkpt lat="47.77698" lon="-3.56211">
        <ele>35</ele>
        <time>2019-07-14T09:40:28Z</time>
      </trkpt>
      <trkpt lat="47.77697" lon="-3.56215">
        <ele>35</ele>
        <time>2019-07-14T09:40:29Z</time>
      </trkpt>
      <trkpt lat="47.77695" lon="-3.56219">
        <ele>35</ele>
        <time>2019-07-14T09:40:30Z</time>
      </trkpt>
      <trkpt lat="47.77692" lon="-3.56224">
        <ele>35</ele>
        <time>2019-07-14T09:40:31Z</time>
      </trkpt>
      <trkpt lat="47.7769" lon="-3.56229">
        <ele>35</ele>
        <time>2019-07-14T09:40:32Z</time>
      </trkpt>
      <trkpt lat="47.77689" lon="-3.56235">
        <ele>35</ele>
        <time>2019-07-14T09:40:33Z</time>
      </trkpt>
      <trkpt lat="47.77689" lon="-3.5624">
        <ele>35</ele>
        <time>2019-07-14T09:40:34Z</time>
      </trkpt>
      <trkpt lat="47.77689" lon="-3.56246">
        <ele>35</ele>
        <time>2019-07-14T09:40:35Z</time>
      </trkpt>
      <trkpt lat="47.7769" lon="-3.56251">
        <ele>35</ele>
        <time>2019-07-14T09:40:36Z</time>
      </trkpt>
      <trkpt lat="47.77692" lon="-3.56257">
        <ele>35</ele>
        <time>2019-07-14T09:40:37Z</time>
      </trkpt>
      <trkpt lat="47.77693" lon="-3.56263">
        <ele>35</ele>
        <time>2019-07-14T09:40:38Z</time>
      </trkpt>
      <trkpt lat="47.77694" lon="-3.56268">
        <ele>35</ele>
        <time>2019-07-14T09:40:39Z</time>
      </trkpt>
      <trkpt lat="47.77696" lon="-3.56274">
        <ele>35</ele>
        <time>2019-07-14T09:40:40Z</time>
      </trkpt>
      <trkpt lat="47.77697" lon="-3.5628">
        <ele>35</ele>
        <time>2019-07-14T09:40:41Z</time>
      </trkpt>
      <trkpt lat="47.77698" lon="-3.56286">
        <ele>35</ele>
        <time>2019-07-14T09:40:42Z</time>
      </trkpt>
      <trkpt lat="47.77699" lon="-3.56292">
        <ele>35</ele>
        <time>2019-07-14T09:40:43Z</time>
      </trkpt>
      <trkpt lat="47.777" lon="-3.56299">
        <ele>35</ele>
        <time>2019-07-14T09:40:44Z</time>
      </trkpt>
      <trkpt lat="47.77701" lon="-3.56306">
        <ele>35</ele>
        <time>2019-07-14T09:40:45Z</time>
      </trkpt>
      <trkpt lat="47.77702" lon="-3.56312">
        <ele>35</ele>
        <time>2019-07-14T09:40:46Z</time>
      </trkpt>
      <trkpt lat="47.77702" lon="-3.56319">
        <ele>35</ele>
        <time>2019-07-14T09:40:47Z</time>
      </trkpt>
      <trkpt lat="47.77703" lon="-3.56325">
        <ele>35</ele>
        <time>2019-07-14T09:40:48Z</time>
      </trkpt>
      <trkpt lat="47.77703" lon="-3.56331">
        <ele>35</ele>
        <time>2019-07-14T09:40:49Z</time>
      </trkpt>
      <trkpt lat="47.77703" lon="-3.56336">
        <ele>35</ele>
        <time>2019-07-14T09:40:50Z</time>
      </trkpt>
      <trkpt lat="47.77703" lon="-3.56341">
        <ele>35</ele>
        <time>2019-07-14T09:40:51Z</time>
      </trkpt>
      <trkpt lat="47.777" lon="-3.56345">
        <ele>35</ele>
        <time>2019-07-14T09:40:52Z</time>
      </trkpt>
      <trkpt lat="47.77697" lon="-3.56347">
        <ele>35</ele>
        <time>2019-07-14T09:40:53Z</time>
      </trkpt>
      <trkpt lat="47.77693" lon="-3.56348">
        <ele>35</ele>
        <time>2019-07-14T09:40:54Z</time>
      </trkpt>
      <trkpt lat="47.77689" lon="-3.56349">
        <ele>35</ele>
        <time>2019-07-14T09:40:55Z</time>
      </trkpt>
      <trkpt lat="47.77685" lon="-3.56351">
        <ele>35</ele>
        <time>2019-07-14T09:40:56Z</time>
      </trkpt>
      <trkpt lat="47.7768" lon="-3.56351">
        <ele>35</ele>
        <time>2019-07-14T09:40:57Z</time>
      </trkpt>
      <trkpt lat="47.77676" lon="-3.56351">
        <ele>35</ele>
        <time>2019-07-14T09:40:58Z</time>
      </trkpt>
      <trkpt lat="47.77672" lon="-3.56351">
        <ele>35</ele>
        <time>2019-07-14T09:40:59Z</time>
      </trkpt>
      <trkpt lat="47.77668" lon="-3.56351">
        <ele>36</ele>
        <time>2019-07-14T09:41:00Z</time>
      </trkpt>
      <trkpt lat="47.77663" lon="-3.56352">
        <ele>36</ele>
        <time>2019-07-14T09:41:01Z</time>
      </trkpt>
      <trkpt lat="47.77658" lon="-3.56353">
        <ele>36</ele>
        <time>2019-07-14T09:41:02Z</time>
      </trkpt>
      <trkpt lat="47.77654" lon="-3.56354">
        <ele>36</ele>
        <time>2019-07-14T09:41:03Z</time>
      </trkpt>
      <trkpt lat="47.77649" lon="-3.56355">
        <ele>37</ele>
        <time>2019-07-14T09:41:04Z</time>
      </trkpt>
      <trkpt lat="47.77644" lon="-3.56355">
        <ele>37</ele>
        <time>2019-07-14T09:41:05Z</time>
      </trkpt>
      <trkpt lat="47.7764" lon="-3.56355">
        <ele>37</ele>
        <time>2019-07-14T09:41:06Z</time>
      </trkpt>
      <trkpt lat="47.77635" lon="-3.56355">
        <ele>37</ele>
        <time>2019-07-14T09:41:07Z</time>
      </trkpt>
      <trkpt lat="47.77631" lon="-3.56355">
        <ele>38</ele>
        <time>2019-07-14T09:41:08Z</time>
      </trkpt>
      <trkpt lat="47.77627" lon="-3.56355">
        <ele>38</ele>
        <time>2019-07-14T09:41:09Z</time>
      </trkpt>
      <trkpt lat="47.77624" lon="-3.56356">
        <ele>38</ele>
        <time>2019-07-14T09:41:10Z</time>
      </trkpt>
      <trkpt lat="47.77622" lon="-3.56356">
        <ele>38</ele>
        <time>2019-07-14T09:41:11Z</time>
      </trkpt>
      <trkpt lat="47.77621" lon="-3.56356">
        <ele>39</ele>
        <time>2019-07-14T09:41:12Z</time>
      </trkpt>
      <trkpt lat="47.77619" lon="-3.56356">
        <ele>39</ele>
        <time>2019-07-14T09:41:13Z</time>
      </trkpt>
      <trkpt lat="47.77618" lon="-3.56357">
        <ele>39</ele>
        <time>2019-07-14T09:41:14Z</time>
      </trkpt>
      <trkpt lat="47.77615" lon="-3.56357">
        <ele>39</ele>
        <time>2019-07-14T09:41:15Z</time>
      </trkpt>
      <trkpt lat="47.77613" lon="-3.56357">
        <ele>39</ele>
        <time>2019-07-14T09:41:16Z</time>
      </trkpt>
      <trkpt lat="47.77611" lon="-3.56358">
        <ele>39</ele>
        <time>2019-07-14T09:41:17Z</time>
      </trkpt>
      <trkpt lat="47.77609" lon="-3.56358">
        <ele>39</ele>
        <time>2019-07-14T09:41:18Z</time>
      </trkpt>
      <trkpt lat="47.77608" lon="-3.56358">
        <ele>40</ele>
        <time>2019-07-14T09:41:19Z</time>
      </trkpt>
      <trkpt lat="47.77605" lon="-3.56358">
        <ele>40</ele>
        <time>2019-07-14T09:41:20Z</time>
      </trkpt>
      <trkpt lat="47.77602" lon="-3.56359">
        <ele>40</ele>
        <time>2019-07-14T09:41:21Z</time>
      </trkpt>
      <trkpt lat="47.77599" lon="-3.5636">
        <ele>40</ele>
        <time>2019-07-14T09:41:22Z</time>
      </trkpt>
      <trkpt lat="47.77597" lon="-3.56362">
        <ele>40</ele>
        <time>2019-07-14T09:41:23Z</time>
      </trkpt>
      <trkpt lat="47.77595" lon="-3.56362">
        <ele>40</ele>
        <time>2019-07-14T09:41:24Z</time>
      </trkpt>
      <trkpt lat="47.77594" lon="-3.56362">
        <ele>40</ele>
        <time>2019-07-14T09:41:25Z</time>
      </trkpt>
      <trkpt lat="47.77593" lon="-3.56362">
        <ele>40</ele>
        <time>2019-07-14T09:41:26Z</time>
      </trkpt>
      <trkpt lat="47.77593" lon="-3.56361">
        <ele>40</ele>
        <time>2019-07-14T09:41:27Z</time>
      </trkpt>
      <trkpt lat="47.77594" lon="-3.56361">
        <ele>40</ele>
        <time>2019-07-14T09:41:28Z</time>
      </trkpt>
      <trkpt lat="47.77595" lon="-3.56361">
        <ele>41</ele>
        <time>2019-07-14T09:41:29Z</time>
      </trkpt>
      <trkpt lat="47.77595" lon="-3.5636">
        <ele>41</ele>
        <time>2019-07-14T09:41:30Z</time>
      </trkpt>
      <trkpt lat="47.77597" lon="-3.5636">
        <ele>41</ele>
        <time>2019-07-14T09:41:31Z</time>
      </trkpt>
      <trkpt lat="47.77598" lon="-3.56361">
        <ele>41</ele>
        <time>2019-07-14T09:41:32Z</time>
      </trkpt>
      <trkpt lat="47.776" lon="-3.56361">
        <ele>41</ele>
        <time>2019-07-14T09:41:33Z</time>
      </trkpt>
      <trkpt lat="47.77602" lon="-3.56362">
        <ele>41</ele>
        <time>2019-07-14T09:41:34Z</time>
      </trkpt>
      <trkpt lat="47.77604" lon="-3.56362">
        <ele>41</ele>
        <time>2019-07-14T09:41:35Z</time>
      </trkpt>
      <trkpt lat="47.77606" lon="-3.56363">
        <ele>41</ele>
        <time>2019-07-14T09:41:36Z</time>
      </trkpt>
      <trkpt lat="47.77608" lon="-3.56363">
        <ele>41</ele>
        <time>2019-07-14T09:41:37Z</time>
      </trkpt>
      <trkpt lat="47.77611" lon="-3.56364">
        <ele>42</ele>
        <time>2019-07-14T09:41:38Z</time>
      </trkpt>
      <trkpt lat="47.77613" lon="-3.56364">
        <ele>42</ele>
        <time>2019-07-14T09:41:39Z</time>
      </trkpt>
      <trkpt lat="47.77615" lon="-3.56364">
        <ele>42</ele>
        <time>2019-07-14T09:41:40Z</time>
      </trkpt>
      <trkpt lat="47.77618" lon="-3.56365">
        <ele>42</ele>
        <time>2019-07-14T09:41:41Z</time>
      </trkpt>
      <trkpt lat="47.77619" lon="-3.56364">
        <ele>42</ele>
        <time>2019-07-14T09:41:42Z</time>
      </trkpt>
      <trkpt lat="47.77622" lon="-3.56364">
        <ele>42</ele>
        <time>2019-07-14T09:41:43Z</time>
      </trkpt>
      <trkpt lat="47.77624" lon="-3.56365">
        <ele>42</ele>
        <time>2019-07-14T09:41:44Z</time>
      </trkpt>
      <trkpt lat="47.77626" lon="-3.56365">
        <ele>43</ele>
        <time>2019-07-14T09:41:45Z</time>
      </trkpt>
      <trkpt lat="47.77629" lon="-3.56366">
        <ele>43</ele>
        <time>2019-07-14T09:41:46Z</time>
      </trkpt>
      <trkpt lat="47.77631" lon="-3.56366">
        <ele>43</ele>
        <time>2019-07-14T09:41:47Z</time>
      </trkpt>
      <trkpt lat="47.77634" lon="-3.56366">
        <ele>43</ele>
        <time>2019-07-14T09:41:48Z</time>
      </trkpt>
      <trkpt lat="47.77635" lon="-3.56366">
        <ele>43</ele>
        <time>2019-07-14T09:41:49Z</time>
      </trkpt>
      <trkpt lat="47.77638" lon="-3.56366">
        <ele>43</ele>
        <time>2019-07-14T09:41:50Z</time>
      </trkpt>
      <trkpt lat="47.77641" lon="-3.56366">
        <ele>43</ele>
        <time>2019-07-14T09:41:51Z</time>
      </trkpt>
      <trkpt lat="47.77644" lon="-3.56366">
        <ele>43</ele>
        <time>2019-07-14T09:41:52Z</time>
      </trkpt>
      <trkpt lat="47.77647" lon="-3.56366">
        <ele>43</ele>
        <time>2019-07-14T09:41:53Z</time>
      </trkpt>
      <trkpt lat="47.7765" lon="-3.56366">
        <ele>43</ele>
        <time>2019-07-14T09:41:54Z</time>
      </trkpt>
      <trkpt lat="47.77653" lon="-3.56366">
        <ele>43</ele>
        <time>2019-07-14T09:41:55Z</time>
      </trkpt>
      <trkpt lat="47.77655" lon="-3.56366">
        <ele>43</ele>
        <time>2019-07-14T09:41:56Z</time>
      </trkpt>
      <trkpt lat="47.77657" lon="-3.56366">
        <ele>43</ele>
        <time>2019-07-14T09:41:57Z</time>
      </trkpt>
      <trkpt lat="47.77658" lon="-3.56366">
        <ele>44</ele>
        <time>2019-07-14T09:41:58Z</time>
      </trkpt>
      <trkpt lat="47.7766" lon="-3.56366">
        <ele>44</ele>
        <time>2019-07-14T09:41:59Z</time>
      </trkpt>
      <trkpt lat="47.77662" lon="-3.56366">
        <ele>44</ele>
        <time>2019-07-14T09:42:00Z</time>
      </trkpt>
      <trkpt lat="47.77665" lon="-3.56365">
        <ele>45</ele>
        <time>2019-07-14T09:42:01Z</time>
      </trkpt>
      <trkpt lat="47.77668" lon="-3.56365">
        <ele>45</ele>
        <time>2019-07-14T09:42:02Z</time>
      </trkpt>
      <trkpt lat="47.7767" lon="-3.56366">
        <ele>46</ele>
        <time>2019-07-14T09:42:03Z</time>
      </trkpt>
      <trkpt lat="47.77674" lon="-3.56365">
        <ele>46</ele>
        <time>2019-07-14T09:42:04Z</time>
      </trkpt>
      <trkpt lat="47.77676" lon="-3.56364">
        <ele>46</ele>
        <time>2019-07-14T09:42:05Z</time>
      </trkpt>
      <trkpt lat="47.77678" lon="-3.56362">
        <ele>47</ele>
        <time>2019-07-14T09:42:06Z</time>
      </trkpt>
      <trkpt lat="47.7768" lon="-3.56362">
        <ele>47</ele>
        <time>2019-07-14T09:42:07Z</time>
      </trkpt>
      <trkpt lat="47.77681" lon="-3.56363">
        <ele>48</ele>
        <time>2019-07-14T09:42:08Z</time>
      </trkpt>
      <trkpt lat="47.77682" lon="-3.56363">
        <ele>48</ele>
        <time>2019-07-14T09:42:09Z</time>
      </trkpt>
      <trkpt lat="47.77681" lon="-3.56363">
        <ele>48</ele>
        <time>2019-07-14T09:42:10Z</time>
      </trkpt>
      <trkpt lat="47.7768" lon="-3.56362">
        <ele>49</ele>
        <time>2019-07-14T09:42:11Z</time>
      </trkpt>
      <trkpt lat="47.77678" lon="-3.56362">
        <ele>49</ele>
        <time>2019-07-14T09:42:12Z</time>
      </trkpt>
      <trkpt lat="47.77676" lon="-3.56361">
        <ele>49</ele>
        <time>2019-07-14T09:42:13Z</time>
      </trkpt>
      <trkpt lat="47.77674" lon="-3.56361">
        <ele>49</ele>
        <time>2019-07-14T09:42:14Z</time>
      </trkpt>
      <trkpt lat="47.77672" lon="-3.56361">
        <ele>50</ele>
        <time>2019-07-14T09:42:15Z</time>
      </trkpt>
      <trkpt lat="47.77669" lon="-3.5636">
        <ele>50</ele>
        <time>2019-07-14T09:42:16Z</time>
      </trkpt>
      <trkpt lat="47.77667" lon="-3.5636">
        <ele>50</ele>
        <time>2019-07-14T09:42:17Z</time>
      </trkpt>
      <trkpt lat="47.77666" lon="-3.56359">
        <ele>50</ele>
        <time>2019-07-14T09:42:18Z</time>
      </trkpt>
      <trkpt lat="47.77664" lon="-3.56358">
        <ele>50</ele>
        <time>2019-07-14T09:42:19Z</time>
      </trkpt>
      <trkpt lat="47.77662" lon="-3.56359">
        <ele>50</ele>
        <time>2019-07-14T09:42:20Z</time>
      </trkpt>
      <trkpt lat="47.7766" lon="-3.56359">
        <ele>50</ele>
        <time>2019-07-14T09:42:21Z</time>
      </trkpt>
      <trkpt lat="47.77658" lon="-3.56359">
        <ele>50</ele>
        <time>2019-07-14T09:42:22Z</time>
      </trkpt>
      <trkpt lat="47.77656" lon="-3.56358">
        <ele>50</ele>
        <time>2019-07-14T09:42:23Z</time>
      </trkpt>
      <trkpt lat="47.77654" lon="-3.56358">
        <ele>50</ele>
        <time>2019-07-14T09:42:24Z</time>
      </trkpt>
      <trkpt lat="47.77652" lon="-3.56358">
        <ele>50</ele>
        <time>2019-07-14T09:42:25Z</time>
      </trkpt>
      <trkpt lat="47.7765" lon="-3.56358">
        <ele>50</ele>
        <time>2019-07-14T09:42:26Z</time>
      </trkpt>
      <trkpt lat="47.77647" lon="-3.56358">
        <ele>50</ele>
        <time>2019-07-14T09:42:27Z</time>
      </trkpt>
      <trkpt lat="47.77643" lon="-3.56358">
        <ele>50</ele>
        <time>2019-07-14T09:42:28Z</time>
      </trkpt>
      <trkpt lat="47.7764" lon="-3.56359">
        <ele>51</ele>
        <time>2019-07-14T09:42:29Z</time>
      </trkpt>
      <trkpt lat="47.77636" lon="-3.56359">
        <ele>51</ele>
        <time>2019-07-14T09:42:30Z</time>
      </trkpt>
      <trkpt lat="47.77632" lon="-3.56359">
        <ele>51</ele>
        <time>2019-07-14T09:42:31Z</time>
      </trkpt>
      <trkpt lat="47.77628" lon="-3.5636">
        <ele>51</ele>
        <time>2019-07-14T09:42:32Z</time>
      </trkpt>
      <trkpt lat="47.77623" lon="-3.56361">
        <ele>51</ele>
        <time>2019-07-14T09:42:33Z</time>
      </trkpt>
      <trkpt lat="47.77619" lon="-3.56361">
        <ele>51</ele>
        <time>2019-07-14T09:42:34Z</time>
      </trkpt>
      <trkpt lat="47.77615" lon="-3.56361">
        <ele>51</ele>
        <time>2019-07-14T09:42:35Z</time>
      </trkpt>
      <trkpt lat="47.77609" lon="-3.56362">
        <ele>51</ele>
        <time>2019-07-14T09:42:36Z</time>
      </trkpt>
      <trkpt lat="47.77604" lon="-3.56364">
        <ele>51</ele>
        <time>2019-07-14T09:42:37Z</time>
      </trkpt>
      <trkpt lat="47.77599" lon="-3.56365">
        <ele>51</ele>
        <time>2019-07-14T09:42:38Z</time>
      </trkpt>
      <trkpt lat="47.77594" lon="-3.56369">
        <ele>51</ele>
        <time>2019-07-14T09:42:39Z</time>
      </trkpt>
      <trkpt lat="47.7759" lon="-3.56373">
        <ele>51</ele>
        <time>2019-07-14T09:42:40Z</time>
      </trkpt>
      <trkpt lat="47.77587" lon="-3.56377">
        <ele>51</ele>
        <time>2019-07-14T09:42:41Z</time>
      </trkpt>
      <trkpt lat="47.77584" lon="-3.56383">
        <ele>51</ele>
        <time>2019-07-14T09:42:42Z</time>
      </trkpt>
      <trkpt lat="47.77581" lon="-3.56389">
        <ele>50</ele>
        <time>2019-07-14T09:42:43Z</time>
      </trkpt>
      <trkpt lat="47.77578" lon="-3.56395">
        <ele>50</ele>
        <time>2019-07-14T09:42:44Z</time>
      </trkpt>
      <trkpt lat="47.77574" lon="-3.56401">
        <ele>50</ele>
        <time>2019-07-14T09:42:45Z</time>
      </trkpt>
      <trkpt lat="47.77569" lon="-3.56406">
        <ele>50</ele>
        <time>2019-07-14T09:42:46Z</time>
      </trkpt>
      <trkpt lat="47.77565" lon="-3.56411">
        <ele>50</ele>
        <time>2019-07-14T09:42:47Z</time>
      </trkpt>
      <trkpt lat="47.77561" lon="-3.56414">
        <ele>50</ele>
        <time>2019-07-14T09:42:48Z</time>
      </trkpt>
      <trkpt lat="47.77557" lon="-3.56419">
        <ele>50</ele>
        <time>2019-07-14T09:42:49Z</time>
      </trkpt>
      <trkpt lat="47.77554" lon="-3.56424">
        <ele>49</ele>
        <time>2019-07-14T09:42:50Z</time>
      </trkpt>
      <trkpt lat="47.77551" lon="-3.56428">
        <ele>49</ele>
        <time>2019-07-14T09:42:51Z</time>
      </trkpt>
      <trkpt lat="47.77549" lon="-3.56431">
        <ele>49</ele>
        <time>2019-07-14T09:42:52Z</time>
      </trkpt>
      <trkpt lat="47.77546" lon="-3.56434">
        <ele>49</ele>
        <time>2019-07-14T09:42:53Z</time>
      </trkpt>
      <trkpt lat="47.77543" lon="-3.56438">
        <ele>49</ele>
        <time>2019-07-14T09:42:54Z</time>
      </trkpt>
      <trkpt lat="47.77541" lon="-3.56443">
        <ele>49</ele>
        <time>2019-07-14T09:42:55Z</time>
      </trkpt>
      <trkpt lat="47.77537" lon="-3.56447">
        <ele>49</ele>
        <time>2019-07-14T09:42:56Z</time>
      </trkpt>
      <trkpt lat="47.77533" lon="-3.56451">
        <ele>48</ele>
        <time>2019-07-14T09:42:57Z</time>
      </trkpt>
      <trkpt lat="47.77529" lon="-3.56455">
        <ele>48</ele>
        <time>2019-07-14T09:42:58Z</time>
      </trkpt>
      <trkpt lat="47.77524" lon="-3.56459">
        <ele>48</ele>
        <time>2019-07-14T09:42:59Z</time>
      </trkpt>
      <trkpt lat="47.77519" lon="-3.56463">
        <ele>48</ele>
        <time>2019-07-14T09:43:00Z</time>
      </trkpt>
      <trkpt lat="47.77515" lon="-3.56469">
        <ele>48</ele>
        <time>2019-07-14T09:43:01Z</time>
      </trkpt>
      <trkpt lat="47.77511" lon="-3.56474">
        <ele>48</ele>
        <time>2019-07-14T09:43:02Z</time>
      </trkpt>
      <trkpt lat="47.77506" lon="-3.5648">
        <ele>47</ele>
        <time>2019-07-14T09:43:03Z</time>
      </trkpt>
      <trkpt lat="47.77503" lon="-3.56486">
        <ele>47</ele>
        <time>2019-07-14T09:43:04Z</time>
      </trkpt>
      <trkpt lat="47.77499" lon="-3.56492">
        <ele>47</ele>
        <time>2019-07-14T09:43:05Z</time>
      </trkpt>
      <trkpt lat="47.77495" lon="-3.56497">
        <ele>47</ele>
        <time>2019-07-14T09:43:06Z</time>
      </trkpt>
      <trkpt lat="47.77492" lon="-3.56503">
        <ele>47</ele>
        <time>2019-07-14T09:43:07Z</time>
      </trkpt>
      <trkpt lat="47.77488" lon="-3.56509">
        <ele>47</ele>
        <time>2019-07-14T09:43:08Z</time>
      </trkpt>
      <trkpt lat="47.77485" lon="-3.56515">
        <ele>47</ele>
        <time>2019-07-14T09:43:09Z</time>
      </trkpt>
      <trkpt lat="47.77482" lon="-3.56521">
        <ele>47</ele>
        <time>2019-07-14T09:43:10Z</time>
      </trkpt>
      <trkpt lat="47.77479" lon="-3.56527">
        <ele>46</ele>
        <time>2019-07-14T09:43:11Z</time>
      </trkpt>
      <trkpt lat="47.77477" lon="-3.56532">
        <ele>46</ele>
        <time>2019-07-14T09:43:12Z</time>
      </trkpt>
      <trkpt lat="47.77475" lon="-3.56536">
        <ele>46</ele>
        <time>2019-07-14T09:43:13Z</time>
      </trkpt>
      <trkpt lat="47.77473" lon="-3.56539">
        <ele>45</ele>
        <time>2019-07-14T09:43:14Z</time>
      </trkpt>
      <trkpt lat="47.77471" lon="-3.56542">
        <ele>45</ele>
        <time>2019-07-14T09:43:15Z</time>
      </trkpt>
      <trkpt lat="47.7747" lon="-3.56544">
        <ele>44</ele>
        <time>2019-07-14T09:43:16Z</time>
      </trkpt>
      <trkpt lat="47.77469" lon="-3.56545">
        <ele>44</ele>
        <time>2019-07-14T09:43:17Z</time>
      </trkpt>
      <trkpt lat="47.77469" lon="-3.56546">
        <ele>44</ele>
        <time>2019-07-14T09:43:18Z</time>
      </trkpt>
      <trkpt lat="47.77469" lon="-3.56546">
        <ele>43</ele>
        <time>2019-07-14T09:43:19Z</time>
      </trkpt>
      <trkpt lat="47.77464" lon="-3.56549">
        <ele>42</ele>
        <time>2019-07-14T09:43:20Z</time>
      </trkpt>
      <trkpt lat="47.77462" lon="-3.5655">
        <ele>42</ele>
        <time>2019-07-14T09:43:21Z</time>
      </trkpt>
      <trkpt lat="47.77458" lon="-3.56551">
        <ele>42</ele>
        <time>2019-07-14T09:43:22Z</time>
      </trkpt>
      <trkpt lat="47.77455" lon="-3.5655">
        <ele>42</ele>
        <time>2019-07-14T09:43:23Z</time>
      </trkpt>
      <trkpt lat="47.77452" lon="-3.56549">
        <ele>41</ele>
        <time>2019-07-14T09:43:24Z</time>
      </trkpt>
      <trkpt lat="47.77448" lon="-3.56546">
        <ele>41</ele>
        <time>2019-07-14T09:43:25Z</time>
      </trkpt>
      <trkpt lat="47.77444" lon="-3.56545">
        <ele>41</ele>
        <time>2019-07-14T09:43:26Z</time>
      </trkpt>
      <trkpt lat="47.7744" lon="-3.56546">
        <ele>41</ele>
        <time>2019-07-14T09:43:27Z</time>
      </trkpt>
      <trkpt lat="47.77437" lon="-3.56551">
        <ele>41</ele>
        <time>2019-07-14T09:43:28Z</time>
      </trkpt>
      <trkpt lat="47.77433" lon="-3.56555">
        <ele>41</ele>
        <time>2019-07-14T09:43:29Z</time>
      </trkpt>
      <trkpt lat="47.77429" lon="-3.56558">
        <ele>41</ele>
        <time>2019-07-14T09:43:30Z</time>
      </trkpt>
      <trkpt lat="47.77425" lon="-3.5656">
        <ele>41</ele>
        <time>2019-07-14T09:43:31Z</time>
      </trkpt>
      <trkpt lat="47.77421" lon="-3.5656">
        <ele>41</ele>
        <time>2019-07-14T09:43:32Z</time>
      </trkpt>
      <trkpt lat="47.77417" lon="-3.5656">
        <ele>41</ele>
        <time>2019-07-14T09:43:33Z</time>
      </trkpt>
      <trkpt lat="47.77412" lon="-3.5656">
        <ele>41</ele>
        <time>2019-07-14T09:43:34Z</time>
      </trkpt>
      <trkpt lat="47.77408" lon="-3.56559">
        <ele>41</ele>
        <time>2019-07-14T09:43:35Z</time>
      </trkpt>
      <trkpt lat="47.77403" lon="-3.56559">
        <ele>40</ele>
        <time>2019-07-14T09:43:36Z</time>
      </trkpt>
      <trkpt lat="47.77398" lon="-3.56558">
        <ele>40</ele>
        <time>2019-07-14T09:43:37Z</time>
      </trkpt>
      <trkpt lat="47.77394" lon="-3.56558">
        <ele>40</ele>
        <time>2019-07-14T09:43:38Z</time>
      </trkpt>
      <trkpt lat="47.7739" lon="-3.56556">
        <ele>40</ele>
        <time>2019-07-14T09:43:39Z</time>
      </trkpt>
      <trkpt lat="47.77386" lon="-3.56555">
        <ele>40</ele>
        <time>2019-07-14T09:43:40Z</time>
      </trkpt>
      <trkpt lat="47.77381" lon="-3.56554">
        <ele>40</ele>
        <time>2019-07-14T09:43:41Z</time>
      </trkpt>
      <trkpt lat="47.77376" lon="-3.56553">
        <ele>40</ele>
        <time>2019-07-14T09:43:42Z</time>
      </trkpt>
      <trkpt lat="47.7737" lon="-3.56551">
        <ele>40</ele>
        <time>2019-07-14T09:43:43Z</time>
      </trkpt>
      <trkpt lat="47.77366" lon="-3.56549">
        <ele>40</ele>
        <time>2019-07-14T09:43:44Z</time>
      </trkpt>
      <trkpt lat="47.77361" lon="-3.56546">
        <ele>40</ele>
        <time>2019-07-14T09:43:45Z</time>
      </trkpt>
      <trkpt lat="47.77357" lon="-3.56544">
        <ele>40</ele>
        <time>2019-07-14T09:43:46Z</time>
      </trkpt>
      <trkpt lat="47.77353" lon="-3.56542">
        <ele>40</ele>
        <time>2019-07-14T09:43:47Z</time>
      </trkpt>
      <trkpt lat="47.77348" lon="-3.5654">
        <ele>40</ele>
        <time>2019-07-14T09:43:48Z</time>
      </trkpt>
      <trkpt lat="47.77343" lon="-3.56538">
        <ele>40</ele>
        <time>2019-07-14T09:43:49Z</time>
      </trkpt>
      <trkpt lat="47.77339" lon="-3.56534">
        <ele>40</ele>
        <time>2019-07-14T09:43:50Z</time>
      </trkpt>
      <trkpt lat="47.77334" lon="-3.5653">
        <ele>40</ele>
        <time>2019-07-14T09:43:51Z</time>
      </trkpt>
      <trkpt lat="47.77329" lon="-3.56526">
        <ele>40</ele>
        <time>2019-07-14T09:43:52Z</time>
      </trkpt>
      <trkpt lat="47.77324" lon="-3.56523">
        <ele>40</ele>
        <time>2019-07-14T09:43:53Z</time>
      </trkpt>
      <trkpt lat="47.77319" lon="-3.5652">
        <ele>40</ele>
        <time>2019-07-14T09:43:54Z</time>
      </trkpt>
      <trkpt lat="47.77314" lon="-3.56517">
        <ele>40</ele>
        <time>2019-07-14T09:43:55Z</time>
      </trkpt>
      <trkpt lat="47.77309" lon="-3.56516">
        <ele>40</ele>
        <time>2019-07-14T09:43:56Z</time>
      </trkpt>
      <trkpt lat="47.77307" lon="-3.56516">
        <ele>40</ele>
        <time>2019-07-14T09:43:57Z</time>
      </trkpt>
      <trkpt lat="47.77306" lon="-3.56517">
        <ele>40</ele>
        <time>2019-07-14T09:43:58Z</time>
      </trkpt>
      <trkpt lat="47.77306" lon="-3.56519">
        <ele>39</ele>
        <time>2019-07-14T09:43:59Z</time>
      </trkpt>
      <trkpt lat="47.77307" lon="-3.56521">
        <ele>39</ele>
        <time>2019-07-14T09:44:00Z</time>
      </trkpt>
      <trkpt lat="47.77309" lon="-3.56524">
        <ele>39</ele>
        <time>2019-07-14T09:44:01Z</time>
      </trkpt>
      <trkpt lat="47.77309" lon="-3.56527">
        <ele>39</ele>
        <time>2019-07-14T09:44:02Z</time>
      </trkpt>
      <trkpt lat="47.7731" lon="-3.56532">
        <ele>39</ele>
        <time>2019-07-14T09:44:03Z</time>
      </trkpt>
      <trkpt lat="47.77312" lon="-3.56536">
        <ele>39</ele>
        <time>2019-07-14T09:44:04Z</time>
      </trkpt>
      <trkpt lat="47.77313" lon="-3.56542">
        <ele>39</ele>
        <time>2019-07-14T09:44:05Z</time>
      </trkpt>
      <trkpt lat="47.77315" lon="-3.56547">
        <ele>39</ele>
        <time>2019-07-14T09:44:06Z</time>
      </trkpt>
      <trkpt lat="47.77316" lon="-3.56553">
        <ele>39</ele>
        <time>2019-07-14T09:44:07Z</time>
      </trkpt>
      <trkpt lat="47.77316" lon="-3.56558">
        <ele>39</ele>
        <time>2019-07-14T09:44:08Z</time>
      </trkpt>
      <trkpt lat="47.77317" lon="-3.56563">
        <ele>39</ele>
        <time>2019-07-14T09:44:09Z</time>
      </trkpt>
      <trkpt lat="47.77317" lon="-3.56568">
        <ele>39</ele>
        <time>2019-07-14T09:44:10Z</time>
      </trkpt>
      <trkpt lat="47.77316" lon="-3.56575">
        <ele>38</ele>
        <time>2019-07-14T09:44:11Z</time>
      </trkpt>
      <trkpt lat="47.77315" lon="-3.56582">
        <ele>38</ele>
        <time>2019-07-14T09:44:12Z</time>
      </trkpt>
      <trkpt lat="47.77313" lon="-3.56591">
        <ele>38</ele>
        <time>2019-07-14T09:44:13Z</time>
      </trkpt>
      <trkpt lat="47.77311" lon="-3.56599">
        <ele>38</ele>
        <time>2019-07-14T09:44:14Z</time>
      </trkpt>
      <trkpt lat="47.77309" lon="-3.56608">
        <ele>38</ele>
        <time>2019-07-14T09:44:15Z</time>
      </trkpt>
      <trkpt lat="47.77307" lon="-3.56617">
        <ele>37</ele>
        <time>2019-07-14T09:44:16Z</time>
      </trkpt>
      <trkpt lat="47.77306" lon="-3.56627">
        <ele>37</ele>
        <time>2019-07-14T09:44:17Z</time>
      </trkpt>
      <trkpt lat="47.77305" lon="-3.56637">
        <ele>37</ele>
        <time>2019-07-14T09:44:18Z</time>
      </trkpt>
      <trkpt lat="47.77304" lon="-3.56647">
        <ele>36</ele>
        <time>2019-07-14T09:44:19Z</time>
      </trkpt>
      <trkpt lat="47.77303" lon="-3.56657">
        <ele>36</ele>
        <time>2019-07-14T09:44:20Z</time>
      </trkpt>
      <trkpt lat="47.77302" lon="-3.56667">
        <ele>36</ele>
        <time>2019-07-14T09:44:21Z</time>
      </trkpt>
      <trkpt lat="47.77301" lon="-3.56676">
        <ele>35</ele>
        <time>2019-07-14T09:44:22Z</time>
      </trkpt>
      <trkpt lat="47.77299" lon="-3.56684">
        <ele>35</ele>
        <time>2019-07-14T09:44:23Z</time>
      </trkpt>
      <trkpt lat="47.77298" lon="-3.56692">
        <ele>35</ele>
        <time>2019-07-14T09:44:24Z</time>
      </trkpt>
      <trkpt lat="47.77297" lon="-3.567">
        <ele>35</ele>
        <time>2019-07-14T09:44:25Z</time>
      </trkpt>
      <trkpt lat="47.77296" lon="-3.56708">
        <ele>35</ele>
        <time>2019-07-14T09:44:26Z</time>
      </trkpt>
      <trkpt lat="47.77296" lon="-3.56715">
        <ele>34</ele>
        <time>2019-07-14T09:44:27Z</time>
      </trkpt>
      <trkpt lat="47.77295" lon="-3.56722">
        <ele>34</ele>
        <time>2019-07-14T09:44:28Z</time>
      </trkpt>
      <trkpt lat="47.77294" lon="-3.56729">
        <ele>34</ele>
        <time>2019-07-14T09:44:29Z</time>
      </trkpt>
      <trkpt lat="47.77294" lon="-3.56736">
        <ele>34</ele>
        <time>2019-07-14T09:44:30Z</time>
      </trkpt>
      <trkpt lat="47.77292" lon="-3.56743">
        <ele>34</ele>
        <time>2019-07-14T09:44:31Z</time>
      </trkpt>
      <trkpt lat="47.77291" lon="-3.56751">
        <ele>34</ele>
        <time>2019-07-14T09:44:32Z</time>
      </trkpt>
      <trkpt lat="47.7729" lon="-3.56759">
        <ele>34</ele>
        <time>2019-07-14T09:44:33Z</time>
      </trkpt>
      <trkpt lat="47.77288" lon="-3.56767">
        <ele>35</ele>
        <time>2019-07-14T09:44:34Z</time>
      </trkpt>
      <trkpt lat="47.77287" lon="-3.56776">
        <ele>35</ele>
        <time>2019-07-14T09:44:35Z</time>
      </trkpt>
      <trkpt lat="47.77286" lon="-3.56783">
        <ele>35</ele>
        <time>2019-07-14T09:44:36Z</time>
      </trkpt>
      <trkpt lat="47.77285" lon="-3.56791">
        <ele>34</ele>
        <time>2019-07-14T09:44:37Z</time>
      </trkpt>
      <trkpt lat="47.77284" lon="-3.56798">
        <ele>34</ele>
        <time>2019-07-14T09:44:38Z</time>
      </trkpt>
      <trkpt lat="47.77284" lon="-3.56806">
        <ele>34</ele>
        <time>2019-07-14T09:44:39Z</time>
      </trkpt>
      <trkpt lat="47.77283" lon="-3.56814">
        <ele>34</ele>
        <time>2019-07-14T09:44:40Z</time>
      </trkpt>
      <trkpt lat="47.77282" lon="-3.56821">
        <ele>34</ele>
        <time>2019-07-14T09:44:41Z</time>
      </trkpt>
      <trkpt lat="47.7728" lon="-3.56828">
        <ele>34</ele>
        <time>2019-07-14T09:44:42Z</time>
      </trkpt>
      <trkpt lat="47.77279" lon="-3.56835">
        <ele>34</ele>
        <time>2019-07-14T09:44:43Z</time>
      </trkpt>
      <trkpt lat="47.77277" lon="-3.56842">
        <ele>34</ele>
        <time>2019-07-14T09:44:44Z</time>
      </trkpt>
      <trkpt lat="47.77276" lon="-3.56849">
        <ele>34</ele>
        <time>2019-07-14T09:44:45Z</time>
      </trkpt>
      <trkpt lat="47.77274" lon="-3.56857">
        <ele>34</ele>
        <time>2019-07-14T09:44:46Z</time>
      </trkpt>
      <trkpt lat="47.77274" lon="-3.56864">
        <ele>34</ele>
        <time>2019-07-14T09:44:47Z</time>
      </trkpt>
      <trkpt lat="47.77272" lon="-3.5687">
        <ele>34</ele>
        <time>2019-07-14T09:44:48Z</time>
      </trkpt>
      <trkpt lat="47.77271" lon="-3.56877">
        <ele>34</ele>
        <time>2019-07-14T09:44:49Z</time>
      </trkpt>
      <trkpt lat="47.77272" lon="-3.56883">
        <ele>34</ele>
        <time>2019-07-14T09:44:50Z</time>
      </trkpt>
      <trkpt lat="47.77274" lon="-3.56888">
        <ele>34</ele>
        <time>2019-07-14T09:44:51Z</time>
      </trkpt>
      <trkpt lat="47.77277" lon="-3.56891">
        <ele>34</ele>
        <time>2019-07-14T09:44:52Z</time>
      </trkpt>
      <trkpt lat="47.7728" lon="-3.56893">
        <ele>34</ele>
        <time>2019-07-14T09:44:53Z</time>
      </trkpt>
      <trkpt lat="47.77284" lon="-3.56896">
        <ele>34</ele>
        <time>2019-07-14T09:44:54Z</time>
      </trkpt>
      <trkpt lat="47.77287" lon="-3.56898">
        <ele>34</ele>
        <time>2019-07-14T09:44:55Z</time>
      </trkpt>
      <trkpt lat="47.7729" lon="-3.569">
        <ele>34</ele>
        <time>2019-07-14T09:44:56Z</time>
      </trkpt>
      <trkpt lat="47.77293" lon="-3.56902">
        <ele>35</ele>
        <time>2019-07-14T09:44:57Z</time>
      </trkpt>
      <trkpt lat="47.77296" lon="-3.56903">
        <ele>35</ele>
        <time>2019-07-14T09:44:58Z</time>
      </trkpt>
      <trkpt lat="47.77298" lon="-3.56905">
        <ele>35</ele>
        <time>2019-07-14T09:44:59Z</time>
      </trkpt>
      <trkpt lat="47.77302" lon="-3.56907">
        <ele>35</ele>
        <time>2019-07-14T09:45:00Z</time>
      </trkpt>
      <trkpt lat="47.77305" lon="-3.56909">
        <ele>36</ele>
        <time>2019-07-14T09:45:01Z</time>
      </trkpt>
      <trkpt lat="47.77309" lon="-3.56912">
        <ele>36</ele>
        <time>2019-07-14T09:45:02Z</time>
      </trkpt>
      <trkpt lat="47.77313" lon="-3.56914">
        <ele>36</ele>
        <time>2019-07-14T09:45:03Z</time>
      </trkpt>
      <trkpt lat="47.77317" lon="-3.56916">
        <ele>36</ele>
        <time>2019-07-14T09:45:04Z</time>
      </trkpt>
      <trkpt lat="47.77322" lon="-3.56918">
        <ele>37</ele>
        <time>2019-07-14T09:45:05Z</time>
      </trkpt>
      <trkpt lat="47.77326" lon="-3.5692">
        <ele>37</ele>
        <time>2019-07-14T09:45:06Z</time>
      </trkpt>
      <trkpt lat="47.7733" lon="-3.56922">
        <ele>37</ele>
        <time>2019-07-14T09:45:07Z</time>
      </trkpt>
      <trkpt lat="47.77335" lon="-3.56924">
        <ele>37</ele>
        <time>2019-07-14T09:45:08Z</time>
      </trkpt>
      <trkpt lat="47.77339" lon="-3.56927">
        <ele>37</ele>
        <time>2019-07-14T09:45:09Z</time>
      </trkpt>
      <trkpt lat="47.77344" lon="-3.56929">
        <ele>37</ele>
        <time>2019-07-14T09:45:10Z</time>
      </trkpt>
      <trkpt lat="47.77349" lon="-3.56933">
        <ele>38</ele>
        <time>2019-07-14T09:45:11Z</time>
      </trkpt>
      <trkpt lat="47.77355" lon="-3.56936">
        <ele>38</ele>
        <time>2019-07-14T09:45:12Z</time>
      </trkpt>
      <trkpt lat="47.7736" lon="-3.56942">
        <ele>38</ele>
        <time>2019-07-14T09:45:13Z</time>
      </trkpt>
      <trkpt lat="47.77366" lon="-3.56947">
        <ele>38</ele>
        <time>2019-07-14T09:45:14Z</time>
      </trkpt>
      <trkpt lat="47.77372" lon="-3.56952">
        <ele>38</ele>
        <time>2019-07-14T09:45:15Z</time>
      </trkpt>
      <trkpt lat="47.77377" lon="-3.56958">
        <ele>38</ele>
        <time>2019-07-14T09:45:16Z</time>
      </trkpt>
      <trkpt lat="47.77382" lon="-3.56963">
        <ele>38</ele>
        <time>2019-07-14T09:45:17Z</time>
      </trkpt>
      <trkpt lat="47.77386" lon="-3.56969">
        <ele>38</ele>
        <time>2019-07-14T09:45:18Z</time>
      </trkpt>
      <trkpt lat="47.77391" lon="-3.56974">
        <ele>38</ele>
        <time>2019-07-14T09:45:19Z</time>
      </trkpt>
      <trkpt lat="47.77395" lon="-3.56979">
        <ele>38</ele>
        <time>2019-07-14T09:45:20Z</time>
      </trkpt>
      <trkpt lat="47.774" lon="-3.56984">
        <ele>38</ele>
        <time>2019-07-14T09:45:21Z</time>
      </trkpt>
      <trkpt lat="47.77405" lon="-3.56988">
        <ele>38</ele>
        <time>2019-07-14T09:45:22Z</time>
      </trkpt>
      <trkpt lat="47.7741" lon="-3.56992">
        <ele>38</ele>
        <time>2019-07-14T09:45:23Z</time>
      </trkpt>
      <trkpt lat="47.77415" lon="-3.56995">
        <ele>38</ele>
        <time>2019-07-14T09:45:24Z</time>
      </trkpt>
      <trkpt lat="47.77421" lon="-3.56998">
        <ele>38</ele>
        <time>2019-07-14T09:45:25Z</time>
      </trkpt>
      <trkpt lat="47.77426" lon="-3.57">
        <ele>38</ele>
        <time>2019-07-14T09:45:26Z</time>
      </trkpt>
      <trkpt lat="47.77431" lon="-3.57002">
        <ele>38</ele>
        <time>2019-07-14T09:45:27Z</time>
      </trkpt>
      <trkpt lat="47.77435" lon="-3.57005">
        <ele>38</ele>
        <time>2019-07-14T09:45:28Z</time>
      </trkpt>
      <trkpt lat="47.7744" lon="-3.57006">
        <ele>38</ele>
        <time>2019-07-14T09:45:29Z</time>
      </trkpt>
      <trkpt lat="47.77444" lon="-3.57007">
        <ele>39</ele>
        <time>2019-07-14T09:45:30Z</time>
      </trkpt>
      <trkpt lat="47.77449" lon="-3.57008">
        <ele>39</ele>
        <time>2019-07-14T09:45:31Z</time>
      </trkpt>
      <trkpt lat="47.77454" lon="-3.57007">
        <ele>39</ele>
        <time>2019-07-14T09:45:32Z</time>
      </trkpt>
      <trkpt lat="47.77459" lon="-3.57005">
        <ele>39</ele>
        <time>2019-07-14T09:45:33Z</time>
      </trkpt>
      <trkpt lat="47.77464" lon="-3.57002">
        <ele>39</ele>
        <time>2019-07-14T09:45:34Z</time>
      </trkpt>
      <trkpt lat="47.7747" lon="-3.56999">
        <ele>39</ele>
        <time>2019-07-14T09:45:35Z</time>
      </trkpt>
      <trkpt lat="47.77475" lon="-3.56996">
        <ele>39</ele>
        <time>2019-07-14T09:45:36Z</time>
      </trkpt>
      <trkpt lat="47.7748" lon="-3.56993">
        <ele>39</ele>
        <time>2019-07-14T09:45:37Z</time>
      </trkpt>
      <trkpt lat="47.77485" lon="-3.56989">
        <ele>40</ele>
        <time>2019-07-14T09:45:38Z</time>
      </trkpt>
      <trkpt lat="47.7749" lon="-3.56985">
        <ele>40</ele>
        <time>2019-07-14T09:45:39Z</time>
      </trkpt>
      <trkpt lat="47.77495" lon="-3.5698">
        <ele>40</ele>
        <time>2019-07-14T09:45:40Z</time>
      </trkpt>
      <trkpt lat="47.775" lon="-3.56976">
        <ele>40</ele>
        <time>2019-07-14T09:45:41Z</time>
      </trkpt>
      <trkpt lat="47.77505" lon="-3.56971">
        <ele>40</ele>
        <time>2019-07-14T09:45:42Z</time>
      </trkpt>
      <trkpt lat="47.7751" lon="-3.56967">
        <ele>41</ele>
        <time>2019-07-14T09:45:43Z</time>
      </trkpt>
      <trkpt lat="47.77515" lon="-3.56962">
        <ele>41</ele>
        <time>2019-07-14T09:45:44Z</time>
      </trkpt>
      <trkpt lat="47.7752" lon="-3.56957">
        <ele>41</ele>
        <time>2019-07-14T09:45:45Z</time>
      </trkpt>
      <trkpt lat="47.77526" lon="-3.56952">
        <ele>42</ele>
        <time>2019-07-14T09:45:46Z</time>
      </trkpt>
      <trkpt lat="47.77531" lon="-3.56947">
        <ele>42</ele>
        <time>2019-07-14T09:45:47Z</time>
      </trkpt>
      <trkpt lat="47.77536" lon="-3.56943">
        <ele>42</ele>
        <time>2019-07-14T09:45:48Z</time>
      </trkpt>
      <trkpt lat="47.77542" lon="-3.56938">
        <ele>42</ele>
        <time>2019-07-14T09:45:49Z</time>
      </trkpt>
      <trkpt lat="47.77548" lon="-3.56934">
        <ele>43</ele>
        <time>2019-07-14T09:45:50Z</time>
      </trkpt>
      <trkpt lat="47.77554" lon="-3.5693">
        <ele>43</ele>
        <time>2019-07-14T09:45:51Z</time>
      </trkpt>
      <trkpt lat="47.7756" lon="-3.56927">
        <ele>43</ele>
        <time>2019-07-14T09:45:52Z</time>
      </trkpt>
      <trkpt lat="47.77566" lon="-3.56923">
        <ele>43</ele>
        <time>2019-07-14T09:45:53Z</time>
      </trkpt>
      <trkpt lat="47.77572" lon="-3.5692">
        <ele>43</ele>
        <time>2019-07-14T09:45:54Z</time>
      </trkpt>
      <trkpt lat="47.77578" lon="-3.56917">
        <ele>44</ele>
        <time>2019-07-14T09:45:55Z</time>
      </trkpt>
      <trkpt lat="47.77585" lon="-3.56914">
        <ele>44</ele>
        <time>2019-07-14T09:45:56Z</time>
      </trkpt>
      <trkpt lat="47.7759" lon="-3.56913">
        <ele>44</ele>
        <time>2019-07-14T09:45:57Z</time>
      </trkpt>
      <trkpt lat="47.77596" lon="-3.5691">
        <ele>44</ele>
        <time>2019-07-14T09:45:58Z</time>
      </trkpt>
      <trkpt lat="47.77602" lon="-3.56908">
        <ele>44</ele>
        <time>2019-07-14T09:45:59Z</time>
      </trkpt>
      <trkpt lat="47.77608" lon="-3.56906">
        <ele>45</ele>
        <time>2019-07-14T09:46:00Z</time>
      </trkpt>
      <trkpt lat="47.77614" lon="-3.56904">
        <ele>45</ele>
        <time>2019-07-14T09:46:01Z</time>
      </trkpt>
      <trkpt lat="47.77619" lon="-3.56903">
        <ele>45</ele>
        <time>2019-07-14T09:46:02Z</time>
      </trkpt>
      <trkpt lat="47.77625" lon="-3.56902">
        <ele>45</ele>
        <time>2019-07-14T09:46:03Z</time>
      </trkpt>
      <trkpt lat="47.77629" lon="-3.56902">
        <ele>45</ele>
        <time>2019-07-14T09:46:04Z</time>
      </trkpt>
      <trkpt lat="47.77633" lon="-3.56904">
        <ele>45</ele>
        <time>2019-07-14T09:46:05Z</time>
      </trkpt>
      <trkpt lat="47.77635" lon="-3.56909">
        <ele>45</ele>
        <time>2019-07-14T09:46:06Z</time>
      </trkpt>
      <trkpt lat="47.77637" lon="-3.56916">
        <ele>45</ele>
        <time>2019-07-14T09:46:07Z</time>
      </trkpt>
      <trkpt lat="47.77638" lon="-3.56925">
        <ele>45</ele>
        <time>2019-07-14T09:46:08Z</time>
      </trkpt>
      <trkpt lat="47.77639" lon="-3.56934">
        <ele>44</ele>
        <time>2019-07-14T09:46:09Z</time>
      </trkpt>
      <trkpt lat="47.77639" lon="-3.56945">
        <ele>44</ele>
        <time>2019-07-14T09:46:10Z</time>
      </trkpt>
      <trkpt lat="47.7764" lon="-3.56956">
        <ele>44</ele>
        <time>2019-07-14T09:46:11Z</time>
      </trkpt>
      <trkpt lat="47.77641" lon="-3.56967">
        <ele>43</ele>
        <time>2019-07-14T09:46:12Z</time>
      </trkpt>
      <trkpt lat="47.77642" lon="-3.56979">
        <ele>43</ele>
        <time>2019-07-14T09:46:13Z</time>
      </trkpt>
      <trkpt lat="47.77643" lon="-3.56992">
        <ele>42</ele>
        <time>2019-07-14T09:46:14Z</time>
      </trkpt>
      <trkpt lat="47.77644" lon="-3.57005">
        <ele>42</ele>
        <time>2019-07-14T09:46:15Z</time>
      </trkpt>
      <trkpt lat="47.77644" lon="-3.57017">
        <ele>41</ele>
        <time>2019-07-14T09:46:16Z</time>
      </trkpt>
      <trkpt lat="47.77645" lon="-3.5703">
        <ele>40</ele>
        <time>2019-07-14T09:46:17Z</time>
      </trkpt>
      <trkpt lat="47.77646" lon="-3.57044">
        <ele>40</ele>
        <time>2019-07-14T09:46:18Z</time>
      </trkpt>
      <trkpt lat="47.77647" lon="-3.57056">
        <ele>39</ele>
        <time>2019-07-14T09:46:19Z</time>
      </trkpt>
      <trkpt lat="47.77648" lon="-3.57069">
        <ele>38</ele>
        <time>2019-07-14T09:46:20Z</time>
      </trkpt>
      <trkpt lat="47.77649" lon="-3.57082">
        <ele>37</ele>
        <time>2019-07-14T09:46:21Z</time>
      </trkpt>
      <trkpt lat="47.77651" lon="-3.57094">
        <ele>37</ele>
        <time>2019-07-14T09:46:22Z</time>
      </trkpt>
      <trkpt lat="47.77652" lon="-3.57106">
        <ele>36</ele>
        <time>2019-07-14T09:46:23Z</time>
      </trkpt>
      <trkpt lat="47.77654" lon="-3.57118">
        <ele>36</ele>
        <time>2019-07-14T09:46:24Z</time>
      </trkpt>
      <trkpt lat="47.77655" lon="-3.57129">
        <ele>35</ele>
        <time>2019-07-14T09:46:25Z</time>
      </trkpt>
      <trkpt lat="47.77656" lon="-3.57139">
        <ele>34</ele>
        <time>2019-07-14T09:46:26Z</time>
      </trkpt>
      <trkpt lat="47.77657" lon="-3.5715">
        <ele>34</ele>
        <time>2019-07-14T09:46:27Z</time>
      </trkpt>
      <trkpt lat="47.77657" lon="-3.57159">
        <ele>33</ele>
        <time>2019-07-14T09:46:28Z</time>
      </trkpt>
      <trkpt lat="47.77658" lon="-3.57167">
        <ele>33</ele>
        <time>2019-07-14T09:46:29Z</time>
      </trkpt>
      <trkpt lat="47.77659" lon="-3.57175">
        <ele>33</ele>
        <time>2019-07-14T09:46:30Z</time>
      </trkpt>
      <trkpt lat="47.7766" lon="-3.57182">
        <ele>33</ele>
        <time>2019-07-14T09:46:31Z</time>
      </trkpt>
      <trkpt lat="47.7766" lon="-3.57189">
        <ele>32</ele>
        <time>2019-07-14T09:46:32Z</time>
      </trkpt>
      <trkpt lat="47.7766" lon="-3.57196">
        <ele>32</ele>
        <time>2019-07-14T09:46:33Z</time>
      </trkpt>
      <trkpt lat="47.77659" lon="-3.57203">
        <ele>32</ele>
        <time>2019-07-14T09:46:34Z</time>
      </trkpt>
      <trkpt lat="47.77659" lon="-3.5721">
        <ele>32</ele>
        <time>2019-07-14T09:46:35Z</time>
      </trkpt>
      <trkpt lat="47.77658" lon="-3.57217">
        <ele>32</ele>
        <time>2019-07-14T09:46:36Z</time>
      </trkpt>
      <trkpt lat="47.77657" lon="-3.57224">
        <ele>32</ele>
        <time>2019-07-14T09:46:37Z</time>
      </trkpt>
      <trkpt lat="47.77656" lon="-3.57231">
        <ele>32</ele>
        <time>2019-07-14T09:46:38Z</time>
      </trkpt>
      <trkpt lat="47.77655" lon="-3.57238">
        <ele>32</ele>
        <time>2019-07-14T09:46:39Z</time>
      </trkpt>
      <trkpt lat="47.77653" lon="-3.57245">
        <ele>31</ele>
        <time>2019-07-14T09:46:40Z</time>
      </trkpt>
      <trkpt lat="47.77651" lon="-3.57252">
        <ele>31</ele>
        <time>2019-07-14T09:46:41Z</time>
      </trkpt>
      <trkpt lat="47.77649" lon="-3.5726">
        <ele>31</ele>
        <time>2019-07-14T09:46:42Z</time>
      </trkpt>
      <trkpt lat="47.77647" lon="-3.57267">
        <ele>31</ele>
        <time>2019-07-14T09:46:43Z</time>
      </trkpt>
      <trkpt lat="47.77644" lon="-3.57275">
        <ele>31</ele>
        <time>2019-07-14T09:46:44Z</time>
      </trkpt>
      <trkpt lat="47.77642" lon="-3.57283">
        <ele>31</ele>
        <time>2019-07-14T09:46:45Z</time>
      </trkpt>
      <trkpt lat="47.7764" lon="-3.5729">
        <ele>31</ele>
        <time>2019-07-14T09:46:46Z</time>
      </trkpt>
      <trkpt lat="47.77638" lon="-3.57298">
        <ele>31</ele>
        <time>2019-07-14T09:46:47Z</time>
      </trkpt>
      <trkpt lat="47.77637" lon="-3.57307">
        <ele>31</ele>
        <time>2019-07-14T09:46:48Z</time>
      </trkpt>
      <trkpt lat="47.77635" lon="-3.57315">
        <ele>31</ele>
        <time>2019-07-14T09:46:49Z</time>
      </trkpt>
      <trkpt lat="47.77634" lon="-3.57323">
        <ele>31</ele>
        <time>2019-07-14T09:46:50Z</time>
      </trkpt>
      <trkpt lat="47.77633" lon="-3.57332">
        <ele>31</ele>
        <time>2019-07-14T09:46:51Z</time>
      </trkpt>
      <trkpt lat="47.77632" lon="-3.5734">
        <ele>31</ele>
        <time>2019-07-14T09:46:52Z</time>
      </trkpt>
      <trkpt lat="47.77631" lon="-3.57349">
        <ele>31</ele>
        <time>2019-07-14T09:46:53Z</time>
      </trkpt>
      <trkpt lat="47.77631" lon="-3.57357">
        <ele>31</ele>
        <time>2019-07-14T09:46:54Z</time>
      </trkpt>
      <trkpt lat="47.7763" lon="-3.57366">
        <ele>31</ele>
        <time>2019-07-14T09:46:55Z</time>
      </trkpt>
      <trkpt lat="47.7763" lon="-3.57375">
        <ele>31</ele>
        <time>2019-07-14T09:46:56Z</time>
      </trkpt>
      <trkpt lat="47.77629" lon="-3.57385">
        <ele>32</ele>
        <time>2019-07-14T09:46:57Z</time>
      </trkpt>
      <trkpt lat="47.77629" lon="-3.57395">
        <ele>32</ele>
        <time>2019-07-14T09:46:58Z</time>
      </trkpt>
      <trkpt lat="47.77629" lon="-3.57404">
        <ele>32</ele>
        <time>2019-07-14T09:46:59Z</time>
      </trkpt>
      <trkpt lat="47.77628" lon="-3.57414">
        <ele>32</ele>
        <time>2019-07-14T09:47:00Z</time>
      </trkpt>
      <trkpt lat="47.77628" lon="-3.57425">
        <ele>32</ele>
        <time>2019-07-14T09:47:01Z</time>
      </trkpt>
      <trkpt lat="47.77628" lon="-3.57435">
        <ele>32</ele>
        <time>2019-07-14T09:47:02Z</time>
      </trkpt>
      <trkpt lat="47.77628" lon="-3.57446">
        <ele>32</ele>
        <time>2019-07-14T09:47:03Z</time>
      </trkpt>
      <trkpt lat="47.77627" lon="-3.57456">
        <ele>32</ele>
        <time>2019-07-14T09:47:04Z</time>
      </trkpt>
      <trkpt lat="47.77626" lon="-3.57467">
        <ele>32</ele>
        <time>2019-07-14T09:47:05Z</time>
      </trkpt>
      <trkpt lat="47.77626" lon="-3.57477">
        <ele>32</ele>
        <time>2019-07-14T09:47:06Z</time>
      </trkpt>
      <trkpt lat="47.77625" lon="-3.57488">
        <ele>32</ele>
        <time>2019-07-14T09:47:07Z</time>
      </trkpt>
      <trkpt lat="47.77625" lon="-3.57497">
        <ele>32</ele>
        <time>2019-07-14T09:47:08Z</time>
      </trkpt>
      <trkpt lat="47.77624" lon="-3.57504">
        <ele>32</ele>
        <time>2019-07-14T09:47:09Z</time>
      </trkpt>
      <trkpt lat="47.77624" lon="-3.57512">
        <ele>32</ele>
        <time>2019-07-14T09:47:10Z</time>
      </trkpt>
      <trkpt lat="47.77624" lon="-3.57518">
        <ele>32</ele>
        <time>2019-07-14T09:47:11Z</time>
      </trkpt>
      <trkpt lat="47.77623" lon="-3.57524">
        <ele>32</ele>
        <time>2019-07-14T09:47:12Z</time>
      </trkpt>
      <trkpt lat="47.77622" lon="-3.5753">
        <ele>32</ele>
        <time>2019-07-14T09:47:13Z</time>
      </trkpt>
      <trkpt lat="47.77622" lon="-3.57535">
        <ele>32</ele>
        <time>2019-07-14T09:47:14Z</time>
      </trkpt>
      <trkpt lat="47.77621" lon="-3.5754">
        <ele>32</ele>
        <time>2019-07-14T09:47:15Z</time>
      </trkpt>
      <trkpt lat="47.77621" lon="-3.57546">
        <ele>32</ele>
        <time>2019-07-14T09:47:16Z</time>
      </trkpt>
      <trkpt lat="47.77621" lon="-3.57552">
        <ele>32</ele>
        <time>2019-07-14T09:47:17Z</time>
      </trkpt>
      <trkpt lat="47.7762" lon="-3.57558">
        <ele>32</ele>
        <time>2019-07-14T09:47:18Z</time>
      </trkpt>
      <trkpt lat="47.7762" lon="-3.57564">
        <ele>32</ele>
        <time>2019-07-14T09:47:19Z</time>
      </trkpt>
      <trkpt lat="47.77619" lon="-3.57571">
        <ele>32</ele>
        <time>2019-07-14T09:47:20Z</time>
      </trkpt>
      <trkpt lat="47.77619" lon="-3.57578">
        <ele>32</ele>
        <time>2019-07-14T09:47:21Z</time>
      </trkpt>
      <trkpt lat="47.77619" lon="-3.57586">
        <ele>32</ele>
        <time>2019-07-14T09:47:22Z</time>
      </trkpt>
      <trkpt lat="47.77618" lon="-3.57593">
        <ele>32</ele>
        <time>2019-07-14T09:47:23Z</time>
      </trkpt>
      <trkpt lat="47.77618" lon="-3.57602">
        <ele>32</ele>
        <time>2019-07-14T09:47:24Z</time>
      </trkpt>
      <trkpt lat="47.77618" lon="-3.57609">
        <ele>32</ele>
        <time>2019-07-14T09:47:25Z</time>
      </trkpt>
      <trkpt lat="47.77618" lon="-3.57618">
        <ele>32</ele>
        <time>2019-07-14T09:47:26Z</time>
      </trkpt>
      <trkpt lat="47.77619" lon="-3.57627">
        <ele>32</ele>
        <time>2019-07-14T09:47:27Z</time>
      </trkpt>
      <trkpt lat="47.77621" lon="-3.57636">
        <ele>32</ele>
        <time>2019-07-14T09:47:28Z</time>
      </trkpt>
      <trkpt lat="47.77623" lon="-3.57646">
        <ele>32</ele>
        <time>2019-07-14T09:47:29Z</time>
      </trkpt>
      <trkpt lat="47.77625" lon="-3.57655">
        <ele>32</ele>
        <time>2019-07-14T09:47:30Z</time>
      </trkpt>
      <trkpt lat="47.77627" lon="-3.57665">
        <ele>32</ele>
        <time>2019-07-14T09:47:31Z</time>
      </trkpt>
      <trkpt lat="47.77628" lon="-3.57675">
        <ele>32</ele>
        <time>2019-07-14T09:47:32Z</time>
      </trkpt>
      <trkpt lat="47.7763" lon="-3.57686">
        <ele>32</ele>
        <time>2019-07-14T09:47:33Z</time>
      </trkpt>
      <trkpt lat="47.77632" lon="-3.57697">
        <ele>31</ele>
        <time>2019-07-14T09:47:34Z</time>
      </trkpt>
      <trkpt lat="47.77634" lon="-3.57709">
        <ele>31</ele>
        <time>2019-07-14T09:47:35Z</time>
      </trkpt>
      <trkpt lat="47.77635" lon="-3.57722">
        <ele>31</ele>
        <time>2019-07-14T09:47:36Z</time>
      </trkpt>
      <trkpt lat="47.77637" lon="-3.57735">
        <ele>31</ele>
        <time>2019-07-14T09:47:37Z</time>
      </trkpt>
      <trkpt lat="47.77638" lon="-3.57749">
        <ele>30</ele>
        <time>2019-07-14T09:47:38Z</time>
      </trkpt>
      <trkpt lat="47.77639" lon="-3.57763">
        <ele>30</ele>
        <time>2019-07-14T09:47:39Z</time>
      </trkpt>
      <trkpt lat="47.77641" lon="-3.57777">
        <ele>29</ele>
        <time>2019-07-14T09:47:40Z</time>
      </trkpt>
      <trkpt lat="47.77642" lon="-3.57791">
        <ele>29</ele>
        <time>2019-07-14T09:47:41Z</time>
      </trkpt>
      <trkpt lat="47.77642" lon="-3.57805">
        <ele>28</ele>
        <time>2019-07-14T09:47:42Z</time>
      </trkpt>
      <trkpt lat="47.77641" lon="-3.57819">
        <ele>27</ele>
        <time>2019-07-14T09:47:43Z</time>
      </trkpt>
      <trkpt lat="47.77638" lon="-3.57831">
        <ele>27</ele>
        <time>2019-07-14T09:47:44Z</time>
      </trkpt>
      <trkpt lat="47.77635" lon="-3.57842">
        <ele>26</ele>
        <time>2019-07-14T09:47:45Z</time>
      </trkpt>
      <trkpt lat="47.77631" lon="-3.57852">
        <ele>26</ele>
        <time>2019-07-14T09:47:46Z</time>
      </trkpt>
      <trkpt lat="47.77629" lon="-3.57861">
        <ele>25</ele>
        <time>2019-07-14T09:47:47Z</time>
      </trkpt>
      <trkpt lat="47.77628" lon="-3.57869">
        <ele>25</ele>
        <time>2019-07-14T09:47:48Z</time>
      </trkpt>
      <trkpt lat="47.77627" lon="-3.57876">
        <ele>26</ele>
        <time>2019-07-14T09:47:49Z</time>
      </trkpt>
      <trkpt lat="47.77626" lon="-3.57881">
        <ele>26</ele>
        <time>2019-07-14T09:47:50Z</time>
      </trkpt>
      <trkpt lat="47.77626" lon="-3.57887">
        <ele>26</ele>
        <time>2019-07-14T09:47:51Z</time>
      </trkpt>
      <trkpt lat="47.77625" lon="-3.57891">
        <ele>26</ele>
        <time>2019-07-14T09:47:52Z</time>
      </trkpt>
      <trkpt lat="47.77624" lon="-3.57896">
        <ele>26</ele>
        <time>2019-07-14T09:47:53Z</time>
      </trkpt>
      <trkpt lat="47.77624" lon="-3.57901">
        <ele>26</ele>
        <time>2019-07-14T09:47:54Z</time>
      </trkpt>
      <trkpt lat="47.77624" lon="-3.57906">
        <ele>26</ele>
        <time>2019-07-14T09:47:55Z</time>
      </trkpt>
      <trkpt lat="47.77624" lon="-3.57911">
        <ele>26</ele>
        <time>2019-07-14T09:47:56Z</time>
      </trkpt>
      <trkpt lat="47.77625" lon="-3.57917">
        <ele>27</ele>
        <time>2019-07-14T09:47:57Z</time>
      </trkpt>
      <trkpt lat="47.77626" lon="-3.57922">
        <ele>27</ele>
        <time>2019-07-14T09:47:58Z</time>
      </trkpt>
      <trkpt lat="47.77627" lon="-3.57927">
        <ele>27</ele>
        <time>2019-07-14T09:47:59Z</time>
      </trkpt>
      <trkpt lat="47.77628" lon="-3.57933">
        <ele>27</ele>
        <time>2019-07-14T09:48:00Z</time>
      </trkpt>
      <trkpt lat="47.77629" lon="-3.57939">
        <ele>27</ele>
        <time>2019-07-14T09:48:01Z</time>
      </trkpt>
      <trkpt lat="47.7763" lon="-3.57944">
        <ele>27</ele>
        <time>2019-07-14T09:48:02Z</time>
      </trkpt>
      <trkpt lat="47.77632" lon="-3.5795">
        <ele>27</ele>
        <time>2019-07-14T09:48:03Z</time>
      </trkpt>
      <trkpt lat="47.77634" lon="-3.57956">
        <ele>27</ele>
        <time>2019-07-14T09:48:04Z</time>
      </trkpt>
      <trkpt lat="47.77636" lon="-3.57962">
        <ele>27</ele>
        <time>2019-07-14T09:48:05Z</time>
      </trkpt>
      <trkpt lat="47.77638" lon="-3.57967">
        <ele>28</ele>
        <time>2019-07-14T09:48:06Z</time>
      </trkpt>
      <trkpt lat="47.77641" lon="-3.57973">
        <ele>28</ele>
        <time>2019-07-14T09:48:07Z</time>
      </trkpt>
      <trkpt lat="47.77644" lon="-3.57979">
        <ele>28</ele>
        <time>2019-07-14T09:48:08Z</time>
      </trkpt>
      <trkpt lat="47.77647" lon="-3.57983">
        <ele>28</ele>
        <time>2019-07-14T09:48:09Z</time>
      </trkpt>
      <trkpt lat="47.7765" lon="-3.57989">
        <ele>28</ele>
        <time>2019-07-14T09:48:10Z</time>
      </trkpt>
      <trkpt lat="47.77652" lon="-3.57994">
        <ele>28</ele>
        <time>2019-07-14T09:48:11Z</time>
      </trkpt>
      <trkpt lat="47.77655" lon="-3.57999">
        <ele>28</ele>
        <time>2019-07-14T09:48:12Z</time>
      </trkpt>
      <trkpt lat="47.77659" lon="-3.58002">
        <ele>28</ele>
        <time>2019-07-14T09:48:13Z</time>
      </trkpt>
      <trkpt lat="47.77663" lon="-3.58003">
        <ele>28</ele>
        <time>2019-07-14T09:48:14Z</time>
      </trkpt>
      <trkpt lat="47.77666" lon="-3.58001">
        <ele>28</ele>
        <time>2019-07-14T09:48:15Z</time>
      </trkpt>
      <trkpt lat="47.77667" lon="-3.57997">
        <ele>28</ele>
        <time>2019-07-14T09:48:16Z</time>
      </trkpt>
      <trkpt lat="47.77667" lon="-3.57993">
        <ele>28</ele>
        <time>2019-07-14T09:48:17Z</time>
      </trkpt>
      <trkpt lat="47.77668" lon="-3.57989">
        <ele>28</ele>
        <time>2019-07-14T09:48:18Z</time>
      </trkpt>
      <trkpt lat="47.77668" lon="-3.57984">
        <ele>28</ele>
        <time>2019-07-14T09:48:19Z</time>
      </trkpt>
      <trkpt lat="47.77668" lon="-3.57979">
        <ele>29</ele>
        <time>2019-07-14T09:48:20Z</time>
      </trkpt>
      <trkpt lat="47.77668" lon="-3.57973">
        <ele>29</ele>
        <time>2019-07-14T09:48:21Z</time>
      </trkpt>
      <trkpt lat="47.77669" lon="-3.57967">
        <ele>29</ele>
        <time>2019-07-14T09:48:22Z</time>
      </trkpt>
      <trkpt lat="47.77669" lon="-3.5796">
        <ele>29</ele>
        <time>2019-07-14T09:48:23Z</time>
      </trkpt>
      <trkpt lat="47.7767" lon="-3.57953">
        <ele>29</ele>
        <time>2019-07-14T09:48:24Z</time>
      </trkpt>
      <trkpt lat="47.77671" lon="-3.57946">
        <ele>29</ele>
        <time>2019-07-14T09:48:25Z</time>
      </trkpt>
      <trkpt lat="47.77673" lon="-3.57939">
        <ele>29</ele>
        <time>2019-07-14T09:48:26Z</time>
      </trkpt>
      <trkpt lat="47.77676" lon="-3.57933">
        <ele>29</ele>
        <time>2019-07-14T09:48:27Z</time>
      </trkpt>
      <trkpt lat="47.77679" lon="-3.57926">
        <ele>29</ele>
        <time>2019-07-14T09:48:28Z</time>
      </trkpt>
      <trkpt lat="47.77682" lon="-3.5792">
        <ele>29</ele>
        <time>2019-07-14T09:48:29Z</time>
      </trkpt>
      <trkpt lat="47.77685" lon="-3.57914">
        <ele>29</ele>
        <time>2019-07-14T09:48:30Z</time>
      </trkpt>
      <trkpt lat="47.77687" lon="-3.57907">
        <ele>29</ele>
        <time>2019-07-14T09:48:31Z</time>
      </trkpt>
      <trkpt lat="47.7769" lon="-3.57902">
        <ele>29</ele>
        <time>2019-07-14T09:48:32Z</time>
      </trkpt>
      <trkpt lat="47.77692" lon="-3.57899">
        <ele>29</ele>
        <time>2019-07-14T09:48:33Z</time>
      </trkpt>
      <trkpt lat="47.77695" lon="-3.57898">
        <ele>29</ele>
        <time>2019-07-14T09:48:34Z</time>
      </trkpt>
      <trkpt lat="47.77698" lon="-3.57898">
        <ele>29</ele>
        <time>2019-07-14T09:48:35Z</time>
      </trkpt>
      <trkpt lat="47.777" lon="-3.57901">
        <ele>30</ele>
        <time>2019-07-14T09:48:36Z</time>
      </trkpt>
      <trkpt lat="47.77703" lon="-3.57905">
        <ele>30</ele>
        <time>2019-07-14T09:48:37Z</time>
      </trkpt>
      <trkpt lat="47.77707" lon="-3.57909">
        <ele>29</ele>
        <time>2019-07-14T09:48:38Z</time>
      </trkpt>
      <trkpt lat="47.7771" lon="-3.57913">
        <ele>29</ele>
        <time>2019-07-14T09:48:39Z</time>
      </trkpt>
      <trkpt lat="47.77713" lon="-3.57916">
        <ele>29</ele>
        <time>2019-07-14T09:48:40Z</time>
      </trkpt>
      <trkpt lat="47.77717" lon="-3.57919">
        <ele>29</ele>
        <time>2019-07-14T09:48:41Z</time>
      </trkpt>
      <trkpt lat="47.77721" lon="-3.57922">
        <ele>29</ele>
        <time>2019-07-14T09:48:42Z</time>
      </trkpt>
      <trkpt lat="47.77725" lon="-3.57925">
        <ele>29</ele>
        <time>2019-07-14T09:48:43Z</time>
      </trkpt>
      <trkpt lat="47.77729" lon="-3.57927">
        <ele>29</ele>
        <time>2019-07-14T09:48:44Z</time>
      </trkpt>
      <trkpt lat="47.77733" lon="-3.5793">
        <ele>29</ele>
        <time>2019-07-14T09:48:45Z</time>
      </trkpt>
      <trkpt lat="47.77736" lon="-3.57932">
        <ele>30</ele>
        <time>2019-07-14T09:48:46Z</time>
      </trkpt>
      <trkpt lat="47.7774" lon="-3.57933">
        <ele>30</ele>
        <time>2019-07-14T09:48:47Z</time>
      </trkpt>
      <trkpt lat="47.77745" lon="-3.57934">
        <ele>30</ele>
        <time>2019-07-14T09:48:48Z</time>
      </trkpt>
      <trkpt lat="47.77748" lon="-3.57936">
        <ele>30</ele>
        <time>2019-07-14T09:48:49Z</time>
      </trkpt>
      <trkpt lat="47.77752" lon="-3.57937">
        <ele>30</ele>
        <time>2019-07-14T09:48:50Z</time>
      </trkpt>
      <trkpt lat="47.77756" lon="-3.57939">
        <ele>30</ele>
        <time>2019-07-14T09:48:51Z</time>
      </trkpt>
      <trkpt lat="47.7776" lon="-3.57941">
        <ele>30</ele>
        <time>2019-07-14T09:48:52Z</time>
      </trkpt>
      <trkpt lat="47.77764" lon="-3.57944">
        <ele>31</ele>
        <time>2019-07-14T09:48:53Z</time>
      </trkpt>
      <trkpt lat="47.77768" lon="-3.57947">
        <ele>31</ele>
        <time>2019-07-14T09:48:54Z</time>
      </trkpt>
      <trkpt lat="47.77772" lon="-3.57949">
        <ele>31</ele>
        <time>2019-07-14T09:48:55Z</time>
      </trkpt>
      <trkpt lat="47.77775" lon="-3.57952">
        <ele>31</ele>
        <time>2019-07-14T09:48:56Z</time>
      </trkpt>
      <trkpt lat="47.77779" lon="-3.57955">
        <ele>31</ele>
        <time>2019-07-14T09:48:57Z</time>
      </trkpt>
      <trkpt lat="47.77782" lon="-3.57959">
        <ele>31</ele>
        <time>2019-07-14T09:48:58Z</time>
      </trkpt>
      <trkpt lat="47.77786" lon="-3.57963">
        <ele>31</ele>
        <time>2019-07-14T09:48:59Z</time>
      </trkpt>
      <trkpt lat="47.77789" lon="-3.57967">
        <ele>31</ele>
        <time>2019-07-14T09:49:00Z</time>
      </trkpt>
      <trkpt lat="47.77793" lon="-3.57971">
        <ele>32</ele>
        <time>2019-07-14T09:49:01Z</time>
      </trkpt>
      <trkpt lat="47.77796" lon="-3.57975">
        <ele>32</ele>
        <time>2019-07-14T09:49:02Z</time>
      </trkpt>
      <trkpt lat="47.77798" lon="-3.57978">
        <ele>32</ele>
        <time>2019-07-14T09:49:03Z</time>
      </trkpt>
      <trkpt lat="47.77801" lon="-3.5798">
        <ele>32</ele>
        <time>2019-07-14T09:49:04Z</time>
      </trkpt>
      <trkpt lat="47.77802" lon="-3.57982">
        <ele>32</ele>
        <time>2019-07-14T09:49:05Z</time>
      </trkpt>
      <trkpt lat="47.77804" lon="-3.57985">
        <ele>32</ele>
        <time>2019-07-14T09:49:06Z</time>
      </trkpt>
      <trkpt lat="47.77807" lon="-3.57987">
        <ele>32</ele>
        <time>2019-07-14T09:49:07Z</time>
      </trkpt>
      <trkpt lat="47.7781" lon="-3.5799">
        <ele>33</ele>
        <time>2019-07-14T09:49:08Z</time>
      </trkpt>
      <trkpt lat="47.77813" lon="-3.57993">
        <ele>33</ele>
        <time>2019-07-14T09:49:09Z</time>
      </trkpt>
      <trkpt lat="47.77816" lon="-3.57996">
        <ele>33</ele>
        <time>2019-07-14T09:49:10Z</time>
      </trkpt>
      <trkpt lat="47.77821" lon="-3.58">
        <ele>33</ele>
        <time>2019-07-14T09:49:11Z</time>
      </trkpt>
      <trkpt lat="47.77825" lon="-3.58003">
        <ele>33</ele>
        <time>2019-07-14T09:49:12Z</time>
      </trkpt>
      <trkpt lat="47.77829" lon="-3.58004">
        <ele>33</ele>
        <time>2019-07-14T09:49:13Z</time>
      </trkpt>
      <trkpt lat="47.77834" lon="-3.58006">
        <ele>33</ele>
        <time>2019-07-14T09:49:14Z</time>
      </trkpt>
      <trkpt lat="47.77838" lon="-3.58009">
        <ele>33</ele>
        <time>2019-07-14T09:49:15Z</time>
      </trkpt>
      <trkpt lat="47.77843" lon="-3.5801">
        <ele>34</ele>
        <time>2019-07-14T09:49:16Z</time>
      </trkpt>
      <trkpt lat="47.77847" lon="-3.58012">
        <ele>34</ele>
        <time>2019-07-14T09:49:17Z</time>
      </trkpt>
      <trkpt lat="47.77852" lon="-3.58013">
        <ele>34</ele>
        <time>2019-07-14T09:49:18Z</time>
      </trkpt>
      <trkpt lat="47.77857" lon="-3.58015">
        <ele>34</ele>
        <time>2019-07-14T09:49:19Z</time>
      </trkpt>
      <trkpt lat="47.77861" lon="-3.58015">
        <ele>34</ele>
        <time>2019-07-14T09:49:20Z</time>
      </trkpt>
      <trkpt lat="47.77865" lon="-3.58015">
        <ele>34</ele>
        <time>2019-07-14T09:49:21Z</time>
      </trkpt>
      <trkpt lat="47.77869" lon="-3.58015">
        <ele>34</ele>
        <time>2019-07-14T09:49:22Z</time>
      </trkpt>
      <trkpt lat="47.77873" lon="-3.58017">
        <ele>34</ele>
        <time>2019-07-14T09:49:23Z</time>
      </trkpt>
      <trkpt lat="47.77877" lon="-3.5802">
        <ele>35</ele>
        <time>2019-07-14T09:49:24Z</time>
      </trkpt>
      <trkpt lat="47.77882" lon="-3.58023">
        <ele>35</ele>
        <time>2019-07-14T09:49:25Z</time>
      </trkpt>
      <trkpt lat="47.77887" lon="-3.58026">
        <ele>35</ele>
        <time>2019-07-14T09:49:26Z</time>
      </trkpt>
      <trkpt lat="47.77892" lon="-3.58029">
        <ele>35</ele>
        <time>2019-07-14T09:49:27Z</time>
      </trkpt>
      <trkpt lat="47.77896" lon="-3.58031">
        <ele>35</ele>
        <time>2019-07-14T09:49:28Z</time>
      </trkpt>
      <trkpt lat="47.779" lon="-3.58033">
        <ele>35</ele>
        <time>2019-07-14T09:49:29Z</time>
      </trkpt>
      <trkpt lat="47.77904" lon="-3.58036">
        <ele>35</ele>
        <time>2019-07-14T09:49:30Z</time>
      </trkpt>
      <trkpt lat="47.77907" lon="-3.58039">
        <ele>35</ele>
        <time>2019-07-14T09:49:31Z</time>
      </trkpt>
      <trkpt lat="47.77908" lon="-3.58043">
        <ele>35</ele>
        <time>2019-07-14T09:49:32Z</time>
      </trkpt>
      <trkpt lat="47.77907" lon="-3.58048">
        <ele>35</ele>
        <time>2019-07-14T09:49:33Z</time>
      </trkpt>
      <trkpt lat="47.77906" lon="-3.58053">
        <ele>35</ele>
        <time>2019-07-14T09:49:34Z</time>
      </trkpt>
      <trkpt lat="47.77904" lon="-3.58058">
        <ele>35</ele>
        <time>2019-07-14T09:49:35Z</time>
      </trkpt>
      <trkpt lat="47.77902" lon="-3.58064">
        <ele>35</ele>
        <time>2019-07-14T09:49:36Z</time>
      </trkpt>
      <trkpt lat="47.77901" lon="-3.58069">
        <ele>35</ele>
        <time>2019-07-14T09:49:37Z</time>
      </trkpt>
      <trkpt lat="47.77899" lon="-3.58076">
        <ele>35</ele>
        <time>2019-07-14T09:49:38Z</time>
      </trkpt>
      <trkpt lat="47.77897" lon="-3.58083">
        <ele>35</ele>
        <time>2019-07-14T09:49:39Z</time>
      </trkpt>
      <trkpt lat="47.77896" lon="-3.5809">
        <ele>35</ele>
        <time>2019-07-14T09:49:40Z</time>
      </trkpt>
      <trkpt lat="47.77894" lon="-3.58097">
        <ele>35</ele>
        <time>2019-07-14T09:49:41Z</time>
      </trkpt>
      <trkpt lat="47.77892" lon="-3.58104">
        <ele>35</ele>
        <time>2019-07-14T09:49:42Z</time>
      </trkpt>
      <trkpt lat="47.7789" lon="-3.58111">
        <ele>35</ele>
        <time>2019-07-14T09:49:43Z</time>
      </trkpt>
      <trkpt lat="47.77889" lon="-3.58119">
        <ele>35</ele>
        <time>2019-07-14T09:49:44Z</time>
      </trkpt>
      <trkpt lat="47.77887" lon="-3.58127">
        <ele>35</ele>
        <time>2019-07-14T09:49:45Z</time>
      </trkpt>
      <trkpt lat="47.77886" lon="-3.58135">
        <ele>35</ele>
        <time>2019-07-14T09:49:46Z</time>
      </trkpt>
      <trkpt lat="47.77884" lon="-3.58143">
        <ele>35</ele>
        <time>2019-07-14T09:49:47Z</time>
      </trkpt>
      <trkpt lat="47.77883" lon="-3.58151">
        <ele>35</ele>
        <time>2019-07-14T09:49:48Z</time>
      </trkpt>
      <trkpt lat="47.77882" lon="-3.58159">
        <ele>35</ele>
        <time>2019-07-14T09:49:49Z</time>
      </trkpt>
      <trkpt lat="47.77881" lon="-3.58167">
        <ele>35</ele>
        <time>2019-07-14T09:49:50Z</time>
      </trkpt>
      <trkpt lat="47.7788" lon="-3.58174">
        <ele>35</ele>
        <time>2019-07-14T09:49:51Z</time>
      </trkpt>
      <trkpt lat="47.77879" lon="-3.58182">
        <ele>35</ele>
        <time>2019-07-14T09:49:52Z</time>
      </trkpt>
      <trkpt lat="47.77878" lon="-3.58189">
        <ele>35</ele>
        <time>2019-07-14T09:49:53Z</time>
      </trkpt>
      <trkpt lat="47.77877" lon="-3.58197">
        <ele>35</ele>
        <time>2019-07-14T09:49:54Z</time>
      </trkpt>
      <trkpt lat="47.77877" lon="-3.58204">
        <ele>35</ele>
        <time>2019-07-14T09:49:55Z</time>
      </trkpt>
      <trkpt lat="47.77875" lon="-3.58212">
        <ele>35</ele>
        <time>2019-07-14T09:49:56Z</time>
      </trkpt>
      <trkpt lat="47.77874" lon="-3.58219">
        <ele>35</ele>
        <time>2019-07-14T09:49:57Z</time>
      </trkpt>
      <trkpt lat="47.77874" lon="-3.58226">
        <ele>35</ele>
        <time>2019-07-14T09:49:58Z</time>
      </trkpt>
      <trkpt lat="47.77873" lon="-3.58234">
        <ele>35</ele>
        <time>2019-07-14T09:49:59Z</time>
      </trkpt>
      <trkpt lat="47.77872" lon="-3.58241">
        <ele>35</ele>
        <time>2019-07-14T09:50:00Z</time>
      </trkpt>
      <trkpt lat="47.77871" lon="-3.58248">
        <ele>35</ele>
        <time>2019-07-14T09:50:01Z</time>
      </trkpt>
      <trkpt lat="47.7787" lon="-3.58255">
        <ele>35</ele>
        <time>2019-07-14T09:50:02Z</time>
      </trkpt>
      <trkpt lat="47.77867" lon="-3.58261">
        <ele>35</ele>
        <time>2019-07-14T09:50:03Z</time>
      </trkpt>
      <trkpt lat="47.77865" lon="-3.58267">
        <ele>36</ele>
        <time>2019-07-14T09:50:04Z</time>
      </trkpt>
      <trkpt lat="47.77862" lon="-3.58274">
        <ele>36</ele>
        <time>2019-07-14T09:50:05Z</time>
      </trkpt>
      <trkpt lat="47.7786" lon="-3.58281">
        <ele>36</ele>
        <time>2019-07-14T09:50:06Z</time>
      </trkpt>
      <trkpt lat="47.77859" lon="-3.58286">
        <ele>36</ele>
        <time>2019-07-14T09:50:07Z</time>
      </trkpt>
      <trkpt lat="47.77858" lon="-3.58292">
        <ele>36</ele>
        <time>2019-07-14T09:50:08Z</time>
      </trkpt>
      <trkpt lat="47.77855" lon="-3.58295">
        <ele>36</ele>
        <time>2019-07-14T09:50:09Z</time>
      </trkpt>
      <trkpt lat="47.77853" lon="-3.58298">
        <ele>36</ele>
        <time>2019-07-14T09:50:10Z</time>
      </trkpt>
      <trkpt lat="47.7785" lon="-3.58301">
        <ele>36</ele>
        <time>2019-07-14T09:50:11Z</time>
      </trkpt>
      <trkpt lat="47.77846" lon="-3.58304">
        <ele>36</ele>
        <time>2019-07-14T09:50:12Z</time>
      </trkpt>
      <trkpt lat="47.77843" lon="-3.58308">
        <ele>36</ele>
        <time>2019-07-14T09:50:13Z</time>
      </trkpt>
      <trkpt lat="47.77841" lon="-3.58314">
        <ele>36</ele>
        <time>2019-07-14T09:50:14Z</time>
      </trkpt>
      <trkpt lat="47.7784" lon="-3.58321">
        <ele>36</ele>
        <time>2019-07-14T09:50:15Z</time>
      </trkpt>
      <trkpt lat="47.7784" lon="-3.58328">
        <ele>36</ele>
        <time>2019-07-14T09:50:16Z</time>
      </trkpt>
      <trkpt lat="47.77839" lon="-3.58335">
        <ele>36</ele>
        <time>2019-07-14T09:50:17Z</time>
      </trkpt>
      <trkpt lat="47.77839" lon="-3.58343">
        <ele>36</ele>
        <time>2019-07-14T09:50:18Z</time>
      </trkpt>
      <trkpt lat="47.77839" lon="-3.58351">
        <ele>36</ele>
        <time>2019-07-14T09:50:19Z</time>
      </trkpt>
      <trkpt lat="47.77839" lon="-3.58359">
        <ele>37</ele>
        <time>2019-07-14T09:50:20Z</time>
      </trkpt>
      <trkpt lat="47.7784" lon="-3.58367">
        <ele>37</ele>
        <time>2019-07-14T09:50:21Z</time>
      </trkpt>
      <trkpt lat="47.7784" lon="-3.58376">
        <ele>37</ele>
        <time>2019-07-14T09:50:22Z</time>
      </trkpt>
      <trkpt lat="47.7784" lon="-3.58385">
        <ele>37</ele>
        <time>2019-07-14T09:50:23Z</time>
      </trkpt>
      <trkpt lat="47.77841" lon="-3.58393">
        <ele>37</ele>
        <time>2019-07-14T09:50:24Z</time>
      </trkpt>
      <trkpt lat="47.77842" lon="-3.58403">
        <ele>37</ele>
        <time>2019-07-14T09:50:25Z</time>
      </trkpt>
      <trkpt lat="47.77843" lon="-3.58412">
        <ele>37</ele>
        <time>2019-07-14T09:50:26Z</time>
      </trkpt>
      <trkpt lat="47.77844" lon="-3.5842">
        <ele>37</ele>
        <time>2019-07-14T09:50:27Z</time>
      </trkpt>
      <trkpt lat="47.77844" lon="-3.5843">
        <ele>37</ele>
        <time>2019-07-14T09:50:28Z</time>
      </trkpt>
      <trkpt lat="47.77845" lon="-3.58439">
        <ele>37</ele>
        <time>2019-07-14T09:50:29Z</time>
      </trkpt>
      <trkpt lat="47.77847" lon="-3.58449">
        <ele>37</ele>
        <time>2019-07-14T09:50:30Z</time>
      </trkpt>
      <trkpt lat="47.77848" lon="-3.58459">
        <ele>37</ele>
        <time>2019-07-14T09:50:31Z</time>
      </trkpt>
      <trkpt lat="47.77849" lon="-3.58469">
        <ele>37</ele>
        <time>2019-07-14T09:50:32Z</time>
      </trkpt>
      <trkpt lat="47.77851" lon="-3.58479">
        <ele>37</ele>
        <time>2019-07-14T09:50:33Z</time>
      </trkpt>
      <trkpt lat="47.77853" lon="-3.58489">
        <ele>37</ele>
        <time>2019-07-14T09:50:34Z</time>
      </trkpt>
      <trkpt lat="47.77855" lon="-3.58499">
        <ele>36</ele>
        <time>2019-07-14T09:50:35Z</time>
      </trkpt>
      <trkpt lat="47.77857" lon="-3.58509">
        <ele>36</ele>
        <time>2019-07-14T09:50:36Z</time>
      </trkpt>
      <trkpt lat="47.7786" lon="-3.58519">
        <ele>36</ele>
        <time>2019-07-14T09:50:37Z</time>
      </trkpt>
      <trkpt lat="47.77862" lon="-3.58529">
        <ele>36</ele>
        <time>2019-07-14T09:50:38Z</time>
      </trkpt>
      <trkpt lat="47.77864" lon="-3.5854">
        <ele>36</ele>
        <time>2019-07-14T09:50:39Z</time>
      </trkpt>
      <trkpt lat="47.77866" lon="-3.58551">
        <ele>36</ele>
        <time>2019-07-14T09:50:40Z</time>
      </trkpt>
      <trkpt lat="47.77867" lon="-3.58561">
        <ele>36</ele>
        <time>2019-07-14T09:50:41Z</time>
      </trkpt>
      <trkpt lat="47.77868" lon="-3.58572">
        <ele>36</ele>
        <time>2019-07-14T09:50:42Z</time>
      </trkpt>
      <trkpt lat="47.7787" lon="-3.58582">
        <ele>36</ele>
        <time>2019-07-14T09:50:43Z</time>
      </trkpt>
      <trkpt lat="47.77869" lon="-3.58591">
        <ele>36</ele>
        <time>2019-07-14T09:50:44Z</time>
      </trkpt>
      <trkpt lat="47.77867" lon="-3.58597">
        <ele>36</ele>
        <time>2019-07-14T09:50:45Z</time>
      </trkpt>
      <trkpt lat="47.77863" lon="-3.58602">
        <ele>35</ele>
        <time>2019-07-14T09:50:46Z</time>
      </trkpt>
      <trkpt lat="47.77858" lon="-3.58605">
        <ele>35</ele>
        <time>2019-07-14T09:50:47Z</time>
      </trkpt>
      <trkpt lat="47.77853" lon="-3.58607">
        <ele>35</ele>
        <time>2019-07-14T09:50:48Z</time>
      </trkpt>
      <trkpt lat="47.77847" lon="-3.58609">
        <ele>35</ele>
        <time>2019-07-14T09:50:49Z</time>
      </trkpt>
      <trkpt lat="47.77841" lon="-3.58611">
        <ele>35</ele>
        <time>2019-07-14T09:50:50Z</time>
      </trkpt>
      <trkpt lat="47.77835" lon="-3.58613">
        <ele>35</ele>
        <time>2019-07-14T09:50:51Z</time>
      </trkpt>
      <trkpt lat="47.77829" lon="-3.58615">
        <ele>35</ele>
        <time>2019-07-14T09:50:52Z</time>
      </trkpt>
      <trkpt lat="47.77824" lon="-3.58616">
        <ele>35</ele>
        <time>2019-07-14T09:50:53Z</time>
      </trkpt>
      <trkpt lat="47.77817" lon="-3.58616">
        <ele>35</ele>
        <time>2019-07-14T09:50:54Z</time>
      </trkpt>
      <trkpt lat="47.77811" lon="-3.58615">
        <ele>35</ele>
        <time>2019-07-14T09:50:55Z</time>
      </trkpt>
      <trkpt lat="47.77805" lon="-3.58613">
        <ele>34</ele>
        <time>2019-07-14T09:50:56Z</time>
      </trkpt>
      <trkpt lat="47.77799" lon="-3.58611">
        <ele>34</ele>
        <time>2019-07-14T09:50:57Z</time>
      </trkpt>
      <trkpt lat="47.77795" lon="-3.58608">
        <ele>34</ele>
        <time>2019-07-14T09:50:58Z</time>
      </trkpt>
      <trkpt lat="47.77792" lon="-3.58603">
        <ele>34</ele>
        <time>2019-07-14T09:50:59Z</time>
      </trkpt>
      <trkpt lat="47.77789" lon="-3.58599">
        <ele>34</ele>
        <time>2019-07-14T09:51:00Z</time>
      </trkpt>
      <trkpt lat="47.77785" lon="-3.58594">
        <ele>35</ele>
        <time>2019-07-14T09:51:01Z</time>
      </trkpt>
      <trkpt lat="47.77781" lon="-3.58592">
        <ele>35</ele>
        <time>2019-07-14T09:51:02Z</time>
      </trkpt>
      <trkpt lat="47.77776" lon="-3.5859">
        <ele>35</ele>
        <time>2019-07-14T09:51:03Z</time>
      </trkpt>
      <trkpt lat="47.77771" lon="-3.58587">
        <ele>35</ele>
        <time>2019-07-14T09:51:04Z</time>
      </trkpt>
      <trkpt lat="47.77766" lon="-3.58586">
        <ele>35</ele>
        <time>2019-07-14T09:51:05Z</time>
      </trkpt>
      <trkpt lat="47.77761" lon="-3.58584">
        <ele>35</ele>
        <time>2019-07-14T09:51:06Z</time>
      </trkpt>
      <trkpt lat="47.77756" lon="-3.58582">
        <ele>35</ele>
        <time>2019-07-14T09:51:07Z</time>
      </trkpt>
      <trkpt lat="47.7775" lon="-3.5858">
        <ele>35</ele>
        <time>2019-07-14T09:51:08Z</time>
      </trkpt>
      <trkpt lat="47.77745" lon="-3.58579">
        <ele>35</ele>
        <time>2019-07-14T09:51:09Z</time>
      </trkpt>
      <trkpt lat="47.77739" lon="-3.58578">
        <ele>35</ele>
        <time>2019-07-14T09:51:10Z</time>
      </trkpt>
      <trkpt lat="47.77733" lon="-3.58577">
        <ele>35</ele>
        <time>2019-07-14T09:51:11Z</time>
      </trkpt>
      <trkpt lat="47.77728" lon="-3.58575">
        <ele>35</ele>
        <time>2019-07-14T09:51:12Z</time>
      </trkpt>
      <trkpt lat="47.77723" lon="-3.58574">
        <ele>35</ele>
        <time>2019-07-14T09:51:13Z</time>
      </trkpt>
      <trkpt lat="47.77719" lon="-3.58573">
        <ele>35</ele>
        <time>2019-07-14T09:51:14Z</time>
      </trkpt>
      <trkpt lat="47.77714" lon="-3.58572">
        <ele>35</ele>
        <time>2019-07-14T09:51:15Z</time>
      </trkpt>
      <trkpt lat="47.7771" lon="-3.5857">
        <ele>35</ele>
        <time>2019-07-14T09:51:16Z</time>
      </trkpt>
      <trkpt lat="47.77706" lon="-3.58569">
        <ele>35</ele>
        <time>2019-07-14T09:51:17Z</time>
      </trkpt>
      <trkpt lat="47.77701" lon="-3.58569">
        <ele>35</ele>
        <time>2019-07-14T09:51:18Z</time>
      </trkpt>
      <trkpt lat="47.77697" lon="-3.5857">
        <ele>35</ele>
        <time>2019-07-14T09:51:19Z</time>
      </trkpt>
      <trkpt lat="47.77692" lon="-3.5857">
        <ele>36</ele>
        <time>2019-07-14T09:51:20Z</time>
      </trkpt>
      <trkpt lat="47.77688" lon="-3.58571">
        <ele>36</ele>
        <time>2019-07-14T09:51:21Z</time>
      </trkpt>
      <trkpt lat="47.77683" lon="-3.58572">
        <ele>36</ele>
        <time>2019-07-14T09:51:22Z</time>
      </trkpt>
      <trkpt lat="47.77678" lon="-3.58572">
        <ele>36</ele>
        <time>2019-07-14T09:51:23Z</time>
      </trkpt>
      <trkpt lat="47.77674" lon="-3.58573">
        <ele>36</ele>
        <time>2019-07-14T09:51:24Z</time>
      </trkpt>
      <trkpt lat="47.77669" lon="-3.58573">
        <ele>36</ele>
        <time>2019-07-14T09:51:25Z</time>
      </trkpt>
      <trkpt lat="47.77664" lon="-3.58574">
        <ele>37</ele>
        <time>2019-07-14T09:51:26Z</time>
      </trkpt>
      <trkpt lat="47.7766" lon="-3.58574">
        <ele>37</ele>
        <time>2019-07-14T09:51:27Z</time>
      </trkpt>
      <trkpt lat="47.77655" lon="-3.58575">
        <ele>37</ele>
        <time>2019-07-14T09:51:28Z</time>
      </trkpt>
      <trkpt lat="47.7765" lon="-3.58575">
        <ele>37</ele>
        <time>2019-07-14T09:51:29Z</time>
      </trkpt>
      <trkpt lat="47.77645" lon="-3.58575">
        <ele>37</ele>
        <time>2019-07-14T09:51:30Z</time>
      </trkpt>
      <trkpt lat="47.7764" lon="-3.58575">
        <ele>37</ele>
        <time>2019-07-14T09:51:31Z</time>
      </trkpt>
      <trkpt lat="47.77635" lon="-3.58575">
        <ele>38</ele>
        <time>2019-07-14T09:51:32Z</time>
      </trkpt>
      <trkpt lat="47.77631" lon="-3.58575">
        <ele>38</ele>
        <time>2019-07-14T09:51:33Z</time>
      </trkpt>
      <trkpt lat="47.77626" lon="-3.58576">
        <ele>38</ele>
        <time>2019-07-14T09:51:34Z</time>
      </trkpt>
      <trkpt lat="47.77621" lon="-3.58577">
        <ele>38</ele>
        <time>2019-07-14T09:51:35Z</time>
      </trkpt>
      <trkpt lat="47.77616" lon="-3.58577">
        <ele>38</ele>
        <time>2019-07-14T09:51:36Z</time>
      </trkpt>
      <trkpt lat="47.77611" lon="-3.58578">
        <ele>38</ele>
        <time>2019-07-14T09:51:37Z</time>
      </trkpt>
      <trkpt lat="47.77606" lon="-3.58579">
        <ele>38</ele>
        <time>2019-07-14T09:51:38Z</time>
      </trkpt>
      <trkpt lat="47.77601" lon="-3.5858">
        <ele>39</ele>
        <time>2019-07-14T09:51:39Z</time>
      </trkpt>
      <trkpt lat="47.77596" lon="-3.58581">
        <ele>39</ele>
        <time>2019-07-14T09:51:40Z</time>
      </trkpt>
      <trkpt lat="47.77591" lon="-3.58582">
        <ele>39</ele>
        <time>2019-07-14T09:51:41Z</time>
      </trkpt>
      <trkpt lat="47.77587" lon="-3.58582">
        <ele>39</ele>
        <time>2019-07-14T09:51:42Z</time>
      </trkpt>
      <trkpt lat="47.77582" lon="-3.58583">
        <ele>39</ele>
        <time>2019-07-14T09:51:43Z</time>
      </trkpt>
      <trkpt lat="47.77578" lon="-3.58584">
        <ele>39</ele>
        <time>2019-07-14T09:51:44Z</time>
      </trkpt>
      <trkpt lat="47.77573" lon="-3.58584">
        <ele>40</ele>
        <time>2019-07-14T09:51:45Z</time>
      </trkpt>
      <trkpt lat="47.77569" lon="-3.58585">
        <ele>40</ele>
        <time>2019-07-14T09:51:46Z</time>
      </trkpt>
      <trkpt lat="47.77564" lon="-3.58586">
        <ele>40</ele>
        <time>2019-07-14T09:51:47Z</time>
      </trkpt>
      <trkpt lat="47.77559" lon="-3.58587">
        <ele>40</ele>
        <time>2019-07-14T09:51:48Z</time>
      </trkpt>
      <trkpt lat="47.77555" lon="-3.58588">
        <ele>40</ele>
        <time>2019-07-14T09:51:49Z</time>
      </trkpt>
      <trkpt lat="47.7755" lon="-3.58589">
        <ele>41</ele>
        <time>2019-07-14T09:51:50Z</time>
      </trkpt>
      <trkpt lat="47.77546" lon="-3.5859">
        <ele>41</ele>
        <time>2019-07-14T09:51:51Z</time>
      </trkpt>
      <trkpt lat="47.77541" lon="-3.58589">
        <ele>41</ele>
        <time>2019-07-14T09:51:52Z</time>
      </trkpt>
      <trkpt lat="47.77536" lon="-3.58589">
        <ele>41</ele>
        <time>2019-07-14T09:51:53Z</time>
      </trkpt>
      <trkpt lat="47.77531" lon="-3.58588">
        <ele>41</ele>
        <time>2019-07-14T09:51:54Z</time>
      </trkpt>
      <trkpt lat="47.77525" lon="-3.58589">
        <ele>41</ele>
        <time>2019-07-14T09:51:55Z</time>
      </trkpt>
      <trkpt lat="47.7752" lon="-3.5859">
        <ele>41</ele>
        <time>2019-07-14T09:51:56Z</time>
      </trkpt>
      <trkpt lat="47.77514" lon="-3.5859">
        <ele>41</ele>
        <time>2019-07-14T09:51:57Z</time>
      </trkpt>
      <trkpt lat="47.77508" lon="-3.5859">
        <ele>42</ele>
        <time>2019-07-14T09:51:58Z</time>
      </trkpt>
      <trkpt lat="47.77502" lon="-3.5859">
        <ele>42</ele>
        <time>2019-07-14T09:51:59Z</time>
      </trkpt>
      <trkpt lat="47.77496" lon="-3.58589">
        <ele>42</ele>
        <time>2019-07-14T09:52:00Z</time>
      </trkpt>
      <trkpt lat="47.7749" lon="-3.58588">
        <ele>42</ele>
        <time>2019-07-14T09:52:01Z</time>
      </trkpt>
      <trkpt lat="47.77484" lon="-3.58587">
        <ele>43</ele>
        <time>2019-07-14T09:52:02Z</time>
      </trkpt>
      <trkpt lat="47.77478" lon="-3.58584">
        <ele>43</ele>
        <time>2019-07-14T09:52:03Z</time>
      </trkpt>
      <trkpt lat="47.77472" lon="-3.58582">
        <ele>43</ele>
        <time>2019-07-14T09:52:04Z</time>
      </trkpt>
      <trkpt lat="47.77467" lon="-3.5858">
        <ele>43</ele>
        <time>2019-07-14T09:52:05Z</time>
      </trkpt>
      <trkpt lat="47.77462" lon="-3.58579">
        <ele>43</ele>
        <time>2019-07-14T09:52:06Z</time>
      </trkpt>
      <trkpt lat="47.77459" lon="-3.5858">
        <ele>43</ele>
        <time>2019-07-14T09:52:07Z</time>
      </trkpt>
      <trkpt lat="47.77456" lon="-3.58584">
        <ele>43</ele>
        <time>2019-07-14T09:52:08Z</time>
      </trkpt>
      <trkpt lat="47.77455" lon="-3.5859">
        <ele>43</ele>
        <time>2019-07-14T09:52:09Z</time>
      </trkpt>
      <trkpt lat="47.77453" lon="-3.58597">
        <ele>42</ele>
        <time>2019-07-14T09:52:10Z</time>
      </trkpt>
      <trkpt lat="47.77452" lon="-3.58604">
        <ele>42</ele>
        <time>2019-07-14T09:52:11Z</time>
      </trkpt>
      <trkpt lat="47.7745" lon="-3.58611">
        <ele>42</ele>
        <time>2019-07-14T09:52:12Z</time>
      </trkpt>
      <trkpt lat="47.77449" lon="-3.58619">
        <ele>41</ele>
        <time>2019-07-14T09:52:13Z</time>
      </trkpt>
      <trkpt lat="47.77448" lon="-3.58626">
        <ele>41</ele>
        <time>2019-07-14T09:52:14Z</time>
      </trkpt>
      <trkpt lat="47.77447" lon="-3.58634">
        <ele>41</ele>
        <time>2019-07-14T09:52:15Z</time>
      </trkpt>
      <trkpt lat="47.77446" lon="-3.58642">
        <ele>41</ele>
        <time>2019-07-14T09:52:16Z</time>
      </trkpt>
      <trkpt lat="47.77445" lon="-3.58649">
        <ele>40</ele>
        <time>2019-07-14T09:52:17Z</time>
      </trkpt>
      <trkpt lat="47.77444" lon="-3.58658">
        <ele>40</ele>
        <time>2019-07-14T09:52:18Z</time>
      </trkpt>
      <trkpt lat="47.77444" lon="-3.58666">
        <ele>40</ele>
        <time>2019-07-14T09:52:19Z</time>
      </trkpt>
      <trkpt lat="47.77443" lon="-3.58676">
        <ele>40</ele>
        <time>2019-07-14T09:52:20Z</time>
      </trkpt>
      <trkpt lat="47.77443" lon="-3.58685">
        <ele>40</ele>
        <time>2019-07-14T09:52:21Z</time>
      </trkpt>
      <trkpt lat="47.77442" lon="-3.58693">
        <ele>40</ele>
        <time>2019-07-14T09:52:22Z</time>
      </trkpt>
      <trkpt lat="47.77442" lon="-3.58702">
        <ele>40</ele>
        <time>2019-07-14T09:52:23Z</time>
      </trkpt>
      <trkpt lat="47.77442" lon="-3.58711">
        <ele>39</ele>
        <time>2019-07-14T09:52:24Z</time>
      </trkpt>
      <trkpt lat="47.77442" lon="-3.5872">
        <ele>39</ele>
        <time>2019-07-14T09:52:25Z</time>
      </trkpt>
      <trkpt lat="47.77442" lon="-3.58729">
        <ele>39</ele>
        <time>2019-07-14T09:52:26Z</time>
      </trkpt>
      <trkpt lat="47.77443" lon="-3.58738">
        <ele>39</ele>
        <time>2019-07-14T09:52:27Z</time>
      </trkpt>
      <trkpt lat="47.77443" lon="-3.58746">
        <ele>39</ele>
        <time>2019-07-14T09:52:28Z</time>
      </trkpt>
      <trkpt lat="47.77444" lon="-3.58755">
        <ele>39</ele>
        <time>2019-07-14T09:52:29Z</time>
      </trkpt>
      <trkpt lat="47.77445" lon="-3.58764">
        <ele>39</ele>
        <time>2019-07-14T09:52:30Z</time>
      </trkpt>
      <trkpt lat="47.77446" lon="-3.58772">
        <ele>39</ele>
        <time>2019-07-14T09:52:31Z</time>
      </trkpt>
      <trkpt lat="47.77447" lon="-3.58781">
        <ele>39</ele>
        <time>2019-07-14T09:52:32Z</time>
      </trkpt>
      <trkpt lat="47.77448" lon="-3.5879">
        <ele>39</ele>
        <time>2019-07-14T09:52:33Z</time>
      </trkpt>
      <trkpt lat="47.77449" lon="-3.58799">
        <ele>38</ele>
        <time>2019-07-14T09:52:34Z</time>
      </trkpt>
      <trkpt lat="47.7745" lon="-3.58808">
        <ele>38</ele>
        <time>2019-07-14T09:52:35Z</time>
      </trkpt>
      <trkpt lat="47.7745" lon="-3.58817">
        <ele>38</ele>
        <time>2019-07-14T09:52:36Z</time>
      </trkpt>
      <trkpt lat="47.77451" lon="-3.58826">
        <ele>38</ele>
        <time>2019-07-14T09:52:37Z</time>
      </trkpt>
      <trkpt lat="47.77451" lon="-3.58836">
        <ele>38</ele>
        <time>2019-07-14T09:52:38Z</time>
      </trkpt>
      <trkpt lat="47.77451" lon="-3.58845">
        <ele>38</ele>
        <time>2019-07-14T09:52:39Z</time>
      </trkpt>
      <trkpt lat="47.77452" lon="-3.58854">
        <ele>38</ele>
        <time>2019-07-14T09:52:40Z</time>
      </trkpt>
      <trkpt lat="47.77452" lon="-3.58863">
        <ele>37</ele>
        <time>2019-07-14T09:52:41Z</time>
      </trkpt>
      <trkpt lat="47.77452" lon="-3.58872">
        <ele>37</ele>
        <time>2019-07-14T09:52:42Z</time>
      </trkpt>
      <trkpt lat="47.77452" lon="-3.5888">
        <ele>37</ele>
        <time>2019-07-14T09:52:43Z</time>
      </trkpt>
      <trkpt lat="47.77452" lon="-3.58889">
        <ele>37</ele>
        <time>2019-07-14T09:52:44Z</time>
      </trkpt>
      <trkpt lat="47.7745" lon="-3.58898">
        <ele>37</ele>
        <time>2019-07-14T09:52:45Z</time>
      </trkpt>
      <trkpt lat="47.77446" lon="-3.58904">
        <ele>37</ele>
        <time>2019-07-14T09:52:46Z</time>
      </trkpt>
      <trkpt lat="47.77441" lon="-3.58906">
        <ele>37</ele>
        <time>2019-07-14T09:52:47Z</time>
      </trkpt>
      <trkpt lat="47.77435" lon="-3.58906">
        <ele>36</ele>
        <time>2019-07-14T09:52:48Z</time>
      </trkpt>
      <trkpt lat="47.77429" lon="-3.58906">
        <ele>36</ele>
        <time>2019-07-14T09:52:49Z</time>
      </trkpt>
      <trkpt lat="47.77423" lon="-3.58905">
        <ele>36</ele>
        <time>2019-07-14T09:52:50Z</time>
      </trkpt>
      <trkpt lat="47.77417" lon="-3.58906">
        <ele>36</ele>
        <time>2019-07-14T09:52:51Z</time>
      </trkpt>
      <trkpt lat="47.77411" lon="-3.58906">
        <ele>36</ele>
        <time>2019-07-14T09:52:52Z</time>
      </trkpt>
      <trkpt lat="47.77404" lon="-3.58906">
        <ele>36</ele>
        <time>2019-07-14T09:52:53Z</time>
      </trkpt>
      <trkpt lat="47.77397" lon="-3.58906">
        <ele>36</ele>
        <time>2019-07-14T09:52:54Z</time>
      </trkpt>
      <trkpt lat="47.7739" lon="-3.58906">
        <ele>36</ele>
        <time>2019-07-14T09:52:55Z</time>
      </trkpt>
      <trkpt lat="47.77382" lon="-3.58906">
        <ele>35</ele>
        <time>2019-07-14T09:52:56Z</time>
      </trkpt>
      <trkpt lat="47.77375" lon="-3.58905">
        <ele>35</ele>
        <time>2019-07-14T09:52:57Z</time>
      </trkpt>
      <trkpt lat="47.77367" lon="-3.58905">
        <ele>35</ele>
        <time>2019-07-14T09:52:58Z</time>
      </trkpt>
      <trkpt lat="47.77359" lon="-3.58904">
        <ele>35</ele>
        <time>2019-07-14T09:52:59Z</time>
      </trkpt>
      <trkpt lat="47.77352" lon="-3.58902">
        <ele>35</ele>
        <time>2019-07-14T09:53:00Z</time>
      </trkpt>
      <trkpt lat="47.77344" lon="-3.589">
        <ele>35</ele>
        <time>2019-07-14T09:53:01Z</time>
      </trkpt>
      <trkpt lat="47.77336" lon="-3.58898">
        <ele>34</ele>
        <time>2019-07-14T09:53:02Z</time>
      </trkpt>
      <trkpt lat="47.77328" lon="-3.58896">
        <ele>34</ele>
        <time>2019-07-14T09:53:03Z</time>
      </trkpt>
      <trkpt lat="47.7732" lon="-3.58895">
        <ele>34</ele>
        <time>2019-07-14T09:53:04Z</time>
      </trkpt>
      <trkpt lat="47.77313" lon="-3.58893">
        <ele>33</ele>
        <time>2019-07-14T09:53:05Z</time>
      </trkpt>
      <trkpt lat="47.77308" lon="-3.58892">
        <ele>33</ele>
        <time>2019-07-14T09:53:06Z</time>
      </trkpt>
      <trkpt lat="47.77304" lon="-3.58891">
        <ele>33</ele>
        <time>2019-07-14T09:53:07Z</time>
      </trkpt>
      <trkpt lat="47.77301" lon="-3.58888">
        <ele>33</ele>
        <time>2019-07-14T09:53:08Z</time>
      </trkpt>
      <trkpt lat="47.773" lon="-3.58883">
        <ele>33</ele>
        <time>2019-07-14T09:53:09Z</time>
      </trkpt>
      <trkpt lat="47.773" lon="-3.58878">
        <ele>33</ele>
        <time>2019-07-14T09:53:10Z</time>
      </trkpt>
      <trkpt lat="47.773" lon="-3.58873">
        <ele>33</ele>
        <time>2019-07-14T09:53:11Z</time>
      </trkpt>
      <trkpt lat="47.773" lon="-3.58867">
        <ele>33</ele>
        <time>2019-07-14T09:53:12Z</time>
      </trkpt>
      <trkpt lat="47.77299" lon="-3.58862">
        <ele>33</ele>
        <time>2019-07-14T09:53:13Z</time>
      </trkpt>
      <trkpt lat="47.77297" lon="-3.58856">
        <ele>33</ele>
        <time>2019-07-14T09:53:14Z</time>
      </trkpt>
      <trkpt lat="47.77295" lon="-3.58851">
        <ele>33</ele>
        <time>2019-07-14T09:53:15Z</time>
      </trkpt>
      <trkpt lat="47.77292" lon="-3.58846">
        <ele>33</ele>
        <time>2019-07-14T09:53:16Z</time>
      </trkpt>
      <trkpt lat="47.77289" lon="-3.58841">
        <ele>33</ele>
        <time>2019-07-14T09:53:17Z</time>
      </trkpt>
      <trkpt lat="47.77285" lon="-3.58837">
        <ele>33</ele>
        <time>2019-07-14T09:53:18Z</time>
      </trkpt>
      <trkpt lat="47.77283" lon="-3.58832">
        <ele>33</ele>
        <time>2019-07-14T09:53:19Z</time>
      </trkpt>
      <trkpt lat="47.77279" lon="-3.58828">
        <ele>33</ele>
        <time>2019-07-14T09:53:20Z</time>
      </trkpt>
      <trkpt lat="47.77274" lon="-3.58823">
        <ele>33</ele>
        <time>2019-07-14T09:53:21Z</time>
      </trkpt>
      <trkpt lat="47.7727" lon="-3.58818">
        <ele>33</ele>
        <time>2019-07-14T09:53:22Z</time>
      </trkpt>
      <trkpt lat="47.77264" lon="-3.58813">
        <ele>34</ele>
        <time>2019-07-14T09:53:23Z</time>
      </trkpt>
      <trkpt lat="47.77258" lon="-3.58808">
        <ele>34</ele>
        <time>2019-07-14T09:53:24Z</time>
      </trkpt>
      <trkpt lat="47.77252" lon="-3.58802">
        <ele>34</ele>
        <time>2019-07-14T09:53:25Z</time>
      </trkpt>
      <trkpt lat="47.77247" lon="-3.58796">
        <ele>34</ele>
        <time>2019-07-14T09:53:26Z</time>
      </trkpt>
      <trkpt lat="47.77241" lon="-3.58789">
        <ele>34</ele>
        <time>2019-07-14T09:53:27Z</time>
      </trkpt>
      <trkpt lat="47.77235" lon="-3.58784">
        <ele>34</ele>
        <time>2019-07-14T09:53:28Z</time>
      </trkpt>
      <trkpt lat="47.77228" lon="-3.58779">
        <ele>33</ele>
        <time>2019-07-14T09:53:29Z</time>
      </trkpt>
      <trkpt lat="47.7722" lon="-3.58775">
        <ele>33</ele>
        <time>2019-07-14T09:53:30Z</time>
      </trkpt>
      <trkpt lat="47.77212" lon="-3.58771">
        <ele>33</ele>
        <time>2019-07-14T09:53:31Z</time>
      </trkpt>
      <trkpt lat="47.77206" lon="-3.58768">
        <ele>33</ele>
        <time>2019-07-14T09:53:32Z</time>
      </trkpt>
      <trkpt lat="47.772" lon="-3.58762">
        <ele>33</ele>
        <time>2019-07-14T09:53:33Z</time>
      </trkpt>
      <trkpt lat="47.77195" lon="-3.58757">
        <ele>33</ele>
        <time>2019-07-14T09:53:34Z</time>
      </trkpt>
      <trkpt lat="47.7719" lon="-3.58751">
        <ele>33</ele>
        <time>2019-07-14T09:53:35Z</time>
      </trkpt>
      <trkpt lat="47.77185" lon="-3.58747">
        <ele>32</ele>
        <time>2019-07-14T09:53:36Z</time>
      </trkpt>
      <trkpt lat="47.7718" lon="-3.58744">
        <ele>32</ele>
        <time>2019-07-14T09:53:37Z</time>
      </trkpt>
      <trkpt lat="47.77173" lon="-3.58743">
        <ele>32</ele>
        <time>2019-07-14T09:53:38Z</time>
      </trkpt>
      <trkpt lat="47.77167" lon="-3.58743">
        <ele>32</ele>
        <time>2019-07-14T09:53:39Z</time>
      </trkpt>
      <trkpt lat="47.77161" lon="-3.58744">
        <ele>32</ele>
        <time>2019-07-14T09:53:40Z</time>
      </trkpt>
      <trkpt lat="47.77154" lon="-3.58744">
        <ele>32</ele>
        <time>2019-07-14T09:53:41Z</time>
      </trkpt>
      <trkpt lat="47.77148" lon="-3.58744">
        <ele>32</ele>
        <time>2019-07-14T09:53:42Z</time>
      </trkpt>
      <trkpt lat="47.77141" lon="-3.58743">
        <ele>31</ele>
        <time>2019-07-14T09:53:43Z</time>
      </trkpt>
      <trkpt lat="47.77135" lon="-3.58742">
        <ele>31</ele>
        <time>2019-07-14T09:53:44Z</time>
      </trkpt>
      <trkpt lat="47.7713" lon="-3.58742">
        <ele>31</ele>
        <time>2019-07-14T09:53:45Z</time>
      </trkpt>
      <trkpt lat="47.77124" lon="-3.58741">
        <ele>31</ele>
        <time>2019-07-14T09:53:46Z</time>
      </trkpt>
      <trkpt lat="47.77118" lon="-3.58738">
        <ele>31</ele>
        <time>2019-07-14T09:53:47Z</time>
      </trkpt>
      <trkpt lat="47.77112" lon="-3.58734">
        <ele>31</ele>
        <time>2019-07-14T09:53:48Z</time>
      </trkpt>
      <trkpt lat="47.77107" lon="-3.58729">
        <ele>31</ele>
        <time>2019-07-14T09:53:49Z</time>
      </trkpt>
      <trkpt lat="47.77101" lon="-3.58725">
        <ele>30</ele>
        <time>2019-07-14T09:53:50Z</time>
      </trkpt>
      <trkpt lat="47.77096" lon="-3.58721">
        <ele>30</ele>
        <time>2019-07-14T09:53:51Z</time>
      </trkpt>
      <trkpt lat="47.7709" lon="-3.58718">
        <ele>30</ele>
        <time>2019-07-14T09:53:52Z</time>
      </trkpt>
      <trkpt lat="47.77086" lon="-3.58718">
        <ele>30</ele>
        <time>2019-07-14T09:53:53Z</time>
      </trkpt>
      <trkpt lat="47.77083" lon="-3.5872">
        <ele>29</ele>
        <time>2019-07-14T09:53:54Z</time>
      </trkpt>
      <trkpt lat="47.7708" lon="-3.58724">
        <ele>29</ele>
        <time>2019-07-14T09:53:55Z</time>
      </trkpt>
      <trkpt lat="47.77077" lon="-3.58728">
        <ele>28</ele>
        <time>2019-07-14T09:53:56Z</time>
      </trkpt>
      <trkpt lat="47.77073" lon="-3.58732">
        <ele>28</ele>
        <time>2019-07-14T09:53:57Z</time>
      </trkpt>
      <trkpt lat="47.7707" lon="-3.58735">
        <ele>27</ele>
        <time>2019-07-14T09:53:58Z</time>
      </trkpt>
      <trkpt lat="47.77066" lon="-3.58739">
        <ele>27</ele>
        <time>2019-07-14T09:53:59Z</time>
      </trkpt>
      <trkpt lat="47.77061" lon="-3.58743">
        <ele>27</ele>
        <time>2019-07-14T09:54:00Z</time>
      </trkpt>
      <trkpt lat="47.77057" lon="-3.58747">
        <ele>26</ele>
        <time>2019-07-14T09:54:01Z</time>
      </trkpt>
      <trkpt lat="47.77054" lon="-3.58753">
        <ele>26</ele>
        <time>2019-07-14T09:54:02Z</time>
      </trkpt>
      <trkpt lat="47.7705" lon="-3.58759">
        <ele>26</ele>
        <time>2019-07-14T09:54:03Z</time>
      </trkpt>
      <trkpt lat="47.77047" lon="-3.58766">
        <ele>25</ele>
        <time>2019-07-14T09:54:04Z</time>
      </trkpt>
      <trkpt lat="47.77044" lon="-3.58772">
        <ele>25</ele>
        <time>2019-07-14T09:54:05Z</time>
      </trkpt>
      <trkpt lat="47.77041" lon="-3.58778">
        <ele>25</ele>
        <time>2019-07-14T09:54:06Z</time>
      </trkpt>
      <trkpt lat="47.77037" lon="-3.58783">
        <ele>25</ele>
        <time>2019-07-14T09:54:07Z</time>
      </trkpt>
      <trkpt lat="47.77033" lon="-3.58789">
        <ele>24</ele>
        <time>2019-07-14T09:54:08Z</time>
      </trkpt>
      <trkpt lat="47.7703" lon="-3.58795">
        <ele>24</ele>
        <time>2019-07-14T09:54:09Z</time>
      </trkpt>
      <trkpt lat="47.77026" lon="-3.58801">
        <ele>24</ele>
        <time>2019-07-14T09:54:10Z</time>
      </trkpt>
      <trkpt lat="47.77022" lon="-3.58806">
        <ele>24</ele>
        <time>2019-07-14T09:54:11Z</time>
      </trkpt>
      <trkpt lat="47.77018" lon="-3.58808">
        <ele>23</ele>
        <time>2019-07-14T09:54:12Z</time>
      </trkpt>
      <trkpt lat="47.77015" lon="-3.58808">
        <ele>23</ele>
        <time>2019-07-14T09:54:13Z</time>
      </trkpt>
      <trkpt lat="47.77011" lon="-3.58806">
        <ele>23</ele>
        <time>2019-07-14T09:54:14Z</time>
      </trkpt>
      <trkpt lat="47.77007" lon="-3.58803">
        <ele>23</ele>
        <time>2019-07-14T09:54:15Z</time>
      </trkpt>
      <trkpt lat="47.77002" lon="-3.58799">
        <ele>22</ele>
        <time>2019-07-14T09:54:16Z</time>
      </trkpt>
      <trkpt lat="47.76997" lon="-3.58796">
        <ele>22</ele>
        <time>2019-07-14T09:54:17Z</time>
      </trkpt>
      <trkpt lat="47.76991" lon="-3.58792">
        <ele>22</ele>
        <time>2019-07-14T09:54:18Z</time>
      </trkpt>
      <trkpt lat="47.76984" lon="-3.58789">
        <ele>21</ele>
        <time>2019-07-14T09:54:19Z</time>
      </trkpt>
      <trkpt lat="47.76977" lon="-3.58785">
        <ele>21</ele>
        <time>2019-07-14T09:54:20Z</time>
      </trkpt>
      <trkpt lat="47.76971" lon="-3.58782">
        <ele>20</ele>
        <time>2019-07-14T09:54:21Z</time>
      </trkpt>
      <trkpt lat="47.76964" lon="-3.58779">
        <ele>20</ele>
        <time>2019-07-14T09:54:22Z</time>
      </trkpt>
      <trkpt lat="47.76956" lon="-3.58777">
        <ele>19</ele>
        <time>2019-07-14T09:54:23Z</time>
      </trkpt>
      <trkpt lat="47.76948" lon="-3.58775">
        <ele>19</ele>
        <time>2019-07-14T09:54:24Z</time>
      </trkpt>
      <trkpt lat="47.76942" lon="-3.58773">
        <ele>19</ele>
        <time>2019-07-14T09:54:25Z</time>
      </trkpt>
      <trkpt lat="47.76936" lon="-3.58771">
        <ele>18</ele>
        <time>2019-07-14T09:54:26Z</time>
      </trkpt>
      <trkpt lat="47.76932" lon="-3.58771">
        <ele>18</ele>
        <time>2019-07-14T09:54:27Z</time>
      </trkpt>
      <trkpt lat="47.76929" lon="-3.58775">
        <ele>17</ele>
        <time>2019-07-14T09:54:28Z</time>
      </trkpt>
      <trkpt lat="47.76927" lon="-3.5878">
        <ele>17</ele>
        <time>2019-07-14T09:54:29Z</time>
      </trkpt>
      <trkpt lat="47.76926" lon="-3.58785">
        <ele>16</ele>
        <time>2019-07-14T09:54:30Z</time>
      </trkpt>
      <trkpt lat="47.76927" lon="-3.5879">
        <ele>16</ele>
        <time>2019-07-14T09:54:31Z</time>
      </trkpt>
      <trkpt lat="47.76928" lon="-3.58794">
        <ele>16</ele>
        <time>2019-07-14T09:54:32Z</time>
      </trkpt>
      <trkpt lat="47.7693" lon="-3.58799">
        <ele>15</ele>
        <time>2019-07-14T09:54:33Z</time>
      </trkpt>
      <trkpt lat="47.76931" lon="-3.58802">
        <ele>15</ele>
        <time>2019-07-14T09:54:34Z</time>
      </trkpt>
      <trkpt lat="47.76933" lon="-3.58805">
        <ele>15</ele>
        <time>2019-07-14T09:54:35Z</time>
      </trkpt>
      <trkpt lat="47.76934" lon="-3.58808">
        <ele>15</ele>
        <time>2019-07-14T09:54:36Z</time>
      </trkpt>
      <trkpt lat="47.76935" lon="-3.58811">
        <ele>14</ele>
        <time>2019-07-14T09:54:37Z</time>
      </trkpt>
      <trkpt lat="47.76935" lon="-3.58814">
        <ele>14</ele>
        <time>2019-07-14T09:54:38Z</time>
      </trkpt>
      <trkpt lat="47.76936" lon="-3.58817">
        <ele>14</ele>
        <time>2019-07-14T09:54:39Z</time>
      </trkpt>
      <trkpt lat="47.76936" lon="-3.5882">
        <ele>14</ele>
        <time>2019-07-14T09:54:40Z</time>
      </trkpt>
      <trkpt lat="47.76936" lon="-3.58823">
        <ele>14</ele>
        <time>2019-07-14T09:54:41Z</time>
      </trkpt>
      <trkpt lat="47.76936" lon="-3.58827">
        <ele>14</ele>
        <time>2019-07-14T09:54:42Z</time>
      </trkpt>
      <trkpt lat="47.76937" lon="-3.58831">
        <ele>14</ele>
        <time>2019-07-14T09:54:43Z</time>
      </trkpt>
      <trkpt lat="47.76937" lon="-3.58836">
        <ele>14</ele>
        <time>2019-07-14T09:54:44Z</time>
      </trkpt>
      <trkpt lat="47.76938" lon="-3.5884">
        <ele>14</ele>
        <time>2019-07-14T09:54:45Z</time>
      </trkpt>
      <trkpt lat="47.76938" lon="-3.58844">
        <ele>14</ele>
        <time>2019-07-14T09:54:46Z</time>
      </trkpt>
      <trkpt lat="47.76938" lon="-3.58849">
        <ele>13</ele>
        <time>2019-07-14T09:54:47Z</time>
      </trkpt>
      <trkpt lat="47.76938" lon="-3.58854">
        <ele>13</ele>
        <time>2019-07-14T09:54:48Z</time>
      </trkpt>
      <trkpt lat="47.76938" lon="-3.5886">
        <ele>13</ele>
        <time>2019-07-14T09:54:49Z</time>
      </trkpt>
      <trkpt lat="47.76938" lon="-3.58865">
        <ele>13</ele>
        <time>2019-07-14T09:54:50Z</time>
      </trkpt>
      <trkpt lat="47.76939" lon="-3.58871">
        <ele>13</ele>
        <time>2019-07-14T09:54:51Z</time>
      </trkpt>
      <trkpt lat="47.76939" lon="-3.58878">
        <ele>13</ele>
        <time>2019-07-14T09:54:52Z</time>
      </trkpt>
      <trkpt lat="47.7694" lon="-3.58884">
        <ele>13</ele>
        <time>2019-07-14T09:54:53Z</time>
      </trkpt>
      <trkpt lat="47.76942" lon="-3.58891">
        <ele>13</ele>
        <time>2019-07-14T09:54:54Z</time>
      </trkpt>
      <trkpt lat="47.76943" lon="-3.58898">
        <ele>13</ele>
        <time>2019-07-14T09:54:55Z</time>
      </trkpt>
      <trkpt lat="47.76945" lon="-3.58904">
        <ele>13</ele>
        <time>2019-07-14T09:54:56Z</time>
      </trkpt>
      <trkpt lat="47.76946" lon="-3.58911">
        <ele>13</ele>
        <time>2019-07-14T09:54:57Z</time>
      </trkpt>
      <trkpt lat="47.76948" lon="-3.58918">
        <ele>13</ele>
        <time>2019-07-14T09:54:58Z</time>
      </trkpt>
      <trkpt lat="47.7695" lon="-3.58925">
        <ele>13</ele>
        <time>2019-07-14T09:54:59Z</time>
      </trkpt>
      <trkpt lat="47.76952" lon="-3.58931">
        <ele>13</ele>
        <time>2019-07-14T09:55:00Z</time>
      </trkpt>
      <trkpt lat="47.76954" lon="-3.58938">
        <ele>13</ele>
        <time>2019-07-14T09:55:01Z</time>
      </trkpt>
      <trkpt lat="47.76956" lon="-3.58943">
        <ele>13</ele>
        <time>2019-07-14T09:55:02Z</time>
      </trkpt>
      <trkpt lat="47.76958" lon="-3.58949">
        <ele>13</ele>
        <time>2019-07-14T09:55:03Z</time>
      </trkpt>
      <trkpt lat="47.7696" lon="-3.58955">
        <ele>13</ele>
        <time>2019-07-14T09:55:04Z</time>
      </trkpt>
      <trkpt lat="47.76962" lon="-3.58962">
        <ele>13</ele>
        <time>2019-07-14T09:55:05Z</time>
      </trkpt>
      <trkpt lat="47.76964" lon="-3.58968">
        <ele>13</ele>
        <time>2019-07-14T09:55:06Z</time>
      </trkpt>
      <trkpt lat="47.76967" lon="-3.58975">
        <ele>13</ele>
        <time>2019-07-14T09:55:07Z</time>
      </trkpt>
      <trkpt lat="47.76969" lon="-3.58982">
        <ele>13</ele>
        <time>2019-07-14T09:55:08Z</time>
      </trkpt>
      <trkpt lat="47.76972" lon="-3.5899">
        <ele>13</ele>
        <time>2019-07-14T09:55:09Z</time>
      </trkpt>
      <trkpt lat="47.76975" lon="-3.58996">
        <ele>13</ele>
        <time>2019-07-14T09:55:10Z</time>
      </trkpt>
      <trkpt lat="47.76977" lon="-3.59003">
        <ele>13</ele>
        <time>2019-07-14T09:55:11Z</time>
      </trkpt>
      <trkpt lat="47.7698" lon="-3.5901">
        <ele>13</ele>
        <time>2019-07-14T09:55:12Z</time>
      </trkpt>
      <trkpt lat="47.76983" lon="-3.59017">
        <ele>13</ele>
        <time>2019-07-14T09:55:13Z</time>
      </trkpt>
      <trkpt lat="47.76986" lon="-3.59024">
        <ele>13</ele>
        <time>2019-07-14T09:55:14Z</time>
      </trkpt>
      <trkpt lat="47.76988" lon="-3.59031">
        <ele>13</ele>
        <time>2019-07-14T09:55:15Z</time>
      </trkpt>
      <trkpt lat="47.76991" lon="-3.59038">
        <ele>13</ele>
        <time>2019-07-14T09:55:16Z</time>
      </trkpt>
      <trkpt lat="47.76993" lon="-3.59046">
        <ele>13</ele>
        <time>2019-07-14T09:55:17Z</time>
      </trkpt>
      <trkpt lat="47.76996" lon="-3.59054">
        <ele>13</ele>
        <time>2019-07-14T09:55:18Z</time>
      </trkpt>
      <trkpt lat="47.76999" lon="-3.59062">
        <ele>13</ele>
        <time>2019-07-14T09:55:19Z</time>
      </trkpt>
      <trkpt lat="47.77003" lon="-3.59069">
        <ele>13</ele>
        <time>2019-07-14T09:55:20Z</time>
      </trkpt>
      <trkpt lat="47.77006" lon="-3.59076">
        <ele>13</ele>
        <time>2019-07-14T09:55:21Z</time>
      </trkpt>
      <trkpt lat="47.7701" lon="-3.59083">
        <ele>13</ele>
        <time>2019-07-14T09:55:22Z</time>
      </trkpt>
      <trkpt lat="47.77013" lon="-3.59088">
        <ele>13</ele>
        <time>2019-07-14T09:55:23Z</time>
      </trkpt>
      <trkpt lat="47.77018" lon="-3.59093">
        <ele>13</ele>
        <time>2019-07-14T09:55:24Z</time>
      </trkpt>
      <trkpt lat="47.77022" lon="-3.59097">
        <ele>13</ele>
        <time>2019-07-14T09:55:25Z</time>
      </trkpt>
      <trkpt lat="47.77026" lon="-3.59102">
        <ele>14</ele>
        <time>2019-07-14T09:55:26Z</time>
      </trkpt>
      <trkpt lat="47.7703" lon="-3.59105">
        <ele>14</ele>
        <time>2019-07-14T09:55:27Z</time>
      </trkpt>
      <trkpt lat="47.77034" lon="-3.59108">
        <ele>14</ele>
        <time>2019-07-14T09:55:28Z</time>
      </trkpt>
      <trkpt lat="47.77038" lon="-3.59111">
        <ele>14</ele>
        <time>2019-07-14T09:55:29Z</time>
      </trkpt>
      <trkpt lat="47.77042" lon="-3.59114">
        <ele>14</ele>
        <time>2019-07-14T09:55:30Z</time>
      </trkpt>
      <trkpt lat="47.77047" lon="-3.59118">
        <ele>14</ele>
        <time>2019-07-14T09:55:31Z</time>
      </trkpt>
      <trkpt lat="47.77051" lon="-3.59121">
        <ele>14</ele>
        <time>2019-07-14T09:55:32Z</time>
      </trkpt>
      <trkpt lat="47.77055" lon="-3.59124">
        <ele>14</ele>
        <time>2019-07-14T09:55:33Z</time>
      </trkpt>
      <trkpt lat="47.77058" lon="-3.59127">
        <ele>14</ele>
        <time>2019-07-14T09:55:34Z</time>
      </trkpt>
      <trkpt lat="47.77061" lon="-3.59129">
        <ele>14</ele>
        <time>2019-07-14T09:55:35Z</time>
      </trkpt>
      <trkpt lat="47.77064" lon="-3.5913">
        <ele>14</ele>
        <time>2019-07-14T09:55:36Z</time>
      </trkpt>
      <trkpt lat="47.77067" lon="-3.59132">
        <ele>14</ele>
        <time>2019-07-14T09:55:37Z</time>
      </trkpt>
      <trkpt lat="47.7707" lon="-3.59133">
        <ele>14</ele>
        <time>2019-07-14T09:55:38Z</time>
      </trkpt>
      <trkpt lat="47.77073" lon="-3.59134">
        <ele>14</ele>
        <time>2019-07-14T09:55:39Z</time>
      </trkpt>
      <trkpt lat="47.77076" lon="-3.59136">
        <ele>14</ele>
        <time>2019-07-14T09:55:40Z</time>
      </trkpt>
      <trkpt lat="47.7708" lon="-3.59138">
        <ele>14</ele>
        <time>2019-07-14T09:55:41Z</time>
      </trkpt>
      <trkpt lat="47.77083" lon="-3.5914">
        <ele>14</ele>
        <time>2019-07-14T09:55:42Z</time>
      </trkpt>
      <trkpt lat="47.77084" lon="-3.59143">
        <ele>14</ele>
        <time>2019-07-14T09:55:43Z</time>
      </trkpt>
      <trkpt lat="47.77083" lon="-3.59148">
        <ele>14</ele>
        <time>2019-07-14T09:55:44Z</time>
      </trkpt>
      <trkpt lat="47.77083" lon="-3.59153">
        <ele>14</ele>
        <time>2019-07-14T09:55:45Z</time>
      </trkpt>
      <trkpt lat="47.77082" lon="-3.59158">
        <ele>14</ele>
        <time>2019-07-14T09:55:46Z</time>
      </trkpt>
      <trkpt lat="47.77082" lon="-3.59164">
        <ele>14</ele>
        <time>2019-07-14T09:55:47Z</time>
      </trkpt>
      <trkpt lat="47.7708" lon="-3.59169">
        <ele>14</ele>
        <time>2019-07-14T09:55:48Z</time>
      </trkpt>
      <trkpt lat="47.77079" lon="-3.59175">
        <ele>14</ele>
        <time>2019-07-14T09:55:49Z</time>
      </trkpt>
      <trkpt lat="47.77077" lon="-3.5918">
        <ele>14</ele>
        <time>2019-07-14T09:55:50Z</time>
      </trkpt>
      <trkpt lat="47.77077" lon="-3.59185">
        <ele>14</ele>
        <time>2019-07-14T09:55:51Z</time>
      </trkpt>
      <trkpt lat="47.77076" lon="-3.5919">
        <ele>14</ele>
        <time>2019-07-14T09:55:52Z</time>
      </trkpt>
      <trkpt lat="47.77076" lon="-3.59194">
        <ele>14</ele>
        <time>2019-07-14T09:55:53Z</time>
      </trkpt>
      <trkpt lat="47.77075" lon="-3.59199">
        <ele>14</ele>
        <time>2019-07-14T09:55:54Z</time>
      </trkpt>
      <trkpt lat="47.77074" lon="-3.59203">
        <ele>14</ele>
        <time>2019-07-14T09:55:55Z</time>
      </trkpt>
      <trkpt lat="47.77074" lon="-3.59208">
        <ele>15</ele>
        <time>2019-07-14T09:55:56Z</time>
      </trkpt>
      <trkpt lat="47.77074" lon="-3.59213">
        <ele>15</ele>
        <time>2019-07-14T09:55:57Z</time>
      </trkpt>
      <trkpt lat="47.77074" lon="-3.59217">
        <ele>15</ele>
        <time>2019-07-14T09:55:58Z</time>
      </trkpt>
      <trkpt lat="47.77074" lon="-3.59222">
        <ele>15</ele>
        <time>2019-07-14T09:55:59Z</time>
      </trkpt>
      <trkpt lat="47.77074" lon="-3.59226">
        <ele>15</ele>
        <time>2019-07-14T09:56:00Z</time>
      </trkpt>
      <trkpt lat="47.77075" lon="-3.59231">
        <ele>15</ele>
        <time>2019-07-14T09:56:01Z</time>
      </trkpt>
      <trkpt lat="47.77075" lon="-3.59236">
        <ele>15</ele>
        <time>2019-07-14T09:56:02Z</time>
      </trkpt>
      <trkpt lat="47.77075" lon="-3.5924">
        <ele>16</ele>
        <time>2019-07-14T09:56:03Z</time>
      </trkpt>
      <trkpt lat="47.77074" lon="-3.59245">
        <ele>16</ele>
        <time>2019-07-14T09:56:04Z</time>
      </trkpt>
      <trkpt lat="47.77073" lon="-3.5925">
        <ele>16</ele>
        <time>2019-07-14T09:56:05Z</time>
      </trkpt>
      <trkpt lat="47.77072" lon="-3.59255">
        <ele>16</ele>
        <time>2019-07-14T09:56:06Z</time>
      </trkpt>
      <trkpt lat="47.77072" lon="-3.5926">
        <ele>16</ele>
        <time>2019-07-14T09:56:07Z</time>
      </trkpt>
      <trkpt lat="47.7707" lon="-3.59265">
        <ele>16</ele>
        <time>2019-07-14T09:56:08Z</time>
      </trkpt>
      <trkpt lat="47.77069" lon="-3.59271">
        <ele>17</ele>
        <time>2019-07-14T09:56:09Z</time>
      </trkpt>
      <trkpt lat="47.77068" lon="-3.59277">
        <ele>17</ele>
        <time>2019-07-14T09:56:10Z</time>
      </trkpt>
      <trkpt lat="47.77067" lon="-3.59283">
        <ele>17</ele>
        <time>2019-07-14T09:56:11Z</time>
      </trkpt>
      <trkpt lat="47.77065" lon="-3.59289">
        <ele>17</ele>
        <time>2019-07-14T09:56:12Z</time>
      </trkpt>
      <trkpt lat="47.77064" lon="-3.59295">
        <ele>17</ele>
        <time>2019-07-14T09:56:13Z</time>
      </trkpt>
      <trkpt lat="47.77063" lon="-3.593">
        <ele>17</ele>
        <time>2019-07-14T09:56:14Z</time>
      </trkpt>
      <trkpt lat="47.77062" lon="-3.59307">
        <ele>17</ele>
        <time>2019-07-14T09:56:15Z</time>
      </trkpt>
      <trkpt lat="47.77061" lon="-3.59314">
        <ele>17</ele>
        <time>2019-07-14T09:56:16Z</time>
      </trkpt>
      <trkpt lat="47.77062" lon="-3.59321">
        <ele>17</ele>
        <time>2019-07-14T09:56:17Z</time>
      </trkpt>
      <trkpt lat="47.77061" lon="-3.59329">
        <ele>18</ele>
        <time>2019-07-14T09:56:18Z</time>
      </trkpt>
      <trkpt lat="47.77061" lon="-3.59336">
        <ele>18</ele>
        <time>2019-07-14T09:56:19Z</time>
      </trkpt>
      <trkpt lat="47.77061" lon="-3.59344">
        <ele>18</ele>
        <time>2019-07-14T09:56:20Z</time>
      </trkpt>
      <trkpt lat="47.77061" lon="-3.59352">
        <ele>18</ele>
        <time>2019-07-14T09:56:21Z</time>
      </trkpt>
      <trkpt lat="47.77061" lon="-3.59359">
        <ele>18</ele>
        <time>2019-07-14T09:56:22Z</time>
      </trkpt>
      <trkpt lat="47.77061" lon="-3.59368">
        <ele>18</ele>
        <time>2019-07-14T09:56:23Z</time>
      </trkpt>
      <trkpt lat="47.77061" lon="-3.59377">
        <ele>19</ele>
        <time>2019-07-14T09:56:24Z</time>
      </trkpt>
      <trkpt lat="47.77062" lon="-3.59385">
        <ele>19</ele>
        <time>2019-07-14T09:56:25Z</time>
      </trkpt>
      <trkpt lat="47.77062" lon="-3.59394">
        <ele>19</ele>
        <time>2019-07-14T09:56:26Z</time>
      </trkpt>
      <trkpt lat="47.77063" lon="-3.59401">
        <ele>19</ele>
        <time>2019-07-14T09:56:27Z</time>
      </trkpt>
      <trkpt lat="47.77063" lon="-3.59409">
        <ele>19</ele>
        <time>2019-07-14T09:56:28Z</time>
      </trkpt>
      <trkpt lat="47.77064" lon="-3.59417">
        <ele>19</ele>
        <time>2019-07-14T09:56:29Z</time>
      </trkpt>
      <trkpt lat="47.77065" lon="-3.59425">
        <ele>19</ele>
        <time>2019-07-14T09:56:30Z</time>
      </trkpt>
      <trkpt lat="47.77065" lon="-3.59434">
        <ele>19</ele>
        <time>2019-07-14T09:56:31Z</time>
      </trkpt>
      <trkpt lat="47.77065" lon="-3.59443">
        <ele>19</ele>
        <time>2019-07-14T09:56:32Z</time>
      </trkpt>
      <trkpt lat="47.77063" lon="-3.59451">
        <ele>19</ele>
        <time>2019-07-14T09:56:33Z</time>
      </trkpt>
      <trkpt lat="47.7706" lon="-3.5946">
        <ele>19</ele>
        <time>2019-07-14T09:56:34Z</time>
      </trkpt>
      <trkpt lat="47.77058" lon="-3.5947">
        <ele>19</ele>
        <time>2019-07-14T09:56:35Z</time>
      </trkpt>
      <trkpt lat="47.77056" lon="-3.59479">
        <ele>19</ele>
        <time>2019-07-14T09:56:36Z</time>
      </trkpt>
      <trkpt lat="47.77054" lon="-3.59488">
        <ele>19</ele>
        <time>2019-07-14T09:56:37Z</time>
      </trkpt>
      <trkpt lat="47.77051" lon="-3.59496">
        <ele>19</ele>
        <time>2019-07-14T09:56:38Z</time>
      </trkpt>
      <trkpt lat="47.77049" lon="-3.59505">
        <ele>19</ele>
        <time>2019-07-14T09:56:39Z</time>
      </trkpt>
      <trkpt lat="47.77046" lon="-3.59512">
        <ele>19</ele>
        <time>2019-07-14T09:56:40Z</time>
      </trkpt>
      <trkpt lat="47.77041" lon="-3.59519">
        <ele>19</ele>
        <time>2019-07-14T09:56:41Z</time>
      </trkpt>
      <trkpt lat="47.77036" lon="-3.59526">
        <ele>18</ele>
        <time>2019-07-14T09:56:42Z</time>
      </trkpt>
      <trkpt lat="47.77031" lon="-3.59534">
        <ele>18</ele>
        <time>2019-07-14T09:56:43Z</time>
      </trkpt>
      <trkpt lat="47.77028" lon="-3.59543">
        <ele>18</ele>
        <time>2019-07-14T09:56:44Z</time>
      </trkpt>
      <trkpt lat="47.77025" lon="-3.59554">
        <ele>18</ele>
        <time>2019-07-14T09:56:45Z</time>
      </trkpt>
      <trkpt lat="47.77025" lon="-3.59567">
        <ele>18</ele>
        <time>2019-07-14T09:56:46Z</time>
      </trkpt>
      <trkpt lat="47.77026" lon="-3.59579">
        <ele>17</ele>
        <time>2019-07-14T09:56:47Z</time>
      </trkpt>
      <trkpt lat="47.77028" lon="-3.59591">
        <ele>17</ele>
        <time>2019-07-14T09:56:48Z</time>
      </trkpt>
      <trkpt lat="47.77031" lon="-3.59602">
        <ele>17</ele>
        <time>2019-07-14T09:56:49Z</time>
      </trkpt>
      <trkpt lat="47.77035" lon="-3.59613">
        <ele>16</ele>
        <time>2019-07-14T09:56:50Z</time>
      </trkpt>
      <trkpt lat="47.77038" lon="-3.59625">
        <ele>16</ele>
        <time>2019-07-14T09:56:51Z</time>
      </trkpt>
      <trkpt lat="47.77042" lon="-3.59636">
        <ele>15</ele>
        <time>2019-07-14T09:56:52Z</time>
      </trkpt>
      <trkpt lat="47.77046" lon="-3.59648">
        <ele>15</ele>
        <time>2019-07-14T09:56:53Z</time>
      </trkpt>
      <trkpt lat="47.77049" lon="-3.5966">
        <ele>14</ele>
        <time>2019-07-14T09:56:54Z</time>
      </trkpt>
      <trkpt lat="47.77052" lon="-3.59673">
        <ele>14</ele>
        <time>2019-07-14T09:56:55Z</time>
      </trkpt>
      <trkpt lat="47.77055" lon="-3.59685">
        <ele>13</ele>
        <time>2019-07-14T09:56:56Z</time>
      </trkpt>
      <trkpt lat="47.77057" lon="-3.59698">
        <ele>13</ele>
        <time>2019-07-14T09:56:57Z</time>
      </trkpt>
      <trkpt lat="47.77057" lon="-3.59711">
        <ele>13</ele>
        <time>2019-07-14T09:56:58Z</time>
      </trkpt>
      <trkpt lat="47.77055" lon="-3.59724">
        <ele>12</ele>
        <time>2019-07-14T09:56:59Z</time>
      </trkpt>
      <trkpt lat="47.77052" lon="-3.59734">
        <ele>12</ele>
        <time>2019-07-14T09:57:00Z</time>
      </trkpt>
      <trkpt lat="47.77049" lon="-3.59742">
        <ele>12</ele>
        <time>2019-07-14T09:57:01Z</time>
      </trkpt>
      <trkpt lat="47.77047" lon="-3.59749">
        <ele>12</ele>
        <time>2019-07-14T09:57:02Z</time>
      </trkpt>
      <trkpt lat="47.77044" lon="-3.59755">
        <ele>12</ele>
        <time>2019-07-14T09:57:03Z</time>
      </trkpt>
      <trkpt lat="47.77043" lon="-3.5976">
        <ele>12</ele>
        <time>2019-07-14T09:57:04Z</time>
      </trkpt>
      <trkpt lat="47.77043" lon="-3.59766">
        <ele>12</ele>
        <time>2019-07-14T09:57:05Z</time>
      </trkpt>
      <trkpt lat="47.77042" lon="-3.59772">
        <ele>12</ele>
        <time>2019-07-14T09:57:06Z</time>
      </trkpt>
      <trkpt lat="47.77042" lon="-3.59779">
        <ele>12</ele>
        <time>2019-07-14T09:57:07Z</time>
      </trkpt>
      <trkpt lat="47.77041" lon="-3.59785">
        <ele>12</ele>
        <time>2019-07-14T09:57:08Z</time>
      </trkpt>
      <trkpt lat="47.77041" lon="-3.59793">
        <ele>12</ele>
        <time>2019-07-14T09:57:09Z</time>
      </trkpt>
      <trkpt lat="47.77041" lon="-3.59801">
        <ele>12</ele>
        <time>2019-07-14T09:57:10Z</time>
      </trkpt>
      <trkpt lat="47.77042" lon="-3.59809">
        <ele>11</ele>
        <time>2019-07-14T09:57:11Z</time>
      </trkpt>
      <trkpt lat="47.77043" lon="-3.59817">
        <ele>11</ele>
        <time>2019-07-14T09:57:12Z</time>
      </trkpt>
      <trkpt lat="47.77044" lon="-3.59826">
        <ele>11</ele>
        <time>2019-07-14T09:57:13Z</time>
      </trkpt>
      <trkpt lat="47.77044" lon="-3.59834">
        <ele>11</ele>
        <time>2019-07-14T09:57:14Z</time>
      </trkpt>
      <trkpt lat="47.77044" lon="-3.5984">
        <ele>11</ele>
        <time>2019-07-14T09:57:15Z</time>
      </trkpt>
      <trkpt lat="47.77046" lon="-3.59845">
        <ele>11</ele>
        <time>2019-07-14T09:57:16Z</time>
      </trkpt>
      <trkpt lat="47.77049" lon="-3.59849">
        <ele>11</ele>
        <time>2019-07-14T09:57:17Z</time>
      </trkpt>
      <trkpt lat="47.77053" lon="-3.59851">
        <ele>11</ele>
        <time>2019-07-14T09:57:18Z</time>
      </trkpt>
      <trkpt lat="47.77057" lon="-3.59851">
        <ele>11</ele>
        <time>2019-07-14T09:57:19Z</time>
      </trkpt>
      <trkpt lat="47.77061" lon="-3.59853">
        <ele>11</ele>
        <time>2019-07-14T09:57:20Z</time>
      </trkpt>
      <trkpt lat="47.77064" lon="-3.59855">
        <ele>10</ele>
        <time>2019-07-14T09:57:21Z</time>
      </trkpt>
      <trkpt lat="47.77066" lon="-3.5986">
        <ele>10</ele>
        <time>2019-07-14T09:57:22Z</time>
      </trkpt>
      <trkpt lat="47.77067" lon="-3.59866">
        <ele>10</ele>
        <time>2019-07-14T09:57:23Z</time>
      </trkpt>
      <trkpt lat="47.77068" lon="-3.59872">
        <ele>10</ele>
        <time>2019-07-14T09:57:24Z</time>
      </trkpt>
      <trkpt lat="47.77069" lon="-3.59878">
        <ele>10</ele>
        <time>2019-07-14T09:57:25Z</time>
      </trkpt>
      <trkpt lat="47.7707" lon="-3.59885">
        <ele>10</ele>
        <time>2019-07-14T09:57:26Z</time>
      </trkpt>
      <trkpt lat="47.77072" lon="-3.59891">
        <ele>10</ele>
        <time>2019-07-14T09:57:27Z</time>
      </trkpt>
      <trkpt lat="47.77073" lon="-3.59897">
        <ele>10</ele>
        <time>2019-07-14T09:57:28Z</time>
      </trkpt>
      <trkpt lat="47.77074" lon="-3.59904">
        <ele>11</ele>
        <time>2019-07-14T09:57:29Z</time>
      </trkpt>
      <trkpt lat="47.77074" lon="-3.59911">
        <ele>11</ele>
        <time>2019-07-14T09:57:30Z</time>
      </trkpt>
      <trkpt lat="47.77075" lon="-3.59918">
        <ele>11</ele>
        <time>2019-07-14T09:57:31Z</time>
      </trkpt>
      <trkpt lat="47.77076" lon="-3.59925">
        <ele>11</ele>
        <time>2019-07-14T09:57:32Z</time>
      </trkpt>
      <trkpt lat="47.77076" lon="-3.59933">
        <ele>10</ele>
        <time>2019-07-14T09:57:33Z</time>
      </trkpt>
      <trkpt lat="47.77077" lon="-3.59941">
        <ele>10</ele>
        <time>2019-07-14T09:57:34Z</time>
      </trkpt>
      <trkpt lat="47.77077" lon="-3.59949">
        <ele>10</ele>
        <time>2019-07-14T09:57:35Z</time>
      </trkpt>
      <trkpt lat="47.77078" lon="-3.59956">
        <ele>10</ele>
        <time>2019-07-14T09:57:36Z</time>
      </trkpt>
      <trkpt lat="47.77079" lon="-3.59964">
        <ele>10</ele>
        <time>2019-07-14T09:57:37Z</time>
      </trkpt>
      <trkpt lat="47.77081" lon="-3.5997">
        <ele>10</ele>
        <time>2019-07-14T09:57:38Z</time>
      </trkpt>
      <trkpt lat="47.77085" lon="-3.59975">
        <ele>10</ele>
        <time>2019-07-14T09:57:39Z</time>
      </trkpt>
      <trkpt lat="47.77088" lon="-3.5998">
        <ele>10</ele>
        <time>2019-07-14T09:57:40Z</time>
      </trkpt>
      <trkpt lat="47.77092" lon="-3.59984">
        <ele>10</ele>
        <time>2019-07-14T09:57:41Z</time>
      </trkpt>
      <trkpt lat="47.77095" lon="-3.59989">
        <ele>10</ele>
        <time>2019-07-14T09:57:42Z</time>
      </trkpt>
      <trkpt lat="47.77099" lon="-3.59993">
        <ele>10</ele>
        <time>2019-07-14T09:57:43Z</time>
      </trkpt>
      <trkpt lat="47.77102" lon="-3.59998">
        <ele>11</ele>
        <time>2019-07-14T09:57:44Z</time>
      </trkpt>
      <trkpt lat="47.77106" lon="-3.60003">
        <ele>11</ele>
        <time>2019-07-14T09:57:45Z</time>
      </trkpt>
      <trkpt lat="47.77109" lon="-3.60007">
        <ele>11</ele>
        <time>2019-07-14T09:57:46Z</time>
      </trkpt>
      <trkpt lat="47.77113" lon="-3.60012">
        <ele>11</ele>
        <time>2019-07-14T09:57:47Z</time>
      </trkpt>
      <trkpt lat="47.77116" lon="-3.60016">
        <ele>11</ele>
        <time>2019-07-14T09:57:48Z</time>
      </trkpt>
      <trkpt lat="47.77119" lon="-3.60021">
        <ele>12</ele>
        <time>2019-07-14T09:57:49Z</time>
      </trkpt>
      <trkpt lat="47.77122" lon="-3.60025">
        <ele>12</ele>
        <time>2019-07-14T09:57:50Z</time>
      </trkpt>
      <trkpt lat="47.77125" lon="-3.60029">
        <ele>12</ele>
        <time>2019-07-14T09:57:51Z</time>
      </trkpt>
      <trkpt lat="47.77128" lon="-3.60034">
        <ele>13</ele>
        <time>2019-07-14T09:57:52Z</time>
      </trkpt>
      <trkpt lat="47.77131" lon="-3.60038">
        <ele>13</ele>
        <time>2019-07-14T09:57:53Z</time>
      </trkpt>
      <trkpt lat="47.77135" lon="-3.60044">
        <ele>13</ele>
        <time>2019-07-14T09:57:54Z</time>
      </trkpt>
      <trkpt lat="47.77138" lon="-3.60049">
        <ele>13</ele>
        <time>2019-07-14T09:57:55Z</time>
      </trkpt>
      <trkpt lat="47.77141" lon="-3.60054">
        <ele>13</ele>
        <time>2019-07-14T09:57:56Z</time>
      </trkpt>
      <trkpt lat="47.77143" lon="-3.60061">
        <ele>13</ele>
        <time>2019-07-14T09:57:57Z</time>
      </trkpt>
      <trkpt lat="47.77143" lon="-3.60068">
        <ele>13</ele>
        <time>2019-07-14T09:57:58Z</time>
      </trkpt>
      <trkpt lat="47.77143" lon="-3.60076">
        <ele>13</ele>
        <time>2019-07-14T09:57:59Z</time>
      </trkpt>
      <trkpt lat="47.77142" lon="-3.60085">
        <ele>13</ele>
        <time>2019-07-14T09:58:00Z</time>
      </trkpt>
      <trkpt lat="47.7714" lon="-3.60093">
        <ele>13</ele>
        <time>2019-07-14T09:58:01Z</time>
      </trkpt>
      <trkpt lat="47.77139" lon="-3.60102">
        <ele>13</ele>
        <time>2019-07-14T09:58:02Z</time>
      </trkpt>
      <trkpt lat="47.77139" lon="-3.6011">
        <ele>13</ele>
        <time>2019-07-14T09:58:03Z</time>
      </trkpt>
      <trkpt lat="47.77138" lon="-3.60118">
        <ele>13</ele>
        <time>2019-07-14T09:58:04Z</time>
      </trkpt>
      <trkpt lat="47.77138" lon="-3.60126">
        <ele>12</ele>
        <time>2019-07-14T09:58:05Z</time>
      </trkpt>
      <trkpt lat="47.77139" lon="-3.60134">
        <ele>12</ele>
        <time>2019-07-14T09:58:06Z</time>
      </trkpt>
      <trkpt lat="47.77139" lon="-3.60142">
        <ele>12</ele>
        <time>2019-07-14T09:58:07Z</time>
      </trkpt>
      <trkpt lat="47.7714" lon="-3.6015">
        <ele>12</ele>
        <time>2019-07-14T09:58:08Z</time>
      </trkpt>
      <trkpt lat="47.7714" lon="-3.60159">
        <ele>12</ele>
        <time>2019-07-14T09:58:09Z</time>
      </trkpt>
      <trkpt lat="47.77141" lon="-3.60166">
        <ele>12</ele>
        <time>2019-07-14T09:58:10Z</time>
      </trkpt>
      <trkpt lat="47.77141" lon="-3.60175">
        <ele>12</ele>
        <time>2019-07-14T09:58:11Z</time>
      </trkpt>
      <trkpt lat="47.77141" lon="-3.60183">
        <ele>12</ele>
        <time>2019-07-14T09:58:12Z</time>
      </trkpt>
      <trkpt lat="47.77142" lon="-3.60192">
        <ele>12</ele>
        <time>2019-07-14T09:58:13Z</time>
      </trkpt>
      <trkpt lat="47.77143" lon="-3.60202">
        <ele>11</ele>
        <time>2019-07-14T09:58:14Z</time>
      </trkpt>
      <trkpt lat="47.77145" lon="-3.60211">
        <ele>11</ele>
        <time>2019-07-14T09:58:15Z</time>
      </trkpt>
      <trkpt lat="47.77146" lon="-3.60221">
        <ele>11</ele>
        <time>2019-07-14T09:58:16Z</time>
      </trkpt>
      <trkpt lat="47.77147" lon="-3.60229">
        <ele>11</ele>
        <time>2019-07-14T09:58:17Z</time>
      </trkpt>
      <trkpt lat="47.77147" lon="-3.60238">
        <ele>10</ele>
        <time>2019-07-14T09:58:18Z</time>
      </trkpt>
      <trkpt lat="47.77147" lon="-3.60247">
        <ele>10</ele>
        <time>2019-07-14T09:58:19Z</time>
      </trkpt>
      <trkpt lat="47.77147" lon="-3.60255">
        <ele>10</ele>
        <time>2019-07-14T09:58:20Z</time>
      </trkpt>
      <trkpt lat="47.77147" lon="-3.60264">
        <ele>10</ele>
        <time>2019-07-14T09:58:21Z</time>
      </trkpt>
      <trkpt lat="47.77147" lon="-3.60271">
        <ele>10</ele>
        <time>2019-07-14T09:58:22Z</time>
      </trkpt>
      <trkpt lat="47.77147" lon="-3.60279">
        <ele>10</ele>
        <time>2019-07-14T09:58:23Z</time>
      </trkpt>
      <trkpt lat="47.77147" lon="-3.60287">
        <ele>11</ele>
        <time>2019-07-14T09:58:24Z</time>
      </trkpt>
      <trkpt lat="47.77147" lon="-3.60294">
        <ele>11</ele>
        <time>2019-07-14T09:58:25Z</time>
      </trkpt>
      <trkpt lat="47.77147" lon="-3.603">
        <ele>11</ele>
        <time>2019-07-14T09:58:26Z</time>
      </trkpt>
      <trkpt lat="47.77148" lon="-3.60308">
        <ele>11</ele>
        <time>2019-07-14T09:58:27Z</time>
      </trkpt>
      <trkpt lat="47.77148" lon="-3.60316">
        <ele>12</ele>
        <time>2019-07-14T09:58:28Z</time>
      </trkpt>
      <trkpt lat="47.77149" lon="-3.60325">
        <ele>12</ele>
        <time>2019-07-14T09:58:29Z</time>
      </trkpt>
      <trkpt lat="47.77149" lon="-3.60333">
        <ele>12</ele>
        <time>2019-07-14T09:58:30Z</time>
      </trkpt>
      <trkpt lat="47.77149" lon="-3.60341">
        <ele>12</ele>
        <time>2019-07-14T09:58:31Z</time>
      </trkpt>
      <trkpt lat="47.77149" lon="-3.6035">
        <ele>12</ele>
        <time>2019-07-14T09:58:32Z</time>
      </trkpt>
      <trkpt lat="47.77149" lon="-3.60358">
        <ele>12</ele>
        <time>2019-07-14T09:58:33Z</time>
      </trkpt>
      <trkpt lat="47.77149" lon="-3.60366">
        <ele>13</ele>
        <time>2019-07-14T09:58:34Z</time>
      </trkpt>
      <trkpt lat="47.77149" lon="-3.60374">
        <ele>13</ele>
        <time>2019-07-14T09:58:35Z</time>
      </trkpt>
      <trkpt lat="47.7715" lon="-3.60381">
        <ele>13</ele>
        <time>2019-07-14T09:58:36Z</time>
      </trkpt>
      <trkpt lat="47.77151" lon="-3.60388">
        <ele>13</ele>
        <time>2019-07-14T09:58:37Z</time>
      </trkpt>
      <trkpt lat="47.77152" lon="-3.60393">
        <ele>13</ele>
        <time>2019-07-14T09:58:38Z</time>
      </trkpt>
      <trkpt lat="47.77151" lon="-3.60398">
        <ele>13</ele>
        <time>2019-07-14T09:58:39Z</time>
      </trkpt>
      <trkpt lat="47.7715" lon="-3.60402">
        <ele>13</ele>
        <time>2019-07-14T09:58:40Z</time>
      </trkpt>
      <trkpt lat="47.77147" lon="-3.60403">
        <ele>13</ele>
        <time>2019-07-14T09:58:41Z</time>
      </trkpt>
      <trkpt lat="47.77143" lon="-3.60403">
        <ele>13</ele>
        <time>2019-07-14T09:58:42Z</time>
      </trkpt>
      <trkpt lat="47.77138" lon="-3.60403">
        <ele>13</ele>
        <time>2019-07-14T09:58:43Z</time>
      </trkpt>
      <trkpt lat="47.77132" lon="-3.60403">
        <ele>13</ele>
        <time>2019-07-14T09:58:44Z</time>
      </trkpt>
      <trkpt lat="47.77126" lon="-3.60403">
        <ele>13</ele>
        <time>2019-07-14T09:58:45Z</time>
      </trkpt>
      <trkpt lat="47.77119" lon="-3.60402">
        <ele>13</ele>
        <time>2019-07-14T09:58:46Z</time>
      </trkpt>
      <trkpt lat="47.77112" lon="-3.60403">
        <ele>13</ele>
        <time>2019-07-14T09:58:47Z</time>
      </trkpt>
      <trkpt lat="47.77104" lon="-3.60406">
        <ele>13</ele>
        <time>2019-07-14T09:58:48Z</time>
      </trkpt>
      <trkpt lat="47.77096" lon="-3.60409">
        <ele>12</ele>
        <time>2019-07-14T09:58:49Z</time>
      </trkpt>
      <trkpt lat="47.77087" lon="-3.60412">
        <ele>12</ele>
        <time>2019-07-14T09:58:50Z</time>
      </trkpt>
      <trkpt lat="47.77078" lon="-3.60416">
        <ele>11</ele>
        <time>2019-07-14T09:58:51Z</time>
      </trkpt>
      <trkpt lat="47.7707" lon="-3.60419">
        <ele>11</ele>
        <time>2019-07-14T09:58:52Z</time>
      </trkpt>
      <trkpt lat="47.77063" lon="-3.60421">
        <ele>10</ele>
        <time>2019-07-14T09:58:53Z</time>
      </trkpt>
      <trkpt lat="47.77057" lon="-3.60423">
        <ele>9</ele>
        <time>2019-07-14T09:58:54Z</time>
      </trkpt>
      <trkpt lat="47.77053" lon="-3.60426">
        <ele>9</ele>
        <time>2019-07-14T09:58:55Z</time>
      </trkpt>
      <trkpt lat="47.77049" lon="-3.6043">
        <ele>8</ele>
        <time>2019-07-14T09:58:56Z</time>
      </trkpt>
      <trkpt lat="47.77046" lon="-3.60435">
        <ele>8</ele>
        <time>2019-07-14T09:58:57Z</time>
      </trkpt>
      <trkpt lat="47.77043" lon="-3.60441">
        <ele>8</ele>
        <time>2019-07-14T09:58:58Z</time>
      </trkpt>
      <trkpt lat="47.77042" lon="-3.60447">
        <ele>8</ele>
        <time>2019-07-14T09:58:59Z</time>
      </trkpt>
      <trkpt lat="47.77041" lon="-3.60452">
        <ele>8</ele>
        <time>2019-07-14T09:59:00Z</time>
      </trkpt>
      <trkpt lat="47.7704" lon="-3.60457">
        <ele>8</ele>
        <time>2019-07-14T09:59:01Z</time>
      </trkpt>
      <trkpt lat="47.77038" lon="-3.60461">
        <ele>7</ele>
        <time>2019-07-14T09:59:02Z</time>
      </trkpt>
      <trkpt lat="47.77037" lon="-3.60466">
        <ele>7</ele>
        <time>2019-07-14T09:59:03Z</time>
      </trkpt>
      <trkpt lat="47.77035" lon="-3.60471">
        <ele>7</ele>
        <time>2019-07-14T09:59:04Z</time>
      </trkpt>
      <trkpt lat="47.77033" lon="-3.60477">
        <ele>7</ele>
        <time>2019-07-14T09:59:05Z</time>
      </trkpt>
      <trkpt lat="47.77032" lon="-3.60483">
        <ele>7</ele>
        <time>2019-07-14T09:59:06Z</time>
      </trkpt>
      <trkpt lat="47.77031" lon="-3.60489">
        <ele>7</ele>
        <time>2019-07-14T09:59:07Z</time>
      </trkpt>
      <trkpt lat="47.7703" lon="-3.60495">
        <ele>7</ele>
        <time>2019-07-14T09:59:08Z</time>
      </trkpt>
      <trkpt lat="47.7703" lon="-3.60501">
        <ele>7</ele>
        <time>2019-07-14T09:59:09Z</time>
      </trkpt>
      <trkpt lat="47.77029" lon="-3.60507">
        <ele>7</ele>
        <time>2019-07-14T09:59:10Z</time>
      </trkpt>
      <trkpt lat="47.77027" lon="-3.60512">
        <ele>7</ele>
        <time>2019-07-14T09:59:11Z</time>
      </trkpt>
      <trkpt lat="47.77026" lon="-3.60518">
        <ele>7</ele>
        <time>2019-07-14T09:59:12Z</time>
      </trkpt>
      <trkpt lat="47.77024" lon="-3.60525">
        <ele>7</ele>
        <time>2019-07-14T09:59:13Z</time>
      </trkpt>
      <trkpt lat="47.77024" lon="-3.60532">
        <ele>7</ele>
        <time>2019-07-14T09:59:14Z</time>
      </trkpt>
      <trkpt lat="47.77024" lon="-3.60539">
        <ele>7</ele>
        <time>2019-07-14T09:59:15Z</time>
      </trkpt>
      <trkpt lat="47.77024" lon="-3.60547">
        <ele>7</ele>
        <time>2019-07-14T09:59:16Z</time>
      </trkpt>
      <trkpt lat="47.77026" lon="-3.60553">
        <ele>7</ele>
        <time>2019-07-14T09:59:17Z</time>
      </trkpt>
      <trkpt lat="47.77027" lon="-3.6056">
        <ele>7</ele>
        <time>2019-07-14T09:59:18Z</time>
      </trkpt>
      <trkpt lat="47.77029" lon="-3.60566">
        <ele>7</ele>
        <time>2019-07-14T09:59:19Z</time>
      </trkpt>
      <trkpt lat="47.77032" lon="-3.60573">
        <ele>7</ele>
        <time>2019-07-14T09:59:20Z</time>
      </trkpt>
      <trkpt lat="47.77034" lon="-3.60579">
        <ele>7</ele>
        <time>2019-07-14T09:59:21Z</time>
      </trkpt>
      <trkpt lat="47.77035" lon="-3.60587">
        <ele>7</ele>
        <time>2019-07-14T09:59:22Z</time>
      </trkpt>
      <trkpt lat="47.77034" lon="-3.60594">
        <ele>7</ele>
        <time>2019-07-14T09:59:23Z</time>
      </trkpt>
      <trkpt lat="47.77032" lon="-3.606">
        <ele>7</ele>
        <time>2019-07-14T09:59:24Z</time>
      </trkpt>
      <trkpt lat="47.7703" lon="-3.60606">
        <ele>7</ele>
        <time>2019-07-14T09:59:25Z</time>
      </trkpt>
      <trkpt lat="47.77029" lon="-3.60613">
        <ele>7</ele>
        <time>2019-07-14T09:59:26Z</time>
      </trkpt>
      <trkpt lat="47.77028" lon="-3.60619">
        <ele>7</ele>
        <time>2019-07-14T09:59:27Z</time>
      </trkpt>
      <trkpt lat="47.77027" lon="-3.60625">
        <ele>7</ele>
        <time>2019-07-14T09:59:28Z</time>
      </trkpt>
      <trkpt lat="47.77027" lon="-3.60632">
        <ele>7</ele>
        <time>2019-07-14T09:59:29Z</time>
      </trkpt>
      <trkpt lat="47.77028" lon="-3.60639">
        <ele>7</ele>
        <time>2019-07-14T09:59:30Z</time>
      </trkpt>
      <trkpt lat="47.7703" lon="-3.60646">
        <ele>7</ele>
        <time>2019-07-14T09:59:31Z</time>
      </trkpt>
      <trkpt lat="47.77032" lon="-3.60653">
        <ele>7</ele>
        <time>2019-07-14T09:59:32Z</time>
      </trkpt>
      <trkpt lat="47.77034" lon="-3.60661">
        <ele>7</ele>
        <time>2019-07-14T09:59:33Z</time>
      </trkpt>
      <trkpt lat="47.77036" lon="-3.60668">
        <ele>7</ele>
        <time>2019-07-14T09:59:34Z</time>
      </trkpt>
      <trkpt lat="47.77037" lon="-3.60676">
        <ele>7</ele>
        <time>2019-07-14T09:59:35Z</time>
      </trkpt>
      <trkpt lat="47.77037" lon="-3.60684">
        <ele>7</ele>
        <time>2019-07-14T09:59:36Z</time>
      </trkpt>
      <trkpt lat="47.77037" lon="-3.60692">
        <ele>7</ele>
        <time>2019-07-14T09:59:37Z</time>
      </trkpt>
      <trkpt lat="47.77036" lon="-3.60701">
        <ele>7</ele>
        <time>2019-07-14T09:59:38Z</time>
      </trkpt>
      <trkpt lat="47.77034" lon="-3.6071">
        <ele>7</ele>
        <time>2019-07-14T09:59:39Z</time>
      </trkpt>
      <trkpt lat="47.77034" lon="-3.60718">
        <ele>6</ele>
        <time>2019-07-14T09:59:40Z</time>
      </trkpt>
      <trkpt lat="47.77035" lon="-3.60726">
        <ele>6</ele>
        <time>2019-07-14T09:59:41Z</time>
      </trkpt>
      <trkpt lat="47.77036" lon="-3.60731">
        <ele>6</ele>
        <time>2019-07-14T09:59:42Z</time>
      </trkpt>
      <trkpt lat="47.77037" lon="-3.60735">
        <ele>6</ele>
        <time>2019-07-14T09:59:43Z</time>
      </trkpt>
      <trkpt lat="47.77039" lon="-3.60737">
        <ele>6</ele>
        <time>2019-07-14T09:59:44Z</time>
      </trkpt>
      <trkpt lat="47.7704" lon="-3.60736">
        <ele>6</ele>
        <time>2019-07-14T09:59:45Z</time>
      </trkpt>
      <trkpt lat="47.7704" lon="-3.60735">
        <ele>6</ele>
        <time>2019-07-14T09:59:46Z</time>
      </trkpt>
      <trkpt lat="47.77042" lon="-3.60733">
        <ele>5</ele>
        <time>2019-07-14T09:59:47Z</time>
      </trkpt>
      <trkpt lat="47.77043" lon="-3.60731">
        <ele>6</ele>
        <time>2019-07-14T09:59:48Z</time>
      </trkpt>
      <trkpt lat="47.77046" lon="-3.60731">
        <ele>6</ele>
        <time>2019-07-14T09:59:49Z</time>
      </trkpt>
      <trkpt lat="47.77048" lon="-3.6073">
        <ele>6</ele>
        <time>2019-07-14T09:59:50Z</time>
      </trkpt>
      <trkpt lat="47.7705" lon="-3.60729">
        <ele>6</ele>
        <time>2019-07-14T09:59:51Z</time>
      </trkpt>
      <trkpt lat="47.77053" lon="-3.60729">
        <ele>6</ele>
        <time>2019-07-14T09:59:52Z</time>
      </trkpt>
      <trkpt lat="47.77055" lon="-3.6073">
        <ele>6</ele>
        <time>2019-07-14T09:59:53Z</time>
      </trkpt>
      <trkpt lat="47.77058" lon="-3.60732">
        <ele>6</ele>
        <time>2019-07-14T09:59:54Z</time>
      </trkpt>
      <trkpt lat="47.77061" lon="-3.60733">
        <ele>6</ele>
        <time>2019-07-14T09:59:55Z</time>
      </trkpt>
      <trkpt lat="47.77064" lon="-3.60734">
        <ele>6</ele>
        <time>2019-07-14T09:59:56Z</time>
      </trkpt>
      <trkpt lat="47.77066" lon="-3.60736">
        <ele>6</ele>
        <time>2019-07-14T09:59:57Z</time>
      </trkpt>
      <trkpt lat="47.77069" lon="-3.60737">
        <ele>6</ele>
        <time>2019-07-14T09:59:58Z</time>
      </trkpt>
      <trkpt lat="47.77071" lon="-3.60738">
        <ele>7</ele>
        <time>2019-07-14T09:59:59Z</time>
      </trkpt>
      <trkpt lat="47.77073" lon="-3.6074">
        <ele>7</ele>
        <time>2019-07-14T10:00:00Z</time>
      </trkpt>
      <trkpt lat="47.77076" lon="-3.60742">
        <ele>7</ele>
        <time>2019-07-14T10:00:01Z</time>
      </trkpt>
      <trkpt lat="47.77079" lon="-3.60744">
        <ele>7</ele>
        <time>2019-07-14T10:00:02Z</time>
      </trkpt>
      <trkpt lat="47.77083" lon="-3.60748">
        <ele>7</ele>
        <time>2019-07-14T10:00:03Z</time>
      </trkpt>
      <trkpt lat="47.77088" lon="-3.60752">
        <ele>7</ele>
        <time>2019-07-14T10:00:04Z</time>
      </trkpt>
      <trkpt lat="47.77094" lon="-3.60757">
        <ele>7</ele>
        <time>2019-07-14T10:00:05Z</time>
      </trkpt>
      <trkpt lat="47.771" lon="-3.60763">
        <ele>6</ele>
        <time>2019-07-14T10:00:06Z</time>
      </trkpt>
      <trkpt lat="47.77106" lon="-3.6077">
        <ele>6</ele>
        <time>2019-07-14T10:00:07Z</time>
      </trkpt>
      <trkpt lat="47.77111" lon="-3.60776">
        <ele>6</ele>
        <time>2019-07-14T10:00:08Z</time>
      </trkpt>
      <trkpt lat="47.77115" lon="-3.60783">
        <ele>7</ele>
        <time>2019-07-14T10:00:09Z</time>
      </trkpt>
      <trkpt lat="47.77119" lon="-3.60789">
        <ele>7</ele>
        <time>2019-07-14T10:00:10Z</time>
      </trkpt>
      <trkpt lat="47.77122" lon="-3.60795">
        <ele>7</ele>
        <time>2019-07-14T10:00:11Z</time>
      </trkpt>
      <trkpt lat="47.77126" lon="-3.608">
        <ele>7</ele>
        <time>2019-07-14T10:00:12Z</time>
      </trkpt>
      <trkpt lat="47.77129" lon="-3.60805">
        <ele>7</ele>
        <time>2019-07-14T10:00:13Z</time>
      </trkpt>
      <trkpt lat="47.77133" lon="-3.60808">
        <ele>7</ele>
        <time>2019-07-14T10:00:14Z</time>
      </trkpt>
      <trkpt lat="47.77137" lon="-3.6081">
        <ele>7</ele>
        <time>2019-07-14T10:00:15Z</time>
      </trkpt>
      <trkpt lat="47.77142" lon="-3.6081">
        <ele>7</ele>
        <time>2019-07-14T10:00:16Z</time>
      </trkpt>
      <trkpt lat="47.77146" lon="-3.60811">
        <ele>7</ele>
        <time>2019-07-14T10:00:17Z</time>
      </trkpt>
      <trkpt lat="47.77151" lon="-3.60811">
        <ele>7</ele>
        <time>2019-07-14T10:00:18Z</time>
      </trkpt>
      <trkpt lat="47.77155" lon="-3.60812">
        <ele>7</ele>
        <time>2019-07-14T10:00:19Z</time>
      </trkpt>
      <trkpt lat="47.77159" lon="-3.60813">
        <ele>7</ele>
        <time>2019-07-14T10:00:20Z</time>
      </trkpt>
      <trkpt lat="47.77164" lon="-3.60816">
        <ele>7</ele>
        <time>2019-07-14T10:00:21Z</time>
      </trkpt>
      <trkpt lat="47.77168" lon="-3.60818">
        <ele>7</ele>
        <time>2019-07-14T10:00:22Z</time>
      </trkpt>
      <trkpt lat="47.77172" lon="-3.6082">
        <ele>7</ele>
        <time>2019-07-14T10:00:23Z</time>
      </trkpt>
      <trkpt lat="47.77177" lon="-3.60822">
        <ele>7</ele>
        <time>2019-07-14T10:00:24Z</time>
      </trkpt>
      <trkpt lat="47.77181" lon="-3.60824">
        <ele>7</ele>
        <time>2019-07-14T10:00:25Z</time>
      </trkpt>
      <trkpt lat="47.77185" lon="-3.60826">
        <ele>7</ele>
        <time>2019-07-14T10:00:26Z</time>
      </trkpt>
      <trkpt lat="47.77188" lon="-3.60827">
        <ele>7</ele>
        <time>2019-07-14T10:00:27Z</time>
      </trkpt>
      <trkpt lat="47.77192" lon="-3.60828">
        <ele>7</ele>
        <time>2019-07-14T10:00:28Z</time>
      </trkpt>
      <trkpt lat="47.77194" lon="-3.6083">
        <ele>7</ele>
        <time>2019-07-14T10:00:29Z</time>
      </trkpt>
      <trkpt lat="47.77195" lon="-3.60831">
        <ele>7</ele>
        <time>2019-07-14T10:00:30Z</time>
      </trkpt>
      <trkpt lat="47.77197" lon="-3.60832">
        <ele>7</ele>
        <time>2019-07-14T10:00:31Z</time>
      </trkpt>
      <trkpt lat="47.77198" lon="-3.60834">
        <ele>7</ele>
        <time>2019-07-14T10:00:32Z</time>
      </trkpt>
      <trkpt lat="47.77201" lon="-3.60835">
        <ele>7</ele>
        <time>2019-07-14T10:00:33Z</time>
      </trkpt>
      <trkpt lat="47.77204" lon="-3.60836">
        <ele>7</ele>
        <time>2019-07-14T10:00:34Z</time>
      </trkpt>
      <trkpt lat="47.77208" lon="-3.60837">
        <ele>7</ele>
        <time>2019-07-14T10:00:35Z</time>
      </trkpt>
      <trkpt lat="47.77213" lon="-3.60837">
        <ele>7</ele>
        <time>2019-07-14T10:00:36Z</time>
      </trkpt>
      <trkpt lat="47.77218" lon="-3.60836">
        <ele>7</ele>
        <time>2019-07-14T10:00:37Z</time>
      </trkpt>
      <trkpt lat="47.77224" lon="-3.60834">
        <ele>7</ele>
        <time>2019-07-14T10:00:38Z</time>
      </trkpt>
      <trkpt lat="47.77229" lon="-3.60833">
        <ele>7</ele>
        <time>2019-07-14T10:00:39Z</time>
      </trkpt>
      <trkpt lat="47.77234" lon="-3.60832">
        <ele>8</ele>
        <time>2019-07-14T10:00:40Z</time>
      </trkpt>
      <trkpt lat="47.77239" lon="-3.6083">
        <ele>7</ele>
        <time>2019-07-14T10:00:41Z</time>
      </trkpt>
      <trkpt lat="47.77244" lon="-3.60829">
        <ele>7</ele>
        <time>2019-07-14T10:00:42Z</time>
      </trkpt>
      <trkpt lat="47.7725" lon="-3.60827">
        <ele>7</ele>
        <time>2019-07-14T10:00:43Z</time>
      </trkpt>
      <trkpt lat="47.77256" lon="-3.60825">
        <ele>7</ele>
        <time>2019-07-14T10:00:44Z</time>
      </trkpt>
      <trkpt lat="47.77261" lon="-3.60825">
        <ele>8</ele>
        <time>2019-07-14T10:00:45Z</time>
      </trkpt>
      <trkpt lat="47.77268" lon="-3.60824">
        <ele>8</ele>
        <time>2019-07-14T10:00:46Z</time>
      </trkpt>
      <trkpt lat="47.77274" lon="-3.60822">
        <ele>7</ele>
        <time>2019-07-14T10:00:47Z</time>
      </trkpt>
      <trkpt lat="47.77281" lon="-3.6082">
        <ele>7</ele>
        <time>2019-07-14T10:00:48Z</time>
      </trkpt>
      <trkpt lat="47.77288" lon="-3.60819">
        <ele>7</ele>
        <time>2019-07-14T10:00:49Z</time>
      </trkpt>
      <trkpt lat="47.77295" lon="-3.60816">
        <ele>7</ele>
        <time>2019-07-14T10:00:50Z</time>
      </trkpt>
      <trkpt lat="47.77301" lon="-3.60813">
        <ele>7</ele>
        <time>2019-07-14T10:00:51Z</time>
      </trkpt>
      <trkpt lat="47.77307" lon="-3.6081">
        <ele>7</ele>
        <time>2019-07-14T10:00:52Z</time>
      </trkpt>
      <trkpt lat="47.77313" lon="-3.60806">
        <ele>7</ele>
        <time>2019-07-14T10:00:53Z</time>
      </trkpt>
      <trkpt lat="47.77319" lon="-3.60803">
        <ele>7</ele>
        <time>2019-07-14T10:00:54Z</time>
      </trkpt>
      <trkpt lat="47.77325" lon="-3.60798">
        <ele>7</ele>
        <time>2019-07-14T10:00:55Z</time>
      </trkpt>
      <trkpt lat="47.77331" lon="-3.60793">
        <ele>6</ele>
        <time>2019-07-14T10:00:56Z</time>
      </trkpt>
      <trkpt lat="47.77338" lon="-3.60787">
        <ele>6</ele>
        <time>2019-07-14T10:00:57Z</time>
      </trkpt>
      <trkpt lat="47.77343" lon="-3.60781">
        <ele>6</ele>
        <time>2019-07-14T10:00:58Z</time>
      </trkpt>
      <trkpt lat="47.77349" lon="-3.60775">
        <ele>6</ele>
        <time>2019-07-14T10:00:59Z</time>
      </trkpt>
      <trkpt lat="47.77353" lon="-3.60769">
        <ele>5</ele>
        <time>2019-07-14T10:01:00Z</time>
      </trkpt>
      <trkpt lat="47.77357" lon="-3.60764">
        <ele>5</ele>
        <time>2019-07-14T10:01:01Z</time>
      </trkpt>
      <trkpt lat="47.7736" lon="-3.60758">
        <ele>5</ele>
        <time>2019-07-14T10:01:02Z</time>
      </trkpt>
      <trkpt lat="47.77363" lon="-3.60753">
        <ele>5</ele>
        <time>2019-07-14T10:01:03Z</time>
      </trkpt>
      <trkpt lat="47.77365" lon="-3.60747">
        <ele>5</ele>
        <time>2019-07-14T10:01:04Z</time>
      </trkpt>
      <trkpt lat="47.77368" lon="-3.6074">
        <ele>5</ele>
        <time>2019-07-14T10:01:05Z</time>
      </trkpt>
      <trkpt lat="47.77369" lon="-3.60734">
        <ele>4</ele>
        <time>2019-07-14T10:01:06Z</time>
      </trkpt>
      <trkpt lat="47.7737" lon="-3.60731">
        <ele>4</ele>
        <time>2019-07-14T10:01:07Z</time>
      </trkpt>
      <trkpt lat="47.7737" lon="-3.60729">
        <ele>4</ele>
        <time>2019-07-14T10:01:08Z</time>
      </trkpt>
      <trkpt lat="47.77371" lon="-3.60727">
        <ele>3</ele>
        <time>2019-07-14T10:01:09Z</time>
      </trkpt>
      <trkpt lat="47.77371" lon="-3.60725">
        <ele>3</ele>
        <time>2019-07-14T10:01:10Z</time>
      </trkpt>
      <trkpt lat="47.77372" lon="-3.60722">
        <ele>3</ele>
        <time>2019-07-14T10:01:11Z</time>
      </trkpt>
      <trkpt lat="47.77372" lon="-3.60719">
        <ele>2</ele>
        <time>2019-07-14T10:01:12Z</time>
      </trkpt>
      <trkpt lat="47.77374" lon="-3.60716">
        <ele>2</ele>
        <time>2019-07-14T10:01:13Z</time>
      </trkpt>
      <trkpt lat="47.77374" lon="-3.60713">
        <ele>2</ele>
        <time>2019-07-14T10:01:14Z</time>
      </trkpt>
      <trkpt lat="47.77375" lon="-3.6071">
        <ele>2</ele>
        <time>2019-07-14T10:01:15Z</time>
      </trkpt>
      <trkpt lat="47.77375" lon="-3.60706">
        <ele>1</ele>
        <time>2019-07-14T10:01:16Z</time>
      </trkpt>
      <trkpt lat="47.77376" lon="-3.60703">
        <ele>1</ele>
        <time>2019-07-14T10:01:17Z</time>
      </trkpt>
      <trkpt lat="47.77377" lon="-3.60699">
        <ele>1</ele>
        <time>2019-07-14T10:01:18Z</time>
      </trkpt>
      <trkpt lat="47.77378" lon="-3.60694">
        <ele>1</ele>
        <time>2019-07-14T10:01:19Z</time>
      </trkpt>
      <trkpt lat="47.77379" lon="-3.60689">
        <ele>1</ele>
        <time>2019-07-14T10:01:20Z</time>
      </trkpt>
      <trkpt lat="47.77381" lon="-3.60683">
        <ele>1</ele>
        <time>2019-07-14T10:01:21Z</time>
      </trkpt>
      <trkpt lat="47.77382" lon="-3.60677">
        <ele>1</ele>
        <time>2019-07-14T10:01:22Z</time>
      </trkpt>
      <trkpt lat="47.77383" lon="-3.6067">
        <ele>1</ele>
        <time>2019-07-14T10:01:23Z</time>
      </trkpt>
      <trkpt lat="47.77385" lon="-3.60663">
        <ele>1</ele>
        <time>2019-07-14T10:01:24Z</time>
      </trkpt>
      <trkpt lat="47.77386" lon="-3.60656">
        <ele>1</ele>
        <time>2019-07-14T10:01:25Z</time>
      </trkpt>
      <trkpt lat="47.77388" lon="-3.60649">
        <ele>1</ele>
        <time>2019-07-14T10:01:26Z</time>
      </trkpt>
      <trkpt lat="47.77389" lon="-3.60642">
        <ele>1</ele>
        <time>2019-07-14T10:01:27Z</time>
      </trkpt>
      <trkpt lat="47.77391" lon="-3.60635">
        <ele>1</ele>
        <time>2019-07-14T10:01:28Z</time>
      </trkpt>
      <trkpt lat="47.77393" lon="-3.60628">
        <ele>1</ele>
        <time>2019-07-14T10:01:29Z</time>
      </trkpt>
      <trkpt lat="47.77395" lon="-3.6062">
        <ele>1</ele>
        <time>2019-07-14T10:01:30Z</time>
      </trkpt>
      <trkpt lat="47.77397" lon="-3.60613">
        <ele>1</ele>
        <time>2019-07-14T10:01:31Z</time>
      </trkpt>
      <trkpt lat="47.77399" lon="-3.60606">
        <ele>1</ele>
        <time>2019-07-14T10:01:32Z</time>
      </trkpt>
      <trkpt lat="47.77402" lon="-3.60599">
        <ele>1</ele>
        <time>2019-07-14T10:01:33Z</time>
      </trkpt>
      <trkpt lat="47.77405" lon="-3.60592">
        <ele>1</ele>
        <time>2019-07-14T10:01:34Z</time>
      </trkpt>
      <trkpt lat="47.77408" lon="-3.60585">
        <ele>1</ele>
        <time>2019-07-14T10:01:35Z</time>
      </trkpt>
      <trkpt lat="47.77411" lon="-3.60578">
        <ele>1</ele>
        <time>2019-07-14T10:01:36Z</time>
      </trkpt>
      <trkpt lat="47.77414" lon="-3.60571">
        <ele>1</ele>
        <time>2019-07-14T10:01:37Z</time>
      </trkpt>
      <trkpt lat="47.77416" lon="-3.60563">
        <ele>1</ele>
        <time>2019-07-14T10:01:38Z</time>
      </trkpt>
      <trkpt lat="47.77419" lon="-3.60556">
        <ele>1</ele>
        <time>2019-07-14T10:01:39Z</time>
      </trkpt>
      <trkpt lat="47.77421" lon="-3.60549">
        <ele>1</ele>
        <time>2019-07-14T10:01:40Z</time>
      </trkpt>
      <trkpt lat="47.77424" lon="-3.60541">
        <ele>1</ele>
        <time>2019-07-14T10:01:41Z</time>
      </trkpt>
      <trkpt lat="47.77426" lon="-3.60533">
        <ele>1</ele>
        <time>2019-07-14T10:01:42Z</time>
      </trkpt>
      <trkpt lat="47.77428" lon="-3.60524">
        <ele>1</ele>
        <time>2019-07-14T10:01:43Z</time>
      </trkpt>
      <trkpt lat="47.7743" lon="-3.60517">
        <ele>1</ele>
        <time>2019-07-14T10:01:44Z</time>
      </trkpt>
      <trkpt lat="47.77433" lon="-3.6051">
        <ele>1</ele>
        <time>2019-07-14T10:01:45Z</time>
      </trkpt>
      <trkpt lat="47.77436" lon="-3.60503">
        <ele>1</ele>
        <time>2019-07-14T10:01:46Z</time>
      </trkpt>
      <trkpt lat="47.7744" lon="-3.60497">
        <ele>1</ele>
        <time>2019-07-14T10:01:47Z</time>
      </trkpt>
      <trkpt lat="47.77445" lon="-3.60492">
        <ele>1</ele>
        <time>2019-07-14T10:01:48Z</time>
      </trkpt>
      <trkpt lat="47.7745" lon="-3.60488">
        <ele>1</ele>
        <time>2019-07-14T10:01:49Z</time>
      </trkpt>
      <trkpt lat="47.77454" lon="-3.60485">
        <ele>1</ele>
        <time>2019-07-14T10:01:50Z</time>
      </trkpt>
      <trkpt lat="47.7746" lon="-3.60483">
        <ele>1</ele>
        <time>2019-07-14T10:01:51Z</time>
      </trkpt>
      <trkpt lat="47.77465" lon="-3.60481">
        <ele>1</ele>
        <time>2019-07-14T10:01:52Z</time>
      </trkpt>
      <trkpt lat="47.77471" lon="-3.60479">
        <ele>1</ele>
        <time>2019-07-14T10:01:53Z</time>
      </trkpt>
      <trkpt lat="47.77477" lon="-3.60476">
        <ele>1</ele>
        <time>2019-07-14T10:01:54Z</time>
      </trkpt>
      <trkpt lat="47.77483" lon="-3.60473">
        <ele>4.8</ele>
        <time>2019-07-14T10:01:55Z</time>
      </trkpt>
      <trkpt lat="47.77489" lon="-3.6047">
        <ele>4.7</ele>
        <time>2019-07-14T10:01:56Z</time>
      </trkpt>
      <trkpt lat="47.77495" lon="-3.60466">
        <ele>1</ele>
        <time>2019-07-14T10:01:57Z</time>
      </trkpt>
      <trkpt lat="47.775" lon="-3.60463">
        <ele>1</ele>
        <time>2019-07-14T10:01:58Z</time>
      </trkpt>
      <trkpt lat="47.77506" lon="-3.60459">
        <ele>1</ele>
        <time>2019-07-14T10:01:59Z</time>
      </trkpt>
      <trkpt lat="47.77511" lon="-3.60455">
        <ele>1</ele>
        <time>2019-07-14T10:02:00Z</time>
      </trkpt>
      <trkpt lat="47.77516" lon="-3.60451">
        <ele>1</ele>
        <time>2019-07-14T10:02:01Z</time>
      </trkpt>
      <trkpt lat="47.77521" lon="-3.60447">
        <ele>1</ele>
        <time>2019-07-14T10:02:02Z</time>
      </trkpt>
      <trkpt lat="47.77525" lon="-3.60442">
        <ele>2</ele>
        <time>2019-07-14T10:02:03Z</time>
      </trkpt>
      <trkpt lat="47.77529" lon="-3.60437">
        <ele>2</ele>
        <time>2019-07-14T10:02:04Z</time>
      </trkpt>
      <trkpt lat="47.77532" lon="-3.60431">
        <ele>2</ele>
        <time>2019-07-14T10:02:05Z</time>
      </trkpt>
      <trkpt lat="47.77535" lon="-3.60425">
        <ele>2</ele>
        <time>2019-07-14T10:02:06Z</time>
      </trkpt>
      <trkpt lat="47.77537" lon="-3.60419">
        <ele>3</ele>
        <time>2019-07-14T10:02:07Z</time>
      </trkpt>
      <trkpt lat="47.7754" lon="-3.60412">
        <ele>3</ele>
        <time>2019-07-14T10:02:08Z</time>
      </trkpt>
      <trkpt lat="47.77543" lon="-3.60406">
        <ele>3</ele>
        <time>2019-07-14T10:02:09Z</time>
      </trkpt>
      <trkpt lat="47.77546" lon="-3.604">
        <ele>3</ele>
        <time>2019-07-14T10:02:10Z</time>
      </trkpt>
      <trkpt lat="47.7755" lon="-3.60395">
        <ele>3</ele>
        <time>2019-07-14T10:02:11Z</time>
      </trkpt>
      <trkpt lat="47.77554" lon="-3.6039">
        <ele>4</ele>
        <time>2019-07-14T10:02:12Z</time>
      </trkpt>
      <trkpt lat="47.77558" lon="-3.60386">
        <ele>4</ele>
        <time>2019-07-14T10:02:13Z</time>
      </trkpt>
      <trkpt lat="47.77562" lon="-3.60383">
        <ele>4</ele>
        <time>2019-07-14T10:02:14Z</time>
      </trkpt>
      <trkpt lat="47.77566" lon="-3.6038">
        <ele>4</ele>
        <time>2019-07-14T10:02:15Z</time>
      </trkpt>
      <trkpt lat="47.77571" lon="-3.60377">
        <ele>4</ele>
        <time>2019-07-14T10:02:16Z</time>
      </trkpt>
      <trkpt lat="47.77576" lon="-3.60376">
        <ele>4</ele>
        <time>2019-07-14T10:02:17Z</time>
      </trkpt>
      <trkpt lat="47.77582" lon="-3.60375">
        <ele>4</ele>
        <time>2019-07-14T10:02:18Z</time>
      </trkpt>
      <trkpt lat="47.77587" lon="-3.60374">
        <ele>5</ele>
        <time>2019-07-14T10:02:19Z</time>
      </trkpt>
      <trkpt lat="47.77592" lon="-3.60373">
        <ele>5</ele>
        <time>2019-07-14T10:02:20Z</time>
      </trkpt>
      <trkpt lat="47.77598" lon="-3.60373">
        <ele>5</ele>
        <time>2019-07-14T10:02:21Z</time>
      </trkpt>
      <trkpt lat="47.77603" lon="-3.60372">
        <ele>5</ele>
        <time>2019-07-14T10:02:22Z</time>
      </trkpt>
      <trkpt lat="47.77608" lon="-3.60372">
        <ele>6</ele>
        <time>2019-07-14T10:02:23Z</time>
      </trkpt>
      <trkpt lat="47.77614" lon="-3.60371">
        <ele>6</ele>
        <time>2019-07-14T10:02:24Z</time>
      </trkpt>
      <trkpt lat="47.77619" lon="-3.60372">
        <ele>6</ele>
        <time>2019-07-14T10:02:25Z</time>
      </trkpt>
      <trkpt lat="47.77624" lon="-3.60372">
        <ele>7</ele>
        <time>2019-07-14T10:02:26Z</time>
      </trkpt>
      <trkpt lat="47.77629" lon="-3.60372">
        <ele>7</ele>
        <time>2019-07-14T10:02:27Z</time>
      </trkpt>
      <trkpt lat="47.77633" lon="-3.60373">
        <ele>7</ele>
        <time>2019-07-14T10:02:28Z</time>
      </trkpt>
      <trkpt lat="47.77638" lon="-3.60374">
        <ele>7</ele>
        <time>2019-07-14T10:02:29Z</time>
      </trkpt>
      <trkpt lat="47.77642" lon="-3.60376">
        <ele>7</ele>
        <time>2019-07-14T10:02:30Z</time>
      </trkpt>
      <trkpt lat="47.77647" lon="-3.60379">
        <ele>7</ele>
        <time>2019-07-14T10:02:31Z</time>
      </trkpt>
      <trkpt lat="47.77652" lon="-3.60382">
        <ele>7</ele>
        <time>2019-07-14T10:02:32Z</time>
      </trkpt>
      <trkpt lat="47.77657" lon="-3.60386">
        <ele>7</ele>
        <time>2019-07-14T10:02:33Z</time>
      </trkpt>
      <trkpt lat="47.77662" lon="-3.60389">
        <ele>7</ele>
        <time>2019-07-14T10:02:34Z</time>
      </trkpt>
      <trkpt lat="47.77666" lon="-3.60391">
        <ele>7</ele>
        <time>2019-07-14T10:02:35Z</time>
      </trkpt>
      <trkpt lat="47.77669" lon="-3.60392">
        <ele>7</ele>
        <time>2019-07-14T10:02:36Z</time>
      </trkpt>
      <trkpt lat="47.7767" lon="-3.60392">
        <ele>7</ele>
        <time>2019-07-14T10:02:37Z</time>
      </trkpt>
      <trkpt lat="47.7767" lon="-3.60392">
        <ele>7</ele>
        <time>2019-07-14T10:02:38Z</time>
      </trkpt>
      <trkpt lat="47.7767" lon="-3.60392">
        <ele>7</ele>
        <time>2019-07-14T10:02:39Z</time>
      </trkpt>
      <trkpt lat="47.7767" lon="-3.60392">
        <ele>7</ele>
        <time>2019-07-14T10:02:40Z</time>
      </trkpt>
      <trkpt lat="47.77673" lon="-3.60395">
        <ele>7</ele>
        <time>2019-07-14T10:02:41Z</time>
      </trkpt>
      <trkpt lat="47.77675" lon="-3.60397">
        <ele>7</ele>
        <time>2019-07-14T10:02:42Z</time>
      </trkpt>
      <trkpt lat="47.77678" lon="-3.60399">
        <ele>7</ele>
        <time>2019-07-14T10:02:43Z</time>
      </trkpt>
      <trkpt lat="47.77681" lon="-3.60402">
        <ele>7</ele>
        <time>2019-07-14T10:02:44Z</time>
      </trkpt>
      <trkpt lat="47.77685" lon="-3.60405">
        <ele>7</ele>
        <time>2019-07-14T10:02:45Z</time>
      </trkpt>
      <trkpt lat="47.7769" lon="-3.60408">
        <ele>6</ele>
        <time>2019-07-14T10:02:46Z</time>
      </trkpt>
      <trkpt lat="47.77694" lon="-3.60411">
        <ele>6</ele>
        <time>2019-07-14T10:02:47Z</time>
      </trkpt>
      <trkpt lat="47.77699" lon="-3.60415">
        <ele>6</ele>
        <time>2019-07-14T10:02:48Z</time>
      </trkpt>
      <trkpt lat="47.77703" lon="-3.60418">
        <ele>6</ele>
        <time>2019-07-14T10:02:49Z</time>
      </trkpt>
      <trkpt lat="47.77708" lon="-3.60422">
        <ele>6</ele>
        <time>2019-07-14T10:02:50Z</time>
      </trkpt>
      <trkpt lat="47.77713" lon="-3.60425">
        <ele>6</ele>
        <time>2019-07-14T10:02:51Z</time>
      </trkpt>
      <trkpt lat="47.77717" lon="-3.60428">
        <ele>5</ele>
        <time>2019-07-14T10:02:52Z</time>
      </trkpt>
      <trkpt lat="47.77722" lon="-3.60432">
        <ele>5</ele>
        <time>2019-07-14T10:02:53Z</time>
      </trkpt>
      <trkpt lat="47.77727" lon="-3.60435">
        <ele>5</ele>
        <time>2019-07-14T10:02:54Z</time>
      </trkpt>
      <trkpt lat="47.77733" lon="-3.60439">
        <ele>5</ele>
        <time>2019-07-14T10:02:55Z</time>
      </trkpt>
      <trkpt lat="47.77737" lon="-3.60442">
        <ele>5</ele>
        <time>2019-07-14T10:02:56Z</time>
      </trkpt>
      <trkpt lat="47.77743" lon="-3.60446">
        <ele>5</ele>
        <time>2019-07-14T10:02:57Z</time>
      </trkpt>
      <trkpt lat="47.77747" lon="-3.60449">
        <ele>5</ele>
        <time>2019-07-14T10:02:58Z</time>
      </trkpt>
      <trkpt lat="47.77752" lon="-3.60452">
        <ele>5</ele>
        <time>2019-07-14T10:02:59Z</time>
      </trkpt>
      <trkpt lat="47.77757" lon="-3.60455">
        <ele>5</ele>
        <time>2019-07-14T10:03:00Z</time>
      </trkpt>
      <trkpt lat="47.77762" lon="-3.60458">
        <ele>5</ele>
        <time>2019-07-14T10:03:01Z</time>
      </trkpt>
      <trkpt lat="47.77766" lon="-3.60461">
        <ele>5</ele>
        <time>2019-07-14T10:03:02Z</time>
      </trkpt>
      <trkpt lat="47.77771" lon="-3.60465">
        <ele>5</ele>
        <time>2019-07-14T10:03:03Z</time>
      </trkpt>
      <trkpt lat="47.77775" lon="-3.60468">
        <ele>5</ele>
        <time>2019-07-14T10:03:04Z</time>
      </trkpt>
      <trkpt lat="47.7778" lon="-3.60471">
        <ele>5</ele>
        <time>2019-07-14T10:03:05Z</time>
      </trkpt>
      <trkpt lat="47.77784" lon="-3.60474">
        <ele>5</ele>
        <time>2019-07-14T10:03:06Z</time>
      </trkpt>
      <trkpt lat="47.77789" lon="-3.60477">
        <ele>5</ele>
        <time>2019-07-14T10:03:07Z</time>
      </trkpt>
      <trkpt lat="47.77792" lon="-3.6048">
        <ele>5</ele>
        <time>2019-07-14T10:03:08Z</time>
      </trkpt>
      <trkpt lat="47.77796" lon="-3.60484">
        <ele>5</ele>
        <time>2019-07-14T10:03:09Z</time>
      </trkpt>
      <trkpt lat="47.778" lon="-3.60487">
        <ele>5</ele>
        <time>2019-07-14T10:03:10Z</time>
      </trkpt>
      <trkpt lat="47.77804" lon="-3.60491">
        <ele>5</ele>
        <time>2019-07-14T10:03:11Z</time>
      </trkpt>
      <trkpt lat="47.77808" lon="-3.60495">
        <ele>5</ele>
        <time>2019-07-14T10:03:12Z</time>
      </trkpt>
      <trkpt lat="47.77812" lon="-3.60499">
        <ele>5</ele>
        <time>2019-07-14T10:03:13Z</time>
      </trkpt>
      <trkpt lat="47.77816" lon="-3.60503">
        <ele>6</ele>
        <time>2019-07-14T10:03:14Z</time>
      </trkpt>
      <trkpt lat="47.7782" lon="-3.60505">
        <ele>6</ele>
        <time>2019-07-14T10:03:15Z</time>
      </trkpt>
      <trkpt lat="47.77823" lon="-3.60508">
        <ele>6</ele>
        <time>2019-07-14T10:03:16Z</time>
      </trkpt>
      <trkpt lat="47.77826" lon="-3.6051">
        <ele>6</ele>
        <time>2019-07-14T10:03:17Z</time>
      </trkpt>
      <trkpt lat="47.77829" lon="-3.60511">
        <ele>6</ele>
        <time>2019-07-14T10:03:18Z</time>
      </trkpt>
      <trkpt lat="47.77831" lon="-3.60511">
        <ele>6</ele>
        <time>2019-07-14T10:03:19Z</time>
      </trkpt>
      <trkpt lat="47.77834" lon="-3.60512">
        <ele>6</ele>
        <time>2019-07-14T10:03:20Z</time>
      </trkpt>
      <trkpt lat="47.77836" lon="-3.60512">
        <ele>6</ele>
        <time>2019-07-14T10:03:21Z</time>
      </trkpt>
      <trkpt lat="47.77837" lon="-3.60512">
        <ele>6</ele>
        <time>2019-07-14T10:03:22Z</time>
      </trkpt>
      <trkpt lat="47.77838" lon="-3.60513">
        <ele>6</ele>
        <time>2019-07-14T10:03:23Z</time>
      </trkpt>
      <trkpt lat="47.77839" lon="-3.60513">
        <ele>6</ele>
        <time>2019-07-14T10:03:24Z</time>
      </trkpt>
      <trkpt lat="47.7784" lon="-3.60514">
        <ele>6</ele>
        <time>2019-07-14T10:03:25Z</time>
      </trkpt>
      <trkpt lat="47.77841" lon="-3.60514">
        <ele>6</ele>
        <time>2019-07-14T10:03:26Z</time>
      </trkpt>
      <trkpt lat="47.77843" lon="-3.60516">
        <ele>6</ele>
        <time>2019-07-14T10:03:27Z</time>
      </trkpt>
      <trkpt lat="47.77846" lon="-3.60517">
        <ele>6</ele>
        <time>2019-07-14T10:03:28Z</time>
      </trkpt>
      <trkpt lat="47.77849" lon="-3.60518">
        <ele>6</ele>
        <time>2019-07-14T10:03:29Z</time>
      </trkpt>
      <trkpt lat="47.77853" lon="-3.6052">
        <ele>6</ele>
        <time>2019-07-14T10:03:30Z</time>
      </trkpt>
      <trkpt lat="47.77857" lon="-3.60521">
        <ele>6</ele>
        <time>2019-07-14T10:03:31Z</time>
      </trkpt>
      <trkpt lat="47.77861" lon="-3.60523">
        <ele>6</ele>
        <time>2019-07-14T10:03:32Z</time>
      </trkpt>
      <trkpt lat="47.77865" lon="-3.60524">
        <ele>6</ele>
        <time>2019-07-14T10:03:33Z</time>
      </trkpt>
      <trkpt lat="47.77868" lon="-3.60527">
        <ele>6</ele>
        <time>2019-07-14T10:03:34Z</time>
      </trkpt>
      <trkpt lat="47.77871" lon="-3.60531">
        <ele>6</ele>
        <time>2019-07-14T10:03:35Z</time>
      </trkpt>
      <trkpt lat="47.77874" lon="-3.60536">
        <ele>6</ele>
        <time>2019-07-14T10:03:36Z</time>
      </trkpt>
      <trkpt lat="47.77876" lon="-3.60542">
        <ele>7</ele>
        <time>2019-07-14T10:03:37Z</time>
      </trkpt>
      <trkpt lat="47.77878" lon="-3.60547">
        <ele>7</ele>
        <time>2019-07-14T10:03:38Z</time>
      </trkpt>
      <trkpt lat="47.7788" lon="-3.60551">
        <ele>7</ele>
        <time>2019-07-14T10:03:39Z</time>
      </trkpt>
      <trkpt lat="47.77882" lon="-3.60554">
        <ele>7</ele>
        <time>2019-07-14T10:03:40Z</time>
      </trkpt>
      <trkpt lat="47.77884" lon="-3.60559">
        <ele>7</ele>
        <time>2019-07-14T10:03:41Z</time>
      </trkpt>
      <trkpt lat="47.77887" lon="-3.60563">
        <ele>8</ele>
        <time>2019-07-14T10:03:42Z</time>
      </trkpt>
      <trkpt lat="47.77889" lon="-3.60568">
        <ele>8</ele>
        <time>2019-07-14T10:03:43Z</time>
      </trkpt>
      <trkpt lat="47.77891" lon="-3.60573">
        <ele>8</ele>
        <time>2019-07-14T10:03:44Z</time>
      </trkpt>
      <trkpt lat="47.77894" lon="-3.60577">
        <ele>8</ele>
        <time>2019-07-14T10:03:45Z</time>
      </trkpt>
      <trkpt lat="47.77895" lon="-3.60582">
        <ele>8</ele>
        <time>2019-07-14T10:03:46Z</time>
      </trkpt>
      <trkpt lat="47.77896" lon="-3.60586">
        <ele>8</ele>
        <time>2019-07-14T10:03:47Z</time>
      </trkpt>
      <trkpt lat="47.77897" lon="-3.60588">
        <ele>8</ele>
        <time>2019-07-14T10:03:48Z</time>
      </trkpt>
      <trkpt lat="47.77897" lon="-3.6059">
        <ele>8</ele>
        <time>2019-07-14T10:03:49Z</time>
      </trkpt>
      <trkpt lat="47.77898" lon="-3.60592">
        <ele>9</ele>
        <time>2019-07-14T10:03:50Z</time>
      </trkpt>
      <trkpt lat="47.77898" lon="-3.60595">
        <ele>9</ele>
        <time>2019-07-14T10:03:51Z</time>
      </trkpt>
      <trkpt lat="47.77899" lon="-3.60597">
        <ele>9</ele>
        <time>2019-07-14T10:03:52Z</time>
      </trkpt>
      <trkpt lat="47.77899" lon="-3.606">
        <ele>9</ele>
        <time>2019-07-14T10:03:53Z</time>
      </trkpt>
      <trkpt lat="47.77899" lon="-3.60604">
        <ele>9</ele>
        <time>2019-07-14T10:03:54Z</time>
      </trkpt>
      <trkpt lat="47.77899" lon="-3.60609">
        <ele>9</ele>
        <time>2019-07-14T10:03:55Z</time>
      </trkpt>
      <trkpt lat="47.77899" lon="-3.60612">
        <ele>9</ele>
        <time>2019-07-14T10:03:56Z</time>
      </trkpt>
      <trkpt lat="47.77898" lon="-3.60615">
        <ele>9</ele>
        <time>2019-07-14T10:03:57Z</time>
      </trkpt>
      <trkpt lat="47.77898" lon="-3.60619">
        <ele>9</ele>
        <time>2019-07-14T10:03:58Z</time>
      </trkpt>
      <trkpt lat="47.77897" lon="-3.60623">
        <ele>9</ele>
        <time>2019-07-14T10:03:59Z</time>
      </trkpt>
      <trkpt lat="47.77896" lon="-3.60627">
        <ele>9</ele>
        <time>2019-07-14T10:04:00Z</time>
      </trkpt>
      <trkpt lat="47.77895" lon="-3.60632">
        <ele>9</ele>
        <time>2019-07-14T10:04:01Z</time>
      </trkpt>
      <trkpt lat="47.77895" lon="-3.60637">
        <ele>9</ele>
        <time>2019-07-14T10:04:02Z</time>
      </trkpt>
      <trkpt lat="47.77895" lon="-3.60642">
        <ele>9</ele>
        <time>2019-07-14T10:04:03Z</time>
      </trkpt>
      <trkpt lat="47.77895" lon="-3.60648">
        <ele>9</ele>
        <time>2019-07-14T10:04:04Z</time>
      </trkpt>
      <trkpt lat="47.77895" lon="-3.60653">
        <ele>9</ele>
        <time>2019-07-14T10:04:05Z</time>
      </trkpt>
      <trkpt lat="47.77895" lon="-3.60658">
        <ele>9</ele>
        <time>2019-07-14T10:04:06Z</time>
      </trkpt>
      <trkpt lat="47.77895" lon="-3.60662">
        <ele>9</ele>
        <time>2019-07-14T10:04:07Z</time>
      </trkpt>
      <trkpt lat="47.77895" lon="-3.60667">
        <ele>9</ele>
        <time>2019-07-14T10:04:08Z</time>
      </trkpt>
      <trkpt lat="47.77895" lon="-3.60672">
        <ele>9</ele>
        <time>2019-07-14T10:04:09Z</time>
      </trkpt>
      <trkpt lat="47.77896" lon="-3.60677">
        <ele>9</ele>
        <time>2019-07-14T10:04:10Z</time>
      </trkpt>
      <trkpt lat="47.77896" lon="-3.60682">
        <ele>9</ele>
        <time>2019-07-14T10:04:11Z</time>
      </trkpt>
      <trkpt lat="47.77896" lon="-3.60688">
        <ele>9</ele>
        <time>2019-07-14T10:04:12Z</time>
      </trkpt>
      <trkpt lat="47.77896" lon="-3.60693">
        <ele>10</ele>
        <time>2019-07-14T10:04:13Z</time>
      </trkpt>
      <trkpt lat="47.77896" lon="-3.60699">
        <ele>10</ele>
        <time>2019-07-14T10:04:14Z</time>
      </trkpt>
      <trkpt lat="47.77895" lon="-3.60704">
        <ele>10</ele>
        <time>2019-07-14T10:04:15Z</time>
      </trkpt>
      <trkpt lat="47.77894" lon="-3.60708">
        <ele>10</ele>
        <time>2019-07-14T10:04:16Z</time>
      </trkpt>
      <trkpt lat="47.77894" lon="-3.60713">
        <ele>10</ele>
        <time>2019-07-14T10:04:17Z</time>
      </trkpt>
      <trkpt lat="47.77892" lon="-3.60718">
        <ele>10</ele>
        <time>2019-07-14T10:04:18Z</time>
      </trkpt>
      <trkpt lat="47.77892" lon="-3.60723">
        <ele>10</ele>
        <time>2019-07-14T10:04:19Z</time>
      </trkpt>
      <trkpt lat="47.77891" lon="-3.60729">
        <ele>11</ele>
        <time>2019-07-14T10:04:20Z</time>
      </trkpt>
      <trkpt lat="47.77891" lon="-3.60734">
        <ele>11</ele>
        <time>2019-07-14T10:04:21Z</time>
      </trkpt>
      <trkpt lat="47.7789" lon="-3.6074">
        <ele>11</ele>
        <time>2019-07-14T10:04:22Z</time>
      </trkpt>
      <trkpt lat="47.77888" lon="-3.60746">
        <ele>11</ele>
        <time>2019-07-14T10:04:23Z</time>
      </trkpt>
      <trkpt lat="47.77887" lon="-3.60752">
        <ele>11</ele>
        <time>2019-07-14T10:04:24Z</time>
      </trkpt>
      <trkpt lat="47.77887" lon="-3.60758">
        <ele>11</ele>
        <time>2019-07-14T10:04:25Z</time>
      </trkpt>
      <trkpt lat="47.77887" lon="-3.60765">
        <ele>11</ele>
        <time>2019-07-14T10:04:26Z</time>
      </trkpt>
      <trkpt lat="47.77888" lon="-3.60771">
        <ele>12</ele>
        <time>2019-07-14T10:04:27Z</time>
      </trkpt>
      <trkpt lat="47.77888" lon="-3.60777">
        <ele>12</ele>
        <time>2019-07-14T10:04:28Z</time>
      </trkpt>
      <trkpt lat="47.77888" lon="-3.60783">
        <ele>12</ele>
        <time>2019-07-14T10:04:29Z</time>
      </trkpt>
      <trkpt lat="47.77886" lon="-3.60789">
        <ele>12</ele>
        <time>2019-07-14T10:04:30Z</time>
      </trkpt>
      <trkpt lat="47.77884" lon="-3.60795">
        <ele>12</ele>
        <time>2019-07-14T10:04:31Z</time>
      </trkpt>
      <trkpt lat="47.77882" lon="-3.60801">
        <ele>13</ele>
        <time>2019-07-14T10:04:32Z</time>
      </trkpt>
      <trkpt lat="47.77879" lon="-3.60806">
        <ele>13</ele>
        <time>2019-07-14T10:04:33Z</time>
      </trkpt>
      <trkpt lat="47.77877" lon="-3.60812">
        <ele>13</ele>
        <time>2019-07-14T10:04:34Z</time>
      </trkpt>
      <trkpt lat="47.77875" lon="-3.60817">
        <ele>14</ele>
        <time>2019-07-14T10:04:35Z</time>
      </trkpt>
      <trkpt lat="47.77873" lon="-3.60823">
        <ele>14</ele>
        <time>2019-07-14T10:04:36Z</time>
      </trkpt>
      <trkpt lat="47.77872" lon="-3.6083">
        <ele>14</ele>
        <time>2019-07-14T10:04:37Z</time>
      </trkpt>
      <trkpt lat="47.77871" lon="-3.60836">
        <ele>15</ele>
        <time>2019-07-14T10:04:38Z</time>
      </trkpt>
      <trkpt lat="47.7787" lon="-3.60843">
        <ele>15</ele>
        <time>2019-07-14T10:04:39Z</time>
      </trkpt>
      <trkpt lat="47.7787" lon="-3.60849">
        <ele>15</ele>
        <time>2019-07-14T10:04:40Z</time>
      </trkpt>
      <trkpt lat="47.77871" lon="-3.60855">
        <ele>16</ele>
        <time>2019-07-14T10:04:41Z</time>
      </trkpt>
      <trkpt lat="47.77871" lon="-3.60859">
        <ele>16</ele>
        <time>2019-07-14T10:04:42Z</time>
      </trkpt>
      <trkpt lat="47.77872" lon="-3.60863">
        <ele>16</ele>
        <time>2019-07-14T10:04:43Z</time>
      </trkpt>
      <trkpt lat="47.77872" lon="-3.60866">
        <ele>17</ele>
        <time>2019-07-14T10:04:44Z</time>
      </trkpt>
      <trkpt lat="47.77873" lon="-3.6087">
        <ele>17</ele>
        <time>2019-07-14T10:04:45Z</time>
      </trkpt>
      <trkpt lat="47.77874" lon="-3.60874">
        <ele>17</ele>
        <time>2019-07-14T10:04:46Z</time>
      </trkpt>
      <trkpt lat="47.77874" lon="-3.60878">
        <ele>17</ele>
        <time>2019-07-14T10:04:47Z</time>
      </trkpt>
      <trkpt lat="47.77873" lon="-3.60881">
        <ele>18</ele>
        <time>2019-07-14T10:04:48Z</time>
      </trkpt>
      <trkpt lat="47.77872" lon="-3.60884">
        <ele>18</ele>
        <time>2019-07-14T10:04:49Z</time>
      </trkpt>
      <trkpt lat="47.77871" lon="-3.60888">
        <ele>18</ele>
        <time>2019-07-14T10:04:50Z</time>
      </trkpt>
      <trkpt lat="47.7787" lon="-3.60893">
        <ele>18</ele>
        <time>2019-07-14T10:04:51Z</time>
      </trkpt>
      <trkpt lat="47.77869" lon="-3.60899">
        <ele>18</ele>
        <time>2019-07-14T10:04:52Z</time>
      </trkpt>
      <trkpt lat="47.77868" lon="-3.60907">
        <ele>18</ele>
        <time>2019-07-14T10:04:53Z</time>
      </trkpt>
      <trkpt lat="47.77866" lon="-3.60913">
        <ele>19</ele>
        <time>2019-07-14T10:04:54Z</time>
      </trkpt>
      <trkpt lat="47.77864" lon="-3.6092">
        <ele>19</ele>
        <time>2019-07-14T10:04:55Z</time>
      </trkpt>
      <trkpt lat="47.77863" lon="-3.60924">
        <ele>19</ele>
        <time>2019-07-14T10:04:56Z</time>
      </trkpt>
      <trkpt lat="47.77861" lon="-3.60929">
        <ele>20</ele>
        <time>2019-07-14T10:04:57Z</time>
      </trkpt>
      <trkpt lat="47.77859" lon="-3.60934">
        <ele>20</ele>
        <time>2019-07-14T10:04:58Z</time>
      </trkpt>
      <trkpt lat="47.77857" lon="-3.60937">
        <ele>20</ele>
        <time>2019-07-14T10:04:59Z</time>
      </trkpt>
      <trkpt lat="47.77855" lon="-3.60941">
        <ele>20</ele>
        <time>2019-07-14T10:05:00Z</time>
      </trkpt>
      <trkpt lat="47.77852" lon="-3.60944">
        <ele>21</ele>
        <time>2019-07-14T10:05:01Z</time>
      </trkpt>
      <trkpt lat="47.77848" lon="-3.60947">
        <ele>21</ele>
        <time>2019-07-14T10:05:02Z</time>
      </trkpt>
      <trkpt lat="47.77846" lon="-3.60949">
        <ele>21</ele>
        <time>2019-07-14T10:05:03Z</time>
      </trkpt>
      <trkpt lat="47.77843" lon="-3.60951">
        <ele>22</ele>
        <time>2019-07-14T10:05:04Z</time>
      </trkpt>
      <trkpt lat="47.7784" lon="-3.60953">
        <ele>22</ele>
        <time>2019-07-14T10:05:05Z</time>
      </trkpt>
      <trkpt lat="47.77836" lon="-3.60954">
        <ele>22</ele>
        <time>2019-07-14T10:05:06Z</time>
      </trkpt>
      <trkpt lat="47.77833" lon="-3.60956">
        <ele>22</ele>
        <time>2019-07-14T10:05:07Z</time>
      </trkpt>
      <trkpt lat="47.7783" lon="-3.60957">
        <ele>23</ele>
        <time>2019-07-14T10:05:08Z</time>
      </trkpt>
      <trkpt lat="47.77826" lon="-3.60957">
        <ele>23</ele>
        <time>2019-07-14T10:05:09Z</time>
      </trkpt>
      <trkpt lat="47.77823" lon="-3.60957">
        <ele>23</ele>
        <time>2019-07-14T10:05:10Z</time>
      </trkpt>
      <trkpt lat="47.77819" lon="-3.60957">
        <ele>23</ele>
        <time>2019-07-14T10:05:11Z</time>
      </trkpt>
      <trkpt lat="47.77816" lon="-3.60956">
        <ele>24</ele>
        <time>2019-07-14T10:05:12Z</time>
      </trkpt>
      <trkpt lat="47.77811" lon="-3.60955">
        <ele>24</ele>
        <time>2019-07-14T10:05:13Z</time>
      </trkpt>
      <trkpt lat="47.77806" lon="-3.60954">
        <ele>24</ele>
        <time>2019-07-14T10:05:14Z</time>
      </trkpt>
      <trkpt lat="47.77802" lon="-3.60953">
        <ele>24</ele>
        <time>2019-07-14T10:05:15Z</time>
      </trkpt>
      <trkpt lat="47.77797" lon="-3.60951">
        <ele>24</ele>
        <time>2019-07-14T10:05:16Z</time>
      </trkpt>
      <trkpt lat="47.77792" lon="-3.6095">
        <ele>25</ele>
        <time>2019-07-14T10:05:17Z</time>
      </trkpt>
      <trkpt lat="47.77787" lon="-3.60948">
        <ele>25</ele>
        <time>2019-07-14T10:05:18Z</time>
      </trkpt>
      <trkpt lat="47.77783" lon="-3.60947">
        <ele>25</ele>
        <time>2019-07-14T10:05:19Z</time>
      </trkpt>
      <trkpt lat="47.77778" lon="-3.60946">
        <ele>25</ele>
        <time>2019-07-14T10:05:20Z</time>
      </trkpt>
      <trkpt lat="47.77774" lon="-3.60944">
        <ele>25</ele>
        <time>2019-07-14T10:05:21Z</time>
      </trkpt>
      <trkpt lat="47.77771" lon="-3.60943">
        <ele>25</ele>
        <time>2019-07-14T10:05:22Z</time>
      </trkpt>
      <trkpt lat="47.77769" lon="-3.60944">
        <ele>26</ele>
        <time>2019-07-14T10:05:23Z</time>
      </trkpt>
      <trkpt lat="47.77767" lon="-3.60945">
        <ele>26</ele>
        <time>2019-07-14T10:05:24Z</time>
      </trkpt>
      <trkpt lat="47.77766" lon="-3.60949">
        <ele>26</ele>
        <time>2019-07-14T10:05:25Z</time>
      </trkpt>
      <trkpt lat="47.77765" lon="-3.60954">
        <ele>26</ele>
        <time>2019-07-14T10:05:26Z</time>
      </trkpt>
      <trkpt lat="47.77763" lon="-3.6096">
        <ele>26</ele>
        <time>2019-07-14T10:05:27Z</time>
      </trkpt>
      <trkpt lat="47.77761" lon="-3.60966">
        <ele>26</ele>
        <time>2019-07-14T10:05:28Z</time>
      </trkpt>
      <trkpt lat="47.77759" lon="-3.60972">
        <ele>26</ele>
        <time>2019-07-14T10:05:29Z</time>
      </trkpt>
      <trkpt lat="47.77757" lon="-3.60979">
        <ele>26</ele>
        <time>2019-07-14T10:05:30Z</time>
      </trkpt>
      <trkpt lat="47.77755" lon="-3.60984">
        <ele>26</ele>
        <time>2019-07-14T10:05:31Z</time>
      </trkpt>
      <trkpt lat="47.77753" lon="-3.60991">
        <ele>26</ele>
        <time>2019-07-14T10:05:32Z</time>
      </trkpt>
      <trkpt lat="47.77751" lon="-3.60997">
        <ele>26</ele>
        <time>2019-07-14T10:05:33Z</time>
      </trkpt>
      <trkpt lat="47.7775" lon="-3.61003">
        <ele>26</ele>
        <time>2019-07-14T10:05:34Z</time>
      </trkpt>
      <trkpt lat="47.77748" lon="-3.6101">
        <ele>26</ele>
        <time>2019-07-14T10:05:35Z</time>
      </trkpt>
      <trkpt lat="47.77746" lon="-3.61016">
        <ele>26</ele>
        <time>2019-07-14T10:05:36Z</time>
      </trkpt>
      <trkpt lat="47.77744" lon="-3.61023">
        <ele>26</ele>
        <time>2019-07-14T10:05:37Z</time>
      </trkpt>
      <trkpt lat="47.77742" lon="-3.61029">
        <ele>26</ele>
        <time>2019-07-14T10:05:38Z</time>
      </trkpt>
      <trkpt lat="47.7774" lon="-3.61034">
        <ele>26</ele>
        <time>2019-07-14T10:05:39Z</time>
      </trkpt>
      <trkpt lat="47.77738" lon="-3.61041">
        <ele>26</ele>
        <time>2019-07-14T10:05:40Z</time>
      </trkpt>
      <trkpt lat="47.77736" lon="-3.61048">
        <ele>26</ele>
        <time>2019-07-14T10:05:41Z</time>
      </trkpt>
      <trkpt lat="47.77734" lon="-3.61055">
        <ele>26</ele>
        <time>2019-07-14T10:05:42Z</time>
      </trkpt>
      <trkpt lat="47.77732" lon="-3.61061">
        <ele>27</ele>
        <time>2019-07-14T10:05:43Z</time>
      </trkpt>
      <trkpt lat="47.7773" lon="-3.61068">
        <ele>27</ele>
        <time>2019-07-14T10:05:44Z</time>
      </trkpt>
      <trkpt lat="47.77727" lon="-3.61073">
        <ele>27</ele>
        <time>2019-07-14T10:05:45Z</time>
      </trkpt>
      <trkpt lat="47.77724" lon="-3.61079">
        <ele>27</ele>
        <time>2019-07-14T10:05:46Z</time>
      </trkpt>
      <trkpt lat="47.77722" lon="-3.61086">
        <ele>27</ele>
        <time>2019-07-14T10:05:47Z</time>
      </trkpt>
      <trkpt lat="47.77718" lon="-3.61092">
        <ele>27</ele>
        <time>2019-07-14T10:05:48Z</time>
      </trkpt>
      <trkpt lat="47.77715" lon="-3.61099">
        <ele>27</ele>
        <time>2019-07-14T10:05:49Z</time>
      </trkpt>
      <trkpt lat="47.77713" lon="-3.61105">
        <ele>27</ele>
        <time>2019-07-14T10:05:50Z</time>
      </trkpt>
      <trkpt lat="47.77711" lon="-3.61111">
        <ele>27</ele>
        <time>2019-07-14T10:05:51Z</time>
      </trkpt>
      <trkpt lat="47.77709" lon="-3.61118">
        <ele>27</ele>
        <time>2019-07-14T10:05:52Z</time>
      </trkpt>
      <trkpt lat="47.77706" lon="-3.61124">
        <ele>27</ele>
        <time>2019-07-14T10:05:53Z</time>
      </trkpt>
      <trkpt lat="47.77703" lon="-3.61131">
        <ele>27</ele>
        <time>2019-07-14T10:05:54Z</time>
      </trkpt>
      <trkpt lat="47.77701" lon="-3.6114">
        <ele>27</ele>
        <time>2019-07-14T10:05:55Z</time>
      </trkpt>
      <trkpt lat="47.77699" lon="-3.61148">
        <ele>27</ele>
        <time>2019-07-14T10:05:56Z</time>
      </trkpt>
      <trkpt lat="47.77697" lon="-3.61158">
        <ele>27</ele>
        <time>2019-07-14T10:05:57Z</time>
      </trkpt>
      <trkpt lat="47.77696" lon="-3.61167">
        <ele>28</ele>
        <time>2019-07-14T10:05:58Z</time>
      </trkpt>
      <trkpt lat="47.77694" lon="-3.61176">
        <ele>28</ele>
        <time>2019-07-14T10:05:59Z</time>
      </trkpt>
      <trkpt lat="47.77693" lon="-3.61186">
        <ele>28</ele>
        <time>2019-07-14T10:06:00Z</time>
      </trkpt>
      <trkpt lat="47.77693" lon="-3.61194">
        <ele>28</ele>
        <time>2019-07-14T10:06:01Z</time>
      </trkpt>
      <trkpt lat="47.77693" lon="-3.61203">
        <ele>28</ele>
        <time>2019-07-14T10:06:02Z</time>
      </trkpt>
      <trkpt lat="47.77693" lon="-3.61212">
        <ele>28</ele>
        <time>2019-07-14T10:06:03Z</time>
      </trkpt>
      <trkpt lat="47.77694" lon="-3.61222">
        <ele>28</ele>
        <time>2019-07-14T10:06:04Z</time>
      </trkpt>
      <trkpt lat="47.77694" lon="-3.61231">
        <ele>28</ele>
        <time>2019-07-14T10:06:05Z</time>
      </trkpt>
      <trkpt lat="47.77694" lon="-3.61238">
        <ele>28</ele>
        <time>2019-07-14T10:06:06Z</time>
      </trkpt>
      <trkpt lat="47.77694" lon="-3.61243">
        <ele>28</ele>
        <time>2019-07-14T10:06:07Z</time>
      </trkpt>
      <trkpt lat="47.77693" lon="-3.61246">
        <ele>28</ele>
        <time>2019-07-14T10:06:08Z</time>
      </trkpt>
      <trkpt lat="47.77692" lon="-3.61248">
        <ele>28</ele>
        <time>2019-07-14T10:06:09Z</time>
      </trkpt>
      <trkpt lat="47.7769" lon="-3.61249">
        <ele>28</ele>
        <time>2019-07-14T10:06:10Z</time>
      </trkpt>
      <trkpt lat="47.77687" lon="-3.61249">
        <ele>29</ele>
        <time>2019-07-14T10:06:11Z</time>
      </trkpt>
      <trkpt lat="47.77684" lon="-3.61249">
        <ele>29</ele>
        <time>2019-07-14T10:06:12Z</time>
      </trkpt>
      <trkpt lat="47.7768" lon="-3.61249">
        <ele>29</ele>
        <time>2019-07-14T10:06:13Z</time>
      </trkpt>
      <trkpt lat="47.77677" lon="-3.61248">
        <ele>29</ele>
        <time>2019-07-14T10:06:14Z</time>
      </trkpt>
      <trkpt lat="47.77672" lon="-3.61249">
        <ele>29</ele>
        <time>2019-07-14T10:06:15Z</time>
      </trkpt>
      <trkpt lat="47.77668" lon="-3.61248">
        <ele>29</ele>
        <time>2019-07-14T10:06:16Z</time>
      </trkpt>
      <trkpt lat="47.77663" lon="-3.61247">
        <ele>29</ele>
        <time>2019-07-14T10:06:17Z</time>
      </trkpt>
      <trkpt lat="47.77658" lon="-3.61246">
        <ele>29</ele>
        <time>2019-07-14T10:06:18Z</time>
      </trkpt>
      <trkpt lat="47.77654" lon="-3.61245">
        <ele>28</ele>
        <time>2019-07-14T10:06:19Z</time>
      </trkpt>
      <trkpt lat="47.77649" lon="-3.61243">
        <ele>28</ele>
        <time>2019-07-14T10:06:20Z</time>
      </trkpt>
      <trkpt lat="47.77644" lon="-3.61242">
        <ele>28</ele>
        <time>2019-07-14T10:06:21Z</time>
      </trkpt>
      <trkpt lat="47.77639" lon="-3.61241">
        <ele>28</ele>
        <time>2019-07-14T10:06:22Z</time>
      </trkpt>
      <trkpt lat="47.77634" lon="-3.6124">
        <ele>28</ele>
        <time>2019-07-14T10:06:23Z</time>
      </trkpt>
      <trkpt lat="47.77629" lon="-3.61239">
        <ele>27</ele>
        <time>2019-07-14T10:06:24Z</time>
      </trkpt>
      <trkpt lat="47.77624" lon="-3.61237">
        <ele>27</ele>
        <time>2019-07-14T10:06:25Z</time>
      </trkpt>
      <trkpt lat="47.77618" lon="-3.61236">
        <ele>27</ele>
        <time>2019-07-14T10:06:26Z</time>
      </trkpt>
      <trkpt lat="47.77613" lon="-3.61237">
        <ele>27</ele>
        <time>2019-07-14T10:06:27Z</time>
      </trkpt>
      <trkpt lat="47.77609" lon="-3.61239">
        <ele>26</ele>
        <time>2019-07-14T10:06:28Z</time>
      </trkpt>
      <trkpt lat="47.77605" lon="-3.61243">
        <ele>25</ele>
        <time>2019-07-14T10:06:29Z</time>
      </trkpt>
      <trkpt lat="47.77601" lon="-3.61249">
        <ele>25</ele>
        <time>2019-07-14T10:06:30Z</time>
      </trkpt>
      <trkpt lat="47.776" lon="-3.61256">
        <ele>24</ele>
        <time>2019-07-14T10:06:31Z</time>
      </trkpt>
      <trkpt lat="47.77598" lon="-3.61262">
        <ele>24</ele>
        <time>2019-07-14T10:06:32Z</time>
      </trkpt>
      <trkpt lat="47.77598" lon="-3.61268">
        <ele>23</ele>
        <time>2019-07-14T10:06:33Z</time>
      </trkpt>
      <trkpt lat="47.77597" lon="-3.61273">
        <ele>23</ele>
        <time>2019-07-14T10:06:34Z</time>
      </trkpt>
      <trkpt lat="47.77597" lon="-3.61278">
        <ele>22</ele>
        <time>2019-07-14T10:06:35Z</time>
      </trkpt>
      <trkpt lat="47.77598" lon="-3.61281">
        <ele>22</ele>
        <time>2019-07-14T10:06:36Z</time>
      </trkpt>
      <trkpt lat="47.77599" lon="-3.61283">
        <ele>21</ele>
        <time>2019-07-14T10:06:37Z</time>
      </trkpt>
      <trkpt lat="47.77601" lon="-3.61284">
        <ele>21</ele>
        <time>2019-07-14T10:06:38Z</time>
      </trkpt>
      <trkpt lat="47.77601" lon="-3.61285">
        <ele>21</ele>
        <time>2019-07-14T10:06:39Z</time>
      </trkpt>
      <trkpt lat="47.77602" lon="-3.61285">
        <ele>21</ele>
        <time>2019-07-14T10:06:40Z</time>
      </trkpt>
      <trkpt lat="47.77602" lon="-3.61285">
        <ele>21</ele>
        <time>2019-07-14T10:06:41Z</time>
      </trkpt>
      <trkpt lat="47.77597" lon="-3.61292">
        <ele>21</ele>
        <time>2019-07-14T10:06:42Z</time>
      </trkpt>
      <trkpt lat="47.77594" lon="-3.61294">
        <ele>20</ele>
        <time>2019-07-14T10:06:43Z</time>
      </trkpt>
      <trkpt lat="47.7759" lon="-3.61295">
        <ele>20</ele>
        <time>2019-07-14T10:06:44Z</time>
      </trkpt>
      <trkpt lat="47.77586" lon="-3.61297">
        <ele>20</ele>
        <time>2019-07-14T10:06:45Z</time>
      </trkpt>
      <trkpt lat="47.77582" lon="-3.613">
        <ele>20</ele>
        <time>2019-07-14T10:06:46Z</time>
      </trkpt>
      <trkpt lat="47.77577" lon="-3.61301">
        <ele>20</ele>
        <time>2019-07-14T10:06:47Z</time>
      </trkpt>
      <trkpt lat="47.77572" lon="-3.61301">
        <ele>19</ele>
        <time>2019-07-14T10:06:48Z</time>
      </trkpt>
      <trkpt lat="47.77567" lon="-3.61299">
        <ele>19</ele>
        <time>2019-07-14T10:06:49Z</time>
      </trkpt>
      <trkpt lat="47.77563" lon="-3.61297">
        <ele>19</ele>
        <time>2019-07-14T10:06:50Z</time>
      </trkpt>
      <trkpt lat="47.77559" lon="-3.61295">
        <ele>19</ele>
        <time>2019-07-14T10:06:51Z</time>
      </trkpt>
      <trkpt lat="47.77556" lon="-3.61291">
        <ele>19</ele>
        <time>2019-07-14T10:06:52Z</time>
      </trkpt>
      <trkpt lat="47.77553" lon="-3.61287">
        <ele>19</ele>
        <time>2019-07-14T10:06:53Z</time>
      </trkpt>
      <trkpt lat="47.7755" lon="-3.61283">
        <ele>19</ele>
        <time>2019-07-14T10:06:54Z</time>
      </trkpt>
      <trkpt lat="47.77548" lon="-3.6128">
        <ele>19</ele>
        <time>2019-07-14T10:06:55Z</time>
      </trkpt>
      <trkpt lat="47.77544" lon="-3.61277">
        <ele>19</ele>
        <time>2019-07-14T10:06:56Z</time>
      </trkpt>
      <trkpt lat="47.77541" lon="-3.61274">
        <ele>19</ele>
        <time>2019-07-14T10:06:57Z</time>
      </trkpt>
      <trkpt lat="47.77538" lon="-3.61271">
        <ele>19</ele>
        <time>2019-07-14T10:06:58Z</time>
      </trkpt>
      <trkpt lat="47.77535" lon="-3.61269">
        <ele>19</ele>
        <time>2019-07-14T10:06:59Z</time>
      </trkpt>
      <trkpt lat="47.77532" lon="-3.61266">
        <ele>19</ele>
        <time>2019-07-14T10:07:00Z</time>
      </trkpt>
      <trkpt lat="47.77529" lon="-3.61264">
        <ele>19</ele>
        <time>2019-07-14T10:07:01Z</time>
      </trkpt>
      <trkpt lat="47.77526" lon="-3.61262">
        <ele>19</ele>
        <time>2019-07-14T10:07:02Z</time>
      </trkpt>
      <trkpt lat="47.77523" lon="-3.6126">
        <ele>19</ele>
        <time>2019-07-14T10:07:03Z</time>
      </trkpt>
      <trkpt lat="47.7752" lon="-3.61259">
        <ele>19</ele>
        <time>2019-07-14T10:07:04Z</time>
      </trkpt>
      <trkpt lat="47.77518" lon="-3.61256">
        <ele>19</ele>
        <time>2019-07-14T10:07:05Z</time>
      </trkpt>
      <trkpt lat="47.77515" lon="-3.61254">
        <ele>20</ele>
        <time>2019-07-14T10:07:06Z</time>
      </trkpt>
      <trkpt lat="47.77512" lon="-3.61256">
        <ele>20</ele>
        <time>2019-07-14T10:07:07Z</time>
      </trkpt>
      <trkpt lat="47.7751" lon="-3.61258">
        <ele>20</ele>
        <time>2019-07-14T10:07:08Z</time>
      </trkpt>
      <trkpt lat="47.7751" lon="-3.61261">
        <ele>20</ele>
        <time>2019-07-14T10:07:09Z</time>
      </trkpt>
      <trkpt lat="47.7751" lon="-3.61264">
        <ele>20</ele>
        <time>2019-07-14T10:07:10Z</time>
      </trkpt>
      <trkpt lat="47.77512" lon="-3.61268">
        <ele>20</ele>
        <time>2019-07-14T10:07:11Z</time>
      </trkpt>
      <trkpt lat="47.77514" lon="-3.61271">
        <ele>20</ele>
        <time>2019-07-14T10:07:12Z</time>
      </trkpt>
      <trkpt lat="47.77516" lon="-3.61275">
        <ele>20</ele>
        <time>2019-07-14T10:07:13Z</time>
      </trkpt>
      <trkpt lat="47.77518" lon="-3.6128">
        <ele>20</ele>
        <time>2019-07-14T10:07:14Z</time>
      </trkpt>
      <trkpt lat="47.7752" lon="-3.61286">
        <ele>20</ele>
        <time>2019-07-14T10:07:15Z</time>
      </trkpt>
      <trkpt lat="47.77521" lon="-3.61292">
        <ele>19</ele>
        <time>2019-07-14T10:07:16Z</time>
      </trkpt>
      <trkpt lat="47.77523" lon="-3.61297">
        <ele>19</ele>
        <time>2019-07-14T10:07:17Z</time>
      </trkpt>
      <trkpt lat="47.77524" lon="-3.61303">
        <ele>19</ele>
        <time>2019-07-14T10:07:18Z</time>
      </trkpt>
      <trkpt lat="47.77526" lon="-3.61309">
        <ele>19</ele>
        <time>2019-07-14T10:07:19Z</time>
      </trkpt>
      <trkpt lat="47.77527" lon="-3.61315">
        <ele>19</ele>
        <time>2019-07-14T10:07:20Z</time>
      </trkpt>
      <trkpt lat="47.77529" lon="-3.6132">
        <ele>19</ele>
        <time>2019-07-14T10:07:21Z</time>
      </trkpt>
      <trkpt lat="47.77531" lon="-3.61326">
        <ele>19</ele>
        <time>2019-07-14T10:07:22Z</time>
      </trkpt>
      <trkpt lat="47.77533" lon="-3.61332">
        <ele>19</ele>
        <time>2019-07-14T10:07:23Z</time>
      </trkpt>
      <trkpt lat="47.77535" lon="-3.61338">
        <ele>19</ele>
        <time>2019-07-14T10:07:24Z</time>
      </trkpt>
      <trkpt lat="47.77537" lon="-3.61345">
        <ele>19</ele>
        <time>2019-07-14T10:07:25Z</time>
      </trkpt>
      <trkpt lat="47.77539" lon="-3.61351">
        <ele>19</ele>
        <time>2019-07-14T10:07:26Z</time>
      </trkpt>
      <trkpt lat="47.77541" lon="-3.61358">
        <ele>19</ele>
        <time>2019-07-14T10:07:27Z</time>
      </trkpt>
      <trkpt lat="47.77543" lon="-3.61364">
        <ele>19</ele>
        <time>2019-07-14T10:07:28Z</time>
      </trkpt>
      <trkpt lat="47.77545" lon="-3.61371">
        <ele>19</ele>
        <time>2019-07-14T10:07:29Z</time>
      </trkpt>
      <trkpt lat="47.77546" lon="-3.61377">
        <ele>19</ele>
        <time>2019-07-14T10:07:30Z</time>
      </trkpt>
      <trkpt lat="47.77548" lon="-3.61384">
        <ele>19</ele>
        <time>2019-07-14T10:07:31Z</time>
      </trkpt>
      <trkpt lat="47.77549" lon="-3.6139">
        <ele>19</ele>
        <time>2019-07-14T10:07:32Z</time>
      </trkpt>
      <trkpt lat="47.7755" lon="-3.61396">
        <ele>19</ele>
        <time>2019-07-14T10:07:33Z</time>
      </trkpt>
      <trkpt lat="47.77552" lon="-3.614">
        <ele>19</ele>
        <time>2019-07-14T10:07:34Z</time>
      </trkpt>
      <trkpt lat="47.77555" lon="-3.61402">
        <ele>19</ele>
        <time>2019-07-14T10:07:35Z</time>
      </trkpt>
      <trkpt lat="47.77559" lon="-3.61404">
        <ele>19</ele>
        <time>2019-07-14T10:07:36Z</time>
      </trkpt>
      <trkpt lat="47.77562" lon="-3.61405">
        <ele>19</ele>
        <time>2019-07-14T10:07:37Z</time>
      </trkpt>
      <trkpt lat="47.77566" lon="-3.61408">
        <ele>20</ele>
        <time>2019-07-14T10:07:38Z</time>
      </trkpt>
      <trkpt lat="47.77572" lon="-3.61411">
        <ele>20</ele>
        <time>2019-07-14T10:07:39Z</time>
      </trkpt>
      <trkpt lat="47.77576" lon="-3.61413">
        <ele>20</ele>
        <time>2019-07-14T10:07:40Z</time>
      </trkpt>
      <trkpt lat="47.77581" lon="-3.61416">
        <ele>20</ele>
        <time>2019-07-14T10:07:41Z</time>
      </trkpt>
      <trkpt lat="47.77586" lon="-3.61417">
        <ele>20</ele>
        <time>2019-07-14T10:07:42Z</time>
      </trkpt>
      <trkpt lat="47.7759" lon="-3.61416">
        <ele>21</ele>
        <time>2019-07-14T10:07:43Z</time>
      </trkpt>
      <trkpt lat="47.77595" lon="-3.61414">
        <ele>21</ele>
        <time>2019-07-14T10:07:44Z</time>
      </trkpt>
      <trkpt lat="47.77599" lon="-3.61412">
        <ele>21</ele>
        <time>2019-07-14T10:07:45Z</time>
      </trkpt>
      <trkpt lat="47.77603" lon="-3.61411">
        <ele>21</ele>
        <time>2019-07-14T10:07:46Z</time>
      </trkpt>
      <trkpt lat="47.77606" lon="-3.61411">
        <ele>21</ele>
        <time>2019-07-14T10:07:47Z</time>
      </trkpt>
      <trkpt lat="47.77609" lon="-3.61412">
        <ele>21</ele>
        <time>2019-07-14T10:07:48Z</time>
      </trkpt>
      <trkpt lat="47.77611" lon="-3.61416">
        <ele>22</ele>
        <time>2019-07-14T10:07:49Z</time>
      </trkpt>
      <trkpt lat="47.77613" lon="-3.61421">
        <ele>22</ele>
        <time>2019-07-14T10:07:50Z</time>
      </trkpt>
      <trkpt lat="47.77615" lon="-3.61427">
        <ele>22</ele>
        <time>2019-07-14T10:07:51Z</time>
      </trkpt>
      <trkpt lat="47.77616" lon="-3.61434">
        <ele>22</ele>
        <time>2019-07-14T10:07:52Z</time>
      </trkpt>
      <trkpt lat="47.77617" lon="-3.6144">
        <ele>22</ele>
        <time>2019-07-14T10:07:53Z</time>
      </trkpt>
      <trkpt lat="47.77618" lon="-3.61446">
        <ele>22</ele>
        <time>2019-07-14T10:07:54Z</time>
      </trkpt>
      <trkpt lat="47.77618" lon="-3.61453">
        <ele>22</ele>
        <time>2019-07-14T10:07:55Z</time>
      </trkpt>
      <trkpt lat="47.77619" lon="-3.6146">
        <ele>22</ele>
        <time>2019-07-14T10:07:56Z</time>
      </trkpt>
      <trkpt lat="47.77619" lon="-3.61467">
        <ele>22</ele>
        <time>2019-07-14T10:07:57Z</time>
      </trkpt>
      <trkpt lat="47.7762" lon="-3.61474">
        <ele>22</ele>
        <time>2019-07-14T10:07:58Z</time>
      </trkpt>
      <trkpt lat="47.7762" lon="-3.61482">
        <ele>22</ele>
        <time>2019-07-14T10:07:59Z</time>
      </trkpt>
      <trkpt lat="47.7762" lon="-3.6149">
        <ele>22</ele>
        <time>2019-07-14T10:08:00Z</time>
      </trkpt>
      <trkpt lat="47.7762" lon="-3.61498">
        <ele>22</ele>
        <time>2019-07-14T10:08:01Z</time>
      </trkpt>
      <trkpt lat="47.7762" lon="-3.61505">
        <ele>22</ele>
        <time>2019-07-14T10:08:02Z</time>
      </trkpt>
      <trkpt lat="47.77621" lon="-3.61512">
        <ele>22</ele>
        <time>2019-07-14T10:08:03Z</time>
      </trkpt>
      <trkpt lat="47.77621" lon="-3.61519">
        <ele>22</ele>
        <time>2019-07-14T10:08:04Z</time>
      </trkpt>
      <trkpt lat="47.77621" lon="-3.61526">
        <ele>22</ele>
        <time>2019-07-14T10:08:05Z</time>
      </trkpt>
      <trkpt lat="47.77622" lon="-3.61534">
        <ele>22</ele>
        <time>2019-07-14T10:08:06Z</time>
      </trkpt>
      <trkpt lat="47.77622" lon="-3.6154">
        <ele>22</ele>
        <time>2019-07-14T10:08:07Z</time>
      </trkpt>
      <trkpt lat="47.77622" lon="-3.61547">
        <ele>23</ele>
        <time>2019-07-14T10:08:08Z</time>
      </trkpt>
      <trkpt lat="47.77622" lon="-3.61553">
        <ele>23</ele>
        <time>2019-07-14T10:08:09Z</time>
      </trkpt>
      <trkpt lat="47.77621" lon="-3.6156">
        <ele>23</ele>
        <time>2019-07-14T10:08:10Z</time>
      </trkpt>
      <trkpt lat="47.77621" lon="-3.61566">
        <ele>23</ele>
        <time>2019-07-14T10:08:11Z</time>
      </trkpt>
      <trkpt lat="47.7762" lon="-3.61573">
        <ele>23</ele>
        <time>2019-07-14T10:08:12Z</time>
      </trkpt>
      <trkpt lat="47.77619" lon="-3.6158">
        <ele>23</ele>
        <time>2019-07-14T10:08:13Z</time>
      </trkpt>
      <trkpt lat="47.77618" lon="-3.61586">
        <ele>23</ele>
        <time>2019-07-14T10:08:14Z</time>
      </trkpt>
      <trkpt lat="47.77615" lon="-3.61592">
        <ele>23</ele>
        <time>2019-07-14T10:08:15Z</time>
      </trkpt>
      <trkpt lat="47.77612" lon="-3.61596">
        <ele>23</ele>
        <time>2019-07-14T10:08:16Z</time>
      </trkpt>
      <trkpt lat="47.77608" lon="-3.616">
        <ele>23</ele>
        <time>2019-07-14T10:08:17Z</time>
      </trkpt>
      <trkpt lat="47.77604" lon="-3.61604">
        <ele>23</ele>
        <time>2019-07-14T10:08:18Z</time>
      </trkpt>
      <trkpt lat="47.776" lon="-3.61609">
        <ele>24</ele>
        <time>2019-07-14T10:08:19Z</time>
      </trkpt>
      <trkpt lat="47.77596" lon="-3.61613">
        <ele>24</ele>
        <time>2019-07-14T10:08:20Z</time>
      </trkpt>
      <trkpt lat="47.77592" lon="-3.61617">
        <ele>24</ele>
        <time>2019-07-14T10:08:21Z</time>
      </trkpt>
      <trkpt lat="47.77587" lon="-3.6162">
        <ele>24</ele>
        <time>2019-07-14T10:08:22Z</time>
      </trkpt>
      <trkpt lat="47.77582" lon="-3.61624">
        <ele>24</ele>
        <time>2019-07-14T10:08:23Z</time>
      </trkpt>
      <trkpt lat="47.77578" lon="-3.61629">
        <ele>25</ele>
        <time>2019-07-14T10:08:24Z</time>
      </trkpt>
      <trkpt lat="47.77574" lon="-3.61634">
        <ele>25</ele>
        <time>2019-07-14T10:08:25Z</time>
      </trkpt>
      <trkpt lat="47.77571" lon="-3.6164">
        <ele>25</ele>
        <time>2019-07-14T10:08:26Z</time>
      </trkpt>
      <trkpt lat="47.77567" lon="-3.61644">
        <ele>25</ele>
        <time>2019-07-14T10:08:27Z</time>
      </trkpt>
      <trkpt lat="47.77563" lon="-3.6165">
        <ele>25</ele>
        <time>2019-07-14T10:08:28Z</time>
      </trkpt>
      <trkpt lat="47.7756" lon="-3.61654">
        <ele>26</ele>
        <time>2019-07-14T10:08:29Z</time>
      </trkpt>
      <trkpt lat="47.77556" lon="-3.61659">
        <ele>26</ele>
        <time>2019-07-14T10:08:30Z</time>
      </trkpt>
      <trkpt lat="47.77553" lon="-3.61663">
        <ele>26</ele>
        <time>2019-07-14T10:08:31Z</time>
      </trkpt>
      <trkpt lat="47.77549" lon="-3.61668">
        <ele>27</ele>
        <time>2019-07-14T10:08:32Z</time>
      </trkpt>
      <trkpt lat="47.77545" lon="-3.61673">
        <ele>27</ele>
        <time>2019-07-14T10:08:33Z</time>
      </trkpt>
      <trkpt lat="47.77542" lon="-3.61677">
        <ele>27</ele>
        <time>2019-07-14T10:08:34Z</time>
      </trkpt>
      <trkpt lat="47.77537" lon="-3.61682">
        <ele>27</ele>
        <time>2019-07-14T10:08:35Z</time>
      </trkpt>
      <trkpt lat="47.77533" lon="-3.61687">
        <ele>27</ele>
        <time>2019-07-14T10:08:36Z</time>
      </trkpt>
      <trkpt lat="47.77528" lon="-3.6169">
        <ele>27</ele>
        <time>2019-07-14T10:08:37Z</time>
      </trkpt>
      <trkpt lat="47.77523" lon="-3.61692">
        <ele>27</ele>
        <time>2019-07-14T10:08:38Z</time>
      </trkpt>
      <trkpt lat="47.77518" lon="-3.61693">
        <ele>27</ele>
        <time>2019-07-14T10:08:39Z</time>
      </trkpt>
      <trkpt lat="47.77513" lon="-3.61695">
        <ele>27</ele>
        <time>2019-07-14T10:08:40Z</time>
      </trkpt>
      <trkpt lat="47.77507" lon="-3.61696">
        <ele>27</ele>
        <time>2019-07-14T10:08:41Z</time>
      </trkpt>
      <trkpt lat="47.77502" lon="-3.61697">
        <ele>27</ele>
        <time>2019-07-14T10:08:42Z</time>
      </trkpt>
      <trkpt lat="47.77496" lon="-3.61698">
        <ele>28</ele>
        <time>2019-07-14T10:08:43Z</time>
      </trkpt>
      <trkpt lat="47.7749" lon="-3.61699">
        <ele>28</ele>
        <time>2019-07-14T10:08:44Z</time>
      </trkpt>
      <trkpt lat="47.77485" lon="-3.617">
        <ele>28</ele>
        <time>2019-07-14T10:08:45Z</time>
      </trkpt>
      <trkpt lat="47.7748" lon="-3.617">
        <ele>28</ele>
        <time>2019-07-14T10:08:46Z</time>
      </trkpt>
      <trkpt lat="47.77476" lon="-3.617">
        <ele>28</ele>
        <time>2019-07-14T10:08:47Z</time>
      </trkpt>
      <trkpt lat="47.77473" lon="-3.61702">
        <ele>29</ele>
        <time>2019-07-14T10:08:48Z</time>
      </trkpt>
      <trkpt lat="47.77473" lon="-3.61705">
        <ele>29</ele>
        <time>2019-07-14T10:08:49Z</time>
      </trkpt>
      <trkpt lat="47.77473" lon="-3.61708">
        <ele>29</ele>
        <time>2019-07-14T10:08:50Z</time>
      </trkpt>
      <trkpt lat="47.77476" lon="-3.61711">
        <ele>29</ele>
        <time>2019-07-14T10:08:51Z</time>
      </trkpt>
      <trkpt lat="47.7748" lon="-3.61713">
        <ele>29</ele>
        <time>2019-07-14T10:08:52Z</time>
      </trkpt>
      <trkpt lat="47.77484" lon="-3.61714">
        <ele>29</ele>
        <time>2019-07-14T10:08:53Z</time>
      </trkpt>
      <trkpt lat="47.77488" lon="-3.61715">
        <ele>29</ele>
        <time>2019-07-14T10:08:54Z</time>
      </trkpt>
      <trkpt lat="47.77493" lon="-3.61717">
        <ele>29</ele>
        <time>2019-07-14T10:08:55Z</time>
      </trkpt>
      <trkpt lat="47.77498" lon="-3.61719">
        <ele>29</ele>
        <time>2019-07-14T10:08:56Z</time>
      </trkpt>
      <trkpt lat="47.77503" lon="-3.61721">
        <ele>30</ele>
        <time>2019-07-14T10:08:57Z</time>
      </trkpt>
      <trkpt lat="47.77507" lon="-3.61723">
        <ele>30</ele>
        <time>2019-07-14T10:08:58Z</time>
      </trkpt>
      <trkpt lat="47.77512" lon="-3.61726">
        <ele>30</ele>
        <time>2019-07-14T10:08:59Z</time>
      </trkpt>
      <trkpt lat="47.77517" lon="-3.61729">
        <ele>30</ele>
        <time>2019-07-14T10:09:00Z</time>
      </trkpt>
      <trkpt lat="47.77522" lon="-3.61732">
        <ele>30</ele>
        <time>2019-07-14T10:09:01Z</time>
      </trkpt>
      <trkpt lat="47.77528" lon="-3.61734">
        <ele>30</ele>
        <time>2019-07-14T10:09:02Z</time>
      </trkpt>
      <trkpt lat="47.77533" lon="-3.61735">
        <ele>30</ele>
        <time>2019-07-14T10:09:03Z</time>
      </trkpt>
      <trkpt lat="47.77539" lon="-3.61736">
        <ele>30</ele>
        <time>2019-07-14T10:09:04Z</time>
      </trkpt>
      <trkpt lat="47.77544" lon="-3.61739">
        <ele>30</ele>
        <time>2019-07-14T10:09:05Z</time>
      </trkpt>
      <trkpt lat="47.77549" lon="-3.61741">
        <ele>30</ele>
        <time>2019-07-14T10:09:06Z</time>
      </trkpt>
      <trkpt lat="47.77556" lon="-3.61743">
        <ele>30</ele>
        <time>2019-07-14T10:09:07Z</time>
      </trkpt>
      <trkpt lat="47.77561" lon="-3.61745">
        <ele>30</ele>
        <time>2019-07-14T10:09:08Z</time>
      </trkpt>
      <trkpt lat="47.77567" lon="-3.61747">
        <ele>30</ele>
        <time>2019-07-14T10:09:09Z</time>
      </trkpt>
      <trkpt lat="47.77572" lon="-3.61748">
        <ele>30</ele>
        <time>2019-07-14T10:09:10Z</time>
      </trkpt>
      <trkpt lat="47.77578" lon="-3.61748">
        <ele>30</ele>
        <time>2019-07-14T10:09:11Z</time>
      </trkpt>
      <trkpt lat="47.77584" lon="-3.61748">
        <ele>30</ele>
        <time>2019-07-14T10:09:12Z</time>
      </trkpt>
      <trkpt lat="47.77589" lon="-3.61747">
        <ele>30</ele>
        <time>2019-07-14T10:09:13Z</time>
      </trkpt>
      <trkpt lat="47.77594" lon="-3.61746">
        <ele>30</ele>
        <time>2019-07-14T10:09:14Z</time>
      </trkpt>
      <trkpt lat="47.77599" lon="-3.61745">
        <ele>30</ele>
        <time>2019-07-14T10:09:15Z</time>
      </trkpt>
      <trkpt lat="47.77605" lon="-3.61744">
        <ele>30</ele>
        <time>2019-07-14T10:09:16Z</time>
      </trkpt>
      <trkpt lat="47.77611" lon="-3.61742">
        <ele>30</ele>
        <time>2019-07-14T10:09:17Z</time>
      </trkpt>
      <trkpt lat="47.77616" lon="-3.6174">
        <ele>30</ele>
        <time>2019-07-14T10:09:18Z</time>
      </trkpt>
      <trkpt lat="47.77622" lon="-3.61739">
        <ele>31</ele>
        <time>2019-07-14T10:09:19Z</time>
      </trkpt>
      <trkpt lat="47.77628" lon="-3.61737">
        <ele>31</ele>
        <time>2019-07-14T10:09:20Z</time>
      </trkpt>
      <trkpt lat="47.77634" lon="-3.61735">
        <ele>31</ele>
        <time>2019-07-14T10:09:21Z</time>
      </trkpt>
      <trkpt lat="47.7764" lon="-3.61732">
        <ele>31</ele>
        <time>2019-07-14T10:09:22Z</time>
      </trkpt>
      <trkpt lat="47.77646" lon="-3.6173">
        <ele>31</ele>
        <time>2019-07-14T10:09:23Z</time>
      </trkpt>
      <trkpt lat="47.77652" lon="-3.61728">
        <ele>31</ele>
        <time>2019-07-14T10:09:24Z</time>
      </trkpt>
      <trkpt lat="47.77657" lon="-3.61726">
        <ele>31</ele>
        <time>2019-07-14T10:09:25Z</time>
      </trkpt>
      <trkpt lat="47.77662" lon="-3.61725">
        <ele>31</ele>
        <time>2019-07-14T10:09:26Z</time>
      </trkpt>
      <trkpt lat="47.77667" lon="-3.61722">
        <ele>31</ele>
        <time>2019-07-14T10:09:27Z</time>
      </trkpt>
      <trkpt lat="47.77671" lon="-3.61719">
        <ele>31</ele>
        <time>2019-07-14T10:09:28Z</time>
      </trkpt>
      <trkpt lat="47.77677" lon="-3.61714">
        <ele>31</ele>
        <time>2019-07-14T10:09:29Z</time>
      </trkpt>
      <trkpt lat="47.77681" lon="-3.61709">
        <ele>31</ele>
        <time>2019-07-14T10:09:30Z</time>
      </trkpt>
      <trkpt lat="47.77687" lon="-3.61704">
        <ele>31</ele>
        <time>2019-07-14T10:09:31Z</time>
      </trkpt>
      <trkpt lat="47.77692" lon="-3.617">
        <ele>31</ele>
        <time>2019-07-14T10:09:32Z</time>
      </trkpt>
      <trkpt lat="47.77698" lon="-3.61696">
        <ele>31</ele>
        <time>2019-07-14T10:09:33Z</time>
      </trkpt>
      <trkpt lat="47.77703" lon="-3.61692">
        <ele>31</ele>
        <time>2019-07-14T10:09:34Z</time>
      </trkpt>
      <trkpt lat="47.77709" lon="-3.61688">
        <ele>31</ele>
        <time>2019-07-14T10:09:35Z</time>
      </trkpt>
      <trkpt lat="47.77715" lon="-3.61684">
        <ele>31</ele>
        <time>2019-07-14T10:09:36Z</time>
      </trkpt>
      <trkpt lat="47.77722" lon="-3.61682">
        <ele>31</ele>
        <time>2019-07-14T10:09:37Z</time>
      </trkpt>
      <trkpt lat="47.77728" lon="-3.6168">
        <ele>31</ele>
        <time>2019-07-14T10:09:38Z</time>
      </trkpt>
      <trkpt lat="47.77734" lon="-3.61678">
        <ele>32</ele>
        <time>2019-07-14T10:09:39Z</time>
      </trkpt>
      <trkpt lat="47.7774" lon="-3.61676">
        <ele>32</ele>
        <time>2019-07-14T10:09:40Z</time>
      </trkpt>
      <trkpt lat="47.77746" lon="-3.61675">
        <ele>32</ele>
        <time>2019-07-14T10:09:41Z</time>
      </trkpt>
      <trkpt lat="47.77752" lon="-3.61674">
        <ele>32</ele>
        <time>2019-07-14T10:09:42Z</time>
      </trkpt>
      <trkpt lat="47.77757" lon="-3.61674">
        <ele>32</ele>
        <time>2019-07-14T10:09:43Z</time>
      </trkpt>
      <trkpt lat="47.77762" lon="-3.61674">
        <ele>32</ele>
        <time>2019-07-14T10:09:44Z</time>
      </trkpt>
      <trkpt lat="47.77767" lon="-3.61674">
        <ele>32</ele>
        <time>2019-07-14T10:09:45Z</time>
      </trkpt>
      <trkpt lat="47.77771" lon="-3.61675">
        <ele>33</ele>
        <time>2019-07-14T10:09:46Z</time>
      </trkpt>
      <trkpt lat="47.77775" lon="-3.61676">
        <ele>33</ele>
        <time>2019-07-14T10:09:47Z</time>
      </trkpt>
      <trkpt lat="47.77779" lon="-3.61679">
        <ele>33</ele>
        <time>2019-07-14T10:09:48Z</time>
      </trkpt>
      <trkpt lat="47.77783" lon="-3.61683">
        <ele>33</ele>
        <time>2019-07-14T10:09:49Z</time>
      </trkpt>
      <trkpt lat="47.77787" lon="-3.61688">
        <ele>33</ele>
        <time>2019-07-14T10:09:50Z</time>
      </trkpt>
      <trkpt lat="47.77792" lon="-3.61694">
        <ele>33</ele>
        <time>2019-07-14T10:09:51Z</time>
      </trkpt>
      <trkpt lat="47.77797" lon="-3.617">
        <ele>33</ele>
        <time>2019-07-14T10:09:52Z</time>
      </trkpt>
      <trkpt lat="47.77802" lon="-3.61706">
        <ele>33</ele>
        <time>2019-07-14T10:09:53Z</time>
      </trkpt>
      <trkpt lat="47.77807" lon="-3.61712">
        <ele>33</ele>
        <time>2019-07-14T10:09:54Z</time>
      </trkpt>
      <trkpt lat="47.77813" lon="-3.61717">
        <ele>33</ele>
        <time>2019-07-14T10:09:55Z</time>
      </trkpt>
      <trkpt lat="47.77818" lon="-3.61722">
        <ele>32</ele>
        <time>2019-07-14T10:09:56Z</time>
      </trkpt>
      <trkpt lat="47.77824" lon="-3.61726">
        <ele>32</ele>
        <time>2019-07-14T10:09:57Z</time>
      </trkpt>
      <trkpt lat="47.7783" lon="-3.6173">
        <ele>32</ele>
        <time>2019-07-14T10:09:58Z</time>
      </trkpt>
      <trkpt lat="47.77836" lon="-3.61734">
        <ele>32</ele>
        <time>2019-07-14T10:09:59Z</time>
      </trkpt>
      <trkpt lat="47.77841" lon="-3.61737">
        <ele>32</ele>
        <time>2019-07-14T10:10:00Z</time>
      </trkpt>
      <trkpt lat="47.77845" lon="-3.61739">
        <ele>32</ele>
        <time>2019-07-14T10:10:01Z</time>
      </trkpt>
      <trkpt lat="47.77848" lon="-3.61743">
        <ele>32</ele>
        <time>2019-07-14T10:10:02Z</time>
      </trkpt>
      <trkpt lat="47.77851" lon="-3.61748">
        <ele>32</ele>
        <time>2019-07-14T10:10:03Z</time>
      </trkpt>
      <trkpt lat="47.77853" lon="-3.61754">
        <ele>32</ele>
        <time>2019-07-14T10:10:04Z</time>
      </trkpt>
      <trkpt lat="47.77855" lon="-3.61759">
        <ele>32</ele>
        <time>2019-07-14T10:10:05Z</time>
      </trkpt>
      <trkpt lat="47.77857" lon="-3.61765">
        <ele>32</ele>
        <time>2019-07-14T10:10:06Z</time>
      </trkpt>
      <trkpt lat="47.77858" lon="-3.6177">
        <ele>32</ele>
        <time>2019-07-14T10:10:07Z</time>
      </trkpt>
      <trkpt lat="47.77858" lon="-3.61775">
        <ele>31</ele>
        <time>2019-07-14T10:10:08Z</time>
      </trkpt>
      <trkpt lat="47.7786" lon="-3.61781">
        <ele>31</ele>
        <time>2019-07-14T10:10:09Z</time>
      </trkpt>
      <trkpt lat="47.77861" lon="-3.61787">
        <ele>31</ele>
        <time>2019-07-14T10:10:10Z</time>
      </trkpt>
      <trkpt lat="47.77864" lon="-3.61794">
        <ele>31</ele>
        <time>2019-07-14T10:10:11Z</time>
      </trkpt>
      <trkpt lat="47.77866" lon="-3.61801">
        <ele>30</ele>
        <time>2019-07-14T10:10:12Z</time>
      </trkpt>
      <trkpt lat="47.77868" lon="-3.61808">
        <ele>30</ele>
        <time>2019-07-14T10:10:13Z</time>
      </trkpt>
      <trkpt lat="47.7787" lon="-3.61814">
        <ele>30</ele>
        <time>2019-07-14T10:10:14Z</time>
      </trkpt>
      <trkpt lat="47.77871" lon="-3.61821">
        <ele>30</ele>
        <time>2019-07-14T10:10:15Z</time>
      </trkpt>
      <trkpt lat="47.77872" lon="-3.61827">
        <ele>30</ele>
        <time>2019-07-14T10:10:16Z</time>
      </trkpt>
      <trkpt lat="47.77873" lon="-3.61831">
        <ele>30</ele>
        <time>2019-07-14T10:10:17Z</time>
      </trkpt>
      <trkpt lat="47.77874" lon="-3.61836">
        <ele>29</ele>
        <time>2019-07-14T10:10:18Z</time>
      </trkpt>
      <trkpt lat="47.77874" lon="-3.6184">
        <ele>29</ele>
        <time>2019-07-14T10:10:19Z</time>
      </trkpt>
      <trkpt lat="47.77875" lon="-3.61845">
        <ele>29</ele>
        <time>2019-07-14T10:10:20Z</time>
      </trkpt>
      <trkpt lat="47.77876" lon="-3.6185">
        <ele>29</ele>
        <time>2019-07-14T10:10:21Z</time>
      </trkpt>
      <trkpt lat="47.77877" lon="-3.61855">
        <ele>28</ele>
        <time>2019-07-14T10:10:22Z</time>
      </trkpt>
      <trkpt lat="47.77878" lon="-3.6186">
        <ele>28</ele>
        <time>2019-07-14T10:10:23Z</time>
      </trkpt>
      <trkpt lat="47.77879" lon="-3.61866">
        <ele>28</ele>
        <time>2019-07-14T10:10:24Z</time>
      </trkpt>
      <trkpt lat="47.7788" lon="-3.61872">
        <ele>28</ele>
        <time>2019-07-14T10:10:25Z</time>
      </trkpt>
      <trkpt lat="47.7788" lon="-3.61878">
        <ele>28</ele>
        <time>2019-07-14T10:10:26Z</time>
      </trkpt>
      <trkpt lat="47.77881" lon="-3.61883">
        <ele>28</ele>
        <time>2019-07-14T10:10:27Z</time>
      </trkpt>
      <trkpt lat="47.77881" lon="-3.61889">
        <ele>28</ele>
        <time>2019-07-14T10:10:28Z</time>
      </trkpt>
      <trkpt lat="47.77882" lon="-3.61895">
        <ele>28</ele>
        <time>2019-07-14T10:10:29Z</time>
      </trkpt>
      <trkpt lat="47.77883" lon="-3.61902">
        <ele>28</ele>
        <time>2019-07-14T10:10:30Z</time>
      </trkpt>
      <trkpt lat="47.77884" lon="-3.61909">
        <ele>28</ele>
        <time>2019-07-14T10:10:31Z</time>
      </trkpt>
      <trkpt lat="47.77886" lon="-3.61916">
        <ele>28</ele>
        <time>2019-07-14T10:10:32Z</time>
      </trkpt>
      <trkpt lat="47.77887" lon="-3.61923">
        <ele>28</ele>
        <time>2019-07-14T10:10:33Z</time>
      </trkpt>
      <trkpt lat="47.77888" lon="-3.61931">
        <ele>28</ele>
        <time>2019-07-14T10:10:34Z</time>
      </trkpt>
      <trkpt lat="47.77888" lon="-3.61938">
        <ele>27</ele>
        <time>2019-07-14T10:10:35Z</time>
      </trkpt>
      <trkpt lat="47.77889" lon="-3.61945">
        <ele>27</ele>
        <time>2019-07-14T10:10:36Z</time>
      </trkpt>
      <trkpt lat="47.77889" lon="-3.61953">
        <ele>27</ele>
        <time>2019-07-14T10:10:37Z</time>
      </trkpt>
      <trkpt lat="47.77889" lon="-3.61961">
        <ele>27</ele>
        <time>2019-07-14T10:10:38Z</time>
      </trkpt>
      <trkpt lat="47.77889" lon="-3.61968">
        <ele>27</ele>
        <time>2019-07-14T10:10:39Z</time>
      </trkpt>
      <trkpt lat="47.7789" lon="-3.61976">
        <ele>27</ele>
        <time>2019-07-14T10:10:40Z</time>
      </trkpt>
      <trkpt lat="47.7789" lon="-3.61984">
        <ele>27</ele>
        <time>2019-07-14T10:10:41Z</time>
      </trkpt>
      <trkpt lat="47.7789" lon="-3.61991">
        <ele>27</ele>
        <time>2019-07-14T10:10:42Z</time>
      </trkpt>
      <trkpt lat="47.7789" lon="-3.61999">
        <ele>27</ele>
        <time>2019-07-14T10:10:43Z</time>
      </trkpt>
      <trkpt lat="47.7789" lon="-3.62006">
        <ele>27</ele>
        <time>2019-07-14T10:10:44Z</time>
      </trkpt>
      <trkpt lat="47.77891" lon="-3.62013">
        <ele>27</ele>
        <time>2019-07-14T10:10:45Z</time>
      </trkpt>
      <trkpt lat="47.77892" lon="-3.6202">
        <ele>27</ele>
        <time>2019-07-14T10:10:46Z</time>
      </trkpt>
      <trkpt lat="47.77892" lon="-3.62028">
        <ele>27</ele>
        <time>2019-07-14T10:10:47Z</time>
      </trkpt>
      <trkpt lat="47.77893" lon="-3.62036">
        <ele>27</ele>
        <time>2019-07-14T10:10:48Z</time>
      </trkpt>
      <trkpt lat="47.77893" lon="-3.62044">
        <ele>27</ele>
        <time>2019-07-14T10:10:49Z</time>
      </trkpt>
      <trkpt lat="47.77893" lon="-3.62052">
        <ele>27</ele>
        <time>2019-07-14T10:10:50Z</time>
      </trkpt>
      <trkpt lat="47.77894" lon="-3.62061">
        <ele>27</ele>
        <time>2019-07-14T10:10:51Z</time>
      </trkpt>
      <trkpt lat="47.77894" lon="-3.62069">
        <ele>27</ele>
        <time>2019-07-14T10:10:52Z</time>
      </trkpt>
      <trkpt lat="47.77894" lon="-3.62077">
        <ele>27</ele>
        <time>2019-07-14T10:10:53Z</time>
      </trkpt>
      <trkpt lat="47.77894" lon="-3.62086">
        <ele>27</ele>
        <time>2019-07-14T10:10:54Z</time>
      </trkpt>
      <trkpt lat="47.77894" lon="-3.62093">
        <ele>27</ele>
        <time>2019-07-14T10:10:55Z</time>
      </trkpt>
      <trkpt lat="47.77894" lon="-3.62101">
        <ele>27</ele>
        <time>2019-07-14T10:10:56Z</time>
      </trkpt>
      <trkpt lat="47.77894" lon="-3.62109">
        <ele>27</ele>
        <time>2019-07-14T10:10:57Z</time>
      </trkpt>
      <trkpt lat="47.77895" lon="-3.62117">
        <ele>27</ele>
        <time>2019-07-14T10:10:58Z</time>
      </trkpt>
      <trkpt lat="47.77896" lon="-3.62125">
        <ele>27</ele>
        <time>2019-07-14T10:10:59Z</time>
      </trkpt>
      <trkpt lat="47.77898" lon="-3.62133">
        <ele>27</ele>
        <time>2019-07-14T10:11:00Z</time>
      </trkpt>
      <trkpt lat="47.77899" lon="-3.62141">
        <ele>27</ele>
        <time>2019-07-14T10:11:01Z</time>
      </trkpt>
      <trkpt lat="47.77901" lon="-3.62148">
        <ele>27</ele>
        <time>2019-07-14T10:11:02Z</time>
      </trkpt>
      <trkpt lat="47.77903" lon="-3.62156">
        <ele>27</ele>
        <time>2019-07-14T10:11:03Z</time>
      </trkpt>
      <trkpt lat="47.77905" lon="-3.62163">
        <ele>27</ele>
        <time>2019-07-14T10:11:04Z</time>
      </trkpt>
      <trkpt lat="47.77907" lon="-3.6217">
        <ele>27</ele>
        <time>2019-07-14T10:11:05Z</time>
      </trkpt>
      <trkpt lat="47.77909" lon="-3.62177">
        <ele>27</ele>
        <time>2019-07-14T10:11:06Z</time>
      </trkpt>
      <trkpt lat="47.7791" lon="-3.62184">
        <ele>27</ele>
        <time>2019-07-14T10:11:07Z</time>
      </trkpt>
      <trkpt lat="47.77909" lon="-3.6219">
        <ele>27</ele>
        <time>2019-07-14T10:11:08Z</time>
      </trkpt>
      <trkpt lat="47.77907" lon="-3.62194">
        <ele>27</ele>
        <time>2019-07-14T10:11:09Z</time>
      </trkpt>
      <trkpt lat="47.77904" lon="-3.62194">
        <ele>27</ele>
        <time>2019-07-14T10:11:10Z</time>
      </trkpt>
      <trkpt lat="47.779" lon="-3.62194">
        <ele>27</ele>
        <time>2019-07-14T10:11:11Z</time>
      </trkpt>
      <trkpt lat="47.77895" lon="-3.62192">
        <ele>27</ele>
        <time>2019-07-14T10:11:12Z</time>
      </trkpt>
      <trkpt lat="47.7789" lon="-3.62191">
        <ele>27</ele>
        <time>2019-07-14T10:11:13Z</time>
      </trkpt>
      <trkpt lat="47.77884" lon="-3.6219">
        <ele>27</ele>
        <time>2019-07-14T10:11:14Z</time>
      </trkpt>
      <trkpt lat="47.77878" lon="-3.62189">
        <ele>27</ele>
        <time>2019-07-14T10:11:15Z</time>
      </trkpt>
      <trkpt lat="47.77872" lon="-3.62189">
        <ele>27</ele>
        <time>2019-07-14T10:11:16Z</time>
      </trkpt>
      <trkpt lat="47.77866" lon="-3.62189">
        <ele>27</ele>
        <time>2019-07-14T10:11:17Z</time>
      </trkpt>
      <trkpt lat="47.77859" lon="-3.62187">
        <ele>27</ele>
        <time>2019-07-14T10:11:18Z</time>
      </trkpt>
      <trkpt lat="47.77852" lon="-3.62185">
        <ele>27</ele>
        <time>2019-07-14T10:11:19Z</time>
      </trkpt>
      <trkpt lat="47.77845" lon="-3.62184">
        <ele>27</ele>
        <time>2019-07-14T10:11:20Z</time>
      </trkpt>
      <trkpt lat="47.77838" lon="-3.62181">
        <ele>27</ele>
        <time>2019-07-14T10:11:21Z</time>
      </trkpt>
      <trkpt lat="47.77831" lon="-3.6218">
        <ele>27</ele>
        <time>2019-07-14T10:11:22Z</time>
      </trkpt>
      <trkpt lat="47.77827" lon="-3.62181">
        <ele>27</ele>
        <time>2019-07-14T10:11:23Z</time>
      </trkpt>
      <trkpt lat="47.77822" lon="-3.62184">
        <ele>27</ele>
        <time>2019-07-14T10:11:24Z</time>
      </trkpt>
      <trkpt lat="47.7782" lon="-3.62189">
        <ele>27</ele>
        <time>2019-07-14T10:11:25Z</time>
      </trkpt>
      <trkpt lat="47.77818" lon="-3.62195">
        <ele>27</ele>
        <time>2019-07-14T10:11:26Z</time>
      </trkpt>
      <trkpt lat="47.77815" lon="-3.62201">
        <ele>27</ele>
        <time>2019-07-14T10:11:27Z</time>
      </trkpt>
      <trkpt lat="47.77814" lon="-3.62209">
        <ele>27</ele>
        <time>2019-07-14T10:11:28Z</time>
      </trkpt>
      <trkpt lat="47.77812" lon="-3.62215">
        <ele>27</ele>
        <time>2019-07-14T10:11:29Z</time>
      </trkpt>
      <trkpt lat="47.7781" lon="-3.62222">
        <ele>27</ele>
        <time>2019-07-14T10:11:30Z</time>
      </trkpt>
      <trkpt lat="47.77808" lon="-3.62229">
        <ele>27</ele>
        <time>2019-07-14T10:11:31Z</time>
      </trkpt>
      <trkpt lat="47.77807" lon="-3.62236">
        <ele>27</ele>
        <time>2019-07-14T10:11:32Z</time>
      </trkpt>
      <trkpt lat="47.77805" lon="-3.62243">
        <ele>27</ele>
        <time>2019-07-14T10:11:33Z</time>
      </trkpt>
      <trkpt lat="47.77803" lon="-3.6225">
        <ele>27</ele>
        <time>2019-07-14T10:11:34Z</time>
      </trkpt>
      <trkpt lat="47.77801" lon="-3.62257">
        <ele>27</ele>
        <time>2019-07-14T10:11:35Z</time>
      </trkpt>
      <trkpt lat="47.77799" lon="-3.62264">
        <ele>27</ele>
        <time>2019-07-14T10:11:36Z</time>
      </trkpt>
      <trkpt lat="47.77797" lon="-3.62271">
        <ele>27</ele>
        <time>2019-07-14T10:11:37Z</time>
      </trkpt>
      <trkpt lat="47.77795" lon="-3.62279">
        <ele>27</ele>
        <time>2019-07-14T10:11:38Z</time>
      </trkpt>
      <trkpt lat="47.77793" lon="-3.62286">
        <ele>28</ele>
        <time>2019-07-14T10:11:39Z</time>
      </trkpt>
      <trkpt lat="47.77792" lon="-3.62294">
        <ele>28</ele>
        <time>2019-07-14T10:11:40Z</time>
      </trkpt>
      <trkpt lat="47.7779" lon="-3.62302">
        <ele>28</ele>
        <time>2019-07-14T10:11:41Z</time>
      </trkpt>
      <trkpt lat="47.77789" lon="-3.6231">
        <ele>28</ele>
        <time>2019-07-14T10:11:42Z</time>
      </trkpt>
      <trkpt lat="47.77788" lon="-3.62317">
        <ele>28</ele>
        <time>2019-07-14T10:11:43Z</time>
      </trkpt>
      <trkpt lat="47.77786" lon="-3.62325">
        <ele>28</ele>
        <time>2019-07-14T10:11:44Z</time>
      </trkpt>
      <trkpt lat="47.77785" lon="-3.62333">
        <ele>28</ele>
        <time>2019-07-14T10:11:45Z</time>
      </trkpt>
      <trkpt lat="47.77784" lon="-3.62341">
        <ele>28</ele>
        <time>2019-07-14T10:11:46Z</time>
      </trkpt>
      <trkpt lat="47.77782" lon="-3.62349">
        <ele>28</ele>
        <time>2019-07-14T10:11:47Z</time>
      </trkpt>
      <trkpt lat="47.7778" lon="-3.62357">
        <ele>28</ele>
        <time>2019-07-14T10:11:48Z</time>
      </trkpt>
      <trkpt lat="47.77778" lon="-3.62365">
        <ele>28</ele>
        <time>2019-07-14T10:11:49Z</time>
      </trkpt>
      <trkpt lat="47.77776" lon="-3.62373">
        <ele>27</ele>
        <time>2019-07-14T10:11:50Z</time>
      </trkpt>
      <trkpt lat="47.77773" lon="-3.62381">
        <ele>27</ele>
        <time>2019-07-14T10:11:51Z</time>
      </trkpt>
      <trkpt lat="47.77771" lon="-3.62389">
        <ele>27</ele>
        <time>2019-07-14T10:11:52Z</time>
      </trkpt>
      <trkpt lat="47.77769" lon="-3.62397">
        <ele>27</ele>
        <time>2019-07-14T10:11:53Z</time>
      </trkpt>
      <trkpt lat="47.77766" lon="-3.62404">
        <ele>27</ele>
        <time>2019-07-14T10:11:54Z</time>
      </trkpt>
      <trkpt lat="47.77764" lon="-3.62411">
        <ele>27</ele>
        <time>2019-07-14T10:11:55Z</time>
      </trkpt>
      <trkpt lat="47.77762" lon="-3.62418">
        <ele>27</ele>
        <time>2019-07-14T10:11:56Z</time>
      </trkpt>
      <trkpt lat="47.7776" lon="-3.62425">
        <ele>27</ele>
        <time>2019-07-14T10:11:57Z</time>
      </trkpt>
      <trkpt lat="47.77758" lon="-3.62431">
        <ele>27</ele>
        <time>2019-07-14T10:11:58Z</time>
      </trkpt>
      <trkpt lat="47.77757" lon="-3.62436">
        <ele>27</ele>
        <time>2019-07-14T10:11:59Z</time>
      </trkpt>
      <trkpt lat="47.77757" lon="-3.6244">
        <ele>27</ele>
        <time>2019-07-14T10:12:00Z</time>
      </trkpt>
      <trkpt lat="47.77759" lon="-3.62442">
        <ele>27</ele>
        <time>2019-07-14T10:12:01Z</time>
      </trkpt>
      <trkpt lat="47.77762" lon="-3.62444">
        <ele>27</ele>
        <time>2019-07-14T10:12:02Z</time>
      </trkpt>
      <trkpt lat="47.77765" lon="-3.62444">
        <ele>27</ele>
        <time>2019-07-14T10:12:03Z</time>
      </trkpt>
      <trkpt lat="47.77769" lon="-3.62444">
        <ele>27</ele>
        <time>2019-07-14T10:12:04Z</time>
      </trkpt>
      <trkpt lat="47.77772" lon="-3.62444">
        <ele>27</ele>
        <time>2019-07-14T10:12:05Z</time>
      </trkpt>
      <trkpt lat="47.77775" lon="-3.62444">
        <ele>27</ele>
        <time>2019-07-14T10:12:06Z</time>
      </trkpt>
      <trkpt lat="47.77777" lon="-3.62444">
        <ele>27</ele>
        <time>2019-07-14T10:12:07Z</time>
      </trkpt>
      <trkpt lat="47.77778" lon="-3.62445">
        <ele>27</ele>
        <time>2019-07-14T10:12:08Z</time>
      </trkpt>
      <trkpt lat="47.77778" lon="-3.62447">
        <ele>27</ele>
        <time>2019-07-14T10:12:09Z</time>
      </trkpt>
      <trkpt lat="47.77778" lon="-3.62449">
        <ele>27</ele>
        <time>2019-07-14T10:12:10Z</time>
      </trkpt>
      <trkpt lat="47.77778" lon="-3.62451">
        <ele>27</ele>
        <time>2019-07-14T10:12:11Z</time>
      </trkpt>
      <trkpt lat="47.77778" lon="-3.62455">
        <ele>27</ele>
        <time>2019-07-14T10:12:12Z</time>
      </trkpt>
      <trkpt lat="47.77777" lon="-3.62459">
        <ele>27</ele>
        <time>2019-07-14T10:12:13Z</time>
      </trkpt>
      <trkpt lat="47.77777" lon="-3.62464">
        <ele>27</ele>
        <time>2019-07-14T10:12:14Z</time>
      </trkpt>
      <trkpt lat="47.77776" lon="-3.6247">
        <ele>27</ele>
        <time>2019-07-14T10:12:15Z</time>
      </trkpt>
      <trkpt lat="47.77775" lon="-3.62476">
        <ele>27</ele>
        <time>2019-07-14T10:12:16Z</time>
      </trkpt>
      <trkpt lat="47.77773" lon="-3.62482">
        <ele>26</ele>
        <time>2019-07-14T10:12:17Z</time>
      </trkpt>
      <trkpt lat="47.77772" lon="-3.62489">
        <ele>26</ele>
        <time>2019-07-14T10:12:18Z</time>
      </trkpt>
      <trkpt lat="47.77771" lon="-3.62496">
        <ele>26</ele>
        <time>2019-07-14T10:12:19Z</time>
      </trkpt>
      <trkpt lat="47.77769" lon="-3.62502">
        <ele>26</ele>
        <time>2019-07-14T10:12:20Z</time>
      </trkpt>
      <trkpt lat="47.77768" lon="-3.62509">
        <ele>25</ele>
        <time>2019-07-14T10:12:21Z</time>
      </trkpt>
      <trkpt lat="47.77766" lon="-3.62516">
        <ele>25</ele>
        <time>2019-07-14T10:12:22Z</time>
      </trkpt>
      <trkpt lat="47.77764" lon="-3.62523">
        <ele>25</ele>
        <time>2019-07-14T10:12:23Z</time>
      </trkpt>
      <trkpt lat="47.77762" lon="-3.62531">
        <ele>25</ele>
        <time>2019-07-14T10:12:24Z</time>
      </trkpt>
      <trkpt lat="47.7776" lon="-3.62539">
        <ele>25</ele>
        <time>2019-07-14T10:12:25Z</time>
      </trkpt>
      <trkpt lat="47.77758" lon="-3.62548">
        <ele>24</ele>
        <time>2019-07-14T10:12:26Z</time>
      </trkpt>
      <trkpt lat="47.77756" lon="-3.62556">
        <ele>24</ele>
        <time>2019-07-14T10:12:27Z</time>
      </trkpt>
      <trkpt lat="47.77754" lon="-3.62564">
        <ele>24</ele>
        <time>2019-07-14T10:12:28Z</time>
      </trkpt>
      <trkpt lat="47.77752" lon="-3.62573">
        <ele>24</ele>
        <time>2019-07-14T10:12:29Z</time>
      </trkpt>
      <trkpt lat="47.77749" lon="-3.62581">
        <ele>24</ele>
        <time>2019-07-14T10:12:30Z</time>
      </trkpt>
      <trkpt lat="47.77747" lon="-3.62589">
        <ele>24</ele>
        <time>2019-07-14T10:12:31Z</time>
      </trkpt>
      <trkpt lat="47.77745" lon="-3.62597">
        <ele>23</ele>
        <time>2019-07-14T10:12:32Z</time>
      </trkpt>
      <trkpt lat="47.77742" lon="-3.62605">
        <ele>23</ele>
        <time>2019-07-14T10:12:33Z</time>
      </trkpt>
      <trkpt lat="47.77739" lon="-3.62612">
        <ele>23</ele>
        <time>2019-07-14T10:12:34Z</time>
      </trkpt>
      <trkpt lat="47.77736" lon="-3.6262">
        <ele>23</ele>
        <time>2019-07-14T10:12:35Z</time>
      </trkpt>
      <trkpt lat="47.77733" lon="-3.62628">
        <ele>23</ele>
        <time>2019-07-14T10:12:36Z</time>
      </trkpt>
      <trkpt lat="47.7773" lon="-3.62635">
        <ele>23</ele>
        <time>2019-07-14T10:12:37Z</time>
      </trkpt>
      <trkpt lat="47.77727" lon="-3.62643">
        <ele>22</ele>
        <time>2019-07-14T10:12:38Z</time>
      </trkpt>
      <trkpt lat="47.77725" lon="-3.6265">
        <ele>22</ele>
        <time>2019-07-14T10:12:39Z</time>
      </trkpt>
      <trkpt lat="47.77722" lon="-3.62654">
        <ele>22</ele>
        <time>2019-07-14T10:12:40Z</time>
      </trkpt>
      <trkpt lat="47.77718" lon="-3.62656">
        <ele>22</ele>
        <time>2019-07-14T10:12:41Z</time>
      </trkpt>
      <trkpt lat="47.77714" lon="-3.62657">
        <ele>22</ele>
        <time>2019-07-14T10:12:42Z</time>
      </trkpt>
      <trkpt lat="47.7771" lon="-3.62658">
        <ele>22</ele>
        <time>2019-07-14T10:12:43Z</time>
      </trkpt>
      <trkpt lat="47.77707" lon="-3.6266">
        <ele>22</ele>
        <time>2019-07-14T10:12:44Z</time>
      </trkpt>
      <trkpt lat="47.77703" lon="-3.62662">
        <ele>22</ele>
        <time>2019-07-14T10:12:45Z</time>
      </trkpt>
      <trkpt lat="47.777" lon="-3.62665">
        <ele>22</ele>
        <time>2019-07-14T10:12:46Z</time>
      </trkpt>
      <trkpt lat="47.77698" lon="-3.62668">
        <ele>22</ele>
        <time>2019-07-14T10:12:47Z</time>
      </trkpt>
      <trkpt lat="47.77697" lon="-3.6267">
        <ele>22</ele>
        <time>2019-07-14T10:12:48Z</time>
      </trkpt>
      <trkpt lat="47.77697" lon="-3.62673">
        <ele>22</ele>
        <time>2019-07-14T10:12:49Z</time>
      </trkpt>
      <trkpt lat="47.77697" lon="-3.62674">
        <ele>22</ele>
        <time>2019-07-14T10:12:50Z</time>
      </trkpt>
      <trkpt lat="47.77699" lon="-3.62676">
        <ele>22</ele>
        <time>2019-07-14T10:12:51Z</time>
      </trkpt>
      <trkpt lat="47.777" lon="-3.62677">
        <ele>23</ele>
        <time>2019-07-14T10:12:52Z</time>
      </trkpt>
      <trkpt lat="47.77702" lon="-3.62678">
        <ele>23</ele>
        <time>2019-07-14T10:12:53Z</time>
      </trkpt>
      <trkpt lat="47.77704" lon="-3.6268">
        <ele>23</ele>
        <time>2019-07-14T10:12:54Z</time>
      </trkpt>
      <trkpt lat="47.77707" lon="-3.62681">
        <ele>23</ele>
        <time>2019-07-14T10:12:55Z</time>
      </trkpt>
      <trkpt lat="47.7771" lon="-3.62684">
        <ele>23</ele>
        <time>2019-07-14T10:12:56Z</time>
      </trkpt>
      <trkpt lat="47.77713" lon="-3.62686">
        <ele>23</ele>
        <time>2019-07-14T10:12:57Z</time>
      </trkpt>
      <trkpt lat="47.77717" lon="-3.62689">
        <ele>23</ele>
        <time>2019-07-14T10:12:58Z</time>
      </trkpt>
      <trkpt lat="47.7772" lon="-3.62691">
        <ele>23</ele>
        <time>2019-07-14T10:12:59Z</time>
      </trkpt>
      <trkpt lat="47.77724" lon="-3.62693">
        <ele>23</ele>
        <time>2019-07-14T10:13:00Z</time>
      </trkpt>
      <trkpt lat="47.7773" lon="-3.62695">
        <ele>23</ele>
        <time>2019-07-14T10:13:01Z</time>
      </trkpt>
      <trkpt lat="47.77734" lon="-3.62696">
        <ele>23</ele>
        <time>2019-07-14T10:13:02Z</time>
      </trkpt>
      <trkpt lat="47.7774" lon="-3.62697">
        <ele>23</ele>
        <time>2019-07-14T10:13:03Z</time>
      </trkpt>
      <trkpt lat="47.77745" lon="-3.62697">
        <ele>24</ele>
        <time>2019-07-14T10:13:04Z</time>
      </trkpt>
      <trkpt lat="47.7775" lon="-3.62696">
        <ele>24</ele>
        <time>2019-07-14T10:13:05Z</time>
      </trkpt>
      <trkpt lat="47.77755" lon="-3.62696">
        <ele>24</ele>
        <time>2019-07-14T10:13:06Z</time>
      </trkpt>
      <trkpt lat="47.77759" lon="-3.62697">
        <ele>24</ele>
        <time>2019-07-14T10:13:07Z</time>
      </trkpt>
      <trkpt lat="47.77763" lon="-3.62697">
        <ele>24</ele>
        <time>2019-07-14T10:13:08Z</time>
      </trkpt>
      <trkpt lat="47.77767" lon="-3.62697">
        <ele>24</ele>
        <time>2019-07-14T10:13:09Z</time>
      </trkpt>
      <trkpt lat="47.77771" lon="-3.62697">
        <ele>24</ele>
        <time>2019-07-14T10:13:10Z</time>
      </trkpt>
      <trkpt lat="47.77775" lon="-3.62696">
        <ele>24</ele>
        <time>2019-07-14T10:13:11Z</time>
      </trkpt>
      <trkpt lat="47.7778" lon="-3.62695">
        <ele>24</ele>
        <time>2019-07-14T10:13:12Z</time>
      </trkpt>
      <trkpt lat="47.77784" lon="-3.62696">
        <ele>24</ele>
        <time>2019-07-14T10:13:13Z</time>
      </trkpt>
      <trkpt lat="47.77788" lon="-3.62697">
        <ele>24</ele>
        <time>2019-07-14T10:13:14Z</time>
      </trkpt>
      <trkpt lat="47.77792" lon="-3.62696">
        <ele>24</ele>
        <time>2019-07-14T10:13:15Z</time>
      </trkpt>
      <trkpt lat="47.77799" lon="-3.62692">
        <ele>24</ele>
        <time>2019-07-14T10:13:16Z</time>
      </trkpt>
      <trkpt lat="47.77806" lon="-3.62687">
        <ele>24</ele>
        <time>2019-07-14T10:13:17Z</time>
      </trkpt>
      <trkpt lat="47.77813" lon="-3.62683">
        <ele>24</ele>
        <time>2019-07-14T10:13:18Z</time>
      </trkpt>
      <trkpt lat="47.7782" lon="-3.6268">
        <ele>24</ele>
        <time>2019-07-14T10:13:19Z</time>
      </trkpt>
      <trkpt lat="47.77828" lon="-3.62678">
        <ele>24</ele>
        <time>2019-07-14T10:13:20Z</time>
      </trkpt>
      <trkpt lat="47.77835" lon="-3.62678">
        <ele>24</ele>
        <time>2019-07-14T10:13:21Z</time>
      </trkpt>
      <trkpt lat="47.77841" lon="-3.62681">
        <ele>24</ele>
        <time>2019-07-14T10:13:22Z</time>
      </trkpt>
      <trkpt lat="47.77846" lon="-3.62685">
        <ele>25</ele>
        <time>2019-07-14T10:13:23Z</time>
      </trkpt>
      <trkpt lat="47.77852" lon="-3.6269">
        <ele>25</ele>
        <time>2019-07-14T10:13:24Z</time>
      </trkpt>
      <trkpt lat="47.77857" lon="-3.62695">
        <ele>25</ele>
        <time>2019-07-14T10:13:25Z</time>
      </trkpt>
      <trkpt lat="47.77862" lon="-3.627">
        <ele>25</ele>
        <time>2019-07-14T10:13:26Z</time>
      </trkpt>
      <trkpt lat="47.77867" lon="-3.62704">
        <ele>25</ele>
        <time>2019-07-14T10:13:27Z</time>
      </trkpt>
      <trkpt lat="47.77871" lon="-3.62708">
        <ele>26</ele>
        <time>2019-07-14T10:13:28Z</time>
      </trkpt>
      <trkpt lat="47.77875" lon="-3.62712">
        <ele>26</ele>
        <time>2019-07-14T10:13:29Z</time>
      </trkpt>
      <trkpt lat="47.77879" lon="-3.62714">
        <ele>26</ele>
        <time>2019-07-14T10:13:30Z</time>
      </trkpt>
      <trkpt lat="47.77883" lon="-3.62716">
        <ele>26</ele>
        <time>2019-07-14T10:13:31Z</time>
      </trkpt>
      <trkpt lat="47.77888" lon="-3.62719">
        <ele>26</ele>
        <time>2019-07-14T10:13:32Z</time>
      </trkpt>
      <trkpt lat="47.77893" lon="-3.62721">
        <ele>26</ele>
        <time>2019-07-14T10:13:33Z</time>
      </trkpt>
      <trkpt lat="47.77898" lon="-3.62723">
        <ele>26</ele>
        <time>2019-07-14T10:13:34Z</time>
      </trkpt>
      <trkpt lat="47.77904" lon="-3.62724">
        <ele>26</ele>
        <time>2019-07-14T10:13:35Z</time>
      </trkpt>
      <trkpt lat="47.7791" lon="-3.62724">
        <ele>26</ele>
        <time>2019-07-14T10:13:36Z</time>
      </trkpt>
      <trkpt lat="47.77916" lon="-3.62724">
        <ele>26</ele>
        <time>2019-07-14T10:13:37Z</time>
      </trkpt>
      <trkpt lat="47.77922" lon="-3.62723">
        <ele>26</ele>
        <time>2019-07-14T10:13:38Z</time>
      </trkpt>
      <trkpt lat="47.77927" lon="-3.62723">
        <ele>26</ele>
        <time>2019-07-14T10:13:39Z</time>
      </trkpt>
      <trkpt lat="47.77932" lon="-3.62722">
        <ele>26</ele>
        <time>2019-07-14T10:13:40Z</time>
      </trkpt>
      <trkpt lat="47.77937" lon="-3.62721">
        <ele>25</ele>
        <time>2019-07-14T10:13:41Z</time>
      </trkpt>
      <trkpt lat="47.7794" lon="-3.62718">
        <ele>26</ele>
        <time>2019-07-14T10:13:42Z</time>
      </trkpt>
      <trkpt lat="47.77945" lon="-3.62714">
        <ele>26</ele>
        <time>2019-07-14T10:13:43Z</time>
      </trkpt>
      <trkpt lat="47.7795" lon="-3.62709">
        <ele>25</ele>
        <time>2019-07-14T10:13:44Z</time>
      </trkpt>
      <trkpt lat="47.77956" lon="-3.62704">
        <ele>25</ele>
        <time>2019-07-14T10:13:45Z</time>
      </trkpt>
      <trkpt lat="47.77962" lon="-3.62698">
        <ele>25</ele>
        <time>2019-07-14T10:13:46Z</time>
      </trkpt>
      <trkpt lat="47.77968" lon="-3.62693">
        <ele>25</ele>
        <time>2019-07-14T10:13:47Z</time>
      </trkpt>
      <trkpt lat="47.77973" lon="-3.62687">
        <ele>25</ele>
        <time>2019-07-14T10:13:48Z</time>
      </trkpt>
      <trkpt lat="47.77978" lon="-3.62681">
        <ele>25</ele>
        <time>2019-07-14T10:13:49Z</time>
      </trkpt>
      <trkpt lat="47.77984" lon="-3.62676">
        <ele>25</ele>
        <time>2019-07-14T10:13:50Z</time>
      </trkpt>
      <trkpt lat="47.7799" lon="-3.6267">
        <ele>25</ele>
        <time>2019-07-14T10:13:51Z</time>
      </trkpt>
      <trkpt lat="47.77996" lon="-3.62665">
        <ele>25</ele>
        <time>2019-07-14T10:13:52Z</time>
      </trkpt>
      <trkpt lat="47.78003" lon="-3.62661">
        <ele>25</ele>
        <time>2019-07-14T10:13:53Z</time>
      </trkpt>
      <trkpt lat="47.78008" lon="-3.62658">
        <ele>25</ele>
        <time>2019-07-14T10:13:54Z</time>
      </trkpt>
      <trkpt lat="47.78013" lon="-3.62657">
        <ele>25</ele>
        <time>2019-07-14T10:13:55Z</time>
      </trkpt>
      <trkpt lat="47.78016" lon="-3.62658">
        <ele>24</ele>
        <time>2019-07-14T10:13:56Z</time>
      </trkpt>
      <trkpt lat="47.78018" lon="-3.62663">
        <ele>24</ele>
        <time>2019-07-14T10:13:57Z</time>
      </trkpt>
      <trkpt lat="47.78019" lon="-3.62669">
        <ele>24</ele>
        <time>2019-07-14T10:13:58Z</time>
      </trkpt>
      <trkpt lat="47.78021" lon="-3.62677">
        <ele>24</ele>
        <time>2019-07-14T10:13:59Z</time>
      </trkpt>
      <trkpt lat="47.78024" lon="-3.62685">
        <ele>23</ele>
        <time>2019-07-14T10:14:00Z</time>
      </trkpt>
      <trkpt lat="47.78026" lon="-3.62694">
        <ele>23</ele>
        <time>2019-07-14T10:14:01Z</time>
      </trkpt>
      <trkpt lat="47.7803" lon="-3.62703">
        <ele>22</ele>
        <time>2019-07-14T10:14:02Z</time>
      </trkpt>
      <trkpt lat="47.78035" lon="-3.62712">
        <ele>22</ele>
        <time>2019-07-14T10:14:03Z</time>
      </trkpt>
      <trkpt lat="47.78039" lon="-3.6272">
        <ele>21</ele>
        <time>2019-07-14T10:14:04Z</time>
      </trkpt>
      <trkpt lat="47.78043" lon="-3.62727">
        <ele>21</ele>
        <time>2019-07-14T10:14:05Z</time>
      </trkpt>
      <trkpt lat="47.78048" lon="-3.62734">
        <ele>21</ele>
        <time>2019-07-14T10:14:06Z</time>
      </trkpt>
      <trkpt lat="47.78052" lon="-3.6274">
        <ele>20</ele>
        <time>2019-07-14T10:14:07Z</time>
      </trkpt>
      <trkpt lat="47.78056" lon="-3.62745">
        <ele>20</ele>
        <time>2019-07-14T10:14:08Z</time>
      </trkpt>
      <trkpt lat="47.7806" lon="-3.6275">
        <ele>20</ele>
        <time>2019-07-14T10:14:09Z</time>
      </trkpt>
      <trkpt lat="47.78063" lon="-3.62755">
        <ele>19</ele>
        <time>2019-07-14T10:14:10Z</time>
      </trkpt>
      <trkpt lat="47.78066" lon="-3.62758">
        <ele>19</ele>
        <time>2019-07-14T10:14:11Z</time>
      </trkpt>
      <trkpt lat="47.78068" lon="-3.62761">
        <ele>19</ele>
        <time>2019-07-14T10:14:12Z</time>
      </trkpt>
      <trkpt lat="47.7807" lon="-3.62763">
        <ele>19</ele>
        <time>2019-07-14T10:14:13Z</time>
      </trkpt>
      <trkpt lat="47.78072" lon="-3.62765">
        <ele>19</ele>
        <time>2019-07-14T10:14:14Z</time>
      </trkpt>
      <trkpt lat="47.78073" lon="-3.62766">
        <ele>19</ele>
        <time>2019-07-14T10:14:15Z</time>
      </trkpt>
      <trkpt lat="47.78074" lon="-3.62768">
        <ele>19</ele>
        <time>2019-07-14T10:14:16Z</time>
      </trkpt>
      <trkpt lat="47.78075" lon="-3.62769">
        <ele>19</ele>
        <time>2019-07-14T10:14:17Z</time>
      </trkpt>
      <trkpt lat="47.78075" lon="-3.6277">
        <ele>19</ele>
        <time>2019-07-14T10:14:18Z</time>
      </trkpt>
      <trkpt lat="47.78074" lon="-3.6277">
        <ele>19</ele>
        <time>2019-07-14T10:14:19Z</time>
      </trkpt>
      <trkpt lat="47.78073" lon="-3.62769">
        <ele>19</ele>
        <time>2019-07-14T10:14:20Z</time>
      </trkpt>
      <trkpt lat="47.78071" lon="-3.62766">
        <ele>19</ele>
        <time>2019-07-14T10:14:21Z</time>
      </trkpt>
      <trkpt lat="47.7807" lon="-3.62763">
        <ele>19</ele>
        <time>2019-07-14T10:14:22Z</time>
      </trkpt>
      <trkpt lat="47.78068" lon="-3.62762">
        <ele>19</ele>
        <time>2019-07-14T10:14:23Z</time>
      </trkpt>
      <trkpt lat="47.78068" lon="-3.62764">
        <ele>19</ele>
        <time>2019-07-14T10:14:24Z</time>
      </trkpt>
      <trkpt lat="47.78067" lon="-3.62766">
        <ele>19</ele>
        <time>2019-07-14T10:14:25Z</time>
      </trkpt>
      <trkpt lat="47.78067" lon="-3.6277">
        <ele>19</ele>
        <time>2019-07-14T10:14:26Z</time>
      </trkpt>
      <trkpt lat="47.78067" lon="-3.62774">
        <ele>18</ele>
        <time>2019-07-14T10:14:27Z</time>
      </trkpt>
      <trkpt lat="47.78067" lon="-3.62779">
        <ele>18</ele>
        <time>2019-07-14T10:14:28Z</time>
      </trkpt>
      <trkpt lat="47.78065" lon="-3.62783">
        <ele>18</ele>
        <time>2019-07-14T10:14:29Z</time>
      </trkpt>
      <trkpt lat="47.78064" lon="-3.62786">
        <ele>18</ele>
        <time>2019-07-14T10:14:30Z</time>
      </trkpt>
      <trkpt lat="47.78062" lon="-3.62791">
        <ele>18</ele>
        <time>2019-07-14T10:14:31Z</time>
      </trkpt>
      <trkpt lat="47.78061" lon="-3.62795">
        <ele>18</ele>
        <time>2019-07-14T10:14:32Z</time>
      </trkpt>
      <trkpt lat="47.78061" lon="-3.62798">
        <ele>18</ele>
        <time>2019-07-14T10:14:33Z</time>
      </trkpt>
      <trkpt lat="47.78061" lon="-3.62801">
        <ele>18</ele>
        <time>2019-07-14T10:14:34Z</time>
      </trkpt>
      <trkpt lat="47.78061" lon="-3.62803">
        <ele>18</ele>
        <time>2019-07-14T10:14:35Z</time>
      </trkpt>
      <trkpt lat="47.78062" lon="-3.62805">
        <ele>17</ele>
        <time>2019-07-14T10:14:36Z</time>
      </trkpt>
      <trkpt lat="47.78062" lon="-3.62807">
        <ele>17</ele>
        <time>2019-07-14T10:14:37Z</time>
      </trkpt>
      <trkpt lat="47.78062" lon="-3.62808">
        <ele>17</ele>
        <time>2019-07-14T10:14:38Z</time>
      </trkpt>
      <trkpt lat="47.78062" lon="-3.62809">
        <ele>17</ele>
        <time>2019-07-14T10:14:39Z</time>
      </trkpt>
      <trkpt lat="47.78062" lon="-3.62812">
        <ele>17</ele>
        <time>2019-07-14T10:14:40Z</time>
      </trkpt>
      <trkpt lat="47.78062" lon="-3.62814">
        <ele>17</ele>
        <time>2019-07-14T10:14:41Z</time>
      </trkpt>
      <trkpt lat="47.78063" lon="-3.62818">
        <ele>17</ele>
        <time>2019-07-14T10:14:42Z</time>
      </trkpt>
      <trkpt lat="47.78064" lon="-3.62822">
        <ele>17</ele>
        <time>2019-07-14T10:14:43Z</time>
      </trkpt>
      <trkpt lat="47.78065" lon="-3.62827">
        <ele>17</ele>
        <time>2019-07-14T10:14:44Z</time>
      </trkpt>
      <trkpt lat="47.78066" lon="-3.62831">
        <ele>18</ele>
        <time>2019-07-14T10:14:45Z</time>
      </trkpt>
      <trkpt lat="47.78067" lon="-3.62835">
        <ele>18</ele>
        <time>2019-07-14T10:14:46Z</time>
      </trkpt>
      <trkpt lat="47.78068" lon="-3.62838">
        <ele>18</ele>
        <time>2019-07-14T10:14:47Z</time>
      </trkpt>
      <trkpt lat="47.78069" lon="-3.62842">
        <ele>18</ele>
        <time>2019-07-14T10:14:48Z</time>
      </trkpt>
      <trkpt lat="47.78071" lon="-3.62846">
        <ele>18</ele>
        <time>2019-07-14T10:14:49Z</time>
      </trkpt>
      <trkpt lat="47.78071" lon="-3.6285">
        <ele>18</ele>
        <time>2019-07-14T10:14:50Z</time>
      </trkpt>
      <trkpt lat="47.78072" lon="-3.62853">
        <ele>18</ele>
        <time>2019-07-14T10:14:51Z</time>
      </trkpt>
      <trkpt lat="47.78072" lon="-3.62856">
        <ele>18</ele>
        <time>2019-07-14T10:14:52Z</time>
      </trkpt>
      <trkpt lat="47.78073" lon="-3.6286">
        <ele>18</ele>
        <time>2019-07-14T10:14:53Z</time>
      </trkpt>
      <trkpt lat="47.78073" lon="-3.62864">
        <ele>18</ele>
        <time>2019-07-14T10:14:54Z</time>
      </trkpt>
      <trkpt lat="47.78074" lon="-3.62868">
        <ele>18</ele>
        <time>2019-07-14T10:14:55Z</time>
      </trkpt>
      <trkpt lat="47.78074" lon="-3.62872">
        <ele>18</ele>
        <time>2019-07-14T10:14:56Z</time>
      </trkpt>
      <trkpt lat="47.78074" lon="-3.62876">
        <ele>17</ele>
        <time>2019-07-14T10:14:57Z</time>
      </trkpt>
      <trkpt lat="47.78074" lon="-3.6288">
        <ele>17</ele>
        <time>2019-07-14T10:14:58Z</time>
      </trkpt>
      <trkpt lat="47.78074" lon="-3.62883">
        <ele>17</ele>
        <time>2019-07-14T10:14:59Z</time>
      </trkpt>
      <trkpt lat="47.78074" lon="-3.62886">
        <ele>17</ele>
        <time>2019-07-14T10:15:00Z</time>
      </trkpt>
      <trkpt lat="47.78073" lon="-3.62889">
        <ele>17</ele>
        <time>2019-07-14T10:15:01Z</time>
      </trkpt>
      <trkpt lat="47.78072" lon="-3.62891">
        <ele>17</ele>
        <time>2019-07-14T10:15:02Z</time>
      </trkpt>
      <trkpt lat="47.7807" lon="-3.62893">
        <ele>17</ele>
        <time>2019-07-14T10:15:03Z</time>
      </trkpt>
      <trkpt lat="47.78067" lon="-3.62894">
        <ele>17</ele>
        <time>2019-07-14T10:15:04Z</time>
      </trkpt>
      <trkpt lat="47.78063" lon="-3.62896">
        <ele>17</ele>
        <time>2019-07-14T10:15:05Z</time>
      </trkpt>
      <trkpt lat="47.78059" lon="-3.62898">
        <ele>18</ele>
        <time>2019-07-14T10:15:06Z</time>
      </trkpt>
      <trkpt lat="47.78055" lon="-3.629">
        <ele>18</ele>
        <time>2019-07-14T10:15:07Z</time>
      </trkpt>
      <trkpt lat="47.78051" lon="-3.62901">
        <ele>18</ele>
        <time>2019-07-14T10:15:08Z</time>
      </trkpt>
      <trkpt lat="47.78048" lon="-3.62901">
        <ele>19</ele>
        <time>2019-07-14T10:15:09Z</time>
      </trkpt>
      <trkpt lat="47.78045" lon="-3.62903">
        <ele>19</ele>
        <time>2019-07-14T10:15:10Z</time>
      </trkpt>
      <trkpt lat="47.78042" lon="-3.62905">
        <ele>19</ele>
        <time>2019-07-14T10:15:11Z</time>
      </trkpt>
      <trkpt lat="47.78039" lon="-3.62907">
        <ele>19</ele>
        <time>2019-07-14T10:15:12Z</time>
      </trkpt>
      <trkpt lat="47.78036" lon="-3.62908">
        <ele>19</ele>
        <time>2019-07-14T10:15:13Z</time>
      </trkpt>
      <trkpt lat="47.78032" lon="-3.62909">
        <ele>20</ele>
        <time>2019-07-14T10:15:14Z</time>
      </trkpt>
      <trkpt lat="47.78028" lon="-3.62909">
        <ele>20</ele>
        <time>2019-07-14T10:15:15Z</time>
      </trkpt>
      <trkpt lat="47.78024" lon="-3.62909">
        <ele>20</ele>
        <time>2019-07-14T10:15:16Z</time>
      </trkpt>
      <trkpt lat="47.7802" lon="-3.62907">
        <ele>20</ele>
        <time>2019-07-14T10:15:17Z</time>
      </trkpt>
      <trkpt lat="47.78017" lon="-3.62907">
        <ele>20</ele>
        <time>2019-07-14T10:15:18Z</time>
      </trkpt>
      <trkpt lat="47.78014" lon="-3.62907">
        <ele>20</ele>
        <time>2019-07-14T10:15:19Z</time>
      </trkpt>
      <trkpt lat="47.78011" lon="-3.62906">
        <ele>20</ele>
        <time>2019-07-14T10:15:20Z</time>
      </trkpt>
      <trkpt lat="47.78008" lon="-3.62904">
        <ele>20</ele>
        <time>2019-07-14T10:15:21Z</time>
      </trkpt>
      <trkpt lat="47.78005" lon="-3.62903">
        <ele>20</ele>
        <time>2019-07-14T10:15:22Z</time>
      </trkpt>
      <trkpt lat="47.78001" lon="-3.62905">
        <ele>21</ele>
        <time>2019-07-14T10:15:23Z</time>
      </trkpt>
      <trkpt lat="47.77999" lon="-3.62909">
        <ele>21</ele>
        <time>2019-07-14T10:15:24Z</time>
      </trkpt>
      <trkpt lat="47.77996" lon="-3.62912">
        <ele>21</ele>
        <time>2019-07-14T10:15:25Z</time>
      </trkpt>
      <trkpt lat="47.77993" lon="-3.62914">
        <ele>21</ele>
        <time>2019-07-14T10:15:26Z</time>
      </trkpt>
      <trkpt lat="47.77991" lon="-3.62914">
        <ele>21</ele>
        <time>2019-07-14T10:15:27Z</time>
      </trkpt>
      <trkpt lat="47.77989" lon="-3.62913">
        <ele>21</ele>
        <time>2019-07-14T10:15:28Z</time>
      </trkpt>
      <trkpt lat="47.77986" lon="-3.62913">
        <ele>21</ele>
        <time>2019-07-14T10:15:29Z</time>
      </trkpt>
      <trkpt lat="47.77983" lon="-3.62912">
        <ele>21</ele>
        <time>2019-07-14T10:15:30Z</time>
      </trkpt>
      <trkpt lat="47.7798" lon="-3.62911">
        <ele>21</ele>
        <time>2019-07-14T10:15:31Z</time>
      </trkpt>
      <trkpt lat="47.77976" lon="-3.62909">
        <ele>20</ele>
        <time>2019-07-14T10:15:32Z</time>
      </trkpt>
      <trkpt lat="47.77971" lon="-3.62908">
        <ele>20</ele>
        <time>2019-07-14T10:15:33Z</time>
      </trkpt>
      <trkpt lat="47.77965" lon="-3.6291">
        <ele>20</ele>
        <time>2019-07-14T10:15:34Z</time>
      </trkpt>
      <trkpt lat="47.7796" lon="-3.62913">
        <ele>20</ele>
        <time>2019-07-14T10:15:35Z</time>
      </trkpt>
      <trkpt lat="47.77955" lon="-3.62916">
        <ele>20</ele>
        <time>2019-07-14T10:15:36Z</time>
      </trkpt>
      <trkpt lat="47.7795" lon="-3.6292">
        <ele>20</ele>
        <time>2019-07-14T10:15:37Z</time>
      </trkpt>
      <trkpt lat="47.77944" lon="-3.62926">
        <ele>20</ele>
        <time>2019-07-14T10:15:38Z</time>
      </trkpt>
      <trkpt lat="47.77939" lon="-3.62931">
        <ele>20</ele>
        <time>2019-07-14T10:15:39Z</time>
      </trkpt>
      <trkpt lat="47.77934" lon="-3.62937">
        <ele>20</ele>
        <time>2019-07-14T10:15:40Z</time>
      </trkpt>
      <trkpt lat="47.7793" lon="-3.62943">
        <ele>19</ele>
        <time>2019-07-14T10:15:41Z</time>
      </trkpt>
      <trkpt lat="47.77925" lon="-3.62949">
        <ele>19</ele>
        <time>2019-07-14T10:15:42Z</time>
      </trkpt>
      <trkpt lat="47.77921" lon="-3.62955">
        <ele>20</ele>
        <time>2019-07-14T10:15:43Z</time>
      </trkpt>
      <trkpt lat="47.77917" lon="-3.62961">
        <ele>20</ele>
        <time>2019-07-14T10:15:44Z</time>
      </trkpt>
      <trkpt lat="47.77913" lon="-3.62966">
        <ele>20</ele>
        <time>2019-07-14T10:15:45Z</time>
      </trkpt>
      <trkpt lat="47.77909" lon="-3.62972">
        <ele>20</ele>
        <time>2019-07-14T10:15:46Z</time>
      </trkpt>
      <trkpt lat="47.77905" lon="-3.62978">
        <ele>20</ele>
        <time>2019-07-14T10:15:47Z</time>
      </trkpt>
      <trkpt lat="47.77901" lon="-3.62982">
        <ele>20</ele>
        <time>2019-07-14T10:15:48Z</time>
      </trkpt>
      <trkpt lat="47.77898" lon="-3.62984">
        <ele>20</ele>
        <time>2019-07-14T10:15:49Z</time>
      </trkpt>
      <trkpt lat="47.77895" lon="-3.62984">
        <ele>20</ele>
        <time>2019-07-14T10:15:50Z</time>
      </trkpt>
      <trkpt lat="47.77894" lon="-3.62984">
        <ele>20</ele>
        <time>2019-07-14T10:15:51Z</time>
      </trkpt>
      <trkpt lat="47.77891" lon="-3.62983">
        <ele>20</ele>
        <time>2019-07-14T10:15:52Z</time>
      </trkpt>
      <trkpt lat="47.77888" lon="-3.62982">
        <ele>20</ele>
        <time>2019-07-14T10:15:53Z</time>
      </trkpt>
      <trkpt lat="47.77886" lon="-3.6298">
        <ele>20</ele>
        <time>2019-07-14T10:15:54Z</time>
      </trkpt>
      <trkpt lat="47.77883" lon="-3.62978">
        <ele>20</ele>
        <time>2019-07-14T10:15:55Z</time>
      </trkpt>
      <trkpt lat="47.77881" lon="-3.62976">
        <ele>20</ele>
        <time>2019-07-14T10:15:56Z</time>
      </trkpt>
      <trkpt lat="47.77878" lon="-3.62975">
        <ele>20</ele>
        <time>2019-07-14T10:15:57Z</time>
      </trkpt>
      <trkpt lat="47.77875" lon="-3.62974">
        <ele>20</ele>
        <time>2019-07-14T10:15:58Z</time>
      </trkpt>
      <trkpt lat="47.77873" lon="-3.62973">
        <ele>20</ele>
        <time>2019-07-14T10:15:59Z</time>
      </trkpt>
      <trkpt lat="47.77871" lon="-3.62971">
        <ele>20</ele>
        <time>2019-07-14T10:16:00Z</time>
      </trkpt>
      <trkpt lat="47.77868" lon="-3.6297">
        <ele>20</ele>
        <time>2019-07-14T10:16:01Z</time>
      </trkpt>
      <trkpt lat="47.77866" lon="-3.62969">
        <ele>21</ele>
        <time>2019-07-14T10:16:02Z</time>
      </trkpt>
      <trkpt lat="47.77864" lon="-3.62969">
        <ele>21</ele>
        <time>2019-07-14T10:16:03Z</time>
      </trkpt>
      <trkpt lat="47.77861" lon="-3.62968">
        <ele>21</ele>
        <time>2019-07-14T10:16:04Z</time>
      </trkpt>
      <trkpt lat="47.77858" lon="-3.62967">
        <ele>21</ele>
        <time>2019-07-14T10:16:05Z</time>
      </trkpt>
      <trkpt lat="47.77856" lon="-3.62968">
        <ele>21</ele>
        <time>2019-07-14T10:16:06Z</time>
      </trkpt>
      <trkpt lat="47.77853" lon="-3.62967">
        <ele>21</ele>
        <time>2019-07-14T10:16:07Z</time>
      </trkpt>
      <trkpt lat="47.7785" lon="-3.62968">
        <ele>21</ele>
        <time>2019-07-14T10:16:08Z</time>
      </trkpt>
      <trkpt lat="47.77847" lon="-3.62969">
        <ele>21</ele>
        <time>2019-07-14T10:16:09Z</time>
      </trkpt>
      <trkpt lat="47.77843" lon="-3.6297">
        <ele>22</ele>
        <time>2019-07-14T10:16:10Z</time>
      </trkpt>
      <trkpt lat="47.7784" lon="-3.62971">
        <ele>22</ele>
        <time>2019-07-14T10:16:11Z</time>
      </trkpt>
      <trkpt lat="47.77836" lon="-3.62972">
        <ele>22</ele>
        <time>2019-07-14T10:16:12Z</time>
      </trkpt>
      <trkpt lat="47.77832" lon="-3.62973">
        <ele>22</ele>
        <time>2019-07-14T10:16:13Z</time>
      </trkpt>
      <trkpt lat="47.77828" lon="-3.62973">
        <ele>23</ele>
        <time>2019-07-14T10:16:14Z</time>
      </trkpt>
      <trkpt lat="47.77824" lon="-3.62974">
        <ele>23</ele>
        <time>2019-07-14T10:16:15Z</time>
      </trkpt>
      <trkpt lat="47.7782" lon="-3.62975">
        <ele>23</ele>
        <time>2019-07-14T10:16:16Z</time>
      </trkpt>
      <trkpt lat="47.77816" lon="-3.62976">
        <ele>23</ele>
        <time>2019-07-14T10:16:17Z</time>
      </trkpt>
      <trkpt lat="47.77812" lon="-3.62977">
        <ele>23</ele>
        <time>2019-07-14T10:16:18Z</time>
      </trkpt>
      <trkpt lat="47.77808" lon="-3.62978">
        <ele>23</ele>
        <time>2019-07-14T10:16:19Z</time>
      </trkpt>
      <trkpt lat="47.77804" lon="-3.62979">
        <ele>24</ele>
        <time>2019-07-14T10:16:20Z</time>
      </trkpt>
      <trkpt lat="47.77801" lon="-3.6298">
        <ele>24</ele>
        <time>2019-07-14T10:16:21Z</time>
      </trkpt>
      <trkpt lat="47.77797" lon="-3.6298">
        <ele>24</ele>
        <time>2019-07-14T10:16:22Z</time>
      </trkpt>
      <trkpt lat="47.77793" lon="-3.62982">
        <ele>24</ele>
        <time>2019-07-14T10:16:23Z</time>
      </trkpt>
      <trkpt lat="47.7779" lon="-3.62983">
        <ele>24</ele>
        <time>2019-07-14T10:16:24Z</time>
      </trkpt>
      <trkpt lat="47.77786" lon="-3.62984">
        <ele>24</ele>
        <time>2019-07-14T10:16:25Z</time>
      </trkpt>
      <trkpt lat="47.77782" lon="-3.62985">
        <ele>24</ele>
        <time>2019-07-14T10:16:26Z</time>
      </trkpt>
      <trkpt lat="47.77778" lon="-3.62986">
        <ele>25</ele>
        <time>2019-07-14T10:16:27Z</time>
      </trkpt>
      <trkpt lat="47.77775" lon="-3.62986">
        <ele>25</ele>
        <time>2019-07-14T10:16:28Z</time>
      </trkpt>
      <trkpt lat="47.77772" lon="-3.62986">
        <ele>25</ele>
        <time>2019-07-14T10:16:29Z</time>
      </trkpt>
      <trkpt lat="47.77768" lon="-3.62988">
        <ele>25</ele>
        <time>2019-07-14T10:16:30Z</time>
      </trkpt>
      <trkpt lat="47.77763" lon="-3.6299">
        <ele>26</ele>
        <time>2019-07-14T10:16:31Z</time>
      </trkpt>
      <trkpt lat="47.77759" lon="-3.62992">
        <ele>26</ele>
        <time>2019-07-14T10:16:32Z</time>
      </trkpt>
      <trkpt lat="47.77754" lon="-3.62993">
        <ele>26</ele>
        <time>2019-07-14T10:16:33Z</time>
      </trkpt>
      <trkpt lat="47.7775" lon="-3.62995">
        <ele>26</ele>
        <time>2019-07-14T10:16:34Z</time>
      </trkpt>
      <trkpt lat="47.77745" lon="-3.62996">
        <ele>26</ele>
        <time>2019-07-14T10:16:35Z</time>
      </trkpt>
      <trkpt lat="47.77741" lon="-3.62998">
        <ele>27</ele>
        <time>2019-07-14T10:16:36Z</time>
      </trkpt>
      <trkpt lat="47.77736" lon="-3.62999">
        <ele>27</ele>
        <time>2019-07-14T10:16:37Z</time>
      </trkpt>
      <trkpt lat="47.77732" lon="-3.63002">
        <ele>27</ele>
        <time>2019-07-14T10:16:38Z</time>
      </trkpt>
      <trkpt lat="47.77726" lon="-3.63006">
        <ele>27</ele>
        <time>2019-07-14T10:16:39Z</time>
      </trkpt>
      <trkpt lat="47.77721" lon="-3.63009">
        <ele>27</ele>
        <time>2019-07-14T10:16:40Z</time>
      </trkpt>
      <trkpt lat="47.77716" lon="-3.63009">
        <ele>27</ele>
        <time>2019-07-14T10:16:41Z</time>
      </trkpt>
      <trkpt lat="47.77711" lon="-3.63009">
        <ele>27</ele>
        <time>2019-07-14T10:16:42Z</time>
      </trkpt>
      <trkpt lat="47.77707" lon="-3.63006">
        <ele>27</ele>
        <time>2019-07-14T10:16:43Z</time>
      </trkpt>
      <trkpt lat="47.77704" lon="-3.63003">
        <ele>26</ele>
        <time>2019-07-14T10:16:44Z</time>
      </trkpt>
      <trkpt lat="47.77701" lon="-3.63001">
        <ele>26</ele>
        <time>2019-07-14T10:16:45Z</time>
      </trkpt>
      <trkpt lat="47.77697" lon="-3.62997">
        <ele>26</ele>
        <time>2019-07-14T10:16:46Z</time>
      </trkpt>
      <trkpt lat="47.77694" lon="-3.62992">
        <ele>26</ele>
        <time>2019-07-14T10:16:47Z</time>
      </trkpt>
      <trkpt lat="47.77691" lon="-3.62989">
        <ele>26</ele>
        <time>2019-07-14T10:16:48Z</time>
      </trkpt>
      <trkpt lat="47.77688" lon="-3.62985">
        <ele>26</ele>
        <time>2019-07-14T10:16:49Z</time>
      </trkpt>
      <trkpt lat="47.77685" lon="-3.62982">
        <ele>26</ele>
        <time>2019-07-14T10:16:50Z</time>
      </trkpt>
      <trkpt lat="47.77681" lon="-3.62981">
        <ele>26</ele>
        <time>2019-07-14T10:16:51Z</time>
      </trkpt>
      <trkpt lat="47.77678" lon="-3.62979">
        <ele>26</ele>
        <time>2019-07-14T10:16:52Z</time>
      </trkpt>
      <trkpt lat="47.77674" lon="-3.62976">
        <ele>26</ele>
        <time>2019-07-14T10:16:53Z</time>
      </trkpt>
      <trkpt lat="47.77671" lon="-3.62974">
        <ele>27</ele>
        <time>2019-07-14T10:16:54Z</time>
      </trkpt>
      <trkpt lat="47.77668" lon="-3.62973">
        <ele>27</ele>
        <time>2019-07-14T10:16:55Z</time>
      </trkpt>
      <trkpt lat="47.77664" lon="-3.62973">
        <ele>27</ele>
        <time>2019-07-14T10:16:56Z</time>
      </trkpt>
      <trkpt lat="47.7766" lon="-3.62973">
        <ele>27</ele>
        <time>2019-07-14T10:16:57Z</time>
      </trkpt>
      <trkpt lat="47.77656" lon="-3.62973">
        <ele>27</ele>
        <time>2019-07-14T10:16:58Z</time>
      </trkpt>
      <trkpt lat="47.77651" lon="-3.62973">
        <ele>27</ele>
        <time>2019-07-14T10:16:59Z</time>
      </trkpt>
      <trkpt lat="47.77647" lon="-3.62973">
        <ele>27</ele>
        <time>2019-07-14T10:17:00Z</time>
      </trkpt>
      <trkpt lat="47.77642" lon="-3.62973">
        <ele>27</ele>
        <time>2019-07-14T10:17:01Z</time>
      </trkpt>
      <trkpt lat="47.77638" lon="-3.62972">
        <ele>28</ele>
        <time>2019-07-14T10:17:02Z</time>
      </trkpt>
      <trkpt lat="47.77634" lon="-3.62971">
        <ele>28</ele>
        <time>2019-07-14T10:17:03Z</time>
      </trkpt>
      <trkpt lat="47.7763" lon="-3.6297">
        <ele>28</ele>
        <time>2019-07-14T10:17:04Z</time>
      </trkpt>
      <trkpt lat="47.77626" lon="-3.62968">
        <ele>28</ele>
        <time>2019-07-14T10:17:05Z</time>
      </trkpt>
      <trkpt lat="47.77622" lon="-3.62966">
        <ele>28</ele>
        <time>2019-07-14T10:17:06Z</time>
      </trkpt>
      <trkpt lat="47.77618" lon="-3.62965">
        <ele>28</ele>
        <time>2019-07-14T10:17:07Z</time>
      </trkpt>
      <trkpt lat="47.77614" lon="-3.62964">
        <ele>28</ele>
        <time>2019-07-14T10:17:08Z</time>
      </trkpt>
      <trkpt lat="47.77608" lon="-3.62963">
        <ele>28</ele>
        <time>2019-07-14T10:17:09Z</time>
      </trkpt>
      <trkpt lat="47.77603" lon="-3.62962">
        <ele>28</ele>
        <time>2019-07-14T10:17:10Z</time>
      </trkpt>
      <trkpt lat="47.77599" lon="-3.6296">
        <ele>28</ele>
        <time>2019-07-14T10:17:11Z</time>
      </trkpt>
      <trkpt lat="47.77596" lon="-3.62958">
        <ele>28</ele>
        <time>2019-07-14T10:17:12Z</time>
      </trkpt>
      <trkpt lat="47.77592" lon="-3.62956">
        <ele>28</ele>
        <time>2019-07-14T10:17:13Z</time>
      </trkpt>
      <trkpt lat="47.77588" lon="-3.62953">
        <ele>28</ele>
        <time>2019-07-14T10:17:14Z</time>
      </trkpt>
      <trkpt lat="47.77583" lon="-3.62952">
        <ele>28</ele>
        <time>2019-07-14T10:17:15Z</time>
      </trkpt>
      <trkpt lat="47.77577" lon="-3.62949">
        <ele>28</ele>
        <time>2019-07-14T10:17:16Z</time>
      </trkpt>
      <trkpt lat="47.77572" lon="-3.62946">
        <ele>28</ele>
        <time>2019-07-14T10:17:17Z</time>
      </trkpt>
      <trkpt lat="47.77566" lon="-3.62943">
        <ele>28</ele>
        <time>2019-07-14T10:17:18Z</time>
      </trkpt>
      <trkpt lat="47.7756" lon="-3.6294">
        <ele>27</ele>
        <time>2019-07-14T10:17:19Z</time>
      </trkpt>
      <trkpt lat="47.77554" lon="-3.62938">
        <ele>27</ele>
        <time>2019-07-14T10:17:20Z</time>
      </trkpt>
      <trkpt lat="47.77548" lon="-3.62937">
        <ele>27</ele>
        <time>2019-07-14T10:17:21Z</time>
      </trkpt>
      <trkpt lat="47.77542" lon="-3.62936">
        <ele>26</ele>
        <time>2019-07-14T10:17:22Z</time>
      </trkpt>
      <trkpt lat="47.77535" lon="-3.62934">
        <ele>26</ele>
        <time>2019-07-14T10:17:23Z</time>
      </trkpt>
      <trkpt lat="47.77527" lon="-3.62934">
        <ele>26</ele>
        <time>2019-07-14T10:17:24Z</time>
      </trkpt>
      <trkpt lat="47.77521" lon="-3.62935">
        <ele>26</ele>
        <time>2019-07-14T10:17:25Z</time>
      </trkpt>
      <trkpt lat="47.77516" lon="-3.62937">
        <ele>25</ele>
        <time>2019-07-14T10:17:26Z</time>
      </trkpt>
      <trkpt lat="47.77511" lon="-3.62939">
        <ele>25</ele>
        <time>2019-07-14T10:17:27Z</time>
      </trkpt>
      <trkpt lat="47.77507" lon="-3.62938">
        <ele>25</ele>
        <time>2019-07-14T10:17:28Z</time>
      </trkpt>
      <trkpt lat="47.77503" lon="-3.62937">
        <ele>24</ele>
        <time>2019-07-14T10:17:29Z</time>
      </trkpt>
      <trkpt lat="47.775" lon="-3.62936">
        <ele>24</ele>
        <time>2019-07-14T10:17:30Z</time>
      </trkpt>
      <trkpt lat="47.77496" lon="-3.62934">
        <ele>23</ele>
        <time>2019-07-14T10:17:31Z</time>
      </trkpt>
      <trkpt lat="47.77494" lon="-3.62934">
        <ele>23</ele>
        <time>2019-07-14T10:17:32Z</time>
      </trkpt>
      <trkpt lat="47.77492" lon="-3.62935">
        <ele>22</ele>
        <time>2019-07-14T10:17:33Z</time>
      </trkpt>
      <trkpt lat="47.7749" lon="-3.62934">
        <ele>22</ele>
        <time>2019-07-14T10:17:34Z</time>
      </trkpt>
      <trkpt lat="47.77489" lon="-3.62934">
        <ele>22</ele>
        <time>2019-07-14T10:17:35Z</time>
      </trkpt>
      <trkpt lat="47.77488" lon="-3.62934">
        <ele>22</ele>
        <time>2019-07-14T10:17:36Z</time>
      </trkpt>
      <trkpt lat="47.77487" lon="-3.62933">
        <ele>21</ele>
        <time>2019-07-14T10:17:37Z</time>
      </trkpt>
      <trkpt lat="47.77486" lon="-3.62933">
        <ele>21</ele>
        <time>2019-07-14T10:17:38Z</time>
      </trkpt>
      <trkpt lat="47.77485" lon="-3.62933">
        <ele>21</ele>
        <time>2019-07-14T10:17:39Z</time>
      </trkpt>
      <trkpt lat="47.77484" lon="-3.62933">
        <ele>21</ele>
        <time>2019-07-14T10:17:40Z</time>
      </trkpt>
      <trkpt lat="47.77483" lon="-3.62932">
        <ele>21</ele>
        <time>2019-07-14T10:17:41Z</time>
      </trkpt>
      <trkpt lat="47.77483" lon="-3.62932">
        <ele>21</ele>
        <time>2019-07-14T10:17:42Z</time>
      </trkpt>
      <trkpt lat="47.77482" lon="-3.62932">
        <ele>20</ele>
        <time>2019-07-14T10:17:43Z</time>
      </trkpt>
      <trkpt lat="47.77481" lon="-3.62932">
        <ele>20</ele>
        <time>2019-07-14T10:17:44Z</time>
      </trkpt>
      <trkpt lat="47.7748" lon="-3.62931">
        <ele>20</ele>
        <time>2019-07-14T10:17:45Z</time>
      </trkpt>
      <trkpt lat="47.7748" lon="-3.62931">
        <ele>20</ele>
        <time>2019-07-14T10:17:46Z</time>
      </trkpt>
      <trkpt lat="47.77479" lon="-3.62931">
        <ele>20</ele>
        <time>2019-07-14T10:17:47Z</time>
      </trkpt>
      <trkpt lat="47.77477" lon="-3.62933">
        <ele>20</ele>
        <time>2019-07-14T10:17:48Z</time>
      </trkpt>
      <trkpt lat="47.77476" lon="-3.62935">
        <ele>20</ele>
        <time>2019-07-14T10:17:49Z</time>
      </trkpt>
      <trkpt lat="47.77474" lon="-3.62936">
        <ele>19</ele>
        <time>2019-07-14T10:17:50Z</time>
      </trkpt>
      <trkpt lat="47.77473" lon="-3.62938">
        <ele>19</ele>
        <time>2019-07-14T10:17:51Z</time>
      </trkpt>
      <trkpt lat="47.77472" lon="-3.62939">
        <ele>19</ele>
        <time>2019-07-14T10:17:52Z</time>
      </trkpt>
      <trkpt lat="47.77471" lon="-3.6294">
        <ele>19</ele>
        <time>2019-07-14T10:17:53Z</time>
      </trkpt>
      <trkpt lat="47.77469" lon="-3.62942">
        <ele>19</ele>
        <time>2019-07-14T10:17:54Z</time>
      </trkpt>
      <trkpt lat="47.77467" lon="-3.62945">
        <ele>19</ele>
        <time>2019-07-14T10:17:55Z</time>
      </trkpt>
      <trkpt lat="47.77464" lon="-3.62946">
        <ele>19</ele>
        <time>2019-07-14T10:17:56Z</time>
      </trkpt>
      <trkpt lat="47.7746" lon="-3.62948">
        <ele>19</ele>
        <time>2019-07-14T10:17:57Z</time>
      </trkpt>
      <trkpt lat="47.77457" lon="-3.62948">
        <ele>19</ele>
        <time>2019-07-14T10:17:58Z</time>
      </trkpt>
      <trkpt lat="47.77453" lon="-3.62949">
        <ele>19</ele>
        <time>2019-07-14T10:17:59Z</time>
      </trkpt>
      <trkpt lat="47.7745" lon="-3.6295">
        <ele>19</ele>
        <time>2019-07-14T10:18:00Z</time>
      </trkpt>
      <trkpt lat="47.77447" lon="-3.62952">
        <ele>19</ele>
        <time>2019-07-14T10:18:01Z</time>
      </trkpt>
      <trkpt lat="47.77444" lon="-3.62956">
        <ele>19</ele>
        <time>2019-07-14T10:18:02Z</time>
      </trkpt>
      <trkpt lat="47.77443" lon="-3.6296">
        <ele>19</ele>
        <time>2019-07-14T10:18:03Z</time>
      </trkpt>
      <trkpt lat="47.77441" lon="-3.62964">
        <ele>19</ele>
        <time>2019-07-14T10:18:04Z</time>
      </trkpt>
      <trkpt lat="47.7744" lon="-3.62969">
        <ele>18</ele>
        <time>2019-07-14T10:18:05Z</time>
      </trkpt>
      <trkpt lat="47.77439" lon="-3.62973">
        <ele>18</ele>
        <time>2019-07-14T10:18:06Z</time>
      </trkpt>
      <trkpt lat="47.77437" lon="-3.62977">
        <ele>18</ele>
        <time>2019-07-14T10:18:07Z</time>
      </trkpt>
      <trkpt lat="47.77436" lon="-3.6298">
        <ele>18</ele>
        <time>2019-07-14T10:18:08Z</time>
      </trkpt>
      <trkpt lat="47.77435" lon="-3.62985">
        <ele>18</ele>
        <time>2019-07-14T10:18:09Z</time>
      </trkpt>
      <trkpt lat="47.77434" lon="-3.62989">
        <ele>18</ele>
        <time>2019-07-14T10:18:10Z</time>
      </trkpt>
      <trkpt lat="47.77434" lon="-3.62994">
        <ele>18</ele>
        <time>2019-07-14T10:18:11Z</time>
      </trkpt>
      <trkpt lat="47.77433" lon="-3.62999">
        <ele>18</ele>
        <time>2019-07-14T10:18:12Z</time>
      </trkpt>
      <trkpt lat="47.77433" lon="-3.63004">
        <ele>18</ele>
        <time>2019-07-14T10:18:13Z</time>
      </trkpt>
      <trkpt lat="47.77431" lon="-3.63008">
        <ele>18</ele>
        <time>2019-07-14T10:18:14Z</time>
      </trkpt>
      <trkpt lat="47.7743" lon="-3.63014">
        <ele>18</ele>
        <time>2019-07-14T10:18:15Z</time>
      </trkpt>
      <trkpt lat="47.77429" lon="-3.63019">
        <ele>18</ele>
        <time>2019-07-14T10:18:16Z</time>
      </trkpt>
      <trkpt lat="47.77429" lon="-3.63024">
        <ele>18</ele>
        <time>2019-07-14T10:18:17Z</time>
      </trkpt>
      <trkpt lat="47.77428" lon="-3.63029">
        <ele>18</ele>
        <time>2019-07-14T10:18:18Z</time>
      </trkpt>
      <trkpt lat="47.77428" lon="-3.63034">
        <ele>18</ele>
        <time>2019-07-14T10:18:19Z</time>
      </trkpt>
      <trkpt lat="47.77426" lon="-3.63038">
        <ele>18</ele>
        <time>2019-07-14T10:18:20Z</time>
      </trkpt>
      <trkpt lat="47.77424" lon="-3.63039">
        <ele>17</ele>
        <time>2019-07-14T10:18:21Z</time>
      </trkpt>
      <trkpt lat="47.77421" lon="-3.63039">
        <ele>17</ele>
        <time>2019-07-14T10:18:22Z</time>
      </trkpt>
      <trkpt lat="47.77418" lon="-3.63038">
        <ele>17</ele>
        <time>2019-07-14T10:18:23Z</time>
      </trkpt>
      <trkpt lat="47.77415" lon="-3.63035">
        <ele>17</ele>
        <time>2019-07-14T10:18:24Z</time>
      </trkpt>
      <trkpt lat="47.77411" lon="-3.63032">
        <ele>17</ele>
        <time>2019-07-14T10:18:25Z</time>
      </trkpt>
      <trkpt lat="47.77408" lon="-3.63029">
        <ele>16</ele>
        <time>2019-07-14T10:18:26Z</time>
      </trkpt>
      <trkpt lat="47.77404" lon="-3.63025">
        <ele>16</ele>
        <time>2019-07-14T10:18:27Z</time>
      </trkpt>
      <trkpt lat="47.774" lon="-3.63022">
        <ele>16</ele>
        <time>2019-07-14T10:18:28Z</time>
      </trkpt>
      <trkpt lat="47.77396" lon="-3.63019">
        <ele>16</ele>
        <time>2019-07-14T10:18:29Z</time>
      </trkpt>
      <trkpt lat="47.77392" lon="-3.63015">
        <ele>16</ele>
        <time>2019-07-14T10:18:30Z</time>
      </trkpt>
      <trkpt lat="47.77388" lon="-3.6301">
        <ele>16</ele>
        <time>2019-07-14T10:18:31Z</time>
      </trkpt>
      <trkpt lat="47.77384" lon="-3.63006">
        <ele>16</ele>
        <time>2019-07-14T10:18:32Z</time>
      </trkpt>
      <trkpt lat="47.7738" lon="-3.63002">
        <ele>15</ele>
        <time>2019-07-14T10:18:33Z</time>
      </trkpt>
      <trkpt lat="47.77376" lon="-3.62999">
        <ele>15</ele>
        <time>2019-07-14T10:18:34Z</time>
      </trkpt>
      <trkpt lat="47.77371" lon="-3.62996">
        <ele>15</ele>
        <time>2019-07-14T10:18:35Z</time>
      </trkpt>
      <trkpt lat="47.77366" lon="-3.62992">
        <ele>15</ele>
        <time>2019-07-14T10:18:36Z</time>
      </trkpt>
      <trkpt lat="47.77361" lon="-3.62986">
        <ele>15</ele>
        <time>2019-07-14T10:18:37Z</time>
      </trkpt>
      <trkpt lat="47.77356" lon="-3.62982">
        <ele>15</ele>
        <time>2019-07-14T10:18:38Z</time>
      </trkpt>
      <trkpt lat="47.77351" lon="-3.62982">
        <ele>15</ele>
        <time>2019-07-14T10:18:39Z</time>
      </trkpt>
      <trkpt lat="47.77346" lon="-3.62985">
        <ele>15</ele>
        <time>2019-07-14T10:18:40Z</time>
      </trkpt>
      <trkpt lat="47.77343" lon="-3.62989">
        <ele>15</ele>
        <time>2019-07-14T10:18:41Z</time>
      </trkpt>
      <trkpt lat="47.77342" lon="-3.62993">
        <ele>15</ele>
        <time>2019-07-14T10:18:42Z</time>
      </trkpt>
      <trkpt lat="47.77341" lon="-3.62998">
        <ele>15</ele>
        <time>2019-07-14T10:18:43Z</time>
      </trkpt>
      <trkpt lat="47.7734" lon="-3.63003">
        <ele>14</ele>
        <time>2019-07-14T10:18:44Z</time>
      </trkpt>
      <trkpt lat="47.7734" lon="-3.63009">
        <ele>14</ele>
        <time>2019-07-14T10:18:45Z</time>
      </trkpt>
      <trkpt lat="47.77339" lon="-3.63015">
        <ele>14</ele>
        <time>2019-07-14T10:18:46Z</time>
      </trkpt>
      <trkpt lat="47.77339" lon="-3.63021">
        <ele>15</ele>
        <time>2019-07-14T10:18:47Z</time>
      </trkpt>
      <trkpt lat="47.77338" lon="-3.63027">
        <ele>15</ele>
        <time>2019-07-14T10:18:48Z</time>
      </trkpt>
      <trkpt lat="47.77338" lon="-3.63032">
        <ele>15</ele>
        <time>2019-07-14T10:18:49Z</time>
      </trkpt>
      <trkpt lat="47.77337" lon="-3.63037">
        <ele>15</ele>
        <time>2019-07-14T10:18:50Z</time>
      </trkpt>
      <trkpt lat="47.77337" lon="-3.63043">
        <ele>15</ele>
        <time>2019-07-14T10:18:51Z</time>
      </trkpt>
      <trkpt lat="47.77337" lon="-3.63048">
        <ele>15</ele>
        <time>2019-07-14T10:18:52Z</time>
      </trkpt>
      <trkpt lat="47.77337" lon="-3.63054">
        <ele>15</ele>
        <time>2019-07-14T10:18:53Z</time>
      </trkpt>
      <trkpt lat="47.77337" lon="-3.63059">
        <ele>15</ele>
        <time>2019-07-14T10:18:54Z</time>
      </trkpt>
      <trkpt lat="47.77337" lon="-3.63065">
        <ele>15</ele>
        <time>2019-07-14T10:18:55Z</time>
      </trkpt>
      <trkpt lat="47.77336" lon="-3.63072">
        <ele>15</ele>
        <time>2019-07-14T10:18:56Z</time>
      </trkpt>
      <trkpt lat="47.77336" lon="-3.63078">
        <ele>15</ele>
        <time>2019-07-14T10:18:57Z</time>
      </trkpt>
      <trkpt lat="47.77336" lon="-3.63084">
        <ele>15</ele>
        <time>2019-07-14T10:18:58Z</time>
      </trkpt>
      <trkpt lat="47.77336" lon="-3.63091">
        <ele>15</ele>
        <time>2019-07-14T10:18:59Z</time>
      </trkpt>
      <trkpt lat="47.77336" lon="-3.63097">
        <ele>15</ele>
        <time>2019-07-14T10:19:00Z</time>
      </trkpt>
      <trkpt lat="47.77336" lon="-3.63104">
        <ele>15</ele>
        <time>2019-07-14T10:19:01Z</time>
      </trkpt>
      <trkpt lat="47.77336" lon="-3.63111">
        <ele>15</ele>
        <time>2019-07-14T10:19:02Z</time>
      </trkpt>
      <trkpt lat="47.77336" lon="-3.63118">
        <ele>15</ele>
        <time>2019-07-14T10:19:03Z</time>
      </trkpt>
      <trkpt lat="47.77335" lon="-3.63126">
        <ele>15</ele>
        <time>2019-07-14T10:19:04Z</time>
      </trkpt>
      <trkpt lat="47.77335" lon="-3.63133">
        <ele>15</ele>
        <time>2019-07-14T10:19:05Z</time>
      </trkpt>
      <trkpt lat="47.77335" lon="-3.6314">
        <ele>15</ele>
        <time>2019-07-14T10:19:06Z</time>
      </trkpt>
      <trkpt lat="47.77334" lon="-3.63148">
        <ele>15</ele>
        <time>2019-07-14T10:19:07Z</time>
      </trkpt>
      <trkpt lat="47.77333" lon="-3.63155">
        <ele>15</ele>
        <time>2019-07-14T10:19:08Z</time>
      </trkpt>
      <trkpt lat="47.77334" lon="-3.63163">
        <ele>15</ele>
        <time>2019-07-14T10:19:09Z</time>
      </trkpt>
      <trkpt lat="47.77335" lon="-3.6317">
        <ele>15</ele>
        <time>2019-07-14T10:19:10Z</time>
      </trkpt>
      <trkpt lat="47.77335" lon="-3.63178">
        <ele>14</ele>
        <time>2019-07-14T10:19:11Z</time>
      </trkpt>
      <trkpt lat="47.77335" lon="-3.63185">
        <ele>14</ele>
        <time>2019-07-14T10:19:12Z</time>
      </trkpt>
      <trkpt lat="47.77332" lon="-3.63192">
        <ele>14</ele>
        <time>2019-07-14T10:19:13Z</time>
      </trkpt>
      <trkpt lat="47.7733" lon="-3.63198">
        <ele>14</ele>
        <time>2019-07-14T10:19:14Z</time>
      </trkpt>
      <trkpt lat="47.77329" lon="-3.63205">
        <ele>14</ele>
        <time>2019-07-14T10:19:15Z</time>
      </trkpt>
      <trkpt lat="47.77329" lon="-3.63213">
        <ele>14</ele>
        <time>2019-07-14T10:19:16Z</time>
      </trkpt>
      <trkpt lat="47.7733" lon="-3.63221">
        <ele>14</ele>
        <time>2019-07-14T10:19:17Z</time>
      </trkpt>
      <trkpt lat="47.77332" lon="-3.63229">
        <ele>14</ele>
        <time>2019-07-14T10:19:18Z</time>
      </trkpt>
      <trkpt lat="47.77333" lon="-3.63237">
        <ele>14</ele>
        <time>2019-07-14T10:19:19Z</time>
      </trkpt>
      <trkpt lat="47.77333" lon="-3.63245">
        <ele>14</ele>
        <time>2019-07-14T10:19:20Z</time>
      </trkpt>
      <trkpt lat="47.77335" lon="-3.63253">
        <ele>13</ele>
        <time>2019-07-14T10:19:21Z</time>
      </trkpt>
      <trkpt lat="47.77336" lon="-3.63261">
        <ele>13</ele>
        <time>2019-07-14T10:19:22Z</time>
      </trkpt>
      <trkpt lat="47.77337" lon="-3.63268">
        <ele>13</ele>
        <time>2019-07-14T10:19:23Z</time>
      </trkpt>
      <trkpt lat="47.77339" lon="-3.63276">
        <ele>13</ele>
        <time>2019-07-14T10:19:24Z</time>
      </trkpt>
      <trkpt lat="47.77342" lon="-3.63282">
        <ele>13</ele>
        <time>2019-07-14T10:19:25Z</time>
      </trkpt>
      <trkpt lat="47.77345" lon="-3.63288">
        <ele>13</ele>
        <time>2019-07-14T10:19:26Z</time>
      </trkpt>
      <trkpt lat="47.77349" lon="-3.63292">
        <ele>13</ele>
        <time>2019-07-14T10:19:27Z</time>
      </trkpt>
      <trkpt lat="47.77354" lon="-3.63295">
        <ele>13</ele>
        <time>2019-07-14T10:19:28Z</time>
      </trkpt>
      <trkpt lat="47.77359" lon="-3.63299">
        <ele>13</ele>
        <time>2019-07-14T10:19:29Z</time>
      </trkpt>
      <trkpt lat="47.77363" lon="-3.63302">
        <ele>13</ele>
        <time>2019-07-14T10:19:30Z</time>
      </trkpt>
      <trkpt lat="47.77368" lon="-3.63306">
        <ele>13</ele>
        <time>2019-07-14T10:19:31Z</time>
      </trkpt>
      <trkpt lat="47.77374" lon="-3.63309">
        <ele>13</ele>
        <time>2019-07-14T10:19:32Z</time>
      </trkpt>
      <trkpt lat="47.77379" lon="-3.63312">
        <ele>13</ele>
        <time>2019-07-14T10:19:33Z</time>
      </trkpt>
      <trkpt lat="47.77385" lon="-3.63315">
        <ele>13</ele>
        <time>2019-07-14T10:19:34Z</time>
      </trkpt>
      <trkpt lat="47.77391" lon="-3.63317">
        <ele>13</ele>
        <time>2019-07-14T10:19:35Z</time>
      </trkpt>
      <trkpt lat="47.77397" lon="-3.63318">
        <ele>13</ele>
        <time>2019-07-14T10:19:36Z</time>
      </trkpt>
      <trkpt lat="47.77403" lon="-3.63318">
        <ele>13</ele>
        <time>2019-07-14T10:19:37Z</time>
      </trkpt>
      <trkpt lat="47.77409" lon="-3.63319">
        <ele>13</ele>
        <time>2019-07-14T10:19:38Z</time>
      </trkpt>
      <trkpt lat="47.77415" lon="-3.63319">
        <ele>13</ele>
        <time>2019-07-14T10:19:39Z</time>
      </trkpt>
      <trkpt lat="47.77421" lon="-3.63319">
        <ele>13</ele>
        <time>2019-07-14T10:19:40Z</time>
      </trkpt>
      <trkpt lat="47.77426" lon="-3.63318">
        <ele>13</ele>
        <time>2019-07-14T10:19:41Z</time>
      </trkpt>
      <trkpt lat="47.77431" lon="-3.6332">
        <ele>13</ele>
        <time>2019-07-14T10:19:42Z</time>
      </trkpt>
      <trkpt lat="47.77437" lon="-3.63321">
        <ele>13</ele>
        <time>2019-07-14T10:19:43Z</time>
      </trkpt>
      <trkpt lat="47.77443" lon="-3.63323">
        <ele>14</ele>
        <time>2019-07-14T10:19:44Z</time>
      </trkpt>
      <trkpt lat="47.77448" lon="-3.63324">
        <ele>14</ele>
        <time>2019-07-14T10:19:45Z</time>
      </trkpt>
      <trkpt lat="47.77453" lon="-3.63324">
        <ele>14</ele>
        <time>2019-07-14T10:19:46Z</time>
      </trkpt>
      <trkpt lat="47.77458" lon="-3.63324">
        <ele>14</ele>
        <time>2019-07-14T10:19:47Z</time>
      </trkpt>
      <trkpt lat="47.77462" lon="-3.63324">
        <ele>14</ele>
        <time>2019-07-14T10:19:48Z</time>
      </trkpt>
      <trkpt lat="47.77466" lon="-3.63327">
        <ele>14</ele>
        <time>2019-07-14T10:19:49Z</time>
      </trkpt>
      <trkpt lat="47.77467" lon="-3.6333">
        <ele>14</ele>
        <time>2019-07-14T10:19:50Z</time>
      </trkpt>
      <trkpt lat="47.77467" lon="-3.63336">
        <ele>14</ele>
        <time>2019-07-14T10:19:51Z</time>
      </trkpt>
      <trkpt lat="47.77465" lon="-3.63341">
        <ele>14</ele>
        <time>2019-07-14T10:19:52Z</time>
      </trkpt>
      <trkpt lat="47.77463" lon="-3.63348">
        <ele>14</ele>
        <time>2019-07-14T10:19:53Z</time>
      </trkpt>
      <trkpt lat="47.7746" lon="-3.63354">
        <ele>14</ele>
        <time>2019-07-14T10:19:54Z</time>
      </trkpt>
      <trkpt lat="47.77458" lon="-3.63361">
        <ele>14</ele>
        <time>2019-07-14T10:19:55Z</time>
      </trkpt>
      <trkpt lat="47.77457" lon="-3.63367">
        <ele>14</ele>
        <time>2019-07-14T10:19:56Z</time>
      </trkpt>
      <trkpt lat="47.77456" lon="-3.63373">
        <ele>14</ele>
        <time>2019-07-14T10:19:57Z</time>
      </trkpt>
      <trkpt lat="47.77455" lon="-3.6338">
        <ele>14</ele>
        <time>2019-07-14T10:19:58Z</time>
      </trkpt>
      <trkpt lat="47.77454" lon="-3.63386">
        <ele>14</ele>
        <time>2019-07-14T10:19:59Z</time>
      </trkpt>
      <trkpt lat="47.77451" lon="-3.63394">
        <ele>13</ele>
        <time>2019-07-14T10:20:00Z</time>
      </trkpt>
      <trkpt lat="47.7745" lon="-3.63401">
        <ele>13</ele>
        <time>2019-07-14T10:20:01Z</time>
      </trkpt>
      <trkpt lat="47.77448" lon="-3.63409">
        <ele>13</ele>
        <time>2019-07-14T10:20:02Z</time>
      </trkpt>
      <trkpt lat="47.77447" lon="-3.63418">
        <ele>12</ele>
        <time>2019-07-14T10:20:03Z</time>
      </trkpt>
      <trkpt lat="47.77446" lon="-3.63428">
        <ele>12</ele>
        <time>2019-07-14T10:20:04Z</time>
      </trkpt>
      <trkpt lat="47.77447" lon="-3.63437">
        <ele>12</ele>
        <time>2019-07-14T10:20:05Z</time>
      </trkpt>
      <trkpt lat="47.77449" lon="-3.63445">
        <ele>12</ele>
        <time>2019-07-14T10:20:06Z</time>
      </trkpt>
      <trkpt lat="47.77451" lon="-3.63449">
        <ele>11</ele>
        <time>2019-07-14T10:20:07Z</time>
      </trkpt>
      <trkpt lat="47.77452" lon="-3.6345">
        <ele>11</ele>
        <time>2019-07-14T10:20:08Z</time>
      </trkpt>
      <trkpt lat="47.77452" lon="-3.6345">
        <ele>10</ele>
        <time>2019-07-14T10:20:09Z</time>
      </trkpt>
      <trkpt lat="47.77452" lon="-3.6345">
        <ele>10</ele>
        <time>2019-07-14T10:20:10Z</time>
      </trkpt>
      <trkpt lat="47.77452" lon="-3.6345">
        <ele>10</ele>
        <time>2019-07-14T10:20:11Z</time>
      </trkpt>
      <trkpt lat="47.77453" lon="-3.6345">
        <ele>10</ele>
        <time>2019-07-14T10:20:12Z</time>
      </trkpt>
      <trkpt lat="47.77455" lon="-3.6345">
        <ele>10</ele>
        <time>2019-07-14T10:20:13Z</time>
      </trkpt>
      <trkpt lat="47.77456" lon="-3.6345">
        <ele>10</ele>
        <time>2019-07-14T10:20:14Z</time>
      </trkpt>
      <trkpt lat="47.77457" lon="-3.6345">
        <ele>10</ele>
        <time>2019-07-14T10:20:15Z</time>
      </trkpt>
      <trkpt lat="47.77459" lon="-3.6345">
        <ele>10</ele>
        <time>2019-07-14T10:20:16Z</time>
      </trkpt>
      <trkpt lat="47.7746" lon="-3.6345">
        <ele>10</ele>
        <time>2019-07-14T10:20:17Z</time>
      </trkpt>
      <trkpt lat="47.77463" lon="-3.63451">
        <ele>10</ele>
        <time>2019-07-14T10:20:18Z</time>
      </trkpt>
      <trkpt lat="47.77465" lon="-3.63453">
        <ele>10</ele>
        <time>2019-07-14T10:20:19Z</time>
      </trkpt>
      <trkpt lat="47.77467" lon="-3.63455">
        <ele>10</ele>
        <time>2019-07-14T10:20:20Z</time>
      </trkpt>
      <trkpt lat="47.7747" lon="-3.63456">
        <ele>10</ele>
        <time>2019-07-14T10:20:21Z</time>
      </trkpt>
      <trkpt lat="47.77472" lon="-3.63458">
        <ele>10</ele>
        <time>2019-07-14T10:20:22Z</time>
      </trkpt>
      <trkpt lat="47.77475" lon="-3.63458">
        <ele>10</ele>
        <time>2019-07-14T10:20:23Z</time>
      </trkpt>
      <trkpt lat="47.77478" lon="-3.63459">
        <ele>10</ele>
        <time>2019-07-14T10:20:24Z</time>
      </trkpt>
      <trkpt lat="47.7748" lon="-3.6346">
        <ele>10</ele>
        <time>2019-07-14T10:20:25Z</time>
      </trkpt>
      <trkpt lat="47.77483" lon="-3.63461">
        <ele>10</ele>
        <time>2019-07-14T10:20:26Z</time>
      </trkpt>
      <trkpt lat="47.77486" lon="-3.63462">
        <ele>11</ele>
        <time>2019-07-14T10:20:27Z</time>
      </trkpt>
      <trkpt lat="47.77488" lon="-3.63463">
        <ele>11</ele>
        <time>2019-07-14T10:20:28Z</time>
      </trkpt>
      <trkpt lat="47.77491" lon="-3.63463">
        <ele>11</ele>
        <time>2019-07-14T10:20:29Z</time>
      </trkpt>
      <trkpt lat="47.77494" lon="-3.63464">
        <ele>11</ele>
        <time>2019-07-14T10:20:30Z</time>
      </trkpt>
      <trkpt lat="47.77496" lon="-3.63465">
        <ele>11</ele>
        <time>2019-07-14T10:20:31Z</time>
      </trkpt>
      <trkpt lat="47.77499" lon="-3.63465">
        <ele>12</ele>
        <time>2019-07-14T10:20:32Z</time>
      </trkpt>
      <trkpt lat="47.77502" lon="-3.63466">
        <ele>12</ele>
        <time>2019-07-14T10:20:33Z</time>
      </trkpt>
      <trkpt lat="47.77505" lon="-3.63466">
        <ele>12</ele>
        <time>2019-07-14T10:20:34Z</time>
      </trkpt>
      <trkpt lat="47.77508" lon="-3.63466">
        <ele>12</ele>
        <time>2019-07-14T10:20:35Z</time>
      </trkpt>
      <trkpt lat="47.7751" lon="-3.63465">
        <ele>13</ele>
        <time>2019-07-14T10:20:36Z</time>
      </trkpt>
      <trkpt lat="47.77513" lon="-3.63465">
        <ele>13</ele>
        <time>2019-07-14T10:20:37Z</time>
      </trkpt>
      <trkpt lat="47.77516" lon="-3.63465">
        <ele>13</ele>
        <time>2019-07-14T10:20:38Z</time>
      </trkpt>
      <trkpt lat="47.77519" lon="-3.63463">
        <ele>13</ele>
        <time>2019-07-14T10:20:39Z</time>
      </trkpt>
      <trkpt lat="47.77521" lon="-3.63461">
        <ele>13</ele>
        <time>2019-07-14T10:20:40Z</time>
      </trkpt>
      <trkpt lat="47.77523" lon="-3.63458">
        <ele>13</ele>
        <time>2019-07-14T10:20:41Z</time>
      </trkpt>
      <trkpt lat="47.77526" lon="-3.63456">
        <ele>14</ele>
        <time>2019-07-14T10:20:42Z</time>
      </trkpt>
      <trkpt lat="47.77528" lon="-3.63453">
        <ele>14</ele>
        <time>2019-07-14T10:20:43Z</time>
      </trkpt>
      <trkpt lat="47.7753" lon="-3.63451">
        <ele>14</ele>
        <time>2019-07-14T10:20:44Z</time>
      </trkpt>
      <trkpt lat="47.77532" lon="-3.63448">
        <ele>14</ele>
        <time>2019-07-14T10:20:45Z</time>
      </trkpt>
      <trkpt lat="47.77534" lon="-3.63446">
        <ele>14</ele>
        <time>2019-07-14T10:20:46Z</time>
      </trkpt>
      <trkpt lat="47.77536" lon="-3.63444">
        <ele>14</ele>
        <time>2019-07-14T10:20:47Z</time>
      </trkpt>
      <trkpt lat="47.77539" lon="-3.63442">
        <ele>14</ele>
        <time>2019-07-14T10:20:48Z</time>
      </trkpt>
      <trkpt lat="47.77541" lon="-3.63441">
        <ele>14</ele>
        <time>2019-07-14T10:20:49Z</time>
      </trkpt>
      <trkpt lat="47.77544" lon="-3.6344">
        <ele>14</ele>
        <time>2019-07-14T10:20:50Z</time>
      </trkpt>
      <trkpt lat="47.77547" lon="-3.63439">
        <ele>14</ele>
        <time>2019-07-14T10:20:51Z</time>
      </trkpt>
      <trkpt lat="47.7755" lon="-3.63438">
        <ele>14</ele>
        <time>2019-07-14T10:20:52Z</time>
      </trkpt>
      <trkpt lat="47.77553" lon="-3.63437">
        <ele>14</ele>
        <time>2019-07-14T10:20:53Z</time>
      </trkpt>
      <trkpt lat="47.77556" lon="-3.63435">
        <ele>15</ele>
        <time>2019-07-14T10:20:54Z</time>
      </trkpt>
      <trkpt lat="47.7756" lon="-3.63434">
        <ele>15</ele>
        <time>2019-07-14T10:20:55Z</time>
      </trkpt>
      <trkpt lat="47.77563" lon="-3.63432">
        <ele>15</ele>
        <time>2019-07-14T10:20:56Z</time>
      </trkpt>
      <trkpt lat="47.77567" lon="-3.63431">
        <ele>15</ele>
        <time>2019-07-14T10:20:57Z</time>
      </trkpt>
      <trkpt lat="47.77571" lon="-3.63429">
        <ele>16</ele>
        <time>2019-07-14T10:20:58Z</time>
      </trkpt>
      <trkpt lat="47.77574" lon="-3.63427">
        <ele>16</ele>
        <time>2019-07-14T10:20:59Z</time>
      </trkpt>
      <trkpt lat="47.77577" lon="-3.63425">
        <ele>16</ele>
        <time>2019-07-14T10:21:00Z</time>
      </trkpt>
      <trkpt lat="47.77581" lon="-3.63423">
        <ele>16</ele>
        <time>2019-07-14T10:21:01Z</time>
      </trkpt>
      <trkpt lat="47.77584" lon="-3.63421">
        <ele>17</ele>
        <time>2019-07-14T10:21:02Z</time>
      </trkpt>
      <trkpt lat="47.77587" lon="-3.63419">
        <ele>17</ele>
        <time>2019-07-14T10:21:03Z</time>
      </trkpt>
      <trkpt lat="47.77591" lon="-3.63417">
        <ele>17</ele>
        <time>2019-07-14T10:21:04Z</time>
      </trkpt>
      <trkpt lat="47.77594" lon="-3.63416">
        <ele>17</ele>
        <time>2019-07-14T10:21:05Z</time>
      </trkpt>
      <trkpt lat="47.77598" lon="-3.63417">
        <ele>18</ele>
        <time>2019-07-14T10:21:06Z</time>
      </trkpt>
      <trkpt lat="47.77602" lon="-3.63418">
        <ele>18</ele>
        <time>2019-07-14T10:21:07Z</time>
      </trkpt>
      <trkpt lat="47.77606" lon="-3.63419">
        <ele>18</ele>
        <time>2019-07-14T10:21:08Z</time>
      </trkpt>
      <trkpt lat="47.7761" lon="-3.63421">
        <ele>19</ele>
        <time>2019-07-14T10:21:09Z</time>
      </trkpt>
      <trkpt lat="47.77613" lon="-3.63422">
        <ele>19</ele>
        <time>2019-07-14T10:21:10Z</time>
      </trkpt>
      <trkpt lat="47.77617" lon="-3.63424">
        <ele>19</ele>
        <time>2019-07-14T10:21:11Z</time>
      </trkpt>
      <trkpt lat="47.7762" lon="-3.63426">
        <ele>20</ele>
        <time>2019-07-14T10:21:12Z</time>
      </trkpt>
      <trkpt lat="47.77624" lon="-3.63428">
        <ele>20</ele>
        <time>2019-07-14T10:21:13Z</time>
      </trkpt>
      <trkpt lat="47.77626" lon="-3.63432">
        <ele>20</ele>
        <time>2019-07-14T10:21:14Z</time>
      </trkpt>
      <trkpt lat="47.77628" lon="-3.63436">
        <ele>20</ele>
        <time>2019-07-14T10:21:15Z</time>
      </trkpt>
      <trkpt lat="47.77628" lon="-3.63442">
        <ele>21</ele>
        <time>2019-07-14T10:21:16Z</time>
      </trkpt>
      <trkpt lat="47.77628" lon="-3.63448">
        <ele>21</ele>
        <time>2019-07-14T10:21:17Z</time>
      </trkpt>
      <trkpt lat="47.7763" lon="-3.63454">
        <ele>21</ele>
        <time>2019-07-14T10:21:18Z</time>
      </trkpt>
      <trkpt lat="47.77633" lon="-3.63459">
        <ele>21</ele>
        <time>2019-07-14T10:21:19Z</time>
      </trkpt>
      <trkpt lat="47.77637" lon="-3.63463">
        <ele>21</ele>
        <time>2019-07-14T10:21:20Z</time>
      </trkpt>
      <trkpt lat="47.77641" lon="-3.63467">
        <ele>21</ele>
        <time>2019-07-14T10:21:21Z</time>
      </trkpt>
      <trkpt lat="47.77644" lon="-3.63472">
        <ele>21</ele>
        <time>2019-07-14T10:21:22Z</time>
      </trkpt>
      <trkpt lat="47.77647" lon="-3.63478">
        <ele>21</ele>
        <time>2019-07-14T10:21:23Z</time>
      </trkpt>
      <trkpt lat="47.77649" lon="-3.63484">
        <ele>21</ele>
        <time>2019-07-14T10:21:24Z</time>
      </trkpt>
      <trkpt lat="47.77651" lon="-3.63489">
        <ele>21</ele>
        <time>2019-07-14T10:21:25Z</time>
      </trkpt>
      <trkpt lat="47.77654" lon="-3.63494">
        <ele>21</ele>
        <time>2019-07-14T10:21:26Z</time>
      </trkpt>
      <trkpt lat="47.77657" lon="-3.63498">
        <ele>21</ele>
        <time>2019-07-14T10:21:27Z</time>
      </trkpt>
      <trkpt lat="47.77661" lon="-3.63501">
        <ele>21</ele>
        <time>2019-07-14T10:21:28Z</time>
      </trkpt>
      <trkpt lat="47.77664" lon="-3.63501">
        <ele>21</ele>
        <time>2019-07-14T10:21:29Z</time>
      </trkpt>
      <trkpt lat="47.77667" lon="-3.63501">
        <ele>21</ele>
        <time>2019-07-14T10:21:30Z</time>
      </trkpt>
      <trkpt lat="47.7767" lon="-3.635">
        <ele>21</ele>
        <time>2019-07-14T10:21:31Z</time>
      </trkpt>
      <trkpt lat="47.77673" lon="-3.635">
        <ele>21</ele>
        <time>2019-07-14T10:21:32Z</time>
      </trkpt>
      <trkpt lat="47.77675" lon="-3.635">
        <ele>21</ele>
        <time>2019-07-14T10:21:33Z</time>
      </trkpt>
      <trkpt lat="47.77678" lon="-3.63499">
        <ele>21</ele>
        <time>2019-07-14T10:21:34Z</time>
      </trkpt>
      <trkpt lat="47.77681" lon="-3.63499">
        <ele>21</ele>
        <time>2019-07-14T10:21:35Z</time>
      </trkpt>
      <trkpt lat="47.77684" lon="-3.63498">
        <ele>21</ele>
        <time>2019-07-14T10:21:36Z</time>
      </trkpt>
      <trkpt lat="47.77688" lon="-3.63498">
        <ele>22</ele>
        <time>2019-07-14T10:21:37Z</time>
      </trkpt>
      <trkpt lat="47.77692" lon="-3.63497">
        <ele>22</ele>
        <time>2019-07-14T10:21:38Z</time>
      </trkpt>
      <trkpt lat="47.77696" lon="-3.63497">
        <ele>22</ele>
        <time>2019-07-14T10:21:39Z</time>
      </trkpt>
      <trkpt lat="47.777" lon="-3.63497">
        <ele>22</ele>
        <time>2019-07-14T10:21:40Z</time>
      </trkpt>
      <trkpt lat="47.77703" lon="-3.63496">
        <ele>23</ele>
        <time>2019-07-14T10:21:41Z</time>
      </trkpt>
      <trkpt lat="47.77707" lon="-3.63496">
        <ele>23</ele>
        <time>2019-07-14T10:21:42Z</time>
      </trkpt>
      <trkpt lat="47.77712" lon="-3.63495">
        <ele>23</ele>
        <time>2019-07-14T10:21:43Z</time>
      </trkpt>
      <trkpt lat="47.77716" lon="-3.63494">
        <ele>23</ele>
        <time>2019-07-14T10:21:44Z</time>
      </trkpt>
      <trkpt lat="47.7772" lon="-3.63493">
        <ele>23</ele>
        <time>2019-07-14T10:21:45Z</time>
      </trkpt>
      <trkpt lat="47.77725" lon="-3.63491">
        <ele>24</ele>
        <time>2019-07-14T10:21:46Z</time>
      </trkpt>
      <trkpt lat="47.77729" lon="-3.6349">
        <ele>24</ele>
        <time>2019-07-14T10:21:47Z</time>
      </trkpt>
      <trkpt lat="47.77733" lon="-3.63488">
        <ele>24</ele>
        <time>2019-07-14T10:21:48Z</time>
      </trkpt>
      <trkpt lat="47.77737" lon="-3.63487">
        <ele>24</ele>
        <time>2019-07-14T10:21:49Z</time>
      </trkpt>
      <trkpt lat="47.77742" lon="-3.63486">
        <ele>24</ele>
        <time>2019-07-14T10:21:50Z</time>
      </trkpt>
      <trkpt lat="47.77746" lon="-3.63485">
        <ele>25</ele>
        <time>2019-07-14T10:21:51Z</time>
      </trkpt>
      <trkpt lat="47.7775" lon="-3.63484">
        <ele>25</ele>
        <time>2019-07-14T10:21:52Z</time>
      </trkpt>
      <trkpt lat="47.77755" lon="-3.63484">
        <ele>25</ele>
        <time>2019-07-14T10:21:53Z</time>
      </trkpt>
      <trkpt lat="47.77759" lon="-3.63484">
        <ele>25</ele>
        <time>2019-07-14T10:21:54Z</time>
      </trkpt>
      <trkpt lat="47.77763" lon="-3.63484">
        <ele>25</ele>
        <time>2019-07-14T10:21:55Z</time>
      </trkpt>
      <trkpt lat="47.77768" lon="-3.63484">
        <ele>26</ele>
        <time>2019-07-14T10:21:56Z</time>
      </trkpt>
      <trkpt lat="47.77772" lon="-3.63483">
        <ele>26</ele>
        <time>2019-07-14T10:21:57Z</time>
      </trkpt>
      <trkpt lat="47.77777" lon="-3.63482">
        <ele>26</ele>
        <time>2019-07-14T10:21:58Z</time>
      </trkpt>
      <trkpt lat="47.77781" lon="-3.63482">
        <ele>26</ele>
        <time>2019-07-14T10:21:59Z</time>
      </trkpt>
      <trkpt lat="47.77785" lon="-3.63482">
        <ele>27</ele>
        <time>2019-07-14T10:22:00Z</time>
      </trkpt>
      <trkpt lat="47.77789" lon="-3.63481">
        <ele>27</ele>
        <time>2019-07-14T10:22:01Z</time>
      </trkpt>
      <trkpt lat="47.77793" lon="-3.63481">
        <ele>27</ele>
        <time>2019-07-14T10:22:02Z</time>
      </trkpt>
      <trkpt lat="47.77798" lon="-3.6348">
        <ele>27</ele>
        <time>2019-07-14T10:22:03Z</time>
      </trkpt>
      <trkpt lat="47.77802" lon="-3.6348">
        <ele>27</ele>
        <time>2019-07-14T10:22:04Z</time>
      </trkpt>
      <trkpt lat="47.77806" lon="-3.6348">
        <ele>27</ele>
        <time>2019-07-14T10:22:05Z</time>
      </trkpt>
      <trkpt lat="47.77811" lon="-3.6348">
        <ele>28</ele>
        <time>2019-07-14T10:22:06Z</time>
      </trkpt>
      <trkpt lat="47.77815" lon="-3.63479">
        <ele>28</ele>
        <time>2019-07-14T10:22:07Z</time>
      </trkpt>
      <trkpt lat="47.77819" lon="-3.63478">
        <ele>28</ele>
        <time>2019-07-14T10:22:08Z</time>
      </trkpt>
      <trkpt lat="47.77823" lon="-3.63478">
        <ele>28</ele>
        <time>2019-07-14T10:22:09Z</time>
      </trkpt>
      <trkpt lat="47.77827" lon="-3.63478">
        <ele>28</ele>
        <time>2019-07-14T10:22:10Z</time>
      </trkpt>
      <trkpt lat="47.77831" lon="-3.63476">
        <ele>28</ele>
        <time>2019-07-14T10:22:11Z</time>
      </trkpt>
      <trkpt lat="47.77835" lon="-3.63475">
        <ele>29</ele>
        <time>2019-07-14T10:22:12Z</time>
      </trkpt>
      <trkpt lat="47.77839" lon="-3.63473">
        <ele>29</ele>
        <time>2019-07-14T10:22:13Z</time>
      </trkpt>
      <trkpt lat="47.77842" lon="-3.63472">
        <ele>29</ele>
        <time>2019-07-14T10:22:14Z</time>
      </trkpt>
      <trkpt lat="47.77844" lon="-3.63473">
        <ele>30</ele>
        <time>2019-07-14T10:22:15Z</time>
      </trkpt>
      <trkpt lat="47.77845" lon="-3.63475">
        <ele>30</ele>
        <time>2019-07-14T10:22:16Z</time>
      </trkpt>
      <trkpt lat="47.77845" lon="-3.63479">
        <ele>30</ele>
        <time>2019-07-14T10:22:17Z</time>
      </trkpt>
      <trkpt lat="47.77845" lon="-3.63484">
        <ele>30</ele>
        <time>2019-07-14T10:22:18Z</time>
      </trkpt>
      <trkpt lat="47.77845" lon="-3.63491">
        <ele>30</ele>
        <time>2019-07-14T10:22:19Z</time>
      </trkpt>
      <trkpt lat="47.77845" lon="-3.63497">
        <ele>30</ele>
        <time>2019-07-14T10:22:20Z</time>
      </trkpt>
      <trkpt lat="47.77844" lon="-3.63504">
        <ele>30</ele>
        <time>2019-07-14T10:22:21Z</time>
      </trkpt>
      <trkpt lat="47.77844" lon="-3.63511">
        <ele>30</ele>
        <time>2019-07-14T10:22:22Z</time>
      </trkpt>
      <trkpt lat="47.77843" lon="-3.63519">
        <ele>30</ele>
        <time>2019-07-14T10:22:23Z</time>
      </trkpt>
      <trkpt lat="47.77843" lon="-3.63527">
        <ele>30</ele>
        <time>2019-07-14T10:22:24Z</time>
      </trkpt>
      <trkpt lat="47.77843" lon="-3.63535">
        <ele>29</ele>
        <time>2019-07-14T10:22:25Z</time>
      </trkpt>
      <trkpt lat="47.77842" lon="-3.63543">
        <ele>29</ele>
        <time>2019-07-14T10:22:26Z</time>
      </trkpt>
      <trkpt lat="47.77842" lon="-3.6355">
        <ele>29</ele>
        <time>2019-07-14T10:22:27Z</time>
      </trkpt>
      <trkpt lat="47.77841" lon="-3.63558">
        <ele>29</ele>
        <time>2019-07-14T10:22:28Z</time>
      </trkpt>
      <trkpt lat="47.7784" lon="-3.63566">
        <ele>29</ele>
        <time>2019-07-14T10:22:29Z</time>
      </trkpt>
      <trkpt lat="47.7784" lon="-3.63574">
        <ele>28</ele>
        <time>2019-07-14T10:22:30Z</time>
      </trkpt>
      <trkpt lat="47.77838" lon="-3.63582">
        <ele>28</ele>
        <time>2019-07-14T10:22:31Z</time>
      </trkpt>
      <trkpt lat="47.77838" lon="-3.6359">
        <ele>28</ele>
        <time>2019-07-14T10:22:32Z</time>
      </trkpt>
      <trkpt lat="47.77836" lon="-3.63598">
        <ele>28</ele>
        <time>2019-07-14T10:22:33Z</time>
      </trkpt>
      <trkpt lat="47.77834" lon="-3.63606">
        <ele>28</ele>
        <time>2019-07-14T10:22:34Z</time>
      </trkpt>
      <trkpt lat="47.77832" lon="-3.63613">
        <ele>28</ele>
        <time>2019-07-14T10:22:35Z</time>
      </trkpt>
      <trkpt lat="47.77831" lon="-3.63621">
        <ele>27</ele>
        <time>2019-07-14T10:22:36Z</time>
      </trkpt>
      <trkpt lat="47.77829" lon="-3.63629">
        <ele>27</ele>
        <time>2019-07-14T10:22:37Z</time>
      </trkpt>
      <trkpt lat="47.77827" lon="-3.63636">
        <ele>27</ele>
        <time>2019-07-14T10:22:38Z</time>
      </trkpt>
      <trkpt lat="47.77825" lon="-3.63644">
        <ele>27</ele>
        <time>2019-07-14T10:22:39Z</time>
      </trkpt>
      <trkpt lat="47.77823" lon="-3.63652">
        <ele>26</ele>
        <time>2019-07-14T10:22:40Z</time>
      </trkpt>
      <trkpt lat="47.7782" lon="-3.63661">
        <ele>26</ele>
        <time>2019-07-14T10:22:41Z</time>
      </trkpt>
      <trkpt lat="47.77818" lon="-3.6367">
        <ele>26</ele>
        <time>2019-07-14T10:22:42Z</time>
      </trkpt>
      <trkpt lat="47.77815" lon="-3.63677">
        <ele>25</ele>
        <time>2019-07-14T10:22:43Z</time>
      </trkpt>
      <trkpt lat="47.77812" lon="-3.63684">
        <ele>25</ele>
        <time>2019-07-14T10:22:44Z</time>
      </trkpt>
      <trkpt lat="47.77807" lon="-3.63688">
        <ele>24</ele>
        <time>2019-07-14T10:22:45Z</time>
      </trkpt>
      <trkpt lat="47.77802" lon="-3.63689">
        <ele>24</ele>
        <time>2019-07-14T10:22:46Z</time>
      </trkpt>
      <trkpt lat="47.77797" lon="-3.63688">
        <ele>24</ele>
        <time>2019-07-14T10:22:47Z</time>
      </trkpt>
      <trkpt lat="47.77793" lon="-3.63686">
        <ele>24</ele>
        <time>2019-07-14T10:22:48Z</time>
      </trkpt>
      <trkpt lat="47.77789" lon="-3.63685">
        <ele>23</ele>
        <time>2019-07-14T10:22:49Z</time>
      </trkpt>
      <trkpt lat="47.77786" lon="-3.63684">
        <ele>23</ele>
        <time>2019-07-14T10:22:50Z</time>
      </trkpt>
      <trkpt lat="47.77783" lon="-3.63684">
        <ele>23</ele>
        <time>2019-07-14T10:22:51Z</time>
      </trkpt>
      <trkpt lat="47.7778" lon="-3.63684">
        <ele>23</ele>
        <time>2019-07-14T10:22:52Z</time>
      </trkpt>
      <trkpt lat="47.77777" lon="-3.63685">
        <ele>23</ele>
        <time>2019-07-14T10:22:53Z</time>
      </trkpt>
      <trkpt lat="47.77774" lon="-3.63688">
        <ele>23</ele>
        <time>2019-07-14T10:22:54Z</time>
      </trkpt>
      <trkpt lat="47.77772" lon="-3.63692">
        <ele>23</ele>
        <time>2019-07-14T10:22:55Z</time>
      </trkpt>
      <trkpt lat="47.7777" lon="-3.63698">
        <ele>23</ele>
        <time>2019-07-14T10:22:56Z</time>
      </trkpt>
      <trkpt lat="47.77769" lon="-3.63704">
        <ele>23</ele>
        <time>2019-07-14T10:22:57Z</time>
      </trkpt>
      <trkpt lat="47.77768" lon="-3.63712">
        <ele>22</ele>
        <time>2019-07-14T10:22:58Z</time>
      </trkpt>
      <trkpt lat="47.77767" lon="-3.6372">
        <ele>22</ele>
        <time>2019-07-14T10:22:59Z</time>
      </trkpt>
      <trkpt lat="47.77766" lon="-3.63728">
        <ele>22</ele>
        <time>2019-07-14T10:23:00Z</time>
      </trkpt>
      <trkpt lat="47.77765" lon="-3.63736">
        <ele>21</ele>
        <time>2019-07-14T10:23:01Z</time>
      </trkpt>
      <trkpt lat="47.77763" lon="-3.63745">
        <ele>21</ele>
        <time>2019-07-14T10:23:02Z</time>
      </trkpt>
      <trkpt lat="47.77761" lon="-3.63754">
        <ele>21</ele>
        <time>2019-07-14T10:23:03Z</time>
      </trkpt>
      <trkpt lat="47.77758" lon="-3.63761">
        <ele>21</ele>
        <time>2019-07-14T10:23:04Z</time>
      </trkpt>
      <trkpt lat="47.77756" lon="-3.63766">
        <ele>20</ele>
        <time>2019-07-14T10:23:05Z</time>
      </trkpt>
      <trkpt lat="47.77755" lon="-3.6377">
        <ele>20</ele>
        <time>2019-07-14T10:23:06Z</time>
      </trkpt>
      <trkpt lat="47.77753" lon="-3.63773">
        <ele>20</ele>
        <time>2019-07-14T10:23:07Z</time>
      </trkpt>
      <trkpt lat="47.77753" lon="-3.63776">
        <ele>20</ele>
        <time>2019-07-14T10:23:08Z</time>
      </trkpt>
      <trkpt lat="47.77751" lon="-3.63777">
        <ele>20</ele>
        <time>2019-07-14T10:23:09Z</time>
      </trkpt>
      <trkpt lat="47.7775" lon="-3.63779">
        <ele>20</ele>
        <time>2019-07-14T10:23:10Z</time>
      </trkpt>
      <trkpt lat="47.77748" lon="-3.63782">
        <ele>20</ele>
        <time>2019-07-14T10:23:11Z</time>
      </trkpt>
      <trkpt lat="47.77746" lon="-3.63785">
        <ele>19</ele>
        <time>2019-07-14T10:23:12Z</time>
      </trkpt>
      <trkpt lat="47.77743" lon="-3.63789">
        <ele>19</ele>
        <time>2019-07-14T10:23:13Z</time>
      </trkpt>
      <trkpt lat="47.77741" lon="-3.63794">
        <ele>19</ele>
        <time>2019-07-14T10:23:14Z</time>
      </trkpt>
      <trkpt lat="47.77738" lon="-3.63798">
        <ele>19</ele>
        <time>2019-07-14T10:23:15Z</time>
      </trkpt>
      <trkpt lat="47.77735" lon="-3.63803">
        <ele>19</ele>
        <time>2019-07-14T10:23:16Z</time>
      </trkpt>
      <trkpt lat="47.77731" lon="-3.63807">
        <ele>19</ele>
        <time>2019-07-14T10:23:17Z</time>
      </trkpt>
      <trkpt lat="47.77727" lon="-3.63811">
        <ele>19</ele>
        <time>2019-07-14T10:23:18Z</time>
      </trkpt>
      <trkpt lat="47.77724" lon="-3.63816">
        <ele>18</ele>
        <time>2019-07-14T10:23:19Z</time>
      </trkpt>
      <trkpt lat="47.77721" lon="-3.6382">
        <ele>18</ele>
        <time>2019-07-14T10:23:20Z</time>
      </trkpt>
      <trkpt lat="47.7772" lon="-3.63825">
        <ele>18</ele>
        <time>2019-07-14T10:23:21Z</time>
      </trkpt>
      <trkpt lat="47.77719" lon="-3.63832">
        <ele>18</ele>
        <time>2019-07-14T10:23:22Z</time>
      </trkpt>
      <trkpt lat="47.77718" lon="-3.63838">
        <ele>18</ele>
        <time>2019-07-14T10:23:23Z</time>
      </trkpt>
      <trkpt lat="47.77716" lon="-3.63844">
        <ele>18</ele>
        <time>2019-07-14T10:23:24Z</time>
      </trkpt>
      <trkpt lat="47.77715" lon="-3.6385">
        <ele>18</ele>
        <time>2019-07-14T10:23:25Z</time>
      </trkpt>
      <trkpt lat="47.77713" lon="-3.63854">
        <ele>18</ele>
        <time>2019-07-14T10:23:26Z</time>
      </trkpt>
      <trkpt lat="47.77712" lon="-3.63858">
        <ele>18</ele>
        <time>2019-07-14T10:23:27Z</time>
      </trkpt>
      <trkpt lat="47.77711" lon="-3.63862">
        <ele>18</ele>
        <time>2019-07-14T10:23:28Z</time>
      </trkpt>
      <trkpt lat="47.77711" lon="-3.63864">
        <ele>17</ele>
        <time>2019-07-14T10:23:29Z</time>
      </trkpt>
      <trkpt lat="47.7771" lon="-3.63866">
        <ele>17</ele>
        <time>2019-07-14T10:23:30Z</time>
      </trkpt>
      <trkpt lat="47.7771" lon="-3.63868">
        <ele>17</ele>
        <time>2019-07-14T10:23:31Z</time>
      </trkpt>
      <trkpt lat="47.7771" lon="-3.63869">
        <ele>17</ele>
        <time>2019-07-14T10:23:32Z</time>
      </trkpt>
      <trkpt lat="47.7771" lon="-3.63869">
        <ele>17</ele>
        <time>2019-07-14T10:23:33Z</time>
      </trkpt>
      <trkpt lat="47.77719" lon="-3.63892">
        <ele>12</ele>
        <time>2019-07-14T10:23:34Z</time>
      </trkpt>
      <trkpt lat="47.77719" lon="-3.63892">
        <ele>12</ele>
        <time>2019-07-14T10:23:35Z</time>
      </trkpt>
      <trkpt lat="47.77719" lon="-3.63893">
        <ele>12</ele>
        <time>2019-07-14T10:23:36Z</time>
      </trkpt>
      <trkpt lat="47.77719" lon="-3.63893">
        <ele>12</ele>
        <time>2019-07-14T10:23:37Z</time>
      </trkpt>
      <trkpt lat="47.77719" lon="-3.63901">
        <ele>13</ele>
        <time>2019-07-14T10:23:38Z</time>
      </trkpt>
      <trkpt lat="47.7772" lon="-3.63902">
        <ele>13</ele>
        <time>2019-07-14T10:23:39Z</time>
      </trkpt>
      <trkpt lat="47.77721" lon="-3.63903">
        <ele>13</ele>
        <time>2019-07-14T10:23:40Z</time>
      </trkpt>
      <trkpt lat="47.77721" lon="-3.63904">
        <ele>13</ele>
        <time>2019-07-14T10:23:41Z</time>
      </trkpt>
      <trkpt lat="47.77721" lon="-3.63905">
        <ele>13</ele>
        <time>2019-07-14T10:23:42Z</time>
      </trkpt>
      <trkpt lat="47.77723" lon="-3.63909">
        <ele>14</ele>
        <time>2019-07-14T10:23:43Z</time>
      </trkpt>
      <trkpt lat="47.77724" lon="-3.63911">
        <ele>14</ele>
        <time>2019-07-14T10:23:44Z</time>
      </trkpt>
      <trkpt lat="47.77725" lon="-3.63912">
        <ele>15</ele>
        <time>2019-07-14T10:23:45Z</time>
      </trkpt>
      <trkpt lat="47.77726" lon="-3.63913">
        <ele>15</ele>
        <time>2019-07-14T10:23:46Z</time>
      </trkpt>
      <trkpt lat="47.77726" lon="-3.63914">
        <ele>15</ele>
        <time>2019-07-14T10:23:47Z</time>
      </trkpt>
      <trkpt lat="47.77726" lon="-3.63915">
        <ele>15</ele>
        <time>2019-07-14T10:23:48Z</time>
      </trkpt>
      <trkpt lat="47.77726" lon="-3.63917">
        <ele>15</ele>
        <time>2019-07-14T10:23:49Z</time>
      </trkpt>
      <trkpt lat="47.77726" lon="-3.63918">
        <ele>15</ele>
        <time>2019-07-14T10:23:50Z</time>
      </trkpt>
      <trkpt lat="47.77726" lon="-3.63918">
        <ele>15</ele>
        <time>2019-07-14T10:23:51Z</time>
      </trkpt>
      <trkpt lat="47.77725" lon="-3.63919">
        <ele>14</ele>
        <time>2019-07-14T10:23:52Z</time>
      </trkpt>
      <trkpt lat="47.77725" lon="-3.6392">
        <ele>14</ele>
        <time>2019-07-14T10:23:53Z</time>
      </trkpt>
      <trkpt lat="47.77724" lon="-3.63921">
        <ele>14</ele>
        <time>2019-07-14T10:23:54Z</time>
      </trkpt>
      <trkpt lat="47.77724" lon="-3.63922">
        <ele>14</ele>
        <time>2019-07-14T10:23:55Z</time>
      </trkpt>
      <trkpt lat="47.77724" lon="-3.63923">
        <ele>13</ele>
        <time>2019-07-14T10:23:56Z</time>
      </trkpt>
      <trkpt lat="47.77724" lon="-3.63924">
        <ele>13</ele>
        <time>2019-07-14T10:23:57Z</time>
      </trkpt>
      <trkpt lat="47.77725" lon="-3.63925">
        <ele>13</ele>
        <time>2019-07-14T10:23:58Z</time>
      </trkpt>
      <trkpt lat="47.77725" lon="-3.63925">
        <ele>13</ele>
        <time>2019-07-14T10:23:59Z</time>
      </trkpt>
      <trkpt lat="47.77732" lon="-3.6393">
        <ele>11</ele>
        <time>2019-07-14T10:24:00Z</time>
      </trkpt>
      <trkpt lat="47.77733" lon="-3.63932">
        <ele>11</ele>
        <time>2019-07-14T10:24:01Z</time>
      </trkpt>
      <trkpt lat="47.77735" lon="-3.63934">
        <ele>10</ele>
        <time>2019-07-14T10:24:02Z</time>
      </trkpt>
      <trkpt lat="47.77736" lon="-3.63936">
        <ele>10</ele>
        <time>2019-07-14T10:24:03Z</time>
      </trkpt>
      <trkpt lat="47.77737" lon="-3.63938">
        <ele>10</ele>
        <time>2019-07-14T10:24:04Z</time>
      </trkpt>
      <trkpt lat="47.77738" lon="-3.63939">
        <ele>10</ele>
        <time>2019-07-14T10:24:05Z</time>
      </trkpt>
      <trkpt lat="47.77739" lon="-3.6394">
        <ele>9</ele>
        <time>2019-07-14T10:24:06Z</time>
      </trkpt>
      <trkpt lat="47.7774" lon="-3.6394">
        <ele>9</ele>
        <time>2019-07-14T10:24:07Z</time>
      </trkpt>
      <trkpt lat="47.77742" lon="-3.63941">
        <ele>9</ele>
        <time>2019-07-14T10:24:08Z</time>
      </trkpt>
      <trkpt lat="47.77743" lon="-3.63941">
        <ele>9</ele>
        <time>2019-07-14T10:24:09Z</time>
      </trkpt>
      <trkpt lat="47.77745" lon="-3.63941">
        <ele>9</ele>
        <time>2019-07-14T10:24:10Z</time>
      </trkpt>
      <trkpt lat="47.77746" lon="-3.63941">
        <ele>9</ele>
        <time>2019-07-14T10:24:11Z</time>
      </trkpt>
      <trkpt lat="47.77749" lon="-3.63942">
        <ele>9</ele>
        <time>2019-07-14T10:24:12Z</time>
      </trkpt>
      <trkpt lat="47.7775" lon="-3.63943">
        <ele>9</ele>
        <time>2019-07-14T10:24:13Z</time>
      </trkpt>
      <trkpt lat="47.77753" lon="-3.63945">
        <ele>9</ele>
        <time>2019-07-14T10:24:14Z</time>
      </trkpt>
      <trkpt lat="47.77755" lon="-3.63947">
        <ele>9</ele>
        <time>2019-07-14T10:24:15Z</time>
      </trkpt>
      <trkpt lat="47.77757" lon="-3.63948">
        <ele>9</ele>
        <time>2019-07-14T10:24:16Z</time>
      </trkpt>
      <trkpt lat="47.77759" lon="-3.63948">
        <ele>9</ele>
        <time>2019-07-14T10:24:17Z</time>
      </trkpt>
      <trkpt lat="47.77761" lon="-3.63949">
        <ele>9</ele>
        <time>2019-07-14T10:24:18Z</time>
      </trkpt>
      <trkpt lat="47.77763" lon="-3.63949">
        <ele>9</ele>
        <time>2019-07-14T10:24:19Z</time>
      </trkpt>
      <trkpt lat="47.77765" lon="-3.63948">
        <ele>9</ele>
        <time>2019-07-14T10:24:20Z</time>
      </trkpt>
      <trkpt lat="47.77768" lon="-3.63948">
        <ele>9</ele>
        <time>2019-07-14T10:24:21Z</time>
      </trkpt>
      <trkpt lat="47.7777" lon="-3.63948">
        <ele>9</ele>
        <time>2019-07-14T10:24:22Z</time>
      </trkpt>
      <trkpt lat="47.77773" lon="-3.63949">
        <ele>9</ele>
        <time>2019-07-14T10:24:23Z</time>
      </trkpt>
      <trkpt lat="47.77776" lon="-3.6395">
        <ele>9</ele>
        <time>2019-07-14T10:24:24Z</time>
      </trkpt>
      <trkpt lat="47.77778" lon="-3.63951">
        <ele>10</ele>
        <time>2019-07-14T10:24:25Z</time>
      </trkpt>
      <trkpt lat="47.77781" lon="-3.63953">
        <ele>10</ele>
        <time>2019-07-14T10:24:26Z</time>
      </trkpt>
      <trkpt lat="47.77782" lon="-3.63955">
        <ele>10</ele>
        <time>2019-07-14T10:24:27Z</time>
      </trkpt>
      <trkpt lat="47.77785" lon="-3.63956">
        <ele>10</ele>
        <time>2019-07-14T10:24:28Z</time>
      </trkpt>
      <trkpt lat="47.77787" lon="-3.63957">
        <ele>10</ele>
        <time>2019-07-14T10:24:29Z</time>
      </trkpt>
      <trkpt lat="47.77789" lon="-3.63959">
        <ele>10</ele>
        <time>2019-07-14T10:24:30Z</time>
      </trkpt>
      <trkpt lat="47.77791" lon="-3.6396">
        <ele>10</ele>
        <time>2019-07-14T10:24:31Z</time>
      </trkpt>
      <trkpt lat="47.77793" lon="-3.63962">
        <ele>10</ele>
        <time>2019-07-14T10:24:32Z</time>
      </trkpt>
      <trkpt lat="47.77796" lon="-3.63964">
        <ele>10</ele>
        <time>2019-07-14T10:24:33Z</time>
      </trkpt>
      <trkpt lat="47.77798" lon="-3.63965">
        <ele>11</ele>
        <time>2019-07-14T10:24:34Z</time>
      </trkpt>
      <trkpt lat="47.778" lon="-3.63965">
        <ele>11</ele>
        <time>2019-07-14T10:24:35Z</time>
      </trkpt>
      <trkpt lat="47.77802" lon="-3.63966">
        <ele>11</ele>
        <time>2019-07-14T10:24:36Z</time>
      </trkpt>
      <trkpt lat="47.77804" lon="-3.63967">
        <ele>11</ele>
        <time>2019-07-14T10:24:37Z</time>
      </trkpt>
      <trkpt lat="47.77806" lon="-3.63968">
        <ele>11</ele>
        <time>2019-07-14T10:24:38Z</time>
      </trkpt>
      <trkpt lat="47.77809" lon="-3.63969">
        <ele>12</ele>
        <time>2019-07-14T10:24:39Z</time>
      </trkpt>
      <trkpt lat="47.77812" lon="-3.6397">
        <ele>12</ele>
        <time>2019-07-14T10:24:40Z</time>
      </trkpt>
      <trkpt lat="47.77814" lon="-3.63971">
        <ele>12</ele>
        <time>2019-07-14T10:24:41Z</time>
      </trkpt>
      <trkpt lat="47.77816" lon="-3.63973">
        <ele>13</ele>
        <time>2019-07-14T10:24:42Z</time>
      </trkpt>
      <trkpt lat="47.77819" lon="-3.63973">
        <ele>13</ele>
        <time>2019-07-14T10:24:43Z</time>
      </trkpt>
      <trkpt lat="47.77822" lon="-3.63972">
        <ele>13</ele>
        <time>2019-07-14T10:24:44Z</time>
      </trkpt>
      <trkpt lat="47.77824" lon="-3.63972">
        <ele>13</ele>
        <time>2019-07-14T10:24:45Z</time>
      </trkpt>
      <trkpt lat="47.77827" lon="-3.63971">
        <ele>13</ele>
        <time>2019-07-14T10:24:46Z</time>
      </trkpt>
      <trkpt lat="47.77829" lon="-3.63972">
        <ele>13</ele>
        <time>2019-07-14T10:24:47Z</time>
      </trkpt>
      <trkpt lat="47.77832" lon="-3.63972">
        <ele>13</ele>
        <time>2019-07-14T10:24:48Z</time>
      </trkpt>
      <trkpt lat="47.77834" lon="-3.63971">
        <ele>14</ele>
        <time>2019-07-14T10:24:49Z</time>
      </trkpt>
      <trkpt lat="47.77837" lon="-3.6397">
        <ele>14</ele>
        <time>2019-07-14T10:24:50Z</time>
      </trkpt>
      <trkpt lat="47.77839" lon="-3.6397">
        <ele>14</ele>
        <time>2019-07-14T10:24:51Z</time>
      </trkpt>
      <trkpt lat="47.77842" lon="-3.63969">
        <ele>14</ele>
        <time>2019-07-14T10:24:52Z</time>
      </trkpt>
      <trkpt lat="47.77844" lon="-3.63968">
        <ele>14</ele>
        <time>2019-07-14T10:24:53Z</time>
      </trkpt>
      <trkpt lat="47.77848" lon="-3.63969">
        <ele>14</ele>
        <time>2019-07-14T10:24:54Z</time>
      </trkpt>
      <trkpt lat="47.7785" lon="-3.63968">
        <ele>14</ele>
        <time>2019-07-14T10:24:55Z</time>
      </trkpt>
      <trkpt lat="47.77854" lon="-3.63967">
        <ele>14</ele>
        <time>2019-07-14T10:24:56Z</time>
      </trkpt>
      <trkpt lat="47.77857" lon="-3.63966">
        <ele>14</ele>
        <time>2019-07-14T10:24:57Z</time>
      </trkpt>
      <trkpt lat="47.77861" lon="-3.63965">
        <ele>14</ele>
        <time>2019-07-14T10:24:58Z</time>
      </trkpt>
      <trkpt lat="47.77864" lon="-3.63964">
        <ele>14</ele>
        <time>2019-07-14T10:24:59Z</time>
      </trkpt>
      <trkpt lat="47.77867" lon="-3.63963">
        <ele>14</ele>
        <time>2019-07-14T10:25:00Z</time>
      </trkpt>
      <trkpt lat="47.7787" lon="-3.63962">
        <ele>14</ele>
        <time>2019-07-14T10:25:01Z</time>
      </trkpt>
      <trkpt lat="47.77873" lon="-3.63961">
        <ele>15</ele>
        <time>2019-07-14T10:25:02Z</time>
      </trkpt>
      <trkpt lat="47.77877" lon="-3.6396">
        <ele>15</ele>
        <time>2019-07-14T10:25:03Z</time>
      </trkpt>
      <trkpt lat="47.77881" lon="-3.63959">
        <ele>15</ele>
        <time>2019-07-14T10:25:04Z</time>
      </trkpt>
      <trkpt lat="47.77884" lon="-3.63958">
        <ele>15</ele>
        <time>2019-07-14T10:25:05Z</time>
      </trkpt>
      <trkpt lat="47.77887" lon="-3.63957">
        <ele>15</ele>
        <time>2019-07-14T10:25:06Z</time>
      </trkpt>
      <trkpt lat="47.77891" lon="-3.63957">
        <ele>15</ele>
        <time>2019-07-14T10:25:07Z</time>
      </trkpt>
      <trkpt lat="47.77895" lon="-3.63956">
        <ele>15</ele>
        <time>2019-07-14T10:25:08Z</time>
      </trkpt>
      <trkpt lat="47.77898" lon="-3.63955">
        <ele>15</ele>
        <time>2019-07-14T10:25:09Z</time>
      </trkpt>
      <trkpt lat="47.77901" lon="-3.63955">
        <ele>15</ele>
        <time>2019-07-14T10:25:10Z</time>
      </trkpt>
      <trkpt lat="47.77904" lon="-3.63955">
        <ele>16</ele>
        <time>2019-07-14T10:25:11Z</time>
      </trkpt>
      <trkpt lat="47.77908" lon="-3.63955">
        <ele>16</ele>
        <time>2019-07-14T10:25:12Z</time>
      </trkpt>
      <trkpt lat="47.77911" lon="-3.63955">
        <ele>16</ele>
        <time>2019-07-14T10:25:13Z</time>
      </trkpt>
      <trkpt lat="47.77915" lon="-3.63955">
        <ele>16</ele>
        <time>2019-07-14T10:25:14Z</time>
      </trkpt>
      <trkpt lat="47.77918" lon="-3.63955">
        <ele>16</ele>
        <time>2019-07-14T10:25:15Z</time>
      </trkpt>
      <trkpt lat="47.77922" lon="-3.63956">
        <ele>16</ele>
        <time>2019-07-14T10:25:16Z</time>
      </trkpt>
      <trkpt lat="47.77925" lon="-3.63956">
        <ele>16</ele>
        <time>2019-07-14T10:25:17Z</time>
      </trkpt>
      <trkpt lat="47.77928" lon="-3.63955">
        <ele>17</ele>
        <time>2019-07-14T10:25:18Z</time>
      </trkpt>
      <trkpt lat="47.77931" lon="-3.63955">
        <ele>17</ele>
        <time>2019-07-14T10:25:19Z</time>
      </trkpt>
      <trkpt lat="47.77934" lon="-3.63955">
        <ele>17</ele>
        <time>2019-07-14T10:25:20Z</time>
      </trkpt>
      <trkpt lat="47.77937" lon="-3.63954">
        <ele>17</ele>
        <time>2019-07-14T10:25:21Z</time>
      </trkpt>
      <trkpt lat="47.77941" lon="-3.63954">
        <ele>17</ele>
        <time>2019-07-14T10:25:22Z</time>
      </trkpt>
      <trkpt lat="47.77944" lon="-3.63953">
        <ele>17</ele>
        <time>2019-07-14T10:25:23Z</time>
      </trkpt>
      <trkpt lat="47.77947" lon="-3.63952">
        <ele>17</ele>
        <time>2019-07-14T10:25:24Z</time>
      </trkpt>
      <trkpt lat="47.7795" lon="-3.63951">
        <ele>17</ele>
        <time>2019-07-14T10:25:25Z</time>
      </trkpt>
      <trkpt lat="47.77954" lon="-3.6395">
        <ele>17</ele>
        <time>2019-07-14T10:25:26Z</time>
      </trkpt>
      <trkpt lat="47.77957" lon="-3.6395">
        <ele>17</ele>
        <time>2019-07-14T10:25:27Z</time>
      </trkpt>
      <trkpt lat="47.7796" lon="-3.63949">
        <ele>17</ele>
        <time>2019-07-14T10:25:28Z</time>
      </trkpt>
      <trkpt lat="47.77963" lon="-3.63948">
        <ele>17</ele>
        <time>2019-07-14T10:25:29Z</time>
      </trkpt>
      <trkpt lat="47.77966" lon="-3.63946">
        <ele>17</ele>
        <time>2019-07-14T10:25:30Z</time>
      </trkpt>
      <trkpt lat="47.7797" lon="-3.63943">
        <ele>17</ele>
        <time>2019-07-14T10:25:31Z</time>
      </trkpt>
      <trkpt lat="47.77973" lon="-3.63941">
        <ele>17</ele>
        <time>2019-07-14T10:25:32Z</time>
      </trkpt>
      <trkpt lat="47.77976" lon="-3.63938">
        <ele>17</ele>
        <time>2019-07-14T10:25:33Z</time>
      </trkpt>
      <trkpt lat="47.77979" lon="-3.63937">
        <ele>17</ele>
        <time>2019-07-14T10:25:34Z</time>
      </trkpt>
      <trkpt lat="47.77983" lon="-3.63935">
        <ele>17</ele>
        <time>2019-07-14T10:25:35Z</time>
      </trkpt>
      <trkpt lat="47.77987" lon="-3.63932">
        <ele>17</ele>
        <time>2019-07-14T10:25:36Z</time>
      </trkpt>
      <trkpt lat="47.77991" lon="-3.6393">
        <ele>17</ele>
        <time>2019-07-14T10:25:37Z</time>
      </trkpt>
      <trkpt lat="47.77996" lon="-3.63928">
        <ele>17</ele>
        <time>2019-07-14T10:25:38Z</time>
      </trkpt>
      <trkpt lat="47.77999" lon="-3.63926">
        <ele>17</ele>
        <time>2019-07-14T10:25:39Z</time>
      </trkpt>
      <trkpt lat="47.78004" lon="-3.63924">
        <ele>17</ele>
        <time>2019-07-14T10:25:40Z</time>
      </trkpt>
      <trkpt lat="47.78008" lon="-3.63922">
        <ele>17</ele>
        <time>2019-07-14T10:25:41Z</time>
      </trkpt>
      <trkpt lat="47.78012" lon="-3.63921">
        <ele>18</ele>
        <time>2019-07-14T10:25:42Z</time>
      </trkpt>
      <trkpt lat="47.78015" lon="-3.63919">
        <ele>18</ele>
        <time>2019-07-14T10:25:43Z</time>
      </trkpt>
      <trkpt lat="47.78019" lon="-3.63918">
        <ele>18</ele>
        <time>2019-07-14T10:25:44Z</time>
      </trkpt>
      <trkpt lat="47.78023" lon="-3.63918">
        <ele>18</ele>
        <time>2019-07-14T10:25:45Z</time>
      </trkpt>
      <trkpt lat="47.78027" lon="-3.63919">
        <ele>19</ele>
        <time>2019-07-14T10:25:46Z</time>
      </trkpt>
      <trkpt lat="47.78031" lon="-3.63921">
        <ele>19</ele>
        <time>2019-07-14T10:25:47Z</time>
      </trkpt>
      <trkpt lat="47.78036" lon="-3.63923">
        <ele>19</ele>
        <time>2019-07-14T10:25:48Z</time>
      </trkpt>
      <trkpt lat="47.78041" lon="-3.63925">
        <ele>19</ele>
        <time>2019-07-14T10:25:49Z</time>
      </trkpt>
      <trkpt lat="47.78045" lon="-3.63927">
        <ele>19</ele>
        <time>2019-07-14T10:25:50Z</time>
      </trkpt>
      <trkpt lat="47.7805" lon="-3.63928">
        <ele>20</ele>
        <time>2019-07-14T10:25:51Z</time>
      </trkpt>
      <trkpt lat="47.78054" lon="-3.6393">
        <ele>20</ele>
        <time>2019-07-14T10:25:52Z</time>
      </trkpt>
      <trkpt lat="47.78057" lon="-3.63931">
        <ele>20</ele>
        <time>2019-07-14T10:25:53Z</time>
      </trkpt>
      <trkpt lat="47.78059" lon="-3.63933">
        <ele>20</ele>
        <time>2019-07-14T10:25:54Z</time>
      </trkpt>
      <trkpt lat="47.7806" lon="-3.63935">
        <ele>20</ele>
        <time>2019-07-14T10:25:55Z</time>
      </trkpt>
      <trkpt lat="47.78061" lon="-3.63937">
        <ele>20</ele>
        <time>2019-07-14T10:25:56Z</time>
      </trkpt>
      <trkpt lat="47.78062" lon="-3.6394">
        <ele>21</ele>
        <time>2019-07-14T10:25:57Z</time>
      </trkpt>
      <trkpt lat="47.78063" lon="-3.63943">
        <ele>21</ele>
        <time>2019-07-14T10:25:58Z</time>
      </trkpt>
      <trkpt lat="47.78064" lon="-3.63947">
        <ele>21</ele>
        <time>2019-07-14T10:25:59Z</time>
      </trkpt>
      <trkpt lat="47.78064" lon="-3.63951">
        <ele>21</ele>
        <time>2019-07-14T10:26:00Z</time>
      </trkpt>
      <trkpt lat="47.78065" lon="-3.63955">
        <ele>21</ele>
        <time>2019-07-14T10:26:01Z</time>
      </trkpt>
      <trkpt lat="47.78065" lon="-3.6396">
        <ele>21</ele>
        <time>2019-07-14T10:26:02Z</time>
      </trkpt>
      <trkpt lat="47.78066" lon="-3.63966">
        <ele>21</ele>
        <time>2019-07-14T10:26:03Z</time>
      </trkpt>
      <trkpt lat="47.78066" lon="-3.6397">
        <ele>21</ele>
        <time>2019-07-14T10:26:04Z</time>
      </trkpt>
      <trkpt lat="47.78067" lon="-3.63976">
        <ele>21</ele>
        <time>2019-07-14T10:26:05Z</time>
      </trkpt>
      <trkpt lat="47.78067" lon="-3.6398">
        <ele>21</ele>
        <time>2019-07-14T10:26:06Z</time>
      </trkpt>
      <trkpt lat="47.78068" lon="-3.63984">
        <ele>21</ele>
        <time>2019-07-14T10:26:07Z</time>
      </trkpt>
      <trkpt lat="47.78068" lon="-3.63989">
        <ele>21</ele>
        <time>2019-07-14T10:26:08Z</time>
      </trkpt>
      <trkpt lat="47.78068" lon="-3.63994">
        <ele>21</ele>
        <time>2019-07-14T10:26:09Z</time>
      </trkpt>
      <trkpt lat="47.78067" lon="-3.63998">
        <ele>21</ele>
        <time>2019-07-14T10:26:10Z</time>
      </trkpt>
      <trkpt lat="47.78067" lon="-3.64003">
        <ele>21</ele>
        <time>2019-07-14T10:26:11Z</time>
      </trkpt>
      <trkpt lat="47.78067" lon="-3.64008">
        <ele>21</ele>
        <time>2019-07-14T10:26:12Z</time>
      </trkpt>
      <trkpt lat="47.78067" lon="-3.64012">
        <ele>21</ele>
        <time>2019-07-14T10:26:13Z</time>
      </trkpt>
      <trkpt lat="47.78067" lon="-3.64017">
        <ele>21</ele>
        <time>2019-07-14T10:26:14Z</time>
      </trkpt>
      <trkpt lat="47.78065" lon="-3.64021">
        <ele>21</ele>
        <time>2019-07-14T10:26:15Z</time>
      </trkpt>
      <trkpt lat="47.78065" lon="-3.64026">
        <ele>21</ele>
        <time>2019-07-14T10:26:16Z</time>
      </trkpt>
      <trkpt lat="47.78064" lon="-3.6403">
        <ele>21</ele>
        <time>2019-07-14T10:26:17Z</time>
      </trkpt>
      <trkpt lat="47.78064" lon="-3.64035">
        <ele>21</ele>
        <time>2019-07-14T10:26:18Z</time>
      </trkpt>
      <trkpt lat="47.78062" lon="-3.6404">
        <ele>21</ele>
        <time>2019-07-14T10:26:19Z</time>
      </trkpt>
      <trkpt lat="47.78062" lon="-3.64045">
        <ele>21</ele>
        <time>2019-07-14T10:26:20Z</time>
      </trkpt>
      <trkpt lat="47.78061" lon="-3.6405">
        <ele>21</ele>
        <time>2019-07-14T10:26:21Z</time>
      </trkpt>
      <trkpt lat="47.78059" lon="-3.64055">
        <ele>21</ele>
        <time>2019-07-14T10:26:22Z</time>
      </trkpt>
      <trkpt lat="47.78058" lon="-3.6406">
        <ele>21</ele>
        <time>2019-07-14T10:26:23Z</time>
      </trkpt>
      <trkpt lat="47.78056" lon="-3.64065">
        <ele>21</ele>
        <time>2019-07-14T10:26:24Z</time>
      </trkpt>
      <trkpt lat="47.78055" lon="-3.64071">
        <ele>22</ele>
        <time>2019-07-14T10:26:25Z</time>
      </trkpt>
      <trkpt lat="47.78053" lon="-3.64077">
        <ele>22</ele>
        <time>2019-07-14T10:26:26Z</time>
      </trkpt>
      <trkpt lat="47.78052" lon="-3.64082">
        <ele>22</ele>
        <time>2019-07-14T10:26:27Z</time>
      </trkpt>
      <trkpt lat="47.78051" lon="-3.64088">
        <ele>23</ele>
        <time>2019-07-14T10:26:28Z</time>
      </trkpt>
      <trkpt lat="47.78049" lon="-3.64094">
        <ele>23</ele>
        <time>2019-07-14T10:26:29Z</time>
      </trkpt>
      <trkpt lat="47.78049" lon="-3.641">
        <ele>23</ele>
        <time>2019-07-14T10:26:30Z</time>
      </trkpt>
      <trkpt lat="47.78049" lon="-3.64106">
        <ele>23</ele>
        <time>2019-07-14T10:26:31Z</time>
      </trkpt>
      <trkpt lat="47.78048" lon="-3.64112">
        <ele>23</ele>
        <time>2019-07-14T10:26:32Z</time>
      </trkpt>
      <trkpt lat="47.78049" lon="-3.64118">
        <ele>24</ele>
        <time>2019-07-14T10:26:33Z</time>
      </trkpt>
      <trkpt lat="47.7805" lon="-3.64124">
        <ele>24</ele>
        <time>2019-07-14T10:26:34Z</time>
      </trkpt>
      <trkpt lat="47.78051" lon="-3.6413">
        <ele>24</ele>
        <time>2019-07-14T10:26:35Z</time>
      </trkpt>
      <trkpt lat="47.78052" lon="-3.64135">
        <ele>24</ele>
        <time>2019-07-14T10:26:36Z</time>
      </trkpt>
      <trkpt lat="47.78054" lon="-3.64141">
        <ele>24</ele>
        <time>2019-07-14T10:26:37Z</time>
      </trkpt>
      <trkpt lat="47.78054" lon="-3.64148">
        <ele>24</ele>
        <time>2019-07-14T10:26:38Z</time>
      </trkpt>
      <trkpt lat="47.78054" lon="-3.64155">
        <ele>24</ele>
        <time>2019-07-14T10:26:39Z</time>
      </trkpt>
      <trkpt lat="47.78054" lon="-3.64161">
        <ele>24</ele>
        <time>2019-07-14T10:26:40Z</time>
      </trkpt>
      <trkpt lat="47.78054" lon="-3.64168">
        <ele>24</ele>
        <time>2019-07-14T10:26:41Z</time>
      </trkpt>
      <trkpt lat="47.78054" lon="-3.64175">
        <ele>24</ele>
        <time>2019-07-14T10:26:42Z</time>
      </trkpt>
      <trkpt lat="47.78052" lon="-3.64182">
        <ele>24</ele>
        <time>2019-07-14T10:26:43Z</time>
      </trkpt>
      <trkpt lat="47.78051" lon="-3.64189">
        <ele>24</ele>
        <time>2019-07-14T10:26:44Z</time>
      </trkpt>
      <trkpt lat="47.78051" lon="-3.64196">
        <ele>24</ele>
        <time>2019-07-14T10:26:45Z</time>
      </trkpt>
      <trkpt lat="47.7805" lon="-3.64203">
        <ele>24</ele>
        <time>2019-07-14T10:26:46Z</time>
      </trkpt>
      <trkpt lat="47.7805" lon="-3.6421">
        <ele>24</ele>
        <time>2019-07-14T10:26:47Z</time>
      </trkpt>
      <trkpt lat="47.7805" lon="-3.64216">
        <ele>24</ele>
        <time>2019-07-14T10:26:48Z</time>
      </trkpt>
      <trkpt lat="47.78049" lon="-3.64223">
        <ele>24</ele>
        <time>2019-07-14T10:26:49Z</time>
      </trkpt>
      <trkpt lat="47.78048" lon="-3.64228">
        <ele>24</ele>
        <time>2019-07-14T10:26:50Z</time>
      </trkpt>
      <trkpt lat="47.78045" lon="-3.64231">
        <ele>24</ele>
        <time>2019-07-14T10:26:51Z</time>
      </trkpt>
      <trkpt lat="47.78042" lon="-3.64233">
        <ele>23</ele>
        <time>2019-07-14T10:26:52Z</time>
      </trkpt>
      <trkpt lat="47.78038" lon="-3.64233">
        <ele>23</ele>
        <time>2019-07-14T10:26:53Z</time>
      </trkpt>
      <trkpt lat="47.78034" lon="-3.64234">
        <ele>23</ele>
        <time>2019-07-14T10:26:54Z</time>
      </trkpt>
      <trkpt lat="47.7803" lon="-3.64234">
        <ele>23</ele>
        <time>2019-07-14T10:26:55Z</time>
      </trkpt>
      <trkpt lat="47.78025" lon="-3.64234">
        <ele>23</ele>
        <time>2019-07-14T10:26:56Z</time>
      </trkpt>
      <trkpt lat="47.7802" lon="-3.64234">
        <ele>23</ele>
        <time>2019-07-14T10:26:57Z</time>
      </trkpt>
      <trkpt lat="47.78015" lon="-3.64234">
        <ele>23</ele>
        <time>2019-07-14T10:26:58Z</time>
      </trkpt>
      <trkpt lat="47.7801" lon="-3.64234">
        <ele>23</ele>
        <time>2019-07-14T10:26:59Z</time>
      </trkpt>
      <trkpt lat="47.78005" lon="-3.64234">
        <ele>23</ele>
        <time>2019-07-14T10:27:00Z</time>
      </trkpt>
      <trkpt lat="47.77999" lon="-3.64234">
        <ele>23</ele>
        <time>2019-07-14T10:27:01Z</time>
      </trkpt>
      <trkpt lat="47.77994" lon="-3.64234">
        <ele>23</ele>
        <time>2019-07-14T10:27:02Z</time>
      </trkpt>
      <trkpt lat="47.77989" lon="-3.64234">
        <ele>23</ele>
        <time>2019-07-14T10:27:03Z</time>
      </trkpt>
      <trkpt lat="47.77983" lon="-3.64234">
        <ele>23</ele>
        <time>2019-07-14T10:27:04Z</time>
      </trkpt>
      <trkpt lat="47.77978" lon="-3.64234">
        <ele>23</ele>
        <time>2019-07-14T10:27:05Z</time>
      </trkpt>
      <trkpt lat="47.77973" lon="-3.64233">
        <ele>24</ele>
        <time>2019-07-14T10:27:06Z</time>
      </trkpt>
      <trkpt lat="47.77967" lon="-3.64233">
        <ele>24</ele>
        <time>2019-07-14T10:27:07Z</time>
      </trkpt>
      <trkpt lat="47.77962" lon="-3.64232">
        <ele>24</ele>
        <time>2019-07-14T10:27:08Z</time>
      </trkpt>
      <trkpt lat="47.77956" lon="-3.64231">
        <ele>24</ele>
        <time>2019-07-14T10:27:09Z</time>
      </trkpt>
      <trkpt lat="47.7795" lon="-3.6423">
        <ele>24</ele>
        <time>2019-07-14T10:27:10Z</time>
      </trkpt>
      <trkpt lat="47.77945" lon="-3.64229">
        <ele>24</ele>
        <time>2019-07-14T10:27:11Z</time>
      </trkpt>
      <trkpt lat="47.77939" lon="-3.64227">
        <ele>24</ele>
        <time>2019-07-14T10:27:12Z</time>
      </trkpt>
      <trkpt lat="47.77933" lon="-3.64226">
        <ele>25</ele>
        <time>2019-07-14T10:27:13Z</time>
      </trkpt>
      <trkpt lat="47.77927" lon="-3.64225">
        <ele>25</ele>
        <time>2019-07-14T10:27:14Z</time>
      </trkpt>
      <trkpt lat="47.77921" lon="-3.64224">
        <ele>25</ele>
        <time>2019-07-14T10:27:15Z</time>
      </trkpt>
      <trkpt lat="47.77916" lon="-3.64222">
        <ele>25</ele>
        <time>2019-07-14T10:27:16Z</time>
      </trkpt>
      <trkpt lat="47.7791" lon="-3.64221">
        <ele>25</ele>
        <time>2019-07-14T10:27:17Z</time>
      </trkpt>
      <trkpt lat="47.77904" lon="-3.6422">
        <ele>25</ele>
        <time>2019-07-14T10:27:18Z</time>
      </trkpt>
      <trkpt lat="47.77898" lon="-3.64219">
        <ele>25</ele>
        <time>2019-07-14T10:27:19Z</time>
      </trkpt>
      <trkpt lat="47.77892" lon="-3.64217">
        <ele>25</ele>
        <time>2019-07-14T10:27:20Z</time>
      </trkpt>
      <trkpt lat="47.77886" lon="-3.64216">
        <ele>25</ele>
        <time>2019-07-14T10:27:21Z</time>
      </trkpt>
      <trkpt lat="47.7788" lon="-3.64215">
        <ele>25</ele>
        <time>2019-07-14T10:27:22Z</time>
      </trkpt>
      <trkpt lat="47.77874" lon="-3.64214">
        <ele>25</ele>
        <time>2019-07-14T10:27:23Z</time>
      </trkpt>
      <trkpt lat="47.77868" lon="-3.64213">
        <ele>25</ele>
        <time>2019-07-14T10:27:24Z</time>
      </trkpt>
      <trkpt lat="47.77862" lon="-3.64212">
        <ele>25</ele>
        <time>2019-07-14T10:27:25Z</time>
      </trkpt>
      <trkpt lat="47.77856" lon="-3.64211">
        <ele>25</ele>
        <time>2019-07-14T10:27:26Z</time>
      </trkpt>
      <trkpt lat="47.7785" lon="-3.6421">
        <ele>25</ele>
        <time>2019-07-14T10:27:27Z</time>
      </trkpt>
      <trkpt lat="47.77844" lon="-3.64209">
        <ele>25</ele>
        <time>2019-07-14T10:27:28Z</time>
      </trkpt>
      <trkpt lat="47.77839" lon="-3.6421">
        <ele>25</ele>
        <time>2019-07-14T10:27:29Z</time>
      </trkpt>
      <trkpt lat="47.77834" lon="-3.64213">
        <ele>25</ele>
        <time>2019-07-14T10:27:30Z</time>
      </trkpt>
      <trkpt lat="47.77829" lon="-3.64218">
        <ele>25</ele>
        <time>2019-07-14T10:27:31Z</time>
      </trkpt>
      <trkpt lat="47.77827" lon="-3.64222">
        <ele>25</ele>
        <time>2019-07-14T10:27:32Z</time>
      </trkpt>
      <trkpt lat="47.77825" lon="-3.64225">
        <ele>25</ele>
        <time>2019-07-14T10:27:33Z</time>
      </trkpt>
      <trkpt lat="47.77824" lon="-3.64226">
        <ele>25</ele>
        <time>2019-07-14T10:27:34Z</time>
      </trkpt>
      <trkpt lat="47.77824" lon="-3.64224">
        <ele>25</ele>
        <time>2019-07-14T10:27:35Z</time>
      </trkpt>
      <trkpt lat="47.77825" lon="-3.64222">
        <ele>25</ele>
        <time>2019-07-14T10:27:36Z</time>
      </trkpt>
      <trkpt lat="47.77827" lon="-3.6422">
        <ele>25</ele>
        <time>2019-07-14T10:27:37Z</time>
      </trkpt>
      <trkpt lat="47.77828" lon="-3.64217">
        <ele>26</ele>
        <time>2019-07-14T10:27:38Z</time>
      </trkpt>
      <trkpt lat="47.77829" lon="-3.64213">
        <ele>26</ele>
        <time>2019-07-14T10:27:39Z</time>
      </trkpt>
      <trkpt lat="47.77829" lon="-3.64207">
        <ele>26</ele>
        <time>2019-07-14T10:27:40Z</time>
      </trkpt>
      <trkpt lat="47.77827" lon="-3.64202">
        <ele>26</ele>
        <time>2019-07-14T10:27:41Z</time>
      </trkpt>
      <trkpt lat="47.77825" lon="-3.64196">
        <ele>25</ele>
        <time>2019-07-14T10:27:42Z</time>
      </trkpt>
      <trkpt lat="47.77823" lon="-3.6419">
        <ele>25</ele>
        <time>2019-07-14T10:27:43Z</time>
      </trkpt>
      <trkpt lat="47.7782" lon="-3.64184">
        <ele>25</ele>
        <time>2019-07-14T10:27:44Z</time>
      </trkpt>
      <trkpt lat="47.77818" lon="-3.64177">
        <ele>25</ele>
        <time>2019-07-14T10:27:45Z</time>
      </trkpt>
      <trkpt lat="47.77816" lon="-3.6417">
        <ele>25</ele>
        <time>2019-07-14T10:27:46Z</time>
      </trkpt>
      <trkpt lat="47.77814" lon="-3.64162">
        <ele>25</ele>
        <time>2019-07-14T10:27:47Z</time>
      </trkpt>
      <trkpt lat="47.77812" lon="-3.64154">
        <ele>25</ele>
        <time>2019-07-14T10:27:48Z</time>
      </trkpt>
      <trkpt lat="47.77811" lon="-3.64146">
        <ele>25</ele>
        <time>2019-07-14T10:27:49Z</time>
      </trkpt>
      <trkpt lat="47.77809" lon="-3.64138">
        <ele>24</ele>
        <time>2019-07-14T10:27:50Z</time>
      </trkpt>
      <trkpt lat="47.77807" lon="-3.64131">
        <ele>24</ele>
        <time>2019-07-14T10:27:51Z</time>
      </trkpt>
      <trkpt lat="47.77803" lon="-3.64125">
        <ele>24</ele>
        <time>2019-07-14T10:27:52Z</time>
      </trkpt>
      <trkpt lat="47.77798" lon="-3.64122">
        <ele>24</ele>
        <time>2019-07-14T10:27:53Z</time>
      </trkpt>
      <trkpt lat="47.77793" lon="-3.64122">
        <ele>24</ele>
        <time>2019-07-14T10:27:54Z</time>
      </trkpt>
      <trkpt lat="47.77788" lon="-3.64122">
        <ele>24</ele>
        <time>2019-07-14T10:27:55Z</time>
      </trkpt>
      <trkpt lat="47.77782" lon="-3.64122">
        <ele>24</ele>
        <time>2019-07-14T10:27:56Z</time>
      </trkpt>
      <trkpt lat="47.77778" lon="-3.6412">
        <ele>24</ele>
        <time>2019-07-14T10:27:57Z</time>
      </trkpt>
      <trkpt lat="47.77773" lon="-3.64118">
        <ele>24</ele>
        <time>2019-07-14T10:27:58Z</time>
      </trkpt>
      <trkpt lat="47.77768" lon="-3.64115">
        <ele>24</ele>
        <time>2019-07-14T10:27:59Z</time>
      </trkpt>
      <trkpt lat="47.77764" lon="-3.6411">
        <ele>23</ele>
        <time>2019-07-14T10:28:00Z</time>
      </trkpt>
      <trkpt lat="47.77762" lon="-3.64104">
        <ele>23</ele>
        <time>2019-07-14T10:28:01Z</time>
      </trkpt>
      <trkpt lat="47.77762" lon="-3.64098">
        <ele>23</ele>
        <time>2019-07-14T10:28:02Z</time>
      </trkpt>
      <trkpt lat="47.77762" lon="-3.64091">
        <ele>23</ele>
        <time>2019-07-14T10:28:03Z</time>
      </trkpt>
      <trkpt lat="47.77762" lon="-3.64084">
        <ele>23</ele>
        <time>2019-07-14T10:28:04Z</time>
      </trkpt>
      <trkpt lat="47.7776" lon="-3.64078">
        <ele>23</ele>
        <time>2019-07-14T10:28:05Z</time>
      </trkpt>
      <trkpt lat="47.77757" lon="-3.64072">
        <ele>23</ele>
        <time>2019-07-14T10:28:06Z</time>
      </trkpt>
      <trkpt lat="47.77753" lon="-3.64067">
        <ele>23</ele>
        <time>2019-07-14T10:28:07Z</time>
      </trkpt>
      <trkpt lat="47.77748" lon="-3.64063">
        <ele>23</ele>
        <time>2019-07-14T10:28:08Z</time>
      </trkpt>
      <trkpt lat="47.77744" lon="-3.64062">
        <ele>23</ele>
        <time>2019-07-14T10:28:09Z</time>
      </trkpt>
      <trkpt lat="47.77739" lon="-3.64061">
        <ele>23</ele>
        <time>2019-07-14T10:28:10Z</time>
      </trkpt>
      <trkpt lat="47.77734" lon="-3.6406">
        <ele>23</ele>
        <time>2019-07-14T10:28:11Z</time>
      </trkpt>
      <trkpt lat="47.77729" lon="-3.6406">
        <ele>23</ele>
        <time>2019-07-14T10:28:12Z</time>
      </trkpt>
      <trkpt lat="47.77723" lon="-3.64061">
        <ele>23</ele>
        <time>2019-07-14T10:28:13Z</time>
      </trkpt>
      <trkpt lat="47.77717" lon="-3.64062">
        <ele>23</ele>
        <time>2019-07-14T10:28:14Z</time>
      </trkpt>
      <trkpt lat="47.77711" lon="-3.64064">
        <ele>23</ele>
        <time>2019-07-14T10:28:15Z</time>
      </trkpt>
      <trkpt lat="47.77705" lon="-3.64065">
        <ele>23</ele>
        <time>2019-07-14T10:28:16Z</time>
      </trkpt>
      <trkpt lat="47.77699" lon="-3.64065">
        <ele>23</ele>
        <time>2019-07-14T10:28:17Z</time>
      </trkpt>
      <trkpt lat="47.77693" lon="-3.64066">
        <ele>23</ele>
        <time>2019-07-14T10:28:18Z</time>
      </trkpt>
      <trkpt lat="47.77687" lon="-3.64068">
        <ele>23</ele>
        <time>2019-07-14T10:28:19Z</time>
      </trkpt>
      <trkpt lat="47.77682" lon="-3.64067">
        <ele>22</ele>
        <time>2019-07-14T10:28:20Z</time>
      </trkpt>
      <trkpt lat="47.77677" lon="-3.64064">
        <ele>22</ele>
        <time>2019-07-14T10:28:21Z</time>
      </trkpt>
      <trkpt lat="47.77672" lon="-3.64059">
        <ele>22</ele>
        <time>2019-07-14T10:28:22Z</time>
      </trkpt>
      <trkpt lat="47.77668" lon="-3.64053">
        <ele>22</ele>
        <time>2019-07-14T10:28:23Z</time>
      </trkpt>
      <trkpt lat="47.77664" lon="-3.64046">
        <ele>22</ele>
        <time>2019-07-14T10:28:24Z</time>
      </trkpt>
      <trkpt lat="47.77661" lon="-3.64041">
        <ele>22</ele>
        <time>2019-07-14T10:28:25Z</time>
      </trkpt>
      <trkpt lat="47.77658" lon="-3.64039">
        <ele>22</ele>
        <time>2019-07-14T10:28:26Z</time>
      </trkpt>
      <trkpt lat="47.77654" lon="-3.6404">
        <ele>21</ele>
        <time>2019-07-14T10:28:27Z</time>
      </trkpt>
      <trkpt lat="47.77649" lon="-3.64043">
        <ele>21</ele>
        <time>2019-07-14T10:28:28Z</time>
      </trkpt>
      <trkpt lat="47.77644" lon="-3.64046">
        <ele>21</ele>
        <time>2019-07-14T10:28:29Z</time>
      </trkpt>
      <trkpt lat="47.7764" lon="-3.64049">
        <ele>21</ele>
        <time>2019-07-14T10:28:30Z</time>
      </trkpt>
      <trkpt lat="47.77638" lon="-3.64053">
        <ele>21</ele>
        <time>2019-07-14T10:28:31Z</time>
      </trkpt>
      <trkpt lat="47.77637" lon="-3.64058">
        <ele>20</ele>
        <time>2019-07-14T10:28:32Z</time>
      </trkpt>
      <trkpt lat="47.77636" lon="-3.64065">
        <ele>20</ele>
        <time>2019-07-14T10:28:33Z</time>
      </trkpt>
      <trkpt lat="47.77635" lon="-3.64072">
        <ele>20</ele>
        <time>2019-07-14T10:28:34Z</time>
      </trkpt>
      <trkpt lat="47.77634" lon="-3.64079">
        <ele>20</ele>
        <time>2019-07-14T10:28:35Z</time>
      </trkpt>
      <trkpt lat="47.77634" lon="-3.64086">
        <ele>20</ele>
        <time>2019-07-14T10:28:36Z</time>
      </trkpt>
      <trkpt lat="47.77632" lon="-3.64094">
        <ele>20</ele>
        <time>2019-07-14T10:28:37Z</time>
      </trkpt>
      <trkpt lat="47.77631" lon="-3.64102">
        <ele>20</ele>
        <time>2019-07-14T10:28:38Z</time>
      </trkpt>
      <trkpt lat="47.77631" lon="-3.64109">
        <ele>20</ele>
        <time>2019-07-14T10:28:39Z</time>
      </trkpt>
      <trkpt lat="47.7763" lon="-3.64117">
        <ele>19</ele>
        <time>2019-07-14T10:28:40Z</time>
      </trkpt>
      <trkpt lat="47.7763" lon="-3.64124">
        <ele>19</ele>
        <time>2019-07-14T10:28:41Z</time>
      </trkpt>
      <trkpt lat="47.77631" lon="-3.64131">
        <ele>19</ele>
        <time>2019-07-14T10:28:42Z</time>
      </trkpt>
      <trkpt lat="47.77633" lon="-3.64137">
        <ele>19</ele>
        <time>2019-07-14T10:28:43Z</time>
      </trkpt>
      <trkpt lat="47.77637" lon="-3.64141">
        <ele>19</ele>
        <time>2019-07-14T10:28:44Z</time>
      </trkpt>
      <trkpt lat="47.77641" lon="-3.64143">
        <ele>19</ele>
        <time>2019-07-14T10:28:45Z</time>
      </trkpt>
      <trkpt lat="47.77646" lon="-3.64144">
        <ele>19</ele>
        <time>2019-07-14T10:28:46Z</time>
      </trkpt>
      <trkpt lat="47.7765" lon="-3.64146">
        <ele>19</ele>
        <time>2019-07-14T10:28:47Z</time>
      </trkpt>
      <trkpt lat="47.77654" lon="-3.64147">
        <ele>19</ele>
        <time>2019-07-14T10:28:48Z</time>
      </trkpt>
      <trkpt lat="47.77658" lon="-3.6415">
        <ele>19</ele>
        <time>2019-07-14T10:28:49Z</time>
      </trkpt>
      <trkpt lat="47.77661" lon="-3.64153">
        <ele>19</ele>
        <time>2019-07-14T10:28:50Z</time>
      </trkpt>
      <trkpt lat="47.77663" lon="-3.64157">
        <ele>20</ele>
        <time>2019-07-14T10:28:51Z</time>
      </trkpt>
      <trkpt lat="47.77662" lon="-3.64163">
        <ele>20</ele>
        <time>2019-07-14T10:28:52Z</time>
      </trkpt>
      <trkpt lat="47.77661" lon="-3.6417">
        <ele>20</ele>
        <time>2019-07-14T10:28:53Z</time>
      </trkpt>
      <trkpt lat="47.7766" lon="-3.64177">
        <ele>20</ele>
        <time>2019-07-14T10:28:54Z</time>
      </trkpt>
      <trkpt lat="47.7766" lon="-3.64184">
        <ele>20</ele>
        <time>2019-07-14T10:28:55Z</time>
      </trkpt>
      <trkpt lat="47.77659" lon="-3.64191">
        <ele>20</ele>
        <time>2019-07-14T10:28:56Z</time>
      </trkpt>
      <trkpt lat="47.77659" lon="-3.64199">
        <ele>19</ele>
        <time>2019-07-14T10:28:57Z</time>
      </trkpt>
      <trkpt lat="47.77658" lon="-3.64206">
        <ele>19</ele>
        <time>2019-07-14T10:28:58Z</time>
      </trkpt>
      <trkpt lat="47.77657" lon="-3.64214">
        <ele>19</ele>
        <time>2019-07-14T10:28:59Z</time>
      </trkpt>
      <trkpt lat="47.77656" lon="-3.64222">
        <ele>19</ele>
        <time>2019-07-14T10:29:00Z</time>
      </trkpt>
      <trkpt lat="47.77654" lon="-3.6423">
        <ele>19</ele>
        <time>2019-07-14T10:29:01Z</time>
      </trkpt>
      <trkpt lat="47.77653" lon="-3.64238">
        <ele>19</ele>
        <time>2019-07-14T10:29:02Z</time>
      </trkpt>
      <trkpt lat="47.77653" lon="-3.64245">
        <ele>19</ele>
        <time>2019-07-14T10:29:03Z</time>
      </trkpt>
      <trkpt lat="47.77652" lon="-3.64253">
        <ele>19</ele>
        <time>2019-07-14T10:29:04Z</time>
      </trkpt>
      <trkpt lat="47.77651" lon="-3.6426">
        <ele>19</ele>
        <time>2019-07-14T10:29:05Z</time>
      </trkpt>
      <trkpt lat="47.7765" lon="-3.64269">
        <ele>19</ele>
        <time>2019-07-14T10:29:06Z</time>
      </trkpt>
      <trkpt lat="47.77649" lon="-3.64278">
        <ele>19</ele>
        <time>2019-07-14T10:29:07Z</time>
      </trkpt>
      <trkpt lat="47.77648" lon="-3.64286">
        <ele>19</ele>
        <time>2019-07-14T10:29:08Z</time>
      </trkpt>
      <trkpt lat="47.77648" lon="-3.64294">
        <ele>19</ele>
        <time>2019-07-14T10:29:09Z</time>
      </trkpt>
      <trkpt lat="47.77647" lon="-3.64303">
        <ele>19</ele>
        <time>2019-07-14T10:29:10Z</time>
      </trkpt>
      <trkpt lat="47.77646" lon="-3.64312">
        <ele>19</ele>
        <time>2019-07-14T10:29:11Z</time>
      </trkpt>
      <trkpt lat="47.77646" lon="-3.6432">
        <ele>19</ele>
        <time>2019-07-14T10:29:12Z</time>
      </trkpt>
      <trkpt lat="47.77647" lon="-3.64328">
        <ele>19</ele>
        <time>2019-07-14T10:29:13Z</time>
      </trkpt>
      <trkpt lat="47.7765" lon="-3.64336">
        <ele>19</ele>
        <time>2019-07-14T10:29:14Z</time>
      </trkpt>
      <trkpt lat="47.77652" lon="-3.64343">
        <ele>19</ele>
        <time>2019-07-14T10:29:15Z</time>
      </trkpt>
      <trkpt lat="47.77655" lon="-3.6435">
        <ele>19</ele>
        <time>2019-07-14T10:29:16Z</time>
      </trkpt>
      <trkpt lat="47.77658" lon="-3.64356">
        <ele>19</ele>
        <time>2019-07-14T10:29:17Z</time>
      </trkpt>
      <trkpt lat="47.7766" lon="-3.64363">
        <ele>19</ele>
        <time>2019-07-14T10:29:18Z</time>
      </trkpt>
      <trkpt lat="47.77663" lon="-3.6437">
        <ele>19</ele>
        <time>2019-07-14T10:29:19Z</time>
      </trkpt>
      <trkpt lat="47.77665" lon="-3.64376">
        <ele>19</ele>
        <time>2019-07-14T10:29:20Z</time>
      </trkpt>
      <trkpt lat="47.77668" lon="-3.64383">
        <ele>19</ele>
        <time>2019-07-14T10:29:21Z</time>
      </trkpt>
      <trkpt lat="47.7767" lon="-3.64388">
        <ele>19</ele>
        <time>2019-07-14T10:29:22Z</time>
      </trkpt>
      <trkpt lat="47.77672" lon="-3.64394">
        <ele>19</ele>
        <time>2019-07-14T10:29:23Z</time>
      </trkpt>
      <trkpt lat="47.77674" lon="-3.644">
        <ele>19</ele>
        <time>2019-07-14T10:29:24Z</time>
      </trkpt>
      <trkpt lat="47.77676" lon="-3.64405">
        <ele>19</ele>
        <time>2019-07-14T10:29:25Z</time>
      </trkpt>
      <trkpt lat="47.77679" lon="-3.64408">
        <ele>19</ele>
        <time>2019-07-14T10:29:26Z</time>
      </trkpt>
      <trkpt lat="47.77684" lon="-3.6441">
        <ele>19</ele>
        <time>2019-07-14T10:29:27Z</time>
      </trkpt>
      <trkpt lat="47.77688" lon="-3.64411">
        <ele>19</ele>
        <time>2019-07-14T10:29:28Z</time>
      </trkpt>
      <trkpt lat="47.77693" lon="-3.64412">
        <ele>19</ele>
        <time>2019-07-14T10:29:29Z</time>
      </trkpt>
      <trkpt lat="47.77697" lon="-3.64412">
        <ele>19</ele>
        <time>2019-07-14T10:29:30Z</time>
      </trkpt>
      <trkpt lat="47.77702" lon="-3.64412">
        <ele>19</ele>
        <time>2019-07-14T10:29:31Z</time>
      </trkpt>
      <trkpt lat="47.77707" lon="-3.64412">
        <ele>19</ele>
        <time>2019-07-14T10:29:32Z</time>
      </trkpt>
      <trkpt lat="47.77713" lon="-3.64412">
        <ele>19</ele>
        <time>2019-07-14T10:29:33Z</time>
      </trkpt>
      <trkpt lat="47.77718" lon="-3.64412">
        <ele>19</ele>
        <time>2019-07-14T10:29:34Z</time>
      </trkpt>
      <trkpt lat="47.77723" lon="-3.64412">
        <ele>19</ele>
        <time>2019-07-14T10:29:35Z</time>
      </trkpt>
      <trkpt lat="47.77728" lon="-3.64412">
        <ele>19</ele>
        <time>2019-07-14T10:29:36Z</time>
      </trkpt>
      <trkpt lat="47.77733" lon="-3.64412">
        <ele>19</ele>
        <time>2019-07-14T10:29:37Z</time>
      </trkpt>
      <trkpt lat="47.77739" lon="-3.64411">
        <ele>19</ele>
        <time>2019-07-14T10:29:38Z</time>
      </trkpt>
      <trkpt lat="47.77743" lon="-3.64411">
        <ele>20</ele>
        <time>2019-07-14T10:29:39Z</time>
      </trkpt>
      <trkpt lat="47.77748" lon="-3.64411">
        <ele>20</ele>
        <time>2019-07-14T10:29:40Z</time>
      </trkpt>
      <trkpt lat="47.77753" lon="-3.6441">
        <ele>20</ele>
        <time>2019-07-14T10:29:41Z</time>
      </trkpt>
      <trkpt lat="47.77758" lon="-3.64408">
        <ele>20</ele>
        <time>2019-07-14T10:29:42Z</time>
      </trkpt>
      <trkpt lat="47.77761" lon="-3.64407">
        <ele>20</ele>
        <time>2019-07-14T10:29:43Z</time>
      </trkpt>
      <trkpt lat="47.77763" lon="-3.64408">
        <ele>20</ele>
        <time>2019-07-14T10:29:44Z</time>
      </trkpt>
      <trkpt lat="47.77764" lon="-3.64409">
        <ele>20</ele>
        <time>2019-07-14T10:29:45Z</time>
      </trkpt>
      <trkpt lat="47.77763" lon="-3.64412">
        <ele>20</ele>
        <time>2019-07-14T10:29:46Z</time>
      </trkpt>
      <trkpt lat="47.77763" lon="-3.64417">
        <ele>20</ele>
        <time>2019-07-14T10:29:47Z</time>
      </trkpt>
      <trkpt lat="47.77763" lon="-3.64421">
        <ele>20</ele>
        <time>2019-07-14T10:29:48Z</time>
      </trkpt>
      <trkpt lat="47.77764" lon="-3.64427">
        <ele>20</ele>
        <time>2019-07-14T10:29:49Z</time>
      </trkpt>
      <trkpt lat="47.77765" lon="-3.64433">
        <ele>20</ele>
        <time>2019-07-14T10:29:50Z</time>
      </trkpt>
      <trkpt lat="47.77765" lon="-3.64439">
        <ele>20</ele>
        <time>2019-07-14T10:29:51Z</time>
      </trkpt>
      <trkpt lat="47.77765" lon="-3.64446">
        <ele>19</ele>
        <time>2019-07-14T10:29:52Z</time>
      </trkpt>
      <trkpt lat="47.77765" lon="-3.64455">
        <ele>19</ele>
        <time>2019-07-14T10:29:53Z</time>
      </trkpt>
      <trkpt lat="47.77763" lon="-3.64463">
        <ele>19</ele>
        <time>2019-07-14T10:29:54Z</time>
      </trkpt>
      <trkpt lat="47.77762" lon="-3.64471">
        <ele>19</ele>
        <time>2019-07-14T10:29:55Z</time>
      </trkpt>
      <trkpt lat="47.77761" lon="-3.6448">
        <ele>18</ele>
        <time>2019-07-14T10:29:56Z</time>
      </trkpt>
      <trkpt lat="47.7776" lon="-3.64489">
        <ele>18</ele>
        <time>2019-07-14T10:29:57Z</time>
      </trkpt>
      <trkpt lat="47.77759" lon="-3.64498">
        <ele>18</ele>
        <time>2019-07-14T10:29:58Z</time>
      </trkpt>
      <trkpt lat="47.77758" lon="-3.64506">
        <ele>17</ele>
        <time>2019-07-14T10:29:59Z</time>
      </trkpt>
      <trkpt lat="47.77758" lon="-3.64512">
        <ele>17</ele>
        <time>2019-07-14T10:30:00Z</time>
      </trkpt>
      <trkpt lat="47.77759" lon="-3.64516">
        <ele>17</ele>
        <time>2019-07-14T10:30:01Z</time>
      </trkpt>
      <trkpt lat="47.77761" lon="-3.64519">
        <ele>16</ele>
        <time>2019-07-14T10:30:02Z</time>
      </trkpt>
      <trkpt lat="47.77765" lon="-3.64522">
        <ele>16</ele>
        <time>2019-07-14T10:30:03Z</time>
      </trkpt>
      <trkpt lat="47.77768" lon="-3.64524">
        <ele>16</ele>
        <time>2019-07-14T10:30:04Z</time>
      </trkpt>
      <trkpt lat="47.77772" lon="-3.64525">
        <ele>16</ele>
        <time>2019-07-14T10:30:05Z</time>
      </trkpt>
      <trkpt lat="47.77777" lon="-3.64527">
        <ele>16</ele>
        <time>2019-07-14T10:30:06Z</time>
      </trkpt>
      <trkpt lat="47.77782" lon="-3.64528">
        <ele>16</ele>
        <time>2019-07-14T10:30:07Z</time>
      </trkpt>
      <trkpt lat="47.77786" lon="-3.6453">
        <ele>16</ele>
        <time>2019-07-14T10:30:08Z</time>
      </trkpt>
      <trkpt lat="47.7779" lon="-3.64531">
        <ele>17</ele>
        <time>2019-07-14T10:30:09Z</time>
      </trkpt>
      <trkpt lat="47.77795" lon="-3.64532">
        <ele>17</ele>
        <time>2019-07-14T10:30:10Z</time>
      </trkpt>
      <trkpt lat="47.778" lon="-3.64532">
        <ele>17</ele>
        <time>2019-07-14T10:30:11Z</time>
      </trkpt>
      <trkpt lat="47.77805" lon="-3.64532">
        <ele>17</ele>
        <time>2019-07-14T10:30:12Z</time>
      </trkpt>
      <trkpt lat="47.77809" lon="-3.64532">
        <ele>17</ele>
        <time>2019-07-14T10:30:13Z</time>
      </trkpt>
      <trkpt lat="47.77814" lon="-3.64532">
        <ele>18</ele>
        <time>2019-07-14T10:30:14Z</time>
      </trkpt>
      <trkpt lat="47.77818" lon="-3.64532">
        <ele>18</ele>
        <time>2019-07-14T10:30:15Z</time>
      </trkpt>
      <trkpt lat="47.77822" lon="-3.64531">
        <ele>18</ele>
        <time>2019-07-14T10:30:16Z</time>
      </trkpt>
      <trkpt lat="47.77827" lon="-3.64531">
        <ele>18</ele>
        <time>2019-07-14T10:30:17Z</time>
      </trkpt>
      <trkpt lat="47.77831" lon="-3.64531">
        <ele>18</ele>
        <time>2019-07-14T10:30:18Z</time>
      </trkpt>
      <trkpt lat="47.77835" lon="-3.64531">
        <ele>18</ele>
        <time>2019-07-14T10:30:19Z</time>
      </trkpt>
      <trkpt lat="47.77839" lon="-3.64532">
        <ele>19</ele>
        <time>2019-07-14T10:30:20Z</time>
      </trkpt>
      <trkpt lat="47.77843" lon="-3.64531">
        <ele>19</ele>
        <time>2019-07-14T10:30:21Z</time>
      </trkpt>
      <trkpt lat="47.77847" lon="-3.64531">
        <ele>19</ele>
        <time>2019-07-14T10:30:22Z</time>
      </trkpt>
      <trkpt lat="47.77852" lon="-3.64529">
        <ele>19</ele>
        <time>2019-07-14T10:30:23Z</time>
      </trkpt>
      <trkpt lat="47.77856" lon="-3.64528">
        <ele>19</ele>
        <time>2019-07-14T10:30:24Z</time>
      </trkpt>
      <trkpt lat="47.77861" lon="-3.64527">
        <ele>20</ele>
        <time>2019-07-14T10:30:25Z</time>
      </trkpt>
      <trkpt lat="47.77865" lon="-3.64526">
        <ele>20</ele>
        <time>2019-07-14T10:30:26Z</time>
      </trkpt>
      <trkpt lat="47.77869" lon="-3.64525">
        <ele>20</ele>
        <time>2019-07-14T10:30:27Z</time>
      </trkpt>
      <trkpt lat="47.77873" lon="-3.64524">
        <ele>20</ele>
        <time>2019-07-14T10:30:28Z</time>
      </trkpt>
      <trkpt lat="47.77877" lon="-3.64523">
        <ele>21</ele>
        <time>2019-07-14T10:30:29Z</time>
      </trkpt>
      <trkpt lat="47.77882" lon="-3.64522">
        <ele>21</ele>
        <time>2019-07-14T10:30:30Z</time>
      </trkpt>
      <trkpt lat="47.77886" lon="-3.6452">
        <ele>21</ele>
        <time>2019-07-14T10:30:31Z</time>
      </trkpt>
      <trkpt lat="47.77891" lon="-3.64518">
        <ele>21</ele>
        <time>2019-07-14T10:30:32Z</time>
      </trkpt>
      <trkpt lat="47.77895" lon="-3.64516">
        <ele>21</ele>
        <time>2019-07-14T10:30:33Z</time>
      </trkpt>
      <trkpt lat="47.779" lon="-3.64515">
        <ele>22</ele>
        <time>2019-07-14T10:30:34Z</time>
      </trkpt>
      <trkpt lat="47.77904" lon="-3.64514">
        <ele>22</ele>
        <time>2019-07-14T10:30:35Z</time>
      </trkpt>
      <trkpt lat="47.77909" lon="-3.64513">
        <ele>22</ele>
        <time>2019-07-14T10:30:36Z</time>
      </trkpt>
      <trkpt lat="47.77914" lon="-3.64513">
        <ele>22</ele>
        <time>2019-07-14T10:30:37Z</time>
      </trkpt>
      <trkpt lat="47.77918" lon="-3.64512">
        <ele>23</ele>
        <time>2019-07-14T10:30:38Z</time>
      </trkpt>
      <trkpt lat="47.77923" lon="-3.64512">
        <ele>23</ele>
        <time>2019-07-14T10:30:39Z</time>
      </trkpt>
      <trkpt lat="47.77928" lon="-3.64513">
        <ele>23</ele>
        <time>2019-07-14T10:30:40Z</time>
      </trkpt>
      <trkpt lat="47.77933" lon="-3.64512">
        <ele>23</ele>
        <time>2019-07-14T10:30:41Z</time>
      </trkpt>
      <trkpt lat="47.77938" lon="-3.64511">
        <ele>23</ele>
        <time>2019-07-14T10:30:42Z</time>
      </trkpt>
      <trkpt lat="47.77943" lon="-3.64511">
        <ele>24</ele>
        <time>2019-07-14T10:30:43Z</time>
      </trkpt>
      <trkpt lat="47.77947" lon="-3.6451">
        <ele>24</ele>
        <time>2019-07-14T10:30:44Z</time>
      </trkpt>
      <trkpt lat="47.77952" lon="-3.64509">
        <ele>24</ele>
        <time>2019-07-14T10:30:45Z</time>
      </trkpt>
      <trkpt lat="47.77957" lon="-3.64507">
        <ele>24</ele>
        <time>2019-07-14T10:30:46Z</time>
      </trkpt>
      <trkpt lat="47.77961" lon="-3.64506">
        <ele>24</ele>
        <time>2019-07-14T10:30:47Z</time>
      </trkpt>
      <trkpt lat="47.77965" lon="-3.64505">
        <ele>25</ele>
        <time>2019-07-14T10:30:48Z</time>
      </trkpt>
      <trkpt lat="47.77969" lon="-3.64505">
        <ele>25</ele>
        <time>2019-07-14T10:30:49Z</time>
      </trkpt>
      <trkpt lat="47.77971" lon="-3.64503">
        <ele>25</ele>
        <time>2019-07-14T10:30:50Z</time>
      </trkpt>
      <trkpt lat="47.77973" lon="-3.645">
        <ele>25</ele>
        <time>2019-07-14T10:30:51Z</time>
      </trkpt>
      <trkpt lat="47.77977" lon="-3.64498">
        <ele>25</ele>
        <time>2019-07-14T10:30:52Z</time>
      </trkpt>
      <trkpt lat="47.7798" lon="-3.64495">
        <ele>25</ele>
        <time>2019-07-14T10:30:53Z</time>
      </trkpt>
      <trkpt lat="47.77984" lon="-3.64491">
        <ele>25</ele>
        <time>2019-07-14T10:30:54Z</time>
      </trkpt>
      <trkpt lat="47.77987" lon="-3.64488">
        <ele>25</ele>
        <time>2019-07-14T10:30:55Z</time>
      </trkpt>
      <trkpt lat="47.7799" lon="-3.64484">
        <ele>25</ele>
        <time>2019-07-14T10:30:56Z</time>
      </trkpt>
      <trkpt lat="47.77993" lon="-3.64479">
        <ele>25</ele>
        <time>2019-07-14T10:30:57Z</time>
      </trkpt>
      <trkpt lat="47.77997" lon="-3.64475">
        <ele>25</ele>
        <time>2019-07-14T10:30:58Z</time>
      </trkpt>
      <trkpt lat="47.78001" lon="-3.64472">
        <ele>25</ele>
        <time>2019-07-14T10:30:59Z</time>
      </trkpt>
      <trkpt lat="47.78005" lon="-3.64469">
        <ele>25</ele>
        <time>2019-07-14T10:31:00Z</time>
      </trkpt>
      <trkpt lat="47.78008" lon="-3.64466">
        <ele>25</ele>
        <time>2019-07-14T10:31:01Z</time>
      </trkpt>
      <trkpt lat="47.7801" lon="-3.64463">
        <ele>25</ele>
        <time>2019-07-14T10:31:02Z</time>
      </trkpt>
      <trkpt lat="47.78012" lon="-3.64461">
        <ele>25</ele>
        <time>2019-07-14T10:31:03Z</time>
      </trkpt>
      <trkpt lat="47.78015" lon="-3.64459">
        <ele>25</ele>
        <time>2019-07-14T10:31:04Z</time>
      </trkpt>
      <trkpt lat="47.78017" lon="-3.64456">
        <ele>25</ele>
        <time>2019-07-14T10:31:05Z</time>
      </trkpt>
      <trkpt lat="47.78019" lon="-3.64453">
        <ele>25</ele>
        <time>2019-07-14T10:31:06Z</time>
      </trkpt>
      <trkpt lat="47.78021" lon="-3.6445">
        <ele>25</ele>
        <time>2019-07-14T10:31:07Z</time>
      </trkpt>
      <trkpt lat="47.78024" lon="-3.64447">
        <ele>25</ele>
        <time>2019-07-14T10:31:08Z</time>
      </trkpt>
      <trkpt lat="47.78027" lon="-3.64442">
        <ele>25</ele>
        <time>2019-07-14T10:31:09Z</time>
      </trkpt>
      <trkpt lat="47.78029" lon="-3.64436">
        <ele>26</ele>
        <time>2019-07-14T10:31:10Z</time>
      </trkpt>
      <trkpt lat="47.78033" lon="-3.64429">
        <ele>26</ele>
        <time>2019-07-14T10:31:11Z</time>
      </trkpt>
      <trkpt lat="47.78036" lon="-3.64421">
        <ele>25</ele>
        <time>2019-07-14T10:31:12Z</time>
      </trkpt>
      <trkpt lat="47.78039" lon="-3.64413">
        <ele>25</ele>
        <time>2019-07-14T10:31:13Z</time>
      </trkpt>
      <trkpt lat="47.78041" lon="-3.64405">
        <ele>25</ele>
        <time>2019-07-14T10:31:14Z</time>
      </trkpt>
      <trkpt lat="47.78043" lon="-3.64398">
        <ele>25</ele>
        <time>2019-07-14T10:31:15Z</time>
      </trkpt>
      <trkpt lat="47.78045" lon="-3.6439">
        <ele>25</ele>
        <time>2019-07-14T10:31:16Z</time>
      </trkpt>
      <trkpt lat="47.78047" lon="-3.64383">
        <ele>25</ele>
        <time>2019-07-14T10:31:17Z</time>
      </trkpt>
      <trkpt lat="47.78048" lon="-3.64376">
        <ele>24</ele>
        <time>2019-07-14T10:31:18Z</time>
      </trkpt>
      <trkpt lat="47.7805" lon="-3.64368">
        <ele>24</ele>
        <time>2019-07-14T10:31:19Z</time>
      </trkpt>
      <trkpt lat="47.78051" lon="-3.64361">
        <ele>24</ele>
        <time>2019-07-14T10:31:20Z</time>
      </trkpt>
      <trkpt lat="47.78051" lon="-3.64354">
        <ele>24</ele>
        <time>2019-07-14T10:31:21Z</time>
      </trkpt>
      <trkpt lat="47.78053" lon="-3.64347">
        <ele>23</ele>
        <time>2019-07-14T10:31:22Z</time>
      </trkpt>
      <trkpt lat="47.78055" lon="-3.64341">
        <ele>23</ele>
        <time>2019-07-14T10:31:23Z</time>
      </trkpt>
      <trkpt lat="47.78057" lon="-3.64335">
        <ele>23</ele>
        <time>2019-07-14T10:31:24Z</time>
      </trkpt>
      <trkpt lat="47.78059" lon="-3.6433">
        <ele>23</ele>
        <time>2019-07-14T10:31:25Z</time>
      </trkpt>
      <trkpt lat="47.78062" lon="-3.64328">
        <ele>23</ele>
        <time>2019-07-14T10:31:26Z</time>
      </trkpt>
      <trkpt lat="47.78065" lon="-3.64328">
        <ele>23</ele>
        <time>2019-07-14T10:31:27Z</time>
      </trkpt>
      <trkpt lat="47.78069" lon="-3.64329">
        <ele>23</ele>
        <time>2019-07-14T10:31:28Z</time>
      </trkpt>
      <trkpt lat="47.78073" lon="-3.6433">
        <ele>23</ele>
        <time>2019-07-14T10:31:29Z</time>
      </trkpt>
      <trkpt lat="47.78078" lon="-3.64331">
        <ele>23</ele>
        <time>2019-07-14T10:31:30Z</time>
      </trkpt>
      <trkpt lat="47.78083" lon="-3.64332">
        <ele>23</ele>
        <time>2019-07-14T10:31:31Z</time>
      </trkpt>
      <trkpt lat="47.78087" lon="-3.64334">
        <ele>24</ele>
        <time>2019-07-14T10:31:32Z</time>
      </trkpt>
      <trkpt lat="47.78092" lon="-3.64336">
        <ele>24</ele>
        <time>2019-07-14T10:31:33Z</time>
      </trkpt>
      <trkpt lat="47.78097" lon="-3.64338">
        <ele>24</ele>
        <time>2019-07-14T10:31:34Z</time>
      </trkpt>
      <trkpt lat="47.78102" lon="-3.64339">
        <ele>24</ele>
        <time>2019-07-14T10:31:35Z</time>
      </trkpt>
      <trkpt lat="47.78107" lon="-3.64341">
        <ele>25</ele>
        <time>2019-07-14T10:31:36Z</time>
      </trkpt>
      <trkpt lat="47.78111" lon="-3.64343">
        <ele>25</ele>
        <time>2019-07-14T10:31:37Z</time>
      </trkpt>
      <trkpt lat="47.78117" lon="-3.64343">
        <ele>25</ele>
        <time>2019-07-14T10:31:38Z</time>
      </trkpt>
      <trkpt lat="47.78121" lon="-3.64344">
        <ele>26</ele>
        <time>2019-07-14T10:31:39Z</time>
      </trkpt>
      <trkpt lat="47.78126" lon="-3.64344">
        <ele>26</ele>
        <time>2019-07-14T10:31:40Z</time>
      </trkpt>
      <trkpt lat="47.78131" lon="-3.64344">
        <ele>27</ele>
        <time>2019-07-14T10:31:41Z</time>
      </trkpt>
      <trkpt lat="47.78136" lon="-3.64343">
        <ele>27</ele>
        <time>2019-07-14T10:31:42Z</time>
      </trkpt>
      <trkpt lat="47.78141" lon="-3.64342">
        <ele>27</ele>
        <time>2019-07-14T10:31:43Z</time>
      </trkpt>
      <trkpt lat="47.78146" lon="-3.64341">
        <ele>28</ele>
        <time>2019-07-14T10:31:44Z</time>
      </trkpt>
      <trkpt lat="47.78151" lon="-3.6434">
        <ele>28</ele>
        <time>2019-07-14T10:31:45Z</time>
      </trkpt>
      <trkpt lat="47.78155" lon="-3.64339">
        <ele>28</ele>
        <time>2019-07-14T10:31:46Z</time>
      </trkpt>
      <trkpt lat="47.7816" lon="-3.64338">
        <ele>28</ele>
        <time>2019-07-14T10:31:47Z</time>
      </trkpt>
      <trkpt lat="47.78164" lon="-3.64336">
        <ele>29</ele>
        <time>2019-07-14T10:31:48Z</time>
      </trkpt>
      <trkpt lat="47.78168" lon="-3.64335">
        <ele>29</ele>
        <time>2019-07-14T10:31:49Z</time>
      </trkpt>
      <trkpt lat="47.78172" lon="-3.64334">
        <ele>29</ele>
        <time>2019-07-14T10:31:50Z</time>
      </trkpt>
      <trkpt lat="47.78175" lon="-3.64331">
        <ele>30</ele>
        <time>2019-07-14T10:31:51Z</time>
      </trkpt>
      <trkpt lat="47.78178" lon="-3.64326">
        <ele>30</ele>
        <time>2019-07-14T10:31:52Z</time>
      </trkpt>
      <trkpt lat="47.7818" lon="-3.64319">
        <ele>30</ele>
        <time>2019-07-14T10:31:53Z</time>
      </trkpt>
      <trkpt lat="47.78181" lon="-3.64312">
        <ele>30</ele>
        <time>2019-07-14T10:31:54Z</time>
      </trkpt>
      <trkpt lat="47.78182" lon="-3.64305">
        <ele>30</ele>
        <time>2019-07-14T10:31:55Z</time>
      </trkpt>
      <trkpt lat="47.78184" lon="-3.64298">
        <ele>30</ele>
        <time>2019-07-14T10:31:56Z</time>
      </trkpt>
      <trkpt lat="47.78185" lon="-3.64291">
        <ele>30</ele>
        <time>2019-07-14T10:31:57Z</time>
      </trkpt>
      <trkpt lat="47.78188" lon="-3.64284">
        <ele>30</ele>
        <time>2019-07-14T10:31:58Z</time>
      </trkpt>
      <trkpt lat="47.7819" lon="-3.64277">
        <ele>30</ele>
        <time>2019-07-14T10:31:59Z</time>
      </trkpt>
      <trkpt lat="47.78193" lon="-3.64271">
        <ele>30</ele>
        <time>2019-07-14T10:32:00Z</time>
      </trkpt>
      <trkpt lat="47.78195" lon="-3.64265">
        <ele>30</ele>
        <time>2019-07-14T10:32:01Z</time>
      </trkpt>
      <trkpt lat="47.78198" lon="-3.64259">
        <ele>30</ele>
        <time>2019-07-14T10:32:02Z</time>
      </trkpt>
      <trkpt lat="47.78202" lon="-3.64253">
        <ele>30</ele>
        <time>2019-07-14T10:32:03Z</time>
      </trkpt>
      <trkpt lat="47.78206" lon="-3.64248">
        <ele>30</ele>
        <time>2019-07-14T10:32:04Z</time>
      </trkpt>
      <trkpt lat="47.7821" lon="-3.64243">
        <ele>31</ele>
        <time>2019-07-14T10:32:05Z</time>
      </trkpt>
      <trkpt lat="47.78214" lon="-3.64238">
        <ele>31</ele>
        <time>2019-07-14T10:32:06Z</time>
      </trkpt>
      <trkpt lat="47.78218" lon="-3.64233">
        <ele>31</ele>
        <time>2019-07-14T10:32:07Z</time>
      </trkpt>
      <trkpt lat="47.78222" lon="-3.64227">
        <ele>31</ele>
        <time>2019-07-14T10:32:08Z</time>
      </trkpt>
      <trkpt lat="47.78227" lon="-3.64222">
        <ele>31</ele>
        <time>2019-07-14T10:32:09Z</time>
      </trkpt>
      <trkpt lat="47.78231" lon="-3.64217">
        <ele>31</ele>
        <time>2019-07-14T10:32:10Z</time>
      </trkpt>
      <trkpt lat="47.78234" lon="-3.64212">
        <ele>31</ele>
        <time>2019-07-14T10:32:11Z</time>
      </trkpt>
      <trkpt lat="47.78238" lon="-3.64206">
        <ele>31</ele>
        <time>2019-07-14T10:32:12Z</time>
      </trkpt>
      <trkpt lat="47.78242" lon="-3.642">
        <ele>31</ele>
        <time>2019-07-14T10:32:13Z</time>
      </trkpt>
      <trkpt lat="47.78245" lon="-3.64194">
        <ele>31</ele>
        <time>2019-07-14T10:32:14Z</time>
      </trkpt>
      <trkpt lat="47.78248" lon="-3.64187">
        <ele>31</ele>
        <time>2019-07-14T10:32:15Z</time>
      </trkpt>
      <trkpt lat="47.78252" lon="-3.6418">
        <ele>32</ele>
        <time>2019-07-14T10:32:16Z</time>
      </trkpt>
      <trkpt lat="47.78255" lon="-3.64173">
        <ele>32</ele>
        <time>2019-07-14T10:32:17Z</time>
      </trkpt>
      <trkpt lat="47.78258" lon="-3.64165">
        <ele>32</ele>
        <time>2019-07-14T10:32:18Z</time>
      </trkpt>
      <trkpt lat="47.7826" lon="-3.64158">
        <ele>32</ele>
        <time>2019-07-14T10:32:19Z</time>
      </trkpt>
      <trkpt lat="47.78262" lon="-3.6415">
        <ele>32</ele>
        <time>2019-07-14T10:32:20Z</time>
      </trkpt>
      <trkpt lat="47.78264" lon="-3.64142">
        <ele>32</ele>
        <time>2019-07-14T10:32:21Z</time>
      </trkpt>
      <trkpt lat="47.78266" lon="-3.64135">
        <ele>32</ele>
        <time>2019-07-14T10:32:22Z</time>
      </trkpt>
      <trkpt lat="47.78268" lon="-3.64127">
        <ele>32</ele>
        <time>2019-07-14T10:32:23Z</time>
      </trkpt>
      <trkpt lat="47.78269" lon="-3.64119">
        <ele>32</ele>
        <time>2019-07-14T10:32:24Z</time>
      </trkpt>
      <trkpt lat="47.78271" lon="-3.64111">
        <ele>32</ele>
        <time>2019-07-14T10:32:25Z</time>
      </trkpt>
      <trkpt lat="47.78273" lon="-3.64103">
        <ele>33</ele>
        <time>2019-07-14T10:32:26Z</time>
      </trkpt>
      <trkpt lat="47.78275" lon="-3.64095">
        <ele>33</ele>
        <time>2019-07-14T10:32:27Z</time>
      </trkpt>
      <trkpt lat="47.78277" lon="-3.64087">
        <ele>33</ele>
        <time>2019-07-14T10:32:28Z</time>
      </trkpt>
      <trkpt lat="47.78279" lon="-3.64079">
        <ele>33</ele>
        <time>2019-07-14T10:32:29Z</time>
      </trkpt>
      <trkpt lat="47.78281" lon="-3.64071">
        <ele>33</ele>
        <time>2019-07-14T10:32:30Z</time>
      </trkpt>
      <trkpt lat="47.78283" lon="-3.64063">
        <ele>33</ele>
        <time>2019-07-14T10:32:31Z</time>
      </trkpt>
      <trkpt lat="47.78286" lon="-3.64056">
        <ele>33</ele>
        <time>2019-07-14T10:32:32Z</time>
      </trkpt>
      <trkpt lat="47.78289" lon="-3.64049">
        <ele>33</ele>
        <time>2019-07-14T10:32:33Z</time>
      </trkpt>
      <trkpt lat="47.78292" lon="-3.64043">
        <ele>33</ele>
        <time>2019-07-14T10:32:34Z</time>
      </trkpt>
      <trkpt lat="47.78295" lon="-3.64037">
        <ele>33</ele>
        <time>2019-07-14T10:32:35Z</time>
      </trkpt>
      <trkpt lat="47.78298" lon="-3.64031">
        <ele>33</ele>
        <time>2019-07-14T10:32:36Z</time>
      </trkpt>
      <trkpt lat="47.783" lon="-3.64026">
        <ele>33</ele>
        <time>2019-07-14T10:32:37Z</time>
      </trkpt>
      <trkpt lat="47.78302" lon="-3.6402">
        <ele>33</ele>
        <time>2019-07-14T10:32:38Z</time>
      </trkpt>
      <trkpt lat="47.78304" lon="-3.64014">
        <ele>33</ele>
        <time>2019-07-14T10:32:39Z</time>
      </trkpt>
      <trkpt lat="47.78305" lon="-3.64008">
        <ele>33</ele>
        <time>2019-07-14T10:32:40Z</time>
      </trkpt>
      <trkpt lat="47.78306" lon="-3.64002">
        <ele>33</ele>
        <time>2019-07-14T10:32:41Z</time>
      </trkpt>
      <trkpt lat="47.78307" lon="-3.63994">
        <ele>33</ele>
        <time>2019-07-14T10:32:42Z</time>
      </trkpt>
      <trkpt lat="47.78307" lon="-3.63987">
        <ele>33</ele>
        <time>2019-07-14T10:32:43Z</time>
      </trkpt>
      <trkpt lat="47.78308" lon="-3.6398">
        <ele>33</ele>
        <time>2019-07-14T10:32:44Z</time>
      </trkpt>
      <trkpt lat="47.78309" lon="-3.63973">
        <ele>33</ele>
        <time>2019-07-14T10:32:45Z</time>
      </trkpt>
      <trkpt lat="47.7831" lon="-3.63966">
        <ele>33</ele>
        <time>2019-07-14T10:32:46Z</time>
      </trkpt>
      <trkpt lat="47.78311" lon="-3.63958">
        <ele>33</ele>
        <time>2019-07-14T10:32:47Z</time>
      </trkpt>
      <trkpt lat="47.78314" lon="-3.63951">
        <ele>33</ele>
        <time>2019-07-14T10:32:48Z</time>
      </trkpt>
      <trkpt lat="47.78316" lon="-3.63945">
        <ele>34</ele>
        <time>2019-07-14T10:32:49Z</time>
      </trkpt>
      <trkpt lat="47.78318" lon="-3.6394">
        <ele>34</ele>
        <time>2019-07-14T10:32:50Z</time>
      </trkpt>
      <trkpt lat="47.78321" lon="-3.63935">
        <ele>34</ele>
        <time>2019-07-14T10:32:51Z</time>
      </trkpt>
      <trkpt lat="47.78324" lon="-3.63931">
        <ele>34</ele>
        <time>2019-07-14T10:32:52Z</time>
      </trkpt>
      <trkpt lat="47.78327" lon="-3.63927">
        <ele>34</ele>
        <time>2019-07-14T10:32:53Z</time>
      </trkpt>
      <trkpt lat="47.78329" lon="-3.63924">
        <ele>34</ele>
        <time>2019-07-14T10:32:54Z</time>
      </trkpt>
      <trkpt lat="47.7833" lon="-3.63919">
        <ele>34</ele>
        <time>2019-07-14T10:32:55Z</time>
      </trkpt>
      <trkpt lat="47.78332" lon="-3.63915">
        <ele>34</ele>
        <time>2019-07-14T10:32:56Z</time>
      </trkpt>
      <trkpt lat="47.78335" lon="-3.6391">
        <ele>34</ele>
        <time>2019-07-14T10:32:57Z</time>
      </trkpt>
      <trkpt lat="47.78338" lon="-3.63905">
        <ele>34</ele>
        <time>2019-07-14T10:32:58Z</time>
      </trkpt>
      <trkpt lat="47.78341" lon="-3.63901">
        <ele>34</ele>
        <time>2019-07-14T10:32:59Z</time>
      </trkpt>
      <trkpt lat="47.78343" lon="-3.63896">
        <ele>34</ele>
        <time>2019-07-14T10:33:00Z</time>
      </trkpt>
      <trkpt lat="47.78346" lon="-3.63892">
        <ele>34</ele>
        <time>2019-07-14T10:33:01Z</time>
      </trkpt>
      <trkpt lat="47.78349" lon="-3.63889">
        <ele>34</ele>
        <time>2019-07-14T10:33:02Z</time>
      </trkpt>
      <trkpt lat="47.78353" lon="-3.63885">
        <ele>34</ele>
        <time>2019-07-14T10:33:03Z</time>
      </trkpt>
      <trkpt lat="47.78358" lon="-3.6388">
        <ele>34</ele>
        <time>2019-07-14T10:33:04Z</time>
      </trkpt>
      <trkpt lat="47.78362" lon="-3.63875">
        <ele>34</ele>
        <time>2019-07-14T10:33:05Z</time>
      </trkpt>
      <trkpt lat="47.78367" lon="-3.63871">
        <ele>34</ele>
        <time>2019-07-14T10:33:06Z</time>
      </trkpt>
      <trkpt lat="47.78372" lon="-3.63865">
        <ele>34</ele>
        <time>2019-07-14T10:33:07Z</time>
      </trkpt>
      <trkpt lat="47.78376" lon="-3.63861">
        <ele>35</ele>
        <time>2019-07-14T10:33:08Z</time>
      </trkpt>
      <trkpt lat="47.7838" lon="-3.63857">
        <ele>35</ele>
        <time>2019-07-14T10:33:09Z</time>
      </trkpt>
      <trkpt lat="47.78385" lon="-3.63853">
        <ele>35</ele>
        <time>2019-07-14T10:33:10Z</time>
      </trkpt>
      <trkpt lat="47.7839" lon="-3.63848">
        <ele>35</ele>
        <time>2019-07-14T10:33:11Z</time>
      </trkpt>
      <trkpt lat="47.78394" lon="-3.63844">
        <ele>35</ele>
        <time>2019-07-14T10:33:12Z</time>
      </trkpt>
      <trkpt lat="47.78398" lon="-3.6384">
        <ele>35</ele>
        <time>2019-07-14T10:33:13Z</time>
      </trkpt>
      <trkpt lat="47.78401" lon="-3.63836">
        <ele>35</ele>
        <time>2019-07-14T10:33:14Z</time>
      </trkpt>
      <trkpt lat="47.78405" lon="-3.63833">
        <ele>35</ele>
        <time>2019-07-14T10:33:15Z</time>
      </trkpt>
      <trkpt lat="47.78408" lon="-3.63829">
        <ele>35</ele>
        <time>2019-07-14T10:33:16Z</time>
      </trkpt>
      <trkpt lat="47.78411" lon="-3.63825">
        <ele>35</ele>
        <time>2019-07-14T10:33:17Z</time>
      </trkpt>
      <trkpt lat="47.78414" lon="-3.63821">
        <ele>35</ele>
        <time>2019-07-14T10:33:18Z</time>
      </trkpt>
      <trkpt lat="47.78418" lon="-3.63816">
        <ele>35</ele>
        <time>2019-07-14T10:33:19Z</time>
      </trkpt>
      <trkpt lat="47.78422" lon="-3.6381">
        <ele>35</ele>
        <time>2019-07-14T10:33:20Z</time>
      </trkpt>
      <trkpt lat="47.78426" lon="-3.63804">
        <ele>35</ele>
        <time>2019-07-14T10:33:21Z</time>
      </trkpt>
      <trkpt lat="47.7843" lon="-3.63798">
        <ele>35</ele>
        <time>2019-07-14T10:33:22Z</time>
      </trkpt>
      <trkpt lat="47.78434" lon="-3.63791">
        <ele>35</ele>
        <time>2019-07-14T10:33:23Z</time>
      </trkpt>
      <trkpt lat="47.78437" lon="-3.63785">
        <ele>36</ele>
        <time>2019-07-14T10:33:24Z</time>
      </trkpt>
      <trkpt lat="47.78441" lon="-3.63779">
        <ele>36</ele>
        <time>2019-07-14T10:33:25Z</time>
      </trkpt>
      <trkpt lat="47.78445" lon="-3.63772">
        <ele>36</ele>
        <time>2019-07-14T10:33:26Z</time>
      </trkpt>
      <trkpt lat="47.78449" lon="-3.63765">
        <ele>36</ele>
        <time>2019-07-14T10:33:27Z</time>
      </trkpt>
      <trkpt lat="47.78452" lon="-3.63759">
        <ele>36</ele>
        <time>2019-07-14T10:33:28Z</time>
      </trkpt>
      <trkpt lat="47.78456" lon="-3.63754">
        <ele>36</ele>
        <time>2019-07-14T10:33:29Z</time>
      </trkpt>
      <trkpt lat="47.7846" lon="-3.63747">
        <ele>37</ele>
        <time>2019-07-14T10:33:30Z</time>
      </trkpt>
      <trkpt lat="47.78464" lon="-3.63742">
        <ele>37</ele>
        <time>2019-07-14T10:33:31Z</time>
      </trkpt>
      <trkpt lat="47.78468" lon="-3.63738">
        <ele>37</ele>
        <time>2019-07-14T10:33:32Z</time>
      </trkpt>
      <trkpt lat="47.78472" lon="-3.63733">
        <ele>37</ele>
        <time>2019-07-14T10:33:33Z</time>
      </trkpt>
      <trkpt lat="47.78478" lon="-3.63728">
        <ele>36</ele>
        <time>2019-07-14T10:33:34Z</time>
      </trkpt>
      <trkpt lat="47.78483" lon="-3.63723">
        <ele>36</ele>
        <time>2019-07-14T10:33:35Z</time>
      </trkpt>
      <trkpt lat="47.78488" lon="-3.63718">
        <ele>36</ele>
        <time>2019-07-14T10:33:36Z</time>
      </trkpt>
      <trkpt lat="47.78493" lon="-3.63714">
        <ele>36</ele>
        <time>2019-07-14T10:33:37Z</time>
      </trkpt>
      <trkpt lat="47.78498" lon="-3.6371">
        <ele>36</ele>
        <time>2019-07-14T10:33:38Z</time>
      </trkpt>
      <trkpt lat="47.78503" lon="-3.63705">
        <ele>36</ele>
        <time>2019-07-14T10:33:39Z</time>
      </trkpt>
      <trkpt lat="47.78509" lon="-3.637">
        <ele>36</ele>
        <time>2019-07-14T10:33:40Z</time>
      </trkpt>
      <trkpt lat="47.78514" lon="-3.63695">
        <ele>36</ele>
        <time>2019-07-14T10:33:41Z</time>
      </trkpt>
      <trkpt lat="47.7852" lon="-3.63689">
        <ele>36</ele>
        <time>2019-07-14T10:33:42Z</time>
      </trkpt>
      <trkpt lat="47.78525" lon="-3.63684">
        <ele>36</ele>
        <time>2019-07-14T10:33:43Z</time>
      </trkpt>
      <trkpt lat="47.78531" lon="-3.63679">
        <ele>36</ele>
        <time>2019-07-14T10:33:44Z</time>
      </trkpt>
      <trkpt lat="47.78536" lon="-3.63673">
        <ele>36</ele>
        <time>2019-07-14T10:33:45Z</time>
      </trkpt>
      <trkpt lat="47.78541" lon="-3.63668">
        <ele>36</ele>
        <time>2019-07-14T10:33:46Z</time>
      </trkpt>
      <trkpt lat="47.78546" lon="-3.63664">
        <ele>36</ele>
        <time>2019-07-14T10:33:47Z</time>
      </trkpt>
      <trkpt lat="47.78551" lon="-3.63659">
        <ele>36</ele>
        <time>2019-07-14T10:33:48Z</time>
      </trkpt>
      <trkpt lat="47.78557" lon="-3.63655">
        <ele>36</ele>
        <time>2019-07-14T10:33:49Z</time>
      </trkpt>
      <trkpt lat="47.78562" lon="-3.6365">
        <ele>36</ele>
        <time>2019-07-14T10:33:50Z</time>
      </trkpt>
      <trkpt lat="47.78567" lon="-3.63646">
        <ele>36</ele>
        <time>2019-07-14T10:33:51Z</time>
      </trkpt>
      <trkpt lat="47.78572" lon="-3.63642">
        <ele>36</ele>
        <time>2019-07-14T10:33:52Z</time>
      </trkpt>
      <trkpt lat="47.78577" lon="-3.63638">
        <ele>36</ele>
        <time>2019-07-14T10:33:53Z</time>
      </trkpt>
      <trkpt lat="47.78583" lon="-3.63634">
        <ele>36</ele>
        <time>2019-07-14T10:33:54Z</time>
      </trkpt>
      <trkpt lat="47.78588" lon="-3.6363">
        <ele>36</ele>
        <time>2019-07-14T10:33:55Z</time>
      </trkpt>
      <trkpt lat="47.78593" lon="-3.63627">
        <ele>36</ele>
        <time>2019-07-14T10:33:56Z</time>
      </trkpt>
      <trkpt lat="47.78598" lon="-3.63624">
        <ele>36</ele>
        <time>2019-07-14T10:33:57Z</time>
      </trkpt>
      <trkpt lat="47.78602" lon="-3.63621">
        <ele>36</ele>
        <time>2019-07-14T10:33:58Z</time>
      </trkpt>
      <trkpt lat="47.78606" lon="-3.63619">
        <ele>36</ele>
        <time>2019-07-14T10:33:59Z</time>
      </trkpt>
      <trkpt lat="47.7861" lon="-3.63616">
        <ele>36</ele>
        <time>2019-07-14T10:34:00Z</time>
      </trkpt>
      <trkpt lat="47.78614" lon="-3.63614">
        <ele>37</ele>
        <time>2019-07-14T10:34:01Z</time>
      </trkpt>
      <trkpt lat="47.78618" lon="-3.63612">
        <ele>37</ele>
        <time>2019-07-14T10:34:02Z</time>
      </trkpt>
      <trkpt lat="47.78621" lon="-3.63609">
        <ele>37</ele>
        <time>2019-07-14T10:34:03Z</time>
      </trkpt>
      <trkpt lat="47.78625" lon="-3.63606">
        <ele>37</ele>
        <time>2019-07-14T10:34:04Z</time>
      </trkpt>
      <trkpt lat="47.78629" lon="-3.63603">
        <ele>37</ele>
        <time>2019-07-14T10:34:05Z</time>
      </trkpt>
      <trkpt lat="47.78633" lon="-3.63601">
        <ele>37</ele>
        <time>2019-07-14T10:34:06Z</time>
      </trkpt>
      <trkpt lat="47.78636" lon="-3.63598">
        <ele>37</ele>
        <time>2019-07-14T10:34:07Z</time>
      </trkpt>
      <trkpt lat="47.7864" lon="-3.63595">
        <ele>37</ele>
        <time>2019-07-14T10:34:08Z</time>
      </trkpt>
      <trkpt lat="47.78644" lon="-3.63592">
        <ele>37</ele>
        <time>2019-07-14T10:34:09Z</time>
      </trkpt>
      <trkpt lat="47.78648" lon="-3.6359">
        <ele>37</ele>
        <time>2019-07-14T10:34:10Z</time>
      </trkpt>
      <trkpt lat="47.78652" lon="-3.63587">
        <ele>37</ele>
        <time>2019-07-14T10:34:11Z</time>
      </trkpt>
      <trkpt lat="47.78656" lon="-3.63584">
        <ele>37</ele>
        <time>2019-07-14T10:34:12Z</time>
      </trkpt>
      <trkpt lat="47.7866" lon="-3.6358">
        <ele>37</ele>
        <time>2019-07-14T10:34:13Z</time>
      </trkpt>
      <trkpt lat="47.78663" lon="-3.63576">
        <ele>37</ele>
        <time>2019-07-14T10:34:14Z</time>
      </trkpt>
      <trkpt lat="47.78667" lon="-3.63572">
        <ele>37</ele>
        <time>2019-07-14T10:34:15Z</time>
      </trkpt>
      <trkpt lat="47.7867" lon="-3.63568">
        <ele>37</ele>
        <time>2019-07-14T10:34:16Z</time>
      </trkpt>
      <trkpt lat="47.78674" lon="-3.63564">
        <ele>37</ele>
        <time>2019-07-14T10:34:17Z</time>
      </trkpt>
      <trkpt lat="47.78677" lon="-3.6356">
        <ele>37</ele>
        <time>2019-07-14T10:34:18Z</time>
      </trkpt>
      <trkpt lat="47.78681" lon="-3.63557">
        <ele>37</ele>
        <time>2019-07-14T10:34:19Z</time>
      </trkpt>
      <trkpt lat="47.78685" lon="-3.63554">
        <ele>37</ele>
        <time>2019-07-14T10:34:20Z</time>
      </trkpt>
      <trkpt lat="47.78689" lon="-3.63551">
        <ele>37</ele>
        <time>2019-07-14T10:34:21Z</time>
      </trkpt>
      <trkpt lat="47.78692" lon="-3.63548">
        <ele>37</ele>
        <time>2019-07-14T10:34:22Z</time>
      </trkpt>
      <trkpt lat="47.78696" lon="-3.63547">
        <ele>37</ele>
        <time>2019-07-14T10:34:23Z</time>
      </trkpt>
      <trkpt lat="47.787" lon="-3.63546">
        <ele>37</ele>
        <time>2019-07-14T10:34:24Z</time>
      </trkpt>
      <trkpt lat="47.78705" lon="-3.63546">
        <ele>37</ele>
        <time>2019-07-14T10:34:25Z</time>
      </trkpt>
      <trkpt lat="47.78709" lon="-3.63547">
        <ele>37</ele>
        <time>2019-07-14T10:34:26Z</time>
      </trkpt>
      <trkpt lat="47.78714" lon="-3.63547">
        <ele>37</ele>
        <time>2019-07-14T10:34:27Z</time>
      </trkpt>
      <trkpt lat="47.78718" lon="-3.63547">
        <ele>38</ele>
        <time>2019-07-14T10:34:28Z</time>
      </trkpt>
      <trkpt lat="47.78722" lon="-3.63548">
        <ele>38</ele>
        <time>2019-07-14T10:34:29Z</time>
      </trkpt>
      <trkpt lat="47.78727" lon="-3.63548">
        <ele>38</ele>
        <time>2019-07-14T10:34:30Z</time>
      </trkpt>
      <trkpt lat="47.78731" lon="-3.63549">
        <ele>38</ele>
        <time>2019-07-14T10:34:31Z</time>
      </trkpt>
      <trkpt lat="47.78736" lon="-3.63549">
        <ele>38</ele>
        <time>2019-07-14T10:34:32Z</time>
      </trkpt>
      <trkpt lat="47.78741" lon="-3.6355">
        <ele>38</ele>
        <time>2019-07-14T10:34:33Z</time>
      </trkpt>
      <trkpt lat="47.78745" lon="-3.6355">
        <ele>38</ele>
        <time>2019-07-14T10:34:34Z</time>
      </trkpt>
      <trkpt lat="47.7875" lon="-3.63551">
        <ele>38</ele>
        <time>2019-07-14T10:34:35Z</time>
      </trkpt>
      <trkpt lat="47.78754" lon="-3.63553">
        <ele>38</ele>
        <time>2019-07-14T10:34:36Z</time>
      </trkpt>
      <trkpt lat="47.78758" lon="-3.63554">
        <ele>38</ele>
        <time>2019-07-14T10:34:37Z</time>
      </trkpt>
      <trkpt lat="47.78763" lon="-3.63555">
        <ele>38</ele>
        <time>2019-07-14T10:34:38Z</time>
      </trkpt>
      <trkpt lat="47.78768" lon="-3.63556">
        <ele>38</ele>
        <time>2019-07-14T10:34:39Z</time>
      </trkpt>
      <trkpt lat="47.78773" lon="-3.63555">
        <ele>38</ele>
        <time>2019-07-14T10:34:40Z</time>
      </trkpt>
      <trkpt lat="47.78777" lon="-3.63554">
        <ele>38</ele>
        <time>2019-07-14T10:34:41Z</time>
      </trkpt>
      <trkpt lat="47.78783" lon="-3.63554">
        <ele>37</ele>
        <time>2019-07-14T10:34:42Z</time>
      </trkpt>
      <trkpt lat="47.78788" lon="-3.63553">
        <ele>37</ele>
        <time>2019-07-14T10:34:43Z</time>
      </trkpt>
      <trkpt lat="47.78793" lon="-3.63551">
        <ele>37</ele>
        <time>2019-07-14T10:34:44Z</time>
      </trkpt>
      <trkpt lat="47.78797" lon="-3.6355">
        <ele>37</ele>
        <time>2019-07-14T10:34:45Z</time>
      </trkpt>
      <trkpt lat="47.78801" lon="-3.63549">
        <ele>37</ele>
        <time>2019-07-14T10:34:46Z</time>
      </trkpt>
      <trkpt lat="47.78804" lon="-3.63548">
        <ele>37</ele>
        <time>2019-07-14T10:34:47Z</time>
      </trkpt>
      <trkpt lat="47.78807" lon="-3.63548">
        <ele>37</ele>
        <time>2019-07-14T10:34:48Z</time>
      </trkpt>
      <trkpt lat="47.78809" lon="-3.63548">
        <ele>37</ele>
        <time>2019-07-14T10:34:49Z</time>
      </trkpt>
      <trkpt lat="47.78812" lon="-3.63548">
        <ele>37</ele>
        <time>2019-07-14T10:34:50Z</time>
      </trkpt>
      <trkpt lat="47.78815" lon="-3.63548">
        <ele>37</ele>
        <time>2019-07-14T10:34:51Z</time>
      </trkpt>
      <trkpt lat="47.78816" lon="-3.63547">
        <ele>37</ele>
        <time>2019-07-14T10:34:52Z</time>
      </trkpt>
      <trkpt lat="47.78817" lon="-3.63547">
        <ele>37</ele>
        <time>2019-07-14T10:34:53Z</time>
      </trkpt>
      <trkpt lat="47.78817" lon="-3.63546">
        <ele>37</ele>
        <time>2019-07-14T10:34:54Z</time>
      </trkpt>
      <trkpt lat="47.78823" lon="-3.63543">
        <ele>36</ele>
        <time>2019-07-14T10:34:55Z</time>
      </trkpt>
      <trkpt lat="47.78825" lon="-3.63543">
        <ele>36</ele>
        <time>2019-07-14T10:34:56Z</time>
      </trkpt>
      <trkpt lat="47.78827" lon="-3.63542">
        <ele>35</ele>
        <time>2019-07-14T10:34:57Z</time>
      </trkpt>
      <trkpt lat="47.7883" lon="-3.63541">
        <ele>35</ele>
        <time>2019-07-14T10:34:58Z</time>
      </trkpt>
      <trkpt lat="47.78832" lon="-3.6354">
        <ele>35</ele>
        <time>2019-07-14T10:34:59Z</time>
      </trkpt>
      <trkpt lat="47.78833" lon="-3.63539">
        <ele>35</ele>
        <time>2019-07-14T10:35:00Z</time>
      </trkpt>
      <trkpt lat="47.78835" lon="-3.63537">
        <ele>35</ele>
        <time>2019-07-14T10:35:01Z</time>
      </trkpt>
      <trkpt lat="47.78837" lon="-3.63535">
        <ele>35</ele>
        <time>2019-07-14T10:35:02Z</time>
      </trkpt>
      <trkpt lat="47.78839" lon="-3.63533">
        <ele>35</ele>
        <time>2019-07-14T10:35:03Z</time>
      </trkpt>
      <trkpt lat="47.7884" lon="-3.63532">
        <ele>35</ele>
        <time>2019-07-14T10:35:04Z</time>
      </trkpt>
      <trkpt lat="47.78842" lon="-3.63531">
        <ele>35</ele>
        <time>2019-07-14T10:35:05Z</time>
      </trkpt>
      <trkpt lat="47.78845" lon="-3.6353">
        <ele>35</ele>
        <time>2019-07-14T10:35:06Z</time>
      </trkpt>
      <trkpt lat="47.78848" lon="-3.63529">
        <ele>35</ele>
        <time>2019-07-14T10:35:07Z</time>
      </trkpt>
      <trkpt lat="47.78851" lon="-3.63528">
        <ele>35</ele>
        <time>2019-07-14T10:35:08Z</time>
      </trkpt>
      <trkpt lat="47.78854" lon="-3.63528">
        <ele>34</ele>
        <time>2019-07-14T10:35:09Z</time>
      </trkpt>
      <trkpt lat="47.78856" lon="-3.63528">
        <ele>34</ele>
        <time>2019-07-14T10:35:10Z</time>
      </trkpt>
      <trkpt lat="47.78859" lon="-3.6353">
        <ele>34</ele>
        <time>2019-07-14T10:35:11Z</time>
      </trkpt>
      <trkpt lat="47.7886" lon="-3.6353">
        <ele>34</ele>
        <time>2019-07-14T10:35:12Z</time>
      </trkpt>
      <trkpt lat="47.78861" lon="-3.63532">
        <ele>34</ele>
        <time>2019-07-14T10:35:13Z</time>
      </trkpt>
      <trkpt lat="47.78863" lon="-3.63533">
        <ele>34</ele>
        <time>2019-07-14T10:35:14Z</time>
      </trkpt>
      <trkpt lat="47.78865" lon="-3.63533">
        <ele>34</ele>
        <time>2019-07-14T10:35:15Z</time>
      </trkpt>
      <trkpt lat="47.78867" lon="-3.63533">
        <ele>34</ele>
        <time>2019-07-14T10:35:16Z</time>
      </trkpt>
      <trkpt lat="47.78871" lon="-3.63534">
        <ele>34</ele>
        <time>2019-07-14T10:35:17Z</time>
      </trkpt>
      <trkpt lat="47.78874" lon="-3.63537">
        <ele>34</ele>
        <time>2019-07-14T10:35:18Z</time>
      </trkpt>
      <trkpt lat="47.78878" lon="-3.63538">
        <ele>33</ele>
        <time>2019-07-14T10:35:19Z</time>
      </trkpt>
      <trkpt lat="47.78882" lon="-3.63538">
        <ele>33</ele>
        <time>2019-07-14T10:35:20Z</time>
      </trkpt>
      <trkpt lat="47.78885" lon="-3.63537">
        <ele>33</ele>
        <time>2019-07-14T10:35:21Z</time>
      </trkpt>
      <trkpt lat="47.78887" lon="-3.63538">
        <ele>33</ele>
        <time>2019-07-14T10:35:22Z</time>
      </trkpt>
      <trkpt lat="47.78889" lon="-3.6354">
        <ele>33</ele>
        <time>2019-07-14T10:35:23Z</time>
      </trkpt>
      <trkpt lat="47.7889" lon="-3.63544">
        <ele>33</ele>
        <time>2019-07-14T10:35:24Z</time>
      </trkpt>
      <trkpt lat="47.7889" lon="-3.63547">
        <ele>33</ele>
        <time>2019-07-14T10:35:25Z</time>
      </trkpt>
      <trkpt lat="47.7889" lon="-3.63551">
        <ele>33</ele>
        <time>2019-07-14T10:35:26Z</time>
      </trkpt>
      <trkpt lat="47.7889" lon="-3.63556">
        <ele>32</ele>
        <time>2019-07-14T10:35:27Z</time>
      </trkpt>
      <trkpt lat="47.78889" lon="-3.6356">
        <ele>32</ele>
        <time>2019-07-14T10:35:28Z</time>
      </trkpt>
      <trkpt lat="47.78889" lon="-3.63564">
        <ele>31</ele>
        <time>2019-07-14T10:35:29Z</time>
      </trkpt>
      <trkpt lat="47.78888" lon="-3.63568">
        <ele>31</ele>
        <time>2019-07-14T10:35:30Z</time>
      </trkpt>
      <trkpt lat="47.78888" lon="-3.63572">
        <ele>31</ele>
        <time>2019-07-14T10:35:31Z</time>
      </trkpt>
      <trkpt lat="47.78887" lon="-3.63575">
        <ele>31</ele>
        <time>2019-07-14T10:35:32Z</time>
      </trkpt>
      <trkpt lat="47.78886" lon="-3.63579">
        <ele>30</ele>
        <time>2019-07-14T10:35:33Z</time>
      </trkpt>
      <trkpt lat="47.78886" lon="-3.63583">
        <ele>30</ele>
        <time>2019-07-14T10:35:34Z</time>
      </trkpt>
      <trkpt lat="47.78886" lon="-3.63587">
        <ele>30</ele>
        <time>2019-07-14T10:35:35Z</time>
      </trkpt>
      <trkpt lat="47.78885" lon="-3.63592">
        <ele>29</ele>
        <time>2019-07-14T10:35:36Z</time>
      </trkpt>
      <trkpt lat="47.78885" lon="-3.63596">
        <ele>29</ele>
        <time>2019-07-14T10:35:37Z</time>
      </trkpt>
      <trkpt lat="47.78884" lon="-3.636">
        <ele>29</ele>
        <time>2019-07-14T10:35:38Z</time>
      </trkpt>
      <trkpt lat="47.78882" lon="-3.63605">
        <ele>28</ele>
        <time>2019-07-14T10:35:39Z</time>
      </trkpt>
      <trkpt lat="47.78882" lon="-3.6361">
        <ele>28</ele>
        <time>2019-07-14T10:35:40Z</time>
      </trkpt>
      <trkpt lat="47.78881" lon="-3.63616">
        <ele>28</ele>
        <time>2019-07-14T10:35:41Z</time>
      </trkpt>
      <trkpt lat="47.7888" lon="-3.63621">
        <ele>28</ele>
        <time>2019-07-14T10:35:42Z</time>
      </trkpt>
      <trkpt lat="47.78878" lon="-3.63627">
        <ele>27</ele>
        <time>2019-07-14T10:35:43Z</time>
      </trkpt>
      <trkpt lat="47.78876" lon="-3.63634">
        <ele>27</ele>
        <time>2019-07-14T10:35:44Z</time>
      </trkpt>
      <trkpt lat="47.78875" lon="-3.6364">
        <ele>27</ele>
        <time>2019-07-14T10:35:45Z</time>
      </trkpt>
      <trkpt lat="47.78873" lon="-3.63647">
        <ele>26</ele>
        <time>2019-07-14T10:35:46Z</time>
      </trkpt>
      <trkpt lat="47.78871" lon="-3.63654">
        <ele>26</ele>
        <time>2019-07-14T10:35:47Z</time>
      </trkpt>
      <trkpt lat="47.78869" lon="-3.6366">
        <ele>26</ele>
        <time>2019-07-14T10:35:48Z</time>
      </trkpt>
      <trkpt lat="47.78867" lon="-3.63666">
        <ele>26</ele>
        <time>2019-07-14T10:35:49Z</time>
      </trkpt>
      <trkpt lat="47.78865" lon="-3.63672">
        <ele>25</ele>
        <time>2019-07-14T10:35:50Z</time>
      </trkpt>
      <trkpt lat="47.78863" lon="-3.63676">
        <ele>25</ele>
        <time>2019-07-14T10:35:51Z</time>
      </trkpt>
      <trkpt lat="47.78861" lon="-3.6368">
        <ele>25</ele>
        <time>2019-07-14T10:35:52Z</time>
      </trkpt>
      <trkpt lat="47.7886" lon="-3.63683">
        <ele>25</ele>
        <time>2019-07-14T10:35:53Z</time>
      </trkpt>
      <trkpt lat="47.78858" lon="-3.63685">
        <ele>24</ele>
        <time>2019-07-14T10:35:54Z</time>
      </trkpt>
      <trkpt lat="47.78857" lon="-3.63685">
        <ele>24</ele>
        <time>2019-07-14T10:35:55Z</time>
      </trkpt>
      <trkpt lat="47.78856" lon="-3.63684">
        <ele>24</ele>
        <time>2019-07-14T10:35:56Z</time>
      </trkpt>
      <trkpt lat="47.78857" lon="-3.63681">
        <ele>24</ele>
        <time>2019-07-14T10:35:57Z</time>
      </trkpt>
      <trkpt lat="47.78859" lon="-3.63678">
        <ele>24</ele>
        <time>2019-07-14T10:35:58Z</time>
      </trkpt>
      <trkpt lat="47.78861" lon="-3.63675">
        <ele>24</ele>
        <time>2019-07-14T10:35:59Z</time>
      </trkpt>
      <trkpt lat="47.78864" lon="-3.63672">
        <ele>24</ele>
        <time>2019-07-14T10:36:00Z</time>
      </trkpt>
      <trkpt lat="47.78868" lon="-3.63669">
        <ele>24</ele>
        <time>2019-07-14T10:36:01Z</time>
      </trkpt>
      <trkpt lat="47.78871" lon="-3.63667">
        <ele>24</ele>
        <time>2019-07-14T10:36:02Z</time>
      </trkpt>
      <trkpt lat="47.78874" lon="-3.63666">
        <ele>23</ele>
        <time>2019-07-14T10:36:03Z</time>
      </trkpt>
      <trkpt lat="47.78877" lon="-3.63665">
        <ele>23</ele>
        <time>2019-07-14T10:36:04Z</time>
      </trkpt>
      <trkpt lat="47.78879" lon="-3.63666">
        <ele>23</ele>
        <time>2019-07-14T10:36:05Z</time>
      </trkpt>
      <trkpt lat="47.78881" lon="-3.63671">
        <ele>23</ele>
        <time>2019-07-14T10:36:06Z</time>
      </trkpt>
      <trkpt lat="47.78882" lon="-3.63675">
        <ele>23</ele>
        <time>2019-07-14T10:36:07Z</time>
      </trkpt>
      <trkpt lat="47.78885" lon="-3.63679">
        <ele>23</ele>
        <time>2019-07-14T10:36:08Z</time>
      </trkpt>
      <trkpt lat="47.78887" lon="-3.63683">
        <ele>23</ele>
        <time>2019-07-14T10:36:09Z</time>
      </trkpt>
      <trkpt lat="47.7889" lon="-3.63687">
        <ele>23</ele>
        <time>2019-07-14T10:36:10Z</time>
      </trkpt>
      <trkpt lat="47.78894" lon="-3.63688">
        <ele>24</ele>
        <time>2019-07-14T10:36:11Z</time>
      </trkpt>
      <trkpt lat="47.78897" lon="-3.63689">
        <ele>24</ele>
        <time>2019-07-14T10:36:12Z</time>
      </trkpt>
      <trkpt lat="47.78899" lon="-3.63691">
        <ele>24</ele>
        <time>2019-07-14T10:36:13Z</time>
      </trkpt>
      <trkpt lat="47.789" lon="-3.63691">
        <ele>24</ele>
        <time>2019-07-14T10:36:14Z</time>
      </trkpt>
      <trkpt lat="47.789" lon="-3.63691">
        <ele>24</ele>
        <time>2019-07-14T10:36:15Z</time>
      </trkpt>
      <trkpt lat="47.789" lon="-3.63692">
        <ele>24</ele>
        <time>2019-07-14T10:36:16Z</time>
      </trkpt>
      <trkpt lat="47.789" lon="-3.63692">
        <ele>24</ele>
        <time>2019-07-14T10:36:17Z</time>
      </trkpt>
      <trkpt lat="47.78904" lon="-3.63693">
        <ele>24</ele>
        <time>2019-07-14T10:36:18Z</time>
      </trkpt>
      <trkpt lat="47.78906" lon="-3.63694">
        <ele>24</ele>
        <time>2019-07-14T10:36:19Z</time>
      </trkpt>
      <trkpt lat="47.78909" lon="-3.63695">
        <ele>24</ele>
        <time>2019-07-14T10:36:20Z</time>
      </trkpt>
      <trkpt lat="47.78912" lon="-3.63696">
        <ele>24</ele>
        <time>2019-07-14T10:36:21Z</time>
      </trkpt>
      <trkpt lat="47.78915" lon="-3.63697">
        <ele>24</ele>
        <time>2019-07-14T10:36:22Z</time>
      </trkpt>
      <trkpt lat="47.78917" lon="-3.63698">
        <ele>24</ele>
        <time>2019-07-14T10:36:23Z</time>
      </trkpt>
      <trkpt lat="47.78919" lon="-3.63699">
        <ele>24</ele>
        <time>2019-07-14T10:36:24Z</time>
      </trkpt>
      <trkpt lat="47.78922" lon="-3.637">
        <ele>24</ele>
        <time>2019-07-14T10:36:25Z</time>
      </trkpt>
      <trkpt lat="47.78925" lon="-3.637">
        <ele>24</ele>
        <time>2019-07-14T10:36:26Z</time>
      </trkpt>
      <trkpt lat="47.78928" lon="-3.63699">
        <ele>24</ele>
        <time>2019-07-14T10:36:27Z</time>
      </trkpt>
      <trkpt lat="47.78933" lon="-3.63699">
        <ele>24</ele>
        <time>2019-07-14T10:36:28Z</time>
      </trkpt>
      <trkpt lat="47.78938" lon="-3.63698">
        <ele>24</ele>
        <time>2019-07-14T10:36:29Z</time>
      </trkpt>
      <trkpt lat="47.78943" lon="-3.63698">
        <ele>24</ele>
        <time>2019-07-14T10:36:30Z</time>
      </trkpt>
      <trkpt lat="47.78949" lon="-3.63697">
        <ele>24</ele>
        <time>2019-07-14T10:36:31Z</time>
      </trkpt>
      <trkpt lat="47.78955" lon="-3.63698">
        <ele>24</ele>
        <time>2019-07-14T10:36:32Z</time>
      </trkpt>
      <trkpt lat="47.7896" lon="-3.637">
        <ele>24</ele>
        <time>2019-07-14T10:36:33Z</time>
      </trkpt>
      <trkpt lat="47.78965" lon="-3.63702">
        <ele>25</ele>
        <time>2019-07-14T10:36:34Z</time>
      </trkpt>
      <trkpt lat="47.78969" lon="-3.63705">
        <ele>25</ele>
        <time>2019-07-14T10:36:35Z</time>
      </trkpt>
      <trkpt lat="47.78973" lon="-3.63708">
        <ele>25</ele>
        <time>2019-07-14T10:36:36Z</time>
      </trkpt>
      <trkpt lat="47.78976" lon="-3.63711">
        <ele>25</ele>
        <time>2019-07-14T10:36:37Z</time>
      </trkpt>
      <trkpt lat="47.78979" lon="-3.63714">
        <ele>25</ele>
        <time>2019-07-14T10:36:38Z</time>
      </trkpt>
      <trkpt lat="47.78982" lon="-3.63718">
        <ele>25</ele>
        <time>2019-07-14T10:36:39Z</time>
      </trkpt>
      <trkpt lat="47.78983" lon="-3.63721">
        <ele>24</ele>
        <time>2019-07-14T10:36:40Z</time>
      </trkpt>
      <trkpt lat="47.78984" lon="-3.63725">
        <ele>24</ele>
        <time>2019-07-14T10:36:41Z</time>
      </trkpt>
      <trkpt lat="47.78986" lon="-3.6373">
        <ele>24</ele>
        <time>2019-07-14T10:36:42Z</time>
      </trkpt>
      <trkpt lat="47.78989" lon="-3.63734">
        <ele>24</ele>
        <time>2019-07-14T10:36:43Z</time>
      </trkpt>
      <trkpt lat="47.78991" lon="-3.6374">
        <ele>24</ele>
        <time>2019-07-14T10:36:44Z</time>
      </trkpt>
      <trkpt lat="47.78994" lon="-3.63746">
        <ele>24</ele>
        <time>2019-07-14T10:36:45Z</time>
      </trkpt>
      <trkpt lat="47.78996" lon="-3.63752">
        <ele>24</ele>
        <time>2019-07-14T10:36:46Z</time>
      </trkpt>
      <trkpt lat="47.78999" lon="-3.63757">
        <ele>24</ele>
        <time>2019-07-14T10:36:47Z</time>
      </trkpt>
      <trkpt lat="47.79001" lon="-3.63762">
        <ele>24</ele>
        <time>2019-07-14T10:36:48Z</time>
      </trkpt>
      <trkpt lat="47.79004" lon="-3.63767">
        <ele>23</ele>
        <time>2019-07-14T10:36:49Z</time>
      </trkpt>
      <trkpt lat="47.79008" lon="-3.63773">
        <ele>23</ele>
        <time>2019-07-14T10:36:50Z</time>
      </trkpt>
      <trkpt lat="47.79013" lon="-3.63779">
        <ele>23</ele>
        <time>2019-07-14T10:36:51Z</time>
      </trkpt>
      <trkpt lat="47.79017" lon="-3.63784">
        <ele>23</ele>
        <time>2019-07-14T10:36:52Z</time>
      </trkpt>
      <trkpt lat="47.79021" lon="-3.63789">
        <ele>23</ele>
        <time>2019-07-14T10:36:53Z</time>
      </trkpt>
      <trkpt lat="47.79026" lon="-3.63794">
        <ele>23</ele>
        <time>2019-07-14T10:36:54Z</time>
      </trkpt>
      <trkpt lat="47.79031" lon="-3.63797">
        <ele>23</ele>
        <time>2019-07-14T10:36:55Z</time>
      </trkpt>
      <trkpt lat="47.79036" lon="-3.638">
        <ele>23</ele>
        <time>2019-07-14T10:36:56Z</time>
      </trkpt>
      <trkpt lat="47.79041" lon="-3.63802">
        <ele>23</ele>
        <time>2019-07-14T10:36:57Z</time>
      </trkpt>
      <trkpt lat="47.79045" lon="-3.63804">
        <ele>23</ele>
        <time>2019-07-14T10:36:58Z</time>
      </trkpt>
      <trkpt lat="47.79049" lon="-3.63805">
        <ele>22</ele>
        <time>2019-07-14T10:36:59Z</time>
      </trkpt>
      <trkpt lat="47.79054" lon="-3.63806">
        <ele>22</ele>
        <time>2019-07-14T10:37:00Z</time>
      </trkpt>
      <trkpt lat="47.79058" lon="-3.63808">
        <ele>22</ele>
        <time>2019-07-14T10:37:01Z</time>
      </trkpt>
      <trkpt lat="47.79062" lon="-3.63809">
        <ele>22</ele>
        <time>2019-07-14T10:37:02Z</time>
      </trkpt>
      <trkpt lat="47.79065" lon="-3.6381">
        <ele>22</ele>
        <time>2019-07-14T10:37:03Z</time>
      </trkpt>
      <trkpt lat="47.79069" lon="-3.6381">
        <ele>22</ele>
        <time>2019-07-14T10:37:04Z</time>
      </trkpt>
      <trkpt lat="47.79073" lon="-3.63811">
        <ele>22</ele>
        <time>2019-07-14T10:37:05Z</time>
      </trkpt>
      <trkpt lat="47.79077" lon="-3.63812">
        <ele>22</ele>
        <time>2019-07-14T10:37:06Z</time>
      </trkpt>
      <trkpt lat="47.79081" lon="-3.63813">
        <ele>22</ele>
        <time>2019-07-14T10:37:07Z</time>
      </trkpt>
      <trkpt lat="47.79085" lon="-3.63814">
        <ele>22</ele>
        <time>2019-07-14T10:37:08Z</time>
      </trkpt>
      <trkpt lat="47.79089" lon="-3.63815">
        <ele>22</ele>
        <time>2019-07-14T10:37:09Z</time>
      </trkpt>
      <trkpt lat="47.79093" lon="-3.63816">
        <ele>21</ele>
        <time>2019-07-14T10:37:10Z</time>
      </trkpt>
      <trkpt lat="47.79097" lon="-3.63816">
        <ele>21</ele>
        <time>2019-07-14T10:37:11Z</time>
      </trkpt>
      <trkpt lat="47.79101" lon="-3.63816">
        <ele>21</ele>
        <time>2019-07-14T10:37:12Z</time>
      </trkpt>
      <trkpt lat="47.79105" lon="-3.63816">
        <ele>21</ele>
        <time>2019-07-14T10:37:13Z</time>
      </trkpt>
      <trkpt lat="47.7911" lon="-3.63817">
        <ele>21</ele>
        <time>2019-07-14T10:37:14Z</time>
      </trkpt>
      <trkpt lat="47.79114" lon="-3.63817">
        <ele>21</ele>
        <time>2019-07-14T10:37:15Z</time>
      </trkpt>
      <trkpt lat="47.79117" lon="-3.63816">
        <ele>21</ele>
        <time>2019-07-14T10:37:16Z</time>
      </trkpt>
      <trkpt lat="47.79121" lon="-3.63816">
        <ele>21</ele>
        <time>2019-07-14T10:37:17Z</time>
      </trkpt>
      <trkpt lat="47.79125" lon="-3.63815">
        <ele>22</ele>
        <time>2019-07-14T10:37:18Z</time>
      </trkpt>
      <trkpt lat="47.79128" lon="-3.63813">
        <ele>22</ele>
        <time>2019-07-14T10:37:19Z</time>
      </trkpt>
      <trkpt lat="47.79132" lon="-3.63812">
        <ele>22</ele>
        <time>2019-07-14T10:37:20Z</time>
      </trkpt>
      <trkpt lat="47.79135" lon="-3.6381">
        <ele>22</ele>
        <time>2019-07-14T10:37:21Z</time>
      </trkpt>
      <trkpt lat="47.79138" lon="-3.63808">
        <ele>22</ele>
        <time>2019-07-14T10:37:22Z</time>
      </trkpt>
      <trkpt lat="47.79142" lon="-3.63806">
        <ele>22</ele>
        <time>2019-07-14T10:37:23Z</time>
      </trkpt>
      <trkpt lat="47.79146" lon="-3.63804">
        <ele>22</ele>
        <time>2019-07-14T10:37:24Z</time>
      </trkpt>
      <trkpt lat="47.7915" lon="-3.63802">
        <ele>22</ele>
        <time>2019-07-14T10:37:25Z</time>
      </trkpt>
      <trkpt lat="47.79154" lon="-3.63799">
        <ele>22</ele>
        <time>2019-07-14T10:37:26Z</time>
      </trkpt>
      <trkpt lat="47.79159" lon="-3.63797">
        <ele>22</ele>
        <time>2019-07-14T10:37:27Z</time>
      </trkpt>
      <trkpt lat="47.79163" lon="-3.63794">
        <ele>22</ele>
        <time>2019-07-14T10:37:28Z</time>
      </trkpt>
      <trkpt lat="47.79168" lon="-3.63791">
        <ele>22</ele>
        <time>2019-07-14T10:37:29Z</time>
      </trkpt>
      <trkpt lat="47.79173" lon="-3.63787">
        <ele>22</ele>
        <time>2019-07-14T10:37:30Z</time>
      </trkpt>
      <trkpt lat="47.79177" lon="-3.63784">
        <ele>22</ele>
        <time>2019-07-14T10:37:31Z</time>
      </trkpt>
      <trkpt lat="47.79182" lon="-3.6378">
        <ele>22</ele>
        <time>2019-07-14T10:37:32Z</time>
      </trkpt>
      <trkpt lat="47.79187" lon="-3.63777">
        <ele>22</ele>
        <time>2019-07-14T10:37:33Z</time>
      </trkpt>
      <trkpt lat="47.79192" lon="-3.63773">
        <ele>22</ele>
        <time>2019-07-14T10:37:34Z</time>
      </trkpt>
      <trkpt lat="47.79197" lon="-3.63769">
        <ele>22</ele>
        <time>2019-07-14T10:37:35Z</time>
      </trkpt>
      <trkpt lat="47.792" lon="-3.63766">
        <ele>22</ele>
        <time>2019-07-14T10:37:36Z</time>
      </trkpt>
      <trkpt lat="47.79205" lon="-3.63762">
        <ele>22</ele>
        <time>2019-07-14T10:37:37Z</time>
      </trkpt>
      <trkpt lat="47.7921" lon="-3.63758">
        <ele>22</ele>
        <time>2019-07-14T10:37:38Z</time>
      </trkpt>
      <trkpt lat="47.79214" lon="-3.63754">
        <ele>22</ele>
        <time>2019-07-14T10:37:39Z</time>
      </trkpt>
      <trkpt lat="47.7922" lon="-3.63751">
        <ele>22</ele>
        <time>2019-07-14T10:37:40Z</time>
      </trkpt>
      <trkpt lat="47.79225" lon="-3.63748">
        <ele>21</ele>
        <time>2019-07-14T10:37:41Z</time>
      </trkpt>
      <trkpt lat="47.7923" lon="-3.63744">
        <ele>21</ele>
        <time>2019-07-14T10:37:42Z</time>
      </trkpt>
      <trkpt lat="47.79236" lon="-3.6374">
        <ele>21</ele>
        <time>2019-07-14T10:37:43Z</time>
      </trkpt>
      <trkpt lat="47.79242" lon="-3.63735">
        <ele>21</ele>
        <time>2019-07-14T10:37:44Z</time>
      </trkpt>
      <trkpt lat="47.79246" lon="-3.63731">
        <ele>21</ele>
        <time>2019-07-14T10:37:45Z</time>
      </trkpt>
      <trkpt lat="47.7925" lon="-3.63727">
        <ele>21</ele>
        <time>2019-07-14T10:37:46Z</time>
      </trkpt>
      <trkpt lat="47.79255" lon="-3.63723">
        <ele>21</ele>
        <time>2019-07-14T10:37:47Z</time>
      </trkpt>
      <trkpt lat="47.79259" lon="-3.63717">
        <ele>21</ele>
        <time>2019-07-14T10:37:48Z</time>
      </trkpt>
      <trkpt lat="47.79264" lon="-3.63711">
        <ele>21</ele>
        <time>2019-07-14T10:37:49Z</time>
      </trkpt>
      <trkpt lat="47.79269" lon="-3.63704">
        <ele>21</ele>
        <time>2019-07-14T10:37:50Z</time>
      </trkpt>
      <trkpt lat="47.79273" lon="-3.63697">
        <ele>21</ele>
        <time>2019-07-14T10:37:51Z</time>
      </trkpt>
      <trkpt lat="47.79279" lon="-3.63689">
        <ele>21</ele>
        <time>2019-07-14T10:37:52Z</time>
      </trkpt>
      <trkpt lat="47.79285" lon="-3.63683">
        <ele>21</ele>
        <time>2019-07-14T10:37:53Z</time>
      </trkpt>
      <trkpt lat="47.79289" lon="-3.63678">
        <ele>21</ele>
        <time>2019-07-14T10:37:54Z</time>
      </trkpt>
      <trkpt lat="47.79293" lon="-3.63675">
        <ele>22</ele>
        <time>2019-07-14T10:37:55Z</time>
      </trkpt>
      <trkpt lat="47.79297" lon="-3.63674">
        <ele>22</ele>
        <time>2019-07-14T10:37:56Z</time>
      </trkpt>
      <trkpt lat="47.793" lon="-3.63674">
        <ele>22</ele>
        <time>2019-07-14T10:37:57Z</time>
      </trkpt>
      <trkpt lat="47.79303" lon="-3.63675">
        <ele>22</ele>
        <time>2019-07-14T10:37:58Z</time>
      </trkpt>
      <trkpt lat="47.79305" lon="-3.63678">
        <ele>22</ele>
        <time>2019-07-14T10:37:59Z</time>
      </trkpt>
      <trkpt lat="47.79306" lon="-3.63682">
        <ele>22</ele>
        <time>2019-07-14T10:38:00Z</time>
      </trkpt>
      <trkpt lat="47.79305" lon="-3.63686">
        <ele>22</ele>
        <time>2019-07-14T10:38:01Z</time>
      </trkpt>
      <trkpt lat="47.79306" lon="-3.63692">
        <ele>22</ele>
        <time>2019-07-14T10:38:02Z</time>
      </trkpt>
      <trkpt lat="47.79306" lon="-3.63697">
        <ele>22</ele>
        <time>2019-07-14T10:38:03Z</time>
      </trkpt>
      <trkpt lat="47.79306" lon="-3.63704">
        <ele>22</ele>
        <time>2019-07-14T10:38:04Z</time>
      </trkpt>
      <trkpt lat="47.79306" lon="-3.63711">
        <ele>22</ele>
        <time>2019-07-14T10:38:05Z</time>
      </trkpt>
      <trkpt lat="47.79306" lon="-3.63717">
        <ele>22</ele>
        <time>2019-07-14T10:38:06Z</time>
      </trkpt>
      <trkpt lat="47.79306" lon="-3.63724">
        <ele>22</ele>
        <time>2019-07-14T10:38:07Z</time>
      </trkpt>
      <trkpt lat="47.79306" lon="-3.6373">
        <ele>21</ele>
        <time>2019-07-14T10:38:08Z</time>
      </trkpt>
      <trkpt lat="47.79306" lon="-3.63735">
        <ele>21</ele>
        <time>2019-07-14T10:38:09Z</time>
      </trkpt>
      <trkpt lat="47.79305" lon="-3.6374">
        <ele>21</ele>
        <time>2019-07-14T10:38:10Z</time>
      </trkpt>
      <trkpt lat="47.79303" lon="-3.63744">
        <ele>21</ele>
        <time>2019-07-14T10:38:11Z</time>
      </trkpt>
      <trkpt lat="47.79301" lon="-3.63749">
        <ele>21</ele>
        <time>2019-07-14T10:38:12Z</time>
      </trkpt>
      <trkpt lat="47.79299" lon="-3.63753">
        <ele>21</ele>
        <time>2019-07-14T10:38:13Z</time>
      </trkpt>
      <trkpt lat="47.79298" lon="-3.63758">
        <ele>21</ele>
        <time>2019-07-14T10:38:14Z</time>
      </trkpt>
      <trkpt lat="47.79296" lon="-3.63764">
        <ele>21</ele>
        <time>2019-07-14T10:38:15Z</time>
      </trkpt>
      <trkpt lat="47.79294" lon="-3.63769">
        <ele>21</ele>
        <time>2019-07-14T10:38:16Z</time>
      </trkpt>
      <trkpt lat="47.79292" lon="-3.63774">
        <ele>21</ele>
        <time>2019-07-14T10:38:17Z</time>
      </trkpt>
      <trkpt lat="47.79289" lon="-3.63778">
        <ele>21</ele>
        <time>2019-07-14T10:38:18Z</time>
      </trkpt>
      <trkpt lat="47.79288" lon="-3.63782">
        <ele>21</ele>
        <time>2019-07-14T10:38:19Z</time>
      </trkpt>
      <trkpt lat="47.79286" lon="-3.63786">
        <ele>21</ele>
        <time>2019-07-14T10:38:20Z</time>
      </trkpt>
      <trkpt lat="47.79286" lon="-3.6379">
        <ele>21</ele>
        <time>2019-07-14T10:38:21Z</time>
      </trkpt>
      <trkpt lat="47.79286" lon="-3.63794">
        <ele>21</ele>
        <time>2019-07-14T10:38:22Z</time>
      </trkpt>
      <trkpt lat="47.79286" lon="-3.63799">
        <ele>21</ele>
        <time>2019-07-14T10:38:23Z</time>
      </trkpt>
      <trkpt lat="47.79286" lon="-3.63803">
        <ele>21</ele>
        <time>2019-07-14T10:38:24Z</time>
      </trkpt>
      <trkpt lat="47.79286" lon="-3.63807">
        <ele>20</ele>
        <time>2019-07-14T10:38:25Z</time>
      </trkpt>
      <trkpt lat="47.79285" lon="-3.6381">
        <ele>20</ele>
        <time>2019-07-14T10:38:26Z</time>
      </trkpt>
      <trkpt lat="47.79285" lon="-3.63813">
        <ele>20</ele>
        <time>2019-07-14T10:38:27Z</time>
      </trkpt>
      <trkpt lat="47.79285" lon="-3.63817">
        <ele>19</ele>
        <time>2019-07-14T10:38:28Z</time>
      </trkpt>
      <trkpt lat="47.79284" lon="-3.6382">
        <ele>19</ele>
        <time>2019-07-14T10:38:29Z</time>
      </trkpt>
      <trkpt lat="47.79284" lon="-3.63822">
        <ele>19</ele>
        <time>2019-07-14T10:38:30Z</time>
      </trkpt>
      <trkpt lat="47.79283" lon="-3.63825">
        <ele>18</ele>
        <time>2019-07-14T10:38:31Z</time>
      </trkpt>
      <trkpt lat="47.79283" lon="-3.63826">
        <ele>18</ele>
        <time>2019-07-14T10:38:32Z</time>
      </trkpt>
      <trkpt lat="47.79283" lon="-3.63827">
        <ele>17</ele>
        <time>2019-07-14T10:38:33Z</time>
      </trkpt>
      <trkpt lat="47.79282" lon="-3.63828">
        <ele>17</ele>
        <time>2019-07-14T10:38:34Z</time>
      </trkpt>
      <trkpt lat="47.79282" lon="-3.63829">
        <ele>16</ele>
        <time>2019-07-14T10:38:35Z</time>
      </trkpt>
      <trkpt lat="47.79283" lon="-3.6383">
        <ele>14</ele>
        <time>2019-07-14T10:38:36Z</time>
      </trkpt>
      <trkpt lat="47.79284" lon="-3.63829">
        <ele>13</ele>
        <time>2019-07-14T10:38:37Z</time>
      </trkpt>
      <trkpt lat="47.79285" lon="-3.63828">
        <ele>13</ele>
        <time>2019-07-14T10:38:38Z</time>
      </trkpt>
      <trkpt lat="47.79286" lon="-3.63827">
        <ele>13</ele>
        <time>2019-07-14T10:38:39Z</time>
      </trkpt>
      <trkpt lat="47.79288" lon="-3.63826">
        <ele>12</ele>
        <time>2019-07-14T10:38:40Z</time>
      </trkpt>
      <trkpt lat="47.7929" lon="-3.63826">
        <ele>12</ele>
        <time>2019-07-14T10:38:41Z</time>
      </trkpt>
      <trkpt lat="47.79291" lon="-3.63825">
        <ele>12</ele>
        <time>2019-07-14T10:38:42Z</time>
      </trkpt>
      <trkpt lat="47.79292" lon="-3.63824">
        <ele>11</ele>
        <time>2019-07-14T10:38:43Z</time>
      </trkpt>
      <trkpt lat="47.79294" lon="-3.63823">
        <ele>11</ele>
        <time>2019-07-14T10:38:44Z</time>
      </trkpt>
      <trkpt lat="47.79296" lon="-3.63823">
        <ele>11</ele>
        <time>2019-07-14T10:38:45Z</time>
      </trkpt>
      <trkpt lat="47.79298" lon="-3.63823">
        <ele>11</ele>
        <time>2019-07-14T10:38:46Z</time>
      </trkpt>
      <trkpt lat="47.793" lon="-3.63823">
        <ele>10</ele>
        <time>2019-07-14T10:38:47Z</time>
      </trkpt>
      <trkpt lat="47.79302" lon="-3.63823">
        <ele>10</ele>
        <time>2019-07-14T10:38:48Z</time>
      </trkpt>
      <trkpt lat="47.79304" lon="-3.63824">
        <ele>10</ele>
        <time>2019-07-14T10:38:49Z</time>
      </trkpt>
      <trkpt lat="47.79305" lon="-3.63824">
        <ele>10</ele>
        <time>2019-07-14T10:38:50Z</time>
      </trkpt>
      <trkpt lat="47.79307" lon="-3.63824">
        <ele>10</ele>
        <time>2019-07-14T10:38:51Z</time>
      </trkpt>
      <trkpt lat="47.79308" lon="-3.63824">
        <ele>10</ele>
        <time>2019-07-14T10:38:52Z</time>
      </trkpt>
      <trkpt lat="47.7931" lon="-3.63824">
        <ele>10</ele>
        <time>2019-07-14T10:38:53Z</time>
      </trkpt>
      <trkpt lat="47.79312" lon="-3.63823">
        <ele>10</ele>
        <time>2019-07-14T10:38:54Z</time>
      </trkpt>
      <trkpt lat="47.79312" lon="-3.63823">
        <ele>10</ele>
        <time>2019-07-14T10:38:55Z</time>
      </trkpt>
      <trkpt lat="47.79313" lon="-3.63823">
        <ele>10</ele>
        <time>2019-07-14T10:38:56Z</time>
      </trkpt>
      <trkpt lat="47.79314" lon="-3.63823">
        <ele>10</ele>
        <time>2019-07-14T10:38:57Z</time>
      </trkpt>
      <trkpt lat="47.79315" lon="-3.63823">
        <ele>10</ele>
        <time>2019-07-14T10:38:58Z</time>
      </trkpt>
      <trkpt lat="47.79315" lon="-3.63822">
        <ele>10</ele>
        <time>2019-07-14T10:38:59Z</time>
      </trkpt>
      <trkpt lat="47.79316" lon="-3.63821">
        <ele>10</ele>
        <time>2019-07-14T10:39:00Z</time>
      </trkpt>
      <trkpt lat="47.79317" lon="-3.63821">
        <ele>10</ele>
        <time>2019-07-14T10:39:01Z</time>
      </trkpt>
      <trkpt lat="47.79318" lon="-3.63821">
        <ele>10</ele>
        <time>2019-07-14T10:39:02Z</time>
      </trkpt>
      <trkpt lat="47.7932" lon="-3.63822">
        <ele>10</ele>
        <time>2019-07-14T10:39:03Z</time>
      </trkpt>
      <trkpt lat="47.79322" lon="-3.63822">
        <ele>10</ele>
        <time>2019-07-14T10:39:04Z</time>
      </trkpt>
      <trkpt lat="47.79324" lon="-3.63823">
        <ele>10</ele>
        <time>2019-07-14T10:39:05Z</time>
      </trkpt>
      <trkpt lat="47.79326" lon="-3.63825">
        <ele>10</ele>
        <time>2019-07-14T10:39:06Z</time>
      </trkpt>
      <trkpt lat="47.79328" lon="-3.63826">
        <ele>10</ele>
        <time>2019-07-14T10:39:07Z</time>
      </trkpt>
      <trkpt lat="47.79331" lon="-3.63828">
        <ele>10</ele>
        <time>2019-07-14T10:39:08Z</time>
      </trkpt>
      <trkpt lat="47.79332" lon="-3.6383">
        <ele>10</ele>
        <time>2019-07-14T10:39:09Z</time>
      </trkpt>
      <trkpt lat="47.79334" lon="-3.63832">
        <ele>10</ele>
        <time>2019-07-14T10:39:10Z</time>
      </trkpt>
      <trkpt lat="47.79335" lon="-3.63833">
        <ele>10</ele>
        <time>2019-07-14T10:39:11Z</time>
      </trkpt>
      <trkpt lat="47.79337" lon="-3.63834">
        <ele>10</ele>
        <time>2019-07-14T10:39:12Z</time>
      </trkpt>
      <trkpt lat="47.79338" lon="-3.63836">
        <ele>10</ele>
        <time>2019-07-14T10:39:13Z</time>
      </trkpt>
      <trkpt lat="47.79339" lon="-3.63838">
        <ele>10</ele>
        <time>2019-07-14T10:39:14Z</time>
      </trkpt>
      <trkpt lat="47.79341" lon="-3.63839">
        <ele>10</ele>
        <time>2019-07-14T10:39:15Z</time>
      </trkpt>
      <trkpt lat="47.79342" lon="-3.63841">
        <ele>10</ele>
        <time>2019-07-14T10:39:16Z</time>
      </trkpt>
      <trkpt lat="47.79344" lon="-3.63842">
        <ele>10</ele>
        <time>2019-07-14T10:39:17Z</time>
      </trkpt>
      <trkpt lat="47.79345" lon="-3.63843">
        <ele>10</ele>
        <time>2019-07-14T10:39:18Z</time>
      </trkpt>
      <trkpt lat="47.79347" lon="-3.63844">
        <ele>10</ele>
        <time>2019-07-14T10:39:19Z</time>
      </trkpt>
      <trkpt lat="47.79347" lon="-3.63845">
        <ele>10</ele>
        <time>2019-07-14T10:39:20Z</time>
      </trkpt>
      <trkpt lat="47.79348" lon="-3.63846">
        <ele>10</ele>
        <time>2019-07-14T10:39:21Z</time>
      </trkpt>
      <trkpt lat="47.79349" lon="-3.63848">
        <ele>10</ele>
        <time>2019-07-14T10:39:22Z</time>
      </trkpt>
      <trkpt lat="47.79351" lon="-3.6385">
        <ele>10</ele>
        <time>2019-07-14T10:39:23Z</time>
      </trkpt>
      <trkpt lat="47.79351" lon="-3.63852">
        <ele>10</ele>
        <time>2019-07-14T10:39:24Z</time>
      </trkpt>
      <trkpt lat="47.79352" lon="-3.63855">
        <ele>10</ele>
        <time>2019-07-14T10:39:25Z</time>
      </trkpt>
      <trkpt lat="47.79353" lon="-3.63857">
        <ele>11</ele>
        <time>2019-07-14T10:39:26Z</time>
      </trkpt>
      <trkpt lat="47.79355" lon="-3.63859">
        <ele>11</ele>
        <time>2019-07-14T10:39:27Z</time>
      </trkpt>
      <trkpt lat="47.79356" lon="-3.63861">
        <ele>11</ele>
        <time>2019-07-14T10:39:28Z</time>
      </trkpt>
      <trkpt lat="47.79357" lon="-3.63863">
        <ele>11</ele>
        <time>2019-07-14T10:39:29Z</time>
      </trkpt>
      <trkpt lat="47.79357" lon="-3.63865">
        <ele>12</ele>
        <time>2019-07-14T10:39:30Z</time>
      </trkpt>
      <trkpt lat="47.79358" lon="-3.63867">
        <ele>12</ele>
        <time>2019-07-14T10:39:31Z</time>
      </trkpt>
      <trkpt lat="47.79359" lon="-3.63869">
        <ele>12</ele>
        <time>2019-07-14T10:39:32Z</time>
      </trkpt>
      <trkpt lat="47.7936" lon="-3.63871">
        <ele>12</ele>
        <time>2019-07-14T10:39:33Z</time>
      </trkpt>
      <trkpt lat="47.79361" lon="-3.63874">
        <ele>12</ele>
        <time>2019-07-14T10:39:34Z</time>
      </trkpt>
      <trkpt lat="47.79361" lon="-3.63875">
        <ele>13</ele>
        <time>2019-07-14T10:39:35Z</time>
      </trkpt>
      <trkpt lat="47.79363" lon="-3.63877">
        <ele>13</ele>
        <time>2019-07-14T10:39:36Z</time>
      </trkpt>
      <trkpt lat="47.79364" lon="-3.63879">
        <ele>13</ele>
        <time>2019-07-14T10:39:37Z</time>
      </trkpt>
      <trkpt lat="47.79365" lon="-3.63881">
        <ele>13</ele>
        <time>2019-07-14T10:39:38Z</time>
      </trkpt>
      <trkpt lat="47.79366" lon="-3.63884">
        <ele>14</ele>
        <time>2019-07-14T10:39:39Z</time>
      </trkpt>
      <trkpt lat="47.79367" lon="-3.63887">
        <ele>14</ele>
        <time>2019-07-14T10:39:40Z</time>
      </trkpt>
      <trkpt lat="47.79368" lon="-3.63889">
        <ele>14</ele>
        <time>2019-07-14T10:39:41Z</time>
      </trkpt>
      <trkpt lat="47.79369" lon="-3.63892">
        <ele>14</ele>
        <time>2019-07-14T10:39:42Z</time>
      </trkpt>
      <trkpt lat="47.7937" lon="-3.63894">
        <ele>15</ele>
        <time>2019-07-14T10:39:43Z</time>
      </trkpt>
      <trkpt lat="47.79371" lon="-3.63896">
        <ele>15</ele>
        <time>2019-07-14T10:39:44Z</time>
      </trkpt>
      <trkpt lat="47.79371" lon="-3.63898">
        <ele>15</ele>
        <time>2019-07-14T10:39:45Z</time>
      </trkpt>
      <trkpt lat="47.79372" lon="-3.63901">
        <ele>15</ele>
        <time>2019-07-14T10:39:46Z</time>
      </trkpt>
      <trkpt lat="47.79372" lon="-3.63903">
        <ele>15</ele>
        <time>2019-07-14T10:39:47Z</time>
      </trkpt>
      <trkpt lat="47.79373" lon="-3.63905">
        <ele>16</ele>
        <time>2019-07-14T10:39:48Z</time>
      </trkpt>
      <trkpt lat="47.79372" lon="-3.63907">
        <ele>16</ele>
        <time>2019-07-14T10:39:49Z</time>
      </trkpt>
      <trkpt lat="47.79372" lon="-3.63909">
        <ele>16</ele>
        <time>2019-07-14T10:39:50Z</time>
      </trkpt>
      <trkpt lat="47.79372" lon="-3.63912">
        <ele>17</ele>
        <time>2019-07-14T10:39:51Z</time>
      </trkpt>
      <trkpt lat="47.79373" lon="-3.63915">
        <ele>17</ele>
        <time>2019-07-14T10:39:52Z</time>
      </trkpt>
      <trkpt lat="47.79373" lon="-3.63918">
        <ele>17</ele>
        <time>2019-07-14T10:39:53Z</time>
      </trkpt>
      <trkpt lat="47.79373" lon="-3.63921">
        <ele>17</ele>
        <time>2019-07-14T10:39:54Z</time>
      </trkpt>
      <trkpt lat="47.79374" lon="-3.63924">
        <ele>18</ele>
        <time>2019-07-14T10:39:55Z</time>
      </trkpt>
      <trkpt lat="47.79374" lon="-3.63927">
        <ele>18</ele>
        <time>2019-07-14T10:39:56Z</time>
      </trkpt>
      <trkpt lat="47.79374" lon="-3.63931">
        <ele>18</ele>
        <time>2019-07-14T10:39:57Z</time>
      </trkpt>
      <trkpt lat="47.79374" lon="-3.63934">
        <ele>18</ele>
        <time>2019-07-14T10:39:58Z</time>
      </trkpt>
      <trkpt lat="47.79375" lon="-3.63938">
        <ele>19</ele>
        <time>2019-07-14T10:39:59Z</time>
      </trkpt>
      <trkpt lat="47.79376" lon="-3.63942">
        <ele>19</ele>
        <time>2019-07-14T10:40:00Z</time>
      </trkpt>
      <trkpt lat="47.79377" lon="-3.63945">
        <ele>19</ele>
        <time>2019-07-14T10:40:01Z</time>
      </trkpt>
      <trkpt lat="47.79378" lon="-3.63949">
        <ele>19</ele>
        <time>2019-07-14T10:40:02Z</time>
      </trkpt>
      <trkpt lat="47.79379" lon="-3.63953">
        <ele>19</ele>
        <time>2019-07-14T10:40:03Z</time>
      </trkpt>
      <trkpt lat="47.79381" lon="-3.63957">
        <ele>20</ele>
        <time>2019-07-14T10:40:04Z</time>
      </trkpt>
      <trkpt lat="47.79383" lon="-3.63962">
        <ele>20</ele>
        <time>2019-07-14T10:40:05Z</time>
      </trkpt>
      <trkpt lat="47.79384" lon="-3.63966">
        <ele>20</ele>
        <time>2019-07-14T10:40:06Z</time>
      </trkpt>
      <trkpt lat="47.79386" lon="-3.63971">
        <ele>20</ele>
        <time>2019-07-14T10:40:07Z</time>
      </trkpt>
      <trkpt lat="47.79388" lon="-3.63975">
        <ele>20</ele>
        <time>2019-07-14T10:40:08Z</time>
      </trkpt>
      <trkpt lat="47.7939" lon="-3.63979">
        <ele>20</ele>
        <time>2019-07-14T10:40:09Z</time>
      </trkpt>
      <trkpt lat="47.79391" lon="-3.63983">
        <ele>20</ele>
        <time>2019-07-14T10:40:10Z</time>
      </trkpt>
      <trkpt lat="47.79392" lon="-3.63987">
        <ele>20</ele>
        <time>2019-07-14T10:40:11Z</time>
      </trkpt>
      <trkpt lat="47.79393" lon="-3.63992">
        <ele>20</ele>
        <time>2019-07-14T10:40:12Z</time>
      </trkpt>
      <trkpt lat="47.79393" lon="-3.63997">
        <ele>20</ele>
        <time>2019-07-14T10:40:13Z</time>
      </trkpt>
      <trkpt lat="47.79394" lon="-3.64">
        <ele>20</ele>
        <time>2019-07-14T10:40:14Z</time>
      </trkpt>
      <trkpt lat="47.79395" lon="-3.64004">
        <ele>20</ele>
        <time>2019-07-14T10:40:15Z</time>
      </trkpt>
      <trkpt lat="47.79396" lon="-3.64008">
        <ele>21</ele>
        <time>2019-07-14T10:40:16Z</time>
      </trkpt>
      <trkpt lat="47.79396" lon="-3.64012">
        <ele>21</ele>
        <time>2019-07-14T10:40:17Z</time>
      </trkpt>
      <trkpt lat="47.79396" lon="-3.64016">
        <ele>21</ele>
        <time>2019-07-14T10:40:18Z</time>
      </trkpt>
      <trkpt lat="47.79397" lon="-3.6402">
        <ele>21</ele>
        <time>2019-07-14T10:40:19Z</time>
      </trkpt>
      <trkpt lat="47.79397" lon="-3.64025">
        <ele>22</ele>
        <time>2019-07-14T10:40:20Z</time>
      </trkpt>
      <trkpt lat="47.79397" lon="-3.6403">
        <ele>22</ele>
        <time>2019-07-14T10:40:21Z</time>
      </trkpt>
      <trkpt lat="47.79396" lon="-3.64036">
        <ele>22</ele>
        <time>2019-07-14T10:40:22Z</time>
      </trkpt>
      <trkpt lat="47.79395" lon="-3.64041">
        <ele>23</ele>
        <time>2019-07-14T10:40:23Z</time>
      </trkpt>
      <trkpt lat="47.79394" lon="-3.64046">
        <ele>23</ele>
        <time>2019-07-14T10:40:24Z</time>
      </trkpt>
      <trkpt lat="47.79394" lon="-3.64051">
        <ele>23</ele>
        <time>2019-07-14T10:40:25Z</time>
      </trkpt>
      <trkpt lat="47.79393" lon="-3.64056">
        <ele>24</ele>
        <time>2019-07-14T10:40:26Z</time>
      </trkpt>
      <trkpt lat="47.79392" lon="-3.64059">
        <ele>24</ele>
        <time>2019-07-14T10:40:27Z</time>
      </trkpt>
      <trkpt lat="47.79392" lon="-3.64063">
        <ele>24</ele>
        <time>2019-07-14T10:40:28Z</time>
      </trkpt>
      <trkpt lat="47.79392" lon="-3.64067">
        <ele>24</ele>
        <time>2019-07-14T10:40:29Z</time>
      </trkpt>
      <trkpt lat="47.79394" lon="-3.6407">
        <ele>25</ele>
        <time>2019-07-14T10:40:30Z</time>
      </trkpt>
      <trkpt lat="47.79396" lon="-3.64073">
        <ele>25</ele>
        <time>2019-07-14T10:40:31Z</time>
      </trkpt>
      <trkpt lat="47.79399" lon="-3.64076">
        <ele>25</ele>
        <time>2019-07-14T10:40:32Z</time>
      </trkpt>
      <trkpt lat="47.79401" lon="-3.64079">
        <ele>25</ele>
        <time>2019-07-14T10:40:33Z</time>
      </trkpt>
      <trkpt lat="47.79404" lon="-3.64081">
        <ele>26</ele>
        <time>2019-07-14T10:40:34Z</time>
      </trkpt>
      <trkpt lat="47.79407" lon="-3.64083">
        <ele>26</ele>
        <time>2019-07-14T10:40:35Z</time>
      </trkpt>
      <trkpt lat="47.7941" lon="-3.64085">
        <ele>26</ele>
        <time>2019-07-14T10:40:36Z</time>
      </trkpt>
      <trkpt lat="47.79414" lon="-3.64088">
        <ele>27</ele>
        <time>2019-07-14T10:40:37Z</time>
      </trkpt>
      <trkpt lat="47.79417" lon="-3.64089">
        <ele>27</ele>
        <time>2019-07-14T10:40:38Z</time>
      </trkpt>
      <trkpt lat="47.7942" lon="-3.64091">
        <ele>27</ele>
        <time>2019-07-14T10:40:39Z</time>
      </trkpt>
      <trkpt lat="47.79424" lon="-3.64092">
        <ele>27</ele>
        <time>2019-07-14T10:40:40Z</time>
      </trkpt>
      <trkpt lat="47.79428" lon="-3.64095">
        <ele>28</ele>
        <time>2019-07-14T10:40:41Z</time>
      </trkpt>
      <trkpt lat="47.79432" lon="-3.64097">
        <ele>28</ele>
        <time>2019-07-14T10:40:42Z</time>
      </trkpt>
      <trkpt lat="47.79435" lon="-3.64099">
        <ele>28</ele>
        <time>2019-07-14T10:40:43Z</time>
      </trkpt>
      <trkpt lat="47.79439" lon="-3.64102">
        <ele>28</ele>
        <time>2019-07-14T10:40:44Z</time>
      </trkpt>
      <trkpt lat="47.79443" lon="-3.64104">
        <ele>29</ele>
        <time>2019-07-14T10:40:45Z</time>
      </trkpt>
      <trkpt lat="47.79446" lon="-3.64107">
        <ele>29</ele>
        <time>2019-07-14T10:40:46Z</time>
      </trkpt>
      <trkpt lat="47.7945" lon="-3.64109">
        <ele>29</ele>
        <time>2019-07-14T10:40:47Z</time>
      </trkpt>
      <trkpt lat="47.79454" lon="-3.64112">
        <ele>29</ele>
        <time>2019-07-14T10:40:48Z</time>
      </trkpt>
      <trkpt lat="47.79458" lon="-3.64115">
        <ele>29</ele>
        <time>2019-07-14T10:40:49Z</time>
      </trkpt>
      <trkpt lat="47.79462" lon="-3.64118">
        <ele>30</ele>
        <time>2019-07-14T10:40:50Z</time>
      </trkpt>
      <trkpt lat="47.79466" lon="-3.64121">
        <ele>30</ele>
        <time>2019-07-14T10:40:51Z</time>
      </trkpt>
      <trkpt lat="47.7947" lon="-3.64124">
        <ele>30</ele>
        <time>2019-07-14T10:40:52Z</time>
      </trkpt>
      <trkpt lat="47.79475" lon="-3.64127">
        <ele>30</ele>
        <time>2019-07-14T10:40:53Z</time>
      </trkpt>
      <trkpt lat="47.79479" lon="-3.6413">
        <ele>30</ele>
        <time>2019-07-14T10:40:54Z</time>
      </trkpt>
      <trkpt lat="47.79483" lon="-3.64132">
        <ele>30</ele>
        <time>2019-07-14T10:40:55Z</time>
      </trkpt>
      <trkpt lat="47.79486" lon="-3.64136">
        <ele>30</ele>
        <time>2019-07-14T10:40:56Z</time>
      </trkpt>
      <trkpt lat="47.7949" lon="-3.64139">
        <ele>30</ele>
        <time>2019-07-14T10:40:57Z</time>
      </trkpt>
      <trkpt lat="47.79493" lon="-3.64142">
        <ele>31</ele>
        <time>2019-07-14T10:40:58Z</time>
      </trkpt>
      <trkpt lat="47.79496" lon="-3.64145">
        <ele>31</ele>
        <time>2019-07-14T10:40:59Z</time>
      </trkpt>
      <trkpt lat="47.795" lon="-3.64148">
        <ele>31</ele>
        <time>2019-07-14T10:41:00Z</time>
      </trkpt>
      <trkpt lat="47.79505" lon="-3.64152">
        <ele>31</ele>
        <time>2019-07-14T10:41:01Z</time>
      </trkpt>
      <trkpt lat="47.79509" lon="-3.64155">
        <ele>31</ele>
        <time>2019-07-14T10:41:02Z</time>
      </trkpt>
      <trkpt lat="47.79514" lon="-3.64159">
        <ele>31</ele>
        <time>2019-07-14T10:41:03Z</time>
      </trkpt>
      <trkpt lat="47.79518" lon="-3.64162">
        <ele>31</ele>
        <time>2019-07-14T10:41:04Z</time>
      </trkpt>
      <trkpt lat="47.79523" lon="-3.64165">
        <ele>31</ele>
        <time>2019-07-14T10:41:05Z</time>
      </trkpt>
      <trkpt lat="47.79528" lon="-3.64168">
        <ele>31</ele>
        <time>2019-07-14T10:41:06Z</time>
      </trkpt>
      <trkpt lat="47.79533" lon="-3.6417">
        <ele>31</ele>
        <time>2019-07-14T10:41:07Z</time>
      </trkpt>
      <trkpt lat="47.79538" lon="-3.64172">
        <ele>32</ele>
        <time>2019-07-14T10:41:08Z</time>
      </trkpt>
      <trkpt lat="47.79543" lon="-3.64175">
        <ele>32</ele>
        <time>2019-07-14T10:41:09Z</time>
      </trkpt>
      <trkpt lat="47.79548" lon="-3.64177">
        <ele>32</ele>
        <time>2019-07-14T10:41:10Z</time>
      </trkpt>
      <trkpt lat="47.79553" lon="-3.6418">
        <ele>32</ele>
        <time>2019-07-14T10:41:11Z</time>
      </trkpt>
      <trkpt lat="47.79557" lon="-3.64183">
        <ele>32</ele>
        <time>2019-07-14T10:41:12Z</time>
      </trkpt>
      <trkpt lat="47.79561" lon="-3.64187">
        <ele>32</ele>
        <time>2019-07-14T10:41:13Z</time>
      </trkpt>
      <trkpt lat="47.79565" lon="-3.64193">
        <ele>32</ele>
        <time>2019-07-14T10:41:14Z</time>
      </trkpt>
      <trkpt lat="47.79569" lon="-3.64199">
        <ele>32</ele>
        <time>2019-07-14T10:41:15Z</time>
      </trkpt>
      <trkpt lat="47.79573" lon="-3.64204">
        <ele>32</ele>
        <time>2019-07-14T10:41:16Z</time>
      </trkpt>
      <trkpt lat="47.79577" lon="-3.6421">
        <ele>32</ele>
        <time>2019-07-14T10:41:17Z</time>
      </trkpt>
      <trkpt lat="47.79582" lon="-3.64215">
        <ele>32</ele>
        <time>2019-07-14T10:41:18Z</time>
      </trkpt>
      <trkpt lat="47.79587" lon="-3.6422">
        <ele>32</ele>
        <time>2019-07-14T10:41:19Z</time>
      </trkpt>
      <trkpt lat="47.79592" lon="-3.64225">
        <ele>32</ele>
        <time>2019-07-14T10:41:20Z</time>
      </trkpt>
      <trkpt lat="47.79596" lon="-3.64231">
        <ele>32</ele>
        <time>2019-07-14T10:41:21Z</time>
      </trkpt>
      <trkpt lat="47.79599" lon="-3.64236">
        <ele>32</ele>
        <time>2019-07-14T10:41:22Z</time>
      </trkpt>
      <trkpt lat="47.79601" lon="-3.6424">
        <ele>32</ele>
        <time>2019-07-14T10:41:23Z</time>
      </trkpt>
      <trkpt lat="47.79602" lon="-3.64245">
        <ele>32</ele>
        <time>2019-07-14T10:41:24Z</time>
      </trkpt>
      <trkpt lat="47.79602" lon="-3.64249">
        <ele>32</ele>
        <time>2019-07-14T10:41:25Z</time>
      </trkpt>
      <trkpt lat="47.79603" lon="-3.64255">
        <ele>31</ele>
        <time>2019-07-14T10:41:26Z</time>
      </trkpt>
      <trkpt lat="47.79602" lon="-3.64262">
        <ele>31</ele>
        <time>2019-07-14T10:41:27Z</time>
      </trkpt>
      <trkpt lat="47.79602" lon="-3.64269">
        <ele>31</ele>
        <time>2019-07-14T10:41:28Z</time>
      </trkpt>
      <trkpt lat="47.79602" lon="-3.64276">
        <ele>31</ele>
        <time>2019-07-14T10:41:29Z</time>
      </trkpt>
      <trkpt lat="47.79603" lon="-3.64283">
        <ele>31</ele>
        <time>2019-07-14T10:41:30Z</time>
      </trkpt>
      <trkpt lat="47.79604" lon="-3.64291">
        <ele>31</ele>
        <time>2019-07-14T10:41:31Z</time>
      </trkpt>
      <trkpt lat="47.79605" lon="-3.64298">
        <ele>31</ele>
        <time>2019-07-14T10:41:32Z</time>
      </trkpt>
      <trkpt lat="47.79606" lon="-3.64304">
        <ele>31</ele>
        <time>2019-07-14T10:41:33Z</time>
      </trkpt>
      <trkpt lat="47.79606" lon="-3.6431">
        <ele>31</ele>
        <time>2019-07-14T10:41:34Z</time>
      </trkpt>
      <trkpt lat="47.79607" lon="-3.64315">
        <ele>31</ele>
        <time>2019-07-14T10:41:35Z</time>
      </trkpt>
      <trkpt lat="47.79608" lon="-3.6432">
        <ele>31</ele>
        <time>2019-07-14T10:41:36Z</time>
      </trkpt>
      <trkpt lat="47.79609" lon="-3.64325">
        <ele>31</ele>
        <time>2019-07-14T10:41:37Z</time>
      </trkpt>
      <trkpt lat="47.7961" lon="-3.64329">
        <ele>31</ele>
        <time>2019-07-14T10:41:38Z</time>
      </trkpt>
      <trkpt lat="47.79611" lon="-3.64334">
        <ele>31</ele>
        <time>2019-07-14T10:41:39Z</time>
      </trkpt>
      <trkpt lat="47.79612" lon="-3.64339">
        <ele>31</ele>
        <time>2019-07-14T10:41:40Z</time>
      </trkpt>
      <trkpt lat="47.79613" lon="-3.64344">
        <ele>31</ele>
        <time>2019-07-14T10:41:41Z</time>
      </trkpt>
      <trkpt lat="47.79613" lon="-3.6435">
        <ele>32</ele>
        <time>2019-07-14T10:41:42Z</time>
      </trkpt>
      <trkpt lat="47.79613" lon="-3.64356">
        <ele>32</ele>
        <time>2019-07-14T10:41:43Z</time>
      </trkpt>
      <trkpt lat="47.79614" lon="-3.64361">
        <ele>32</ele>
        <time>2019-07-14T10:41:44Z</time>
      </trkpt>
      <trkpt lat="47.79614" lon="-3.64367">
        <ele>32</ele>
        <time>2019-07-14T10:41:45Z</time>
      </trkpt>
      <trkpt lat="47.79614" lon="-3.64375">
        <ele>32</ele>
        <time>2019-07-14T10:41:46Z</time>
      </trkpt>
      <trkpt lat="47.79614" lon="-3.64383">
        <ele>32</ele>
        <time>2019-07-14T10:41:47Z</time>
      </trkpt>
      <trkpt lat="47.79614" lon="-3.64391">
        <ele>32</ele>
        <time>2019-07-14T10:41:48Z</time>
      </trkpt>
      <trkpt lat="47.79615" lon="-3.64399">
        <ele>32</ele>
        <time>2019-07-14T10:41:49Z</time>
      </trkpt>
      <trkpt lat="47.79615" lon="-3.64407">
        <ele>32</ele>
        <time>2019-07-14T10:41:50Z</time>
      </trkpt>
      <trkpt lat="47.79615" lon="-3.64414">
        <ele>32</ele>
        <time>2019-07-14T10:41:51Z</time>
      </trkpt>
      <trkpt lat="47.79616" lon="-3.64421">
        <ele>32</ele>
        <time>2019-07-14T10:41:52Z</time>
      </trkpt>
      <trkpt lat="47.79617" lon="-3.64428">
        <ele>32</ele>
        <time>2019-07-14T10:41:53Z</time>
      </trkpt>
      <trkpt lat="47.79618" lon="-3.64436">
        <ele>32</ele>
        <time>2019-07-14T10:41:54Z</time>
      </trkpt>
      <trkpt lat="47.79618" lon="-3.64444">
        <ele>32</ele>
        <time>2019-07-14T10:41:55Z</time>
      </trkpt>
      <trkpt lat="47.79619" lon="-3.64452">
        <ele>32</ele>
        <time>2019-07-14T10:41:56Z</time>
      </trkpt>
      <trkpt lat="47.79619" lon="-3.6446">
        <ele>32</ele>
        <time>2019-07-14T10:41:57Z</time>
      </trkpt>
      <trkpt lat="47.7962" lon="-3.64467">
        <ele>32</ele>
        <time>2019-07-14T10:41:58Z</time>
      </trkpt>
      <trkpt lat="47.7962" lon="-3.64476">
        <ele>32</ele>
        <time>2019-07-14T10:41:59Z</time>
      </trkpt>
      <trkpt lat="47.7962" lon="-3.64484">
        <ele>32</ele>
        <time>2019-07-14T10:42:00Z</time>
      </trkpt>
      <trkpt lat="47.7962" lon="-3.64492">
        <ele>32</ele>
        <time>2019-07-14T10:42:01Z</time>
      </trkpt>
      <trkpt lat="47.7962" lon="-3.645">
        <ele>32</ele>
        <time>2019-07-14T10:42:02Z</time>
      </trkpt>
      <trkpt lat="47.79619" lon="-3.64508">
        <ele>32</ele>
        <time>2019-07-14T10:42:03Z</time>
      </trkpt>
      <trkpt lat="47.79619" lon="-3.64515">
        <ele>32</ele>
        <time>2019-07-14T10:42:04Z</time>
      </trkpt>
      <trkpt lat="47.7962" lon="-3.64522">
        <ele>33</ele>
        <time>2019-07-14T10:42:05Z</time>
      </trkpt>
      <trkpt lat="47.79621" lon="-3.64528">
        <ele>33</ele>
        <time>2019-07-14T10:42:06Z</time>
      </trkpt>
      <trkpt lat="47.79624" lon="-3.64531">
        <ele>33</ele>
        <time>2019-07-14T10:42:07Z</time>
      </trkpt>
      <trkpt lat="47.79626" lon="-3.64532">
        <ele>33</ele>
        <time>2019-07-14T10:42:08Z</time>
      </trkpt>
      <trkpt lat="47.79628" lon="-3.64532">
        <ele>33</ele>
        <time>2019-07-14T10:42:09Z</time>
      </trkpt>
      <trkpt lat="47.79631" lon="-3.64533">
        <ele>33</ele>
        <time>2019-07-14T10:42:10Z</time>
      </trkpt>
      <trkpt lat="47.79633" lon="-3.64534">
        <ele>33</ele>
        <time>2019-07-14T10:42:11Z</time>
      </trkpt>
      <trkpt lat="47.79636" lon="-3.64536">
        <ele>34</ele>
        <time>2019-07-14T10:42:12Z</time>
      </trkpt>
      <trkpt lat="47.79639" lon="-3.64538">
        <ele>34</ele>
        <time>2019-07-14T10:42:13Z</time>
      </trkpt>
      <trkpt lat="47.79642" lon="-3.64541">
        <ele>34</ele>
        <time>2019-07-14T10:42:14Z</time>
      </trkpt>
      <trkpt lat="47.79646" lon="-3.64542">
        <ele>34</ele>
        <time>2019-07-14T10:42:15Z</time>
      </trkpt>
      <trkpt lat="47.79649" lon="-3.64543">
        <ele>34</ele>
        <time>2019-07-14T10:42:16Z</time>
      </trkpt>
      <trkpt lat="47.79652" lon="-3.64544">
        <ele>34</ele>
        <time>2019-07-14T10:42:17Z</time>
      </trkpt>
      <trkpt lat="47.79656" lon="-3.64544">
        <ele>35</ele>
        <time>2019-07-14T10:42:18Z</time>
      </trkpt>
      <trkpt lat="47.7966" lon="-3.64545">
        <ele>35</ele>
        <time>2019-07-14T10:42:19Z</time>
      </trkpt>
      <trkpt lat="47.79664" lon="-3.64545">
        <ele>35</ele>
        <time>2019-07-14T10:42:20Z</time>
      </trkpt>
      <trkpt lat="47.79668" lon="-3.64546">
        <ele>35</ele>
        <time>2019-07-14T10:42:21Z</time>
      </trkpt>
      <trkpt lat="47.79672" lon="-3.64546">
        <ele>35</ele>
        <time>2019-07-14T10:42:22Z</time>
      </trkpt>
      <trkpt lat="47.79676" lon="-3.64547">
        <ele>35</ele>
        <time>2019-07-14T10:42:23Z</time>
      </trkpt>
      <trkpt lat="47.7968" lon="-3.64549">
        <ele>35</ele>
        <time>2019-07-14T10:42:24Z</time>
      </trkpt>
      <trkpt lat="47.79683" lon="-3.64552">
        <ele>35</ele>
        <time>2019-07-14T10:42:25Z</time>
      </trkpt>
      <trkpt lat="47.79686" lon="-3.64557">
        <ele>35</ele>
        <time>2019-07-14T10:42:26Z</time>
      </trkpt>
      <trkpt lat="47.79687" lon="-3.64562">
        <ele>35</ele>
        <time>2019-07-14T10:42:27Z</time>
      </trkpt>
      <trkpt lat="47.79689" lon="-3.64567">
        <ele>35</ele>
        <time>2019-07-14T10:42:28Z</time>
      </trkpt>
      <trkpt lat="47.7969" lon="-3.64572">
        <ele>35</ele>
        <time>2019-07-14T10:42:29Z</time>
      </trkpt>
      <trkpt lat="47.79692" lon="-3.64578">
        <ele>35</ele>
        <time>2019-07-14T10:42:30Z</time>
      </trkpt>
      <trkpt lat="47.79693" lon="-3.64583">
        <ele>35</ele>
        <time>2019-07-14T10:42:31Z</time>
      </trkpt>
      <trkpt lat="47.79694" lon="-3.64588">
        <ele>35</ele>
        <time>2019-07-14T10:42:32Z</time>
      </trkpt>
      <trkpt lat="47.79694" lon="-3.64593">
        <ele>35</ele>
        <time>2019-07-14T10:42:33Z</time>
      </trkpt>
      <trkpt lat="47.79694" lon="-3.64598">
        <ele>35</ele>
        <time>2019-07-14T10:42:34Z</time>
      </trkpt>
      <trkpt lat="47.79693" lon="-3.64603">
        <ele>35</ele>
        <time>2019-07-14T10:42:35Z</time>
      </trkpt>
      <trkpt lat="47.79694" lon="-3.64609">
        <ele>35</ele>
        <time>2019-07-14T10:42:36Z</time>
      </trkpt>
      <trkpt lat="47.79694" lon="-3.64615">
        <ele>35</ele>
        <time>2019-07-14T10:42:37Z</time>
      </trkpt>
      <trkpt lat="47.79694" lon="-3.64622">
        <ele>35</ele>
        <time>2019-07-14T10:42:38Z</time>
      </trkpt>
      <trkpt lat="47.79694" lon="-3.64629">
        <ele>35</ele>
        <time>2019-07-14T10:42:39Z</time>
      </trkpt>
      <trkpt lat="47.79693" lon="-3.64637">
        <ele>35</ele>
        <time>2019-07-14T10:42:40Z</time>
      </trkpt>
      <trkpt lat="47.79693" lon="-3.64644">
        <ele>35</ele>
        <time>2019-07-14T10:42:41Z</time>
      </trkpt>
      <trkpt lat="47.79693" lon="-3.64652">
        <ele>35</ele>
        <time>2019-07-14T10:42:42Z</time>
      </trkpt>
      <trkpt lat="47.79693" lon="-3.6466">
        <ele>35</ele>
        <time>2019-07-14T10:42:43Z</time>
      </trkpt>
      <trkpt lat="47.79693" lon="-3.64666">
        <ele>35</ele>
        <time>2019-07-14T10:42:44Z</time>
      </trkpt>
      <trkpt lat="47.79694" lon="-3.64672">
        <ele>35</ele>
        <time>2019-07-14T10:42:45Z</time>
      </trkpt>
      <trkpt lat="47.79695" lon="-3.64679">
        <ele>36</ele>
        <time>2019-07-14T10:42:46Z</time>
      </trkpt>
      <trkpt lat="47.79697" lon="-3.64685">
        <ele>36</ele>
        <time>2019-07-14T10:42:47Z</time>
      </trkpt>
      <trkpt lat="47.79699" lon="-3.64691">
        <ele>36</ele>
        <time>2019-07-14T10:42:48Z</time>
      </trkpt>
      <trkpt lat="47.79702" lon="-3.64696">
        <ele>36</ele>
        <time>2019-07-14T10:42:49Z</time>
      </trkpt>
      <trkpt lat="47.79706" lon="-3.64698">
        <ele>36</ele>
        <time>2019-07-14T10:42:50Z</time>
      </trkpt>
      <trkpt lat="47.79711" lon="-3.64699">
        <ele>36</ele>
        <time>2019-07-14T10:42:51Z</time>
      </trkpt>
      <trkpt lat="47.79716" lon="-3.647">
        <ele>36</ele>
        <time>2019-07-14T10:42:52Z</time>
      </trkpt>
      <trkpt lat="47.79721" lon="-3.64701">
        <ele>36</ele>
        <time>2019-07-14T10:42:53Z</time>
      </trkpt>
      <trkpt lat="47.79725" lon="-3.64702">
        <ele>36</ele>
        <time>2019-07-14T10:42:54Z</time>
      </trkpt>
      <trkpt lat="47.79731" lon="-3.64702">
        <ele>36</ele>
        <time>2019-07-14T10:42:55Z</time>
      </trkpt>
      <trkpt lat="47.79736" lon="-3.64702">
        <ele>36</ele>
        <time>2019-07-14T10:42:56Z</time>
      </trkpt>
      <trkpt lat="47.79741" lon="-3.64702">
        <ele>36</ele>
        <time>2019-07-14T10:42:57Z</time>
      </trkpt>
      <trkpt lat="47.79746" lon="-3.64703">
        <ele>37</ele>
        <time>2019-07-14T10:42:58Z</time>
      </trkpt>
      <trkpt lat="47.79751" lon="-3.64703">
        <ele>37</ele>
        <time>2019-07-14T10:42:59Z</time>
      </trkpt>
      <trkpt lat="47.79756" lon="-3.64703">
        <ele>37</ele>
        <time>2019-07-14T10:43:00Z</time>
      </trkpt>
      <trkpt lat="47.79761" lon="-3.64704">
        <ele>37</ele>
        <time>2019-07-14T10:43:01Z</time>
      </trkpt>
      <trkpt lat="47.79767" lon="-3.64704">
        <ele>38</ele>
        <time>2019-07-14T10:43:02Z</time>
      </trkpt>
      <trkpt lat="47.79772" lon="-3.64704">
        <ele>38</ele>
        <time>2019-07-14T10:43:03Z</time>
      </trkpt>
      <trkpt lat="47.79777" lon="-3.64704">
        <ele>38</ele>
        <time>2019-07-14T10:43:04Z</time>
      </trkpt>
      <trkpt lat="47.79781" lon="-3.64704">
        <ele>38</ele>
        <time>2019-07-14T10:43:05Z</time>
      </trkpt>
      <trkpt lat="47.79786" lon="-3.64705">
        <ele>38</ele>
        <time>2019-07-14T10:43:06Z</time>
      </trkpt>
      <trkpt lat="47.79791" lon="-3.64705">
        <ele>39</ele>
        <time>2019-07-14T10:43:07Z</time>
      </trkpt>
      <trkpt lat="47.79795" lon="-3.64705">
        <ele>39</ele>
        <time>2019-07-14T10:43:08Z</time>
      </trkpt>
      <trkpt lat="47.798" lon="-3.64705">
        <ele>39</ele>
        <time>2019-07-14T10:43:09Z</time>
      </trkpt>
      <trkpt lat="47.79805" lon="-3.64705">
        <ele>39</ele>
        <time>2019-07-14T10:43:10Z</time>
      </trkpt>
      <trkpt lat="47.7981" lon="-3.64705">
        <ele>39</ele>
        <time>2019-07-14T10:43:11Z</time>
      </trkpt>
      <trkpt lat="47.79815" lon="-3.64705">
        <ele>40</ele>
        <time>2019-07-14T10:43:12Z</time>
      </trkpt>
      <trkpt lat="47.7982" lon="-3.64705">
        <ele>40</ele>
        <time>2019-07-14T10:43:13Z</time>
      </trkpt>
      <trkpt lat="47.79825" lon="-3.64704">
        <ele>40</ele>
        <time>2019-07-14T10:43:14Z</time>
      </trkpt>
      <trkpt lat="47.7983" lon="-3.64704">
        <ele>40</ele>
        <time>2019-07-14T10:43:15Z</time>
      </trkpt>
      <trkpt lat="47.79835" lon="-3.64704">
        <ele>40</ele>
        <time>2019-07-14T10:43:16Z</time>
      </trkpt>
      <trkpt lat="47.7984" lon="-3.64704">
        <ele>41</ele>
        <time>2019-07-14T10:43:17Z</time>
      </trkpt>
      <trkpt lat="47.79845" lon="-3.64704">
        <ele>41</ele>
        <time>2019-07-14T10:43:18Z</time>
      </trkpt>
      <trkpt lat="47.7985" lon="-3.64703">
        <ele>41</ele>
        <time>2019-07-14T10:43:19Z</time>
      </trkpt>
      <trkpt lat="47.79854" lon="-3.64703">
        <ele>41</ele>
        <time>2019-07-14T10:43:20Z</time>
      </trkpt>
      <trkpt lat="47.7986" lon="-3.64702">
        <ele>41</ele>
        <time>2019-07-14T10:43:21Z</time>
      </trkpt>
      <trkpt lat="47.79864" lon="-3.64702">
        <ele>42</ele>
        <time>2019-07-14T10:43:22Z</time>
      </trkpt>
      <trkpt lat="47.7987" lon="-3.64701">
        <ele>42</ele>
        <time>2019-07-14T10:43:23Z</time>
      </trkpt>
      <trkpt lat="47.79875" lon="-3.647">
        <ele>42</ele>
        <time>2019-07-14T10:43:24Z</time>
      </trkpt>
      <trkpt lat="47.7988" lon="-3.647">
        <ele>42</ele>
        <time>2019-07-14T10:43:25Z</time>
      </trkpt>
      <trkpt lat="47.79885" lon="-3.64699">
        <ele>42</ele>
        <time>2019-07-14T10:43:26Z</time>
      </trkpt>
      <trkpt lat="47.7989" lon="-3.64699">
        <ele>43</ele>
        <time>2019-07-14T10:43:27Z</time>
      </trkpt>
      <trkpt lat="47.79895" lon="-3.64698">
        <ele>43</ele>
        <time>2019-07-14T10:43:28Z</time>
      </trkpt>
      <trkpt lat="47.799" lon="-3.64697">
        <ele>43</ele>
        <time>2019-07-14T10:43:29Z</time>
      </trkpt>
      <trkpt lat="47.79904" lon="-3.64696">
        <ele>43</ele>
        <time>2019-07-14T10:43:30Z</time>
      </trkpt>
      <trkpt lat="47.79909" lon="-3.64696">
        <ele>44</ele>
        <time>2019-07-14T10:43:31Z</time>
      </trkpt>
      <trkpt lat="47.79914" lon="-3.64696">
        <ele>44</ele>
        <time>2019-07-14T10:43:32Z</time>
      </trkpt>
      <trkpt lat="47.79918" lon="-3.64696">
        <ele>44</ele>
        <time>2019-07-14T10:43:33Z</time>
      </trkpt>
      <trkpt lat="47.79923" lon="-3.64695">
        <ele>44</ele>
        <time>2019-07-14T10:43:34Z</time>
      </trkpt>
      <trkpt lat="47.79927" lon="-3.64694">
        <ele>44</ele>
        <time>2019-07-14T10:43:35Z</time>
      </trkpt>
      <trkpt lat="47.79932" lon="-3.64694">
        <ele>44</ele>
        <time>2019-07-14T10:43:36Z</time>
      </trkpt>
      <trkpt lat="47.79937" lon="-3.64693">
        <ele>45</ele>
        <time>2019-07-14T10:43:37Z</time>
      </trkpt>
      <trkpt lat="47.79942" lon="-3.64693">
        <ele>45</ele>
        <time>2019-07-14T10:43:38Z</time>
      </trkpt>
      <trkpt lat="47.79946" lon="-3.64693">
        <ele>45</ele>
        <time>2019-07-14T10:43:39Z</time>
      </trkpt>
      <trkpt lat="47.79952" lon="-3.64692">
        <ele>45</ele>
        <time>2019-07-14T10:43:40Z</time>
      </trkpt>
      <trkpt lat="47.79957" lon="-3.64692">
        <ele>45</ele>
        <time>2019-07-14T10:43:41Z</time>
      </trkpt>
      <trkpt lat="47.79962" lon="-3.64692">
        <ele>45</ele>
        <time>2019-07-14T10:43:42Z</time>
      </trkpt>
      <trkpt lat="47.79968" lon="-3.64691">
        <ele>45</ele>
        <time>2019-07-14T10:43:43Z</time>
      </trkpt>
      <trkpt lat="47.79973" lon="-3.6469">
        <ele>46</ele>
        <time>2019-07-14T10:43:44Z</time>
      </trkpt>
      <trkpt lat="47.79979" lon="-3.6469">
        <ele>46</ele>
        <time>2019-07-14T10:43:45Z</time>
      </trkpt>
      <trkpt lat="47.79985" lon="-3.64689">
        <ele>46</ele>
        <time>2019-07-14T10:43:46Z</time>
      </trkpt>
      <trkpt lat="47.7999" lon="-3.64688">
        <ele>46</ele>
        <time>2019-07-14T10:43:47Z</time>
      </trkpt>
      <trkpt lat="47.79996" lon="-3.64687">
        <ele>46</ele>
        <time>2019-07-14T10:43:48Z</time>
      </trkpt>
      <trkpt lat="47.80001" lon="-3.64686">
        <ele>47</ele>
        <time>2019-07-14T10:43:49Z</time>
      </trkpt>
      <trkpt lat="47.80007" lon="-3.64686">
        <ele>47</ele>
        <time>2019-07-14T10:43:50Z</time>
      </trkpt>
      <trkpt lat="47.80013" lon="-3.64685">
        <ele>47</ele>
        <time>2019-07-14T10:43:51Z</time>
      </trkpt>
      <trkpt lat="47.80019" lon="-3.64685">
        <ele>47</ele>
        <time>2019-07-14T10:43:52Z</time>
      </trkpt>
      <trkpt lat="47.80024" lon="-3.64685">
        <ele>48</ele>
        <time>2019-07-14T10:43:53Z</time>
      </trkpt>
      <trkpt lat="47.80031" lon="-3.64685">
        <ele>48</ele>
        <time>2019-07-14T10:43:54Z</time>
      </trkpt>
      <trkpt lat="47.80037" lon="-3.64686">
        <ele>48</ele>
        <time>2019-07-14T10:43:55Z</time>
      </trkpt>
      <trkpt lat="47.80042" lon="-3.64686">
        <ele>48</ele>
        <time>2019-07-14T10:43:56Z</time>
      </trkpt>
      <trkpt lat="47.80048" lon="-3.64687">
        <ele>48</ele>
        <time>2019-07-14T10:43:57Z</time>
      </trkpt>
      <trkpt lat="47.80053" lon="-3.64689">
        <ele>48</ele>
        <time>2019-07-14T10:43:58Z</time>
      </trkpt>
      <trkpt lat="47.80059" lon="-3.6469">
        <ele>48</ele>
        <time>2019-07-14T10:43:59Z</time>
      </trkpt>
      <trkpt lat="47.80065" lon="-3.64692">
        <ele>48</ele>
        <time>2019-07-14T10:44:00Z</time>
      </trkpt>
      <trkpt lat="47.80071" lon="-3.64693">
        <ele>48</ele>
        <time>2019-07-14T10:44:01Z</time>
      </trkpt>
      <trkpt lat="47.80077" lon="-3.64695">
        <ele>48</ele>
        <time>2019-07-14T10:44:02Z</time>
      </trkpt>
      <trkpt lat="47.80082" lon="-3.64696">
        <ele>48</ele>
        <time>2019-07-14T10:44:03Z</time>
      </trkpt>
      <trkpt lat="47.80088" lon="-3.64698">
        <ele>48</ele>
        <time>2019-07-14T10:44:04Z</time>
      </trkpt>
      <trkpt lat="47.80093" lon="-3.64699">
        <ele>48</ele>
        <time>2019-07-14T10:44:05Z</time>
      </trkpt>
      <trkpt lat="47.80099" lon="-3.647">
        <ele>48</ele>
        <time>2019-07-14T10:44:06Z</time>
      </trkpt>
      <trkpt lat="47.80105" lon="-3.64701">
        <ele>49</ele>
        <time>2019-07-14T10:44:07Z</time>
      </trkpt>
      <trkpt lat="47.80111" lon="-3.64701">
        <ele>49</ele>
        <time>2019-07-14T10:44:08Z</time>
      </trkpt>
      <trkpt lat="47.80117" lon="-3.64701">
        <ele>49</ele>
        <time>2019-07-14T10:44:09Z</time>
      </trkpt>
      <trkpt lat="47.80122" lon="-3.64701">
        <ele>49</ele>
        <time>2019-07-14T10:44:10Z</time>
      </trkpt>
      <trkpt lat="47.80128" lon="-3.64701">
        <ele>49</ele>
        <time>2019-07-14T10:44:11Z</time>
      </trkpt>
      <trkpt lat="47.80133" lon="-3.647">
        <ele>49</ele>
        <time>2019-07-14T10:44:12Z</time>
      </trkpt>
      <trkpt lat="47.80139" lon="-3.64699">
        <ele>49</ele>
        <time>2019-07-14T10:44:13Z</time>
      </trkpt>
      <trkpt lat="47.80144" lon="-3.64699">
        <ele>49</ele>
        <time>2019-07-14T10:44:14Z</time>
      </trkpt>
      <trkpt lat="47.80149" lon="-3.64698">
        <ele>49</ele>
        <time>2019-07-14T10:44:15Z</time>
      </trkpt>
      <trkpt lat="47.80153" lon="-3.64698">
        <ele>49</ele>
        <time>2019-07-14T10:44:16Z</time>
      </trkpt>
      <trkpt lat="47.80158" lon="-3.64697">
        <ele>49</ele>
        <time>2019-07-14T10:44:17Z</time>
      </trkpt>
      <trkpt lat="47.80162" lon="-3.64696">
        <ele>49</ele>
        <time>2019-07-14T10:44:18Z</time>
      </trkpt>
      <trkpt lat="47.80165" lon="-3.64695">
        <ele>49</ele>
        <time>2019-07-14T10:44:19Z</time>
      </trkpt>
      <trkpt lat="47.80168" lon="-3.64695">
        <ele>50</ele>
        <time>2019-07-14T10:44:20Z</time>
      </trkpt>
      <trkpt lat="47.80171" lon="-3.64694">
        <ele>50</ele>
        <time>2019-07-14T10:44:21Z</time>
      </trkpt>
      <trkpt lat="47.80175" lon="-3.64694">
        <ele>50</ele>
        <time>2019-07-14T10:44:22Z</time>
      </trkpt>
      <trkpt lat="47.80177" lon="-3.64695">
        <ele>50</ele>
        <time>2019-07-14T10:44:23Z</time>
      </trkpt>
      <trkpt lat="47.80179" lon="-3.64697">
        <ele>50</ele>
        <time>2019-07-14T10:44:24Z</time>
      </trkpt>
      <trkpt lat="47.80179" lon="-3.647">
        <ele>50</ele>
        <time>2019-07-14T10:44:25Z</time>
      </trkpt>
      <trkpt lat="47.80179" lon="-3.647">
        <ele>50</ele>
        <time>2019-07-14T10:44:26Z</time>
      </trkpt>
      <trkpt lat="47.80179" lon="-3.647">
        <ele>49</ele>
        <time>2019-07-14T10:44:27Z</time>
      </trkpt>
      <trkpt lat="47.80179" lon="-3.64705">
        <ele>48</ele>
        <time>2019-07-14T10:44:28Z</time>
      </trkpt>
      <trkpt lat="47.80179" lon="-3.64708">
        <ele>48</ele>
        <time>2019-07-14T10:44:29Z</time>
      </trkpt>
      <trkpt lat="47.8018" lon="-3.64711">
        <ele>48</ele>
        <time>2019-07-14T10:44:30Z</time>
      </trkpt>
      <trkpt lat="47.8018" lon="-3.64715">
        <ele>48</ele>
        <time>2019-07-14T10:44:31Z</time>
      </trkpt>
      <trkpt lat="47.80181" lon="-3.64719">
        <ele>48</ele>
        <time>2019-07-14T10:44:32Z</time>
      </trkpt>
      <trkpt lat="47.80181" lon="-3.64724">
        <ele>48</ele>
        <time>2019-07-14T10:44:33Z</time>
      </trkpt>
      <trkpt lat="47.80182" lon="-3.64729">
        <ele>48</ele>
        <time>2019-07-14T10:44:34Z</time>
      </trkpt>
      <trkpt lat="47.80183" lon="-3.64735">
        <ele>48</ele>
        <time>2019-07-14T10:44:35Z</time>
      </trkpt>
      <trkpt lat="47.80184" lon="-3.64741">
        <ele>48</ele>
        <time>2019-07-14T10:44:36Z</time>
      </trkpt>
      <trkpt lat="47.80185" lon="-3.64748">
        <ele>48</ele>
        <time>2019-07-14T10:44:37Z</time>
      </trkpt>
      <trkpt lat="47.80187" lon="-3.64755">
        <ele>48</ele>
        <time>2019-07-14T10:44:38Z</time>
      </trkpt>
      <trkpt lat="47.80188" lon="-3.64761">
        <ele>48</ele>
        <time>2019-07-14T10:44:39Z</time>
      </trkpt>
      <trkpt lat="47.80189" lon="-3.64768">
        <ele>48</ele>
        <time>2019-07-14T10:44:40Z</time>
      </trkpt>
      <trkpt lat="47.80191" lon="-3.64775">
        <ele>48</ele>
        <time>2019-07-14T10:44:41Z</time>
      </trkpt>
      <trkpt lat="47.80192" lon="-3.6478">
        <ele>48</ele>
        <time>2019-07-14T10:44:42Z</time>
      </trkpt>
      <trkpt lat="47.80195" lon="-3.64786">
        <ele>48</ele>
        <time>2019-07-14T10:44:43Z</time>
      </trkpt>
      <trkpt lat="47.80196" lon="-3.64791">
        <ele>48</ele>
        <time>2019-07-14T10:44:44Z</time>
      </trkpt>
      <trkpt lat="47.80196" lon="-3.64797">
        <ele>48</ele>
        <time>2019-07-14T10:44:45Z</time>
      </trkpt>
      <trkpt lat="47.80197" lon="-3.64802">
        <ele>48</ele>
        <time>2019-07-14T10:44:46Z</time>
      </trkpt>
      <trkpt lat="47.80197" lon="-3.64807">
        <ele>48</ele>
        <time>2019-07-14T10:44:47Z</time>
      </trkpt>
      <trkpt lat="47.80197" lon="-3.64814">
        <ele>48</ele>
        <time>2019-07-14T10:44:48Z</time>
      </trkpt>
      <trkpt lat="47.80198" lon="-3.64822">
        <ele>48</ele>
        <time>2019-07-14T10:44:49Z</time>
      </trkpt>
      <trkpt lat="47.80198" lon="-3.6483">
        <ele>48</ele>
        <time>2019-07-14T10:44:50Z</time>
      </trkpt>
      <trkpt lat="47.80198" lon="-3.64838">
        <ele>48</ele>
        <time>2019-07-14T10:44:51Z</time>
      </trkpt>
      <trkpt lat="47.80199" lon="-3.64845">
        <ele>48</ele>
        <time>2019-07-14T10:44:52Z</time>
      </trkpt>
      <trkpt lat="47.80199" lon="-3.64851">
        <ele>48</ele>
        <time>2019-07-14T10:44:53Z</time>
      </trkpt>
      <trkpt lat="47.802" lon="-3.64856">
        <ele>48</ele>
        <time>2019-07-14T10:44:54Z</time>
      </trkpt>
      <trkpt lat="47.80201" lon="-3.64859">
        <ele>48</ele>
        <time>2019-07-14T10:44:55Z</time>
      </trkpt>
      <trkpt lat="47.80204" lon="-3.64862">
        <ele>48</ele>
        <time>2019-07-14T10:44:56Z</time>
      </trkpt>
      <trkpt lat="47.80207" lon="-3.64864">
        <ele>48</ele>
        <time>2019-07-14T10:44:57Z</time>
      </trkpt>
      <trkpt lat="47.8021" lon="-3.64865">
        <ele>48</ele>
        <time>2019-07-14T10:44:58Z</time>
      </trkpt>
      <trkpt lat="47.80212" lon="-3.64868">
        <ele>48</ele>
        <time>2019-07-14T10:44:59Z</time>
      </trkpt>
      <trkpt lat="47.80213" lon="-3.64871">
        <ele>48</ele>
        <time>2019-07-14T10:45:00Z</time>
      </trkpt>
      <trkpt lat="47.80214" lon="-3.64876">
        <ele>48</ele>
        <time>2019-07-14T10:45:01Z</time>
      </trkpt>
      <trkpt lat="47.80215" lon="-3.64881">
        <ele>48</ele>
        <time>2019-07-14T10:45:02Z</time>
      </trkpt>
      <trkpt lat="47.80216" lon="-3.64888">
        <ele>48</ele>
        <time>2019-07-14T10:45:03Z</time>
      </trkpt>
      <trkpt lat="47.80217" lon="-3.64895">
        <ele>47</ele>
        <time>2019-07-14T10:45:04Z</time>
      </trkpt>
      <trkpt lat="47.80218" lon="-3.64902">
        <ele>47</ele>
        <time>2019-07-14T10:45:05Z</time>
      </trkpt>
      <trkpt lat="47.80219" lon="-3.64908">
        <ele>47</ele>
        <time>2019-07-14T10:45:06Z</time>
      </trkpt>
      <trkpt lat="47.8022" lon="-3.64914">
        <ele>47</ele>
        <time>2019-07-14T10:45:07Z</time>
      </trkpt>
      <trkpt lat="47.8022" lon="-3.64921">
        <ele>47</ele>
        <time>2019-07-14T10:45:08Z</time>
      </trkpt>
      <trkpt lat="47.80219" lon="-3.64929">
        <ele>48</ele>
        <time>2019-07-14T10:45:09Z</time>
      </trkpt>
      <trkpt lat="47.80218" lon="-3.64936">
        <ele>48</ele>
        <time>2019-07-14T10:45:10Z</time>
      </trkpt>
      <trkpt lat="47.80216" lon="-3.64944">
        <ele>48</ele>
        <time>2019-07-14T10:45:11Z</time>
      </trkpt>
      <trkpt lat="47.80214" lon="-3.64952">
        <ele>48</ele>
        <time>2019-07-14T10:45:12Z</time>
      </trkpt>
      <trkpt lat="47.80214" lon="-3.64959">
        <ele>48</ele>
        <time>2019-07-14T10:45:13Z</time>
      </trkpt>
      <trkpt lat="47.80213" lon="-3.64965">
        <ele>48</ele>
        <time>2019-07-14T10:45:14Z</time>
      </trkpt>
      <trkpt lat="47.80212" lon="-3.64971">
        <ele>48</ele>
        <time>2019-07-14T10:45:15Z</time>
      </trkpt>
      <trkpt lat="47.80213" lon="-3.64977">
        <ele>48</ele>
        <time>2019-07-14T10:45:16Z</time>
      </trkpt>
      <trkpt lat="47.80214" lon="-3.64984">
        <ele>48</ele>
        <time>2019-07-14T10:45:17Z</time>
      </trkpt>
      <trkpt lat="47.80213" lon="-3.6499">
        <ele>49</ele>
        <time>2019-07-14T10:45:18Z</time>
      </trkpt>
      <trkpt lat="47.80213" lon="-3.64997">
        <ele>49</ele>
        <time>2019-07-14T10:45:19Z</time>
      </trkpt>
      <trkpt lat="47.80213" lon="-3.65003">
        <ele>49</ele>
        <time>2019-07-14T10:45:20Z</time>
      </trkpt>
      <trkpt lat="47.80212" lon="-3.6501">
        <ele>49</ele>
        <time>2019-07-14T10:45:21Z</time>
      </trkpt>
      <trkpt lat="47.80211" lon="-3.65017">
        <ele>49</ele>
        <time>2019-07-14T10:45:22Z</time>
      </trkpt>
      <trkpt lat="47.80211" lon="-3.65023">
        <ele>49</ele>
        <time>2019-07-14T10:45:23Z</time>
      </trkpt>
      <trkpt lat="47.80211" lon="-3.6503">
        <ele>49</ele>
        <time>2019-07-14T10:45:24Z</time>
      </trkpt>
      <trkpt lat="47.80211" lon="-3.65036">
        <ele>50</ele>
        <time>2019-07-14T10:45:25Z</time>
      </trkpt>
      <trkpt lat="47.8021" lon="-3.65041">
        <ele>50</ele>
        <time>2019-07-14T10:45:26Z</time>
      </trkpt>
      <trkpt lat="47.80207" lon="-3.65045">
        <ele>50</ele>
        <time>2019-07-14T10:45:27Z</time>
      </trkpt>
      <trkpt lat="47.80203" lon="-3.65048">
        <ele>50</ele>
        <time>2019-07-14T10:45:28Z</time>
      </trkpt>
      <trkpt lat="47.80198" lon="-3.65052">
        <ele>50</ele>
        <time>2019-07-14T10:45:29Z</time>
      </trkpt>
      <trkpt lat="47.80193" lon="-3.65056">
        <ele>50</ele>
        <time>2019-07-14T10:45:30Z</time>
      </trkpt>
      <trkpt lat="47.80189" lon="-3.6506">
        <ele>50</ele>
        <time>2019-07-14T10:45:31Z</time>
      </trkpt>
      <trkpt lat="47.80186" lon="-3.65066">
        <ele>50</ele>
        <time>2019-07-14T10:45:32Z</time>
      </trkpt>
      <trkpt lat="47.80185" lon="-3.65073">
        <ele>50</ele>
        <time>2019-07-14T10:45:33Z</time>
      </trkpt>
      <trkpt lat="47.80185" lon="-3.65079">
        <ele>50</ele>
        <time>2019-07-14T10:45:34Z</time>
      </trkpt>
      <trkpt lat="47.80185" lon="-3.65085">
        <ele>50</ele>
        <time>2019-07-14T10:45:35Z</time>
      </trkpt>
      <trkpt lat="47.80186" lon="-3.65092">
        <ele>50</ele>
        <time>2019-07-14T10:45:36Z</time>
      </trkpt>
      <trkpt lat="47.80186" lon="-3.65099">
        <ele>50</ele>
        <time>2019-07-14T10:45:37Z</time>
      </trkpt>
      <trkpt lat="47.80187" lon="-3.65106">
        <ele>50</ele>
        <time>2019-07-14T10:45:38Z</time>
      </trkpt>
      <trkpt lat="47.80188" lon="-3.65113">
        <ele>51</ele>
        <time>2019-07-14T10:45:39Z</time>
      </trkpt>
      <trkpt lat="47.80188" lon="-3.6512">
        <ele>51</ele>
        <time>2019-07-14T10:45:40Z</time>
      </trkpt>
      <trkpt lat="47.8019" lon="-3.65128">
        <ele>51</ele>
        <time>2019-07-14T10:45:41Z</time>
      </trkpt>
      <trkpt lat="47.80192" lon="-3.65135">
        <ele>51</ele>
        <time>2019-07-14T10:45:42Z</time>
      </trkpt>
      <trkpt lat="47.80194" lon="-3.65142">
        <ele>51</ele>
        <time>2019-07-14T10:45:43Z</time>
      </trkpt>
      <trkpt lat="47.80196" lon="-3.65148">
        <ele>51</ele>
        <time>2019-07-14T10:45:44Z</time>
      </trkpt>
      <trkpt lat="47.80198" lon="-3.65155">
        <ele>51</ele>
        <time>2019-07-14T10:45:45Z</time>
      </trkpt>
      <trkpt lat="47.80201" lon="-3.65162">
        <ele>51</ele>
        <time>2019-07-14T10:45:46Z</time>
      </trkpt>
      <trkpt lat="47.80203" lon="-3.65168">
        <ele>51</ele>
        <time>2019-07-14T10:45:47Z</time>
      </trkpt>
      <trkpt lat="47.80206" lon="-3.65175">
        <ele>51</ele>
        <time>2019-07-14T10:45:48Z</time>
      </trkpt>
      <trkpt lat="47.80208" lon="-3.65181">
        <ele>51</ele>
        <time>2019-07-14T10:45:49Z</time>
      </trkpt>
      <trkpt lat="47.80211" lon="-3.65186">
        <ele>51</ele>
        <time>2019-07-14T10:45:50Z</time>
      </trkpt>
      <trkpt lat="47.80213" lon="-3.65191">
        <ele>51</ele>
        <time>2019-07-14T10:45:51Z</time>
      </trkpt>
      <trkpt lat="47.80216" lon="-3.65196">
        <ele>51</ele>
        <time>2019-07-14T10:45:52Z</time>
      </trkpt>
      <trkpt lat="47.80218" lon="-3.65201">
        <ele>51</ele>
        <time>2019-07-14T10:45:53Z</time>
      </trkpt>
      <trkpt lat="47.80221" lon="-3.65205">
        <ele>51</ele>
        <time>2019-07-14T10:45:54Z</time>
      </trkpt>
      <trkpt lat="47.80224" lon="-3.6521">
        <ele>51</ele>
        <time>2019-07-14T10:45:55Z</time>
      </trkpt>
      <trkpt lat="47.80226" lon="-3.65214">
        <ele>51</ele>
        <time>2019-07-14T10:45:56Z</time>
      </trkpt>
      <trkpt lat="47.80227" lon="-3.65217">
        <ele>51</ele>
        <time>2019-07-14T10:45:57Z</time>
      </trkpt>
      <trkpt lat="47.80229" lon="-3.65221">
        <ele>51</ele>
        <time>2019-07-14T10:45:58Z</time>
      </trkpt>
      <trkpt lat="47.80231" lon="-3.65225">
        <ele>51</ele>
        <time>2019-07-14T10:45:59Z</time>
      </trkpt>
      <trkpt lat="47.80232" lon="-3.65231">
        <ele>51</ele>
        <time>2019-07-14T10:46:00Z</time>
      </trkpt>
      <trkpt lat="47.80233" lon="-3.65238">
        <ele>50</ele>
        <time>2019-07-14T10:46:01Z</time>
      </trkpt>
      <trkpt lat="47.80234" lon="-3.65246">
        <ele>50</ele>
        <time>2019-07-14T10:46:02Z</time>
      </trkpt>
      <trkpt lat="47.80236" lon="-3.65255">
        <ele>50</ele>
        <time>2019-07-14T10:46:03Z</time>
      </trkpt>
      <trkpt lat="47.80237" lon="-3.65263">
        <ele>50</ele>
        <time>2019-07-14T10:46:04Z</time>
      </trkpt>
      <trkpt lat="47.80238" lon="-3.65271">
        <ele>50</ele>
        <time>2019-07-14T10:46:05Z</time>
      </trkpt>
      <trkpt lat="47.8024" lon="-3.6528">
        <ele>50</ele>
        <time>2019-07-14T10:46:06Z</time>
      </trkpt>
      <trkpt lat="47.80241" lon="-3.65288">
        <ele>50</ele>
        <time>2019-07-14T10:46:07Z</time>
      </trkpt>
      <trkpt lat="47.80242" lon="-3.65296">
        <ele>50</ele>
        <time>2019-07-14T10:46:08Z</time>
      </trkpt>
      <trkpt lat="47.80244" lon="-3.65304">
        <ele>49</ele>
        <time>2019-07-14T10:46:09Z</time>
      </trkpt>
      <trkpt lat="47.80245" lon="-3.65313">
        <ele>49</ele>
        <time>2019-07-14T10:46:10Z</time>
      </trkpt>
      <trkpt lat="47.80246" lon="-3.65322">
        <ele>49</ele>
        <time>2019-07-14T10:46:11Z</time>
      </trkpt>
      <trkpt lat="47.80247" lon="-3.6533">
        <ele>49</ele>
        <time>2019-07-14T10:46:12Z</time>
      </trkpt>
      <trkpt lat="47.80248" lon="-3.6534">
        <ele>49</ele>
        <time>2019-07-14T10:46:13Z</time>
      </trkpt>
      <trkpt lat="47.8025" lon="-3.65349">
        <ele>49</ele>
        <time>2019-07-14T10:46:14Z</time>
      </trkpt>
      <trkpt lat="47.80251" lon="-3.65359">
        <ele>48</ele>
        <time>2019-07-14T10:46:15Z</time>
      </trkpt>
      <trkpt lat="47.80252" lon="-3.65368">
        <ele>48</ele>
        <time>2019-07-14T10:46:16Z</time>
      </trkpt>
      <trkpt lat="47.80254" lon="-3.65377">
        <ele>48</ele>
        <time>2019-07-14T10:46:17Z</time>
      </trkpt>
      <trkpt lat="47.80255" lon="-3.65387">
        <ele>48</ele>
        <time>2019-07-14T10:46:18Z</time>
      </trkpt>
      <trkpt lat="47.80256" lon="-3.65396">
        <ele>48</ele>
        <time>2019-07-14T10:46:19Z</time>
      </trkpt>
      <trkpt lat="47.80258" lon="-3.65405">
        <ele>48</ele>
        <time>2019-07-14T10:46:20Z</time>
      </trkpt>
      <trkpt lat="47.80259" lon="-3.65415">
        <ele>47</ele>
        <time>2019-07-14T10:46:21Z</time>
      </trkpt>
      <trkpt lat="47.8026" lon="-3.65424">
        <ele>47</ele>
        <time>2019-07-14T10:46:22Z</time>
      </trkpt>
      <trkpt lat="47.80262" lon="-3.65431">
        <ele>47</ele>
        <time>2019-07-14T10:46:23Z</time>
      </trkpt>
      <trkpt lat="47.80265" lon="-3.65438">
        <ele>47</ele>
        <time>2019-07-14T10:46:24Z</time>
      </trkpt>
      <trkpt lat="47.8027" lon="-3.65442">
        <ele>47</ele>
        <time>2019-07-14T10:46:25Z</time>
      </trkpt>
      <trkpt lat="47.80274" lon="-3.65442">
        <ele>47</ele>
        <time>2019-07-14T10:46:26Z</time>
      </trkpt>
      <trkpt lat="47.80277" lon="-3.6544">
        <ele>47</ele>
        <time>2019-07-14T10:46:27Z</time>
      </trkpt>
      <trkpt lat="47.80281" lon="-3.65437">
        <ele>47</ele>
        <time>2019-07-14T10:46:28Z</time>
      </trkpt>
      <trkpt lat="47.80286" lon="-3.65433">
        <ele>47</ele>
        <time>2019-07-14T10:46:29Z</time>
      </trkpt>
      <trkpt lat="47.8029" lon="-3.6543">
        <ele>47</ele>
        <time>2019-07-14T10:46:30Z</time>
      </trkpt>
      <trkpt lat="47.80294" lon="-3.65426">
        <ele>47</ele>
        <time>2019-07-14T10:46:31Z</time>
      </trkpt>
      <trkpt lat="47.80299" lon="-3.65422">
        <ele>47</ele>
        <time>2019-07-14T10:46:32Z</time>
      </trkpt>
      <trkpt lat="47.80303" lon="-3.65418">
        <ele>47</ele>
        <time>2019-07-14T10:46:33Z</time>
      </trkpt>
      <trkpt lat="47.80308" lon="-3.65414">
        <ele>47</ele>
        <time>2019-07-14T10:46:34Z</time>
      </trkpt>
      <trkpt lat="47.80313" lon="-3.65409">
        <ele>47</ele>
        <time>2019-07-14T10:46:35Z</time>
      </trkpt>
      <trkpt lat="47.80317" lon="-3.65405">
        <ele>47</ele>
        <time>2019-07-14T10:46:36Z</time>
      </trkpt>
      <trkpt lat="47.80321" lon="-3.65401">
        <ele>47</ele>
        <time>2019-07-14T10:46:37Z</time>
      </trkpt>
      <trkpt lat="47.80324" lon="-3.65398">
        <ele>47</ele>
        <time>2019-07-14T10:46:38Z</time>
      </trkpt>
      <trkpt lat="47.80326" lon="-3.65396">
        <ele>47</ele>
        <time>2019-07-14T10:46:39Z</time>
      </trkpt>
      <trkpt lat="47.80329" lon="-3.65394">
        <ele>47</ele>
        <time>2019-07-14T10:46:40Z</time>
      </trkpt>
      <trkpt lat="47.80332" lon="-3.65394">
        <ele>47</ele>
        <time>2019-07-14T10:46:41Z</time>
      </trkpt>
      <trkpt lat="47.80334" lon="-3.65394">
        <ele>47</ele>
        <time>2019-07-14T10:46:42Z</time>
      </trkpt>
      <trkpt lat="47.80337" lon="-3.65397">
        <ele>47</ele>
        <time>2019-07-14T10:46:43Z</time>
      </trkpt>
      <trkpt lat="47.80339" lon="-3.65402">
        <ele>47</ele>
        <time>2019-07-14T10:46:44Z</time>
      </trkpt>
      <trkpt lat="47.8034" lon="-3.65408">
        <ele>47</ele>
        <time>2019-07-14T10:46:45Z</time>
      </trkpt>
      <trkpt lat="47.80342" lon="-3.65415">
        <ele>47</ele>
        <time>2019-07-14T10:46:46Z</time>
      </trkpt>
      <trkpt lat="47.80343" lon="-3.65421">
        <ele>47</ele>
        <time>2019-07-14T10:46:47Z</time>
      </trkpt>
      <trkpt lat="47.80345" lon="-3.65428">
        <ele>46</ele>
        <time>2019-07-14T10:46:48Z</time>
      </trkpt>
      <trkpt lat="47.80347" lon="-3.65434">
        <ele>46</ele>
        <time>2019-07-14T10:46:49Z</time>
      </trkpt>
      <trkpt lat="47.80349" lon="-3.65441">
        <ele>46</ele>
        <time>2019-07-14T10:46:50Z</time>
      </trkpt>
      <trkpt lat="47.8035" lon="-3.65447">
        <ele>46</ele>
        <time>2019-07-14T10:46:51Z</time>
      </trkpt>
      <trkpt lat="47.80352" lon="-3.65455">
        <ele>46</ele>
        <time>2019-07-14T10:46:52Z</time>
      </trkpt>
      <trkpt lat="47.80354" lon="-3.65464">
        <ele>46</ele>
        <time>2019-07-14T10:46:53Z</time>
      </trkpt>
      <trkpt lat="47.80356" lon="-3.65472">
        <ele>46</ele>
        <time>2019-07-14T10:46:54Z</time>
      </trkpt>
      <trkpt lat="47.80358" lon="-3.65481">
        <ele>46</ele>
        <time>2019-07-14T10:46:55Z</time>
      </trkpt>
      <trkpt lat="47.80359" lon="-3.6549">
        <ele>46</ele>
        <time>2019-07-14T10:46:56Z</time>
      </trkpt>
      <trkpt lat="47.80361" lon="-3.655">
        <ele>45</ele>
        <time>2019-07-14T10:46:57Z</time>
      </trkpt>
      <trkpt lat="47.80362" lon="-3.65509">
        <ele>45</ele>
        <time>2019-07-14T10:46:58Z</time>
      </trkpt>
      <trkpt lat="47.80364" lon="-3.65517">
        <ele>45</ele>
        <time>2019-07-14T10:46:59Z</time>
      </trkpt>
      <trkpt lat="47.80365" lon="-3.65525">
        <ele>45</ele>
        <time>2019-07-14T10:47:00Z</time>
      </trkpt>
      <trkpt lat="47.80367" lon="-3.65533">
        <ele>45</ele>
        <time>2019-07-14T10:47:01Z</time>
      </trkpt>
      <trkpt lat="47.80369" lon="-3.65541">
        <ele>45</ele>
        <time>2019-07-14T10:47:02Z</time>
      </trkpt>
      <trkpt lat="47.8037" lon="-3.65549">
        <ele>45</ele>
        <time>2019-07-14T10:47:03Z</time>
      </trkpt>
      <trkpt lat="47.80372" lon="-3.65555">
        <ele>45</ele>
        <time>2019-07-14T10:47:04Z</time>
      </trkpt>
      <trkpt lat="47.80374" lon="-3.65562">
        <ele>44</ele>
        <time>2019-07-14T10:47:05Z</time>
      </trkpt>
      <trkpt lat="47.80376" lon="-3.65569">
        <ele>44</ele>
        <time>2019-07-14T10:47:06Z</time>
      </trkpt>
      <trkpt lat="47.8038" lon="-3.65577">
        <ele>44</ele>
        <time>2019-07-14T10:47:07Z</time>
      </trkpt>
      <trkpt lat="47.80384" lon="-3.65584">
        <ele>44</ele>
        <time>2019-07-14T10:47:08Z</time>
      </trkpt>
      <trkpt lat="47.80387" lon="-3.6559">
        <ele>44</ele>
        <time>2019-07-14T10:47:09Z</time>
      </trkpt>
      <trkpt lat="47.80391" lon="-3.65594">
        <ele>44</ele>
        <time>2019-07-14T10:47:10Z</time>
      </trkpt>
      <trkpt lat="47.80394" lon="-3.65597">
        <ele>44</ele>
        <time>2019-07-14T10:47:11Z</time>
      </trkpt>
      <trkpt lat="47.80396" lon="-3.65598">
        <ele>44</ele>
        <time>2019-07-14T10:47:12Z</time>
      </trkpt>
      <trkpt lat="47.80399" lon="-3.656">
        <ele>44</ele>
        <time>2019-07-14T10:47:13Z</time>
      </trkpt>
      <trkpt lat="47.80401" lon="-3.65603">
        <ele>44</ele>
        <time>2019-07-14T10:47:14Z</time>
      </trkpt>
      <trkpt lat="47.80404" lon="-3.65605">
        <ele>44</ele>
        <time>2019-07-14T10:47:15Z</time>
      </trkpt>
      <trkpt lat="47.80405" lon="-3.65608">
        <ele>44</ele>
        <time>2019-07-14T10:47:16Z</time>
      </trkpt>
      <trkpt lat="47.80408" lon="-3.65612">
        <ele>44</ele>
        <time>2019-07-14T10:47:17Z</time>
      </trkpt>
      <trkpt lat="47.8041" lon="-3.65615">
        <ele>44</ele>
        <time>2019-07-14T10:47:18Z</time>
      </trkpt>
      <trkpt lat="47.80411" lon="-3.65618">
        <ele>44</ele>
        <time>2019-07-14T10:47:19Z</time>
      </trkpt>
      <trkpt lat="47.80414" lon="-3.65622">
        <ele>44</ele>
        <time>2019-07-14T10:47:20Z</time>
      </trkpt>
      <trkpt lat="47.80415" lon="-3.65626">
        <ele>44</ele>
        <time>2019-07-14T10:47:21Z</time>
      </trkpt>
      <trkpt lat="47.80417" lon="-3.65631">
        <ele>44</ele>
        <time>2019-07-14T10:47:22Z</time>
      </trkpt>
      <trkpt lat="47.80418" lon="-3.65635">
        <ele>44</ele>
        <time>2019-07-14T10:47:23Z</time>
      </trkpt>
      <trkpt lat="47.80419" lon="-3.65638">
        <ele>44</ele>
        <time>2019-07-14T10:47:24Z</time>
      </trkpt>
      <trkpt lat="47.80421" lon="-3.65641">
        <ele>44</ele>
        <time>2019-07-14T10:47:25Z</time>
      </trkpt>
      <trkpt lat="47.80422" lon="-3.65644">
        <ele>44</ele>
        <time>2019-07-14T10:47:26Z</time>
      </trkpt>
      <trkpt lat="47.80424" lon="-3.65645">
        <ele>44</ele>
        <time>2019-07-14T10:47:27Z</time>
      </trkpt>
      <trkpt lat="47.80424" lon="-3.65647">
        <ele>44</ele>
        <time>2019-07-14T10:47:28Z</time>
      </trkpt>
      <trkpt lat="47.80425" lon="-3.65648">
        <ele>44</ele>
        <time>2019-07-14T10:47:29Z</time>
      </trkpt>
      <trkpt lat="47.80426" lon="-3.65648">
        <ele>44</ele>
        <time>2019-07-14T10:47:30Z</time>
      </trkpt>
      <trkpt lat="47.80427" lon="-3.65649">
        <ele>44</ele>
        <time>2019-07-14T10:47:31Z</time>
      </trkpt>
      <trkpt lat="47.80427" lon="-3.65649">
        <ele>44</ele>
        <time>2019-07-14T10:47:32Z</time>
      </trkpt>
      <trkpt lat="47.80437" lon="-3.65668">
        <ele>50</ele>
        <time>2019-07-14T10:47:33Z</time>
      </trkpt>
      <trkpt lat="47.80438" lon="-3.65669">
        <ele>50</ele>
        <time>2019-07-14T10:47:34Z</time>
      </trkpt>
      <trkpt lat="47.80439" lon="-3.65671">
        <ele>50</ele>
        <time>2019-07-14T10:47:35Z</time>
      </trkpt>
      <trkpt lat="47.8044" lon="-3.65674">
        <ele>50</ele>
        <time>2019-07-14T10:47:36Z</time>
      </trkpt>
      <trkpt lat="47.80442" lon="-3.65676">
        <ele>50</ele>
        <time>2019-07-14T10:47:37Z</time>
      </trkpt>
      <trkpt lat="47.80444" lon="-3.65678">
        <ele>50</ele>
        <time>2019-07-14T10:47:38Z</time>
      </trkpt>
      <trkpt lat="47.80446" lon="-3.6568">
        <ele>50</ele>
        <time>2019-07-14T10:47:39Z</time>
      </trkpt>
      <trkpt lat="47.80448" lon="-3.65684">
        <ele>50</ele>
        <time>2019-07-14T10:47:40Z</time>
      </trkpt>
      <trkpt lat="47.8045" lon="-3.65687">
        <ele>50</ele>
        <time>2019-07-14T10:47:41Z</time>
      </trkpt>
      <trkpt lat="47.80452" lon="-3.6569">
        <ele>50</ele>
        <time>2019-07-14T10:47:42Z</time>
      </trkpt>
      <trkpt lat="47.80454" lon="-3.65693">
        <ele>50</ele>
        <time>2019-07-14T10:47:43Z</time>
      </trkpt>
      <trkpt lat="47.80456" lon="-3.65696">
        <ele>50</ele>
        <time>2019-07-14T10:47:44Z</time>
      </trkpt>
      <trkpt lat="47.80458" lon="-3.65697">
        <ele>50</ele>
        <time>2019-07-14T10:47:45Z</time>
      </trkpt>
      <trkpt lat="47.80459" lon="-3.657">
        <ele>50</ele>
        <time>2019-07-14T10:47:46Z</time>
      </trkpt>
      <trkpt lat="47.80461" lon="-3.65701">
        <ele>50</ele>
        <time>2019-07-14T10:47:47Z</time>
      </trkpt>
      <trkpt lat="47.80462" lon="-3.65703">
        <ele>49</ele>
        <time>2019-07-14T10:47:48Z</time>
      </trkpt>
      <trkpt lat="47.80463" lon="-3.65705">
        <ele>49</ele>
        <time>2019-07-14T10:47:49Z</time>
      </trkpt>
      <trkpt lat="47.80464" lon="-3.65707">
        <ele>49</ele>
        <time>2019-07-14T10:47:50Z</time>
      </trkpt>
      <trkpt lat="47.80465" lon="-3.6571">
        <ele>49</ele>
        <time>2019-07-14T10:47:51Z</time>
      </trkpt>
      <trkpt lat="47.80466" lon="-3.65712">
        <ele>49</ele>
        <time>2019-07-14T10:47:52Z</time>
      </trkpt>
      <trkpt lat="47.80467" lon="-3.65714">
        <ele>49</ele>
        <time>2019-07-14T10:47:53Z</time>
      </trkpt>
      <trkpt lat="47.80467" lon="-3.65715">
        <ele>49</ele>
        <time>2019-07-14T10:47:54Z</time>
      </trkpt>
      <trkpt lat="47.80467" lon="-3.65716">
        <ele>49</ele>
        <time>2019-07-14T10:47:55Z</time>
      </trkpt>
      <trkpt lat="47.80467" lon="-3.65717">
        <ele>49</ele>
        <time>2019-07-14T10:47:56Z</time>
      </trkpt>
      <trkpt lat="47.80467" lon="-3.65718">
        <ele>50</ele>
        <time>2019-07-14T10:47:57Z</time>
      </trkpt>
      <trkpt lat="47.80467" lon="-3.65719">
        <ele>50</ele>
        <time>2019-07-14T10:47:58Z</time>
      </trkpt>
      <trkpt lat="47.80472" lon="-3.65736">
        <ele>53</ele>
        <time>2019-07-14T10:47:59Z</time>
      </trkpt>
      <trkpt lat="47.80473" lon="-3.65737">
        <ele>53</ele>
        <time>2019-07-14T10:48:00Z</time>
      </trkpt>
      <trkpt lat="47.80474" lon="-3.65739">
        <ele>53</ele>
        <time>2019-07-14T10:48:01Z</time>
      </trkpt>
      <trkpt lat="47.80476" lon="-3.6574">
        <ele>53</ele>
        <time>2019-07-14T10:48:02Z</time>
      </trkpt>
      <trkpt lat="47.80476" lon="-3.6574">
        <ele>53</ele>
        <time>2019-07-14T10:48:03Z</time>
      </trkpt>
      <trkpt lat="47.80477" lon="-3.65741">
        <ele>53</ele>
        <time>2019-07-14T10:48:04Z</time>
      </trkpt>
      <trkpt lat="47.80478" lon="-3.65752">
        <ele>54</ele>
        <time>2019-07-14T10:48:05Z</time>
      </trkpt>
      <trkpt lat="47.8048" lon="-3.65753">
        <ele>54</ele>
        <time>2019-07-14T10:48:06Z</time>
      </trkpt>
      <trkpt lat="47.80481" lon="-3.65753">
        <ele>54</ele>
        <time>2019-07-14T10:48:07Z</time>
      </trkpt>
      <trkpt lat="47.80482" lon="-3.65756">
        <ele>54</ele>
        <time>2019-07-14T10:48:08Z</time>
      </trkpt>
      <trkpt lat="47.80484" lon="-3.65757">
        <ele>54</ele>
        <time>2019-07-14T10:48:09Z</time>
      </trkpt>
      <trkpt lat="47.80486" lon="-3.6576">
        <ele>54</ele>
        <time>2019-07-14T10:48:10Z</time>
      </trkpt>
      <trkpt lat="47.80489" lon="-3.65762">
        <ele>54</ele>
        <time>2019-07-14T10:48:11Z</time>
      </trkpt>
      <trkpt lat="47.80492" lon="-3.65765">
        <ele>55</ele>
        <time>2019-07-14T10:48:12Z</time>
      </trkpt>
      <trkpt lat="47.80495" lon="-3.65767">
        <ele>55</ele>
        <time>2019-07-14T10:48:13Z</time>
      </trkpt>
      <trkpt lat="47.80499" lon="-3.65771">
        <ele>55</ele>
        <time>2019-07-14T10:48:14Z</time>
      </trkpt>
      <trkpt lat="47.80502" lon="-3.65774">
        <ele>55</ele>
        <time>2019-07-14T10:48:15Z</time>
      </trkpt>
      <trkpt lat="47.80504" lon="-3.65778">
        <ele>55</ele>
        <time>2019-07-14T10:48:16Z</time>
      </trkpt>
      <trkpt lat="47.80507" lon="-3.65781">
        <ele>55</ele>
        <time>2019-07-14T10:48:17Z</time>
      </trkpt>
      <trkpt lat="47.8051" lon="-3.65784">
        <ele>55</ele>
        <time>2019-07-14T10:48:18Z</time>
      </trkpt>
      <trkpt lat="47.80513" lon="-3.65788">
        <ele>55</ele>
        <time>2019-07-14T10:48:19Z</time>
      </trkpt>
      <trkpt lat="47.80516" lon="-3.65792">
        <ele>55</ele>
        <time>2019-07-14T10:48:20Z</time>
      </trkpt>
      <trkpt lat="47.8052" lon="-3.65797">
        <ele>55</ele>
        <time>2019-07-14T10:48:21Z</time>
      </trkpt>
      <trkpt lat="47.80522" lon="-3.65802">
        <ele>55</ele>
        <time>2019-07-14T10:48:22Z</time>
      </trkpt>
      <trkpt lat="47.80525" lon="-3.65806">
        <ele>55</ele>
        <time>2019-07-14T10:48:23Z</time>
      </trkpt>
      <trkpt lat="47.80528" lon="-3.65811">
        <ele>55</ele>
        <time>2019-07-14T10:48:24Z</time>
      </trkpt>
      <trkpt lat="47.80531" lon="-3.65817">
        <ele>55</ele>
        <time>2019-07-14T10:48:25Z</time>
      </trkpt>
      <trkpt lat="47.80533" lon="-3.65822">
        <ele>55</ele>
        <time>2019-07-14T10:48:26Z</time>
      </trkpt>
      <trkpt lat="47.80536" lon="-3.65827">
        <ele>55</ele>
        <time>2019-07-14T10:48:27Z</time>
      </trkpt>
      <trkpt lat="47.80539" lon="-3.65832">
        <ele>55</ele>
        <time>2019-07-14T10:48:28Z</time>
      </trkpt>
      <trkpt lat="47.80543" lon="-3.65837">
        <ele>55</ele>
        <time>2019-07-14T10:48:29Z</time>
      </trkpt>
      <trkpt lat="47.80546" lon="-3.65842">
        <ele>55</ele>
        <time>2019-07-14T10:48:30Z</time>
      </trkpt>
      <trkpt lat="47.8055" lon="-3.65846">
        <ele>55</ele>
        <time>2019-07-14T10:48:31Z</time>
      </trkpt>
      <trkpt lat="47.80553" lon="-3.65851">
        <ele>55</ele>
        <time>2019-07-14T10:48:32Z</time>
      </trkpt>
      <trkpt lat="47.80557" lon="-3.65856">
        <ele>55</ele>
        <time>2019-07-14T10:48:33Z</time>
      </trkpt>
      <trkpt lat="47.8056" lon="-3.6586">
        <ele>55</ele>
        <time>2019-07-14T10:48:34Z</time>
      </trkpt>
      <trkpt lat="47.80564" lon="-3.65865">
        <ele>55</ele>
        <time>2019-07-14T10:48:35Z</time>
      </trkpt>
      <trkpt lat="47.80568" lon="-3.65871">
        <ele>55</ele>
        <time>2019-07-14T10:48:36Z</time>
      </trkpt>
      <trkpt lat="47.80572" lon="-3.65878">
        <ele>55</ele>
        <time>2019-07-14T10:48:37Z</time>
      </trkpt>
      <trkpt lat="47.80575" lon="-3.65885">
        <ele>55</ele>
        <time>2019-07-14T10:48:38Z</time>
      </trkpt>
      <trkpt lat="47.80579" lon="-3.65891">
        <ele>54</ele>
        <time>2019-07-14T10:48:39Z</time>
      </trkpt>
      <trkpt lat="47.80583" lon="-3.65897">
        <ele>54</ele>
        <time>2019-07-14T10:48:40Z</time>
      </trkpt>
      <trkpt lat="47.80587" lon="-3.65903">
        <ele>54</ele>
        <time>2019-07-14T10:48:41Z</time>
      </trkpt>
      <trkpt lat="47.80591" lon="-3.65909">
        <ele>54</ele>
        <time>2019-07-14T10:48:42Z</time>
      </trkpt>
      <trkpt lat="47.80595" lon="-3.65916">
        <ele>54</ele>
        <time>2019-07-14T10:48:43Z</time>
      </trkpt>
      <trkpt lat="47.80598" lon="-3.65922">
        <ele>53</ele>
        <time>2019-07-14T10:48:44Z</time>
      </trkpt>
      <trkpt lat="47.80602" lon="-3.65929">
        <ele>53</ele>
        <time>2019-07-14T10:48:45Z</time>
      </trkpt>
      <trkpt lat="47.80605" lon="-3.65933">
        <ele>53</ele>
        <time>2019-07-14T10:48:46Z</time>
      </trkpt>
      <trkpt lat="47.80608" lon="-3.65938">
        <ele>53</ele>
        <time>2019-07-14T10:48:47Z</time>
      </trkpt>
      <trkpt lat="47.80612" lon="-3.65943">
        <ele>53</ele>
        <time>2019-07-14T10:48:48Z</time>
      </trkpt>
      <trkpt lat="47.80616" lon="-3.65949">
        <ele>52</ele>
        <time>2019-07-14T10:48:49Z</time>
      </trkpt>
      <trkpt lat="47.8062" lon="-3.65955">
        <ele>52</ele>
        <time>2019-07-14T10:48:50Z</time>
      </trkpt>
      <trkpt lat="47.80623" lon="-3.65962">
        <ele>52</ele>
        <time>2019-07-14T10:48:51Z</time>
      </trkpt>
      <trkpt lat="47.80627" lon="-3.65969">
        <ele>52</ele>
        <time>2019-07-14T10:48:52Z</time>
      </trkpt>
      <trkpt lat="47.8063" lon="-3.65977">
        <ele>51</ele>
        <time>2019-07-14T10:48:53Z</time>
      </trkpt>
      <trkpt lat="47.80634" lon="-3.65986">
        <ele>51</ele>
        <time>2019-07-14T10:48:54Z</time>
      </trkpt>
      <trkpt lat="47.80637" lon="-3.65994">
        <ele>51</ele>
        <time>2019-07-14T10:48:55Z</time>
      </trkpt>
      <trkpt lat="47.80641" lon="-3.66001">
        <ele>51</ele>
        <time>2019-07-14T10:48:56Z</time>
      </trkpt>
      <trkpt lat="47.80644" lon="-3.66007">
        <ele>51</ele>
        <time>2019-07-14T10:48:57Z</time>
      </trkpt>
      <trkpt lat="47.80648" lon="-3.66014">
        <ele>50</ele>
        <time>2019-07-14T10:48:58Z</time>
      </trkpt>
      <trkpt lat="47.80653" lon="-3.66021">
        <ele>50</ele>
        <time>2019-07-14T10:48:59Z</time>
      </trkpt>
      <trkpt lat="47.80657" lon="-3.66027">
        <ele>50</ele>
        <time>2019-07-14T10:49:00Z</time>
      </trkpt>
      <trkpt lat="47.80661" lon="-3.66033">
        <ele>50</ele>
        <time>2019-07-14T10:49:01Z</time>
      </trkpt>
      <trkpt lat="47.80665" lon="-3.6604">
        <ele>50</ele>
        <time>2019-07-14T10:49:02Z</time>
      </trkpt>
      <trkpt lat="47.80669" lon="-3.66046">
        <ele>50</ele>
        <time>2019-07-14T10:49:03Z</time>
      </trkpt>
      <trkpt lat="47.80673" lon="-3.66054">
        <ele>50</ele>
        <time>2019-07-14T10:49:04Z</time>
      </trkpt>
      <trkpt lat="47.80677" lon="-3.66061">
        <ele>50</ele>
        <time>2019-07-14T10:49:05Z</time>
      </trkpt>
      <trkpt lat="47.80681" lon="-3.66069">
        <ele>49</ele>
        <time>2019-07-14T10:49:06Z</time>
      </trkpt>
      <trkpt lat="47.80685" lon="-3.66077">
        <ele>49</ele>
        <time>2019-07-14T10:49:07Z</time>
      </trkpt>
      <trkpt lat="47.80689" lon="-3.66085">
        <ele>49</ele>
        <time>2019-07-14T10:49:08Z</time>
      </trkpt>
      <trkpt lat="47.80693" lon="-3.66093">
        <ele>49</ele>
        <time>2019-07-14T10:49:09Z</time>
      </trkpt>
      <trkpt lat="47.80696" lon="-3.66101">
        <ele>49</ele>
        <time>2019-07-14T10:49:10Z</time>
      </trkpt>
      <trkpt lat="47.807" lon="-3.6611">
        <ele>49</ele>
        <time>2019-07-14T10:49:11Z</time>
      </trkpt>
      <trkpt lat="47.80703" lon="-3.66119">
        <ele>49</ele>
        <time>2019-07-14T10:49:12Z</time>
      </trkpt>
      <trkpt lat="47.80707" lon="-3.66128">
        <ele>49</ele>
        <time>2019-07-14T10:49:13Z</time>
      </trkpt>
      <trkpt lat="47.80711" lon="-3.66137">
        <ele>49</ele>
        <time>2019-07-14T10:49:14Z</time>
      </trkpt>
      <trkpt lat="47.80714" lon="-3.66147">
        <ele>49</ele>
        <time>2019-07-14T10:49:15Z</time>
      </trkpt>
      <trkpt lat="47.80717" lon="-3.66157">
        <ele>49</ele>
        <time>2019-07-14T10:49:16Z</time>
      </trkpt>
      <trkpt lat="47.8072" lon="-3.66167">
        <ele>49</ele>
        <time>2019-07-14T10:49:17Z</time>
      </trkpt>
      <trkpt lat="47.80723" lon="-3.66176">
        <ele>49</ele>
        <time>2019-07-14T10:49:18Z</time>
      </trkpt>
      <trkpt lat="47.80727" lon="-3.66186">
        <ele>49</ele>
        <time>2019-07-14T10:49:19Z</time>
      </trkpt>
      <trkpt lat="47.8073" lon="-3.66194">
        <ele>49</ele>
        <time>2019-07-14T10:49:20Z</time>
      </trkpt>
      <trkpt lat="47.80733" lon="-3.66202">
        <ele>49</ele>
        <time>2019-07-14T10:49:21Z</time>
      </trkpt>
      <trkpt lat="47.80736" lon="-3.6621">
        <ele>49</ele>
        <time>2019-07-14T10:49:22Z</time>
      </trkpt>
      <trkpt lat="47.80739" lon="-3.66218">
        <ele>49</ele>
        <time>2019-07-14T10:49:23Z</time>
      </trkpt>
      <trkpt lat="47.80743" lon="-3.66225">
        <ele>49</ele>
        <time>2019-07-14T10:49:24Z</time>
      </trkpt>
      <trkpt lat="47.80747" lon="-3.66232">
        <ele>49</ele>
        <time>2019-07-14T10:49:25Z</time>
      </trkpt>
      <trkpt lat="47.80752" lon="-3.66238">
        <ele>49</ele>
        <time>2019-07-14T10:49:26Z</time>
      </trkpt>
      <trkpt lat="47.80755" lon="-3.66242">
        <ele>49</ele>
        <time>2019-07-14T10:49:27Z</time>
      </trkpt>
      <trkpt lat="47.80758" lon="-3.66245">
        <ele>49</ele>
        <time>2019-07-14T10:49:28Z</time>
      </trkpt>
      <trkpt lat="47.8076" lon="-3.66247">
        <ele>49</ele>
        <time>2019-07-14T10:49:29Z</time>
      </trkpt>
      <trkpt lat="47.80762" lon="-3.66249">
        <ele>49</ele>
        <time>2019-07-14T10:49:30Z</time>
      </trkpt>
      <trkpt lat="47.80765" lon="-3.66252">
        <ele>49</ele>
        <time>2019-07-14T10:49:31Z</time>
      </trkpt>
      <trkpt lat="47.80769" lon="-3.66256">
        <ele>49</ele>
        <time>2019-07-14T10:49:32Z</time>
      </trkpt>
      <trkpt lat="47.80773" lon="-3.6626">
        <ele>49</ele>
        <time>2019-07-14T10:49:33Z</time>
      </trkpt>
      <trkpt lat="47.80779" lon="-3.66263">
        <ele>49</ele>
        <time>2019-07-14T10:49:34Z</time>
      </trkpt>
      <trkpt lat="47.80784" lon="-3.66265">
        <ele>48</ele>
        <time>2019-07-14T10:49:35Z</time>
      </trkpt>
      <trkpt lat="47.80789" lon="-3.66268">
        <ele>48</ele>
        <time>2019-07-14T10:49:36Z</time>
      </trkpt>
      <trkpt lat="47.80794" lon="-3.66271">
        <ele>48</ele>
        <time>2019-07-14T10:49:37Z</time>
      </trkpt>
      <trkpt lat="47.80799" lon="-3.66276">
        <ele>48</ele>
        <time>2019-07-14T10:49:38Z</time>
      </trkpt>
      <trkpt lat="47.80805" lon="-3.66279">
        <ele>48</ele>
        <time>2019-07-14T10:49:39Z</time>
      </trkpt>
      <trkpt lat="47.8081" lon="-3.66283">
        <ele>47</ele>
        <time>2019-07-14T10:49:40Z</time>
      </trkpt>
      <trkpt lat="47.80815" lon="-3.66287">
        <ele>47</ele>
        <time>2019-07-14T10:49:41Z</time>
      </trkpt>
      <trkpt lat="47.80821" lon="-3.6629">
        <ele>47</ele>
        <time>2019-07-14T10:49:42Z</time>
      </trkpt>
      <trkpt lat="47.80826" lon="-3.66294">
        <ele>47</ele>
        <time>2019-07-14T10:49:43Z</time>
      </trkpt>
      <trkpt lat="47.8083" lon="-3.66297">
        <ele>47</ele>
        <time>2019-07-14T10:49:44Z</time>
      </trkpt>
      <trkpt lat="47.80835" lon="-3.663">
        <ele>47</ele>
        <time>2019-07-14T10:49:45Z</time>
      </trkpt>
      <trkpt lat="47.8084" lon="-3.66304">
        <ele>47</ele>
        <time>2019-07-14T10:49:46Z</time>
      </trkpt>
      <trkpt lat="47.80845" lon="-3.66307">
        <ele>47</ele>
        <time>2019-07-14T10:49:47Z</time>
      </trkpt>
      <trkpt lat="47.80851" lon="-3.66311">
        <ele>47</ele>
        <time>2019-07-14T10:49:48Z</time>
      </trkpt>
      <trkpt lat="47.80856" lon="-3.66314">
        <ele>47</ele>
        <time>2019-07-14T10:49:49Z</time>
      </trkpt>
      <trkpt lat="47.80861" lon="-3.66318">
        <ele>47</ele>
        <time>2019-07-14T10:49:50Z</time>
      </trkpt>
      <trkpt lat="47.80866" lon="-3.66323">
        <ele>47</ele>
        <time>2019-07-14T10:49:51Z</time>
      </trkpt>
      <trkpt lat="47.8087" lon="-3.66327">
        <ele>47</ele>
        <time>2019-07-14T10:49:52Z</time>
      </trkpt>
      <trkpt lat="47.80874" lon="-3.6633">
        <ele>47</ele>
        <time>2019-07-14T10:49:53Z</time>
      </trkpt>
      <trkpt lat="47.80878" lon="-3.66333">
        <ele>47</ele>
        <time>2019-07-14T10:49:54Z</time>
      </trkpt>
      <trkpt lat="47.80882" lon="-3.66336">
        <ele>47</ele>
        <time>2019-07-14T10:49:55Z</time>
      </trkpt>
      <trkpt lat="47.80886" lon="-3.6634">
        <ele>47</ele>
        <time>2019-07-14T10:49:56Z</time>
      </trkpt>
      <trkpt lat="47.80891" lon="-3.66344">
        <ele>47</ele>
        <time>2019-07-14T10:49:57Z</time>
      </trkpt>
      <trkpt lat="47.80895" lon="-3.66349">
        <ele>47</ele>
        <time>2019-07-14T10:49:58Z</time>
      </trkpt>
      <trkpt lat="47.809" lon="-3.66354">
        <ele>47</ele>
        <time>2019-07-14T10:49:59Z</time>
      </trkpt>
      <trkpt lat="47.80905" lon="-3.66359">
        <ele>48</ele>
        <time>2019-07-14T10:50:00Z</time>
      </trkpt>
      <trkpt lat="47.8091" lon="-3.66364">
        <ele>48</ele>
        <time>2019-07-14T10:50:01Z</time>
      </trkpt>
      <trkpt lat="47.80915" lon="-3.66369">
        <ele>48</ele>
        <time>2019-07-14T10:50:02Z</time>
      </trkpt>
      <trkpt lat="47.80921" lon="-3.66373">
        <ele>48</ele>
        <time>2019-07-14T10:50:03Z</time>
      </trkpt>
      <trkpt lat="47.80926" lon="-3.66377">
        <ele>48</ele>
        <time>2019-07-14T10:50:04Z</time>
      </trkpt>
      <trkpt lat="47.80931" lon="-3.66381">
        <ele>48</ele>
        <time>2019-07-14T10:50:05Z</time>
      </trkpt>
      <trkpt lat="47.80935" lon="-3.66385">
        <ele>48</ele>
        <time>2019-07-14T10:50:06Z</time>
      </trkpt>
      <trkpt lat="47.80939" lon="-3.66389">
        <ele>48</ele>
        <time>2019-07-14T10:50:07Z</time>
      </trkpt>
      <trkpt lat="47.80943" lon="-3.66394">
        <ele>48</ele>
        <time>2019-07-14T10:50:08Z</time>
      </trkpt>
      <trkpt lat="47.80948" lon="-3.66398">
        <ele>48</ele>
        <time>2019-07-14T10:50:09Z</time>
      </trkpt>
      <trkpt lat="47.80952" lon="-3.66403">
        <ele>48</ele>
        <time>2019-07-14T10:50:10Z</time>
      </trkpt>
      <trkpt lat="47.80955" lon="-3.66407">
        <ele>48</ele>
        <time>2019-07-14T10:50:11Z</time>
      </trkpt>
      <trkpt lat="47.80959" lon="-3.66412">
        <ele>48</ele>
        <time>2019-07-14T10:50:12Z</time>
      </trkpt>
      <trkpt lat="47.80962" lon="-3.66416">
        <ele>49</ele>
        <time>2019-07-14T10:50:13Z</time>
      </trkpt>
      <trkpt lat="47.80967" lon="-3.6642">
        <ele>49</ele>
        <time>2019-07-14T10:50:14Z</time>
      </trkpt>
      <trkpt lat="47.80972" lon="-3.66425">
        <ele>49</ele>
        <time>2019-07-14T10:50:15Z</time>
      </trkpt>
      <trkpt lat="47.80977" lon="-3.6643">
        <ele>49</ele>
        <time>2019-07-14T10:50:16Z</time>
      </trkpt>
      <trkpt lat="47.80982" lon="-3.66435">
        <ele>49</ele>
        <time>2019-07-14T10:50:17Z</time>
      </trkpt>
      <trkpt lat="47.80987" lon="-3.6644">
        <ele>49</ele>
        <time>2019-07-14T10:50:18Z</time>
      </trkpt>
      <trkpt lat="47.80991" lon="-3.66446">
        <ele>49</ele>
        <time>2019-07-14T10:50:19Z</time>
      </trkpt>
      <trkpt lat="47.80993" lon="-3.66452">
        <ele>49</ele>
        <time>2019-07-14T10:50:20Z</time>
      </trkpt>
      <trkpt lat="47.80995" lon="-3.66459">
        <ele>49</ele>
        <time>2019-07-14T10:50:21Z</time>
      </trkpt>
      <trkpt lat="47.80996" lon="-3.66466">
        <ele>49</ele>
        <time>2019-07-14T10:50:22Z</time>
      </trkpt>
      <trkpt lat="47.80998" lon="-3.66474">
        <ele>49</ele>
        <time>2019-07-14T10:50:23Z</time>
      </trkpt>
      <trkpt lat="47.80998" lon="-3.66482">
        <ele>49</ele>
        <time>2019-07-14T10:50:24Z</time>
      </trkpt>
      <trkpt lat="47.80998" lon="-3.66491">
        <ele>49</ele>
        <time>2019-07-14T10:50:25Z</time>
      </trkpt>
      <trkpt lat="47.80998" lon="-3.66499">
        <ele>49</ele>
        <time>2019-07-14T10:50:26Z</time>
      </trkpt>
      <trkpt lat="47.80997" lon="-3.66506">
        <ele>49</ele>
        <time>2019-07-14T10:50:27Z</time>
      </trkpt>
      <trkpt lat="47.80997" lon="-3.66514">
        <ele>49</ele>
        <time>2019-07-14T10:50:28Z</time>
      </trkpt>
      <trkpt lat="47.80996" lon="-3.66521">
        <ele>49</ele>
        <time>2019-07-14T10:50:29Z</time>
      </trkpt>
      <trkpt lat="47.80995" lon="-3.66529">
        <ele>49</ele>
        <time>2019-07-14T10:50:30Z</time>
      </trkpt>
      <trkpt lat="47.80995" lon="-3.66537">
        <ele>49</ele>
        <time>2019-07-14T10:50:31Z</time>
      </trkpt>
      <trkpt lat="47.80994" lon="-3.66546">
        <ele>49</ele>
        <time>2019-07-14T10:50:32Z</time>
      </trkpt>
      <trkpt lat="47.80993" lon="-3.66554">
        <ele>49</ele>
        <time>2019-07-14T10:50:33Z</time>
      </trkpt>
      <trkpt lat="47.80992" lon="-3.66562">
        <ele>49</ele>
        <time>2019-07-14T10:50:34Z</time>
      </trkpt>
      <trkpt lat="47.80992" lon="-3.66571">
        <ele>49</ele>
        <time>2019-07-14T10:50:35Z</time>
      </trkpt>
      <trkpt lat="47.80991" lon="-3.66579">
        <ele>49</ele>
        <time>2019-07-14T10:50:36Z</time>
      </trkpt>
      <trkpt lat="47.8099" lon="-3.66588">
        <ele>49</ele>
        <time>2019-07-14T10:50:37Z</time>
      </trkpt>
      <trkpt lat="47.8099" lon="-3.66597">
        <ele>49</ele>
        <time>2019-07-14T10:50:38Z</time>
      </trkpt>
      <trkpt lat="47.8099" lon="-3.66606">
        <ele>49</ele>
        <time>2019-07-14T10:50:39Z</time>
      </trkpt>
      <trkpt lat="47.80989" lon="-3.66615">
        <ele>49</ele>
        <time>2019-07-14T10:50:40Z</time>
      </trkpt>
      <trkpt lat="47.80989" lon="-3.66624">
        <ele>49</ele>
        <time>2019-07-14T10:50:41Z</time>
      </trkpt>
      <trkpt lat="47.80988" lon="-3.66633">
        <ele>48</ele>
        <time>2019-07-14T10:50:42Z</time>
      </trkpt>
      <trkpt lat="47.80987" lon="-3.66642">
        <ele>48</ele>
        <time>2019-07-14T10:50:43Z</time>
      </trkpt>
      <trkpt lat="47.80986" lon="-3.66651">
        <ele>48</ele>
        <time>2019-07-14T10:50:44Z</time>
      </trkpt>
      <trkpt lat="47.80985" lon="-3.6666">
        <ele>48</ele>
        <time>2019-07-14T10:50:45Z</time>
      </trkpt>
      <trkpt lat="47.80984" lon="-3.66669">
        <ele>48</ele>
        <time>2019-07-14T10:50:46Z</time>
      </trkpt>
      <trkpt lat="47.80983" lon="-3.66679">
        <ele>48</ele>
        <time>2019-07-14T10:50:47Z</time>
      </trkpt>
      <trkpt lat="47.80982" lon="-3.66689">
        <ele>48</ele>
        <time>2019-07-14T10:50:48Z</time>
      </trkpt>
      <trkpt lat="47.8098" lon="-3.66699">
        <ele>48</ele>
        <time>2019-07-14T10:50:49Z</time>
      </trkpt>
      <trkpt lat="47.8098" lon="-3.66709">
        <ele>48</ele>
        <time>2019-07-14T10:50:50Z</time>
      </trkpt>
      <trkpt lat="47.80979" lon="-3.66719">
        <ele>48</ele>
        <time>2019-07-14T10:50:51Z</time>
      </trkpt>
      <trkpt lat="47.80976" lon="-3.66729">
        <ele>48</ele>
        <time>2019-07-14T10:50:52Z</time>
      </trkpt>
      <trkpt lat="47.80975" lon="-3.66739">
        <ele>48</ele>
        <time>2019-07-14T10:50:53Z</time>
      </trkpt>
      <trkpt lat="47.80974" lon="-3.6675">
        <ele>48</ele>
        <time>2019-07-14T10:50:54Z</time>
      </trkpt>
      <trkpt lat="47.80973" lon="-3.6676">
        <ele>47</ele>
        <time>2019-07-14T10:50:55Z</time>
      </trkpt>
      <trkpt lat="47.80972" lon="-3.6677">
        <ele>47</ele>
        <time>2019-07-14T10:50:56Z</time>
      </trkpt>
      <trkpt lat="47.8097" lon="-3.6678">
        <ele>47</ele>
        <time>2019-07-14T10:50:57Z</time>
      </trkpt>
      <trkpt lat="47.80969" lon="-3.66789">
        <ele>47</ele>
        <time>2019-07-14T10:50:58Z</time>
      </trkpt>
      <trkpt lat="47.80968" lon="-3.66798">
        <ele>47</ele>
        <time>2019-07-14T10:50:59Z</time>
      </trkpt>
      <trkpt lat="47.80967" lon="-3.66806">
        <ele>47</ele>
        <time>2019-07-14T10:51:00Z</time>
      </trkpt>
      <trkpt lat="47.80966" lon="-3.66814">
        <ele>47</ele>
        <time>2019-07-14T10:51:01Z</time>
      </trkpt>
      <trkpt lat="47.80965" lon="-3.66823">
        <ele>47</ele>
        <time>2019-07-14T10:51:02Z</time>
      </trkpt>
      <trkpt lat="47.80964" lon="-3.66832">
        <ele>46</ele>
        <time>2019-07-14T10:51:03Z</time>
      </trkpt>
      <trkpt lat="47.80963" lon="-3.66841">
        <ele>46</ele>
        <time>2019-07-14T10:51:04Z</time>
      </trkpt>
      <trkpt lat="47.80963" lon="-3.6685">
        <ele>46</ele>
        <time>2019-07-14T10:51:05Z</time>
      </trkpt>
      <trkpt lat="47.80962" lon="-3.66859">
        <ele>46</ele>
        <time>2019-07-14T10:51:06Z</time>
      </trkpt>
      <trkpt lat="47.80961" lon="-3.66869">
        <ele>46</ele>
        <time>2019-07-14T10:51:07Z</time>
      </trkpt>
      <trkpt lat="47.8096" lon="-3.66878">
        <ele>46</ele>
        <time>2019-07-14T10:51:08Z</time>
      </trkpt>
      <trkpt lat="47.8096" lon="-3.66887">
        <ele>46</ele>
        <time>2019-07-14T10:51:09Z</time>
      </trkpt>
      <trkpt lat="47.80959" lon="-3.66896">
        <ele>46</ele>
        <time>2019-07-14T10:51:10Z</time>
      </trkpt>
      <trkpt lat="47.80959" lon="-3.66906">
        <ele>46</ele>
        <time>2019-07-14T10:51:11Z</time>
      </trkpt>
      <trkpt lat="47.80958" lon="-3.66915">
        <ele>46</ele>
        <time>2019-07-14T10:51:12Z</time>
      </trkpt>
      <trkpt lat="47.80957" lon="-3.66924">
        <ele>45</ele>
        <time>2019-07-14T10:51:13Z</time>
      </trkpt>
      <trkpt lat="47.80957" lon="-3.66934">
        <ele>45</ele>
        <time>2019-07-14T10:51:14Z</time>
      </trkpt>
      <trkpt lat="47.80956" lon="-3.66943">
        <ele>45</ele>
        <time>2019-07-14T10:51:15Z</time>
      </trkpt>
      <trkpt lat="47.80956" lon="-3.66952">
        <ele>45</ele>
        <time>2019-07-14T10:51:16Z</time>
      </trkpt>
      <trkpt lat="47.80955" lon="-3.66962">
        <ele>45</ele>
        <time>2019-07-14T10:51:17Z</time>
      </trkpt>
      <trkpt lat="47.80954" lon="-3.66971">
        <ele>45</ele>
        <time>2019-07-14T10:51:18Z</time>
      </trkpt>
      <trkpt lat="47.80954" lon="-3.6698">
        <ele>45</ele>
        <time>2019-07-14T10:51:19Z</time>
      </trkpt>
      <trkpt lat="47.80953" lon="-3.6699">
        <ele>45</ele>
        <time>2019-07-14T10:51:20Z</time>
      </trkpt>
      <trkpt lat="47.80952" lon="-3.66999">
        <ele>44</ele>
        <time>2019-07-14T10:51:21Z</time>
      </trkpt>
      <trkpt lat="47.80952" lon="-3.67009">
        <ele>44</ele>
        <time>2019-07-14T10:51:22Z</time>
      </trkpt>
      <trkpt lat="47.80951" lon="-3.67018">
        <ele>44</ele>
        <time>2019-07-14T10:51:23Z</time>
      </trkpt>
      <trkpt lat="47.8095" lon="-3.67027">
        <ele>44</ele>
        <time>2019-07-14T10:51:24Z</time>
      </trkpt>
      <trkpt lat="47.80949" lon="-3.67036">
        <ele>44</ele>
        <time>2019-07-14T10:51:25Z</time>
      </trkpt>
      <trkpt lat="47.80949" lon="-3.67046">
        <ele>44</ele>
        <time>2019-07-14T10:51:26Z</time>
      </trkpt>
      <trkpt lat="47.80948" lon="-3.67055">
        <ele>44</ele>
        <time>2019-07-14T10:51:27Z</time>
      </trkpt>
      <trkpt lat="47.80947" lon="-3.67063">
        <ele>44</ele>
        <time>2019-07-14T10:51:28Z</time>
      </trkpt>
      <trkpt lat="47.80946" lon="-3.67072">
        <ele>44</ele>
        <time>2019-07-14T10:51:29Z</time>
      </trkpt>
      <trkpt lat="47.80945" lon="-3.67081">
        <ele>44</ele>
        <time>2019-07-14T10:51:30Z</time>
      </trkpt>
      <trkpt lat="47.80945" lon="-3.67091">
        <ele>44</ele>
        <time>2019-07-14T10:51:31Z</time>
      </trkpt>
      <trkpt lat="47.80944" lon="-3.67099">
        <ele>44</ele>
        <time>2019-07-14T10:51:32Z</time>
      </trkpt>
      <trkpt lat="47.80943" lon="-3.67108">
        <ele>44</ele>
        <time>2019-07-14T10:51:33Z</time>
      </trkpt>
      <trkpt lat="47.80942" lon="-3.67117">
        <ele>44</ele>
        <time>2019-07-14T10:51:34Z</time>
      </trkpt>
      <trkpt lat="47.80942" lon="-3.67126">
        <ele>44</ele>
        <time>2019-07-14T10:51:35Z</time>
      </trkpt>
      <trkpt lat="47.8094" lon="-3.67135">
        <ele>44</ele>
        <time>2019-07-14T10:51:36Z</time>
      </trkpt>
      <trkpt lat="47.80939" lon="-3.67144">
        <ele>44</ele>
        <time>2019-07-14T10:51:37Z</time>
      </trkpt>
      <trkpt lat="47.80939" lon="-3.67153">
        <ele>44</ele>
        <time>2019-07-14T10:51:38Z</time>
      </trkpt>
      <trkpt lat="47.80938" lon="-3.67162">
        <ele>44</ele>
        <time>2019-07-14T10:51:39Z</time>
      </trkpt>
      <trkpt lat="47.80938" lon="-3.67171">
        <ele>44</ele>
        <time>2019-07-14T10:51:40Z</time>
      </trkpt>
      <trkpt lat="47.80937" lon="-3.6718">
        <ele>44</ele>
        <time>2019-07-14T10:51:41Z</time>
      </trkpt>
      <trkpt lat="47.80935" lon="-3.67189">
        <ele>44</ele>
        <time>2019-07-14T10:51:42Z</time>
      </trkpt>
      <trkpt lat="47.80934" lon="-3.67197">
        <ele>44</ele>
        <time>2019-07-14T10:51:43Z</time>
      </trkpt>
      <trkpt lat="47.80933" lon="-3.67205">
        <ele>44</ele>
        <time>2019-07-14T10:51:44Z</time>
      </trkpt>
      <trkpt lat="47.80934" lon="-3.67213">
        <ele>44</ele>
        <time>2019-07-14T10:51:45Z</time>
      </trkpt>
      <trkpt lat="47.80935" lon="-3.6722">
        <ele>43</ele>
        <time>2019-07-14T10:51:46Z</time>
      </trkpt>
      <trkpt lat="47.80938" lon="-3.67225">
        <ele>44</ele>
        <time>2019-07-14T10:51:47Z</time>
      </trkpt>
      <trkpt lat="47.80942" lon="-3.67228">
        <ele>44</ele>
        <time>2019-07-14T10:51:48Z</time>
      </trkpt>
      <trkpt lat="47.80947" lon="-3.67229">
        <ele>44</ele>
        <time>2019-07-14T10:51:49Z</time>
      </trkpt>
      <trkpt lat="47.80952" lon="-3.67231">
        <ele>44</ele>
        <time>2019-07-14T10:51:50Z</time>
      </trkpt>
      <trkpt lat="47.80957" lon="-3.67232">
        <ele>44</ele>
        <time>2019-07-14T10:51:51Z</time>
      </trkpt>
      <trkpt lat="47.80963" lon="-3.67233">
        <ele>44</ele>
        <time>2019-07-14T10:51:52Z</time>
      </trkpt>
      <trkpt lat="47.80969" lon="-3.67235">
        <ele>44</ele>
        <time>2019-07-14T10:51:53Z</time>
      </trkpt>
      <trkpt lat="47.80975" lon="-3.67236">
        <ele>44</ele>
        <time>2019-07-14T10:51:54Z</time>
      </trkpt>
      <trkpt lat="47.8098" lon="-3.67238">
        <ele>44</ele>
        <time>2019-07-14T10:51:55Z</time>
      </trkpt>
      <trkpt lat="47.80981" lon="-3.67238">
        <ele>44</ele>
        <time>2019-07-14T10:51:56Z</time>
      </trkpt>
      <trkpt lat="47.80984" lon="-3.67238">
        <ele>45</ele>
        <time>2019-07-14T10:51:57Z</time>
      </trkpt>
      <trkpt lat="47.80988" lon="-3.6724">
        <ele>45</ele>
        <time>2019-07-14T10:51:58Z</time>
      </trkpt>
      <trkpt lat="47.80993" lon="-3.67242">
        <ele>45</ele>
        <time>2019-07-14T10:51:59Z</time>
      </trkpt>
      <trkpt lat="47.80999" lon="-3.67244">
        <ele>45</ele>
        <time>2019-07-14T10:52:00Z</time>
      </trkpt>
      <trkpt lat="47.81005" lon="-3.67247">
        <ele>46</ele>
        <time>2019-07-14T10:52:01Z</time>
      </trkpt>
      <trkpt lat="47.81011" lon="-3.67249">
        <ele>46</ele>
        <time>2019-07-14T10:52:02Z</time>
      </trkpt>
      <trkpt lat="47.81016" lon="-3.67251">
        <ele>46</ele>
        <time>2019-07-14T10:52:03Z</time>
      </trkpt>
      <trkpt lat="47.81022" lon="-3.67254">
        <ele>46</ele>
        <time>2019-07-14T10:52:04Z</time>
      </trkpt>
      <trkpt lat="47.81027" lon="-3.67256">
        <ele>46</ele>
        <time>2019-07-14T10:52:05Z</time>
      </trkpt>
      <trkpt lat="47.81033" lon="-3.67259">
        <ele>46</ele>
        <time>2019-07-14T10:52:06Z</time>
      </trkpt>
      <trkpt lat="47.81039" lon="-3.67261">
        <ele>47</ele>
        <time>2019-07-14T10:52:07Z</time>
      </trkpt>
      <trkpt lat="47.81044" lon="-3.67264">
        <ele>47</ele>
        <time>2019-07-14T10:52:08Z</time>
      </trkpt>
      <trkpt lat="47.81049" lon="-3.67267">
        <ele>47</ele>
        <time>2019-07-14T10:52:09Z</time>
      </trkpt>
      <trkpt lat="47.81054" lon="-3.67269">
        <ele>47</ele>
        <time>2019-07-14T10:52:10Z</time>
      </trkpt>
      <trkpt lat="47.81058" lon="-3.67272">
        <ele>47</ele>
        <time>2019-07-14T10:52:11Z</time>
      </trkpt>
      <trkpt lat="47.81061" lon="-3.67275">
        <ele>47</ele>
        <time>2019-07-14T10:52:12Z</time>
      </trkpt>
      <trkpt lat="47.81065" lon="-3.67278">
        <ele>47</ele>
        <time>2019-07-14T10:52:13Z</time>
      </trkpt>
      <trkpt lat="47.81069" lon="-3.6728">
        <ele>48</ele>
        <time>2019-07-14T10:52:14Z</time>
      </trkpt>
      <trkpt lat="47.81073" lon="-3.67282">
        <ele>48</ele>
        <time>2019-07-14T10:52:15Z</time>
      </trkpt>
      <trkpt lat="47.81076" lon="-3.67285">
        <ele>48</ele>
        <time>2019-07-14T10:52:16Z</time>
      </trkpt>
      <trkpt lat="47.81079" lon="-3.67287">
        <ele>48</ele>
        <time>2019-07-14T10:52:17Z</time>
      </trkpt>
      <trkpt lat="47.81081" lon="-3.67291">
        <ele>48</ele>
        <time>2019-07-14T10:52:18Z</time>
      </trkpt>
      <trkpt lat="47.81082" lon="-3.67296">
        <ele>48</ele>
        <time>2019-07-14T10:52:19Z</time>
      </trkpt>
      <trkpt lat="47.81082" lon="-3.67302">
        <ele>48</ele>
        <time>2019-07-14T10:52:20Z</time>
      </trkpt>
      <trkpt lat="47.81082" lon="-3.67309">
        <ele>48</ele>
        <time>2019-07-14T10:52:21Z</time>
      </trkpt>
      <trkpt lat="47.81081" lon="-3.67316">
        <ele>48</ele>
        <time>2019-07-14T10:52:22Z</time>
      </trkpt>
      <trkpt lat="47.8108" lon="-3.67324">
        <ele>48</ele>
        <time>2019-07-14T10:52:23Z</time>
      </trkpt>
      <trkpt lat="47.81079" lon="-3.67332">
        <ele>48</ele>
        <time>2019-07-14T10:52:24Z</time>
      </trkpt>
      <trkpt lat="47.81078" lon="-3.6734">
        <ele>48</ele>
        <time>2019-07-14T10:52:25Z</time>
      </trkpt>
      <trkpt lat="47.81078" lon="-3.67348">
        <ele>47</ele>
        <time>2019-07-14T10:52:26Z</time>
      </trkpt>
      <trkpt lat="47.81077" lon="-3.67357">
        <ele>47</ele>
        <time>2019-07-14T10:52:27Z</time>
      </trkpt>
      <trkpt lat="47.81076" lon="-3.67365">
        <ele>47</ele>
        <time>2019-07-14T10:52:28Z</time>
      </trkpt>
      <trkpt lat="47.81075" lon="-3.67372">
        <ele>47</ele>
        <time>2019-07-14T10:52:29Z</time>
      </trkpt>
      <trkpt lat="47.81074" lon="-3.6738">
        <ele>47</ele>
        <time>2019-07-14T10:52:30Z</time>
      </trkpt>
      <trkpt lat="47.81074" lon="-3.67385">
        <ele>47</ele>
        <time>2019-07-14T10:52:31Z</time>
      </trkpt>
      <trkpt lat="47.81076" lon="-3.67389">
        <ele>47</ele>
        <time>2019-07-14T10:52:32Z</time>
      </trkpt>
      <trkpt lat="47.81078" lon="-3.6739">
        <ele>47</ele>
        <time>2019-07-14T10:52:33Z</time>
      </trkpt>
      <trkpt lat="47.81082" lon="-3.67391">
        <ele>47</ele>
        <time>2019-07-14T10:52:34Z</time>
      </trkpt>
      <trkpt lat="47.81086" lon="-3.67391">
        <ele>47</ele>
        <time>2019-07-14T10:52:35Z</time>
      </trkpt>
      <trkpt lat="47.81091" lon="-3.67392">
        <ele>47</ele>
        <time>2019-07-14T10:52:36Z</time>
      </trkpt>
      <trkpt lat="47.81094" lon="-3.67394">
        <ele>47</ele>
        <time>2019-07-14T10:52:37Z</time>
      </trkpt>
      <trkpt lat="47.81099" lon="-3.67394">
        <ele>47</ele>
        <time>2019-07-14T10:52:38Z</time>
      </trkpt>
      <trkpt lat="47.81104" lon="-3.67394">
        <ele>47</ele>
        <time>2019-07-14T10:52:39Z</time>
      </trkpt>
      <trkpt lat="47.81108" lon="-3.67393">
        <ele>47</ele>
        <time>2019-07-14T10:52:40Z</time>
      </trkpt>
      <trkpt lat="47.81114" lon="-3.67393">
        <ele>47</ele>
        <time>2019-07-14T10:52:41Z</time>
      </trkpt>
      <trkpt lat="47.81121" lon="-3.67392">
        <ele>48</ele>
        <time>2019-07-14T10:52:42Z</time>
      </trkpt>
      <trkpt lat="47.81127" lon="-3.67391">
        <ele>48</ele>
        <time>2019-07-14T10:52:43Z</time>
      </trkpt>
      <trkpt lat="47.81133" lon="-3.67391">
        <ele>48</ele>
        <time>2019-07-14T10:52:44Z</time>
      </trkpt>
      <trkpt lat="47.81139" lon="-3.67394">
        <ele>48</ele>
        <time>2019-07-14T10:52:45Z</time>
      </trkpt>
      <trkpt lat="47.81144" lon="-3.67397">
        <ele>48</ele>
        <time>2019-07-14T10:52:46Z</time>
      </trkpt>
      <trkpt lat="47.81149" lon="-3.674">
        <ele>48</ele>
        <time>2019-07-14T10:52:47Z</time>
      </trkpt>
      <trkpt lat="47.81154" lon="-3.67403">
        <ele>48</ele>
        <time>2019-07-14T10:52:48Z</time>
      </trkpt>
      <trkpt lat="47.81159" lon="-3.67406">
        <ele>48</ele>
        <time>2019-07-14T10:52:49Z</time>
      </trkpt>
      <trkpt lat="47.81164" lon="-3.6741">
        <ele>48</ele>
        <time>2019-07-14T10:52:50Z</time>
      </trkpt>
      <trkpt lat="47.81169" lon="-3.67414">
        <ele>48</ele>
        <time>2019-07-14T10:52:51Z</time>
      </trkpt>
      <trkpt lat="47.81174" lon="-3.67418">
        <ele>48</ele>
        <time>2019-07-14T10:52:52Z</time>
      </trkpt>
      <trkpt lat="47.81179" lon="-3.67422">
        <ele>48</ele>
        <time>2019-07-14T10:52:53Z</time>
      </trkpt>
      <trkpt lat="47.81184" lon="-3.67426">
        <ele>48</ele>
        <time>2019-07-14T10:52:54Z</time>
      </trkpt>
      <trkpt lat="47.81189" lon="-3.67431">
        <ele>48</ele>
        <time>2019-07-14T10:52:55Z</time>
      </trkpt>
      <trkpt lat="47.81195" lon="-3.67435">
        <ele>48</ele>
        <time>2019-07-14T10:52:56Z</time>
      </trkpt>
      <trkpt lat="47.81199" lon="-3.67439">
        <ele>48</ele>
        <time>2019-07-14T10:52:57Z</time>
      </trkpt>
      <trkpt lat="47.81203" lon="-3.67443">
        <ele>48</ele>
        <time>2019-07-14T10:52:58Z</time>
      </trkpt>
      <trkpt lat="47.81206" lon="-3.67446">
        <ele>48</ele>
        <time>2019-07-14T10:52:59Z</time>
      </trkpt>
      <trkpt lat="47.81208" lon="-3.67449">
        <ele>48</ele>
        <time>2019-07-14T10:53:00Z</time>
      </trkpt>
      <trkpt lat="47.81209" lon="-3.67451">
        <ele>48</ele>
        <time>2019-07-14T10:53:01Z</time>
      </trkpt>
      <trkpt lat="47.81211" lon="-3.67453">
        <ele>48</ele>
        <time>2019-07-14T10:53:02Z</time>
      </trkpt>
      <trkpt lat="47.81212" lon="-3.67453">
        <ele>48</ele>
        <time>2019-07-14T10:53:03Z</time>
      </trkpt>
      <trkpt lat="47.81214" lon="-3.67452">
        <ele>48</ele>
        <time>2019-07-14T10:53:04Z</time>
      </trkpt>
      <trkpt lat="47.81216" lon="-3.6745">
        <ele>48</ele>
        <time>2019-07-14T10:53:05Z</time>
      </trkpt>
      <trkpt lat="47.81217" lon="-3.67447">
        <ele>48</ele>
        <time>2019-07-14T10:53:06Z</time>
      </trkpt>
      <trkpt lat="47.8122" lon="-3.67444">
        <ele>48</ele>
        <time>2019-07-14T10:53:07Z</time>
      </trkpt>
      <trkpt lat="47.81222" lon="-3.67441">
        <ele>48</ele>
        <time>2019-07-14T10:53:08Z</time>
      </trkpt>
      <trkpt lat="47.81224" lon="-3.67437">
        <ele>48</ele>
        <time>2019-07-14T10:53:09Z</time>
      </trkpt>
      <trkpt lat="47.81225" lon="-3.67433">
        <ele>48</ele>
        <time>2019-07-14T10:53:10Z</time>
      </trkpt>
      <trkpt lat="47.81227" lon="-3.6743">
        <ele>48</ele>
        <time>2019-07-14T10:53:11Z</time>
      </trkpt>
      <trkpt lat="47.81229" lon="-3.67427">
        <ele>48</ele>
        <time>2019-07-14T10:53:12Z</time>
      </trkpt>
      <trkpt lat="47.81232" lon="-3.67425">
        <ele>48</ele>
        <time>2019-07-14T10:53:13Z</time>
      </trkpt>
      <trkpt lat="47.81236" lon="-3.67426">
        <ele>48</ele>
        <time>2019-07-14T10:53:14Z</time>
      </trkpt>
      <trkpt lat="47.81239" lon="-3.67428">
        <ele>48</ele>
        <time>2019-07-14T10:53:15Z</time>
      </trkpt>
      <trkpt lat="47.81243" lon="-3.67433">
        <ele>48</ele>
        <time>2019-07-14T10:53:16Z</time>
      </trkpt>
      <trkpt lat="47.81248" lon="-3.67437">
        <ele>48</ele>
        <time>2019-07-14T10:53:17Z</time>
      </trkpt>
      <trkpt lat="47.81253" lon="-3.67442">
        <ele>48</ele>
        <time>2019-07-14T10:53:18Z</time>
      </trkpt>
      <trkpt lat="47.81258" lon="-3.67447">
        <ele>48</ele>
        <time>2019-07-14T10:53:19Z</time>
      </trkpt>
      <trkpt lat="47.81262" lon="-3.67452">
        <ele>48</ele>
        <time>2019-07-14T10:53:20Z</time>
      </trkpt>
      <trkpt lat="47.81267" lon="-3.67456">
        <ele>48</ele>
        <time>2019-07-14T10:53:21Z</time>
      </trkpt>
      <trkpt lat="47.81271" lon="-3.67461">
        <ele>47</ele>
        <time>2019-07-14T10:53:22Z</time>
      </trkpt>
      <trkpt lat="47.81277" lon="-3.67466">
        <ele>47</ele>
        <time>2019-07-14T10:53:23Z</time>
      </trkpt>
      <trkpt lat="47.81283" lon="-3.6747">
        <ele>47</ele>
        <time>2019-07-14T10:53:24Z</time>
      </trkpt>
      <trkpt lat="47.81289" lon="-3.67474">
        <ele>47</ele>
        <time>2019-07-14T10:53:25Z</time>
      </trkpt>
      <trkpt lat="47.81296" lon="-3.67477">
        <ele>47</ele>
        <time>2019-07-14T10:53:26Z</time>
      </trkpt>
      <trkpt lat="47.81304" lon="-3.67479">
        <ele>47</ele>
        <time>2019-07-14T10:53:27Z</time>
      </trkpt>
      <trkpt lat="47.81311" lon="-3.67482">
        <ele>47</ele>
        <time>2019-07-14T10:53:28Z</time>
      </trkpt>
      <trkpt lat="47.81319" lon="-3.67484">
        <ele>47</ele>
        <time>2019-07-14T10:53:29Z</time>
      </trkpt>
      <trkpt lat="47.81326" lon="-3.67485">
        <ele>47</ele>
        <time>2019-07-14T10:53:30Z</time>
      </trkpt>
      <trkpt lat="47.81333" lon="-3.67487">
        <ele>47</ele>
        <time>2019-07-14T10:53:31Z</time>
      </trkpt>
      <trkpt lat="47.8134" lon="-3.67488">
        <ele>47</ele>
        <time>2019-07-14T10:53:32Z</time>
      </trkpt>
      <trkpt lat="47.81345" lon="-3.67487">
        <ele>47</ele>
        <time>2019-07-14T10:53:33Z</time>
      </trkpt>
      <trkpt lat="47.81349" lon="-3.67488">
        <ele>47</ele>
        <time>2019-07-14T10:53:34Z</time>
      </trkpt>
      <trkpt lat="47.81351" lon="-3.67489">
        <ele>47</ele>
        <time>2019-07-14T10:53:35Z</time>
      </trkpt>
      <trkpt lat="47.81354" lon="-3.67489">
        <ele>47</ele>
        <time>2019-07-14T10:53:36Z</time>
      </trkpt>
      <trkpt lat="47.81357" lon="-3.67488">
        <ele>47</ele>
        <time>2019-07-14T10:53:37Z</time>
      </trkpt>
      <trkpt lat="47.81362" lon="-3.67488">
        <ele>47</ele>
        <time>2019-07-14T10:53:38Z</time>
      </trkpt>
      <trkpt lat="47.81367" lon="-3.67488">
        <ele>47</ele>
        <time>2019-07-14T10:53:39Z</time>
      </trkpt>
      <trkpt lat="47.81373" lon="-3.67489">
        <ele>47</ele>
        <time>2019-07-14T10:53:40Z</time>
      </trkpt>
      <trkpt lat="47.81377" lon="-3.67489">
        <ele>47</ele>
        <time>2019-07-14T10:53:41Z</time>
      </trkpt>
      <trkpt lat="47.81381" lon="-3.67489">
        <ele>47</ele>
        <time>2019-07-14T10:53:42Z</time>
      </trkpt>
      <trkpt lat="47.81384" lon="-3.67488">
        <ele>47</ele>
        <time>2019-07-14T10:53:43Z</time>
      </trkpt>
      <trkpt lat="47.81387" lon="-3.67485">
        <ele>47</ele>
        <time>2019-07-14T10:53:44Z</time>
      </trkpt>
      <trkpt lat="47.8139" lon="-3.67481">
        <ele>47</ele>
        <time>2019-07-14T10:53:45Z</time>
      </trkpt>
      <trkpt lat="47.81392" lon="-3.67475">
        <ele>47</ele>
        <time>2019-07-14T10:53:46Z</time>
      </trkpt>
      <trkpt lat="47.81394" lon="-3.67469">
        <ele>47</ele>
        <time>2019-07-14T10:53:47Z</time>
      </trkpt>
      <trkpt lat="47.81396" lon="-3.67462">
        <ele>47</ele>
        <time>2019-07-14T10:53:48Z</time>
      </trkpt>
      <trkpt lat="47.81398" lon="-3.67456">
        <ele>47</ele>
        <time>2019-07-14T10:53:49Z</time>
      </trkpt>
      <trkpt lat="47.81401" lon="-3.67448">
        <ele>47</ele>
        <time>2019-07-14T10:53:50Z</time>
      </trkpt>
      <trkpt lat="47.81405" lon="-3.6744">
        <ele>46</ele>
        <time>2019-07-14T10:53:51Z</time>
      </trkpt>
      <trkpt lat="47.81408" lon="-3.67434">
        <ele>46</ele>
        <time>2019-07-14T10:53:52Z</time>
      </trkpt>
      <trkpt lat="47.81411" lon="-3.67429">
        <ele>46</ele>
        <time>2019-07-14T10:53:53Z</time>
      </trkpt>
      <trkpt lat="47.81415" lon="-3.67423">
        <ele>46</ele>
        <time>2019-07-14T10:53:54Z</time>
      </trkpt>
      <trkpt lat="47.81419" lon="-3.67417">
        <ele>46</ele>
        <time>2019-07-14T10:53:55Z</time>
      </trkpt>
      <trkpt lat="47.81423" lon="-3.67411">
        <ele>46</ele>
        <time>2019-07-14T10:53:56Z</time>
      </trkpt>
      <trkpt lat="47.81427" lon="-3.67404">
        <ele>46</ele>
        <time>2019-07-14T10:53:57Z</time>
      </trkpt>
      <trkpt lat="47.81431" lon="-3.67398">
        <ele>46</ele>
        <time>2019-07-14T10:53:58Z</time>
      </trkpt>
      <trkpt lat="47.81436" lon="-3.67393">
        <ele>46</ele>
        <time>2019-07-14T10:53:59Z</time>
      </trkpt>
      <trkpt lat="47.81441" lon="-3.67389">
        <ele>46</ele>
        <time>2019-07-14T10:54:00Z</time>
      </trkpt>
      <trkpt lat="47.81445" lon="-3.67385">
        <ele>46</ele>
        <time>2019-07-14T10:54:01Z</time>
      </trkpt>
      <trkpt lat="47.81449" lon="-3.67382">
        <ele>47</ele>
        <time>2019-07-14T10:54:02Z</time>
      </trkpt>
      <trkpt lat="47.81454" lon="-3.67379">
        <ele>47</ele>
        <time>2019-07-14T10:54:03Z</time>
      </trkpt>
      <trkpt lat="47.81458" lon="-3.67376">
        <ele>47</ele>
        <time>2019-07-14T10:54:04Z</time>
      </trkpt>
      <trkpt lat="47.81462" lon="-3.67374">
        <ele>47</ele>
        <time>2019-07-14T10:54:05Z</time>
      </trkpt>
      <trkpt lat="47.81465" lon="-3.67373">
        <ele>47</ele>
        <time>2019-07-14T10:54:06Z</time>
      </trkpt>
      <trkpt lat="47.81468" lon="-3.67374">
        <ele>47</ele>
        <time>2019-07-14T10:54:07Z</time>
      </trkpt>
      <trkpt lat="47.81469" lon="-3.67376">
        <ele>47</ele>
        <time>2019-07-14T10:54:08Z</time>
      </trkpt>
      <trkpt lat="47.81471" lon="-3.6738">
        <ele>47</ele>
        <time>2019-07-14T10:54:09Z</time>
      </trkpt>
      <trkpt lat="47.81473" lon="-3.67384">
        <ele>47</ele>
        <time>2019-07-14T10:54:10Z</time>
      </trkpt>
      <trkpt lat="47.81475" lon="-3.6739">
        <ele>47</ele>
        <time>2019-07-14T10:54:11Z</time>
      </trkpt>
      <trkpt lat="47.81478" lon="-3.67395">
        <ele>47</ele>
        <time>2019-07-14T10:54:12Z</time>
      </trkpt>
      <trkpt lat="47.81481" lon="-3.674">
        <ele>47</ele>
        <time>2019-07-14T10:54:13Z</time>
      </trkpt>
      <trkpt lat="47.81485" lon="-3.67406">
        <ele>46</ele>
        <time>2019-07-14T10:54:14Z</time>
      </trkpt>
      <trkpt lat="47.81487" lon="-3.67412">
        <ele>46</ele>
        <time>2019-07-14T10:54:15Z</time>
      </trkpt>
      <trkpt lat="47.81489" lon="-3.67418">
        <ele>46</ele>
        <time>2019-07-14T10:54:16Z</time>
      </trkpt>
      <trkpt lat="47.81492" lon="-3.67425">
        <ele>46</ele>
        <time>2019-07-14T10:54:17Z</time>
      </trkpt>
      <trkpt lat="47.81495" lon="-3.67432">
        <ele>46</ele>
        <time>2019-07-14T10:54:18Z</time>
      </trkpt>
      <trkpt lat="47.81497" lon="-3.67439">
        <ele>45</ele>
        <time>2019-07-14T10:54:19Z</time>
      </trkpt>
      <trkpt lat="47.815" lon="-3.67446">
        <ele>45</ele>
        <time>2019-07-14T10:54:20Z</time>
      </trkpt>
      <trkpt lat="47.81504" lon="-3.67453">
        <ele>45</ele>
        <time>2019-07-14T10:54:21Z</time>
      </trkpt>
      <trkpt lat="47.81507" lon="-3.67459">
        <ele>44</ele>
        <time>2019-07-14T10:54:22Z</time>
      </trkpt>
      <trkpt lat="47.81509" lon="-3.67467">
        <ele>44</ele>
        <time>2019-07-14T10:54:23Z</time>
      </trkpt>
      <trkpt lat="47.81512" lon="-3.67476">
        <ele>44</ele>
        <time>2019-07-14T10:54:24Z</time>
      </trkpt>
      <trkpt lat="47.81514" lon="-3.67485">
        <ele>43</ele>
        <time>2019-07-14T10:54:25Z</time>
      </trkpt>
      <trkpt lat="47.81517" lon="-3.67493">
        <ele>43</ele>
        <time>2019-07-14T10:54:26Z</time>
      </trkpt>
      <trkpt lat="47.81519" lon="-3.67502">
        <ele>43</ele>
        <time>2019-07-14T10:54:27Z</time>
      </trkpt>
      <trkpt lat="47.81522" lon="-3.67511">
        <ele>43</ele>
        <time>2019-07-14T10:54:28Z</time>
      </trkpt>
      <trkpt lat="47.81524" lon="-3.6752">
        <ele>43</ele>
        <time>2019-07-14T10:54:29Z</time>
      </trkpt>
      <trkpt lat="47.81526" lon="-3.67529">
        <ele>42</ele>
        <time>2019-07-14T10:54:30Z</time>
      </trkpt>
      <trkpt lat="47.81528" lon="-3.67539">
        <ele>42</ele>
        <time>2019-07-14T10:54:31Z</time>
      </trkpt>
      <trkpt lat="47.81531" lon="-3.67549">
        <ele>42</ele>
        <time>2019-07-14T10:54:32Z</time>
      </trkpt>
      <trkpt lat="47.81533" lon="-3.67559">
        <ele>41</ele>
        <time>2019-07-14T10:54:33Z</time>
      </trkpt>
      <trkpt lat="47.81535" lon="-3.67568">
        <ele>41</ele>
        <time>2019-07-14T10:54:34Z</time>
      </trkpt>
      <trkpt lat="47.81538" lon="-3.67578">
        <ele>41</ele>
        <time>2019-07-14T10:54:35Z</time>
      </trkpt>
      <trkpt lat="47.8154" lon="-3.67588">
        <ele>41</ele>
        <time>2019-07-14T10:54:36Z</time>
      </trkpt>
      <trkpt lat="47.81542" lon="-3.67597">
        <ele>41</ele>
        <time>2019-07-14T10:54:37Z</time>
      </trkpt>
      <trkpt lat="47.81544" lon="-3.67604">
        <ele>40</ele>
        <time>2019-07-14T10:54:38Z</time>
      </trkpt>
      <trkpt lat="47.81547" lon="-3.67613">
        <ele>40</ele>
        <time>2019-07-14T10:54:39Z</time>
      </trkpt>
      <trkpt lat="47.81549" lon="-3.67621">
        <ele>40</ele>
        <time>2019-07-14T10:54:40Z</time>
      </trkpt>
      <trkpt lat="47.81551" lon="-3.6763">
        <ele>40</ele>
        <time>2019-07-14T10:54:41Z</time>
      </trkpt>
      <trkpt lat="47.81553" lon="-3.67639">
        <ele>40</ele>
        <time>2019-07-14T10:54:42Z</time>
      </trkpt>
      <trkpt lat="47.81555" lon="-3.67648">
        <ele>40</ele>
        <time>2019-07-14T10:54:43Z</time>
      </trkpt>
      <trkpt lat="47.81557" lon="-3.67657">
        <ele>40</ele>
        <time>2019-07-14T10:54:44Z</time>
      </trkpt>
      <trkpt lat="47.81559" lon="-3.67666">
        <ele>40</ele>
        <time>2019-07-14T10:54:45Z</time>
      </trkpt>
      <trkpt lat="47.81561" lon="-3.67674">
        <ele>40</ele>
        <time>2019-07-14T10:54:46Z</time>
      </trkpt>
      <trkpt lat="47.81564" lon="-3.67681">
        <ele>40</ele>
        <time>2019-07-14T10:54:47Z</time>
      </trkpt>
      <trkpt lat="47.81566" lon="-3.67689">
        <ele>40</ele>
        <time>2019-07-14T10:54:48Z</time>
      </trkpt>
      <trkpt lat="47.81568" lon="-3.67696">
        <ele>40</ele>
        <time>2019-07-14T10:54:49Z</time>
      </trkpt>
      <trkpt lat="47.8157" lon="-3.67704">
        <ele>40</ele>
        <time>2019-07-14T10:54:50Z</time>
      </trkpt>
      <trkpt lat="47.81572" lon="-3.67713">
        <ele>40</ele>
        <time>2019-07-14T10:54:51Z</time>
      </trkpt>
      <trkpt lat="47.81574" lon="-3.67722">
        <ele>40</ele>
        <time>2019-07-14T10:54:52Z</time>
      </trkpt>
      <trkpt lat="47.81576" lon="-3.6773">
        <ele>40</ele>
        <time>2019-07-14T10:54:53Z</time>
      </trkpt>
      <trkpt lat="47.81578" lon="-3.67739">
        <ele>40</ele>
        <time>2019-07-14T10:54:54Z</time>
      </trkpt>
      <trkpt lat="47.81579" lon="-3.67747">
        <ele>40</ele>
        <time>2019-07-14T10:54:55Z</time>
      </trkpt>
      <trkpt lat="47.81581" lon="-3.67755">
        <ele>40</ele>
        <time>2019-07-14T10:54:56Z</time>
      </trkpt>
      <trkpt lat="47.81583" lon="-3.67764">
        <ele>40</ele>
        <time>2019-07-14T10:54:57Z</time>
      </trkpt>
      <trkpt lat="47.81585" lon="-3.67772">
        <ele>40</ele>
        <time>2019-07-14T10:54:58Z</time>
      </trkpt>
      <trkpt lat="47.81587" lon="-3.6778">
        <ele>40</ele>
        <time>2019-07-14T10:54:59Z</time>
      </trkpt>
      <trkpt lat="47.81589" lon="-3.67788">
        <ele>40</ele>
        <time>2019-07-14T10:55:00Z</time>
      </trkpt>
      <trkpt lat="47.8159" lon="-3.67796">
        <ele>40</ele>
        <time>2019-07-14T10:55:01Z</time>
      </trkpt>
      <trkpt lat="47.81592" lon="-3.67805">
        <ele>40</ele>
        <time>2019-07-14T10:55:02Z</time>
      </trkpt>
      <trkpt lat="47.81594" lon="-3.67813">
        <ele>40</ele>
        <time>2019-07-14T10:55:03Z</time>
      </trkpt>
      <trkpt lat="47.81596" lon="-3.67821">
        <ele>40</ele>
        <time>2019-07-14T10:55:04Z</time>
      </trkpt>
      <trkpt lat="47.81598" lon="-3.6783">
        <ele>40</ele>
        <time>2019-07-14T10:55:05Z</time>
      </trkpt>
      <trkpt lat="47.816" lon="-3.67838">
        <ele>40</ele>
        <time>2019-07-14T10:55:06Z</time>
      </trkpt>
      <trkpt lat="47.81601" lon="-3.67846">
        <ele>41</ele>
        <time>2019-07-14T10:55:07Z</time>
      </trkpt>
      <trkpt lat="47.81603" lon="-3.67855">
        <ele>40</ele>
        <time>2019-07-14T10:55:08Z</time>
      </trkpt>
      <trkpt lat="47.81605" lon="-3.67863">
        <ele>40</ele>
        <time>2019-07-14T10:55:09Z</time>
      </trkpt>
      <trkpt lat="47.81606" lon="-3.67872">
        <ele>40</ele>
        <time>2019-07-14T10:55:10Z</time>
      </trkpt>
      <trkpt lat="47.81608" lon="-3.6788">
        <ele>40</ele>
        <time>2019-07-14T10:55:11Z</time>
      </trkpt>
      <trkpt lat="47.81609" lon="-3.67889">
        <ele>41</ele>
        <time>2019-07-14T10:55:12Z</time>
      </trkpt>
      <trkpt lat="47.81611" lon="-3.67897">
        <ele>40</ele>
        <time>2019-07-14T10:55:13Z</time>
      </trkpt>
      <trkpt lat="47.81612" lon="-3.67906">
        <ele>40</ele>
        <time>2019-07-14T10:55:14Z</time>
      </trkpt>
      <trkpt lat="47.81613" lon="-3.67915">
        <ele>40</ele>
        <time>2019-07-14T10:55:15Z</time>
      </trkpt>
      <trkpt lat="47.81614" lon="-3.67923">
        <ele>40</ele>
        <time>2019-07-14T10:55:16Z</time>
      </trkpt>
      <trkpt lat="47.81614" lon="-3.67932">
        <ele>40</ele>
        <time>2019-07-14T10:55:17Z</time>
      </trkpt>
      <trkpt lat="47.81614" lon="-3.67939">
        <ele>40</ele>
        <time>2019-07-14T10:55:18Z</time>
      </trkpt>
      <trkpt lat="47.81614" lon="-3.67945">
        <ele>41</ele>
        <time>2019-07-14T10:55:19Z</time>
      </trkpt>
      <trkpt lat="47.81613" lon="-3.6795">
        <ele>41</ele>
        <time>2019-07-14T10:55:20Z</time>
      </trkpt>
      <trkpt lat="47.81611" lon="-3.67956">
        <ele>41</ele>
        <time>2019-07-14T10:55:21Z</time>
      </trkpt>
      <trkpt lat="47.81609" lon="-3.67963">
        <ele>41</ele>
        <time>2019-07-14T10:55:22Z</time>
      </trkpt>
      <trkpt lat="47.81606" lon="-3.67971">
        <ele>41</ele>
        <time>2019-07-14T10:55:23Z</time>
      </trkpt>
      <trkpt lat="47.81604" lon="-3.67978">
        <ele>41</ele>
        <time>2019-07-14T10:55:24Z</time>
      </trkpt>
      <trkpt lat="47.81603" lon="-3.67985">
        <ele>41</ele>
        <time>2019-07-14T10:55:25Z</time>
      </trkpt>
      <trkpt lat="47.81602" lon="-3.67991">
        <ele>41</ele>
        <time>2019-07-14T10:55:26Z</time>
      </trkpt>
      <trkpt lat="47.81601" lon="-3.67997">
        <ele>40</ele>
        <time>2019-07-14T10:55:27Z</time>
      </trkpt>
      <trkpt lat="47.81601" lon="-3.68003">
        <ele>40</ele>
        <time>2019-07-14T10:55:28Z</time>
      </trkpt>
      <trkpt lat="47.81601" lon="-3.68009">
        <ele>40</ele>
        <time>2019-07-14T10:55:29Z</time>
      </trkpt>
      <trkpt lat="47.81602" lon="-3.68015">
        <ele>40</ele>
        <time>2019-07-14T10:55:30Z</time>
      </trkpt>
      <trkpt lat="47.81603" lon="-3.68021">
        <ele>40</ele>
        <time>2019-07-14T10:55:31Z</time>
      </trkpt>
      <trkpt lat="47.81602" lon="-3.68026">
        <ele>40</ele>
        <time>2019-07-14T10:55:32Z</time>
      </trkpt>
      <trkpt lat="47.81601" lon="-3.68031">
        <ele>40</ele>
        <time>2019-07-14T10:55:33Z</time>
      </trkpt>
      <trkpt lat="47.81601" lon="-3.68035">
        <ele>40</ele>
        <time>2019-07-14T10:55:34Z</time>
      </trkpt>
      <trkpt lat="47.81601" lon="-3.6804">
        <ele>40</ele>
        <time>2019-07-14T10:55:35Z</time>
      </trkpt>
      <trkpt lat="47.81601" lon="-3.68046">
        <ele>40</ele>
        <time>2019-07-14T10:55:36Z</time>
      </trkpt>
      <trkpt lat="47.81601" lon="-3.68054">
        <ele>40</ele>
        <time>2019-07-14T10:55:37Z</time>
      </trkpt>
      <trkpt lat="47.81601" lon="-3.68061">
        <ele>40</ele>
        <time>2019-07-14T10:55:38Z</time>
      </trkpt>
      <trkpt lat="47.81601" lon="-3.68068">
        <ele>40</ele>
        <time>2019-07-14T10:55:39Z</time>
      </trkpt>
      <trkpt lat="47.81602" lon="-3.68074">
        <ele>40</ele>
        <time>2019-07-14T10:55:40Z</time>
      </trkpt>
      <trkpt lat="47.81603" lon="-3.6808">
        <ele>40</ele>
        <time>2019-07-14T10:55:41Z</time>
      </trkpt>
      <trkpt lat="47.81603" lon="-3.68086">
        <ele>40</ele>
        <time>2019-07-14T10:55:42Z</time>
      </trkpt>
      <trkpt lat="47.81603" lon="-3.68092">
        <ele>40</ele>
        <time>2019-07-14T10:55:43Z</time>
      </trkpt>
      <trkpt lat="47.81604" lon="-3.68099">
        <ele>40</ele>
        <time>2019-07-14T10:55:44Z</time>
      </trkpt>
      <trkpt lat="47.81606" lon="-3.68104">
        <ele>40</ele>
        <time>2019-07-14T10:55:45Z</time>
      </trkpt>
      <trkpt lat="47.81609" lon="-3.68108">
        <ele>40</ele>
        <time>2019-07-14T10:55:46Z</time>
      </trkpt>
      <trkpt lat="47.8161" lon="-3.68113">
        <ele>40</ele>
        <time>2019-07-14T10:55:47Z</time>
      </trkpt>
      <trkpt lat="47.81611" lon="-3.68119">
        <ele>40</ele>
        <time>2019-07-14T10:55:48Z</time>
      </trkpt>
      <trkpt lat="47.81612" lon="-3.68123">
        <ele>40</ele>
        <time>2019-07-14T10:55:49Z</time>
      </trkpt>
      <trkpt lat="47.81612" lon="-3.68127">
        <ele>40</ele>
        <time>2019-07-14T10:55:50Z</time>
      </trkpt>
      <trkpt lat="47.81613" lon="-3.68132">
        <ele>40</ele>
        <time>2019-07-14T10:55:51Z</time>
      </trkpt>
      <trkpt lat="47.81614" lon="-3.68137">
        <ele>40</ele>
        <time>2019-07-14T10:55:52Z</time>
      </trkpt>
      <trkpt lat="47.81615" lon="-3.68143">
        <ele>39</ele>
        <time>2019-07-14T10:55:53Z</time>
      </trkpt>
      <trkpt lat="47.81617" lon="-3.6815">
        <ele>39</ele>
        <time>2019-07-14T10:55:54Z</time>
      </trkpt>
      <trkpt lat="47.81619" lon="-3.68156">
        <ele>39</ele>
        <time>2019-07-14T10:55:55Z</time>
      </trkpt>
      <trkpt lat="47.81622" lon="-3.68162">
        <ele>39</ele>
        <time>2019-07-14T10:55:56Z</time>
      </trkpt>
      <trkpt lat="47.81625" lon="-3.68169">
        <ele>39</ele>
        <time>2019-07-14T10:55:57Z</time>
      </trkpt>
      <trkpt lat="47.81628" lon="-3.68175">
        <ele>39</ele>
        <time>2019-07-14T10:55:58Z</time>
      </trkpt>
      <trkpt lat="47.8163" lon="-3.68181">
        <ele>39</ele>
        <time>2019-07-14T10:55:59Z</time>
      </trkpt>
      <trkpt lat="47.81632" lon="-3.68186">
        <ele>39</ele>
        <time>2019-07-14T10:56:00Z</time>
      </trkpt>
      <trkpt lat="47.81635" lon="-3.68191">
        <ele>39</ele>
        <time>2019-07-14T10:56:01Z</time>
      </trkpt>
      <trkpt lat="47.81638" lon="-3.68197">
        <ele>39</ele>
        <time>2019-07-14T10:56:02Z</time>
      </trkpt>
      <trkpt lat="47.81639" lon="-3.68204">
        <ele>39</ele>
        <time>2019-07-14T10:56:03Z</time>
      </trkpt>
      <trkpt lat="47.8164" lon="-3.68212">
        <ele>39</ele>
        <time>2019-07-14T10:56:04Z</time>
      </trkpt>
      <trkpt lat="47.81641" lon="-3.68218">
        <ele>39</ele>
        <time>2019-07-14T10:56:05Z</time>
      </trkpt>
      <trkpt lat="47.81641" lon="-3.68226">
        <ele>39</ele>
        <time>2019-07-14T10:56:06Z</time>
      </trkpt>
      <trkpt lat="47.8164" lon="-3.68233">
        <ele>39</ele>
        <time>2019-07-14T10:56:07Z</time>
      </trkpt>
      <trkpt lat="47.8164" lon="-3.68241">
        <ele>39</ele>
        <time>2019-07-14T10:56:08Z</time>
      </trkpt>
      <trkpt lat="47.81639" lon="-3.68248">
        <ele>39</ele>
        <time>2019-07-14T10:56:09Z</time>
      </trkpt>
      <trkpt lat="47.81639" lon="-3.68255">
        <ele>38</ele>
        <time>2019-07-14T10:56:10Z</time>
      </trkpt>
      <trkpt lat="47.81639" lon="-3.68262">
        <ele>38</ele>
        <time>2019-07-14T10:56:11Z</time>
      </trkpt>
      <trkpt lat="47.81639" lon="-3.68268">
        <ele>38</ele>
        <time>2019-07-14T10:56:12Z</time>
      </trkpt>
      <trkpt lat="47.81638" lon="-3.68274">
        <ele>38</ele>
        <time>2019-07-14T10:56:13Z</time>
      </trkpt>
      <trkpt lat="47.81636" lon="-3.6828">
        <ele>38</ele>
        <time>2019-07-14T10:56:14Z</time>
      </trkpt>
      <trkpt lat="47.81635" lon="-3.68285">
        <ele>38</ele>
        <time>2019-07-14T10:56:15Z</time>
      </trkpt>
      <trkpt lat="47.81634" lon="-3.6829">
        <ele>38</ele>
        <time>2019-07-14T10:56:16Z</time>
      </trkpt>
      <trkpt lat="47.81633" lon="-3.68296">
        <ele>38</ele>
        <time>2019-07-14T10:56:17Z</time>
      </trkpt>
      <trkpt lat="47.81632" lon="-3.68301">
        <ele>38</ele>
        <time>2019-07-14T10:56:18Z</time>
      </trkpt>
      <trkpt lat="47.8163" lon="-3.68306">
        <ele>38</ele>
        <time>2019-07-14T10:56:19Z</time>
      </trkpt>
      <trkpt lat="47.81629" lon="-3.68312">
        <ele>38</ele>
        <time>2019-07-14T10:56:20Z</time>
      </trkpt>
      <trkpt lat="47.81627" lon="-3.68319">
        <ele>38</ele>
        <time>2019-07-14T10:56:21Z</time>
      </trkpt>
      <trkpt lat="47.81626" lon="-3.68325">
        <ele>39</ele>
        <time>2019-07-14T10:56:22Z</time>
      </trkpt>
      <trkpt lat="47.81624" lon="-3.68331">
        <ele>39</ele>
        <time>2019-07-14T10:56:23Z</time>
      </trkpt>
      <trkpt lat="47.81622" lon="-3.68337">
        <ele>39</ele>
        <time>2019-07-14T10:56:24Z</time>
      </trkpt>
      <trkpt lat="47.81622" lon="-3.68344">
        <ele>39</ele>
        <time>2019-07-14T10:56:25Z</time>
      </trkpt>
      <trkpt lat="47.81621" lon="-3.6835">
        <ele>39</ele>
        <time>2019-07-14T10:56:26Z</time>
      </trkpt>
      <trkpt lat="47.81621" lon="-3.68355">
        <ele>39</ele>
        <time>2019-07-14T10:56:27Z</time>
      </trkpt>
      <trkpt lat="47.8162" lon="-3.68361">
        <ele>39</ele>
        <time>2019-07-14T10:56:28Z</time>
      </trkpt>
      <trkpt lat="47.81619" lon="-3.68367">
        <ele>39</ele>
        <time>2019-07-14T10:56:29Z</time>
      </trkpt>
      <trkpt lat="47.81618" lon="-3.68373">
        <ele>39</ele>
        <time>2019-07-14T10:56:30Z</time>
      </trkpt>
      <trkpt lat="47.81618" lon="-3.68379">
        <ele>39</ele>
        <time>2019-07-14T10:56:31Z</time>
      </trkpt>
      <trkpt lat="47.81617" lon="-3.68386">
        <ele>40</ele>
        <time>2019-07-14T10:56:32Z</time>
      </trkpt>
      <trkpt lat="47.81618" lon="-3.68391">
        <ele>40</ele>
        <time>2019-07-14T10:56:33Z</time>
      </trkpt>
      <trkpt lat="47.81618" lon="-3.68395">
        <ele>40</ele>
        <time>2019-07-14T10:56:34Z</time>
      </trkpt>
      <trkpt lat="47.81619" lon="-3.684">
        <ele>40</ele>
        <time>2019-07-14T10:56:35Z</time>
      </trkpt>
      <trkpt lat="47.8162" lon="-3.68404">
        <ele>40</ele>
        <time>2019-07-14T10:56:36Z</time>
      </trkpt>
      <trkpt lat="47.81621" lon="-3.68409">
        <ele>40</ele>
        <time>2019-07-14T10:56:37Z</time>
      </trkpt>
      <trkpt lat="47.81621" lon="-3.68412">
        <ele>40</ele>
        <time>2019-07-14T10:56:38Z</time>
      </trkpt>
      <trkpt lat="47.81622" lon="-3.68415">
        <ele>40</ele>
        <time>2019-07-14T10:56:39Z</time>
      </trkpt>
      <trkpt lat="47.81623" lon="-3.68419">
        <ele>40</ele>
        <time>2019-07-14T10:56:40Z</time>
      </trkpt>
      <trkpt lat="47.81625" lon="-3.68422">
        <ele>40</ele>
        <time>2019-07-14T10:56:41Z</time>
      </trkpt>
      <trkpt lat="47.81625" lon="-3.68426">
        <ele>40</ele>
        <time>2019-07-14T10:56:42Z</time>
      </trkpt>
      <trkpt lat="47.81627" lon="-3.6843">
        <ele>40</ele>
        <time>2019-07-14T10:56:43Z</time>
      </trkpt>
      <trkpt lat="47.81629" lon="-3.68433">
        <ele>40</ele>
        <time>2019-07-14T10:56:44Z</time>
      </trkpt>
      <trkpt lat="47.8163" lon="-3.68436">
        <ele>40</ele>
        <time>2019-07-14T10:56:45Z</time>
      </trkpt>
      <trkpt lat="47.81632" lon="-3.68438">
        <ele>40</ele>
        <time>2019-07-14T10:56:46Z</time>
      </trkpt>
      <trkpt lat="47.81633" lon="-3.68441">
        <ele>40</ele>
        <time>2019-07-14T10:56:47Z</time>
      </trkpt>
      <trkpt lat="47.81634" lon="-3.68444">
        <ele>40</ele>
        <time>2019-07-14T10:56:48Z</time>
      </trkpt>
      <trkpt lat="47.81636" lon="-3.68447">
        <ele>40</ele>
        <time>2019-07-14T10:56:49Z</time>
      </trkpt>
      <trkpt lat="47.81637" lon="-3.68449">
        <ele>40</ele>
        <time>2019-07-14T10:56:50Z</time>
      </trkpt>
      <trkpt lat="47.81639" lon="-3.68452">
        <ele>40</ele>
        <time>2019-07-14T10:56:51Z</time>
      </trkpt>
      <trkpt lat="47.8164" lon="-3.68455">
        <ele>40</ele>
        <time>2019-07-14T10:56:52Z</time>
      </trkpt>
      <trkpt lat="47.81641" lon="-3.68458">
        <ele>40</ele>
        <time>2019-07-14T10:56:53Z</time>
      </trkpt>
      <trkpt lat="47.81642" lon="-3.68461">
        <ele>41</ele>
        <time>2019-07-14T10:56:54Z</time>
      </trkpt>
      <trkpt lat="47.81644" lon="-3.68465">
        <ele>41</ele>
        <time>2019-07-14T10:56:55Z</time>
      </trkpt>
      <trkpt lat="47.81646" lon="-3.68469">
        <ele>41</ele>
        <time>2019-07-14T10:56:56Z</time>
      </trkpt>
      <trkpt lat="47.81648" lon="-3.68473">
        <ele>41</ele>
        <time>2019-07-14T10:56:57Z</time>
      </trkpt>
      <trkpt lat="47.81649" lon="-3.68478">
        <ele>41</ele>
        <time>2019-07-14T10:56:58Z</time>
      </trkpt>
      <trkpt lat="47.81651" lon="-3.68484">
        <ele>41</ele>
        <time>2019-07-14T10:56:59Z</time>
      </trkpt>
      <trkpt lat="47.81653" lon="-3.6849">
        <ele>41</ele>
        <time>2019-07-14T10:57:00Z</time>
      </trkpt>
      <trkpt lat="47.81655" lon="-3.68497">
        <ele>41</ele>
        <time>2019-07-14T10:57:01Z</time>
      </trkpt>
      <trkpt lat="47.81657" lon="-3.68504">
        <ele>41</ele>
        <time>2019-07-14T10:57:02Z</time>
      </trkpt>
      <trkpt lat="47.81659" lon="-3.68511">
        <ele>41</ele>
        <time>2019-07-14T10:57:03Z</time>
      </trkpt>
      <trkpt lat="47.81661" lon="-3.68519">
        <ele>41</ele>
        <time>2019-07-14T10:57:04Z</time>
      </trkpt>
      <trkpt lat="47.81662" lon="-3.68526">
        <ele>41</ele>
        <time>2019-07-14T10:57:05Z</time>
      </trkpt>
      <trkpt lat="47.81664" lon="-3.68534">
        <ele>41</ele>
        <time>2019-07-14T10:57:06Z</time>
      </trkpt>
      <trkpt lat="47.81665" lon="-3.68541">
        <ele>41</ele>
        <time>2019-07-14T10:57:07Z</time>
      </trkpt>
      <trkpt lat="47.81665" lon="-3.6855">
        <ele>41</ele>
        <time>2019-07-14T10:57:08Z</time>
      </trkpt>
      <trkpt lat="47.81667" lon="-3.68557">
        <ele>41</ele>
        <time>2019-07-14T10:57:09Z</time>
      </trkpt>
      <trkpt lat="47.81668" lon="-3.68564">
        <ele>41</ele>
        <time>2019-07-14T10:57:10Z</time>
      </trkpt>
      <trkpt lat="47.81669" lon="-3.6857">
        <ele>41</ele>
        <time>2019-07-14T10:57:11Z</time>
      </trkpt>
      <trkpt lat="47.8167" lon="-3.68576">
        <ele>41</ele>
        <time>2019-07-14T10:57:12Z</time>
      </trkpt>
      <trkpt lat="47.81671" lon="-3.68582">
        <ele>41</ele>
        <time>2019-07-14T10:57:13Z</time>
      </trkpt>
      <trkpt lat="47.8167" lon="-3.68589">
        <ele>41</ele>
        <time>2019-07-14T10:57:14Z</time>
      </trkpt>
      <trkpt lat="47.8167" lon="-3.68596">
        <ele>41</ele>
        <time>2019-07-14T10:57:15Z</time>
      </trkpt>
      <trkpt lat="47.8167" lon="-3.68603">
        <ele>42</ele>
        <time>2019-07-14T10:57:16Z</time>
      </trkpt>
      <trkpt lat="47.81669" lon="-3.68611">
        <ele>42</ele>
        <time>2019-07-14T10:57:17Z</time>
      </trkpt>
      <trkpt lat="47.81669" lon="-3.68618">
        <ele>42</ele>
        <time>2019-07-14T10:57:18Z</time>
      </trkpt>
      <trkpt lat="47.81669" lon="-3.68625">
        <ele>42</ele>
        <time>2019-07-14T10:57:19Z</time>
      </trkpt>
      <trkpt lat="47.81669" lon="-3.68632">
        <ele>42</ele>
        <time>2019-07-14T10:57:20Z</time>
      </trkpt>
      <trkpt lat="47.81668" lon="-3.68637">
        <ele>42</ele>
        <time>2019-07-14T10:57:21Z</time>
      </trkpt>
      <trkpt lat="47.81667" lon="-3.68643">
        <ele>42</ele>
        <time>2019-07-14T10:57:22Z</time>
      </trkpt>
      <trkpt lat="47.81664" lon="-3.68651">
        <ele>42</ele>
        <time>2019-07-14T10:57:23Z</time>
      </trkpt>
      <trkpt lat="47.8166" lon="-3.68659">
        <ele>42</ele>
        <time>2019-07-14T10:57:24Z</time>
      </trkpt>
      <trkpt lat="47.81657" lon="-3.68668">
        <ele>42</ele>
        <time>2019-07-14T10:57:25Z</time>
      </trkpt>
      <trkpt lat="47.81653" lon="-3.68675">
        <ele>42</ele>
        <time>2019-07-14T10:57:26Z</time>
      </trkpt>
      <trkpt lat="47.81649" lon="-3.68682">
        <ele>42</ele>
        <time>2019-07-14T10:57:27Z</time>
      </trkpt>
      <trkpt lat="47.81646" lon="-3.68689">
        <ele>43</ele>
        <time>2019-07-14T10:57:28Z</time>
      </trkpt>
      <trkpt lat="47.81643" lon="-3.68696">
        <ele>43</ele>
        <time>2019-07-14T10:57:29Z</time>
      </trkpt>
      <trkpt lat="47.81639" lon="-3.68703">
        <ele>43</ele>
        <time>2019-07-14T10:57:30Z</time>
      </trkpt>
      <trkpt lat="47.81636" lon="-3.6871">
        <ele>43</ele>
        <time>2019-07-14T10:57:31Z</time>
      </trkpt>
      <trkpt lat="47.81633" lon="-3.68718">
        <ele>43</ele>
        <time>2019-07-14T10:57:32Z</time>
      </trkpt>
      <trkpt lat="47.81629" lon="-3.68725">
        <ele>43</ele>
        <time>2019-07-14T10:57:33Z</time>
      </trkpt>
      <trkpt lat="47.81626" lon="-3.68732">
        <ele>43</ele>
        <time>2019-07-14T10:57:34Z</time>
      </trkpt>
      <trkpt lat="47.81622" lon="-3.6874">
        <ele>43</ele>
        <time>2019-07-14T10:57:35Z</time>
      </trkpt>
      <trkpt lat="47.81619" lon="-3.68747">
        <ele>43</ele>
        <time>2019-07-14T10:57:36Z</time>
      </trkpt>
      <trkpt lat="47.81617" lon="-3.68756">
        <ele>43</ele>
        <time>2019-07-14T10:57:37Z</time>
      </trkpt>
      <trkpt lat="47.81614" lon="-3.68763">
        <ele>43</ele>
        <time>2019-07-14T10:57:38Z</time>
      </trkpt>
      <trkpt lat="47.8161" lon="-3.68769">
        <ele>43</ele>
        <time>2019-07-14T10:57:39Z</time>
      </trkpt>
      <trkpt lat="47.81607" lon="-3.68776">
        <ele>43</ele>
        <time>2019-07-14T10:57:40Z</time>
      </trkpt>
      <trkpt lat="47.81605" lon="-3.68782">
        <ele>43</ele>
        <time>2019-07-14T10:57:41Z</time>
      </trkpt>
      <trkpt lat="47.81603" lon="-3.68789">
        <ele>43</ele>
        <time>2019-07-14T10:57:42Z</time>
      </trkpt>
      <trkpt lat="47.81602" lon="-3.68796">
        <ele>43</ele>
        <time>2019-07-14T10:57:43Z</time>
      </trkpt>
      <trkpt lat="47.816" lon="-3.68803">
        <ele>43</ele>
        <time>2019-07-14T10:57:44Z</time>
      </trkpt>
      <trkpt lat="47.81598" lon="-3.68811">
        <ele>43</ele>
        <time>2019-07-14T10:57:45Z</time>
      </trkpt>
      <trkpt lat="47.81596" lon="-3.68819">
        <ele>43</ele>
        <time>2019-07-14T10:57:46Z</time>
      </trkpt>
      <trkpt lat="47.81594" lon="-3.68827">
        <ele>43</ele>
        <time>2019-07-14T10:57:47Z</time>
      </trkpt>
      <trkpt lat="47.81593" lon="-3.68834">
        <ele>43</ele>
        <time>2019-07-14T10:57:48Z</time>
      </trkpt>
      <trkpt lat="47.81592" lon="-3.68841">
        <ele>43</ele>
        <time>2019-07-14T10:57:49Z</time>
      </trkpt>
      <trkpt lat="47.8159" lon="-3.68847">
        <ele>43</ele>
        <time>2019-07-14T10:57:50Z</time>
      </trkpt>
      <trkpt lat="47.8159" lon="-3.68853">
        <ele>43</ele>
        <time>2019-07-14T10:57:51Z</time>
      </trkpt>
      <trkpt lat="47.81588" lon="-3.68859">
        <ele>43</ele>
        <time>2019-07-14T10:57:52Z</time>
      </trkpt>
      <trkpt lat="47.81586" lon="-3.68866">
        <ele>43</ele>
        <time>2019-07-14T10:57:53Z</time>
      </trkpt>
      <trkpt lat="47.81584" lon="-3.68874">
        <ele>44</ele>
        <time>2019-07-14T10:57:54Z</time>
      </trkpt>
      <trkpt lat="47.81583" lon="-3.68881">
        <ele>44</ele>
        <time>2019-07-14T10:57:55Z</time>
      </trkpt>
      <trkpt lat="47.8158" lon="-3.68889">
        <ele>44</ele>
        <time>2019-07-14T10:57:56Z</time>
      </trkpt>
      <trkpt lat="47.81578" lon="-3.68897">
        <ele>45</ele>
        <time>2019-07-14T10:57:57Z</time>
      </trkpt>
      <trkpt lat="47.81576" lon="-3.68907">
        <ele>45</ele>
        <time>2019-07-14T10:57:58Z</time>
      </trkpt>
      <trkpt lat="47.81575" lon="-3.68916">
        <ele>45</ele>
        <time>2019-07-14T10:57:59Z</time>
      </trkpt>
      <trkpt lat="47.81573" lon="-3.68925">
        <ele>46</ele>
        <time>2019-07-14T10:58:00Z</time>
      </trkpt>
      <trkpt lat="47.8157" lon="-3.68934">
        <ele>46</ele>
        <time>2019-07-14T10:58:01Z</time>
      </trkpt>
      <trkpt lat="47.81567" lon="-3.68943">
        <ele>46</ele>
        <time>2019-07-14T10:58:02Z</time>
      </trkpt>
      <trkpt lat="47.81565" lon="-3.68953">
        <ele>46</ele>
        <time>2019-07-14T10:58:03Z</time>
      </trkpt>
      <trkpt lat="47.81563" lon="-3.68964">
        <ele>46</ele>
        <time>2019-07-14T10:58:04Z</time>
      </trkpt>
      <trkpt lat="47.8156" lon="-3.68974">
        <ele>46</ele>
        <time>2019-07-14T10:58:05Z</time>
      </trkpt>
      <trkpt lat="47.81558" lon="-3.68983">
        <ele>46</ele>
        <time>2019-07-14T10:58:06Z</time>
      </trkpt>
      <trkpt lat="47.81557" lon="-3.68991">
        <ele>45</ele>
        <time>2019-07-14T10:58:07Z</time>
      </trkpt>
      <trkpt lat="47.81557" lon="-3.68999">
        <ele>45</ele>
        <time>2019-07-14T10:58:08Z</time>
      </trkpt>
      <trkpt lat="47.81555" lon="-3.69007">
        <ele>45</ele>
        <time>2019-07-14T10:58:09Z</time>
      </trkpt>
      <trkpt lat="47.81554" lon="-3.69016">
        <ele>45</ele>
        <time>2019-07-14T10:58:10Z</time>
      </trkpt>
      <trkpt lat="47.81553" lon="-3.69024">
        <ele>45</ele>
        <time>2019-07-14T10:58:11Z</time>
      </trkpt>
      <trkpt lat="47.81551" lon="-3.69032">
        <ele>45</ele>
        <time>2019-07-14T10:58:12Z</time>
      </trkpt>
      <trkpt lat="47.81551" lon="-3.6904">
        <ele>45</ele>
        <time>2019-07-14T10:58:13Z</time>
      </trkpt>
      <trkpt lat="47.81551" lon="-3.69048">
        <ele>45</ele>
        <time>2019-07-14T10:58:14Z</time>
      </trkpt>
      <trkpt lat="47.81551" lon="-3.69056">
        <ele>45</ele>
        <time>2019-07-14T10:58:15Z</time>
      </trkpt>
      <trkpt lat="47.81552" lon="-3.69064">
        <ele>45</ele>
        <time>2019-07-14T10:58:16Z</time>
      </trkpt>
      <trkpt lat="47.81553" lon="-3.69072">
        <ele>45</ele>
        <time>2019-07-14T10:58:17Z</time>
      </trkpt>
      <trkpt lat="47.81553" lon="-3.69081">
        <ele>45</ele>
        <time>2019-07-14T10:58:18Z</time>
      </trkpt>
      <trkpt lat="47.81553" lon="-3.6909">
        <ele>45</ele>
        <time>2019-07-14T10:58:19Z</time>
      </trkpt>
      <trkpt lat="47.81555" lon="-3.69098">
        <ele>45</ele>
        <time>2019-07-14T10:58:20Z</time>
      </trkpt>
      <trkpt lat="47.81556" lon="-3.69105">
        <ele>45</ele>
        <time>2019-07-14T10:58:21Z</time>
      </trkpt>
      <trkpt lat="47.81557" lon="-3.69111">
        <ele>45</ele>
        <time>2019-07-14T10:58:22Z</time>
      </trkpt>
      <trkpt lat="47.81557" lon="-3.69115">
        <ele>45</ele>
        <time>2019-07-14T10:58:23Z</time>
      </trkpt>
      <trkpt lat="47.81556" lon="-3.69119">
        <ele>46</ele>
        <time>2019-07-14T10:58:24Z</time>
      </trkpt>
      <trkpt lat="47.81554" lon="-3.69121">
        <ele>46</ele>
        <time>2019-07-14T10:58:25Z</time>
      </trkpt>
      <trkpt lat="47.81553" lon="-3.69123">
        <ele>46</ele>
        <time>2019-07-14T10:58:26Z</time>
      </trkpt>
      <trkpt lat="47.8155" lon="-3.69123">
        <ele>46</ele>
        <time>2019-07-14T10:58:27Z</time>
      </trkpt>
      <trkpt lat="47.81547" lon="-3.69122">
        <ele>46</ele>
        <time>2019-07-14T10:58:28Z</time>
      </trkpt>
      <trkpt lat="47.81542" lon="-3.69121">
        <ele>46</ele>
        <time>2019-07-14T10:58:29Z</time>
      </trkpt>
      <trkpt lat="47.81537" lon="-3.69121">
        <ele>47</ele>
        <time>2019-07-14T10:58:30Z</time>
      </trkpt>
      <trkpt lat="47.81531" lon="-3.69121">
        <ele>47</ele>
        <time>2019-07-14T10:58:31Z</time>
      </trkpt>
      <trkpt lat="47.81524" lon="-3.69121">
        <ele>47</ele>
        <time>2019-07-14T10:58:32Z</time>
      </trkpt>
      <trkpt lat="47.81517" lon="-3.69121">
        <ele>47</ele>
        <time>2019-07-14T10:58:33Z</time>
      </trkpt>
      <trkpt lat="47.8151" lon="-3.69123">
        <ele>47</ele>
        <time>2019-07-14T10:58:34Z</time>
      </trkpt>
      <trkpt lat="47.81503" lon="-3.69125">
        <ele>48</ele>
        <time>2019-07-14T10:58:35Z</time>
      </trkpt>
      <trkpt lat="47.81495" lon="-3.69126">
        <ele>48</ele>
        <time>2019-07-14T10:58:36Z</time>
      </trkpt>
      <trkpt lat="47.81488" lon="-3.69128">
        <ele>48</ele>
        <time>2019-07-14T10:58:37Z</time>
      </trkpt>
      <trkpt lat="47.81481" lon="-3.69129">
        <ele>48</ele>
        <time>2019-07-14T10:58:38Z</time>
      </trkpt>
      <trkpt lat="47.81475" lon="-3.69129">
        <ele>48</ele>
        <time>2019-07-14T10:58:39Z</time>
      </trkpt>
      <trkpt lat="47.81468" lon="-3.69131">
        <ele>48</ele>
        <time>2019-07-14T10:58:40Z</time>
      </trkpt>
      <trkpt lat="47.81462" lon="-3.69132">
        <ele>48</ele>
        <time>2019-07-14T10:58:41Z</time>
      </trkpt>
      <trkpt lat="47.81456" lon="-3.69134">
        <ele>48</ele>
        <time>2019-07-14T10:58:42Z</time>
      </trkpt>
      <trkpt lat="47.81451" lon="-3.69135">
        <ele>48</ele>
        <time>2019-07-14T10:58:43Z</time>
      </trkpt>
      <trkpt lat="47.81447" lon="-3.69136">
        <ele>48</ele>
        <time>2019-07-14T10:58:44Z</time>
      </trkpt>
      <trkpt lat="47.81443" lon="-3.69137">
        <ele>48</ele>
        <time>2019-07-14T10:58:45Z</time>
      </trkpt>
      <trkpt lat="47.81439" lon="-3.69138">
        <ele>48</ele>
        <time>2019-07-14T10:58:46Z</time>
      </trkpt>
      <trkpt lat="47.81436" lon="-3.69137">
        <ele>48</ele>
        <time>2019-07-14T10:58:47Z</time>
      </trkpt>
      <trkpt lat="47.81432" lon="-3.69136">
        <ele>48</ele>
        <time>2019-07-14T10:58:48Z</time>
      </trkpt>
      <trkpt lat="47.81428" lon="-3.69135">
        <ele>48</ele>
        <time>2019-07-14T10:58:49Z</time>
      </trkpt>
      <trkpt lat="47.81423" lon="-3.69135">
        <ele>47</ele>
        <time>2019-07-14T10:58:50Z</time>
      </trkpt>
      <trkpt lat="47.81418" lon="-3.69134">
        <ele>47</ele>
        <time>2019-07-14T10:58:51Z</time>
      </trkpt>
      <trkpt lat="47.81413" lon="-3.69134">
        <ele>47</ele>
        <time>2019-07-14T10:58:52Z</time>
      </trkpt>
      <trkpt lat="47.81407" lon="-3.69133">
        <ele>46</ele>
        <time>2019-07-14T10:58:53Z</time>
      </trkpt>
      <trkpt lat="47.81402" lon="-3.69132">
        <ele>46</ele>
        <time>2019-07-14T10:58:54Z</time>
      </trkpt>
      <trkpt lat="47.81396" lon="-3.69131">
        <ele>46</ele>
        <time>2019-07-14T10:58:55Z</time>
      </trkpt>
      <trkpt lat="47.81391" lon="-3.6913">
        <ele>46</ele>
        <time>2019-07-14T10:58:56Z</time>
      </trkpt>
      <trkpt lat="47.81385" lon="-3.69129">
        <ele>45</ele>
        <time>2019-07-14T10:58:57Z</time>
      </trkpt>
      <trkpt lat="47.8138" lon="-3.69128">
        <ele>45</ele>
        <time>2019-07-14T10:58:58Z</time>
      </trkpt>
      <trkpt lat="47.81375" lon="-3.69127">
        <ele>45</ele>
        <time>2019-07-14T10:58:59Z</time>
      </trkpt>
      <trkpt lat="47.8137" lon="-3.69126">
        <ele>45</ele>
        <time>2019-07-14T10:59:00Z</time>
      </trkpt>
      <trkpt lat="47.81365" lon="-3.69126">
        <ele>45</ele>
        <time>2019-07-14T10:59:01Z</time>
      </trkpt>
      <trkpt lat="47.8136" lon="-3.69125">
        <ele>45</ele>
        <time>2019-07-14T10:59:02Z</time>
      </trkpt>
      <trkpt lat="47.81354" lon="-3.69124">
        <ele>44</ele>
        <time>2019-07-14T10:59:03Z</time>
      </trkpt>
      <trkpt lat="47.81349" lon="-3.69123">
        <ele>44</ele>
        <time>2019-07-14T10:59:04Z</time>
      </trkpt>
      <trkpt lat="47.81344" lon="-3.69122">
        <ele>44</ele>
        <time>2019-07-14T10:59:05Z</time>
      </trkpt>
      <trkpt lat="47.81338" lon="-3.69121">
        <ele>44</ele>
        <time>2019-07-14T10:59:06Z</time>
      </trkpt>
      <trkpt lat="47.81333" lon="-3.6912">
        <ele>44</ele>
        <time>2019-07-14T10:59:07Z</time>
      </trkpt>
      <trkpt lat="47.81328" lon="-3.69119">
        <ele>44</ele>
        <time>2019-07-14T10:59:08Z</time>
      </trkpt>
      <trkpt lat="47.81322" lon="-3.6912">
        <ele>44</ele>
        <time>2019-07-14T10:59:09Z</time>
      </trkpt>
      <trkpt lat="47.81318" lon="-3.69122">
        <ele>44</ele>
        <time>2019-07-14T10:59:10Z</time>
      </trkpt>
      <trkpt lat="47.81314" lon="-3.69127">
        <ele>44</ele>
        <time>2019-07-14T10:59:11Z</time>
      </trkpt>
      <trkpt lat="47.81312" lon="-3.69132">
        <ele>44</ele>
        <time>2019-07-14T10:59:12Z</time>
      </trkpt>
      <trkpt lat="47.81311" lon="-3.69138">
        <ele>44</ele>
        <time>2019-07-14T10:59:13Z</time>
      </trkpt>
      <trkpt lat="47.81312" lon="-3.69146">
        <ele>44</ele>
        <time>2019-07-14T10:59:14Z</time>
      </trkpt>
      <trkpt lat="47.81313" lon="-3.69153">
        <ele>44</ele>
        <time>2019-07-14T10:59:15Z</time>
      </trkpt>
      <trkpt lat="47.81313" lon="-3.69161">
        <ele>43</ele>
        <time>2019-07-14T10:59:16Z</time>
      </trkpt>
      <trkpt lat="47.81314" lon="-3.69169">
        <ele>43</ele>
        <time>2019-07-14T10:59:17Z</time>
      </trkpt>
      <trkpt lat="47.81313" lon="-3.69177">
        <ele>43</ele>
        <time>2019-07-14T10:59:18Z</time>
      </trkpt>
      <trkpt lat="47.81314" lon="-3.69185">
        <ele>43</ele>
        <time>2019-07-14T10:59:19Z</time>
      </trkpt>
      <trkpt lat="47.81314" lon="-3.69193">
        <ele>43</ele>
        <time>2019-07-14T10:59:20Z</time>
      </trkpt>
      <trkpt lat="47.81314" lon="-3.69202">
        <ele>43</ele>
        <time>2019-07-14T10:59:21Z</time>
      </trkpt>
      <trkpt lat="47.81315" lon="-3.6921">
        <ele>43</ele>
        <time>2019-07-14T10:59:22Z</time>
      </trkpt>
      <trkpt lat="47.81316" lon="-3.69219">
        <ele>43</ele>
        <time>2019-07-14T10:59:23Z</time>
      </trkpt>
      <trkpt lat="47.81317" lon="-3.69228">
        <ele>43</ele>
        <time>2019-07-14T10:59:24Z</time>
      </trkpt>
      <trkpt lat="47.81317" lon="-3.69236">
        <ele>43</ele>
        <time>2019-07-14T10:59:25Z</time>
      </trkpt>
      <trkpt lat="47.81317" lon="-3.69244">
        <ele>43</ele>
        <time>2019-07-14T10:59:26Z</time>
      </trkpt>
      <trkpt lat="47.81316" lon="-3.69252">
        <ele>43</ele>
        <time>2019-07-14T10:59:27Z</time>
      </trkpt>
      <trkpt lat="47.81315" lon="-3.69258">
        <ele>43</ele>
        <time>2019-07-14T10:59:28Z</time>
      </trkpt>
      <trkpt lat="47.81313" lon="-3.69263">
        <ele>42</ele>
        <time>2019-07-14T10:59:29Z</time>
      </trkpt>
      <trkpt lat="47.8131" lon="-3.69265">
        <ele>42</ele>
        <time>2019-07-14T10:59:30Z</time>
      </trkpt>
      <trkpt lat="47.81307" lon="-3.69265">
        <ele>42</ele>
        <time>2019-07-14T10:59:31Z</time>
      </trkpt>
      <trkpt lat="47.81304" lon="-3.69263">
        <ele>42</ele>
        <time>2019-07-14T10:59:32Z</time>
      </trkpt>
      <trkpt lat="47.81299" lon="-3.69262">
        <ele>42</ele>
        <time>2019-07-14T10:59:33Z</time>
      </trkpt>
      <trkpt lat="47.81294" lon="-3.69261">
        <ele>42</ele>
        <time>2019-07-14T10:59:34Z</time>
      </trkpt>
      <trkpt lat="47.81288" lon="-3.6926">
        <ele>42</ele>
        <time>2019-07-14T10:59:35Z</time>
      </trkpt>
      <trkpt lat="47.81283" lon="-3.69258">
        <ele>42</ele>
        <time>2019-07-14T10:59:36Z</time>
      </trkpt>
      <trkpt lat="47.81277" lon="-3.69257">
        <ele>42</ele>
        <time>2019-07-14T10:59:37Z</time>
      </trkpt>
      <trkpt lat="47.81271" lon="-3.69256">
        <ele>42</ele>
        <time>2019-07-14T10:59:38Z</time>
      </trkpt>
      <trkpt lat="47.81265" lon="-3.69255">
        <ele>42</ele>
        <time>2019-07-14T10:59:39Z</time>
      </trkpt>
      <trkpt lat="47.81259" lon="-3.69253">
        <ele>43</ele>
        <time>2019-07-14T10:59:40Z</time>
      </trkpt>
      <trkpt lat="47.81253" lon="-3.69252">
        <ele>43</ele>
        <time>2019-07-14T10:59:41Z</time>
      </trkpt>
      <trkpt lat="47.81247" lon="-3.6925">
        <ele>43</ele>
        <time>2019-07-14T10:59:42Z</time>
      </trkpt>
      <trkpt lat="47.81241" lon="-3.69249">
        <ele>43</ele>
        <time>2019-07-14T10:59:43Z</time>
      </trkpt>
      <trkpt lat="47.81235" lon="-3.69247">
        <ele>43</ele>
        <time>2019-07-14T10:59:44Z</time>
      </trkpt>
      <trkpt lat="47.81229" lon="-3.69245">
        <ele>43</ele>
        <time>2019-07-14T10:59:45Z</time>
      </trkpt>
      <trkpt lat="47.81222" lon="-3.69244">
        <ele>43</ele>
        <time>2019-07-14T10:59:46Z</time>
      </trkpt>
      <trkpt lat="47.81216" lon="-3.69242">
        <ele>43</ele>
        <time>2019-07-14T10:59:47Z</time>
      </trkpt>
      <trkpt lat="47.8121" lon="-3.6924">
        <ele>43</ele>
        <time>2019-07-14T10:59:48Z</time>
      </trkpt>
      <trkpt lat="47.81204" lon="-3.69239">
        <ele>43</ele>
        <time>2019-07-14T10:59:49Z</time>
      </trkpt>
      <trkpt lat="47.81197" lon="-3.69237">
        <ele>44</ele>
        <time>2019-07-14T10:59:50Z</time>
      </trkpt>
      <trkpt lat="47.8119" lon="-3.69235">
        <ele>44</ele>
        <time>2019-07-14T10:59:51Z</time>
      </trkpt>
      <trkpt lat="47.81184" lon="-3.69233">
        <ele>44</ele>
        <time>2019-07-14T10:59:52Z</time>
      </trkpt>
      <trkpt lat="47.81178" lon="-3.69232">
        <ele>44</ele>
        <time>2019-07-14T10:59:53Z</time>
      </trkpt>
      <trkpt lat="47.81172" lon="-3.6923">
        <ele>44</ele>
        <time>2019-07-14T10:59:54Z</time>
      </trkpt>
      <trkpt lat="47.81166" lon="-3.69229">
        <ele>44</ele>
        <time>2019-07-14T10:59:55Z</time>
      </trkpt>
      <trkpt lat="47.8116" lon="-3.69227">
        <ele>44</ele>
        <time>2019-07-14T10:59:56Z</time>
      </trkpt>
      <trkpt lat="47.81154" lon="-3.69225">
        <ele>44</ele>
        <time>2019-07-14T10:59:57Z</time>
      </trkpt>
      <trkpt lat="47.81149" lon="-3.69223">
        <ele>44</ele>
        <time>2019-07-14T10:59:58Z</time>
      </trkpt>
      <trkpt lat="47.81143" lon="-3.69221">
        <ele>43</ele>
        <time>2019-07-14T10:59:59Z</time>
      </trkpt>
      <trkpt lat="47.81136" lon="-3.69219">
        <ele>43</ele>
        <time>2019-07-14T11:00:00Z</time>
      </trkpt>
      <trkpt lat="47.8113" lon="-3.69216">
        <ele>43</ele>
        <time>2019-07-14T11:00:01Z</time>
      </trkpt>
      <trkpt lat="47.81124" lon="-3.69212">
        <ele>43</ele>
        <time>2019-07-14T11:00:02Z</time>
      </trkpt>
      <trkpt lat="47.81119" lon="-3.69208">
        <ele>43</ele>
        <time>2019-07-14T11:00:03Z</time>
      </trkpt>
      <trkpt lat="47.81113" lon="-3.69204">
        <ele>43</ele>
        <time>2019-07-14T11:00:04Z</time>
      </trkpt>
      <trkpt lat="47.81107" lon="-3.69199">
        <ele>43</ele>
        <time>2019-07-14T11:00:05Z</time>
      </trkpt>
      <trkpt lat="47.81102" lon="-3.69193">
        <ele>43</ele>
        <time>2019-07-14T11:00:06Z</time>
      </trkpt>
      <trkpt lat="47.81096" lon="-3.69188">
        <ele>43</ele>
        <time>2019-07-14T11:00:07Z</time>
      </trkpt>
      <trkpt lat="47.81091" lon="-3.69182">
        <ele>43</ele>
        <time>2019-07-14T11:00:08Z</time>
      </trkpt>
      <trkpt lat="47.81085" lon="-3.69177">
        <ele>43</ele>
        <time>2019-07-14T11:00:09Z</time>
      </trkpt>
      <trkpt lat="47.81079" lon="-3.69171">
        <ele>43</ele>
        <time>2019-07-14T11:00:10Z</time>
      </trkpt>
      <trkpt lat="47.81074" lon="-3.69164">
        <ele>43</ele>
        <time>2019-07-14T11:00:11Z</time>
      </trkpt>
      <trkpt lat="47.81068" lon="-3.69159">
        <ele>43</ele>
        <time>2019-07-14T11:00:12Z</time>
      </trkpt>
      <trkpt lat="47.81063" lon="-3.69153">
        <ele>43</ele>
        <time>2019-07-14T11:00:13Z</time>
      </trkpt>
      <trkpt lat="47.81057" lon="-3.69147">
        <ele>43</ele>
        <time>2019-07-14T11:00:14Z</time>
      </trkpt>
      <trkpt lat="47.81052" lon="-3.69141">
        <ele>43</ele>
        <time>2019-07-14T11:00:15Z</time>
      </trkpt>
      <trkpt lat="47.81047" lon="-3.69136">
        <ele>44</ele>
        <time>2019-07-14T11:00:16Z</time>
      </trkpt>
      <trkpt lat="47.81042" lon="-3.6913">
        <ele>44</ele>
        <time>2019-07-14T11:00:17Z</time>
      </trkpt>
      <trkpt lat="47.81037" lon="-3.69124">
        <ele>44</ele>
        <time>2019-07-14T11:00:18Z</time>
      </trkpt>
      <trkpt lat="47.81032" lon="-3.69119">
        <ele>44</ele>
        <time>2019-07-14T11:00:19Z</time>
      </trkpt>
      <trkpt lat="47.81027" lon="-3.69115">
        <ele>44</ele>
        <time>2019-07-14T11:00:20Z</time>
      </trkpt>
      <trkpt lat="47.81022" lon="-3.69113">
        <ele>44</ele>
        <time>2019-07-14T11:00:21Z</time>
      </trkpt>
      <trkpt lat="47.81016" lon="-3.69111">
        <ele>44</ele>
        <time>2019-07-14T11:00:22Z</time>
      </trkpt>
      <trkpt lat="47.81011" lon="-3.69109">
        <ele>44</ele>
        <time>2019-07-14T11:00:23Z</time>
      </trkpt>
      <trkpt lat="47.81006" lon="-3.69107">
        <ele>44</ele>
        <time>2019-07-14T11:00:24Z</time>
      </trkpt>
      <trkpt lat="47.81" lon="-3.69106">
        <ele>44</ele>
        <time>2019-07-14T11:00:25Z</time>
      </trkpt>
      <trkpt lat="47.80996" lon="-3.69107">
        <ele>44</ele>
        <time>2019-07-14T11:00:26Z</time>
      </trkpt>
      <trkpt lat="47.80991" lon="-3.69108">
        <ele>44</ele>
        <time>2019-07-14T11:00:27Z</time>
      </trkpt>
      <trkpt lat="47.80986" lon="-3.69111">
        <ele>44</ele>
        <time>2019-07-14T11:00:28Z</time>
      </trkpt>
      <trkpt lat="47.80982" lon="-3.69114">
        <ele>44</ele>
        <time>2019-07-14T11:00:29Z</time>
      </trkpt>
      <trkpt lat="47.80978" lon="-3.69119">
        <ele>44</ele>
        <time>2019-07-14T11:00:30Z</time>
      </trkpt>
      <trkpt lat="47.80974" lon="-3.69125">
        <ele>44</ele>
        <time>2019-07-14T11:00:31Z</time>
      </trkpt>
      <trkpt lat="47.80972" lon="-3.69131">
        <ele>43</ele>
        <time>2019-07-14T11:00:32Z</time>
      </trkpt>
      <trkpt lat="47.80969" lon="-3.69137">
        <ele>43</ele>
        <time>2019-07-14T11:00:33Z</time>
      </trkpt>
      <trkpt lat="47.80969" lon="-3.69137">
        <ele>43</ele>
        <time>2019-07-14T11:00:35Z</time>
      </trkpt>
      <trkpt lat="47.80969" lon="-3.69137">
        <ele>43</ele>
        <time>2019-07-14T11:00:36Z</time>
      </trkpt>
      <trkpt lat="47.80953" lon="-3.69149">
        <ele>43</ele>
        <time>2019-07-14T11:00:37Z</time>
      </trkpt>
      <trkpt lat="47.80948" lon="-3.69148">
        <ele>43</ele>
        <time>2019-07-14T11:00:38Z</time>
      </trkpt>
      <trkpt lat="47.80943" lon="-3.69146">
        <ele>43</ele>
        <time>2019-07-14T11:00:39Z</time>
      </trkpt>
      <trkpt lat="47.80938" lon="-3.69144">
        <ele>43</ele>
        <time>2019-07-14T11:00:40Z</time>
      </trkpt>
      <trkpt lat="47.80933" lon="-3.69143">
        <ele>42</ele>
        <time>2019-07-14T11:00:41Z</time>
      </trkpt>
      <trkpt lat="47.80928" lon="-3.69142">
        <ele>42</ele>
        <time>2019-07-14T11:00:42Z</time>
      </trkpt>
      <trkpt lat="47.80923" lon="-3.69141">
        <ele>42</ele>
        <time>2019-07-14T11:00:43Z</time>
      </trkpt>
      <trkpt lat="47.80918" lon="-3.6914">
        <ele>42</ele>
        <time>2019-07-14T11:00:44Z</time>
      </trkpt>
      <trkpt lat="47.80913" lon="-3.6914">
        <ele>42</ele>
        <time>2019-07-14T11:00:45Z</time>
      </trkpt>
      <trkpt lat="47.80906" lon="-3.6914">
        <ele>42</ele>
        <time>2019-07-14T11:00:46Z</time>
      </trkpt>
      <trkpt lat="47.809" lon="-3.6914">
        <ele>42</ele>
        <time>2019-07-14T11:00:47Z</time>
      </trkpt>
      <trkpt lat="47.80893" lon="-3.69139">
        <ele>42</ele>
        <time>2019-07-14T11:00:48Z</time>
      </trkpt>
      <trkpt lat="47.80885" lon="-3.69138">
        <ele>41</ele>
        <time>2019-07-14T11:00:49Z</time>
      </trkpt>
      <trkpt lat="47.80878" lon="-3.69139">
        <ele>41</ele>
        <time>2019-07-14T11:00:50Z</time>
      </trkpt>
      <trkpt lat="47.80871" lon="-3.69141">
        <ele>41</ele>
        <time>2019-07-14T11:00:51Z</time>
      </trkpt>
      <trkpt lat="47.80863" lon="-3.69143">
        <ele>40</ele>
        <time>2019-07-14T11:00:52Z</time>
      </trkpt>
      <trkpt lat="47.80856" lon="-3.69142">
        <ele>39</ele>
        <time>2019-07-14T11:00:53Z</time>
      </trkpt>
      <trkpt lat="47.80848" lon="-3.69141">
        <ele>39</ele>
        <time>2019-07-14T11:00:54Z</time>
      </trkpt>
      <trkpt lat="47.80841" lon="-3.69139">
        <ele>38</ele>
        <time>2019-07-14T11:00:55Z</time>
      </trkpt>
      <trkpt lat="47.80834" lon="-3.69137">
        <ele>37</ele>
        <time>2019-07-14T11:00:56Z</time>
      </trkpt>
      <trkpt lat="47.80827" lon="-3.69134">
        <ele>36</ele>
        <time>2019-07-14T11:00:57Z</time>
      </trkpt>
      <trkpt lat="47.80821" lon="-3.69128">
        <ele>35</ele>
        <time>2019-07-14T11:00:58Z</time>
      </trkpt>
      <trkpt lat="47.80815" lon="-3.69121">
        <ele>35</ele>
        <time>2019-07-14T11:00:59Z</time>
      </trkpt>
      <trkpt lat="47.80811" lon="-3.69113">
        <ele>34</ele>
        <time>2019-07-14T11:01:00Z</time>
      </trkpt>
      <trkpt lat="47.80808" lon="-3.69105">
        <ele>34</ele>
        <time>2019-07-14T11:01:01Z</time>
      </trkpt>
      <trkpt lat="47.80806" lon="-3.69098">
        <ele>34</ele>
        <time>2019-07-14T11:01:02Z</time>
      </trkpt>
      <trkpt lat="47.80803" lon="-3.69091">
        <ele>34</ele>
        <time>2019-07-14T11:01:03Z</time>
      </trkpt>
      <trkpt lat="47.80801" lon="-3.69087">
        <ele>34</ele>
        <time>2019-07-14T11:01:04Z</time>
      </trkpt>
      <trkpt lat="47.80799" lon="-3.69085">
        <ele>34</ele>
        <time>2019-07-14T11:01:05Z</time>
      </trkpt>
      <trkpt lat="47.80797" lon="-3.69084">
        <ele>35</ele>
        <time>2019-07-14T11:01:06Z</time>
      </trkpt>
      <trkpt lat="47.80796" lon="-3.69086">
        <ele>35</ele>
        <time>2019-07-14T11:01:07Z</time>
      </trkpt>
      <trkpt lat="47.80795" lon="-3.69088">
        <ele>35</ele>
        <time>2019-07-14T11:01:08Z</time>
      </trkpt>
      <trkpt lat="47.80794" lon="-3.69093">
        <ele>35</ele>
        <time>2019-07-14T11:01:09Z</time>
      </trkpt>
      <trkpt lat="47.80793" lon="-3.69097">
        <ele>35</ele>
        <time>2019-07-14T11:01:10Z</time>
      </trkpt>
      <trkpt lat="47.80793" lon="-3.69101">
        <ele>35</ele>
        <time>2019-07-14T11:01:11Z</time>
      </trkpt>
      <trkpt lat="47.80793" lon="-3.69103">
        <ele>35</ele>
        <time>2019-07-14T11:01:12Z</time>
      </trkpt>
      <trkpt lat="47.80793" lon="-3.69105">
        <ele>35</ele>
        <time>2019-07-14T11:01:13Z</time>
      </trkpt>
      <trkpt lat="47.80793" lon="-3.69108">
        <ele>35</ele>
        <time>2019-07-14T11:01:14Z</time>
      </trkpt>
      <trkpt lat="47.80793" lon="-3.69112">
        <ele>35</ele>
        <time>2019-07-14T11:01:15Z</time>
      </trkpt>
      <trkpt lat="47.80795" lon="-3.69116">
        <ele>35</ele>
        <time>2019-07-14T11:01:16Z</time>
      </trkpt>
      <trkpt lat="47.80796" lon="-3.6912">
        <ele>35</ele>
        <time>2019-07-14T11:01:17Z</time>
      </trkpt>
      <trkpt lat="47.80797" lon="-3.69125">
        <ele>35</ele>
        <time>2019-07-14T11:01:18Z</time>
      </trkpt>
      <trkpt lat="47.80799" lon="-3.69131">
        <ele>35</ele>
        <time>2019-07-14T11:01:19Z</time>
      </trkpt>
      <trkpt lat="47.80801" lon="-3.69138">
        <ele>35</ele>
        <time>2019-07-14T11:01:20Z</time>
      </trkpt>
      <trkpt lat="47.80802" lon="-3.69145">
        <ele>35</ele>
        <time>2019-07-14T11:01:21Z</time>
      </trkpt>
      <trkpt lat="47.80803" lon="-3.69152">
        <ele>35</ele>
        <time>2019-07-14T11:01:22Z</time>
      </trkpt>
      <trkpt lat="47.80803" lon="-3.69157">
        <ele>35</ele>
        <time>2019-07-14T11:01:23Z</time>
      </trkpt>
      <trkpt lat="47.80801" lon="-3.69162">
        <ele>35</ele>
        <time>2019-07-14T11:01:24Z</time>
      </trkpt>
      <trkpt lat="47.80798" lon="-3.69165">
        <ele>35</ele>
        <time>2019-07-14T11:01:25Z</time>
      </trkpt>
      <trkpt lat="47.80794" lon="-3.69168">
        <ele>35</ele>
        <time>2019-07-14T11:01:26Z</time>
      </trkpt>
      <trkpt lat="47.8079" lon="-3.69172">
        <ele>35</ele>
        <time>2019-07-14T11:01:27Z</time>
      </trkpt>
      <trkpt lat="47.80786" lon="-3.69175">
        <ele>36</ele>
        <time>2019-07-14T11:01:28Z</time>
      </trkpt>
      <trkpt lat="47.80782" lon="-3.69178">
        <ele>36</ele>
        <time>2019-07-14T11:01:29Z</time>
      </trkpt>
      <trkpt lat="47.80779" lon="-3.69182">
        <ele>36</ele>
        <time>2019-07-14T11:01:30Z</time>
      </trkpt>
      <trkpt lat="47.80776" lon="-3.69186">
        <ele>36</ele>
        <time>2019-07-14T11:01:31Z</time>
      </trkpt>
      <trkpt lat="47.80774" lon="-3.6919">
        <ele>36</ele>
        <time>2019-07-14T11:01:32Z</time>
      </trkpt>
      <trkpt lat="47.80772" lon="-3.69195">
        <ele>36</ele>
        <time>2019-07-14T11:01:33Z</time>
      </trkpt>
      <trkpt lat="47.80769" lon="-3.692">
        <ele>36</ele>
        <time>2019-07-14T11:01:34Z</time>
      </trkpt>
      <trkpt lat="47.80768" lon="-3.69205">
        <ele>36</ele>
        <time>2019-07-14T11:01:35Z</time>
      </trkpt>
      <trkpt lat="47.80767" lon="-3.69209">
        <ele>36</ele>
        <time>2019-07-14T11:01:36Z</time>
      </trkpt>
      <trkpt lat="47.80766" lon="-3.69213">
        <ele>36</ele>
        <time>2019-07-14T11:01:37Z</time>
      </trkpt>
      <trkpt lat="47.80765" lon="-3.69218">
        <ele>36</ele>
        <time>2019-07-14T11:01:38Z</time>
      </trkpt>
      <trkpt lat="47.80765" lon="-3.69222">
        <ele>36</ele>
        <time>2019-07-14T11:01:39Z</time>
      </trkpt>
      <trkpt lat="47.80764" lon="-3.69226">
        <ele>36</ele>
        <time>2019-07-14T11:01:40Z</time>
      </trkpt>
      <trkpt lat="47.80762" lon="-3.6923">
        <ele>36</ele>
        <time>2019-07-14T11:01:41Z</time>
      </trkpt>
      <trkpt lat="47.8076" lon="-3.69234">
        <ele>36</ele>
        <time>2019-07-14T11:01:42Z</time>
      </trkpt>
      <trkpt lat="47.80759" lon="-3.69237">
        <ele>36</ele>
        <time>2019-07-14T11:01:43Z</time>
      </trkpt>
      <trkpt lat="47.80756" lon="-3.69241">
        <ele>36</ele>
        <time>2019-07-14T11:01:44Z</time>
      </trkpt>
      <trkpt lat="47.80755" lon="-3.69244">
        <ele>36</ele>
        <time>2019-07-14T11:01:45Z</time>
      </trkpt>
      <trkpt lat="47.80753" lon="-3.69247">
        <ele>36</ele>
        <time>2019-07-14T11:01:46Z</time>
      </trkpt>
      <trkpt lat="47.80753" lon="-3.69249">
        <ele>36</ele>
        <time>2019-07-14T11:01:47Z</time>
      </trkpt>
      <trkpt lat="47.80753" lon="-3.69253">
        <ele>36</ele>
        <time>2019-07-14T11:01:48Z</time>
      </trkpt>
      <trkpt lat="47.80753" lon="-3.69256">
        <ele>36</ele>
        <time>2019-07-14T11:01:49Z</time>
      </trkpt>
      <trkpt lat="47.80752" lon="-3.69259">
        <ele>36</ele>
        <time>2019-07-14T11:01:50Z</time>
      </trkpt>
      <trkpt lat="47.80752" lon="-3.69262">
        <ele>36</ele>
        <time>2019-07-14T11:01:51Z</time>
      </trkpt>
      <trkpt lat="47.80752" lon="-3.69262">
        <ele>36</ele>
        <time>2019-07-14T11:01:53Z</time>
      </trkpt>
      <trkpt lat="47.80752" lon="-3.69262">
        <ele>36</ele>
        <time>2019-07-14T11:01:54Z</time>
      </trkpt>
      <trkpt lat="47.80756" lon="-3.69276">
        <ele>36</ele>
        <time>2019-07-14T11:01:55Z</time>
      </trkpt>
      <trkpt lat="47.80756" lon="-3.69279">
        <ele>36</ele>
        <time>2019-07-14T11:01:56Z</time>
      </trkpt>
      <trkpt lat="47.80757" lon="-3.69282">
        <ele>36</ele>
        <time>2019-07-14T11:01:57Z</time>
      </trkpt>
      <trkpt lat="47.80758" lon="-3.69286">
        <ele>36</ele>
        <time>2019-07-14T11:01:58Z</time>
      </trkpt>
      <trkpt lat="47.80759" lon="-3.6929">
        <ele>35</ele>
        <time>2019-07-14T11:01:59Z</time>
      </trkpt>
      <trkpt lat="47.8076" lon="-3.69294">
        <ele>35</ele>
        <time>2019-07-14T11:02:00Z</time>
      </trkpt>
      <trkpt lat="47.80761" lon="-3.69299">
        <ele>35</ele>
        <time>2019-07-14T11:02:01Z</time>
      </trkpt>
      <trkpt lat="47.80762" lon="-3.69303">
        <ele>34</ele>
        <time>2019-07-14T11:02:02Z</time>
      </trkpt>
      <trkpt lat="47.80762" lon="-3.69307">
        <ele>34</ele>
        <time>2019-07-14T11:02:03Z</time>
      </trkpt>
      <trkpt lat="47.80763" lon="-3.69312">
        <ele>33</ele>
        <time>2019-07-14T11:02:04Z</time>
      </trkpt>
      <trkpt lat="47.80763" lon="-3.69317">
        <ele>32</ele>
        <time>2019-07-14T11:02:05Z</time>
      </trkpt>
      <trkpt lat="47.80764" lon="-3.69322">
        <ele>31</ele>
        <time>2019-07-14T11:02:06Z</time>
      </trkpt>
      <trkpt lat="47.80766" lon="-3.69326">
        <ele>30</ele>
        <time>2019-07-14T11:02:07Z</time>
      </trkpt>
      <trkpt lat="47.80767" lon="-3.69332">
        <ele>28</ele>
        <time>2019-07-14T11:02:08Z</time>
      </trkpt>
      <trkpt lat="47.80768" lon="-3.69338">
        <ele>27</ele>
        <time>2019-07-14T11:02:09Z</time>
      </trkpt>
      <trkpt lat="47.8077" lon="-3.69344">
        <ele>25</ele>
        <time>2019-07-14T11:02:10Z</time>
      </trkpt>
      <trkpt lat="47.80772" lon="-3.6935">
        <ele>24</ele>
        <time>2019-07-14T11:02:11Z</time>
      </trkpt>
      <trkpt lat="47.80773" lon="-3.69356">
        <ele>22</ele>
        <time>2019-07-14T11:02:12Z</time>
      </trkpt>
      <trkpt lat="47.80775" lon="-3.69362">
        <ele>21</ele>
        <time>2019-07-14T11:02:13Z</time>
      </trkpt>
      <trkpt lat="47.80776" lon="-3.69369">
        <ele>20</ele>
        <time>2019-07-14T11:02:14Z</time>
      </trkpt>
      <trkpt lat="47.80778" lon="-3.69375">
        <ele>18</ele>
        <time>2019-07-14T11:02:15Z</time>
      </trkpt>
      <trkpt lat="47.8078" lon="-3.69381">
        <ele>17</ele>
        <time>2019-07-14T11:02:16Z</time>
      </trkpt>
      <trkpt lat="47.80782" lon="-3.69386">
        <ele>16</ele>
        <time>2019-07-14T11:02:17Z</time>
      </trkpt>
      <trkpt lat="47.80784" lon="-3.69392">
        <ele>14</ele>
        <time>2019-07-14T11:02:18Z</time>
      </trkpt>
      <trkpt lat="47.80785" lon="-3.69398">
        <ele>13</ele>
        <time>2019-07-14T11:02:19Z</time>
      </trkpt>
      <trkpt lat="47.80787" lon="-3.69405">
        <ele>12</ele>
        <time>2019-07-14T11:02:20Z</time>
      </trkpt>
      <trkpt lat="47.80788" lon="-3.69411">
        <ele>10</ele>
        <time>2019-07-14T11:02:21Z</time>
      </trkpt>
      <trkpt lat="47.80789" lon="-3.69417">
        <ele>9</ele>
        <time>2019-07-14T11:02:22Z</time>
      </trkpt>
      <trkpt lat="47.8079" lon="-3.69423">
        <ele>7</ele>
        <time>2019-07-14T11:02:23Z</time>
      </trkpt>
      <trkpt lat="47.80791" lon="-3.69428">
        <ele>7</ele>
        <time>2019-07-14T11:02:24Z</time>
      </trkpt>
      <trkpt lat="47.80792" lon="-3.69433">
        <ele>6</ele>
        <time>2019-07-14T11:02:25Z</time>
      </trkpt>
      <trkpt lat="47.80793" lon="-3.6944">
        <ele>7</ele>
        <time>2019-07-14T11:02:26Z</time>
      </trkpt>
      <trkpt lat="47.80793" lon="-3.69446">
        <ele>7</ele>
        <time>2019-07-14T11:02:27Z</time>
      </trkpt>
      <trkpt lat="47.80793" lon="-3.69452">
        <ele>8</ele>
        <time>2019-07-14T11:02:28Z</time>
      </trkpt>
      <trkpt lat="47.80794" lon="-3.69458">
        <ele>9</ele>
        <time>2019-07-14T11:02:29Z</time>
      </trkpt>
      <trkpt lat="47.80793" lon="-3.69464">
        <ele>10</ele>
        <time>2019-07-14T11:02:30Z</time>
      </trkpt>
      <trkpt lat="47.80792" lon="-3.69471">
        <ele>11</ele>
        <time>2019-07-14T11:02:31Z</time>
      </trkpt>
      <trkpt lat="47.80792" lon="-3.69476">
        <ele>12</ele>
        <time>2019-07-14T11:02:32Z</time>
      </trkpt>
      <trkpt lat="47.8079" lon="-3.69482">
        <ele>13</ele>
        <time>2019-07-14T11:02:33Z</time>
      </trkpt>
      <trkpt lat="47.80789" lon="-3.69486">
        <ele>14</ele>
        <time>2019-07-14T11:02:34Z</time>
      </trkpt>
      <trkpt lat="47.80788" lon="-3.69492">
        <ele>14</ele>
        <time>2019-07-14T11:02:35Z</time>
      </trkpt>
      <trkpt lat="47.80786" lon="-3.69497">
        <ele>15</ele>
        <time>2019-07-14T11:02:36Z</time>
      </trkpt>
      <trkpt lat="47.80785" lon="-3.69501">
        <ele>16</ele>
        <time>2019-07-14T11:02:37Z</time>
      </trkpt>
      <trkpt lat="47.80784" lon="-3.69507">
        <ele>17</ele>
        <time>2019-07-14T11:02:38Z</time>
      </trkpt>
      <trkpt lat="47.80783" lon="-3.69511">
        <ele>17</ele>
        <time>2019-07-14T11:02:39Z</time>
      </trkpt>
      <trkpt lat="47.80783" lon="-3.69516">
        <ele>18</ele>
        <time>2019-07-14T11:02:40Z</time>
      </trkpt>
      <trkpt lat="47.80783" lon="-3.69521">
        <ele>19</ele>
        <time>2019-07-14T11:02:41Z</time>
      </trkpt>
      <trkpt lat="47.80783" lon="-3.69526">
        <ele>19</ele>
        <time>2019-07-14T11:02:42Z</time>
      </trkpt>
      <trkpt lat="47.80784" lon="-3.6953">
        <ele>20</ele>
        <time>2019-07-14T11:02:43Z</time>
      </trkpt>
      <trkpt lat="47.80784" lon="-3.69534">
        <ele>20</ele>
        <time>2019-07-14T11:02:44Z</time>
      </trkpt>
      <trkpt lat="47.80784" lon="-3.69538">
        <ele>20</ele>
        <time>2019-07-14T11:02:45Z</time>
      </trkpt>
      <trkpt lat="47.80785" lon="-3.69543">
        <ele>21</ele>
        <time>2019-07-14T11:02:46Z</time>
      </trkpt>
      <trkpt lat="47.80784" lon="-3.69547">
        <ele>21</ele>
        <time>2019-07-14T11:02:47Z</time>
      </trkpt>
      <trkpt lat="47.80784" lon="-3.69552">
        <ele>21</ele>
        <time>2019-07-14T11:02:48Z</time>
      </trkpt>
      <trkpt lat="47.80783" lon="-3.69556">
        <ele>21</ele>
        <time>2019-07-14T11:02:49Z</time>
      </trkpt>
      <trkpt lat="47.80782" lon="-3.6956">
        <ele>21</ele>
        <time>2019-07-14T11:02:50Z</time>
      </trkpt>
      <trkpt lat="47.80782" lon="-3.69564">
        <ele>22</ele>
        <time>2019-07-14T11:02:51Z</time>
      </trkpt>
      <trkpt lat="47.8078" lon="-3.6957">
        <ele>22</ele>
        <time>2019-07-14T11:02:52Z</time>
      </trkpt>
      <trkpt lat="47.80779" lon="-3.69574">
        <ele>22</ele>
        <time>2019-07-14T11:02:53Z</time>
      </trkpt>
      <trkpt lat="47.80777" lon="-3.69578">
        <ele>22</ele>
        <time>2019-07-14T11:02:54Z</time>
      </trkpt>
      <trkpt lat="47.80776" lon="-3.69581">
        <ele>22</ele>
        <time>2019-07-14T11:02:55Z</time>
      </trkpt>
      <trkpt lat="47.80774" lon="-3.69584">
        <ele>22</ele>
        <time>2019-07-14T11:02:56Z</time>
      </trkpt>
      <trkpt lat="47.80772" lon="-3.69588">
        <ele>22</ele>
        <time>2019-07-14T11:02:57Z</time>
      </trkpt>
      <trkpt lat="47.8077" lon="-3.69591">
        <ele>22</ele>
        <time>2019-07-14T11:02:58Z</time>
      </trkpt>
      <trkpt lat="47.80768" lon="-3.69594">
        <ele>23</ele>
        <time>2019-07-14T11:02:59Z</time>
      </trkpt>
      <trkpt lat="47.80766" lon="-3.69596">
        <ele>23</ele>
        <time>2019-07-14T11:03:00Z</time>
      </trkpt>
      <trkpt lat="47.80762" lon="-3.69599">
        <ele>23</ele>
        <time>2019-07-14T11:03:01Z</time>
      </trkpt>
      <trkpt lat="47.8076" lon="-3.69601">
        <ele>23</ele>
        <time>2019-07-14T11:03:02Z</time>
      </trkpt>
      <trkpt lat="47.80756" lon="-3.69604">
        <ele>23</ele>
        <time>2019-07-14T11:03:03Z</time>
      </trkpt>
      <trkpt lat="47.80754" lon="-3.69606">
        <ele>23</ele>
        <time>2019-07-14T11:03:04Z</time>
      </trkpt>
      <trkpt lat="47.8075" lon="-3.69608">
        <ele>23</ele>
        <time>2019-07-14T11:03:05Z</time>
      </trkpt>
      <trkpt lat="47.80746" lon="-3.69611">
        <ele>23</ele>
        <time>2019-07-14T11:03:06Z</time>
      </trkpt>
      <trkpt lat="47.80742" lon="-3.69614">
        <ele>24</ele>
        <time>2019-07-14T11:03:07Z</time>
      </trkpt>
      <trkpt lat="47.80738" lon="-3.69616">
        <ele>24</ele>
        <time>2019-07-14T11:03:08Z</time>
      </trkpt>
      <trkpt lat="47.80733" lon="-3.69619">
        <ele>24</ele>
        <time>2019-07-14T11:03:09Z</time>
      </trkpt>
      <trkpt lat="47.80729" lon="-3.69622">
        <ele>24</ele>
        <time>2019-07-14T11:03:10Z</time>
      </trkpt>
      <trkpt lat="47.80725" lon="-3.69624">
        <ele>24</ele>
        <time>2019-07-14T11:03:11Z</time>
      </trkpt>
      <trkpt lat="47.80721" lon="-3.69626">
        <ele>24</ele>
        <time>2019-07-14T11:03:12Z</time>
      </trkpt>
      <trkpt lat="47.80717" lon="-3.69628">
        <ele>24</ele>
        <time>2019-07-14T11:03:13Z</time>
      </trkpt>
      <trkpt lat="47.80713" lon="-3.6963">
        <ele>24</ele>
        <time>2019-07-14T11:03:14Z</time>
      </trkpt>
      <trkpt lat="47.8071" lon="-3.69633">
        <ele>25</ele>
        <time>2019-07-14T11:03:15Z</time>
      </trkpt>
      <trkpt lat="47.80707" lon="-3.69636">
        <ele>25</ele>
        <time>2019-07-14T11:03:16Z</time>
      </trkpt>
      <trkpt lat="47.80703" lon="-3.69638">
        <ele>25</ele>
        <time>2019-07-14T11:03:17Z</time>
      </trkpt>
      <trkpt lat="47.80699" lon="-3.6964">
        <ele>25</ele>
        <time>2019-07-14T11:03:18Z</time>
      </trkpt>
      <trkpt lat="47.80695" lon="-3.69641">
        <ele>25</ele>
        <time>2019-07-14T11:03:19Z</time>
      </trkpt>
      <trkpt lat="47.80691" lon="-3.69643">
        <ele>25</ele>
        <time>2019-07-14T11:03:20Z</time>
      </trkpt>
      <trkpt lat="47.80687" lon="-3.69645">
        <ele>25</ele>
        <time>2019-07-14T11:03:21Z</time>
      </trkpt>
      <trkpt lat="47.80683" lon="-3.69648">
        <ele>25</ele>
        <time>2019-07-14T11:03:22Z</time>
      </trkpt>
      <trkpt lat="47.8068" lon="-3.69651">
        <ele>25</ele>
        <time>2019-07-14T11:03:23Z</time>
      </trkpt>
      <trkpt lat="47.80676" lon="-3.69655">
        <ele>25</ele>
        <time>2019-07-14T11:03:24Z</time>
      </trkpt>
      <trkpt lat="47.80672" lon="-3.69658">
        <ele>26</ele>
        <time>2019-07-14T11:03:25Z</time>
      </trkpt>
      <trkpt lat="47.80669" lon="-3.69661">
        <ele>26</ele>
        <time>2019-07-14T11:03:26Z</time>
      </trkpt>
      <trkpt lat="47.80665" lon="-3.69664">
        <ele>26</ele>
        <time>2019-07-14T11:03:27Z</time>
      </trkpt>
      <trkpt lat="47.80661" lon="-3.69666">
        <ele>27</ele>
        <time>2019-07-14T11:03:28Z</time>
      </trkpt>
      <trkpt lat="47.80657" lon="-3.69668">
        <ele>28</ele>
        <time>2019-07-14T11:03:29Z</time>
      </trkpt>
      <trkpt lat="47.80654" lon="-3.69668">
        <ele>28</ele>
        <time>2019-07-14T11:03:30Z</time>
      </trkpt>
      <trkpt lat="47.8065" lon="-3.69668">
        <ele>29</ele>
        <time>2019-07-14T11:03:31Z</time>
      </trkpt>
      <trkpt lat="47.80646" lon="-3.69667">
        <ele>30</ele>
        <time>2019-07-14T11:03:32Z</time>
      </trkpt>
      <trkpt lat="47.80643" lon="-3.69665">
        <ele>30</ele>
        <time>2019-07-14T11:03:33Z</time>
      </trkpt>
      <trkpt lat="47.8064" lon="-3.69662">
        <ele>31</ele>
        <time>2019-07-14T11:03:34Z</time>
      </trkpt>
      <trkpt lat="47.80637" lon="-3.69658">
        <ele>31</ele>
        <time>2019-07-14T11:03:35Z</time>
      </trkpt>
      <trkpt lat="47.80634" lon="-3.69653">
        <ele>32</ele>
        <time>2019-07-14T11:03:36Z</time>
      </trkpt>
      <trkpt lat="47.8063" lon="-3.69648">
        <ele>33</ele>
        <time>2019-07-14T11:03:37Z</time>
      </trkpt>
      <trkpt lat="47.80627" lon="-3.69643">
        <ele>33</ele>
        <time>2019-07-14T11:03:38Z</time>
      </trkpt>
      <trkpt lat="47.80623" lon="-3.69638">
        <ele>34</ele>
        <time>2019-07-14T11:03:39Z</time>
      </trkpt>
      <trkpt lat="47.80619" lon="-3.69633">
        <ele>34</ele>
        <time>2019-07-14T11:03:40Z</time>
      </trkpt>
      <trkpt lat="47.80616" lon="-3.69628">
        <ele>35</ele>
        <time>2019-07-14T11:03:41Z</time>
      </trkpt>
      <trkpt lat="47.80613" lon="-3.69623">
        <ele>35</ele>
        <time>2019-07-14T11:03:42Z</time>
      </trkpt>
      <trkpt lat="47.8061" lon="-3.69618">
        <ele>36</ele>
        <time>2019-07-14T11:03:43Z</time>
      </trkpt>
      <trkpt lat="47.80607" lon="-3.69615">
        <ele>36</ele>
        <time>2019-07-14T11:03:44Z</time>
      </trkpt>
      <trkpt lat="47.80604" lon="-3.69615">
        <ele>36</ele>
        <time>2019-07-14T11:03:45Z</time>
      </trkpt>
      <trkpt lat="47.80602" lon="-3.69616">
        <ele>37</ele>
        <time>2019-07-14T11:03:46Z</time>
      </trkpt>
      <trkpt lat="47.80601" lon="-3.69619">
        <ele>37</ele>
        <time>2019-07-14T11:03:47Z</time>
      </trkpt>
      <trkpt lat="47.806" lon="-3.69625">
        <ele>37</ele>
        <time>2019-07-14T11:03:48Z</time>
      </trkpt>
      <trkpt lat="47.80599" lon="-3.6963">
        <ele>37</ele>
        <time>2019-07-14T11:03:49Z</time>
      </trkpt>
      <trkpt lat="47.80597" lon="-3.69637">
        <ele>37</ele>
        <time>2019-07-14T11:03:50Z</time>
      </trkpt>
      <trkpt lat="47.80595" lon="-3.69644">
        <ele>38</ele>
        <time>2019-07-14T11:03:51Z</time>
      </trkpt>
      <trkpt lat="47.80592" lon="-3.69651">
        <ele>38</ele>
        <time>2019-07-14T11:03:52Z</time>
      </trkpt>
      <trkpt lat="47.80589" lon="-3.69658">
        <ele>38</ele>
        <time>2019-07-14T11:03:53Z</time>
      </trkpt>
      <trkpt lat="47.80587" lon="-3.69665">
        <ele>38</ele>
        <time>2019-07-14T11:03:54Z</time>
      </trkpt>
      <trkpt lat="47.80584" lon="-3.69672">
        <ele>39</ele>
        <time>2019-07-14T11:03:55Z</time>
      </trkpt>
      <trkpt lat="47.80582" lon="-3.69679">
        <ele>39</ele>
        <time>2019-07-14T11:03:56Z</time>
      </trkpt>
      <trkpt lat="47.8058" lon="-3.69686">
        <ele>39</ele>
        <time>2019-07-14T11:03:57Z</time>
      </trkpt>
      <trkpt lat="47.80577" lon="-3.69694">
        <ele>40</ele>
        <time>2019-07-14T11:03:58Z</time>
      </trkpt>
      <trkpt lat="47.80575" lon="-3.69702">
        <ele>40</ele>
        <time>2019-07-14T11:03:59Z</time>
      </trkpt>
      <trkpt lat="47.80573" lon="-3.69711">
        <ele>40</ele>
        <time>2019-07-14T11:04:00Z</time>
      </trkpt>
      <trkpt lat="47.80572" lon="-3.69719">
        <ele>41</ele>
        <time>2019-07-14T11:04:01Z</time>
      </trkpt>
      <trkpt lat="47.8057" lon="-3.69727">
        <ele>41</ele>
        <time>2019-07-14T11:04:02Z</time>
      </trkpt>
      <trkpt lat="47.80569" lon="-3.69736">
        <ele>41</ele>
        <time>2019-07-14T11:04:03Z</time>
      </trkpt>
      <trkpt lat="47.80568" lon="-3.69745">
        <ele>42</ele>
        <time>2019-07-14T11:04:04Z</time>
      </trkpt>
      <trkpt lat="47.80567" lon="-3.69754">
        <ele>42</ele>
        <time>2019-07-14T11:04:05Z</time>
      </trkpt>
      <trkpt lat="47.80566" lon="-3.69764">
        <ele>42</ele>
        <time>2019-07-14T11:04:06Z</time>
      </trkpt>
      <trkpt lat="47.80564" lon="-3.69774">
        <ele>42</ele>
        <time>2019-07-14T11:04:07Z</time>
      </trkpt>
      <trkpt lat="47.80562" lon="-3.69784">
        <ele>43</ele>
        <time>2019-07-14T11:04:08Z</time>
      </trkpt>
      <trkpt lat="47.8056" lon="-3.69793">
        <ele>43</ele>
        <time>2019-07-14T11:04:09Z</time>
      </trkpt>
      <trkpt lat="47.80558" lon="-3.69802">
        <ele>43</ele>
        <time>2019-07-14T11:04:10Z</time>
      </trkpt>
      <trkpt lat="47.80556" lon="-3.69812">
        <ele>43</ele>
        <time>2019-07-14T11:04:11Z</time>
      </trkpt>
      <trkpt lat="47.80553" lon="-3.69821">
        <ele>43</ele>
        <time>2019-07-14T11:04:12Z</time>
      </trkpt>
      <trkpt lat="47.80553" lon="-3.69829">
        <ele>43</ele>
        <time>2019-07-14T11:04:13Z</time>
      </trkpt>
      <trkpt lat="47.80552" lon="-3.69835">
        <ele>43</ele>
        <time>2019-07-14T11:04:14Z</time>
      </trkpt>
      <trkpt lat="47.80549" lon="-3.69838">
        <ele>43</ele>
        <time>2019-07-14T11:04:15Z</time>
      </trkpt>
      <trkpt lat="47.80546" lon="-3.69839">
        <ele>43</ele>
        <time>2019-07-14T11:04:16Z</time>
      </trkpt>
      <trkpt lat="47.80541" lon="-3.69841">
        <ele>43</ele>
        <time>2019-07-14T11:04:17Z</time>
      </trkpt>
      <trkpt lat="47.80536" lon="-3.69843">
        <ele>43</ele>
        <time>2019-07-14T11:04:18Z</time>
      </trkpt>
      <trkpt lat="47.80531" lon="-3.69845">
        <ele>43</ele>
        <time>2019-07-14T11:04:19Z</time>
      </trkpt>
      <trkpt lat="47.80527" lon="-3.69847">
        <ele>42</ele>
        <time>2019-07-14T11:04:20Z</time>
      </trkpt>
      <trkpt lat="47.80522" lon="-3.69849">
        <ele>42</ele>
        <time>2019-07-14T11:04:21Z</time>
      </trkpt>
      <trkpt lat="47.80518" lon="-3.69851">
        <ele>42</ele>
        <time>2019-07-14T11:04:22Z</time>
      </trkpt>
      <trkpt lat="47.80514" lon="-3.69854">
        <ele>42</ele>
        <time>2019-07-14T11:04:23Z</time>
      </trkpt>
      <trkpt lat="47.8051" lon="-3.69858">
        <ele>42</ele>
        <time>2019-07-14T11:04:24Z</time>
      </trkpt>
      <trkpt lat="47.80507" lon="-3.69862">
        <ele>42</ele>
        <time>2019-07-14T11:04:25Z</time>
      </trkpt>
      <trkpt lat="47.80505" lon="-3.69865">
        <ele>42</ele>
        <time>2019-07-14T11:04:26Z</time>
      </trkpt>
      <trkpt lat="47.80504" lon="-3.69867">
        <ele>42</ele>
        <time>2019-07-14T11:04:27Z</time>
      </trkpt>
      <trkpt lat="47.80503" lon="-3.69867">
        <ele>42</ele>
        <time>2019-07-14T11:04:28Z</time>
      </trkpt>
      <trkpt lat="47.80503" lon="-3.69868">
        <ele>42</ele>
        <time>2019-07-14T11:04:29Z</time>
      </trkpt>
      <trkpt lat="47.80503" lon="-3.69868">
        <ele>42</ele>
        <time>2019-07-14T11:04:30Z</time>
      </trkpt>
      <trkpt lat="47.80504" lon="-3.69868">
        <ele>42</ele>
        <time>2019-07-14T11:04:31Z</time>
      </trkpt>
      <trkpt lat="47.80505" lon="-3.69866">
        <ele>43</ele>
        <time>2019-07-14T11:04:32Z</time>
      </trkpt>
      <trkpt lat="47.80508" lon="-3.69864">
        <ele>43</ele>
        <time>2019-07-14T11:04:33Z</time>
      </trkpt>
      <trkpt lat="47.80511" lon="-3.69862">
        <ele>43</ele>
        <time>2019-07-14T11:04:34Z</time>
      </trkpt>
      <trkpt lat="47.80513" lon="-3.6986">
        <ele>43</ele>
        <time>2019-07-14T11:04:35Z</time>
      </trkpt>
      <trkpt lat="47.80516" lon="-3.69859">
        <ele>43</ele>
        <time>2019-07-14T11:04:36Z</time>
      </trkpt>
      <trkpt lat="47.80518" lon="-3.69858">
        <ele>43</ele>
        <time>2019-07-14T11:04:37Z</time>
      </trkpt>
      <trkpt lat="47.80522" lon="-3.69856">
        <ele>43</ele>
        <time>2019-07-14T11:04:38Z</time>
      </trkpt>
      <trkpt lat="47.80525" lon="-3.69855">
        <ele>43</ele>
        <time>2019-07-14T11:04:39Z</time>
      </trkpt>
      <trkpt lat="47.80529" lon="-3.69853">
        <ele>43</ele>
        <time>2019-07-14T11:04:40Z</time>
      </trkpt>
      <trkpt lat="47.80533" lon="-3.69851">
        <ele>43</ele>
        <time>2019-07-14T11:04:41Z</time>
      </trkpt>
      <trkpt lat="47.80537" lon="-3.69848">
        <ele>44</ele>
        <time>2019-07-14T11:04:42Z</time>
      </trkpt>
      <trkpt lat="47.80541" lon="-3.69843">
        <ele>44</ele>
        <time>2019-07-14T11:04:43Z</time>
      </trkpt>
      <trkpt lat="47.80544" lon="-3.69838">
        <ele>44</ele>
        <time>2019-07-14T11:04:44Z</time>
      </trkpt>
      <trkpt lat="47.80547" lon="-3.69832">
        <ele>44</ele>
        <time>2019-07-14T11:04:45Z</time>
      </trkpt>
      <trkpt lat="47.80549" lon="-3.69825">
        <ele>43</ele>
        <time>2019-07-14T11:04:46Z</time>
      </trkpt>
      <trkpt lat="47.80552" lon="-3.69818">
        <ele>43</ele>
        <time>2019-07-14T11:04:47Z</time>
      </trkpt>
      <trkpt lat="47.80556" lon="-3.69812">
        <ele>43</ele>
        <time>2019-07-14T11:04:48Z</time>
      </trkpt>
      <trkpt lat="47.80557" lon="-3.69807">
        <ele>43</ele>
        <time>2019-07-14T11:04:49Z</time>
      </trkpt>
      <trkpt lat="47.80557" lon="-3.69803">
        <ele>43</ele>
        <time>2019-07-14T11:04:50Z</time>
      </trkpt>
      <trkpt lat="47.80553" lon="-3.698">
        <ele>43</ele>
        <time>2019-07-14T11:04:51Z</time>
      </trkpt>
      <trkpt lat="47.80549" lon="-3.69798">
        <ele>43</ele>
        <time>2019-07-14T11:04:52Z</time>
      </trkpt>
      <trkpt lat="47.80545" lon="-3.69796">
        <ele>43</ele>
        <time>2019-07-14T11:04:53Z</time>
      </trkpt>
      <trkpt lat="47.8054" lon="-3.69793">
        <ele>43</ele>
        <time>2019-07-14T11:04:54Z</time>
      </trkpt>
      <trkpt lat="47.80536" lon="-3.69789">
        <ele>43</ele>
        <time>2019-07-14T11:04:55Z</time>
      </trkpt>
      <trkpt lat="47.80531" lon="-3.69786">
        <ele>43</ele>
        <time>2019-07-14T11:04:56Z</time>
      </trkpt>
      <trkpt lat="47.80527" lon="-3.69782">
        <ele>43</ele>
        <time>2019-07-14T11:04:57Z</time>
      </trkpt>
      <trkpt lat="47.80523" lon="-3.69778">
        <ele>43</ele>
        <time>2019-07-14T11:04:58Z</time>
      </trkpt>
      <trkpt lat="47.80521" lon="-3.69774">
        <ele>43</ele>
        <time>2019-07-14T11:04:59Z</time>
      </trkpt>
      <trkpt lat="47.80518" lon="-3.69768">
        <ele>43</ele>
        <time>2019-07-14T11:05:00Z</time>
      </trkpt>
      <trkpt lat="47.80516" lon="-3.69761">
        <ele>43</ele>
        <time>2019-07-14T11:05:01Z</time>
      </trkpt>
      <trkpt lat="47.80513" lon="-3.69754">
        <ele>43</ele>
        <time>2019-07-14T11:05:02Z</time>
      </trkpt>
      <trkpt lat="47.80509" lon="-3.69748">
        <ele>43</ele>
        <time>2019-07-14T11:05:03Z</time>
      </trkpt>
      <trkpt lat="47.80505" lon="-3.69742">
        <ele>43</ele>
        <time>2019-07-14T11:05:04Z</time>
      </trkpt>
      <trkpt lat="47.805" lon="-3.69737">
        <ele>43</ele>
        <time>2019-07-14T11:05:05Z</time>
      </trkpt>
      <trkpt lat="47.80496" lon="-3.69731">
        <ele>43</ele>
        <time>2019-07-14T11:05:06Z</time>
      </trkpt>
      <trkpt lat="47.80491" lon="-3.69727">
        <ele>43</ele>
        <time>2019-07-14T11:05:07Z</time>
      </trkpt>
      <trkpt lat="47.80487" lon="-3.69724">
        <ele>43</ele>
        <time>2019-07-14T11:05:08Z</time>
      </trkpt>
      <trkpt lat="47.80483" lon="-3.69724">
        <ele>43</ele>
        <time>2019-07-14T11:05:09Z</time>
      </trkpt>
      <trkpt lat="47.80479" lon="-3.69724">
        <ele>43</ele>
        <time>2019-07-14T11:05:10Z</time>
      </trkpt>
      <trkpt lat="47.80474" lon="-3.69725">
        <ele>43</ele>
        <time>2019-07-14T11:05:11Z</time>
      </trkpt>
      <trkpt lat="47.8047" lon="-3.69725">
        <ele>43</ele>
        <time>2019-07-14T11:05:12Z</time>
      </trkpt>
      <trkpt lat="47.80466" lon="-3.69725">
        <ele>43</ele>
        <time>2019-07-14T11:05:13Z</time>
      </trkpt>
      <trkpt lat="47.80461" lon="-3.69724">
        <ele>43</ele>
        <time>2019-07-14T11:05:14Z</time>
      </trkpt>
      <trkpt lat="47.80456" lon="-3.69724">
        <ele>44</ele>
        <time>2019-07-14T11:05:15Z</time>
      </trkpt>
      <trkpt lat="47.8045" lon="-3.69724">
        <ele>44</ele>
        <time>2019-07-14T11:05:16Z</time>
      </trkpt>
      <trkpt lat="47.80443" lon="-3.69726">
        <ele>44</ele>
        <time>2019-07-14T11:05:17Z</time>
      </trkpt>
      <trkpt lat="47.80436" lon="-3.69729">
        <ele>44</ele>
        <time>2019-07-14T11:05:18Z</time>
      </trkpt>
      <trkpt lat="47.80429" lon="-3.69733">
        <ele>44</ele>
        <time>2019-07-14T11:05:19Z</time>
      </trkpt>
      <trkpt lat="47.80422" lon="-3.69737">
        <ele>44</ele>
        <time>2019-07-14T11:05:20Z</time>
      </trkpt>
      <trkpt lat="47.80417" lon="-3.69741">
        <ele>44</ele>
        <time>2019-07-14T11:05:21Z</time>
      </trkpt>
      <trkpt lat="47.80412" lon="-3.69745">
        <ele>44</ele>
        <time>2019-07-14T11:05:22Z</time>
      </trkpt>
      <trkpt lat="47.80408" lon="-3.69751">
        <ele>43</ele>
        <time>2019-07-14T11:05:23Z</time>
      </trkpt>
      <trkpt lat="47.80405" lon="-3.69757">
        <ele>43</ele>
        <time>2019-07-14T11:05:24Z</time>
      </trkpt>
      <trkpt lat="47.80402" lon="-3.69764">
        <ele>43</ele>
        <time>2019-07-14T11:05:25Z</time>
      </trkpt>
      <trkpt lat="47.804" lon="-3.6977">
        <ele>43</ele>
        <time>2019-07-14T11:05:26Z</time>
      </trkpt>
      <trkpt lat="47.80399" lon="-3.69776">
        <ele>43</ele>
        <time>2019-07-14T11:05:27Z</time>
      </trkpt>
      <trkpt lat="47.80398" lon="-3.69782">
        <ele>43</ele>
        <time>2019-07-14T11:05:28Z</time>
      </trkpt>
      <trkpt lat="47.80398" lon="-3.69787">
        <ele>44</ele>
        <time>2019-07-14T11:05:29Z</time>
      </trkpt>
      <trkpt lat="47.80398" lon="-3.69793">
        <ele>44</ele>
        <time>2019-07-14T11:05:30Z</time>
      </trkpt>
      <trkpt lat="47.80398" lon="-3.69798">
        <ele>44</ele>
        <time>2019-07-14T11:05:31Z</time>
      </trkpt>
      <trkpt lat="47.80398" lon="-3.69806">
        <ele>44</ele>
        <time>2019-07-14T11:05:32Z</time>
      </trkpt>
      <trkpt lat="47.80397" lon="-3.69813">
        <ele>44</ele>
        <time>2019-07-14T11:05:33Z</time>
      </trkpt>
      <trkpt lat="47.80396" lon="-3.69821">
        <ele>44</ele>
        <time>2019-07-14T11:05:34Z</time>
      </trkpt>
      <trkpt lat="47.80396" lon="-3.69828">
        <ele>44</ele>
        <time>2019-07-14T11:05:35Z</time>
      </trkpt>
      <trkpt lat="47.80395" lon="-3.69835">
        <ele>44</ele>
        <time>2019-07-14T11:05:36Z</time>
      </trkpt>
      <trkpt lat="47.80393" lon="-3.69843">
        <ele>44</ele>
        <time>2019-07-14T11:05:37Z</time>
      </trkpt>
      <trkpt lat="47.80392" lon="-3.69851">
        <ele>44</ele>
        <time>2019-07-14T11:05:38Z</time>
      </trkpt>
      <trkpt lat="47.80391" lon="-3.69859">
        <ele>44</ele>
        <time>2019-07-14T11:05:39Z</time>
      </trkpt>
      <trkpt lat="47.80391" lon="-3.69866">
        <ele>44</ele>
        <time>2019-07-14T11:05:40Z</time>
      </trkpt>
      <trkpt lat="47.80391" lon="-3.69872">
        <ele>44</ele>
        <time>2019-07-14T11:05:41Z</time>
      </trkpt>
      <trkpt lat="47.80391" lon="-3.69877">
        <ele>44</ele>
        <time>2019-07-14T11:05:42Z</time>
      </trkpt>
      <trkpt lat="47.8039" lon="-3.69881">
        <ele>44</ele>
        <time>2019-07-14T11:05:43Z</time>
      </trkpt>
      <trkpt lat="47.80389" lon="-3.69884">
        <ele>44</ele>
        <time>2019-07-14T11:05:44Z</time>
      </trkpt>
      <trkpt lat="47.80389" lon="-3.69888">
        <ele>44</ele>
        <time>2019-07-14T11:05:45Z</time>
      </trkpt>
      <trkpt lat="47.80389" lon="-3.69891">
        <ele>44</ele>
        <time>2019-07-14T11:05:46Z</time>
      </trkpt>
      <trkpt lat="47.80388" lon="-3.69893">
        <ele>44</ele>
        <time>2019-07-14T11:05:47Z</time>
      </trkpt>
      <trkpt lat="47.80387" lon="-3.69897">
        <ele>44</ele>
        <time>2019-07-14T11:05:48Z</time>
      </trkpt>
      <trkpt lat="47.80386" lon="-3.69899">
        <ele>44</ele>
        <time>2019-07-14T11:05:49Z</time>
      </trkpt>
      <trkpt lat="47.80386" lon="-3.699">
        <ele>44</ele>
        <time>2019-07-14T11:05:50Z</time>
      </trkpt>
      <trkpt lat="47.80386" lon="-3.69902">
        <ele>45</ele>
        <time>2019-07-14T11:05:51Z</time>
      </trkpt>
      <trkpt lat="47.80386" lon="-3.69903">
        <ele>45</ele>
        <time>2019-07-14T11:05:52Z</time>
      </trkpt>
      <trkpt lat="47.80386" lon="-3.69905">
        <ele>45</ele>
        <time>2019-07-14T11:05:53Z</time>
      </trkpt>
      <trkpt lat="47.80386" lon="-3.69906">
        <ele>45</ele>
        <time>2019-07-14T11:05:54Z</time>
      </trkpt>
      <trkpt lat="47.80386" lon="-3.69907">
        <ele>45</ele>
        <time>2019-07-14T11:05:55Z</time>
      </trkpt>
      <trkpt lat="47.80386" lon="-3.69908">
        <ele>45</ele>
        <time>2019-07-14T11:05:56Z</time>
      </trkpt>
      <trkpt lat="47.80386" lon="-3.6991">
        <ele>46</ele>
        <time>2019-07-14T11:05:57Z</time>
      </trkpt>
      <trkpt lat="47.80386" lon="-3.69911">
        <ele>46</ele>
        <time>2019-07-14T11:05:58Z</time>
      </trkpt>
      <trkpt lat="47.80387" lon="-3.69913">
        <ele>46</ele>
        <time>2019-07-14T11:05:59Z</time>
      </trkpt>
      <trkpt lat="47.80388" lon="-3.69915">
        <ele>46</ele>
        <time>2019-07-14T11:06:00Z</time>
      </trkpt>
      <trkpt lat="47.80388" lon="-3.69916">
        <ele>46</ele>
        <time>2019-07-14T11:06:01Z</time>
      </trkpt>
      <trkpt lat="47.80389" lon="-3.69918">
        <ele>47</ele>
        <time>2019-07-14T11:06:02Z</time>
      </trkpt>
      <trkpt lat="47.80389" lon="-3.69918">
        <ele>47</ele>
        <time>2019-07-14T11:06:03Z</time>
      </trkpt>
      <trkpt lat="47.80389" lon="-3.69919">
        <ele>47</ele>
        <time>2019-07-14T11:06:04Z</time>
      </trkpt>
      <trkpt lat="47.8039" lon="-3.69921">
        <ele>47</ele>
        <time>2019-07-14T11:06:05Z</time>
      </trkpt>
      <trkpt lat="47.8039" lon="-3.69923">
        <ele>47</ele>
        <time>2019-07-14T11:06:06Z</time>
      </trkpt>
      <trkpt lat="47.8039" lon="-3.69924">
        <ele>47</ele>
        <time>2019-07-14T11:06:07Z</time>
      </trkpt>
      <trkpt lat="47.80389" lon="-3.69926">
        <ele>47</ele>
        <time>2019-07-14T11:06:08Z</time>
      </trkpt>
      <trkpt lat="47.80389" lon="-3.69928">
        <ele>48</ele>
        <time>2019-07-14T11:06:09Z</time>
      </trkpt>
      <trkpt lat="47.80389" lon="-3.6993">
        <ele>48</ele>
        <time>2019-07-14T11:06:10Z</time>
      </trkpt>
      <trkpt lat="47.80389" lon="-3.69932">
        <ele>48</ele>
        <time>2019-07-14T11:06:11Z</time>
      </trkpt>
      <trkpt lat="47.80388" lon="-3.69935">
        <ele>48</ele>
        <time>2019-07-14T11:06:12Z</time>
      </trkpt>
      <trkpt lat="47.80388" lon="-3.69937">
        <ele>48</ele>
        <time>2019-07-14T11:06:13Z</time>
      </trkpt>
      <trkpt lat="47.80388" lon="-3.69937">
        <ele>48</ele>
        <time>2019-07-14T11:06:14Z</time>
      </trkpt>
      <trkpt lat="47.80388" lon="-3.69938">
        <ele>49</ele>
        <time>2019-07-14T11:06:15Z</time>
      </trkpt>
      <trkpt lat="47.80388" lon="-3.69938">
        <ele>49</ele>
        <time>2019-07-14T11:06:16Z</time>
      </trkpt>
      <trkpt lat="47.80388" lon="-3.69938">
        <ele>49</ele>
        <time>2019-07-14T11:06:17Z</time>
      </trkpt>
      <trkpt lat="47.80389" lon="-3.69937">
        <ele>49</ele>
        <time>2019-07-14T11:06:18Z</time>
      </trkpt>
      <trkpt lat="47.8039" lon="-3.69936">
        <ele>49</ele>
        <time>2019-07-14T11:06:19Z</time>
      </trkpt>
      <trkpt lat="47.80391" lon="-3.69935">
        <ele>49</ele>
        <time>2019-07-14T11:06:20Z</time>
      </trkpt>
      <trkpt lat="47.80392" lon="-3.69933">
        <ele>49</ele>
        <time>2019-07-14T11:06:21Z</time>
      </trkpt>
      <trkpt lat="47.80392" lon="-3.69931">
        <ele>49</ele>
        <time>2019-07-14T11:06:22Z</time>
      </trkpt>
      <trkpt lat="47.80393" lon="-3.69929">
        <ele>49</ele>
        <time>2019-07-14T11:06:23Z</time>
      </trkpt>
      <trkpt lat="47.80395" lon="-3.69928">
        <ele>49</ele>
        <time>2019-07-14T11:06:24Z</time>
      </trkpt>
      <trkpt lat="47.80397" lon="-3.69928">
        <ele>49</ele>
        <time>2019-07-14T11:06:25Z</time>
      </trkpt>
      <trkpt lat="47.80399" lon="-3.69928">
        <ele>49</ele>
        <time>2019-07-14T11:06:26Z</time>
      </trkpt>
      <trkpt lat="47.80401" lon="-3.69929">
        <ele>49</ele>
        <time>2019-07-14T11:06:27Z</time>
      </trkpt>
      <trkpt lat="47.80403" lon="-3.6993">
        <ele>49</ele>
        <time>2019-07-14T11:06:28Z</time>
      </trkpt>
      <trkpt lat="47.80405" lon="-3.69931">
        <ele>49</ele>
        <time>2019-07-14T11:06:29Z</time>
      </trkpt>
      <trkpt lat="47.80407" lon="-3.69932">
        <ele>49</ele>
        <time>2019-07-14T11:06:30Z</time>
      </trkpt>
      <trkpt lat="47.80409" lon="-3.69933">
        <ele>48</ele>
        <time>2019-07-14T11:06:31Z</time>
      </trkpt>
      <trkpt lat="47.80411" lon="-3.69934">
        <ele>48</ele>
        <time>2019-07-14T11:06:32Z</time>
      </trkpt>
      <trkpt lat="47.80414" lon="-3.69934">
        <ele>48</ele>
        <time>2019-07-14T11:06:33Z</time>
      </trkpt>
      <trkpt lat="47.80418" lon="-3.69933">
        <ele>48</ele>
        <time>2019-07-14T11:06:34Z</time>
      </trkpt>
      <trkpt lat="47.80422" lon="-3.69934">
        <ele>48</ele>
        <time>2019-07-14T11:06:35Z</time>
      </trkpt>
      <trkpt lat="47.80426" lon="-3.69934">
        <ele>48</ele>
        <time>2019-07-14T11:06:36Z</time>
      </trkpt>
      <trkpt lat="47.8043" lon="-3.69934">
        <ele>48</ele>
        <time>2019-07-14T11:06:37Z</time>
      </trkpt>
      <trkpt lat="47.80435" lon="-3.69935">
        <ele>48</ele>
        <time>2019-07-14T11:06:38Z</time>
      </trkpt>
      <trkpt lat="47.8044" lon="-3.69935">
        <ele>48</ele>
        <time>2019-07-14T11:06:39Z</time>
      </trkpt>
      <trkpt lat="47.80444" lon="-3.69937">
        <ele>48</ele>
        <time>2019-07-14T11:06:40Z</time>
      </trkpt>
      <trkpt lat="47.80449" lon="-3.69939">
        <ele>48</ele>
        <time>2019-07-14T11:06:41Z</time>
      </trkpt>
      <trkpt lat="47.80454" lon="-3.69941">
        <ele>48</ele>
        <time>2019-07-14T11:06:42Z</time>
      </trkpt>
      <trkpt lat="47.80459" lon="-3.69943">
        <ele>48</ele>
        <time>2019-07-14T11:06:43Z</time>
      </trkpt>
      <trkpt lat="47.80464" lon="-3.69945">
        <ele>48</ele>
        <time>2019-07-14T11:06:44Z</time>
      </trkpt>
      <trkpt lat="47.80467" lon="-3.69947">
        <ele>48</ele>
        <time>2019-07-14T11:06:45Z</time>
      </trkpt>
      <trkpt lat="47.80471" lon="-3.69949">
        <ele>48</ele>
        <time>2019-07-14T11:06:46Z</time>
      </trkpt>
      <trkpt lat="47.80474" lon="-3.69951">
        <ele>48</ele>
        <time>2019-07-14T11:06:47Z</time>
      </trkpt>
      <trkpt lat="47.80478" lon="-3.69954">
        <ele>48</ele>
        <time>2019-07-14T11:06:48Z</time>
      </trkpt>
      <trkpt lat="47.80482" lon="-3.69956">
        <ele>48</ele>
        <time>2019-07-14T11:06:49Z</time>
      </trkpt>
      <trkpt lat="47.80485" lon="-3.69958">
        <ele>48</ele>
        <time>2019-07-14T11:06:50Z</time>
      </trkpt>
      <trkpt lat="47.80487" lon="-3.69961">
        <ele>48</ele>
        <time>2019-07-14T11:06:51Z</time>
      </trkpt>
      <trkpt lat="47.80489" lon="-3.69965">
        <ele>48</ele>
        <time>2019-07-14T11:06:52Z</time>
      </trkpt>
      <trkpt lat="47.8049" lon="-3.69971">
        <ele>48</ele>
        <time>2019-07-14T11:06:53Z</time>
      </trkpt>
      <trkpt lat="47.8049" lon="-3.69977">
        <ele>48</ele>
        <time>2019-07-14T11:06:54Z</time>
      </trkpt>
      <trkpt lat="47.80491" lon="-3.69983">
        <ele>48</ele>
        <time>2019-07-14T11:06:55Z</time>
      </trkpt>
      <trkpt lat="47.80491" lon="-3.69988">
        <ele>48</ele>
        <time>2019-07-14T11:06:56Z</time>
      </trkpt>
      <trkpt lat="47.80491" lon="-3.69994">
        <ele>48</ele>
        <time>2019-07-14T11:06:57Z</time>
      </trkpt>
      <trkpt lat="47.80491" lon="-3.70001">
        <ele>48</ele>
        <time>2019-07-14T11:06:58Z</time>
      </trkpt>
      <trkpt lat="47.80492" lon="-3.70007">
        <ele>48</ele>
        <time>2019-07-14T11:06:59Z</time>
      </trkpt>
      <trkpt lat="47.80493" lon="-3.70014">
        <ele>48</ele>
        <time>2019-07-14T11:07:00Z</time>
      </trkpt>
      <trkpt lat="47.80493" lon="-3.70021">
        <ele>47</ele>
        <time>2019-07-14T11:07:01Z</time>
      </trkpt>
      <trkpt lat="47.80493" lon="-3.70027">
        <ele>47</ele>
        <time>2019-07-14T11:07:02Z</time>
      </trkpt>
      <trkpt lat="47.80493" lon="-3.70034">
        <ele>46</ele>
        <time>2019-07-14T11:07:03Z</time>
      </trkpt>
      <trkpt lat="47.80493" lon="-3.70042">
        <ele>46</ele>
        <time>2019-07-14T11:07:04Z</time>
      </trkpt>
      <trkpt lat="47.80492" lon="-3.7005">
        <ele>45</ele>
        <time>2019-07-14T11:07:05Z</time>
      </trkpt>
      <trkpt lat="47.80491" lon="-3.70058">
        <ele>44</ele>
        <time>2019-07-14T11:07:06Z</time>
      </trkpt>
      <trkpt lat="47.80489" lon="-3.70066">
        <ele>44</ele>
        <time>2019-07-14T11:07:07Z</time>
      </trkpt>
      <trkpt lat="47.80488" lon="-3.70074">
        <ele>43</ele>
        <time>2019-07-14T11:07:08Z</time>
      </trkpt>
      <trkpt lat="47.80488" lon="-3.70081">
        <ele>43</ele>
        <time>2019-07-14T11:07:09Z</time>
      </trkpt>
      <trkpt lat="47.80487" lon="-3.70088">
        <ele>42</ele>
        <time>2019-07-14T11:07:10Z</time>
      </trkpt>
      <trkpt lat="47.80485" lon="-3.70096">
        <ele>42</ele>
        <time>2019-07-14T11:07:11Z</time>
      </trkpt>
      <trkpt lat="47.80483" lon="-3.70104">
        <ele>41</ele>
        <time>2019-07-14T11:07:12Z</time>
      </trkpt>
      <trkpt lat="47.80481" lon="-3.70113">
        <ele>41</ele>
        <time>2019-07-14T11:07:13Z</time>
      </trkpt>
      <trkpt lat="47.80479" lon="-3.70122">
        <ele>40</ele>
        <time>2019-07-14T11:07:14Z</time>
      </trkpt>
      <trkpt lat="47.80479" lon="-3.70129">
        <ele>40</ele>
        <time>2019-07-14T11:07:15Z</time>
      </trkpt>
      <trkpt lat="47.80479" lon="-3.70135">
        <ele>39</ele>
        <time>2019-07-14T11:07:16Z</time>
      </trkpt>
      <trkpt lat="47.8048" lon="-3.70141">
        <ele>39</ele>
        <time>2019-07-14T11:07:17Z</time>
      </trkpt>
      <trkpt lat="47.80481" lon="-3.70145">
        <ele>39</ele>
        <time>2019-07-14T11:07:18Z</time>
      </trkpt>
      <trkpt lat="47.80482" lon="-3.70148">
        <ele>38</ele>
        <time>2019-07-14T11:07:19Z</time>
      </trkpt>
      <trkpt lat="47.80483" lon="-3.70152">
        <ele>38</ele>
        <time>2019-07-14T11:07:20Z</time>
      </trkpt>
      <trkpt lat="47.80481" lon="-3.70156">
        <ele>38</ele>
        <time>2019-07-14T11:07:21Z</time>
      </trkpt>
      <trkpt lat="47.8048" lon="-3.7016">
        <ele>38</ele>
        <time>2019-07-14T11:07:22Z</time>
      </trkpt>
      <trkpt lat="47.80479" lon="-3.70164">
        <ele>37</ele>
        <time>2019-07-14T11:07:23Z</time>
      </trkpt>
      <trkpt lat="47.80479" lon="-3.70168">
        <ele>37</ele>
        <time>2019-07-14T11:07:24Z</time>
      </trkpt>
      <trkpt lat="47.8048" lon="-3.70171">
        <ele>37</ele>
        <time>2019-07-14T11:07:25Z</time>
      </trkpt>
      <trkpt lat="47.8048" lon="-3.70175">
        <ele>37</ele>
        <time>2019-07-14T11:07:26Z</time>
      </trkpt>
      <trkpt lat="47.80479" lon="-3.7018">
        <ele>37</ele>
        <time>2019-07-14T11:07:27Z</time>
      </trkpt>
      <trkpt lat="47.80478" lon="-3.70184">
        <ele>37</ele>
        <time>2019-07-14T11:07:28Z</time>
      </trkpt>
      <trkpt lat="47.80478" lon="-3.70188">
        <ele>37</ele>
        <time>2019-07-14T11:07:29Z</time>
      </trkpt>
      <trkpt lat="47.80478" lon="-3.70191">
        <ele>37</ele>
        <time>2019-07-14T11:07:30Z</time>
      </trkpt>
      <trkpt lat="47.80478" lon="-3.70193">
        <ele>37</ele>
        <time>2019-07-14T11:07:31Z</time>
      </trkpt>
      <trkpt lat="47.80477" lon="-3.70194">
        <ele>37</ele>
        <time>2019-07-14T11:07:32Z</time>
      </trkpt>
      <trkpt lat="47.80477" lon="-3.70194">
        <ele>37</ele>
        <time>2019-07-14T11:07:33Z</time>
      </trkpt>
      <trkpt lat="47.80477" lon="-3.70195">
        <ele>37</ele>
        <time>2019-07-14T11:07:34Z</time>
      </trkpt>
      <trkpt lat="47.80473" lon="-3.70194">
        <ele>38</ele>
        <time>2019-07-14T11:07:35Z</time>
      </trkpt>
      <trkpt lat="47.80472" lon="-3.70194">
        <ele>38</ele>
        <time>2019-07-14T11:07:36Z</time>
      </trkpt>
      <trkpt lat="47.80471" lon="-3.70194">
        <ele>38</ele>
        <time>2019-07-14T11:07:37Z</time>
      </trkpt>
      <trkpt lat="47.8047" lon="-3.70194">
        <ele>38</ele>
        <time>2019-07-14T11:07:38Z</time>
      </trkpt>
      <trkpt lat="47.80469" lon="-3.70193">
        <ele>38</ele>
        <time>2019-07-14T11:07:39Z</time>
      </trkpt>
      <trkpt lat="47.80468" lon="-3.70193">
        <ele>38</ele>
        <time>2019-07-14T11:07:40Z</time>
      </trkpt>
      <trkpt lat="47.80467" lon="-3.70192">
        <ele>39</ele>
        <time>2019-07-14T11:07:41Z</time>
      </trkpt>
      <trkpt lat="47.80467" lon="-3.70191">
        <ele>39</ele>
        <time>2019-07-14T11:07:42Z</time>
      </trkpt>
      <trkpt lat="47.80467" lon="-3.70189">
        <ele>39</ele>
        <time>2019-07-14T11:07:43Z</time>
      </trkpt>
      <trkpt lat="47.80467" lon="-3.70187">
        <ele>39</ele>
        <time>2019-07-14T11:07:44Z</time>
      </trkpt>
      <trkpt lat="47.80467" lon="-3.70187">
        <ele>39</ele>
        <time>2019-07-14T11:07:45Z</time>
      </trkpt>
      <trkpt lat="47.8046" lon="-3.70181">
        <ele>40</ele>
        <time>2019-07-14T11:07:46Z</time>
      </trkpt>
      <trkpt lat="47.8046" lon="-3.70179">
        <ele>40</ele>
        <time>2019-07-14T11:07:47Z</time>
      </trkpt>
      <trkpt lat="47.80459" lon="-3.70177">
        <ele>40</ele>
        <time>2019-07-14T11:07:48Z</time>
      </trkpt>
      <trkpt lat="47.80459" lon="-3.70176">
        <ele>40</ele>
        <time>2019-07-14T11:07:49Z</time>
      </trkpt>
      <trkpt lat="47.80458" lon="-3.70175">
        <ele>40</ele>
        <time>2019-07-14T11:07:50Z</time>
      </trkpt>
      <trkpt lat="47.80457" lon="-3.70174">
        <ele>40</ele>
        <time>2019-07-14T11:07:51Z</time>
      </trkpt>
      <trkpt lat="47.80456" lon="-3.70174">
        <ele>40</ele>
        <time>2019-07-14T11:07:52Z</time>
      </trkpt>
      <trkpt lat="47.80456" lon="-3.70173">
        <ele>40</ele>
        <time>2019-07-14T11:07:53Z</time>
      </trkpt>
      <trkpt lat="47.80455" lon="-3.70172">
        <ele>40</ele>
        <time>2019-07-14T11:07:54Z</time>
      </trkpt>
      <trkpt lat="47.80454" lon="-3.70173">
        <ele>40</ele>
        <time>2019-07-14T11:07:55Z</time>
      </trkpt>
      <trkpt lat="47.80454" lon="-3.70173">
        <ele>40</ele>
        <time>2019-07-14T11:07:56Z</time>
      </trkpt>
      <trkpt lat="47.80455" lon="-3.70173">
        <ele>40</ele>
        <time>2019-07-14T11:07:57Z</time>
      </trkpt>
      <trkpt lat="47.80454" lon="-3.70173">
        <ele>40</ele>
        <time>2019-07-14T11:07:58Z</time>
      </trkpt>
      <trkpt lat="47.8045" lon="-3.70172">
        <ele>40</ele>
        <time>2019-07-14T11:07:59Z</time>
      </trkpt>
      <trkpt lat="47.80449" lon="-3.70172">
        <ele>40</ele>
        <time>2019-07-14T11:08:00Z</time>
      </trkpt>
      <trkpt lat="47.80448" lon="-3.70173">
        <ele>41</ele>
        <time>2019-07-14T11:08:01Z</time>
      </trkpt>
      <trkpt lat="47.80449" lon="-3.70173">
        <ele>41</ele>
        <time>2019-07-14T11:08:02Z</time>
      </trkpt>
      <trkpt lat="47.8045" lon="-3.70172">
        <ele>41</ele>
        <time>2019-07-14T11:08:03Z</time>
      </trkpt>
      <trkpt lat="47.80451" lon="-3.70172">
        <ele>42</ele>
        <time>2019-07-14T11:08:04Z</time>
      </trkpt>
      <trkpt lat="47.80451" lon="-3.70172">
        <ele>42</ele>
        <time>2019-07-14T11:08:05Z</time>
      </trkpt>
      <trkpt lat="47.80451" lon="-3.70172">
        <ele>42</ele>
        <time>2019-07-14T11:08:06Z</time>
      </trkpt>
      <trkpt lat="47.80454" lon="-3.70174">
        <ele>43</ele>
        <time>2019-07-14T11:08:07Z</time>
      </trkpt>
      <trkpt lat="47.80455" lon="-3.70175">
        <ele>43</ele>
        <time>2019-07-14T11:08:08Z</time>
      </trkpt>
      <trkpt lat="47.80455" lon="-3.70176">
        <ele>43</ele>
        <time>2019-07-14T11:08:09Z</time>
      </trkpt>
      <trkpt lat="47.80457" lon="-3.70177">
        <ele>43</ele>
        <time>2019-07-14T11:08:10Z</time>
      </trkpt>
      <trkpt lat="47.80458" lon="-3.70179">
        <ele>44</ele>
        <time>2019-07-14T11:08:11Z</time>
      </trkpt>
      <trkpt lat="47.8046" lon="-3.70181">
        <ele>44</ele>
        <time>2019-07-14T11:08:12Z</time>
      </trkpt>
      <trkpt lat="47.80461" lon="-3.70182">
        <ele>44</ele>
        <time>2019-07-14T11:08:13Z</time>
      </trkpt>
      <trkpt lat="47.80462" lon="-3.70182">
        <ele>44</ele>
        <time>2019-07-14T11:08:14Z</time>
      </trkpt>
      <trkpt lat="47.80463" lon="-3.70183">
        <ele>44</ele>
        <time>2019-07-14T11:08:15Z</time>
      </trkpt>
      <trkpt lat="47.80465" lon="-3.70183">
        <ele>45</ele>
        <time>2019-07-14T11:08:16Z</time>
      </trkpt>
      <trkpt lat="47.80466" lon="-3.70184">
        <ele>45</ele>
        <time>2019-07-14T11:08:17Z</time>
      </trkpt>
      <trkpt lat="47.80467" lon="-3.70185">
        <ele>45</ele>
        <time>2019-07-14T11:08:18Z</time>
      </trkpt>
      <trkpt lat="47.80468" lon="-3.70186">
        <ele>45</ele>
        <time>2019-07-14T11:08:19Z</time>
      </trkpt>
      <trkpt lat="47.80468" lon="-3.70187">
        <ele>45</ele>
        <time>2019-07-14T11:08:20Z</time>
      </trkpt>
      <trkpt lat="47.80468" lon="-3.70187">
        <ele>45</ele>
        <time>2019-07-14T11:08:21Z</time>
      </trkpt>
      <trkpt lat="47.80468" lon="-3.70188">
        <ele>46</ele>
        <time>2019-07-14T11:08:22Z</time>
      </trkpt>
      <trkpt lat="47.80468" lon="-3.70189">
        <ele>46</ele>
        <time>2019-07-14T11:08:23Z</time>
      </trkpt>
      <trkpt lat="47.80469" lon="-3.70189">
        <ele>46</ele>
        <time>2019-07-14T11:08:24Z</time>
      </trkpt>
      <trkpt lat="47.8047" lon="-3.70187">
        <ele>46</ele>
        <time>2019-07-14T11:08:25Z</time>
      </trkpt>
      <trkpt lat="47.80471" lon="-3.70185">
        <ele>46</ele>
        <time>2019-07-14T11:08:26Z</time>
      </trkpt>
      <trkpt lat="47.80472" lon="-3.70184">
        <ele>47</ele>
        <time>2019-07-14T11:08:27Z</time>
      </trkpt>
      <trkpt lat="47.80473" lon="-3.70182">
        <ele>47</ele>
        <time>2019-07-14T11:08:28Z</time>
      </trkpt>
      <trkpt lat="47.80473" lon="-3.7018">
        <ele>47</ele>
        <time>2019-07-14T11:08:29Z</time>
      </trkpt>
      <trkpt lat="47.80474" lon="-3.70178">
        <ele>47</ele>
        <time>2019-07-14T11:08:30Z</time>
      </trkpt>
      <trkpt lat="47.80475" lon="-3.70175">
        <ele>47</ele>
        <time>2019-07-14T11:08:31Z</time>
      </trkpt>
      <trkpt lat="47.80476" lon="-3.70172">
        <ele>47</ele>
        <time>2019-07-14T11:08:32Z</time>
      </trkpt>
      <trkpt lat="47.80476" lon="-3.70169">
        <ele>47</ele>
        <time>2019-07-14T11:08:33Z</time>
      </trkpt>
      <trkpt lat="47.80477" lon="-3.70165">
        <ele>47</ele>
        <time>2019-07-14T11:08:34Z</time>
      </trkpt>
      <trkpt lat="47.80477" lon="-3.70162">
        <ele>47</ele>
        <time>2019-07-14T11:08:35Z</time>
      </trkpt>
      <trkpt lat="47.80478" lon="-3.70158">
        <ele>47</ele>
        <time>2019-07-14T11:08:36Z</time>
      </trkpt>
      <trkpt lat="47.80478" lon="-3.70155">
        <ele>47</ele>
        <time>2019-07-14T11:08:37Z</time>
      </trkpt>
      <trkpt lat="47.80479" lon="-3.70152">
        <ele>47</ele>
        <time>2019-07-14T11:08:38Z</time>
      </trkpt>
      <trkpt lat="47.80478" lon="-3.70149">
        <ele>47</ele>
        <time>2019-07-14T11:08:39Z</time>
      </trkpt>
      <trkpt lat="47.80478" lon="-3.70146">
        <ele>46</ele>
        <time>2019-07-14T11:08:40Z</time>
      </trkpt>
      <trkpt lat="47.80479" lon="-3.70143">
        <ele>46</ele>
        <time>2019-07-14T11:08:41Z</time>
      </trkpt>
      <trkpt lat="47.80479" lon="-3.7014">
        <ele>46</ele>
        <time>2019-07-14T11:08:42Z</time>
      </trkpt>
      <trkpt lat="47.8048" lon="-3.70137">
        <ele>45</ele>
        <time>2019-07-14T11:08:43Z</time>
      </trkpt>
      <trkpt lat="47.80481" lon="-3.70134">
        <ele>45</ele>
        <time>2019-07-14T11:08:44Z</time>
      </trkpt>
      <trkpt lat="47.80482" lon="-3.70131">
        <ele>45</ele>
        <time>2019-07-14T11:08:45Z</time>
      </trkpt>
      <trkpt lat="47.80483" lon="-3.70128">
        <ele>44</ele>
        <time>2019-07-14T11:08:46Z</time>
      </trkpt>
      <trkpt lat="47.80484" lon="-3.70124">
        <ele>44</ele>
        <time>2019-07-14T11:08:47Z</time>
      </trkpt>
      <trkpt lat="47.80485" lon="-3.70119">
        <ele>44</ele>
        <time>2019-07-14T11:08:48Z</time>
      </trkpt>
      <trkpt lat="47.80486" lon="-3.70115">
        <ele>44</ele>
        <time>2019-07-14T11:08:49Z</time>
      </trkpt>
      <trkpt lat="47.80487" lon="-3.70111">
        <ele>43</ele>
        <time>2019-07-14T11:08:50Z</time>
      </trkpt>
      <trkpt lat="47.80488" lon="-3.70106">
        <ele>43</ele>
        <time>2019-07-14T11:08:51Z</time>
      </trkpt>
      <trkpt lat="47.80489" lon="-3.70102">
        <ele>43</ele>
        <time>2019-07-14T11:08:52Z</time>
      </trkpt>
      <trkpt lat="47.8049" lon="-3.70099">
        <ele>43</ele>
        <time>2019-07-14T11:08:53Z</time>
      </trkpt>
      <trkpt lat="47.8049" lon="-3.70095">
        <ele>42</ele>
        <time>2019-07-14T11:08:54Z</time>
      </trkpt>
      <trkpt lat="47.8049" lon="-3.70092">
        <ele>42</ele>
        <time>2019-07-14T11:08:55Z</time>
      </trkpt>
      <trkpt lat="47.80491" lon="-3.70089">
        <ele>42</ele>
        <time>2019-07-14T11:08:56Z</time>
      </trkpt>
      <trkpt lat="47.80491" lon="-3.70085">
        <ele>42</ele>
        <time>2019-07-14T11:08:57Z</time>
      </trkpt>
      <trkpt lat="47.80491" lon="-3.70081">
        <ele>42</ele>
        <time>2019-07-14T11:08:58Z</time>
      </trkpt>
      <trkpt lat="47.80493" lon="-3.70077">
        <ele>41</ele>
        <time>2019-07-14T11:08:59Z</time>
      </trkpt>
      <trkpt lat="47.80494" lon="-3.70073">
        <ele>41</ele>
        <time>2019-07-14T11:09:00Z</time>
      </trkpt>
      <trkpt lat="47.80495" lon="-3.70069">
        <ele>41</ele>
        <time>2019-07-14T11:09:01Z</time>
      </trkpt>
      <trkpt lat="47.80496" lon="-3.70064">
        <ele>41</ele>
        <time>2019-07-14T11:09:02Z</time>
      </trkpt>
      <trkpt lat="47.80497" lon="-3.70059">
        <ele>41</ele>
        <time>2019-07-14T11:09:03Z</time>
      </trkpt>
      <trkpt lat="47.80498" lon="-3.70053">
        <ele>41</ele>
        <time>2019-07-14T11:09:04Z</time>
      </trkpt>
      <trkpt lat="47.80498" lon="-3.70048">
        <ele>40</ele>
        <time>2019-07-14T11:09:05Z</time>
      </trkpt>
      <trkpt lat="47.80499" lon="-3.70043">
        <ele>40</ele>
        <time>2019-07-14T11:09:06Z</time>
      </trkpt>
      <trkpt lat="47.80499" lon="-3.70038">
        <ele>40</ele>
        <time>2019-07-14T11:09:07Z</time>
      </trkpt>
      <trkpt lat="47.80499" lon="-3.70034">
        <ele>40</ele>
        <time>2019-07-14T11:09:08Z</time>
      </trkpt>
      <trkpt lat="47.805" lon="-3.70029">
        <ele>40</ele>
        <time>2019-07-14T11:09:09Z</time>
      </trkpt>
      <trkpt lat="47.805" lon="-3.70024">
        <ele>40</ele>
        <time>2019-07-14T11:09:10Z</time>
      </trkpt>
      <trkpt lat="47.805" lon="-3.70019">
        <ele>40</ele>
        <time>2019-07-14T11:09:11Z</time>
      </trkpt>
      <trkpt lat="47.805" lon="-3.70014">
        <ele>40</ele>
        <time>2019-07-14T11:09:12Z</time>
      </trkpt>
      <trkpt lat="47.805" lon="-3.70009">
        <ele>40</ele>
        <time>2019-07-14T11:09:13Z</time>
      </trkpt>
      <trkpt lat="47.805" lon="-3.70004">
        <ele>40</ele>
        <time>2019-07-14T11:09:14Z</time>
      </trkpt>
      <trkpt lat="47.80501" lon="-3.69998">
        <ele>40</ele>
        <time>2019-07-14T11:09:15Z</time>
      </trkpt>
      <trkpt lat="47.80501" lon="-3.69992">
        <ele>40</ele>
        <time>2019-07-14T11:09:16Z</time>
      </trkpt>
      <trkpt lat="47.80501" lon="-3.69986">
        <ele>39</ele>
        <time>2019-07-14T11:09:17Z</time>
      </trkpt>
      <trkpt lat="47.80501" lon="-3.6998">
        <ele>39</ele>
        <time>2019-07-14T11:09:18Z</time>
      </trkpt>
      <trkpt lat="47.80501" lon="-3.69974">
        <ele>39</ele>
        <time>2019-07-14T11:09:19Z</time>
      </trkpt>
      <trkpt lat="47.80501" lon="-3.69968">
        <ele>39</ele>
        <time>2019-07-14T11:09:20Z</time>
      </trkpt>
      <trkpt lat="47.80499" lon="-3.69964">
        <ele>39</ele>
        <time>2019-07-14T11:09:21Z</time>
      </trkpt>
      <trkpt lat="47.80496" lon="-3.69961">
        <ele>40</ele>
        <time>2019-07-14T11:09:22Z</time>
      </trkpt>
      <trkpt lat="47.80493" lon="-3.69957">
        <ele>40</ele>
        <time>2019-07-14T11:09:23Z</time>
      </trkpt>
      <trkpt lat="47.80489" lon="-3.69953">
        <ele>40</ele>
        <time>2019-07-14T11:09:24Z</time>
      </trkpt>
      <trkpt lat="47.80486" lon="-3.6995">
        <ele>40</ele>
        <time>2019-07-14T11:09:25Z</time>
      </trkpt>
      <trkpt lat="47.80482" lon="-3.69947">
        <ele>40</ele>
        <time>2019-07-14T11:09:26Z</time>
      </trkpt>
      <trkpt lat="47.80478" lon="-3.69944">
        <ele>40</ele>
        <time>2019-07-14T11:09:27Z</time>
      </trkpt>
      <trkpt lat="47.80474" lon="-3.69942">
        <ele>41</ele>
        <time>2019-07-14T11:09:28Z</time>
      </trkpt>
      <trkpt lat="47.8047" lon="-3.6994">
        <ele>41</ele>
        <time>2019-07-14T11:09:29Z</time>
      </trkpt>
      <trkpt lat="47.80466" lon="-3.69937">
        <ele>41</ele>
        <time>2019-07-14T11:09:30Z</time>
      </trkpt>
      <trkpt lat="47.80461" lon="-3.69935">
        <ele>41</ele>
        <time>2019-07-14T11:09:31Z</time>
      </trkpt>
      <trkpt lat="47.80458" lon="-3.69933">
        <ele>41</ele>
        <time>2019-07-14T11:09:32Z</time>
      </trkpt>
      <trkpt lat="47.80455" lon="-3.69931">
        <ele>41</ele>
        <time>2019-07-14T11:09:33Z</time>
      </trkpt>
      <trkpt lat="47.80453" lon="-3.69928">
        <ele>41</ele>
        <time>2019-07-14T11:09:34Z</time>
      </trkpt>
      <trkpt lat="47.8045" lon="-3.69927">
        <ele>41</ele>
        <time>2019-07-14T11:09:35Z</time>
      </trkpt>
      <trkpt lat="47.80447" lon="-3.69926">
        <ele>41</ele>
        <time>2019-07-14T11:09:36Z</time>
      </trkpt>
      <trkpt lat="47.80443" lon="-3.69925">
        <ele>42</ele>
        <time>2019-07-14T11:09:37Z</time>
      </trkpt>
      <trkpt lat="47.8044" lon="-3.69922">
        <ele>42</ele>
        <time>2019-07-14T11:09:38Z</time>
      </trkpt>
      <trkpt lat="47.80435" lon="-3.6992">
        <ele>42</ele>
        <time>2019-07-14T11:09:39Z</time>
      </trkpt>
      <trkpt lat="47.80431" lon="-3.69918">
        <ele>42</ele>
        <time>2019-07-14T11:09:40Z</time>
      </trkpt>
      <trkpt lat="47.80426" lon="-3.69919">
        <ele>42</ele>
        <time>2019-07-14T11:09:41Z</time>
      </trkpt>
      <trkpt lat="47.80421" lon="-3.69918">
        <ele>42</ele>
        <time>2019-07-14T11:09:42Z</time>
      </trkpt>
      <trkpt lat="47.80417" lon="-3.69918">
        <ele>42</ele>
        <time>2019-07-14T11:09:43Z</time>
      </trkpt>
      <trkpt lat="47.80413" lon="-3.69916">
        <ele>42</ele>
        <time>2019-07-14T11:09:44Z</time>
      </trkpt>
      <trkpt lat="47.80408" lon="-3.69915">
        <ele>42</ele>
        <time>2019-07-14T11:09:45Z</time>
      </trkpt>
      <trkpt lat="47.80404" lon="-3.69914">
        <ele>42</ele>
        <time>2019-07-14T11:09:46Z</time>
      </trkpt>
      <trkpt lat="47.80398" lon="-3.69912">
        <ele>42</ele>
        <time>2019-07-14T11:09:47Z</time>
      </trkpt>
      <trkpt lat="47.80393" lon="-3.69912">
        <ele>42</ele>
        <time>2019-07-14T11:09:48Z</time>
      </trkpt>
      <trkpt lat="47.80388" lon="-3.69911">
        <ele>42</ele>
        <time>2019-07-14T11:09:49Z</time>
      </trkpt>
      <trkpt lat="47.80383" lon="-3.69909">
        <ele>42</ele>
        <time>2019-07-14T11:09:50Z</time>
      </trkpt>
      <trkpt lat="47.80379" lon="-3.69908">
        <ele>42</ele>
        <time>2019-07-14T11:09:51Z</time>
      </trkpt>
      <trkpt lat="47.80377" lon="-3.69906">
        <ele>42</ele>
        <time>2019-07-14T11:09:52Z</time>
      </trkpt>
      <trkpt lat="47.80376" lon="-3.69905">
        <ele>42</ele>
        <time>2019-07-14T11:09:53Z</time>
      </trkpt>
      <trkpt lat="47.80376" lon="-3.69903">
        <ele>42</ele>
        <time>2019-07-14T11:09:54Z</time>
      </trkpt>
      <trkpt lat="47.80376" lon="-3.69901">
        <ele>42</ele>
        <time>2019-07-14T11:09:55Z</time>
      </trkpt>
      <trkpt lat="47.80376" lon="-3.69898">
        <ele>42</ele>
        <time>2019-07-14T11:09:56Z</time>
      </trkpt>
      <trkpt lat="47.80376" lon="-3.69894">
        <ele>42</ele>
        <time>2019-07-14T11:09:57Z</time>
      </trkpt>
      <trkpt lat="47.80375" lon="-3.69892">
        <ele>43</ele>
        <time>2019-07-14T11:09:58Z</time>
      </trkpt>
      <trkpt lat="47.80373" lon="-3.6989">
        <ele>43</ele>
        <time>2019-07-14T11:09:59Z</time>
      </trkpt>
      <trkpt lat="47.80371" lon="-3.69889">
        <ele>43</ele>
        <time>2019-07-14T11:10:00Z</time>
      </trkpt>
      <trkpt lat="47.80369" lon="-3.6989">
        <ele>43</ele>
        <time>2019-07-14T11:10:01Z</time>
      </trkpt>
      <trkpt lat="47.80369" lon="-3.6989">
        <ele>5</ele>
        <time>2019-07-14T11:20:19Z</time>
      </trkpt>
      <trkpt lat="47.80369" lon="-3.6989">
        <ele>6</ele>
        <time>2019-07-14T11:20:20Z</time>
      </trkpt>
      <trkpt lat="47.79919" lon="-3.7226">
        <ele>6</ele>
        <time>2019-07-14T11:20:21Z</time>
      </trkpt>
      <trkpt lat="47.79916" lon="-3.72264">
        <ele>5</ele>
        <time>2019-07-14T11:20:22Z</time>
      </trkpt>
      <trkpt lat="47.79912" lon="-3.72267">
        <ele>5</ele>
        <time>2019-07-14T11:20:23Z</time>
      </trkpt>
      <trkpt lat="47.79908" lon="-3.7227">
        <ele>5</ele>
        <time>2019-07-14T11:20:24Z</time>
      </trkpt>
      <trkpt lat="47.79903" lon="-3.72272">
        <ele>5</ele>
        <time>2019-07-14T11:20:25Z</time>
      </trkpt>
      <trkpt lat="47.79898" lon="-3.72275">
        <ele>5</ele>
        <time>2019-07-14T11:20:26Z</time>
      </trkpt>
      <trkpt lat="47.79894" lon="-3.72275">
        <ele>6</ele>
        <time>2019-07-14T11:20:27Z</time>
      </trkpt>
      <trkpt lat="47.79891" lon="-3.72274">
        <ele>7</ele>
        <time>2019-07-14T11:20:28Z</time>
      </trkpt>
      <trkpt lat="47.79888" lon="-3.72273">
        <ele>7</ele>
        <time>2019-07-14T11:20:29Z</time>
      </trkpt>
      <trkpt lat="47.79885" lon="-3.7227">
        <ele>7</ele>
        <time>2019-07-14T11:20:30Z</time>
      </trkpt>
      <trkpt lat="47.79882" lon="-3.72267">
        <ele>8</ele>
        <time>2019-07-14T11:20:31Z</time>
      </trkpt>
      <trkpt lat="47.79879" lon="-3.72264">
        <ele>8</ele>
        <time>2019-07-14T11:20:32Z</time>
      </trkpt>
      <trkpt lat="47.79877" lon="-3.7226">
        <ele>8</ele>
        <time>2019-07-14T11:20:33Z</time>
      </trkpt>
      <trkpt lat="47.79875" lon="-3.72257">
        <ele>8</ele>
        <time>2019-07-14T11:20:34Z</time>
      </trkpt>
      <trkpt lat="47.79874" lon="-3.72253">
        <ele>7</ele>
        <time>2019-07-14T11:20:35Z</time>
      </trkpt>
      <trkpt lat="47.79872" lon="-3.7225">
        <ele>7</ele>
        <time>2019-07-14T11:20:36Z</time>
      </trkpt>
      <trkpt lat="47.7987" lon="-3.72247">
        <ele>7</ele>
        <time>2019-07-14T11:20:37Z</time>
      </trkpt>
      <trkpt lat="47.79868" lon="-3.72245">
        <ele>8</ele>
        <time>2019-07-14T11:20:38Z</time>
      </trkpt>
      <trkpt lat="47.79865" lon="-3.72244">
        <ele>8</ele>
        <time>2019-07-14T11:20:39Z</time>
      </trkpt>
      <trkpt lat="47.79861" lon="-3.72243">
        <ele>8</ele>
        <time>2019-07-14T11:20:40Z</time>
      </trkpt>
      <trkpt lat="47.79858" lon="-3.72243">
        <ele>7</ele>
        <time>2019-07-14T11:20:41Z</time>
      </trkpt>
      <trkpt lat="47.79854" lon="-3.72243">
        <ele>7</ele>
        <time>2019-07-14T11:20:42Z</time>
      </trkpt>
      <trkpt lat="47.79851" lon="-3.72245">
        <ele>7</ele>
        <time>2019-07-14T11:20:43Z</time>
      </trkpt>
      <trkpt lat="47.79847" lon="-3.72247">
        <ele>7</ele>
        <time>2019-07-14T11:20:44Z</time>
      </trkpt>
      <trkpt lat="47.79844" lon="-3.7225">
        <ele>7</ele>
        <time>2019-07-14T11:20:45Z</time>
      </trkpt>
      <trkpt lat="47.79841" lon="-3.72253">
        <ele>7</ele>
        <time>2019-07-14T11:20:46Z</time>
      </trkpt>
      <trkpt lat="47.79837" lon="-3.72258">
        <ele>7</ele>
        <time>2019-07-14T11:20:47Z</time>
      </trkpt>
      <trkpt lat="47.79831" lon="-3.72261">
        <ele>7</ele>
        <time>2019-07-14T11:20:48Z</time>
      </trkpt>
      <trkpt lat="47.79826" lon="-3.72261">
        <ele>7</ele>
        <time>2019-07-14T11:20:49Z</time>
      </trkpt>
      <trkpt lat="47.79821" lon="-3.72259">
        <ele>7</ele>
        <time>2019-07-14T11:20:50Z</time>
      </trkpt>
      <trkpt lat="47.79816" lon="-3.72255">
        <ele>7</ele>
        <time>2019-07-14T11:20:51Z</time>
      </trkpt>
      <trkpt lat="47.79811" lon="-3.72251">
        <ele>7</ele>
        <time>2019-07-14T11:20:52Z</time>
      </trkpt>
      <trkpt lat="47.79807" lon="-3.72246">
        <ele>7</ele>
        <time>2019-07-14T11:20:53Z</time>
      </trkpt>
      <trkpt lat="47.79803" lon="-3.72242">
        <ele>7</ele>
        <time>2019-07-14T11:20:54Z</time>
      </trkpt>
      <trkpt lat="47.798" lon="-3.72238">
        <ele>7</ele>
        <time>2019-07-14T11:20:55Z</time>
      </trkpt>
      <trkpt lat="47.79797" lon="-3.72232">
        <ele>7</ele>
        <time>2019-07-14T11:20:56Z</time>
      </trkpt>
      <trkpt lat="47.79795" lon="-3.72225">
        <ele>7</ele>
        <time>2019-07-14T11:20:57Z</time>
      </trkpt>
      <trkpt lat="47.79794" lon="-3.72219">
        <ele>7</ele>
        <time>2019-07-14T11:20:58Z</time>
      </trkpt>
      <trkpt lat="47.79793" lon="-3.72213">
        <ele>7</ele>
        <time>2019-07-14T11:20:59Z</time>
      </trkpt>
      <trkpt lat="47.79793" lon="-3.72207">
        <ele>7</ele>
        <time>2019-07-14T11:21:00Z</time>
      </trkpt>
      <trkpt lat="47.79794" lon="-3.72202">
        <ele>7</ele>
        <time>2019-07-14T11:21:01Z</time>
      </trkpt>
      <trkpt lat="47.79795" lon="-3.72196">
        <ele>7</ele>
        <time>2019-07-14T11:21:02Z</time>
      </trkpt>
      <trkpt lat="47.79796" lon="-3.72191">
        <ele>7</ele>
        <time>2019-07-14T11:21:03Z</time>
      </trkpt>
      <trkpt lat="47.79797" lon="-3.72185">
        <ele>7</ele>
        <time>2019-07-14T11:21:04Z</time>
      </trkpt>
      <trkpt lat="47.79798" lon="-3.7218">
        <ele>7</ele>
        <time>2019-07-14T11:21:05Z</time>
      </trkpt>
      <trkpt lat="47.79799" lon="-3.72174">
        <ele>7</ele>
        <time>2019-07-14T11:21:06Z</time>
      </trkpt>
      <trkpt lat="47.798" lon="-3.72167">
        <ele>7</ele>
        <time>2019-07-14T11:21:07Z</time>
      </trkpt>
      <trkpt lat="47.79801" lon="-3.72162">
        <ele>7</ele>
        <time>2019-07-14T11:21:08Z</time>
      </trkpt>
      <trkpt lat="47.79801" lon="-3.72156">
        <ele>7</ele>
        <time>2019-07-14T11:21:09Z</time>
      </trkpt>
      <trkpt lat="47.798" lon="-3.7215">
        <ele>7</ele>
        <time>2019-07-14T11:21:10Z</time>
      </trkpt>
      <trkpt lat="47.798" lon="-3.72145">
        <ele>7</ele>
        <time>2019-07-14T11:21:11Z</time>
      </trkpt>
      <trkpt lat="47.798" lon="-3.72139">
        <ele>7</ele>
        <time>2019-07-14T11:21:12Z</time>
      </trkpt>
      <trkpt lat="47.798" lon="-3.72134">
        <ele>7</ele>
        <time>2019-07-14T11:21:13Z</time>
      </trkpt>
      <trkpt lat="47.798" lon="-3.72128">
        <ele>7</ele>
        <time>2019-07-14T11:21:14Z</time>
      </trkpt>
      <trkpt lat="47.79799" lon="-3.72122">
        <ele>7</ele>
        <time>2019-07-14T11:21:15Z</time>
      </trkpt>
      <trkpt lat="47.79799" lon="-3.72116">
        <ele>7</ele>
        <time>2019-07-14T11:21:16Z</time>
      </trkpt>
      <trkpt lat="47.79799" lon="-3.7211">
        <ele>7</ele>
        <time>2019-07-14T11:21:17Z</time>
      </trkpt>
      <trkpt lat="47.798" lon="-3.72104">
        <ele>7</ele>
        <time>2019-07-14T11:21:18Z</time>
      </trkpt>
      <trkpt lat="47.798" lon="-3.72099">
        <ele>7</ele>
        <time>2019-07-14T11:21:19Z</time>
      </trkpt>
      <trkpt lat="47.798" lon="-3.72093">
        <ele>7</ele>
        <time>2019-07-14T11:21:20Z</time>
      </trkpt>
      <trkpt lat="47.798" lon="-3.72088">
        <ele>7</ele>
        <time>2019-07-14T11:21:21Z</time>
      </trkpt>
      <trkpt lat="47.79799" lon="-3.72082">
        <ele>7</ele>
        <time>2019-07-14T11:21:22Z</time>
      </trkpt>
      <trkpt lat="47.79798" lon="-3.72078">
        <ele>8</ele>
        <time>2019-07-14T11:21:23Z</time>
      </trkpt>
      <trkpt lat="47.79795" lon="-3.72072">
        <ele>8</ele>
        <time>2019-07-14T11:21:24Z</time>
      </trkpt>
      <trkpt lat="47.79792" lon="-3.72067">
        <ele>8</ele>
        <time>2019-07-14T11:21:25Z</time>
      </trkpt>
      <trkpt lat="47.7979" lon="-3.72062">
        <ele>8</ele>
        <time>2019-07-14T11:21:26Z</time>
      </trkpt>
      <trkpt lat="47.79787" lon="-3.72057">
        <ele>8</ele>
        <time>2019-07-14T11:21:27Z</time>
      </trkpt>
      <trkpt lat="47.79784" lon="-3.72051">
        <ele>8</ele>
        <time>2019-07-14T11:21:28Z</time>
      </trkpt>
      <trkpt lat="47.79781" lon="-3.72044">
        <ele>8</ele>
        <time>2019-07-14T11:21:29Z</time>
      </trkpt>
      <trkpt lat="47.79778" lon="-3.72037">
        <ele>8</ele>
        <time>2019-07-14T11:21:30Z</time>
      </trkpt>
      <trkpt lat="47.79775" lon="-3.72031">
        <ele>8</ele>
        <time>2019-07-14T11:21:31Z</time>
      </trkpt>
      <trkpt lat="47.79774" lon="-3.72024">
        <ele>8</ele>
        <time>2019-07-14T11:21:32Z</time>
      </trkpt>
      <trkpt lat="47.79773" lon="-3.72018">
        <ele>8</ele>
        <time>2019-07-14T11:21:33Z</time>
      </trkpt>
      <trkpt lat="47.79772" lon="-3.72012">
        <ele>8</ele>
        <time>2019-07-14T11:21:34Z</time>
      </trkpt>
      <trkpt lat="47.79773" lon="-3.72006">
        <ele>8</ele>
        <time>2019-07-14T11:21:35Z</time>
      </trkpt>
      <trkpt lat="47.79773" lon="-3.72">
        <ele>8</ele>
        <time>2019-07-14T11:21:36Z</time>
      </trkpt>
      <trkpt lat="47.79772" lon="-3.71994">
        <ele>8</ele>
        <time>2019-07-14T11:21:37Z</time>
      </trkpt>
      <trkpt lat="47.79773" lon="-3.71988">
        <ele>8</ele>
        <time>2019-07-14T11:21:38Z</time>
      </trkpt>
      <trkpt lat="47.79772" lon="-3.71982">
        <ele>8</ele>
        <time>2019-07-14T11:21:39Z</time>
      </trkpt>
      <trkpt lat="47.79772" lon="-3.71976">
        <ele>8</ele>
        <time>2019-07-14T11:21:40Z</time>
      </trkpt>
      <trkpt lat="47.79773" lon="-3.7197">
        <ele>8</ele>
        <time>2019-07-14T11:21:41Z</time>
      </trkpt>
      <trkpt lat="47.79774" lon="-3.71964">
        <ele>8</ele>
        <time>2019-07-14T11:21:42Z</time>
      </trkpt>
      <trkpt lat="47.79775" lon="-3.7196">
        <ele>8</ele>
        <time>2019-07-14T11:21:43Z</time>
      </trkpt>
      <trkpt lat="47.79775" lon="-3.71954">
        <ele>8</ele>
        <time>2019-07-14T11:21:44Z</time>
      </trkpt>
      <trkpt lat="47.79775" lon="-3.71948">
        <ele>8</ele>
        <time>2019-07-14T11:21:45Z</time>
      </trkpt>
      <trkpt lat="47.79775" lon="-3.71943">
        <ele>9</ele>
        <time>2019-07-14T11:21:46Z</time>
      </trkpt>
      <trkpt lat="47.79774" lon="-3.71937">
        <ele>9</ele>
        <time>2019-07-14T11:21:47Z</time>
      </trkpt>
      <trkpt lat="47.79774" lon="-3.71933">
        <ele>9</ele>
        <time>2019-07-14T11:21:48Z</time>
      </trkpt>
      <trkpt lat="47.79773" lon="-3.71928">
        <ele>9</ele>
        <time>2019-07-14T11:21:49Z</time>
      </trkpt>
      <trkpt lat="47.79772" lon="-3.71923">
        <ele>9</ele>
        <time>2019-07-14T11:21:50Z</time>
      </trkpt>
      <trkpt lat="47.79772" lon="-3.71917">
        <ele>9</ele>
        <time>2019-07-14T11:21:51Z</time>
      </trkpt>
      <trkpt lat="47.79772" lon="-3.71912">
        <ele>9</ele>
        <time>2019-07-14T11:21:52Z</time>
      </trkpt>
      <trkpt lat="47.79773" lon="-3.71907">
        <ele>9</ele>
        <time>2019-07-14T11:21:53Z</time>
      </trkpt>
      <trkpt lat="47.79774" lon="-3.71903">
        <ele>9</ele>
        <time>2019-07-14T11:21:54Z</time>
      </trkpt>
      <trkpt lat="47.79775" lon="-3.71898">
        <ele>8</ele>
        <time>2019-07-14T11:21:55Z</time>
      </trkpt>
      <trkpt lat="47.79776" lon="-3.71893">
        <ele>8</ele>
        <time>2019-07-14T11:21:56Z</time>
      </trkpt>
      <trkpt lat="47.79776" lon="-3.71887">
        <ele>8</ele>
        <time>2019-07-14T11:21:57Z</time>
      </trkpt>
      <trkpt lat="47.79775" lon="-3.71883">
        <ele>8</ele>
        <time>2019-07-14T11:21:58Z</time>
      </trkpt>
      <trkpt lat="47.79773" lon="-3.71878">
        <ele>8</ele>
        <time>2019-07-14T11:21:59Z</time>
      </trkpt>
      <trkpt lat="47.79771" lon="-3.71876">
        <ele>8</ele>
        <time>2019-07-14T11:22:00Z</time>
      </trkpt>
      <trkpt lat="47.79769" lon="-3.71875">
        <ele>8</ele>
        <time>2019-07-14T11:22:01Z</time>
      </trkpt>
      <trkpt lat="47.79767" lon="-3.71876">
        <ele>8</ele>
        <time>2019-07-14T11:22:02Z</time>
      </trkpt>
      <trkpt lat="47.79765" lon="-3.71876">
        <ele>8</ele>
        <time>2019-07-14T11:22:03Z</time>
      </trkpt>
      <trkpt lat="47.79762" lon="-3.71876">
        <ele>8</ele>
        <time>2019-07-14T11:22:04Z</time>
      </trkpt>
      <trkpt lat="47.7976" lon="-3.71876">
        <ele>8</ele>
        <time>2019-07-14T11:22:05Z</time>
      </trkpt>
      <trkpt lat="47.79759" lon="-3.71876">
        <ele>8</ele>
        <time>2019-07-14T11:22:06Z</time>
      </trkpt>
      <trkpt lat="47.79758" lon="-3.71876">
        <ele>8</ele>
        <time>2019-07-14T11:22:07Z</time>
      </trkpt>
      <trkpt lat="47.79758" lon="-3.71877">
        <ele>8</ele>
        <time>2019-07-14T11:22:08Z</time>
      </trkpt>
      <trkpt lat="47.79746" lon="-3.71874">
        <ele>9</ele>
        <time>2019-07-14T11:22:09Z</time>
      </trkpt>
      <trkpt lat="47.79745" lon="-3.71873">
        <ele>9</ele>
        <time>2019-07-14T11:22:10Z</time>
      </trkpt>
      <trkpt lat="47.79744" lon="-3.71873">
        <ele>9</ele>
        <time>2019-07-14T11:22:11Z</time>
      </trkpt>
      <trkpt lat="47.79744" lon="-3.71873">
        <ele>9</ele>
        <time>2019-07-14T11:22:12Z</time>
      </trkpt>
      <trkpt lat="47.79744" lon="-3.71874">
        <ele>9</ele>
        <time>2019-07-14T11:22:13Z</time>
      </trkpt>
      <trkpt lat="47.79733" lon="-3.71865">
        <ele>10</ele>
        <time>2019-07-14T11:22:14Z</time>
      </trkpt>
      <trkpt lat="47.79732" lon="-3.71862">
        <ele>10</ele>
        <time>2019-07-14T11:22:15Z</time>
      </trkpt>
      <trkpt lat="47.7973" lon="-3.71859">
        <ele>10</ele>
        <time>2019-07-14T11:22:16Z</time>
      </trkpt>
      <trkpt lat="47.79729" lon="-3.71856">
        <ele>10</ele>
        <time>2019-07-14T11:22:17Z</time>
      </trkpt>
      <trkpt lat="47.79727" lon="-3.71853">
        <ele>10</ele>
        <time>2019-07-14T11:22:18Z</time>
      </trkpt>
      <trkpt lat="47.79725" lon="-3.7185">
        <ele>10</ele>
        <time>2019-07-14T11:22:19Z</time>
      </trkpt>
      <trkpt lat="47.79723" lon="-3.71848">
        <ele>10</ele>
        <time>2019-07-14T11:22:20Z</time>
      </trkpt>
      <trkpt lat="47.79721" lon="-3.71845">
        <ele>10</ele>
        <time>2019-07-14T11:22:21Z</time>
      </trkpt>
      <trkpt lat="47.79719" lon="-3.71843">
        <ele>10</ele>
        <time>2019-07-14T11:22:22Z</time>
      </trkpt>
      <trkpt lat="47.79717" lon="-3.7184">
        <ele>10</ele>
        <time>2019-07-14T11:22:23Z</time>
      </trkpt>
      <trkpt lat="47.79715" lon="-3.71838">
        <ele>10</ele>
        <time>2019-07-14T11:22:24Z</time>
      </trkpt>
      <trkpt lat="47.79713" lon="-3.71836">
        <ele>10</ele>
        <time>2019-07-14T11:22:25Z</time>
      </trkpt>
      <trkpt lat="47.79711" lon="-3.71835">
        <ele>10</ele>
        <time>2019-07-14T11:22:26Z</time>
      </trkpt>
      <trkpt lat="47.79709" lon="-3.71832">
        <ele>10</ele>
        <time>2019-07-14T11:22:27Z</time>
      </trkpt>
      <trkpt lat="47.79708" lon="-3.71828">
        <ele>10</ele>
        <time>2019-07-14T11:22:28Z</time>
      </trkpt>
      <trkpt lat="47.79706" lon="-3.71825">
        <ele>10</ele>
        <time>2019-07-14T11:22:29Z</time>
      </trkpt>
      <trkpt lat="47.79704" lon="-3.71822">
        <ele>11</ele>
        <time>2019-07-14T11:22:30Z</time>
      </trkpt>
      <trkpt lat="47.79702" lon="-3.71819">
        <ele>11</ele>
        <time>2019-07-14T11:22:31Z</time>
      </trkpt>
      <trkpt lat="47.797" lon="-3.71815">
        <ele>11</ele>
        <time>2019-07-14T11:22:32Z</time>
      </trkpt>
      <trkpt lat="47.79699" lon="-3.71812">
        <ele>11</ele>
        <time>2019-07-14T11:22:33Z</time>
      </trkpt>
      <trkpt lat="47.79697" lon="-3.71809">
        <ele>11</ele>
        <time>2019-07-14T11:22:34Z</time>
      </trkpt>
      <trkpt lat="47.79695" lon="-3.71805">
        <ele>11</ele>
        <time>2019-07-14T11:22:35Z</time>
      </trkpt>
      <trkpt lat="47.79694" lon="-3.71801">
        <ele>11</ele>
        <time>2019-07-14T11:22:36Z</time>
      </trkpt>
      <trkpt lat="47.79692" lon="-3.71798">
        <ele>11</ele>
        <time>2019-07-14T11:22:37Z</time>
      </trkpt>
      <trkpt lat="47.7969" lon="-3.71794">
        <ele>11</ele>
        <time>2019-07-14T11:22:38Z</time>
      </trkpt>
      <trkpt lat="47.79688" lon="-3.7179">
        <ele>11</ele>
        <time>2019-07-14T11:22:39Z</time>
      </trkpt>
      <trkpt lat="47.79686" lon="-3.71787">
        <ele>12</ele>
        <time>2019-07-14T11:22:40Z</time>
      </trkpt>
      <trkpt lat="47.79683" lon="-3.71783">
        <ele>12</ele>
        <time>2019-07-14T11:22:41Z</time>
      </trkpt>
      <trkpt lat="47.79681" lon="-3.7178">
        <ele>12</ele>
        <time>2019-07-14T11:22:42Z</time>
      </trkpt>
      <trkpt lat="47.79678" lon="-3.71777">
        <ele>12</ele>
        <time>2019-07-14T11:22:43Z</time>
      </trkpt>
      <trkpt lat="47.79675" lon="-3.71773">
        <ele>12</ele>
        <time>2019-07-14T11:22:44Z</time>
      </trkpt>
      <trkpt lat="47.79672" lon="-3.7177">
        <ele>12</ele>
        <time>2019-07-14T11:22:45Z</time>
      </trkpt>
      <trkpt lat="47.7967" lon="-3.71767">
        <ele>12</ele>
        <time>2019-07-14T11:22:46Z</time>
      </trkpt>
      <trkpt lat="47.79667" lon="-3.71764">
        <ele>12</ele>
        <time>2019-07-14T11:22:47Z</time>
      </trkpt>
      <trkpt lat="47.79664" lon="-3.7176">
        <ele>12</ele>
        <time>2019-07-14T11:22:48Z</time>
      </trkpt>
      <trkpt lat="47.7966" lon="-3.71757">
        <ele>12</ele>
        <time>2019-07-14T11:22:49Z</time>
      </trkpt>
      <trkpt lat="47.79657" lon="-3.71753">
        <ele>12</ele>
        <time>2019-07-14T11:22:50Z</time>
      </trkpt>
      <trkpt lat="47.79653" lon="-3.7175">
        <ele>12</ele>
        <time>2019-07-14T11:22:51Z</time>
      </trkpt>
      <trkpt lat="47.7965" lon="-3.71746">
        <ele>12</ele>
        <time>2019-07-14T11:22:52Z</time>
      </trkpt>
      <trkpt lat="47.79648" lon="-3.71741">
        <ele>12</ele>
        <time>2019-07-14T11:22:53Z</time>
      </trkpt>
      <trkpt lat="47.79645" lon="-3.71736">
        <ele>12</ele>
        <time>2019-07-14T11:22:54Z</time>
      </trkpt>
      <trkpt lat="47.79643" lon="-3.71731">
        <ele>12</ele>
        <time>2019-07-14T11:22:55Z</time>
      </trkpt>
      <trkpt lat="47.7964" lon="-3.71727">
        <ele>12</ele>
        <time>2019-07-14T11:22:56Z</time>
      </trkpt>
      <trkpt lat="47.79639" lon="-3.71723">
        <ele>12</ele>
        <time>2019-07-14T11:22:57Z</time>
      </trkpt>
      <trkpt lat="47.79637" lon="-3.71718">
        <ele>12</ele>
        <time>2019-07-14T11:22:58Z</time>
      </trkpt>
      <trkpt lat="47.79636" lon="-3.71715">
        <ele>12</ele>
        <time>2019-07-14T11:22:59Z</time>
      </trkpt>
      <trkpt lat="47.79634" lon="-3.71712">
        <ele>12</ele>
        <time>2019-07-14T11:23:00Z</time>
      </trkpt>
      <trkpt lat="47.79632" lon="-3.7171">
        <ele>13</ele>
        <time>2019-07-14T11:23:01Z</time>
      </trkpt>
      <trkpt lat="47.79631" lon="-3.71707">
        <ele>13</ele>
        <time>2019-07-14T11:23:02Z</time>
      </trkpt>
      <trkpt lat="47.79629" lon="-3.71706">
        <ele>13</ele>
        <time>2019-07-14T11:23:03Z</time>
      </trkpt>
      <trkpt lat="47.79628" lon="-3.71704">
        <ele>13</ele>
        <time>2019-07-14T11:23:04Z</time>
      </trkpt>
      <trkpt lat="47.79626" lon="-3.71701">
        <ele>13</ele>
        <time>2019-07-14T11:23:05Z</time>
      </trkpt>
      <trkpt lat="47.79624" lon="-3.71698">
        <ele>13</ele>
        <time>2019-07-14T11:23:06Z</time>
      </trkpt>
      <trkpt lat="47.79622" lon="-3.71695">
        <ele>13</ele>
        <time>2019-07-14T11:23:07Z</time>
      </trkpt>
      <trkpt lat="47.7962" lon="-3.71693">
        <ele>13</ele>
        <time>2019-07-14T11:23:08Z</time>
      </trkpt>
      <trkpt lat="47.79617" lon="-3.71691">
        <ele>13</ele>
        <time>2019-07-14T11:23:09Z</time>
      </trkpt>
      <trkpt lat="47.79615" lon="-3.71688">
        <ele>13</ele>
        <time>2019-07-14T11:23:10Z</time>
      </trkpt>
      <trkpt lat="47.79613" lon="-3.71686">
        <ele>13</ele>
        <time>2019-07-14T11:23:11Z</time>
      </trkpt>
      <trkpt lat="47.7961" lon="-3.71682">
        <ele>13</ele>
        <time>2019-07-14T11:23:12Z</time>
      </trkpt>
      <trkpt lat="47.79609" lon="-3.71679">
        <ele>14</ele>
        <time>2019-07-14T11:23:13Z</time>
      </trkpt>
      <trkpt lat="47.79608" lon="-3.71675">
        <ele>14</ele>
        <time>2019-07-14T11:23:14Z</time>
      </trkpt>
      <trkpt lat="47.79606" lon="-3.71671">
        <ele>14</ele>
        <time>2019-07-14T11:23:15Z</time>
      </trkpt>
      <trkpt lat="47.79604" lon="-3.71667">
        <ele>14</ele>
        <time>2019-07-14T11:23:16Z</time>
      </trkpt>
      <trkpt lat="47.79602" lon="-3.71663">
        <ele>14</ele>
        <time>2019-07-14T11:23:17Z</time>
      </trkpt>
      <trkpt lat="47.796" lon="-3.7166">
        <ele>14</ele>
        <time>2019-07-14T11:23:18Z</time>
      </trkpt>
      <trkpt lat="47.79598" lon="-3.71657">
        <ele>14</ele>
        <time>2019-07-14T11:23:19Z</time>
      </trkpt>
      <trkpt lat="47.79596" lon="-3.71655">
        <ele>14</ele>
        <time>2019-07-14T11:23:20Z</time>
      </trkpt>
      <trkpt lat="47.79593" lon="-3.71653">
        <ele>14</ele>
        <time>2019-07-14T11:23:21Z</time>
      </trkpt>
      <trkpt lat="47.79591" lon="-3.71651">
        <ele>14</ele>
        <time>2019-07-14T11:23:22Z</time>
      </trkpt>
      <trkpt lat="47.79588" lon="-3.71649">
        <ele>14</ele>
        <time>2019-07-14T11:23:23Z</time>
      </trkpt>
      <trkpt lat="47.79585" lon="-3.71646">
        <ele>14</ele>
        <time>2019-07-14T11:23:24Z</time>
      </trkpt>
      <trkpt lat="47.79583" lon="-3.71642">
        <ele>14</ele>
        <time>2019-07-14T11:23:25Z</time>
      </trkpt>
      <trkpt lat="47.79582" lon="-3.71638">
        <ele>14</ele>
        <time>2019-07-14T11:23:26Z</time>
      </trkpt>
      <trkpt lat="47.7958" lon="-3.71633">
        <ele>14</ele>
        <time>2019-07-14T11:23:27Z</time>
      </trkpt>
      <trkpt lat="47.79578" lon="-3.71628">
        <ele>14</ele>
        <time>2019-07-14T11:23:28Z</time>
      </trkpt>
      <trkpt lat="47.79576" lon="-3.71623">
        <ele>14</ele>
        <time>2019-07-14T11:23:29Z</time>
      </trkpt>
      <trkpt lat="47.79573" lon="-3.71618">
        <ele>14</ele>
        <time>2019-07-14T11:23:30Z</time>
      </trkpt>
      <trkpt lat="47.79571" lon="-3.71613">
        <ele>14</ele>
        <time>2019-07-14T11:23:31Z</time>
      </trkpt>
      <trkpt lat="47.79568" lon="-3.71607">
        <ele>14</ele>
        <time>2019-07-14T11:23:32Z</time>
      </trkpt>
      <trkpt lat="47.79567" lon="-3.716">
        <ele>14</ele>
        <time>2019-07-14T11:23:33Z</time>
      </trkpt>
      <trkpt lat="47.79567" lon="-3.71595">
        <ele>14</ele>
        <time>2019-07-14T11:23:34Z</time>
      </trkpt>
      <trkpt lat="47.79567" lon="-3.7159">
        <ele>14</ele>
        <time>2019-07-14T11:23:35Z</time>
      </trkpt>
      <trkpt lat="47.79567" lon="-3.71585">
        <ele>14</ele>
        <time>2019-07-14T11:23:36Z</time>
      </trkpt>
      <trkpt lat="47.79568" lon="-3.71579">
        <ele>14</ele>
        <time>2019-07-14T11:23:37Z</time>
      </trkpt>
      <trkpt lat="47.79568" lon="-3.71575">
        <ele>14</ele>
        <time>2019-07-14T11:23:38Z</time>
      </trkpt>
      <trkpt lat="47.79568" lon="-3.71571">
        <ele>15</ele>
        <time>2019-07-14T11:23:39Z</time>
      </trkpt>
      <trkpt lat="47.79567" lon="-3.71567">
        <ele>14</ele>
        <time>2019-07-14T11:23:40Z</time>
      </trkpt>
      <trkpt lat="47.79567" lon="-3.71564">
        <ele>14</ele>
        <time>2019-07-14T11:23:41Z</time>
      </trkpt>
      <trkpt lat="47.79566" lon="-3.71561">
        <ele>15</ele>
        <time>2019-07-14T11:23:42Z</time>
      </trkpt>
      <trkpt lat="47.79566" lon="-3.71559">
        <ele>15</ele>
        <time>2019-07-14T11:23:43Z</time>
      </trkpt>
      <trkpt lat="47.79565" lon="-3.71556">
        <ele>15</ele>
        <time>2019-07-14T11:23:44Z</time>
      </trkpt>
      <trkpt lat="47.79564" lon="-3.71553">
        <ele>15</ele>
        <time>2019-07-14T11:23:45Z</time>
      </trkpt>
      <trkpt lat="47.79563" lon="-3.71551">
        <ele>15</ele>
        <time>2019-07-14T11:23:46Z</time>
      </trkpt>
      <trkpt lat="47.79562" lon="-3.71549">
        <ele>15</ele>
        <time>2019-07-14T11:23:47Z</time>
      </trkpt>
      <trkpt lat="47.79562" lon="-3.71549">
        <ele>15</ele>
        <time>2019-07-14T11:23:48Z</time>
      </trkpt>
      <trkpt lat="47.79562" lon="-3.71549">
        <ele>15</ele>
        <time>2019-07-14T11:23:49Z</time>
      </trkpt>
      <trkpt lat="47.79563" lon="-3.7155">
        <ele>15</ele>
        <time>2019-07-14T11:23:50Z</time>
      </trkpt>
      <trkpt lat="47.79563" lon="-3.71551">
        <ele>15</ele>
        <time>2019-07-14T11:23:51Z</time>
      </trkpt>
      <trkpt lat="47.79562" lon="-3.71552">
        <ele>15</ele>
        <time>2019-07-14T11:23:52Z</time>
      </trkpt>
      <trkpt lat="47.79561" lon="-3.71553">
        <ele>15</ele>
        <time>2019-07-14T11:23:53Z</time>
      </trkpt>
      <trkpt lat="47.7956" lon="-3.71554">
        <ele>15</ele>
        <time>2019-07-14T11:23:54Z</time>
      </trkpt>
      <trkpt lat="47.79559" lon="-3.71555">
        <ele>15</ele>
        <time>2019-07-14T11:23:55Z</time>
      </trkpt>
      <trkpt lat="47.79558" lon="-3.71555">
        <ele>15</ele>
        <time>2019-07-14T11:23:56Z</time>
      </trkpt>
      <trkpt lat="47.79558" lon="-3.71556">
        <ele>15</ele>
        <time>2019-07-14T11:23:57Z</time>
      </trkpt>
      <trkpt lat="47.79557" lon="-3.71556">
        <ele>15</ele>
        <time>2019-07-14T11:23:58Z</time>
      </trkpt>
      <trkpt lat="47.79555" lon="-3.71556">
        <ele>15</ele>
        <time>2019-07-14T11:23:59Z</time>
      </trkpt>
      <trkpt lat="47.79554" lon="-3.71556">
        <ele>15</ele>
        <time>2019-07-14T11:24:00Z</time>
      </trkpt>
      <trkpt lat="47.79553" lon="-3.71556">
        <ele>15</ele>
        <time>2019-07-14T11:24:01Z</time>
      </trkpt>
      <trkpt lat="47.79553" lon="-3.71555">
        <ele>15</ele>
        <time>2019-07-14T11:24:02Z</time>
      </trkpt>
      <trkpt lat="47.79552" lon="-3.71553">
        <ele>15</ele>
        <time>2019-07-14T11:24:03Z</time>
      </trkpt>
      <trkpt lat="47.79551" lon="-3.71551">
        <ele>15</ele>
        <time>2019-07-14T11:24:04Z</time>
      </trkpt>
      <trkpt lat="47.79551" lon="-3.71549">
        <ele>15</ele>
        <time>2019-07-14T11:24:05Z</time>
      </trkpt>
      <trkpt lat="47.79551" lon="-3.71545">
        <ele>15</ele>
        <time>2019-07-14T11:24:06Z</time>
      </trkpt>
      <trkpt lat="47.79551" lon="-3.71541">
        <ele>14</ele>
        <time>2019-07-14T11:24:07Z</time>
      </trkpt>
      <trkpt lat="47.7955" lon="-3.71537">
        <ele>14</ele>
        <time>2019-07-14T11:24:08Z</time>
      </trkpt>
      <trkpt lat="47.7955" lon="-3.71533">
        <ele>14</ele>
        <time>2019-07-14T11:24:09Z</time>
      </trkpt>
      <trkpt lat="47.79549" lon="-3.71529">
        <ele>14</ele>
        <time>2019-07-14T11:24:10Z</time>
      </trkpt>
      <trkpt lat="47.79548" lon="-3.71526">
        <ele>14</ele>
        <time>2019-07-14T11:24:11Z</time>
      </trkpt>
      <trkpt lat="47.79546" lon="-3.71521">
        <ele>14</ele>
        <time>2019-07-14T11:24:12Z</time>
      </trkpt>
      <trkpt lat="47.79544" lon="-3.71517">
        <ele>14</ele>
        <time>2019-07-14T11:24:13Z</time>
      </trkpt>
      <trkpt lat="47.79542" lon="-3.71512">
        <ele>14</ele>
        <time>2019-07-14T11:24:14Z</time>
      </trkpt>
      <trkpt lat="47.7954" lon="-3.71509">
        <ele>14</ele>
        <time>2019-07-14T11:24:15Z</time>
      </trkpt>
      <trkpt lat="47.79538" lon="-3.71504">
        <ele>14</ele>
        <time>2019-07-14T11:24:16Z</time>
      </trkpt>
      <trkpt lat="47.79536" lon="-3.71501">
        <ele>14</ele>
        <time>2019-07-14T11:24:17Z</time>
      </trkpt>
      <trkpt lat="47.79534" lon="-3.71497">
        <ele>14</ele>
        <time>2019-07-14T11:24:18Z</time>
      </trkpt>
      <trkpt lat="47.79532" lon="-3.71493">
        <ele>14</ele>
        <time>2019-07-14T11:24:19Z</time>
      </trkpt>
      <trkpt lat="47.79529" lon="-3.7149">
        <ele>14</ele>
        <time>2019-07-14T11:24:20Z</time>
      </trkpt>
      <trkpt lat="47.79527" lon="-3.71486">
        <ele>14</ele>
        <time>2019-07-14T11:24:21Z</time>
      </trkpt>
      <trkpt lat="47.79524" lon="-3.71483">
        <ele>14</ele>
        <time>2019-07-14T11:24:22Z</time>
      </trkpt>
      <trkpt lat="47.79522" lon="-3.71478">
        <ele>14</ele>
        <time>2019-07-14T11:24:23Z</time>
      </trkpt>
      <trkpt lat="47.79521" lon="-3.71474">
        <ele>14</ele>
        <time>2019-07-14T11:24:24Z</time>
      </trkpt>
      <trkpt lat="47.79519" lon="-3.71469">
        <ele>14</ele>
        <time>2019-07-14T11:24:25Z</time>
      </trkpt>
      <trkpt lat="47.79518" lon="-3.71464">
        <ele>14</ele>
        <time>2019-07-14T11:24:26Z</time>
      </trkpt>
      <trkpt lat="47.79517" lon="-3.71458">
        <ele>14</ele>
        <time>2019-07-14T11:24:27Z</time>
      </trkpt>
      <trkpt lat="47.79517" lon="-3.71453">
        <ele>14</ele>
        <time>2019-07-14T11:24:28Z</time>
      </trkpt>
      <trkpt lat="47.79517" lon="-3.71448">
        <ele>14</ele>
        <time>2019-07-14T11:24:29Z</time>
      </trkpt>
      <trkpt lat="47.79517" lon="-3.71443">
        <ele>14</ele>
        <time>2019-07-14T11:24:30Z</time>
      </trkpt>
      <trkpt lat="47.79517" lon="-3.71438">
        <ele>14</ele>
        <time>2019-07-14T11:24:31Z</time>
      </trkpt>
      <trkpt lat="47.79515" lon="-3.71433">
        <ele>14</ele>
        <time>2019-07-14T11:24:32Z</time>
      </trkpt>
      <trkpt lat="47.79513" lon="-3.71429">
        <ele>14</ele>
        <time>2019-07-14T11:24:33Z</time>
      </trkpt>
      <trkpt lat="47.79511" lon="-3.71426">
        <ele>14</ele>
        <time>2019-07-14T11:24:34Z</time>
      </trkpt>
      <trkpt lat="47.79508" lon="-3.71424">
        <ele>14</ele>
        <time>2019-07-14T11:24:35Z</time>
      </trkpt>
      <trkpt lat="47.79505" lon="-3.71424">
        <ele>14</ele>
        <time>2019-07-14T11:24:36Z</time>
      </trkpt>
      <trkpt lat="47.79502" lon="-3.71424">
        <ele>14</ele>
        <time>2019-07-14T11:24:37Z</time>
      </trkpt>
      <trkpt lat="47.79498" lon="-3.71425">
        <ele>14</ele>
        <time>2019-07-14T11:24:38Z</time>
      </trkpt>
      <trkpt lat="47.79493" lon="-3.71424">
        <ele>13</ele>
        <time>2019-07-14T11:24:39Z</time>
      </trkpt>
      <trkpt lat="47.79489" lon="-3.71424">
        <ele>13</ele>
        <time>2019-07-14T11:24:40Z</time>
      </trkpt>
      <trkpt lat="47.79485" lon="-3.71424">
        <ele>13</ele>
        <time>2019-07-14T11:24:41Z</time>
      </trkpt>
      <trkpt lat="47.7948" lon="-3.71425">
        <ele>13</ele>
        <time>2019-07-14T11:24:42Z</time>
      </trkpt>
      <trkpt lat="47.79475" lon="-3.71425">
        <ele>13</ele>
        <time>2019-07-14T11:24:43Z</time>
      </trkpt>
      <trkpt lat="47.7947" lon="-3.71424">
        <ele>12</ele>
        <time>2019-07-14T11:24:44Z</time>
      </trkpt>
      <trkpt lat="47.79464" lon="-3.71423">
        <ele>12</ele>
        <time>2019-07-14T11:24:45Z</time>
      </trkpt>
      <trkpt lat="47.79459" lon="-3.7142">
        <ele>12</ele>
        <time>2019-07-14T11:24:46Z</time>
      </trkpt>
      <trkpt lat="47.79455" lon="-3.71417">
        <ele>12</ele>
        <time>2019-07-14T11:24:47Z</time>
      </trkpt>
      <trkpt lat="47.79451" lon="-3.71412">
        <ele>12</ele>
        <time>2019-07-14T11:24:48Z</time>
      </trkpt>
      <trkpt lat="47.79447" lon="-3.71408">
        <ele>12</ele>
        <time>2019-07-14T11:24:49Z</time>
      </trkpt>
      <trkpt lat="47.79443" lon="-3.71403">
        <ele>12</ele>
        <time>2019-07-14T11:24:50Z</time>
      </trkpt>
      <trkpt lat="47.7944" lon="-3.71398">
        <ele>12</ele>
        <time>2019-07-14T11:24:51Z</time>
      </trkpt>
      <trkpt lat="47.79437" lon="-3.71393">
        <ele>12</ele>
        <time>2019-07-14T11:24:52Z</time>
      </trkpt>
      <trkpt lat="47.79434" lon="-3.71388">
        <ele>12</ele>
        <time>2019-07-14T11:24:53Z</time>
      </trkpt>
      <trkpt lat="47.7943" lon="-3.71385">
        <ele>12</ele>
        <time>2019-07-14T11:24:54Z</time>
      </trkpt>
      <trkpt lat="47.79427" lon="-3.71383">
        <ele>12</ele>
        <time>2019-07-14T11:24:55Z</time>
      </trkpt>
      <trkpt lat="47.79423" lon="-3.7138">
        <ele>12</ele>
        <time>2019-07-14T11:24:56Z</time>
      </trkpt>
      <trkpt lat="47.7942" lon="-3.71378">
        <ele>12</ele>
        <time>2019-07-14T11:24:57Z</time>
      </trkpt>
      <trkpt lat="47.79417" lon="-3.71374">
        <ele>11</ele>
        <time>2019-07-14T11:24:58Z</time>
      </trkpt>
      <trkpt lat="47.79415" lon="-3.7137">
        <ele>11</ele>
        <time>2019-07-14T11:24:59Z</time>
      </trkpt>
      <trkpt lat="47.79413" lon="-3.71366">
        <ele>11</ele>
        <time>2019-07-14T11:25:00Z</time>
      </trkpt>
      <trkpt lat="47.79412" lon="-3.71361">
        <ele>11</ele>
        <time>2019-07-14T11:25:01Z</time>
      </trkpt>
      <trkpt lat="47.7941" lon="-3.71357">
        <ele>11</ele>
        <time>2019-07-14T11:25:02Z</time>
      </trkpt>
      <trkpt lat="47.79409" lon="-3.71354">
        <ele>11</ele>
        <time>2019-07-14T11:25:03Z</time>
      </trkpt>
      <trkpt lat="47.79408" lon="-3.7135">
        <ele>11</ele>
        <time>2019-07-14T11:25:04Z</time>
      </trkpt>
      <trkpt lat="47.79407" lon="-3.71346">
        <ele>11</ele>
        <time>2019-07-14T11:25:05Z</time>
      </trkpt>
      <trkpt lat="47.79406" lon="-3.71342">
        <ele>11</ele>
        <time>2019-07-14T11:25:06Z</time>
      </trkpt>
      <trkpt lat="47.79405" lon="-3.71338">
        <ele>11</ele>
        <time>2019-07-14T11:25:07Z</time>
      </trkpt>
      <trkpt lat="47.79404" lon="-3.71333">
        <ele>11</ele>
        <time>2019-07-14T11:25:08Z</time>
      </trkpt>
      <trkpt lat="47.79404" lon="-3.71329">
        <ele>11</ele>
        <time>2019-07-14T11:25:09Z</time>
      </trkpt>
      <trkpt lat="47.79403" lon="-3.71323">
        <ele>11</ele>
        <time>2019-07-14T11:25:10Z</time>
      </trkpt>
      <trkpt lat="47.79401" lon="-3.71318">
        <ele>11</ele>
        <time>2019-07-14T11:25:11Z</time>
      </trkpt>
      <trkpt lat="47.794" lon="-3.71313">
        <ele>11</ele>
        <time>2019-07-14T11:25:12Z</time>
      </trkpt>
      <trkpt lat="47.79399" lon="-3.71307">
        <ele>11</ele>
        <time>2019-07-14T11:25:13Z</time>
      </trkpt>
      <trkpt lat="47.79398" lon="-3.71301">
        <ele>11</ele>
        <time>2019-07-14T11:25:14Z</time>
      </trkpt>
      <trkpt lat="47.79398" lon="-3.71296">
        <ele>11</ele>
        <time>2019-07-14T11:25:15Z</time>
      </trkpt>
      <trkpt lat="47.79397" lon="-3.71291">
        <ele>11</ele>
        <time>2019-07-14T11:25:16Z</time>
      </trkpt>
      <trkpt lat="47.79397" lon="-3.71287">
        <ele>11</ele>
        <time>2019-07-14T11:25:17Z</time>
      </trkpt>
      <trkpt lat="47.79398" lon="-3.71281">
        <ele>11</ele>
        <time>2019-07-14T11:25:18Z</time>
      </trkpt>
      <trkpt lat="47.79399" lon="-3.71276">
        <ele>11</ele>
        <time>2019-07-14T11:25:19Z</time>
      </trkpt>
      <trkpt lat="47.794" lon="-3.71272">
        <ele>11</ele>
        <time>2019-07-14T11:25:20Z</time>
      </trkpt>
      <trkpt lat="47.79401" lon="-3.71268">
        <ele>11</ele>
        <time>2019-07-14T11:25:21Z</time>
      </trkpt>
      <trkpt lat="47.79403" lon="-3.71264">
        <ele>10</ele>
        <time>2019-07-14T11:25:22Z</time>
      </trkpt>
      <trkpt lat="47.79405" lon="-3.71262">
        <ele>10</ele>
        <time>2019-07-14T11:25:23Z</time>
      </trkpt>
      <trkpt lat="47.79407" lon="-3.7126">
        <ele>10</ele>
        <time>2019-07-14T11:25:24Z</time>
      </trkpt>
      <trkpt lat="47.7941" lon="-3.71258">
        <ele>10</ele>
        <time>2019-07-14T11:25:25Z</time>
      </trkpt>
      <trkpt lat="47.79412" lon="-3.71257">
        <ele>10</ele>
        <time>2019-07-14T11:25:26Z</time>
      </trkpt>
      <trkpt lat="47.79414" lon="-3.71255">
        <ele>10</ele>
        <time>2019-07-14T11:25:27Z</time>
      </trkpt>
      <trkpt lat="47.79417" lon="-3.71253">
        <ele>10</ele>
        <time>2019-07-14T11:25:28Z</time>
      </trkpt>
      <trkpt lat="47.79419" lon="-3.71251">
        <ele>10</ele>
        <time>2019-07-14T11:25:29Z</time>
      </trkpt>
      <trkpt lat="47.79421" lon="-3.71249">
        <ele>10</ele>
        <time>2019-07-14T11:25:30Z</time>
      </trkpt>
      <trkpt lat="47.79424" lon="-3.71248">
        <ele>10</ele>
        <time>2019-07-14T11:25:31Z</time>
      </trkpt>
      <trkpt lat="47.79427" lon="-3.71247">
        <ele>10</ele>
        <time>2019-07-14T11:25:32Z</time>
      </trkpt>
      <trkpt lat="47.79429" lon="-3.71246">
        <ele>10</ele>
        <time>2019-07-14T11:25:33Z</time>
      </trkpt>
      <trkpt lat="47.79431" lon="-3.71244">
        <ele>10</ele>
        <time>2019-07-14T11:25:34Z</time>
      </trkpt>
      <trkpt lat="47.79433" lon="-3.71242">
        <ele>10</ele>
        <time>2019-07-14T11:25:35Z</time>
      </trkpt>
      <trkpt lat="47.79435" lon="-3.7124">
        <ele>10</ele>
        <time>2019-07-14T11:25:36Z</time>
      </trkpt>
      <trkpt lat="47.79436" lon="-3.71239">
        <ele>10</ele>
        <time>2019-07-14T11:25:37Z</time>
      </trkpt>
      <trkpt lat="47.79436" lon="-3.71239">
        <ele>9</ele>
        <time>2019-07-14T11:25:38Z</time>
      </trkpt>
      <trkpt lat="47.79437" lon="-3.71239">
        <ele>9</ele>
        <time>2019-07-14T11:25:39Z</time>
      </trkpt>
      <trkpt lat="47.79437" lon="-3.71237">
        <ele>9</ele>
        <time>2019-07-14T11:25:40Z</time>
      </trkpt>
      <trkpt lat="47.79439" lon="-3.71229">
        <ele>9</ele>
        <time>2019-07-14T11:25:41Z</time>
      </trkpt>
      <trkpt lat="47.79439" lon="-3.71227">
        <ele>9</ele>
        <time>2019-07-14T11:25:42Z</time>
      </trkpt>
      <trkpt lat="47.79438" lon="-3.71225">
        <ele>9</ele>
        <time>2019-07-14T11:25:43Z</time>
      </trkpt>
      <trkpt lat="47.79438" lon="-3.71223">
        <ele>9</ele>
        <time>2019-07-14T11:25:44Z</time>
      </trkpt>
      <trkpt lat="47.79438" lon="-3.71221">
        <ele>9</ele>
        <time>2019-07-14T11:25:45Z</time>
      </trkpt>
      <trkpt lat="47.79438" lon="-3.7122">
        <ele>9</ele>
        <time>2019-07-14T11:25:46Z</time>
      </trkpt>
      <trkpt lat="47.79438" lon="-3.71217">
        <ele>9</ele>
        <time>2019-07-14T11:25:47Z</time>
      </trkpt>
      <trkpt lat="47.79437" lon="-3.71214">
        <ele>9</ele>
        <time>2019-07-14T11:25:48Z</time>
      </trkpt>
      <trkpt lat="47.79437" lon="-3.71211">
        <ele>9</ele>
        <time>2019-07-14T11:25:49Z</time>
      </trkpt>
      <trkpt lat="47.79436" lon="-3.71208">
        <ele>8</ele>
        <time>2019-07-14T11:25:50Z</time>
      </trkpt>
      <trkpt lat="47.79435" lon="-3.71204">
        <ele>8</ele>
        <time>2019-07-14T11:25:51Z</time>
      </trkpt>
      <trkpt lat="47.79433" lon="-3.71199">
        <ele>8</ele>
        <time>2019-07-14T11:25:52Z</time>
      </trkpt>
      <trkpt lat="47.79433" lon="-3.71195">
        <ele>8</ele>
        <time>2019-07-14T11:25:53Z</time>
      </trkpt>
      <trkpt lat="47.79433" lon="-3.71193">
        <ele>8</ele>
        <time>2019-07-14T11:25:54Z</time>
      </trkpt>
      <trkpt lat="47.79432" lon="-3.71193">
        <ele>8</ele>
        <time>2019-07-14T11:25:55Z</time>
      </trkpt>
      <trkpt lat="47.79431" lon="-3.71192">
        <ele>8</ele>
        <time>2019-07-14T11:25:56Z</time>
      </trkpt>
      <trkpt lat="47.7943" lon="-3.7119">
        <ele>8</ele>
        <time>2019-07-14T11:25:57Z</time>
      </trkpt>
      <trkpt lat="47.79428" lon="-3.71189">
        <ele>8</ele>
        <time>2019-07-14T11:25:58Z</time>
      </trkpt>
      <trkpt lat="47.79426" lon="-3.71188">
        <ele>8</ele>
        <time>2019-07-14T11:25:59Z</time>
      </trkpt>
      <trkpt lat="47.79424" lon="-3.71188">
        <ele>8</ele>
        <time>2019-07-14T11:26:00Z</time>
      </trkpt>
      <trkpt lat="47.79421" lon="-3.71189">
        <ele>7</ele>
        <time>2019-07-14T11:26:01Z</time>
      </trkpt>
      <trkpt lat="47.79419" lon="-3.71189">
        <ele>7</ele>
        <time>2019-07-14T11:26:02Z</time>
      </trkpt>
      <trkpt lat="47.79417" lon="-3.7119">
        <ele>7</ele>
        <time>2019-07-14T11:26:03Z</time>
      </trkpt>
      <trkpt lat="47.79415" lon="-3.7119">
        <ele>7</ele>
        <time>2019-07-14T11:26:04Z</time>
      </trkpt>
      <trkpt lat="47.79413" lon="-3.7119">
        <ele>7</ele>
        <time>2019-07-14T11:26:05Z</time>
      </trkpt>
      <trkpt lat="47.79411" lon="-3.7119">
        <ele>7</ele>
        <time>2019-07-14T11:26:06Z</time>
      </trkpt>
      <trkpt lat="47.79409" lon="-3.71189">
        <ele>7</ele>
        <time>2019-07-14T11:26:07Z</time>
      </trkpt>
      <trkpt lat="47.79407" lon="-3.71188">
        <ele>7</ele>
        <time>2019-07-14T11:26:08Z</time>
      </trkpt>
      <trkpt lat="47.79406" lon="-3.71187">
        <ele>7</ele>
        <time>2019-07-14T11:26:09Z</time>
      </trkpt>
      <trkpt lat="47.79405" lon="-3.71187">
        <ele>7</ele>
        <time>2019-07-14T11:26:10Z</time>
      </trkpt>
      <trkpt lat="47.79405" lon="-3.71188">
        <ele>7</ele>
        <time>2019-07-14T11:26:11Z</time>
      </trkpt>
      <trkpt lat="47.79405" lon="-3.71187">
        <ele>7</ele>
        <time>2019-07-14T11:26:12Z</time>
      </trkpt>
      <trkpt lat="47.79405" lon="-3.71186">
        <ele>7</ele>
        <time>2019-07-14T11:26:13Z</time>
      </trkpt>
      <trkpt lat="47.79404" lon="-3.71185">
        <ele>7</ele>
        <time>2019-07-14T11:26:14Z</time>
      </trkpt>
      <trkpt lat="47.79404" lon="-3.71183">
        <ele>7</ele>
        <time>2019-07-14T11:26:15Z</time>
      </trkpt>
      <trkpt lat="47.79403" lon="-3.71182">
        <ele>7</ele>
        <time>2019-07-14T11:26:16Z</time>
      </trkpt>
      <trkpt lat="47.79403" lon="-3.71181">
        <ele>7</ele>
        <time>2019-07-14T11:26:17Z</time>
      </trkpt>
      <trkpt lat="47.79402" lon="-3.71179">
        <ele>7</ele>
        <time>2019-07-14T11:26:18Z</time>
      </trkpt>
      <trkpt lat="47.79402" lon="-3.71178">
        <ele>7</ele>
        <time>2019-07-14T11:26:19Z</time>
      </trkpt>
      <trkpt lat="47.79401" lon="-3.71177">
        <ele>7</ele>
        <time>2019-07-14T11:26:20Z</time>
      </trkpt>
      <trkpt lat="47.794" lon="-3.71176">
        <ele>7</ele>
        <time>2019-07-14T11:26:21Z</time>
      </trkpt>
      <trkpt lat="47.794" lon="-3.71174">
        <ele>7</ele>
        <time>2019-07-14T11:26:22Z</time>
      </trkpt>
      <trkpt lat="47.79399" lon="-3.71174">
        <ele>7</ele>
        <time>2019-07-14T11:26:23Z</time>
      </trkpt>
      <trkpt lat="47.79399" lon="-3.71174">
        <ele>7</ele>
        <time>2019-07-14T11:26:24Z</time>
      </trkpt>
      <trkpt lat="47.79399" lon="-3.71174">
        <ele>7</ele>
        <time>2019-07-14T11:26:25Z</time>
      </trkpt>
      <trkpt lat="47.79393" lon="-3.71168">
        <ele>8</ele>
        <time>2019-07-14T11:26:26Z</time>
      </trkpt>
      <trkpt lat="47.79391" lon="-3.71165">
        <ele>8</ele>
        <time>2019-07-14T11:26:27Z</time>
      </trkpt>
      <trkpt lat="47.79389" lon="-3.71162">
        <ele>8</ele>
        <time>2019-07-14T11:26:28Z</time>
      </trkpt>
      <trkpt lat="47.79387" lon="-3.71159">
        <ele>8</ele>
        <time>2019-07-14T11:26:29Z</time>
      </trkpt>
      <trkpt lat="47.79386" lon="-3.71156">
        <ele>8</ele>
        <time>2019-07-14T11:26:30Z</time>
      </trkpt>
      <trkpt lat="47.79384" lon="-3.71153">
        <ele>8</ele>
        <time>2019-07-14T11:26:31Z</time>
      </trkpt>
      <trkpt lat="47.79382" lon="-3.7115">
        <ele>8</ele>
        <time>2019-07-14T11:26:32Z</time>
      </trkpt>
      <trkpt lat="47.7938" lon="-3.71146">
        <ele>8</ele>
        <time>2019-07-14T11:26:33Z</time>
      </trkpt>
      <trkpt lat="47.79378" lon="-3.71143">
        <ele>8</ele>
        <time>2019-07-14T11:26:34Z</time>
      </trkpt>
      <trkpt lat="47.79376" lon="-3.71139">
        <ele>8</ele>
        <time>2019-07-14T11:26:35Z</time>
      </trkpt>
      <trkpt lat="47.79374" lon="-3.71135">
        <ele>8</ele>
        <time>2019-07-14T11:26:36Z</time>
      </trkpt>
      <trkpt lat="47.79373" lon="-3.7113">
        <ele>8</ele>
        <time>2019-07-14T11:26:37Z</time>
      </trkpt>
      <trkpt lat="47.79372" lon="-3.71126">
        <ele>8</ele>
        <time>2019-07-14T11:26:38Z</time>
      </trkpt>
      <trkpt lat="47.7937" lon="-3.71122">
        <ele>8</ele>
        <time>2019-07-14T11:26:39Z</time>
      </trkpt>
      <trkpt lat="47.79368" lon="-3.71118">
        <ele>8</ele>
        <time>2019-07-14T11:26:40Z</time>
      </trkpt>
      <trkpt lat="47.79367" lon="-3.71113">
        <ele>8</ele>
        <time>2019-07-14T11:26:41Z</time>
      </trkpt>
      <trkpt lat="47.79365" lon="-3.71109">
        <ele>8</ele>
        <time>2019-07-14T11:26:42Z</time>
      </trkpt>
      <trkpt lat="47.79363" lon="-3.71104">
        <ele>8</ele>
        <time>2019-07-14T11:26:43Z</time>
      </trkpt>
      <trkpt lat="47.79361" lon="-3.711">
        <ele>8</ele>
        <time>2019-07-14T11:26:44Z</time>
      </trkpt>
      <trkpt lat="47.79359" lon="-3.71095">
        <ele>8</ele>
        <time>2019-07-14T11:26:45Z</time>
      </trkpt>
      <trkpt lat="47.79357" lon="-3.71091">
        <ele>8</ele>
        <time>2019-07-14T11:26:46Z</time>
      </trkpt>
      <trkpt lat="47.79354" lon="-3.71087">
        <ele>8</ele>
        <time>2019-07-14T11:26:47Z</time>
      </trkpt>
      <trkpt lat="47.79352" lon="-3.71084">
        <ele>8</ele>
        <time>2019-07-14T11:26:48Z</time>
      </trkpt>
      <trkpt lat="47.79349" lon="-3.71082">
        <ele>8</ele>
        <time>2019-07-14T11:26:49Z</time>
      </trkpt>
      <trkpt lat="47.79347" lon="-3.7108">
        <ele>8</ele>
        <time>2019-07-14T11:26:50Z</time>
      </trkpt>
      <trkpt lat="47.79344" lon="-3.71078">
        <ele>8</ele>
        <time>2019-07-14T11:26:51Z</time>
      </trkpt>
      <trkpt lat="47.79342" lon="-3.71077">
        <ele>8</ele>
        <time>2019-07-14T11:26:52Z</time>
      </trkpt>
      <trkpt lat="47.79339" lon="-3.71075">
        <ele>8</ele>
        <time>2019-07-14T11:26:53Z</time>
      </trkpt>
      <trkpt lat="47.79337" lon="-3.71073">
        <ele>8</ele>
        <time>2019-07-14T11:26:54Z</time>
      </trkpt>
      <trkpt lat="47.79335" lon="-3.71071">
        <ele>8</ele>
        <time>2019-07-14T11:26:55Z</time>
      </trkpt>
      <trkpt lat="47.79332" lon="-3.71067">
        <ele>8</ele>
        <time>2019-07-14T11:26:56Z</time>
      </trkpt>
      <trkpt lat="47.7933" lon="-3.71064">
        <ele>8</ele>
        <time>2019-07-14T11:26:57Z</time>
      </trkpt>
      <trkpt lat="47.79328" lon="-3.71061">
        <ele>8</ele>
        <time>2019-07-14T11:26:58Z</time>
      </trkpt>
      <trkpt lat="47.79327" lon="-3.71057">
        <ele>8</ele>
        <time>2019-07-14T11:26:59Z</time>
      </trkpt>
      <trkpt lat="47.79325" lon="-3.71054">
        <ele>8</ele>
        <time>2019-07-14T11:27:00Z</time>
      </trkpt>
      <trkpt lat="47.79322" lon="-3.7105">
        <ele>8</ele>
        <time>2019-07-14T11:27:01Z</time>
      </trkpt>
      <trkpt lat="47.7932" lon="-3.71047">
        <ele>8</ele>
        <time>2019-07-14T11:27:02Z</time>
      </trkpt>
      <trkpt lat="47.79318" lon="-3.71044">
        <ele>8</ele>
        <time>2019-07-14T11:27:03Z</time>
      </trkpt>
      <trkpt lat="47.79315" lon="-3.71042">
        <ele>8</ele>
        <time>2019-07-14T11:27:04Z</time>
      </trkpt>
      <trkpt lat="47.79312" lon="-3.7104">
        <ele>8</ele>
        <time>2019-07-14T11:27:05Z</time>
      </trkpt>
      <trkpt lat="47.79308" lon="-3.71037">
        <ele>8</ele>
        <time>2019-07-14T11:27:06Z</time>
      </trkpt>
      <trkpt lat="47.79305" lon="-3.71036">
        <ele>8</ele>
        <time>2019-07-14T11:27:07Z</time>
      </trkpt>
      <trkpt lat="47.79301" lon="-3.71034">
        <ele>8</ele>
        <time>2019-07-14T11:27:08Z</time>
      </trkpt>
      <trkpt lat="47.79298" lon="-3.71032">
        <ele>8</ele>
        <time>2019-07-14T11:27:09Z</time>
      </trkpt>
      <trkpt lat="47.79295" lon="-3.71028">
        <ele>8</ele>
        <time>2019-07-14T11:27:10Z</time>
      </trkpt>
      <trkpt lat="47.79291" lon="-3.71025">
        <ele>8</ele>
        <time>2019-07-14T11:27:11Z</time>
      </trkpt>
      <trkpt lat="47.79288" lon="-3.71022">
        <ele>8</ele>
        <time>2019-07-14T11:27:12Z</time>
      </trkpt>
      <trkpt lat="47.79285" lon="-3.71019">
        <ele>8</ele>
        <time>2019-07-14T11:27:13Z</time>
      </trkpt>
      <trkpt lat="47.79281" lon="-3.71017">
        <ele>8</ele>
        <time>2019-07-14T11:27:14Z</time>
      </trkpt>
      <trkpt lat="47.79277" lon="-3.71014">
        <ele>8</ele>
        <time>2019-07-14T11:27:15Z</time>
      </trkpt>
      <trkpt lat="47.79274" lon="-3.71011">
        <ele>8</ele>
        <time>2019-07-14T11:27:16Z</time>
      </trkpt>
      <trkpt lat="47.7927" lon="-3.71008">
        <ele>8</ele>
        <time>2019-07-14T11:27:17Z</time>
      </trkpt>
      <trkpt lat="47.79267" lon="-3.71006">
        <ele>8</ele>
        <time>2019-07-14T11:27:18Z</time>
      </trkpt>
      <trkpt lat="47.79264" lon="-3.71004">
        <ele>8</ele>
        <time>2019-07-14T11:27:19Z</time>
      </trkpt>
      <trkpt lat="47.7926" lon="-3.71002">
        <ele>8</ele>
        <time>2019-07-14T11:27:20Z</time>
      </trkpt>
      <trkpt lat="47.79256" lon="-3.71">
        <ele>8</ele>
        <time>2019-07-14T11:27:21Z</time>
      </trkpt>
      <trkpt lat="47.79253" lon="-3.70997">
        <ele>8</ele>
        <time>2019-07-14T11:27:22Z</time>
      </trkpt>
      <trkpt lat="47.79249" lon="-3.70994">
        <ele>8</ele>
        <time>2019-07-14T11:27:23Z</time>
      </trkpt>
      <trkpt lat="47.79245" lon="-3.70991">
        <ele>8</ele>
        <time>2019-07-14T11:27:24Z</time>
      </trkpt>
      <trkpt lat="47.79241" lon="-3.70987">
        <ele>8</ele>
        <time>2019-07-14T11:27:25Z</time>
      </trkpt>
      <trkpt lat="47.79238" lon="-3.70984">
        <ele>8</ele>
        <time>2019-07-14T11:27:26Z</time>
      </trkpt>
      <trkpt lat="47.79235" lon="-3.7098">
        <ele>8</ele>
        <time>2019-07-14T11:27:27Z</time>
      </trkpt>
      <trkpt lat="47.79233" lon="-3.70976">
        <ele>8</ele>
        <time>2019-07-14T11:27:28Z</time>
      </trkpt>
      <trkpt lat="47.79231" lon="-3.70971">
        <ele>8</ele>
        <time>2019-07-14T11:27:29Z</time>
      </trkpt>
      <trkpt lat="47.7923" lon="-3.70965">
        <ele>8</ele>
        <time>2019-07-14T11:27:30Z</time>
      </trkpt>
      <trkpt lat="47.79229" lon="-3.70959">
        <ele>8</ele>
        <time>2019-07-14T11:27:31Z</time>
      </trkpt>
      <trkpt lat="47.79227" lon="-3.70953">
        <ele>8</ele>
        <time>2019-07-14T11:27:32Z</time>
      </trkpt>
      <trkpt lat="47.79226" lon="-3.70948">
        <ele>8</ele>
        <time>2019-07-14T11:27:33Z</time>
      </trkpt>
      <trkpt lat="47.79223" lon="-3.70942">
        <ele>9</ele>
        <time>2019-07-14T11:27:34Z</time>
      </trkpt>
      <trkpt lat="47.7922" lon="-3.70938">
        <ele>9</ele>
        <time>2019-07-14T11:27:35Z</time>
      </trkpt>
      <trkpt lat="47.79217" lon="-3.70935">
        <ele>9</ele>
        <time>2019-07-14T11:27:36Z</time>
      </trkpt>
      <trkpt lat="47.79214" lon="-3.7093">
        <ele>9</ele>
        <time>2019-07-14T11:27:37Z</time>
      </trkpt>
      <trkpt lat="47.79211" lon="-3.70926">
        <ele>9</ele>
        <time>2019-07-14T11:27:38Z</time>
      </trkpt>
      <trkpt lat="47.79208" lon="-3.70921">
        <ele>8</ele>
        <time>2019-07-14T11:27:39Z</time>
      </trkpt>
      <trkpt lat="47.79205" lon="-3.70917">
        <ele>8</ele>
        <time>2019-07-14T11:27:40Z</time>
      </trkpt>
      <trkpt lat="47.79203" lon="-3.70912">
        <ele>9</ele>
        <time>2019-07-14T11:27:41Z</time>
      </trkpt>
      <trkpt lat="47.79201" lon="-3.70907">
        <ele>9</ele>
        <time>2019-07-14T11:27:42Z</time>
      </trkpt>
      <trkpt lat="47.792" lon="-3.70901">
        <ele>9</ele>
        <time>2019-07-14T11:27:43Z</time>
      </trkpt>
      <trkpt lat="47.792" lon="-3.70896">
        <ele>9</ele>
        <time>2019-07-14T11:27:44Z</time>
      </trkpt>
      <trkpt lat="47.792" lon="-3.70891">
        <ele>8</ele>
        <time>2019-07-14T11:27:45Z</time>
      </trkpt>
      <trkpt lat="47.79201" lon="-3.70886">
        <ele>8</ele>
        <time>2019-07-14T11:27:46Z</time>
      </trkpt>
      <trkpt lat="47.79201" lon="-3.70881">
        <ele>8</ele>
        <time>2019-07-14T11:27:47Z</time>
      </trkpt>
      <trkpt lat="47.79203" lon="-3.70876">
        <ele>8</ele>
        <time>2019-07-14T11:27:48Z</time>
      </trkpt>
      <trkpt lat="47.79205" lon="-3.7087">
        <ele>8</ele>
        <time>2019-07-14T11:27:49Z</time>
      </trkpt>
      <trkpt lat="47.79207" lon="-3.70865">
        <ele>8</ele>
        <time>2019-07-14T11:27:50Z</time>
      </trkpt>
      <trkpt lat="47.79208" lon="-3.70859">
        <ele>8</ele>
        <time>2019-07-14T11:27:51Z</time>
      </trkpt>
      <trkpt lat="47.79209" lon="-3.70853">
        <ele>8</ele>
        <time>2019-07-14T11:27:52Z</time>
      </trkpt>
      <trkpt lat="47.79209" lon="-3.70847">
        <ele>8</ele>
        <time>2019-07-14T11:27:53Z</time>
      </trkpt>
      <trkpt lat="47.7921" lon="-3.70842">
        <ele>8</ele>
        <time>2019-07-14T11:27:54Z</time>
      </trkpt>
      <trkpt lat="47.79211" lon="-3.70838">
        <ele>8</ele>
        <time>2019-07-14T11:27:55Z</time>
      </trkpt>
      <trkpt lat="47.79211" lon="-3.70835">
        <ele>8</ele>
        <time>2019-07-14T11:27:56Z</time>
      </trkpt>
      <trkpt lat="47.79211" lon="-3.70834">
        <ele>7</ele>
        <time>2019-07-14T11:27:57Z</time>
      </trkpt>
      <trkpt lat="47.79211" lon="-3.70834">
        <ele>7</ele>
        <time>2019-07-14T11:27:58Z</time>
      </trkpt>
      <trkpt lat="47.79211" lon="-3.70833">
        <ele>7</ele>
        <time>2019-07-14T11:27:59Z</time>
      </trkpt>
      <trkpt lat="47.79211" lon="-3.70833">
        <ele>7</ele>
        <time>2019-07-14T11:28:01Z</time>
      </trkpt>
      <trkpt lat="47.79211" lon="-3.70833">
        <ele>7</ele>
        <time>2019-07-14T11:28:02Z</time>
      </trkpt>
      <trkpt lat="47.7921" lon="-3.70833">
        <ele>7</ele>
        <time>2019-07-14T11:28:03Z</time>
      </trkpt>
      <trkpt lat="47.7921" lon="-3.70833">
        <ele>7</ele>
        <time>2019-07-14T11:28:04Z</time>
      </trkpt>
      <trkpt lat="47.7921" lon="-3.70833">
        <ele>7</ele>
        <time>2019-07-14T11:28:05Z</time>
      </trkpt>
      <trkpt lat="47.79209" lon="-3.70833">
        <ele>7</ele>
        <time>2019-07-14T11:28:06Z</time>
      </trkpt>
      <trkpt lat="47.79208" lon="-3.70832">
        <ele>7</ele>
        <time>2019-07-14T11:28:07Z</time>
      </trkpt>
      <trkpt lat="47.79208" lon="-3.70831">
        <ele>7</ele>
        <time>2019-07-14T11:28:08Z</time>
      </trkpt>
      <trkpt lat="47.79208" lon="-3.70831">
        <ele>7</ele>
        <time>2019-07-14T11:28:09Z</time>
      </trkpt>
      <trkpt lat="47.79208" lon="-3.7083">
        <ele>7</ele>
        <time>2019-07-14T11:28:10Z</time>
      </trkpt>
      <trkpt lat="47.79208" lon="-3.70829">
        <ele>7</ele>
        <time>2019-07-14T11:28:11Z</time>
      </trkpt>
      <trkpt lat="47.79209" lon="-3.70829">
        <ele>7</ele>
        <time>2019-07-14T11:28:12Z</time>
      </trkpt>
      <trkpt lat="47.79209" lon="-3.70828">
        <ele>7</ele>
        <time>2019-07-14T11:28:13Z</time>
      </trkpt>
      <trkpt lat="47.79209" lon="-3.70828">
        <ele>7</ele>
        <time>2019-07-14T11:28:14Z</time>
      </trkpt>
      <trkpt lat="47.79209" lon="-3.70827">
        <ele>7</ele>
        <time>2019-07-14T11:28:15Z</time>
      </trkpt>
      <trkpt lat="47.7921" lon="-3.70824">
        <ele>6</ele>
        <time>2019-07-14T11:28:16Z</time>
      </trkpt>
      <trkpt lat="47.79211" lon="-3.70824">
        <ele>6</ele>
        <time>2019-07-14T11:28:17Z</time>
      </trkpt>
      <trkpt lat="47.79211" lon="-3.70824">
        <ele>6</ele>
        <time>2019-07-14T11:28:18Z</time>
      </trkpt>
      <trkpt lat="47.79211" lon="-3.70823">
        <ele>5</ele>
        <time>2019-07-14T11:28:19Z</time>
      </trkpt>
      <trkpt lat="47.7921" lon="-3.70821">
        <ele>6</ele>
        <time>2019-07-14T11:28:20Z</time>
      </trkpt>
      <trkpt lat="47.7921" lon="-3.70819">
        <ele>6</ele>
        <time>2019-07-14T11:28:21Z</time>
      </trkpt>
      <trkpt lat="47.7921" lon="-3.70817">
        <ele>5</ele>
        <time>2019-07-14T11:28:22Z</time>
      </trkpt>
      <trkpt lat="47.7921" lon="-3.70814">
        <ele>6</ele>
        <time>2019-07-14T11:28:23Z</time>
      </trkpt>
      <trkpt lat="47.79208" lon="-3.70811">
        <ele>6</ele>
        <time>2019-07-14T11:28:24Z</time>
      </trkpt>
      <trkpt lat="47.79207" lon="-3.7081">
        <ele>6</ele>
        <time>2019-07-14T11:28:25Z</time>
      </trkpt>
      <trkpt lat="47.79206" lon="-3.70808">
        <ele>6</ele>
        <time>2019-07-14T11:28:26Z</time>
      </trkpt>
      <trkpt lat="47.79204" lon="-3.70808">
        <ele>5</ele>
        <time>2019-07-14T11:28:27Z</time>
      </trkpt>
      <trkpt lat="47.79202" lon="-3.70809">
        <ele>6</ele>
        <time>2019-07-14T11:28:28Z</time>
      </trkpt>
      <trkpt lat="47.792" lon="-3.7081">
        <ele>6</ele>
        <time>2019-07-14T11:28:29Z</time>
      </trkpt>
      <trkpt lat="47.79199" lon="-3.70811">
        <ele>6</ele>
        <time>2019-07-14T11:28:30Z</time>
      </trkpt>
      <trkpt lat="47.79197" lon="-3.70811">
        <ele>6</ele>
        <time>2019-07-14T11:28:31Z</time>
      </trkpt>
      <trkpt lat="47.79196" lon="-3.7081">
        <ele>6</ele>
        <time>2019-07-14T11:28:32Z</time>
      </trkpt>
      <trkpt lat="47.79194" lon="-3.7081">
        <ele>6</ele>
        <time>2019-07-14T11:28:33Z</time>
      </trkpt>
      <trkpt lat="47.79194" lon="-3.7081">
        <ele>6</ele>
        <time>2019-07-14T11:28:34Z</time>
      </trkpt>
      <trkpt lat="47.79194" lon="-3.70809">
        <ele>6</ele>
        <time>2019-07-14T11:28:35Z</time>
      </trkpt>
      <trkpt lat="47.79193" lon="-3.70809">
        <ele>7</ele>
        <time>2019-07-14T11:28:36Z</time>
      </trkpt>
      <trkpt lat="47.79192" lon="-3.70809">
        <ele>7</ele>
        <time>2019-07-14T11:28:37Z</time>
      </trkpt>
      <trkpt lat="47.79191" lon="-3.70809">
        <ele>6</ele>
        <time>2019-07-14T11:28:38Z</time>
      </trkpt>
      <trkpt lat="47.79191" lon="-3.70809">
        <ele>6</ele>
        <time>2019-07-14T11:28:39Z</time>
      </trkpt>
      <trkpt lat="47.79191" lon="-3.70808">
        <ele>6</ele>
        <time>2019-07-14T11:28:40Z</time>
      </trkpt>
      <trkpt lat="47.7919" lon="-3.70808">
        <ele>6</ele>
        <time>2019-07-14T11:28:41Z</time>
      </trkpt>
      <trkpt lat="47.79189" lon="-3.70809">
        <ele>6</ele>
        <time>2019-07-14T11:28:42Z</time>
      </trkpt>
      <trkpt lat="47.79188" lon="-3.7081">
        <ele>6</ele>
        <time>2019-07-14T11:28:43Z</time>
      </trkpt>
      <trkpt lat="47.79187" lon="-3.70811">
        <ele>5</ele>
        <time>2019-07-14T11:28:44Z</time>
      </trkpt>
      <trkpt lat="47.79186" lon="-3.70813">
        <ele>5</ele>
        <time>2019-07-14T11:28:45Z</time>
      </trkpt>
      <trkpt lat="47.79185" lon="-3.70814">
        <ele>5</ele>
        <time>2019-07-14T11:28:46Z</time>
      </trkpt>
      <trkpt lat="47.79183" lon="-3.70814">
        <ele>5</ele>
        <time>2019-07-14T11:28:47Z</time>
      </trkpt>
      <trkpt lat="47.79182" lon="-3.70814">
        <ele>5</ele>
        <time>2019-07-14T11:28:48Z</time>
      </trkpt>
      <trkpt lat="47.79181" lon="-3.70814">
        <ele>5</ele>
        <time>2019-07-14T11:28:49Z</time>
      </trkpt>
      <trkpt lat="47.7918" lon="-3.70814">
        <ele>5</ele>
        <time>2019-07-14T11:28:50Z</time>
      </trkpt>
      <trkpt lat="47.79179" lon="-3.70814">
        <ele>5</ele>
        <time>2019-07-14T11:28:51Z</time>
      </trkpt>
      <trkpt lat="47.79178" lon="-3.70814">
        <ele>6</ele>
        <time>2019-07-14T11:28:52Z</time>
      </trkpt>
      <trkpt lat="47.79177" lon="-3.70814">
        <ele>6</ele>
        <time>2019-07-14T11:28:53Z</time>
      </trkpt>
      <trkpt lat="47.79176" lon="-3.70814">
        <ele>6</ele>
        <time>2019-07-14T11:28:54Z</time>
      </trkpt>
      <trkpt lat="47.79175" lon="-3.70815">
        <ele>6</ele>
        <time>2019-07-14T11:28:55Z</time>
      </trkpt>
      <trkpt lat="47.79174" lon="-3.70815">
        <ele>6</ele>
        <time>2019-07-14T11:28:56Z</time>
      </trkpt>
      <trkpt lat="47.79173" lon="-3.70815">
        <ele>6</ele>
        <time>2019-07-14T11:28:57Z</time>
      </trkpt>
      <trkpt lat="47.79173" lon="-3.70815">
        <ele>6</ele>
        <time>2019-07-14T11:28:58Z</time>
      </trkpt>
      <trkpt lat="47.79172" lon="-3.70814">
        <ele>7</ele>
        <time>2019-07-14T11:28:59Z</time>
      </trkpt>
      <trkpt lat="47.79171" lon="-3.70814">
        <ele>7</ele>
        <time>2019-07-14T11:29:00Z</time>
      </trkpt>
      <trkpt lat="47.79171" lon="-3.70814">
        <ele>7</ele>
        <time>2019-07-14T11:29:01Z</time>
      </trkpt>
      <trkpt lat="47.79171" lon="-3.70813">
        <ele>7</ele>
        <time>2019-07-14T11:29:02Z</time>
      </trkpt>
      <trkpt lat="47.79169" lon="-3.70813">
        <ele>8</ele>
        <time>2019-07-14T11:29:03Z</time>
      </trkpt>
      <trkpt lat="47.79169" lon="-3.70812">
        <ele>8</ele>
        <time>2019-07-14T11:29:04Z</time>
      </trkpt>
      <trkpt lat="47.79168" lon="-3.70811">
        <ele>8</ele>
        <time>2019-07-14T11:29:05Z</time>
      </trkpt>
      <trkpt lat="47.79168" lon="-3.70811">
        <ele>8</ele>
        <time>2019-07-14T11:29:06Z</time>
      </trkpt>
      <trkpt lat="47.79167" lon="-3.70811">
        <ele>8</ele>
        <time>2019-07-14T11:29:07Z</time>
      </trkpt>
      <trkpt lat="47.79166" lon="-3.7081">
        <ele>8</ele>
        <time>2019-07-14T11:29:08Z</time>
      </trkpt>
      <trkpt lat="47.79165" lon="-3.7081">
        <ele>8</ele>
        <time>2019-07-14T11:29:09Z</time>
      </trkpt>
      <trkpt lat="47.79164" lon="-3.7081">
        <ele>8</ele>
        <time>2019-07-14T11:29:10Z</time>
      </trkpt>
      <trkpt lat="47.79163" lon="-3.70811">
        <ele>8</ele>
        <time>2019-07-14T11:29:11Z</time>
      </trkpt>
      <trkpt lat="47.79161" lon="-3.70811">
        <ele>9</ele>
        <time>2019-07-14T11:29:12Z</time>
      </trkpt>
      <trkpt lat="47.7916" lon="-3.70812">
        <ele>9</ele>
        <time>2019-07-14T11:29:13Z</time>
      </trkpt>
      <trkpt lat="47.79158" lon="-3.70813">
        <ele>9</ele>
        <time>2019-07-14T11:29:14Z</time>
      </trkpt>
      <trkpt lat="47.79157" lon="-3.70814">
        <ele>9</ele>
        <time>2019-07-14T11:29:15Z</time>
      </trkpt>
      <trkpt lat="47.79155" lon="-3.70817">
        <ele>9</ele>
        <time>2019-07-14T11:29:16Z</time>
      </trkpt>
      <trkpt lat="47.79153" lon="-3.7082">
        <ele>9</ele>
        <time>2019-07-14T11:29:17Z</time>
      </trkpt>
      <trkpt lat="47.7915" lon="-3.70822">
        <ele>9</ele>
        <time>2019-07-14T11:29:18Z</time>
      </trkpt>
      <trkpt lat="47.79147" lon="-3.70824">
        <ele>9</ele>
        <time>2019-07-14T11:29:19Z</time>
      </trkpt>
      <trkpt lat="47.79144" lon="-3.70824">
        <ele>9</ele>
        <time>2019-07-14T11:29:20Z</time>
      </trkpt>
      <trkpt lat="47.7914" lon="-3.70825">
        <ele>9</ele>
        <time>2019-07-14T11:29:21Z</time>
      </trkpt>
      <trkpt lat="47.79137" lon="-3.70826">
        <ele>9</ele>
        <time>2019-07-14T11:29:22Z</time>
      </trkpt>
      <trkpt lat="47.79133" lon="-3.70827">
        <ele>9</ele>
        <time>2019-07-14T11:29:23Z</time>
      </trkpt>
      <trkpt lat="47.79128" lon="-3.70827">
        <ele>9</ele>
        <time>2019-07-14T11:29:24Z</time>
      </trkpt>
      <trkpt lat="47.79124" lon="-3.70826">
        <ele>8</ele>
        <time>2019-07-14T11:29:25Z</time>
      </trkpt>
      <trkpt lat="47.7912" lon="-3.70825">
        <ele>8</ele>
        <time>2019-07-14T11:29:26Z</time>
      </trkpt>
      <trkpt lat="47.79117" lon="-3.70824">
        <ele>8</ele>
        <time>2019-07-14T11:29:27Z</time>
      </trkpt>
      <trkpt lat="47.79113" lon="-3.70821">
        <ele>8</ele>
        <time>2019-07-14T11:29:28Z</time>
      </trkpt>
      <trkpt lat="47.79109" lon="-3.70819">
        <ele>8</ele>
        <time>2019-07-14T11:29:29Z</time>
      </trkpt>
      <trkpt lat="47.79106" lon="-3.70817">
        <ele>8</ele>
        <time>2019-07-14T11:29:30Z</time>
      </trkpt>
      <trkpt lat="47.79104" lon="-3.70813">
        <ele>8</ele>
        <time>2019-07-14T11:29:31Z</time>
      </trkpt>
      <trkpt lat="47.79101" lon="-3.7081">
        <ele>8</ele>
        <time>2019-07-14T11:29:32Z</time>
      </trkpt>
      <trkpt lat="47.79099" lon="-3.70805">
        <ele>8</ele>
        <time>2019-07-14T11:29:33Z</time>
      </trkpt>
      <trkpt lat="47.79097" lon="-3.70801">
        <ele>9</ele>
        <time>2019-07-14T11:29:34Z</time>
      </trkpt>
      <trkpt lat="47.79095" lon="-3.70796">
        <ele>9</ele>
        <time>2019-07-14T11:29:35Z</time>
      </trkpt>
      <trkpt lat="47.79093" lon="-3.70791">
        <ele>9</ele>
        <time>2019-07-14T11:29:36Z</time>
      </trkpt>
      <trkpt lat="47.79091" lon="-3.70787">
        <ele>9</ele>
        <time>2019-07-14T11:29:37Z</time>
      </trkpt>
      <trkpt lat="47.79089" lon="-3.70781">
        <ele>9</ele>
        <time>2019-07-14T11:29:38Z</time>
      </trkpt>
      <trkpt lat="47.79087" lon="-3.70776">
        <ele>9</ele>
        <time>2019-07-14T11:29:39Z</time>
      </trkpt>
      <trkpt lat="47.79085" lon="-3.70771">
        <ele>9</ele>
        <time>2019-07-14T11:29:40Z</time>
      </trkpt>
      <trkpt lat="47.79083" lon="-3.70766">
        <ele>9</ele>
        <time>2019-07-14T11:29:41Z</time>
      </trkpt>
      <trkpt lat="47.79082" lon="-3.70761">
        <ele>9</ele>
        <time>2019-07-14T11:29:42Z</time>
      </trkpt>
      <trkpt lat="47.7908" lon="-3.70756">
        <ele>9</ele>
        <time>2019-07-14T11:29:43Z</time>
      </trkpt>
      <trkpt lat="47.79078" lon="-3.70752">
        <ele>9</ele>
        <time>2019-07-14T11:29:44Z</time>
      </trkpt>
      <trkpt lat="47.79076" lon="-3.70746">
        <ele>9</ele>
        <time>2019-07-14T11:29:45Z</time>
      </trkpt>
      <trkpt lat="47.79075" lon="-3.70741">
        <ele>9</ele>
        <time>2019-07-14T11:29:46Z</time>
      </trkpt>
      <trkpt lat="47.79074" lon="-3.70736">
        <ele>9</ele>
        <time>2019-07-14T11:29:47Z</time>
      </trkpt>
      <trkpt lat="47.79074" lon="-3.7073">
        <ele>9</ele>
        <time>2019-07-14T11:29:48Z</time>
      </trkpt>
      <trkpt lat="47.79075" lon="-3.70724">
        <ele>9</ele>
        <time>2019-07-14T11:29:49Z</time>
      </trkpt>
      <trkpt lat="47.79075" lon="-3.70718">
        <ele>9</ele>
        <time>2019-07-14T11:29:50Z</time>
      </trkpt>
      <trkpt lat="47.79076" lon="-3.70712">
        <ele>9</ele>
        <time>2019-07-14T11:29:51Z</time>
      </trkpt>
      <trkpt lat="47.79076" lon="-3.70706">
        <ele>9</ele>
        <time>2019-07-14T11:29:52Z</time>
      </trkpt>
      <trkpt lat="47.79076" lon="-3.70701">
        <ele>9</ele>
        <time>2019-07-14T11:29:53Z</time>
      </trkpt>
      <trkpt lat="47.79077" lon="-3.70695">
        <ele>9</ele>
        <time>2019-07-14T11:29:54Z</time>
      </trkpt>
      <trkpt lat="47.79077" lon="-3.7069">
        <ele>9</ele>
        <time>2019-07-14T11:29:55Z</time>
      </trkpt>
      <trkpt lat="47.79077" lon="-3.70684">
        <ele>9</ele>
        <time>2019-07-14T11:29:56Z</time>
      </trkpt>
      <trkpt lat="47.79077" lon="-3.70678">
        <ele>9</ele>
        <time>2019-07-14T11:29:57Z</time>
      </trkpt>
      <trkpt lat="47.79078" lon="-3.70672">
        <ele>9</ele>
        <time>2019-07-14T11:29:58Z</time>
      </trkpt>
      <trkpt lat="47.79078" lon="-3.70667">
        <ele>9</ele>
        <time>2019-07-14T11:29:59Z</time>
      </trkpt>
      <trkpt lat="47.79077" lon="-3.70661">
        <ele>9</ele>
        <time>2019-07-14T11:30:00Z</time>
      </trkpt>
      <trkpt lat="47.79076" lon="-3.70656">
        <ele>9</ele>
        <time>2019-07-14T11:30:01Z</time>
      </trkpt>
      <trkpt lat="47.79075" lon="-3.70651">
        <ele>9</ele>
        <time>2019-07-14T11:30:02Z</time>
      </trkpt>
      <trkpt lat="47.79074" lon="-3.70645">
        <ele>9</ele>
        <time>2019-07-14T11:30:03Z</time>
      </trkpt>
      <trkpt lat="47.79072" lon="-3.7064">
        <ele>9</ele>
        <time>2019-07-14T11:30:04Z</time>
      </trkpt>
      <trkpt lat="47.79069" lon="-3.70636">
        <ele>9</ele>
        <time>2019-07-14T11:30:05Z</time>
      </trkpt>
      <trkpt lat="47.79066" lon="-3.70631">
        <ele>9</ele>
        <time>2019-07-14T11:30:06Z</time>
      </trkpt>
      <trkpt lat="47.79063" lon="-3.70626">
        <ele>9</ele>
        <time>2019-07-14T11:30:07Z</time>
      </trkpt>
      <trkpt lat="47.79059" lon="-3.70621">
        <ele>9</ele>
        <time>2019-07-14T11:30:08Z</time>
      </trkpt>
      <trkpt lat="47.79056" lon="-3.70616">
        <ele>9</ele>
        <time>2019-07-14T11:30:09Z</time>
      </trkpt>
      <trkpt lat="47.79054" lon="-3.70611">
        <ele>9</ele>
        <time>2019-07-14T11:30:10Z</time>
      </trkpt>
      <trkpt lat="47.79052" lon="-3.70605">
        <ele>9</ele>
        <time>2019-07-14T11:30:11Z</time>
      </trkpt>
      <trkpt lat="47.79052" lon="-3.706">
        <ele>9</ele>
        <time>2019-07-14T11:30:12Z</time>
      </trkpt>
      <trkpt lat="47.79054" lon="-3.70596">
        <ele>9</ele>
        <time>2019-07-14T11:30:13Z</time>
      </trkpt>
      <trkpt lat="47.79057" lon="-3.7059">
        <ele>8</ele>
        <time>2019-07-14T11:30:14Z</time>
      </trkpt>
      <trkpt lat="47.79059" lon="-3.70586">
        <ele>8</ele>
        <time>2019-07-14T11:30:15Z</time>
      </trkpt>
      <trkpt lat="47.79062" lon="-3.70581">
        <ele>8</ele>
        <time>2019-07-14T11:30:16Z</time>
      </trkpt>
      <trkpt lat="47.79064" lon="-3.70576">
        <ele>8</ele>
        <time>2019-07-14T11:30:17Z</time>
      </trkpt>
      <trkpt lat="47.79066" lon="-3.7057">
        <ele>8</ele>
        <time>2019-07-14T11:30:18Z</time>
      </trkpt>
      <trkpt lat="47.79066" lon="-3.70564">
        <ele>8</ele>
        <time>2019-07-14T11:30:19Z</time>
      </trkpt>
      <trkpt lat="47.79066" lon="-3.70559">
        <ele>8</ele>
        <time>2019-07-14T11:30:20Z</time>
      </trkpt>
      <trkpt lat="47.79065" lon="-3.70555">
        <ele>8</ele>
        <time>2019-07-14T11:30:21Z</time>
      </trkpt>
      <trkpt lat="47.79064" lon="-3.70551">
        <ele>8</ele>
        <time>2019-07-14T11:30:22Z</time>
      </trkpt>
      <trkpt lat="47.79062" lon="-3.70547">
        <ele>8</ele>
        <time>2019-07-14T11:30:23Z</time>
      </trkpt>
      <trkpt lat="47.7906" lon="-3.70544">
        <ele>8</ele>
        <time>2019-07-14T11:30:24Z</time>
      </trkpt>
      <trkpt lat="47.79059" lon="-3.70543">
        <ele>8</ele>
        <time>2019-07-14T11:30:25Z</time>
      </trkpt>
      <trkpt lat="47.79056" lon="-3.70543">
        <ele>8</ele>
        <time>2019-07-14T11:30:26Z</time>
      </trkpt>
      <trkpt lat="47.79053" lon="-3.70543">
        <ele>8</ele>
        <time>2019-07-14T11:30:27Z</time>
      </trkpt>
      <trkpt lat="47.7905" lon="-3.70544">
        <ele>8</ele>
        <time>2019-07-14T11:30:28Z</time>
      </trkpt>
      <trkpt lat="47.79047" lon="-3.70544">
        <ele>8</ele>
        <time>2019-07-14T11:30:29Z</time>
      </trkpt>
      <trkpt lat="47.79044" lon="-3.70545">
        <ele>7</ele>
        <time>2019-07-14T11:30:30Z</time>
      </trkpt>
      <trkpt lat="47.79041" lon="-3.70544">
        <ele>7</ele>
        <time>2019-07-14T11:30:31Z</time>
      </trkpt>
      <trkpt lat="47.79038" lon="-3.70544">
        <ele>7</ele>
        <time>2019-07-14T11:30:32Z</time>
      </trkpt>
      <trkpt lat="47.79035" lon="-3.70544">
        <ele>7</ele>
        <time>2019-07-14T11:30:33Z</time>
      </trkpt>
      <trkpt lat="47.79033" lon="-3.70544">
        <ele>7</ele>
        <time>2019-07-14T11:30:34Z</time>
      </trkpt>
      <trkpt lat="47.79031" lon="-3.70543">
        <ele>7</ele>
        <time>2019-07-14T11:30:35Z</time>
      </trkpt>
      <trkpt lat="47.79029" lon="-3.70543">
        <ele>7</ele>
        <time>2019-07-14T11:30:36Z</time>
      </trkpt>
      <trkpt lat="47.79027" lon="-3.70542">
        <ele>7</ele>
        <time>2019-07-14T11:30:37Z</time>
      </trkpt>
      <trkpt lat="47.79026" lon="-3.70541">
        <ele>7</ele>
        <time>2019-07-14T11:30:38Z</time>
      </trkpt>
      <trkpt lat="47.79024" lon="-3.7054">
        <ele>7</ele>
        <time>2019-07-14T11:30:39Z</time>
      </trkpt>
      <trkpt lat="47.79023" lon="-3.7054">
        <ele>7</ele>
        <time>2019-07-14T11:30:40Z</time>
      </trkpt>
      <trkpt lat="47.79021" lon="-3.70539">
        <ele>7</ele>
        <time>2019-07-14T11:30:41Z</time>
      </trkpt>
      <trkpt lat="47.79021" lon="-3.70539">
        <ele>7</ele>
        <time>2019-07-14T11:30:42Z</time>
      </trkpt>
      <trkpt lat="47.7902" lon="-3.70538">
        <ele>7</ele>
        <time>2019-07-14T11:30:43Z</time>
      </trkpt>
      <trkpt lat="47.7902" lon="-3.70537">
        <ele>7</ele>
        <time>2019-07-14T11:30:44Z</time>
      </trkpt>
      <trkpt lat="47.79019" lon="-3.70538">
        <ele>7</ele>
        <time>2019-07-14T11:30:45Z</time>
      </trkpt>
      <trkpt lat="47.79019" lon="-3.70538">
        <ele>7</ele>
        <time>2019-07-14T11:30:46Z</time>
      </trkpt>
      <trkpt lat="47.79019" lon="-3.70539">
        <ele>7</ele>
        <time>2019-07-14T11:30:47Z</time>
      </trkpt>
      <trkpt lat="47.79013" lon="-3.70539">
        <ele>8</ele>
        <time>2019-07-14T11:30:48Z</time>
      </trkpt>
      <trkpt lat="47.79013" lon="-3.7054">
        <ele>8</ele>
        <time>2019-07-14T11:30:49Z</time>
      </trkpt>
      <trkpt lat="47.79012" lon="-3.7054">
        <ele>7</ele>
        <time>2019-07-14T11:30:50Z</time>
      </trkpt>
      <trkpt lat="47.79011" lon="-3.70541">
        <ele>7</ele>
        <time>2019-07-14T11:30:51Z</time>
      </trkpt>
      <trkpt lat="47.79009" lon="-3.70541">
        <ele>7</ele>
        <time>2019-07-14T11:30:52Z</time>
      </trkpt>
      <trkpt lat="47.79007" lon="-3.70542">
        <ele>7</ele>
        <time>2019-07-14T11:30:53Z</time>
      </trkpt>
      <trkpt lat="47.79006" lon="-3.70542">
        <ele>7</ele>
        <time>2019-07-14T11:30:54Z</time>
      </trkpt>
      <trkpt lat="47.79004" lon="-3.70541">
        <ele>7</ele>
        <time>2019-07-14T11:30:55Z</time>
      </trkpt>
      <trkpt lat="47.79001" lon="-3.7054">
        <ele>7</ele>
        <time>2019-07-14T11:30:56Z</time>
      </trkpt>
      <trkpt lat="47.78999" lon="-3.70539">
        <ele>8</ele>
        <time>2019-07-14T11:30:57Z</time>
      </trkpt>
      <trkpt lat="47.78997" lon="-3.70536">
        <ele>8</ele>
        <time>2019-07-14T11:30:58Z</time>
      </trkpt>
      <trkpt lat="47.78995" lon="-3.70534">
        <ele>8</ele>
        <time>2019-07-14T11:30:59Z</time>
      </trkpt>
      <trkpt lat="47.78994" lon="-3.70531">
        <ele>8</ele>
        <time>2019-07-14T11:31:00Z</time>
      </trkpt>
      <trkpt lat="47.78992" lon="-3.70528">
        <ele>8</ele>
        <time>2019-07-14T11:31:01Z</time>
      </trkpt>
      <trkpt lat="47.78991" lon="-3.70524">
        <ele>8</ele>
        <time>2019-07-14T11:31:02Z</time>
      </trkpt>
      <trkpt lat="47.7899" lon="-3.7052">
        <ele>8</ele>
        <time>2019-07-14T11:31:03Z</time>
      </trkpt>
      <trkpt lat="47.78988" lon="-3.70516">
        <ele>8</ele>
        <time>2019-07-14T11:31:04Z</time>
      </trkpt>
      <trkpt lat="47.78987" lon="-3.70512">
        <ele>8</ele>
        <time>2019-07-14T11:31:05Z</time>
      </trkpt>
      <trkpt lat="47.78987" lon="-3.70508">
        <ele>8</ele>
        <time>2019-07-14T11:31:06Z</time>
      </trkpt>
      <trkpt lat="47.78986" lon="-3.70504">
        <ele>8</ele>
        <time>2019-07-14T11:31:07Z</time>
      </trkpt>
      <trkpt lat="47.78985" lon="-3.705">
        <ele>9</ele>
        <time>2019-07-14T11:31:08Z</time>
      </trkpt>
      <trkpt lat="47.78985" lon="-3.70495">
        <ele>9</ele>
        <time>2019-07-14T11:31:09Z</time>
      </trkpt>
      <trkpt lat="47.78985" lon="-3.70491">
        <ele>9</ele>
        <time>2019-07-14T11:31:10Z</time>
      </trkpt>
      <trkpt lat="47.78983" lon="-3.70487">
        <ele>9</ele>
        <time>2019-07-14T11:31:11Z</time>
      </trkpt>
      <trkpt lat="47.78982" lon="-3.70484">
        <ele>9</ele>
        <time>2019-07-14T11:31:12Z</time>
      </trkpt>
      <trkpt lat="47.7898" lon="-3.70481">
        <ele>9</ele>
        <time>2019-07-14T11:31:13Z</time>
      </trkpt>
      <trkpt lat="47.78979" lon="-3.70477">
        <ele>9</ele>
        <time>2019-07-14T11:31:14Z</time>
      </trkpt>
      <trkpt lat="47.78977" lon="-3.70474">
        <ele>9</ele>
        <time>2019-07-14T11:31:15Z</time>
      </trkpt>
      <trkpt lat="47.78975" lon="-3.7047">
        <ele>9</ele>
        <time>2019-07-14T11:31:16Z</time>
      </trkpt>
      <trkpt lat="47.78973" lon="-3.70466">
        <ele>10</ele>
        <time>2019-07-14T11:31:17Z</time>
      </trkpt>
      <trkpt lat="47.78971" lon="-3.70462">
        <ele>10</ele>
        <time>2019-07-14T11:31:18Z</time>
      </trkpt>
      <trkpt lat="47.78968" lon="-3.70458">
        <ele>10</ele>
        <time>2019-07-14T11:31:19Z</time>
      </trkpt>
      <trkpt lat="47.78967" lon="-3.70453">
        <ele>10</ele>
        <time>2019-07-14T11:31:20Z</time>
      </trkpt>
      <trkpt lat="47.78965" lon="-3.70449">
        <ele>10</ele>
        <time>2019-07-14T11:31:21Z</time>
      </trkpt>
      <trkpt lat="47.78964" lon="-3.70445">
        <ele>10</ele>
        <time>2019-07-14T11:31:22Z</time>
      </trkpt>
      <trkpt lat="47.78963" lon="-3.70441">
        <ele>10</ele>
        <time>2019-07-14T11:31:23Z</time>
      </trkpt>
      <trkpt lat="47.78961" lon="-3.70437">
        <ele>10</ele>
        <time>2019-07-14T11:31:24Z</time>
      </trkpt>
      <trkpt lat="47.78959" lon="-3.70433">
        <ele>10</ele>
        <time>2019-07-14T11:31:25Z</time>
      </trkpt>
      <trkpt lat="47.78958" lon="-3.7043">
        <ele>10</ele>
        <time>2019-07-14T11:31:26Z</time>
      </trkpt>
      <trkpt lat="47.78956" lon="-3.70426">
        <ele>10</ele>
        <time>2019-07-14T11:31:27Z</time>
      </trkpt>
      <trkpt lat="47.78954" lon="-3.70422">
        <ele>11</ele>
        <time>2019-07-14T11:31:28Z</time>
      </trkpt>
      <trkpt lat="47.78953" lon="-3.70419">
        <ele>11</ele>
        <time>2019-07-14T11:31:29Z</time>
      </trkpt>
      <trkpt lat="47.78952" lon="-3.70416">
        <ele>11</ele>
        <time>2019-07-14T11:31:30Z</time>
      </trkpt>
      <trkpt lat="47.78951" lon="-3.70412">
        <ele>11</ele>
        <time>2019-07-14T11:31:31Z</time>
      </trkpt>
      <trkpt lat="47.78951" lon="-3.70409">
        <ele>11</ele>
        <time>2019-07-14T11:31:32Z</time>
      </trkpt>
      <trkpt lat="47.7895" lon="-3.70406">
        <ele>11</ele>
        <time>2019-07-14T11:31:33Z</time>
      </trkpt>
      <trkpt lat="47.7895" lon="-3.70402">
        <ele>11</ele>
        <time>2019-07-14T11:31:34Z</time>
      </trkpt>
      <trkpt lat="47.7895" lon="-3.70399">
        <ele>12</ele>
        <time>2019-07-14T11:31:35Z</time>
      </trkpt>
      <trkpt lat="47.7895" lon="-3.70395">
        <ele>12</ele>
        <time>2019-07-14T11:31:36Z</time>
      </trkpt>
      <trkpt lat="47.7895" lon="-3.70393">
        <ele>12</ele>
        <time>2019-07-14T11:31:37Z</time>
      </trkpt>
      <trkpt lat="47.78949" lon="-3.70389">
        <ele>12</ele>
        <time>2019-07-14T11:31:38Z</time>
      </trkpt>
      <trkpt lat="47.78948" lon="-3.70386">
        <ele>12</ele>
        <time>2019-07-14T11:31:39Z</time>
      </trkpt>
      <trkpt lat="47.78947" lon="-3.70383">
        <ele>12</ele>
        <time>2019-07-14T11:31:40Z</time>
      </trkpt>
      <trkpt lat="47.78945" lon="-3.7038">
        <ele>13</ele>
        <time>2019-07-14T11:31:41Z</time>
      </trkpt>
      <trkpt lat="47.78943" lon="-3.70377">
        <ele>13</ele>
        <time>2019-07-14T11:31:42Z</time>
      </trkpt>
      <trkpt lat="47.7894" lon="-3.70374">
        <ele>13</ele>
        <time>2019-07-14T11:31:43Z</time>
      </trkpt>
      <trkpt lat="47.78938" lon="-3.70371">
        <ele>13</ele>
        <time>2019-07-14T11:31:44Z</time>
      </trkpt>
      <trkpt lat="47.78935" lon="-3.70366">
        <ele>13</ele>
        <time>2019-07-14T11:31:45Z</time>
      </trkpt>
      <trkpt lat="47.78932" lon="-3.70361">
        <ele>13</ele>
        <time>2019-07-14T11:31:46Z</time>
      </trkpt>
      <trkpt lat="47.78928" lon="-3.70356">
        <ele>13</ele>
        <time>2019-07-14T11:31:47Z</time>
      </trkpt>
      <trkpt lat="47.78924" lon="-3.7035">
        <ele>13</ele>
        <time>2019-07-14T11:31:48Z</time>
      </trkpt>
      <trkpt lat="47.78919" lon="-3.70343">
        <ele>13</ele>
        <time>2019-07-14T11:31:49Z</time>
      </trkpt>
      <trkpt lat="47.78913" lon="-3.70335">
        <ele>13</ele>
        <time>2019-07-14T11:31:50Z</time>
      </trkpt>
      <trkpt lat="47.78908" lon="-3.70327">
        <ele>13</ele>
        <time>2019-07-14T11:31:51Z</time>
      </trkpt>
      <trkpt lat="47.78902" lon="-3.70318">
        <ele>13</ele>
        <time>2019-07-14T11:31:52Z</time>
      </trkpt>
      <trkpt lat="47.78897" lon="-3.70308">
        <ele>13</ele>
        <time>2019-07-14T11:31:53Z</time>
      </trkpt>
      <trkpt lat="47.78892" lon="-3.70296">
        <ele>13</ele>
        <time>2019-07-14T11:31:54Z</time>
      </trkpt>
      <trkpt lat="47.78887" lon="-3.70286">
        <ele>13</ele>
        <time>2019-07-14T11:31:55Z</time>
      </trkpt>
      <trkpt lat="47.78882" lon="-3.70275">
        <ele>13</ele>
        <time>2019-07-14T11:31:56Z</time>
      </trkpt>
      <trkpt lat="47.78878" lon="-3.70265">
        <ele>12</ele>
        <time>2019-07-14T11:31:57Z</time>
      </trkpt>
      <trkpt lat="47.78874" lon="-3.70255">
        <ele>12</ele>
        <time>2019-07-14T11:31:58Z</time>
      </trkpt>
      <trkpt lat="47.7887" lon="-3.70246">
        <ele>12</ele>
        <time>2019-07-14T11:31:59Z</time>
      </trkpt>
      <trkpt lat="47.78867" lon="-3.70237">
        <ele>12</ele>
        <time>2019-07-14T11:32:00Z</time>
      </trkpt>
      <trkpt lat="47.78863" lon="-3.70228">
        <ele>12</ele>
        <time>2019-07-14T11:32:01Z</time>
      </trkpt>
      <trkpt lat="47.78859" lon="-3.7022">
        <ele>12</ele>
        <time>2019-07-14T11:32:02Z</time>
      </trkpt>
      <trkpt lat="47.78855" lon="-3.70212">
        <ele>12</ele>
        <time>2019-07-14T11:32:03Z</time>
      </trkpt>
      <trkpt lat="47.7885" lon="-3.70204">
        <ele>12</ele>
        <time>2019-07-14T11:32:04Z</time>
      </trkpt>
      <trkpt lat="47.78847" lon="-3.70197">
        <ele>12</ele>
        <time>2019-07-14T11:32:05Z</time>
      </trkpt>
      <trkpt lat="47.78843" lon="-3.70189">
        <ele>11</ele>
        <time>2019-07-14T11:32:06Z</time>
      </trkpt>
      <trkpt lat="47.7884" lon="-3.70182">
        <ele>11</ele>
        <time>2019-07-14T11:32:07Z</time>
      </trkpt>
      <trkpt lat="47.78838" lon="-3.70175">
        <ele>11</ele>
        <time>2019-07-14T11:32:08Z</time>
      </trkpt>
      <trkpt lat="47.78837" lon="-3.70168">
        <ele>11</ele>
        <time>2019-07-14T11:32:09Z</time>
      </trkpt>
      <trkpt lat="47.78836" lon="-3.70161">
        <ele>11</ele>
        <time>2019-07-14T11:32:10Z</time>
      </trkpt>
      <trkpt lat="47.78835" lon="-3.70155">
        <ele>11</ele>
        <time>2019-07-14T11:32:11Z</time>
      </trkpt>
      <trkpt lat="47.78834" lon="-3.7015">
        <ele>11</ele>
        <time>2019-07-14T11:32:12Z</time>
      </trkpt>
      <trkpt lat="47.78833" lon="-3.70145">
        <ele>11</ele>
        <time>2019-07-14T11:32:13Z</time>
      </trkpt>
      <trkpt lat="47.78831" lon="-3.70139">
        <ele>11</ele>
        <time>2019-07-14T11:32:14Z</time>
      </trkpt>
      <trkpt lat="47.7883" lon="-3.70133">
        <ele>11</ele>
        <time>2019-07-14T11:32:15Z</time>
      </trkpt>
      <trkpt lat="47.78829" lon="-3.70128">
        <ele>11</ele>
        <time>2019-07-14T11:32:16Z</time>
      </trkpt>
      <trkpt lat="47.78827" lon="-3.70122">
        <ele>11</ele>
        <time>2019-07-14T11:32:17Z</time>
      </trkpt>
      <trkpt lat="47.78826" lon="-3.70116">
        <ele>11</ele>
        <time>2019-07-14T11:32:18Z</time>
      </trkpt>
      <trkpt lat="47.78825" lon="-3.7011">
        <ele>11</ele>
        <time>2019-07-14T11:32:19Z</time>
      </trkpt>
      <trkpt lat="47.78824" lon="-3.70103">
        <ele>11</ele>
        <time>2019-07-14T11:32:20Z</time>
      </trkpt>
      <trkpt lat="47.78823" lon="-3.70097">
        <ele>11</ele>
        <time>2019-07-14T11:32:21Z</time>
      </trkpt>
      <trkpt lat="47.78822" lon="-3.7009">
        <ele>11</ele>
        <time>2019-07-14T11:32:22Z</time>
      </trkpt>
      <trkpt lat="47.78822" lon="-3.70084">
        <ele>11</ele>
        <time>2019-07-14T11:32:23Z</time>
      </trkpt>
      <trkpt lat="47.78821" lon="-3.70077">
        <ele>11</ele>
        <time>2019-07-14T11:32:24Z</time>
      </trkpt>
      <trkpt lat="47.7882" lon="-3.70071">
        <ele>11</ele>
        <time>2019-07-14T11:32:25Z</time>
      </trkpt>
      <trkpt lat="47.78819" lon="-3.70064">
        <ele>11</ele>
        <time>2019-07-14T11:32:26Z</time>
      </trkpt>
      <trkpt lat="47.78817" lon="-3.70059">
        <ele>11</ele>
        <time>2019-07-14T11:32:27Z</time>
      </trkpt>
      <trkpt lat="47.78814" lon="-3.70055">
        <ele>11</ele>
        <time>2019-07-14T11:32:28Z</time>
      </trkpt>
      <trkpt lat="47.78812" lon="-3.70051">
        <ele>11</ele>
        <time>2019-07-14T11:32:29Z</time>
      </trkpt>
      <trkpt lat="47.7881" lon="-3.70049">
        <ele>11</ele>
        <time>2019-07-14T11:32:30Z</time>
      </trkpt>
      <trkpt lat="47.78808" lon="-3.70048">
        <ele>11</ele>
        <time>2019-07-14T11:32:31Z</time>
      </trkpt>
      <trkpt lat="47.78808" lon="-3.70048">
        <ele>11</ele>
        <time>2019-07-14T11:32:32Z</time>
      </trkpt>
      <trkpt lat="47.78808" lon="-3.70048">
        <ele>11</ele>
        <time>2019-07-14T11:32:33Z</time>
      </trkpt>
      <trkpt lat="47.78807" lon="-3.70053">
        <ele>12</ele>
        <time>2019-07-14T11:32:34Z</time>
      </trkpt>
      <trkpt lat="47.78806" lon="-3.70053">
        <ele>12</ele>
        <time>2019-07-14T11:32:35Z</time>
      </trkpt>
      <trkpt lat="47.78805" lon="-3.70054">
        <ele>12</ele>
        <time>2019-07-14T11:32:36Z</time>
      </trkpt>
      <trkpt lat="47.78804" lon="-3.70054">
        <ele>12</ele>
        <time>2019-07-14T11:32:37Z</time>
      </trkpt>
      <trkpt lat="47.78802" lon="-3.70056">
        <ele>12</ele>
        <time>2019-07-14T11:32:38Z</time>
      </trkpt>
      <trkpt lat="47.78799" lon="-3.7006">
        <ele>12</ele>
        <time>2019-07-14T11:32:39Z</time>
      </trkpt>
      <trkpt lat="47.78795" lon="-3.70063">
        <ele>12</ele>
        <time>2019-07-14T11:32:40Z</time>
      </trkpt>
      <trkpt lat="47.78792" lon="-3.70065">
        <ele>12</ele>
        <time>2019-07-14T11:32:41Z</time>
      </trkpt>
      <trkpt lat="47.78789" lon="-3.70066">
        <ele>12</ele>
        <time>2019-07-14T11:32:42Z</time>
      </trkpt>
      <trkpt lat="47.78786" lon="-3.70066">
        <ele>12</ele>
        <time>2019-07-14T11:32:43Z</time>
      </trkpt>
      <trkpt lat="47.78783" lon="-3.70065">
        <ele>12</ele>
        <time>2019-07-14T11:32:44Z</time>
      </trkpt>
      <trkpt lat="47.7878" lon="-3.70064">
        <ele>12</ele>
        <time>2019-07-14T11:32:45Z</time>
      </trkpt>
      <trkpt lat="47.78776" lon="-3.70061">
        <ele>12</ele>
        <time>2019-07-14T11:32:46Z</time>
      </trkpt>
      <trkpt lat="47.78771" lon="-3.70058">
        <ele>12</ele>
        <time>2019-07-14T11:32:47Z</time>
      </trkpt>
      <trkpt lat="47.78767" lon="-3.70056">
        <ele>12</ele>
        <time>2019-07-14T11:32:48Z</time>
      </trkpt>
      <trkpt lat="47.78763" lon="-3.70053">
        <ele>12</ele>
        <time>2019-07-14T11:32:49Z</time>
      </trkpt>
      <trkpt lat="47.78759" lon="-3.70049">
        <ele>12</ele>
        <time>2019-07-14T11:32:50Z</time>
      </trkpt>
      <trkpt lat="47.78755" lon="-3.70044">
        <ele>12</ele>
        <time>2019-07-14T11:32:51Z</time>
      </trkpt>
      <trkpt lat="47.78752" lon="-3.70039">
        <ele>12</ele>
        <time>2019-07-14T11:32:52Z</time>
      </trkpt>
      <trkpt lat="47.7875" lon="-3.70034">
        <ele>12</ele>
        <time>2019-07-14T11:32:53Z</time>
      </trkpt>
      <trkpt lat="47.78747" lon="-3.70029">
        <ele>12</ele>
        <time>2019-07-14T11:32:54Z</time>
      </trkpt>
      <trkpt lat="47.78744" lon="-3.70025">
        <ele>11</ele>
        <time>2019-07-14T11:32:55Z</time>
      </trkpt>
      <trkpt lat="47.78741" lon="-3.7002">
        <ele>11</ele>
        <time>2019-07-14T11:32:56Z</time>
      </trkpt>
      <trkpt lat="47.78738" lon="-3.70015">
        <ele>11</ele>
        <time>2019-07-14T11:32:57Z</time>
      </trkpt>
      <trkpt lat="47.78734" lon="-3.7001">
        <ele>11</ele>
        <time>2019-07-14T11:32:58Z</time>
      </trkpt>
      <trkpt lat="47.78731" lon="-3.70007">
        <ele>11</ele>
        <time>2019-07-14T11:32:59Z</time>
      </trkpt>
      <trkpt lat="47.78727" lon="-3.70006">
        <ele>11</ele>
        <time>2019-07-14T11:33:00Z</time>
      </trkpt>
      <trkpt lat="47.78723" lon="-3.70004">
        <ele>11</ele>
        <time>2019-07-14T11:33:01Z</time>
      </trkpt>
      <trkpt lat="47.78718" lon="-3.70003">
        <ele>11</ele>
        <time>2019-07-14T11:33:02Z</time>
      </trkpt>
      <trkpt lat="47.78712" lon="-3.70001">
        <ele>11</ele>
        <time>2019-07-14T11:33:03Z</time>
      </trkpt>
      <trkpt lat="47.78707" lon="-3.7">
        <ele>10</ele>
        <time>2019-07-14T11:33:04Z</time>
      </trkpt>
      <trkpt lat="47.78701" lon="-3.69998">
        <ele>10</ele>
        <time>2019-07-14T11:33:05Z</time>
      </trkpt>
      <trkpt lat="47.78696" lon="-3.69997">
        <ele>10</ele>
        <time>2019-07-14T11:33:06Z</time>
      </trkpt>
      <trkpt lat="47.78692" lon="-3.69994">
        <ele>10</ele>
        <time>2019-07-14T11:33:07Z</time>
      </trkpt>
      <trkpt lat="47.7869" lon="-3.6999">
        <ele>10</ele>
        <time>2019-07-14T11:33:08Z</time>
      </trkpt>
      <trkpt lat="47.78687" lon="-3.69987">
        <ele>10</ele>
        <time>2019-07-14T11:33:09Z</time>
      </trkpt>
      <trkpt lat="47.78685" lon="-3.69982">
        <ele>10</ele>
        <time>2019-07-14T11:33:10Z</time>
      </trkpt>
      <trkpt lat="47.78684" lon="-3.69976">
        <ele>10</ele>
        <time>2019-07-14T11:33:11Z</time>
      </trkpt>
      <trkpt lat="47.78683" lon="-3.69971">
        <ele>10</ele>
        <time>2019-07-14T11:33:12Z</time>
      </trkpt>
      <trkpt lat="47.78683" lon="-3.69966">
        <ele>10</ele>
        <time>2019-07-14T11:33:13Z</time>
      </trkpt>
      <trkpt lat="47.78682" lon="-3.69961">
        <ele>10</ele>
        <time>2019-07-14T11:33:14Z</time>
      </trkpt>
      <trkpt lat="47.78681" lon="-3.69955">
        <ele>10</ele>
        <time>2019-07-14T11:33:15Z</time>
      </trkpt>
      <trkpt lat="47.78679" lon="-3.6995">
        <ele>10</ele>
        <time>2019-07-14T11:33:16Z</time>
      </trkpt>
      <trkpt lat="47.78677" lon="-3.69946">
        <ele>10</ele>
        <time>2019-07-14T11:33:17Z</time>
      </trkpt>
      <trkpt lat="47.78674" lon="-3.69942">
        <ele>10</ele>
        <time>2019-07-14T11:33:18Z</time>
      </trkpt>
      <trkpt lat="47.78672" lon="-3.69937">
        <ele>10</ele>
        <time>2019-07-14T11:33:19Z</time>
      </trkpt>
      <trkpt lat="47.7867" lon="-3.69931">
        <ele>10</ele>
        <time>2019-07-14T11:33:20Z</time>
      </trkpt>
      <trkpt lat="47.78669" lon="-3.69925">
        <ele>10</ele>
        <time>2019-07-14T11:33:21Z</time>
      </trkpt>
      <trkpt lat="47.78669" lon="-3.69918">
        <ele>10</ele>
        <time>2019-07-14T11:33:22Z</time>
      </trkpt>
      <trkpt lat="47.78669" lon="-3.69911">
        <ele>10</ele>
        <time>2019-07-14T11:33:23Z</time>
      </trkpt>
      <trkpt lat="47.78669" lon="-3.69905">
        <ele>10</ele>
        <time>2019-07-14T11:33:24Z</time>
      </trkpt>
      <trkpt lat="47.78669" lon="-3.69898">
        <ele>10</ele>
        <time>2019-07-14T11:33:25Z</time>
      </trkpt>
      <trkpt lat="47.78669" lon="-3.69892">
        <ele>10</ele>
        <time>2019-07-14T11:33:26Z</time>
      </trkpt>
      <trkpt lat="47.78669" lon="-3.69886">
        <ele>9</ele>
        <time>2019-07-14T11:33:27Z</time>
      </trkpt>
      <trkpt lat="47.78668" lon="-3.6988">
        <ele>9</ele>
        <time>2019-07-14T11:33:28Z</time>
      </trkpt>
      <trkpt lat="47.78668" lon="-3.69874">
        <ele>9</ele>
        <time>2019-07-14T11:33:29Z</time>
      </trkpt>
      <trkpt lat="47.78668" lon="-3.69868">
        <ele>9</ele>
        <time>2019-07-14T11:33:30Z</time>
      </trkpt>
      <trkpt lat="47.78668" lon="-3.69862">
        <ele>9</ele>
        <time>2019-07-14T11:33:31Z</time>
      </trkpt>
      <trkpt lat="47.78666" lon="-3.69856">
        <ele>9</ele>
        <time>2019-07-14T11:33:32Z</time>
      </trkpt>
      <trkpt lat="47.78665" lon="-3.69849">
        <ele>9</ele>
        <time>2019-07-14T11:33:33Z</time>
      </trkpt>
      <trkpt lat="47.78663" lon="-3.69843">
        <ele>9</ele>
        <time>2019-07-14T11:33:34Z</time>
      </trkpt>
      <trkpt lat="47.78661" lon="-3.69837">
        <ele>9</ele>
        <time>2019-07-14T11:33:35Z</time>
      </trkpt>
      <trkpt lat="47.78658" lon="-3.69833">
        <ele>9</ele>
        <time>2019-07-14T11:33:36Z</time>
      </trkpt>
      <trkpt lat="47.78655" lon="-3.69828">
        <ele>9</ele>
        <time>2019-07-14T11:33:37Z</time>
      </trkpt>
      <trkpt lat="47.78652" lon="-3.69823">
        <ele>9</ele>
        <time>2019-07-14T11:33:38Z</time>
      </trkpt>
      <trkpt lat="47.7865" lon="-3.69819">
        <ele>9</ele>
        <time>2019-07-14T11:33:39Z</time>
      </trkpt>
      <trkpt lat="47.78649" lon="-3.69813">
        <ele>9</ele>
        <time>2019-07-14T11:33:40Z</time>
      </trkpt>
      <trkpt lat="47.78647" lon="-3.69808">
        <ele>9</ele>
        <time>2019-07-14T11:33:41Z</time>
      </trkpt>
      <trkpt lat="47.78646" lon="-3.69803">
        <ele>9</ele>
        <time>2019-07-14T11:33:42Z</time>
      </trkpt>
      <trkpt lat="47.78645" lon="-3.69798">
        <ele>9</ele>
        <time>2019-07-14T11:33:43Z</time>
      </trkpt>
      <trkpt lat="47.78643" lon="-3.69793">
        <ele>9</ele>
        <time>2019-07-14T11:33:44Z</time>
      </trkpt>
      <trkpt lat="47.78641" lon="-3.69788">
        <ele>9</ele>
        <time>2019-07-14T11:33:45Z</time>
      </trkpt>
      <trkpt lat="47.78639" lon="-3.69784">
        <ele>9</ele>
        <time>2019-07-14T11:33:46Z</time>
      </trkpt>
      <trkpt lat="47.78637" lon="-3.69778">
        <ele>9</ele>
        <time>2019-07-14T11:33:47Z</time>
      </trkpt>
      <trkpt lat="47.78637" lon="-3.69771">
        <ele>9</ele>
        <time>2019-07-14T11:33:48Z</time>
      </trkpt>
      <trkpt lat="47.78637" lon="-3.69765">
        <ele>9</ele>
        <time>2019-07-14T11:33:49Z</time>
      </trkpt>
      <trkpt lat="47.78637" lon="-3.69758">
        <ele>9</ele>
        <time>2019-07-14T11:33:50Z</time>
      </trkpt>
      <trkpt lat="47.78635" lon="-3.69751">
        <ele>9</ele>
        <time>2019-07-14T11:33:51Z</time>
      </trkpt>
      <trkpt lat="47.78634" lon="-3.69745">
        <ele>9</ele>
        <time>2019-07-14T11:33:52Z</time>
      </trkpt>
      <trkpt lat="47.78633" lon="-3.69738">
        <ele>9</ele>
        <time>2019-07-14T11:33:53Z</time>
      </trkpt>
      <trkpt lat="47.78632" lon="-3.69731">
        <ele>9</ele>
        <time>2019-07-14T11:33:54Z</time>
      </trkpt>
      <trkpt lat="47.7863" lon="-3.69724">
        <ele>9</ele>
        <time>2019-07-14T11:33:55Z</time>
      </trkpt>
      <trkpt lat="47.78629" lon="-3.69717">
        <ele>9</ele>
        <time>2019-07-14T11:33:56Z</time>
      </trkpt>
      <trkpt lat="47.78628" lon="-3.69709">
        <ele>8</ele>
        <time>2019-07-14T11:33:57Z</time>
      </trkpt>
      <trkpt lat="47.78628" lon="-3.69702">
        <ele>8</ele>
        <time>2019-07-14T11:33:58Z</time>
      </trkpt>
      <trkpt lat="47.78628" lon="-3.69695">
        <ele>8</ele>
        <time>2019-07-14T11:33:59Z</time>
      </trkpt>
      <trkpt lat="47.78627" lon="-3.69688">
        <ele>8</ele>
        <time>2019-07-14T11:34:00Z</time>
      </trkpt>
      <trkpt lat="47.78628" lon="-3.69682">
        <ele>8</ele>
        <time>2019-07-14T11:34:01Z</time>
      </trkpt>
      <trkpt lat="47.78629" lon="-3.69676">
        <ele>8</ele>
        <time>2019-07-14T11:34:02Z</time>
      </trkpt>
      <trkpt lat="47.78631" lon="-3.6967">
        <ele>8</ele>
        <time>2019-07-14T11:34:03Z</time>
      </trkpt>
      <trkpt lat="47.78632" lon="-3.69663">
        <ele>8</ele>
        <time>2019-07-14T11:34:04Z</time>
      </trkpt>
      <trkpt lat="47.78634" lon="-3.69657">
        <ele>8</ele>
        <time>2019-07-14T11:34:05Z</time>
      </trkpt>
      <trkpt lat="47.78637" lon="-3.69652">
        <ele>8</ele>
        <time>2019-07-14T11:34:06Z</time>
      </trkpt>
      <trkpt lat="47.78641" lon="-3.69649">
        <ele>8</ele>
        <time>2019-07-14T11:34:07Z</time>
      </trkpt>
      <trkpt lat="47.78645" lon="-3.69646">
        <ele>7</ele>
        <time>2019-07-14T11:34:08Z</time>
      </trkpt>
      <trkpt lat="47.78649" lon="-3.69645">
        <ele>7</ele>
        <time>2019-07-14T11:34:09Z</time>
      </trkpt>
      <trkpt lat="47.78652" lon="-3.69642">
        <ele>7</ele>
        <time>2019-07-14T11:34:10Z</time>
      </trkpt>
      <trkpt lat="47.78656" lon="-3.69641">
        <ele>7</ele>
        <time>2019-07-14T11:34:11Z</time>
      </trkpt>
      <trkpt lat="47.78659" lon="-3.69638">
        <ele>7</ele>
        <time>2019-07-14T11:34:12Z</time>
      </trkpt>
      <trkpt lat="47.78661" lon="-3.69634">
        <ele>7</ele>
        <time>2019-07-14T11:34:13Z</time>
      </trkpt>
      <trkpt lat="47.78663" lon="-3.6963">
        <ele>7</ele>
        <time>2019-07-14T11:34:14Z</time>
      </trkpt>
      <trkpt lat="47.78664" lon="-3.69626">
        <ele>7</ele>
        <time>2019-07-14T11:34:15Z</time>
      </trkpt>
      <trkpt lat="47.78666" lon="-3.69623">
        <ele>7</ele>
        <time>2019-07-14T11:34:16Z</time>
      </trkpt>
      <trkpt lat="47.78668" lon="-3.6962">
        <ele>7</ele>
        <time>2019-07-14T11:34:17Z</time>
      </trkpt>
      <trkpt lat="47.78669" lon="-3.69617">
        <ele>7</ele>
        <time>2019-07-14T11:34:18Z</time>
      </trkpt>
      <trkpt lat="47.78672" lon="-3.69613">
        <ele>7</ele>
        <time>2019-07-14T11:34:19Z</time>
      </trkpt>
      <trkpt lat="47.78674" lon="-3.69609">
        <ele>7</ele>
        <time>2019-07-14T11:34:20Z</time>
      </trkpt>
      <trkpt lat="47.78677" lon="-3.69604">
        <ele>7</ele>
        <time>2019-07-14T11:34:21Z</time>
      </trkpt>
      <trkpt lat="47.7868" lon="-3.69599">
        <ele>7</ele>
        <time>2019-07-14T11:34:22Z</time>
      </trkpt>
      <trkpt lat="47.78683" lon="-3.69594">
        <ele>7</ele>
        <time>2019-07-14T11:34:23Z</time>
      </trkpt>
      <trkpt lat="47.78687" lon="-3.6959">
        <ele>7</ele>
        <time>2019-07-14T11:34:24Z</time>
      </trkpt>
      <trkpt lat="47.7869" lon="-3.69587">
        <ele>7</ele>
        <time>2019-07-14T11:34:25Z</time>
      </trkpt>
      <trkpt lat="47.78693" lon="-3.69586">
        <ele>7</ele>
        <time>2019-07-14T11:34:26Z</time>
      </trkpt>
      <trkpt lat="47.78696" lon="-3.69583">
        <ele>6</ele>
        <time>2019-07-14T11:34:27Z</time>
      </trkpt>
      <trkpt lat="47.78699" lon="-3.69581">
        <ele>6</ele>
        <time>2019-07-14T11:34:28Z</time>
      </trkpt>
      <trkpt lat="47.78703" lon="-3.69579">
        <ele>6</ele>
        <time>2019-07-14T11:34:29Z</time>
      </trkpt>
      <trkpt lat="47.78706" lon="-3.69576">
        <ele>6</ele>
        <time>2019-07-14T11:34:30Z</time>
      </trkpt>
      <trkpt lat="47.7871" lon="-3.69573">
        <ele>6</ele>
        <time>2019-07-14T11:34:31Z</time>
      </trkpt>
      <trkpt lat="47.78713" lon="-3.69571">
        <ele>6</ele>
        <time>2019-07-14T11:34:32Z</time>
      </trkpt>
      <trkpt lat="47.78717" lon="-3.69568">
        <ele>6</ele>
        <time>2019-07-14T11:34:33Z</time>
      </trkpt>
      <trkpt lat="47.78719" lon="-3.69565">
        <ele>6</ele>
        <time>2019-07-14T11:34:34Z</time>
      </trkpt>
      <trkpt lat="47.78721" lon="-3.69563">
        <ele>6</ele>
        <time>2019-07-14T11:34:35Z</time>
      </trkpt>
      <trkpt lat="47.78721" lon="-3.6956">
        <ele>6</ele>
        <time>2019-07-14T11:34:36Z</time>
      </trkpt>
      <trkpt lat="47.78721" lon="-3.69558">
        <ele>6</ele>
        <time>2019-07-14T11:34:37Z</time>
      </trkpt>
      <trkpt lat="47.78721" lon="-3.69556">
        <ele>7</ele>
        <time>2019-07-14T11:34:38Z</time>
      </trkpt>
      <trkpt lat="47.78721" lon="-3.69553">
        <ele>7</ele>
        <time>2019-07-14T11:34:39Z</time>
      </trkpt>
      <trkpt lat="47.78721" lon="-3.6955">
        <ele>7</ele>
        <time>2019-07-14T11:34:40Z</time>
      </trkpt>
      <trkpt lat="47.78723" lon="-3.69547">
        <ele>7</ele>
        <time>2019-07-14T11:34:41Z</time>
      </trkpt>
      <trkpt lat="47.78724" lon="-3.69544">
        <ele>7</ele>
        <time>2019-07-14T11:34:42Z</time>
      </trkpt>
      <trkpt lat="47.78725" lon="-3.6954">
        <ele>7</ele>
        <time>2019-07-14T11:34:43Z</time>
      </trkpt>
      <trkpt lat="47.78726" lon="-3.69535">
        <ele>6</ele>
        <time>2019-07-14T11:34:44Z</time>
      </trkpt>
      <trkpt lat="47.78727" lon="-3.69531">
        <ele>6</ele>
        <time>2019-07-14T11:34:45Z</time>
      </trkpt>
      <trkpt lat="47.78728" lon="-3.69527">
        <ele>6</ele>
        <time>2019-07-14T11:34:46Z</time>
      </trkpt>
      <trkpt lat="47.78728" lon="-3.69524">
        <ele>6</ele>
        <time>2019-07-14T11:34:47Z</time>
      </trkpt>
      <trkpt lat="47.78727" lon="-3.69522">
        <ele>6</ele>
        <time>2019-07-14T11:34:48Z</time>
      </trkpt>
      <trkpt lat="47.78725" lon="-3.69519">
        <ele>6</ele>
        <time>2019-07-14T11:34:49Z</time>
      </trkpt>
      <trkpt lat="47.78723" lon="-3.69516">
        <ele>6</ele>
        <time>2019-07-14T11:34:50Z</time>
      </trkpt>
      <trkpt lat="47.7872" lon="-3.69512">
        <ele>6</ele>
        <time>2019-07-14T11:34:51Z</time>
      </trkpt>
      <trkpt lat="47.78717" lon="-3.69508">
        <ele>6</ele>
        <time>2019-07-14T11:34:52Z</time>
      </trkpt>
      <trkpt lat="47.78715" lon="-3.69504">
        <ele>6</ele>
        <time>2019-07-14T11:34:53Z</time>
      </trkpt>
      <trkpt lat="47.78712" lon="-3.69499">
        <ele>6</ele>
        <time>2019-07-14T11:34:54Z</time>
      </trkpt>
      <trkpt lat="47.7871" lon="-3.69495">
        <ele>6</ele>
        <time>2019-07-14T11:34:55Z</time>
      </trkpt>
      <trkpt lat="47.78707" lon="-3.69491">
        <ele>6</ele>
        <time>2019-07-14T11:34:56Z</time>
      </trkpt>
      <trkpt lat="47.78704" lon="-3.69488">
        <ele>6</ele>
        <time>2019-07-14T11:34:57Z</time>
      </trkpt>
      <trkpt lat="47.78702" lon="-3.69486">
        <ele>6</ele>
        <time>2019-07-14T11:34:58Z</time>
      </trkpt>
      <trkpt lat="47.787" lon="-3.69485">
        <ele>6</ele>
        <time>2019-07-14T11:34:59Z</time>
      </trkpt>
      <trkpt lat="47.78698" lon="-3.69485">
        <ele>6</ele>
        <time>2019-07-14T11:35:00Z</time>
      </trkpt>
      <trkpt lat="47.78697" lon="-3.69485">
        <ele>6</ele>
        <time>2019-07-14T11:35:01Z</time>
      </trkpt>
      <trkpt lat="47.78695" lon="-3.69486">
        <ele>6</ele>
        <time>2019-07-14T11:35:02Z</time>
      </trkpt>
      <trkpt lat="47.78692" lon="-3.69487">
        <ele>6</ele>
        <time>2019-07-14T11:35:03Z</time>
      </trkpt>
      <trkpt lat="47.7869" lon="-3.69489">
        <ele>6</ele>
        <time>2019-07-14T11:35:04Z</time>
      </trkpt>
      <trkpt lat="47.78688" lon="-3.6949">
        <ele>6</ele>
        <time>2019-07-14T11:35:05Z</time>
      </trkpt>
      <trkpt lat="47.78686" lon="-3.69491">
        <ele>6</ele>
        <time>2019-07-14T11:35:06Z</time>
      </trkpt>
      <trkpt lat="47.78683" lon="-3.69492">
        <ele>6</ele>
        <time>2019-07-14T11:35:07Z</time>
      </trkpt>
      <trkpt lat="47.78681" lon="-3.69493">
        <ele>6</ele>
        <time>2019-07-14T11:35:08Z</time>
      </trkpt>
      <trkpt lat="47.78678" lon="-3.69495">
        <ele>6</ele>
        <time>2019-07-14T11:35:09Z</time>
      </trkpt>
      <trkpt lat="47.78676" lon="-3.69496">
        <ele>6</ele>
        <time>2019-07-14T11:35:10Z</time>
      </trkpt>
      <trkpt lat="47.78673" lon="-3.69497">
        <ele>6</ele>
        <time>2019-07-14T11:35:11Z</time>
      </trkpt>
      <trkpt lat="47.7867" lon="-3.69498">
        <ele>6</ele>
        <time>2019-07-14T11:35:12Z</time>
      </trkpt>
      <trkpt lat="47.78666" lon="-3.695">
        <ele>6</ele>
        <time>2019-07-14T11:35:13Z</time>
      </trkpt>
      <trkpt lat="47.78663" lon="-3.69502">
        <ele>6</ele>
        <time>2019-07-14T11:35:14Z</time>
      </trkpt>
      <trkpt lat="47.7866" lon="-3.69504">
        <ele>6</ele>
        <time>2019-07-14T11:35:15Z</time>
      </trkpt>
      <trkpt lat="47.78657" lon="-3.69506">
        <ele>6</ele>
        <time>2019-07-14T11:35:16Z</time>
      </trkpt>
      <trkpt lat="47.78654" lon="-3.69508">
        <ele>5</ele>
        <time>2019-07-14T11:35:17Z</time>
      </trkpt>
      <trkpt lat="47.78651" lon="-3.69509">
        <ele>5</ele>
        <time>2019-07-14T11:35:18Z</time>
      </trkpt>
      <trkpt lat="47.78648" lon="-3.69511">
        <ele>5</ele>
        <time>2019-07-14T11:35:19Z</time>
      </trkpt>
      <trkpt lat="47.78645" lon="-3.69513">
        <ele>5</ele>
        <time>2019-07-14T11:35:20Z</time>
      </trkpt>
      <trkpt lat="47.78642" lon="-3.69516">
        <ele>5</ele>
        <time>2019-07-14T11:35:21Z</time>
      </trkpt>
      <trkpt lat="47.78639" lon="-3.69519">
        <ele>5</ele>
        <time>2019-07-14T11:35:22Z</time>
      </trkpt>
      <trkpt lat="47.78636" lon="-3.69522">
        <ele>5</ele>
        <time>2019-07-14T11:35:23Z</time>
      </trkpt>
      <trkpt lat="47.78633" lon="-3.69526">
        <ele>5</ele>
        <time>2019-07-14T11:35:24Z</time>
      </trkpt>
      <trkpt lat="47.7863" lon="-3.69529">
        <ele>5</ele>
        <time>2019-07-14T11:35:25Z</time>
      </trkpt>
      <trkpt lat="47.78627" lon="-3.69533">
        <ele>5</ele>
        <time>2019-07-14T11:35:26Z</time>
      </trkpt>
      <trkpt lat="47.78625" lon="-3.69537">
        <ele>5</ele>
        <time>2019-07-14T11:35:27Z</time>
      </trkpt>
      <trkpt lat="47.78624" lon="-3.69541">
        <ele>5</ele>
        <time>2019-07-14T11:35:28Z</time>
      </trkpt>
      <trkpt lat="47.78623" lon="-3.69545">
        <ele>5</ele>
        <time>2019-07-14T11:35:29Z</time>
      </trkpt>
      <trkpt lat="47.78621" lon="-3.6955">
        <ele>5</ele>
        <time>2019-07-14T11:35:30Z</time>
      </trkpt>
      <trkpt lat="47.78618" lon="-3.69553">
        <ele>5</ele>
        <time>2019-07-14T11:35:31Z</time>
      </trkpt>
      <trkpt lat="47.78615" lon="-3.69556">
        <ele>4</ele>
        <time>2019-07-14T11:35:32Z</time>
      </trkpt>
      <trkpt lat="47.78611" lon="-3.69558">
        <ele>4</ele>
        <time>2019-07-14T11:35:33Z</time>
      </trkpt>
      <trkpt lat="47.78607" lon="-3.69559">
        <ele>4</ele>
        <time>2019-07-14T11:35:34Z</time>
      </trkpt>
      <trkpt lat="47.78603" lon="-3.69558">
        <ele>4</ele>
        <time>2019-07-14T11:35:35Z</time>
      </trkpt>
      <trkpt lat="47.786" lon="-3.69558">
        <ele>4</ele>
        <time>2019-07-14T11:35:36Z</time>
      </trkpt>
      <trkpt lat="47.78597" lon="-3.69556">
        <ele>4</ele>
        <time>2019-07-14T11:35:37Z</time>
      </trkpt>
      <trkpt lat="47.78594" lon="-3.69554">
        <ele>4</ele>
        <time>2019-07-14T11:35:38Z</time>
      </trkpt>
      <trkpt lat="47.78591" lon="-3.69552">
        <ele>4</ele>
        <time>2019-07-14T11:35:39Z</time>
      </trkpt>
      <trkpt lat="47.78588" lon="-3.69549">
        <ele>4</ele>
        <time>2019-07-14T11:35:40Z</time>
      </trkpt>
      <trkpt lat="47.78585" lon="-3.69546">
        <ele>4</ele>
        <time>2019-07-14T11:35:41Z</time>
      </trkpt>
      <trkpt lat="47.78581" lon="-3.69544">
        <ele>4</ele>
        <time>2019-07-14T11:35:42Z</time>
      </trkpt>
      <trkpt lat="47.78576" lon="-3.69544">
        <ele>4</ele>
        <time>2019-07-14T11:35:43Z</time>
      </trkpt>
      <trkpt lat="47.78573" lon="-3.69544">
        <ele>4</ele>
        <time>2019-07-14T11:35:44Z</time>
      </trkpt>
      <trkpt lat="47.78569" lon="-3.69545">
        <ele>4</ele>
        <time>2019-07-14T11:35:45Z</time>
      </trkpt>
      <trkpt lat="47.78566" lon="-3.69547">
        <ele>4</ele>
        <time>2019-07-14T11:35:46Z</time>
      </trkpt>
      <trkpt lat="47.78562" lon="-3.69549">
        <ele>4</ele>
        <time>2019-07-14T11:35:47Z</time>
      </trkpt>
      <trkpt lat="47.78558" lon="-3.69551">
        <ele>4</ele>
        <time>2019-07-14T11:35:48Z</time>
      </trkpt>
      <trkpt lat="47.78554" lon="-3.69552">
        <ele>4</ele>
        <time>2019-07-14T11:35:49Z</time>
      </trkpt>
      <trkpt lat="47.7855" lon="-3.69551">
        <ele>4</ele>
        <time>2019-07-14T11:35:50Z</time>
      </trkpt>
      <trkpt lat="47.78546" lon="-3.6955">
        <ele>4</ele>
        <time>2019-07-14T11:35:51Z</time>
      </trkpt>
      <trkpt lat="47.78542" lon="-3.69547">
        <ele>4</ele>
        <time>2019-07-14T11:35:52Z</time>
      </trkpt>
      <trkpt lat="47.78538" lon="-3.69544">
        <ele>4</ele>
        <time>2019-07-14T11:35:53Z</time>
      </trkpt>
      <trkpt lat="47.78534" lon="-3.6954">
        <ele>4</ele>
        <time>2019-07-14T11:35:54Z</time>
      </trkpt>
      <trkpt lat="47.78531" lon="-3.69534">
        <ele>4</ele>
        <time>2019-07-14T11:35:55Z</time>
      </trkpt>
      <trkpt lat="47.78529" lon="-3.69528">
        <ele>4</ele>
        <time>2019-07-14T11:35:56Z</time>
      </trkpt>
      <trkpt lat="47.78527" lon="-3.69522">
        <ele>4</ele>
        <time>2019-07-14T11:35:57Z</time>
      </trkpt>
      <trkpt lat="47.78525" lon="-3.69516">
        <ele>4</ele>
        <time>2019-07-14T11:35:58Z</time>
      </trkpt>
      <trkpt lat="47.78524" lon="-3.6951">
        <ele>4</ele>
        <time>2019-07-14T11:35:59Z</time>
      </trkpt>
      <trkpt lat="47.78523" lon="-3.69503">
        <ele>4</ele>
        <time>2019-07-14T11:36:00Z</time>
      </trkpt>
      <trkpt lat="47.78522" lon="-3.69497">
        <ele>4</ele>
        <time>2019-07-14T11:36:01Z</time>
      </trkpt>
      <trkpt lat="47.78521" lon="-3.69491">
        <ele>4</ele>
        <time>2019-07-14T11:36:02Z</time>
      </trkpt>
      <trkpt lat="47.7852" lon="-3.69485">
        <ele>4</ele>
        <time>2019-07-14T11:36:03Z</time>
      </trkpt>
      <trkpt lat="47.7852" lon="-3.6948">
        <ele>4</ele>
        <time>2019-07-14T11:36:04Z</time>
      </trkpt>
      <trkpt lat="47.7852" lon="-3.69474">
        <ele>4</ele>
        <time>2019-07-14T11:36:05Z</time>
      </trkpt>
      <trkpt lat="47.78521" lon="-3.69468">
        <ele>4</ele>
        <time>2019-07-14T11:36:06Z</time>
      </trkpt>
      <trkpt lat="47.78522" lon="-3.69462">
        <ele>4</ele>
        <time>2019-07-14T11:36:07Z</time>
      </trkpt>
      <trkpt lat="47.78523" lon="-3.69456">
        <ele>4</ele>
        <time>2019-07-14T11:36:08Z</time>
      </trkpt>
      <trkpt lat="47.78524" lon="-3.69449">
        <ele>4</ele>
        <time>2019-07-14T11:36:09Z</time>
      </trkpt>
      <trkpt lat="47.78525" lon="-3.69443">
        <ele>4</ele>
        <time>2019-07-14T11:36:10Z</time>
      </trkpt>
      <trkpt lat="47.78526" lon="-3.69437">
        <ele>4</ele>
        <time>2019-07-14T11:36:11Z</time>
      </trkpt>
      <trkpt lat="47.78527" lon="-3.69431">
        <ele>4</ele>
        <time>2019-07-14T11:36:12Z</time>
      </trkpt>
      <trkpt lat="47.78528" lon="-3.69425">
        <ele>4</ele>
        <time>2019-07-14T11:36:13Z</time>
      </trkpt>
      <trkpt lat="47.78528" lon="-3.6942">
        <ele>4</ele>
        <time>2019-07-14T11:36:14Z</time>
      </trkpt>
      <trkpt lat="47.78527" lon="-3.69414">
        <ele>4</ele>
        <time>2019-07-14T11:36:15Z</time>
      </trkpt>
      <trkpt lat="47.78526" lon="-3.69409">
        <ele>4</ele>
        <time>2019-07-14T11:36:16Z</time>
      </trkpt>
      <trkpt lat="47.78524" lon="-3.69405">
        <ele>4</ele>
        <time>2019-07-14T11:36:17Z</time>
      </trkpt>
      <trkpt lat="47.78522" lon="-3.694">
        <ele>4</ele>
        <time>2019-07-14T11:36:18Z</time>
      </trkpt>
      <trkpt lat="47.78519" lon="-3.69397">
        <ele>4</ele>
        <time>2019-07-14T11:36:19Z</time>
      </trkpt>
      <trkpt lat="47.78517" lon="-3.69395">
        <ele>4</ele>
        <time>2019-07-14T11:36:20Z</time>
      </trkpt>
      <trkpt lat="47.78515" lon="-3.69392">
        <ele>4</ele>
        <time>2019-07-14T11:36:21Z</time>
      </trkpt>
      <trkpt lat="47.78514" lon="-3.69389">
        <ele>4</ele>
        <time>2019-07-14T11:36:22Z</time>
      </trkpt>
      <trkpt lat="47.78514" lon="-3.69384">
        <ele>4</ele>
        <time>2019-07-14T11:36:23Z</time>
      </trkpt>
      <trkpt lat="47.78516" lon="-3.69381">
        <ele>5</ele>
        <time>2019-07-14T11:36:24Z</time>
      </trkpt>
      <trkpt lat="47.78518" lon="-3.69377">
        <ele>5</ele>
        <time>2019-07-14T11:36:25Z</time>
      </trkpt>
      <trkpt lat="47.78519" lon="-3.69374">
        <ele>5</ele>
        <time>2019-07-14T11:36:26Z</time>
      </trkpt>
      <trkpt lat="47.7852" lon="-3.69371">
        <ele>5</ele>
        <time>2019-07-14T11:36:27Z</time>
      </trkpt>
      <trkpt lat="47.7852" lon="-3.69367">
        <ele>5</ele>
        <time>2019-07-14T11:36:28Z</time>
      </trkpt>
      <trkpt lat="47.7852" lon="-3.69364">
        <ele>5</ele>
        <time>2019-07-14T11:36:29Z</time>
      </trkpt>
      <trkpt lat="47.7852" lon="-3.69361">
        <ele>5</ele>
        <time>2019-07-14T11:36:30Z</time>
      </trkpt>
      <trkpt lat="47.78519" lon="-3.69358">
        <ele>5</ele>
        <time>2019-07-14T11:36:31Z</time>
      </trkpt>
      <trkpt lat="47.7852" lon="-3.69355">
        <ele>5</ele>
        <time>2019-07-14T11:36:32Z</time>
      </trkpt>
      <trkpt lat="47.78521" lon="-3.69352">
        <ele>5</ele>
        <time>2019-07-14T11:36:33Z</time>
      </trkpt>
      <trkpt lat="47.78521" lon="-3.69349">
        <ele>5</ele>
        <time>2019-07-14T11:36:34Z</time>
      </trkpt>
      <trkpt lat="47.78521" lon="-3.69346">
        <ele>5</ele>
        <time>2019-07-14T11:36:35Z</time>
      </trkpt>
      <trkpt lat="47.78522" lon="-3.69344">
        <ele>5</ele>
        <time>2019-07-14T11:36:36Z</time>
      </trkpt>
      <trkpt lat="47.78523" lon="-3.69341">
        <ele>5</ele>
        <time>2019-07-14T11:36:37Z</time>
      </trkpt>
      <trkpt lat="47.78524" lon="-3.6934">
        <ele>4</ele>
        <time>2019-07-14T11:36:38Z</time>
      </trkpt>
      <trkpt lat="47.78524" lon="-3.69337">
        <ele>4</ele>
        <time>2019-07-14T11:36:39Z</time>
      </trkpt>
      <trkpt lat="47.78525" lon="-3.69334">
        <ele>4</ele>
        <time>2019-07-14T11:36:40Z</time>
      </trkpt>
      <trkpt lat="47.78525" lon="-3.69331">
        <ele>4</ele>
        <time>2019-07-14T11:36:41Z</time>
      </trkpt>
      <trkpt lat="47.78525" lon="-3.69329">
        <ele>4</ele>
        <time>2019-07-14T11:36:42Z</time>
      </trkpt>
      <trkpt lat="47.78524" lon="-3.69327">
        <ele>4</ele>
        <time>2019-07-14T11:36:43Z</time>
      </trkpt>
      <trkpt lat="47.78523" lon="-3.69324">
        <ele>4</ele>
        <time>2019-07-14T11:36:44Z</time>
      </trkpt>
      <trkpt lat="47.78521" lon="-3.69321">
        <ele>4</ele>
        <time>2019-07-14T11:36:45Z</time>
      </trkpt>
      <trkpt lat="47.78519" lon="-3.6932">
        <ele>4</ele>
        <time>2019-07-14T11:36:46Z</time>
      </trkpt>
      <trkpt lat="47.78517" lon="-3.69318">
        <ele>4</ele>
        <time>2019-07-14T11:36:47Z</time>
      </trkpt>
      <trkpt lat="47.78515" lon="-3.69316">
        <ele>4</ele>
        <time>2019-07-14T11:36:48Z</time>
      </trkpt>
      <trkpt lat="47.78513" lon="-3.69314">
        <ele>4</ele>
        <time>2019-07-14T11:36:49Z</time>
      </trkpt>
      <trkpt lat="47.78511" lon="-3.69312">
        <ele>4</ele>
        <time>2019-07-14T11:36:50Z</time>
      </trkpt>
      <trkpt lat="47.7851" lon="-3.6931">
        <ele>4</ele>
        <time>2019-07-14T11:36:51Z</time>
      </trkpt>
      <trkpt lat="47.78508" lon="-3.69308">
        <ele>4</ele>
        <time>2019-07-14T11:36:52Z</time>
      </trkpt>
      <trkpt lat="47.78506" lon="-3.69308">
        <ele>4</ele>
        <time>2019-07-14T11:36:53Z</time>
      </trkpt>
      <trkpt lat="47.78504" lon="-3.69308">
        <ele>4</ele>
        <time>2019-07-14T11:36:54Z</time>
      </trkpt>
      <trkpt lat="47.78502" lon="-3.69307">
        <ele>4</ele>
        <time>2019-07-14T11:36:55Z</time>
      </trkpt>
      <trkpt lat="47.78501" lon="-3.69307">
        <ele>4</ele>
        <time>2019-07-14T11:36:56Z</time>
      </trkpt>
      <trkpt lat="47.78499" lon="-3.69307">
        <ele>4</ele>
        <time>2019-07-14T11:36:57Z</time>
      </trkpt>
      <trkpt lat="47.78498" lon="-3.69307">
        <ele>4</ele>
        <time>2019-07-14T11:36:58Z</time>
      </trkpt>
      <trkpt lat="47.78497" lon="-3.69306">
        <ele>4</ele>
        <time>2019-07-14T11:36:59Z</time>
      </trkpt>
      <trkpt lat="47.78496" lon="-3.69306">
        <ele>3</ele>
        <time>2019-07-14T11:37:00Z</time>
      </trkpt>
      <trkpt lat="47.78495" lon="-3.69305">
        <ele>3</ele>
        <time>2019-07-14T11:37:01Z</time>
      </trkpt>
      <trkpt lat="47.78494" lon="-3.69306">
        <ele>3</ele>
        <time>2019-07-14T11:37:02Z</time>
      </trkpt>
      <trkpt lat="47.78492" lon="-3.69306">
        <ele>3</ele>
        <time>2019-07-14T11:37:03Z</time>
      </trkpt>
      <trkpt lat="47.7849" lon="-3.69306">
        <ele>3</ele>
        <time>2019-07-14T11:37:04Z</time>
      </trkpt>
      <trkpt lat="47.78488" lon="-3.69305">
        <ele>3</ele>
        <time>2019-07-14T11:37:05Z</time>
      </trkpt>
      <trkpt lat="47.78485" lon="-3.69303">
        <ele>3</ele>
        <time>2019-07-14T11:37:06Z</time>
      </trkpt>
      <trkpt lat="47.78483" lon="-3.69301">
        <ele>3</ele>
        <time>2019-07-14T11:37:07Z</time>
      </trkpt>
      <trkpt lat="47.78481" lon="-3.69299">
        <ele>3</ele>
        <time>2019-07-14T11:37:08Z</time>
      </trkpt>
      <trkpt lat="47.78479" lon="-3.69296">
        <ele>4</ele>
        <time>2019-07-14T11:37:09Z</time>
      </trkpt>
      <trkpt lat="47.78477" lon="-3.69294">
        <ele>4</ele>
        <time>2019-07-14T11:37:10Z</time>
      </trkpt>
      <trkpt lat="47.78475" lon="-3.69291">
        <ele>4</ele>
        <time>2019-07-14T11:37:11Z</time>
      </trkpt>
      <trkpt lat="47.78472" lon="-3.69288">
        <ele>4</ele>
        <time>2019-07-14T11:37:12Z</time>
      </trkpt>
      <trkpt lat="47.7847" lon="-3.69285">
        <ele>4</ele>
        <time>2019-07-14T11:37:13Z</time>
      </trkpt>
      <trkpt lat="47.78468" lon="-3.69282">
        <ele>4</ele>
        <time>2019-07-14T11:37:14Z</time>
      </trkpt>
      <trkpt lat="47.78465" lon="-3.69279">
        <ele>4</ele>
        <time>2019-07-14T11:37:15Z</time>
      </trkpt>
      <trkpt lat="47.78462" lon="-3.69277">
        <ele>4</ele>
        <time>2019-07-14T11:37:16Z</time>
      </trkpt>
      <trkpt lat="47.7846" lon="-3.69273">
        <ele>4</ele>
        <time>2019-07-14T11:37:17Z</time>
      </trkpt>
      <trkpt lat="47.78458" lon="-3.6927">
        <ele>4</ele>
        <time>2019-07-14T11:37:18Z</time>
      </trkpt>
      <trkpt lat="47.78455" lon="-3.69267">
        <ele>4</ele>
        <time>2019-07-14T11:37:19Z</time>
      </trkpt>
      <trkpt lat="47.78452" lon="-3.69264">
        <ele>4</ele>
        <time>2019-07-14T11:37:20Z</time>
      </trkpt>
      <trkpt lat="47.7845" lon="-3.69261">
        <ele>5</ele>
        <time>2019-07-14T11:37:21Z</time>
      </trkpt>
      <trkpt lat="47.78447" lon="-3.69257">
        <ele>5</ele>
        <time>2019-07-14T11:37:22Z</time>
      </trkpt>
      <trkpt lat="47.78444" lon="-3.69254">
        <ele>5</ele>
        <time>2019-07-14T11:37:23Z</time>
      </trkpt>
      <trkpt lat="47.78442" lon="-3.69251">
        <ele>5</ele>
        <time>2019-07-14T11:37:24Z</time>
      </trkpt>
      <trkpt lat="47.78439" lon="-3.69248">
        <ele>5</ele>
        <time>2019-07-14T11:37:25Z</time>
      </trkpt>
      <trkpt lat="47.78436" lon="-3.69245">
        <ele>5</ele>
        <time>2019-07-14T11:37:26Z</time>
      </trkpt>
      <trkpt lat="47.78433" lon="-3.69241">
        <ele>5</ele>
        <time>2019-07-14T11:37:27Z</time>
      </trkpt>
      <trkpt lat="47.78431" lon="-3.69238">
        <ele>5</ele>
        <time>2019-07-14T11:37:28Z</time>
      </trkpt>
      <trkpt lat="47.78428" lon="-3.69234">
        <ele>5</ele>
        <time>2019-07-14T11:37:29Z</time>
      </trkpt>
      <trkpt lat="47.78426" lon="-3.6923">
        <ele>5</ele>
        <time>2019-07-14T11:37:30Z</time>
      </trkpt>
      <trkpt lat="47.78423" lon="-3.69227">
        <ele>5</ele>
        <time>2019-07-14T11:37:31Z</time>
      </trkpt>
      <trkpt lat="47.78421" lon="-3.69222">
        <ele>5</ele>
        <time>2019-07-14T11:37:32Z</time>
      </trkpt>
      <trkpt lat="47.78419" lon="-3.69218">
        <ele>5</ele>
        <time>2019-07-14T11:37:33Z</time>
      </trkpt>
      <trkpt lat="47.78416" lon="-3.69213">
        <ele>5</ele>
        <time>2019-07-14T11:37:34Z</time>
      </trkpt>
      <trkpt lat="47.78413" lon="-3.69209">
        <ele>6</ele>
        <time>2019-07-14T11:37:35Z</time>
      </trkpt>
      <trkpt lat="47.7841" lon="-3.69203">
        <ele>6</ele>
        <time>2019-07-14T11:37:36Z</time>
      </trkpt>
      <trkpt lat="47.78407" lon="-3.69199">
        <ele>6</ele>
        <time>2019-07-14T11:37:37Z</time>
      </trkpt>
      <trkpt lat="47.78405" lon="-3.69194">
        <ele>6</ele>
        <time>2019-07-14T11:37:38Z</time>
      </trkpt>
      <trkpt lat="47.78402" lon="-3.6919">
        <ele>6</ele>
        <time>2019-07-14T11:37:39Z</time>
      </trkpt>
      <trkpt lat="47.78399" lon="-3.69185">
        <ele>6</ele>
        <time>2019-07-14T11:37:40Z</time>
      </trkpt>
      <trkpt lat="47.78397" lon="-3.6918">
        <ele>6</ele>
        <time>2019-07-14T11:37:41Z</time>
      </trkpt>
      <trkpt lat="47.78395" lon="-3.69176">
        <ele>6</ele>
        <time>2019-07-14T11:37:42Z</time>
      </trkpt>
      <trkpt lat="47.78393" lon="-3.69171">
        <ele>6</ele>
        <time>2019-07-14T11:37:43Z</time>
      </trkpt>
      <trkpt lat="47.7839" lon="-3.69166">
        <ele>6</ele>
        <time>2019-07-14T11:37:44Z</time>
      </trkpt>
      <trkpt lat="47.78388" lon="-3.69161">
        <ele>6</ele>
        <time>2019-07-14T11:37:45Z</time>
      </trkpt>
      <trkpt lat="47.78386" lon="-3.69156">
        <ele>6</ele>
        <time>2019-07-14T11:37:46Z</time>
      </trkpt>
      <trkpt lat="47.78383" lon="-3.69151">
        <ele>7</ele>
        <time>2019-07-14T11:37:47Z</time>
      </trkpt>
      <trkpt lat="47.78381" lon="-3.69146">
        <ele>7</ele>
        <time>2019-07-14T11:37:48Z</time>
      </trkpt>
      <trkpt lat="47.78378" lon="-3.69141">
        <ele>7</ele>
        <time>2019-07-14T11:37:49Z</time>
      </trkpt>
      <trkpt lat="47.78376" lon="-3.69136">
        <ele>7</ele>
        <time>2019-07-14T11:37:50Z</time>
      </trkpt>
      <trkpt lat="47.78373" lon="-3.69131">
        <ele>7</ele>
        <time>2019-07-14T11:37:51Z</time>
      </trkpt>
      <trkpt lat="47.78371" lon="-3.69125">
        <ele>7</ele>
        <time>2019-07-14T11:37:52Z</time>
      </trkpt>
      <trkpt lat="47.78369" lon="-3.69119">
        <ele>7</ele>
        <time>2019-07-14T11:37:53Z</time>
      </trkpt>
      <trkpt lat="47.78367" lon="-3.69114">
        <ele>7</ele>
        <time>2019-07-14T11:37:54Z</time>
      </trkpt>
      <trkpt lat="47.78366" lon="-3.69108">
        <ele>7</ele>
        <time>2019-07-14T11:37:55Z</time>
      </trkpt>
      <trkpt lat="47.78364" lon="-3.69102">
        <ele>7</ele>
        <time>2019-07-14T11:37:56Z</time>
      </trkpt>
      <trkpt lat="47.78362" lon="-3.69097">
        <ele>8</ele>
        <time>2019-07-14T11:37:57Z</time>
      </trkpt>
      <trkpt lat="47.7836" lon="-3.69091">
        <ele>8</ele>
        <time>2019-07-14T11:37:58Z</time>
      </trkpt>
      <trkpt lat="47.78359" lon="-3.69085">
        <ele>8</ele>
        <time>2019-07-14T11:37:59Z</time>
      </trkpt>
      <trkpt lat="47.78358" lon="-3.69079">
        <ele>8</ele>
        <time>2019-07-14T11:38:00Z</time>
      </trkpt>
      <trkpt lat="47.78356" lon="-3.69073">
        <ele>8</ele>
        <time>2019-07-14T11:38:01Z</time>
      </trkpt>
      <trkpt lat="47.78355" lon="-3.69067">
        <ele>8</ele>
        <time>2019-07-14T11:38:02Z</time>
      </trkpt>
      <trkpt lat="47.78353" lon="-3.69061">
        <ele>8</ele>
        <time>2019-07-14T11:38:03Z</time>
      </trkpt>
      <trkpt lat="47.78352" lon="-3.69054">
        <ele>8</ele>
        <time>2019-07-14T11:38:04Z</time>
      </trkpt>
      <trkpt lat="47.78351" lon="-3.69047">
        <ele>8</ele>
        <time>2019-07-14T11:38:05Z</time>
      </trkpt>
      <trkpt lat="47.7835" lon="-3.69041">
        <ele>8</ele>
        <time>2019-07-14T11:38:06Z</time>
      </trkpt>
      <trkpt lat="47.78349" lon="-3.69034">
        <ele>9</ele>
        <time>2019-07-14T11:38:07Z</time>
      </trkpt>
      <trkpt lat="47.78349" lon="-3.69027">
        <ele>9</ele>
        <time>2019-07-14T11:38:08Z</time>
      </trkpt>
      <trkpt lat="47.78349" lon="-3.6902">
        <ele>9</ele>
        <time>2019-07-14T11:38:09Z</time>
      </trkpt>
      <trkpt lat="47.78349" lon="-3.69013">
        <ele>9</ele>
        <time>2019-07-14T11:38:10Z</time>
      </trkpt>
      <trkpt lat="47.78348" lon="-3.69006">
        <ele>9</ele>
        <time>2019-07-14T11:38:11Z</time>
      </trkpt>
      <trkpt lat="47.78348" lon="-3.69">
        <ele>9</ele>
        <time>2019-07-14T11:38:12Z</time>
      </trkpt>
      <trkpt lat="47.78347" lon="-3.68993">
        <ele>9</ele>
        <time>2019-07-14T11:38:13Z</time>
      </trkpt>
      <trkpt lat="47.78347" lon="-3.68986">
        <ele>9</ele>
        <time>2019-07-14T11:38:14Z</time>
      </trkpt>
      <trkpt lat="47.78346" lon="-3.68979">
        <ele>9</ele>
        <time>2019-07-14T11:38:15Z</time>
      </trkpt>
      <trkpt lat="47.78346" lon="-3.68972">
        <ele>9</ele>
        <time>2019-07-14T11:38:16Z</time>
      </trkpt>
      <trkpt lat="47.78346" lon="-3.68965">
        <ele>10</ele>
        <time>2019-07-14T11:38:17Z</time>
      </trkpt>
      <trkpt lat="47.78346" lon="-3.68958">
        <ele>9</ele>
        <time>2019-07-14T11:38:18Z</time>
      </trkpt>
      <trkpt lat="47.78346" lon="-3.68952">
        <ele>10</ele>
        <time>2019-07-14T11:38:19Z</time>
      </trkpt>
      <trkpt lat="47.78346" lon="-3.68945">
        <ele>10</ele>
        <time>2019-07-14T11:38:20Z</time>
      </trkpt>
      <trkpt lat="47.78347" lon="-3.68939">
        <ele>10</ele>
        <time>2019-07-14T11:38:21Z</time>
      </trkpt>
      <trkpt lat="47.78348" lon="-3.68931">
        <ele>10</ele>
        <time>2019-07-14T11:38:22Z</time>
      </trkpt>
      <trkpt lat="47.78349" lon="-3.68924">
        <ele>11</ele>
        <time>2019-07-14T11:38:23Z</time>
      </trkpt>
      <trkpt lat="47.78349" lon="-3.68917">
        <ele>10</ele>
        <time>2019-07-14T11:38:24Z</time>
      </trkpt>
      <trkpt lat="47.7835" lon="-3.68911">
        <ele>10</ele>
        <time>2019-07-14T11:38:25Z</time>
      </trkpt>
      <trkpt lat="47.78351" lon="-3.68906">
        <ele>10</ele>
        <time>2019-07-14T11:38:26Z</time>
      </trkpt>
      <trkpt lat="47.78353" lon="-3.68903">
        <ele>11</ele>
        <time>2019-07-14T11:38:27Z</time>
      </trkpt>
      <trkpt lat="47.78356" lon="-3.689">
        <ele>11</ele>
        <time>2019-07-14T11:38:28Z</time>
      </trkpt>
      <trkpt lat="47.78359" lon="-3.68897">
        <ele>11</ele>
        <time>2019-07-14T11:38:29Z</time>
      </trkpt>
      <trkpt lat="47.78362" lon="-3.68893">
        <ele>11</ele>
        <time>2019-07-14T11:38:30Z</time>
      </trkpt>
      <trkpt lat="47.78366" lon="-3.68889">
        <ele>11</ele>
        <time>2019-07-14T11:38:31Z</time>
      </trkpt>
      <trkpt lat="47.78369" lon="-3.68885">
        <ele>11</ele>
        <time>2019-07-14T11:38:32Z</time>
      </trkpt>
      <trkpt lat="47.78372" lon="-3.68882">
        <ele>11</ele>
        <time>2019-07-14T11:38:33Z</time>
      </trkpt>
      <trkpt lat="47.78375" lon="-3.68879">
        <ele>11</ele>
        <time>2019-07-14T11:38:34Z</time>
      </trkpt>
      <trkpt lat="47.78378" lon="-3.68877">
        <ele>11</ele>
        <time>2019-07-14T11:38:35Z</time>
      </trkpt>
      <trkpt lat="47.78382" lon="-3.68874">
        <ele>11</ele>
        <time>2019-07-14T11:38:36Z</time>
      </trkpt>
      <trkpt lat="47.78385" lon="-3.68871">
        <ele>11</ele>
        <time>2019-07-14T11:38:37Z</time>
      </trkpt>
      <trkpt lat="47.78387" lon="-3.68869">
        <ele>10</ele>
        <time>2019-07-14T11:38:38Z</time>
      </trkpt>
      <trkpt lat="47.78391" lon="-3.68866">
        <ele>10</ele>
        <time>2019-07-14T11:38:39Z</time>
      </trkpt>
      <trkpt lat="47.78395" lon="-3.68862">
        <ele>10</ele>
        <time>2019-07-14T11:38:40Z</time>
      </trkpt>
      <trkpt lat="47.78398" lon="-3.68858">
        <ele>10</ele>
        <time>2019-07-14T11:38:41Z</time>
      </trkpt>
      <trkpt lat="47.78401" lon="-3.68855">
        <ele>10</ele>
        <time>2019-07-14T11:38:42Z</time>
      </trkpt>
      <trkpt lat="47.78404" lon="-3.68852">
        <ele>10</ele>
        <time>2019-07-14T11:38:43Z</time>
      </trkpt>
      <trkpt lat="47.78406" lon="-3.68848">
        <ele>11</ele>
        <time>2019-07-14T11:38:44Z</time>
      </trkpt>
      <trkpt lat="47.78408" lon="-3.68843">
        <ele>11</ele>
        <time>2019-07-14T11:38:45Z</time>
      </trkpt>
      <trkpt lat="47.78411" lon="-3.68839">
        <ele>11</ele>
        <time>2019-07-14T11:38:46Z</time>
      </trkpt>
      <trkpt lat="47.78413" lon="-3.68834">
        <ele>11</ele>
        <time>2019-07-14T11:38:47Z</time>
      </trkpt>
      <trkpt lat="47.78416" lon="-3.68828">
        <ele>11</ele>
        <time>2019-07-14T11:38:48Z</time>
      </trkpt>
      <trkpt lat="47.7842" lon="-3.68824">
        <ele>11</ele>
        <time>2019-07-14T11:38:49Z</time>
      </trkpt>
      <trkpt lat="47.78423" lon="-3.68817">
        <ele>11</ele>
        <time>2019-07-14T11:38:50Z</time>
      </trkpt>
      <trkpt lat="47.78426" lon="-3.68811">
        <ele>11</ele>
        <time>2019-07-14T11:38:51Z</time>
      </trkpt>
      <trkpt lat="47.78429" lon="-3.68805">
        <ele>11</ele>
        <time>2019-07-14T11:38:52Z</time>
      </trkpt>
      <trkpt lat="47.78432" lon="-3.68799">
        <ele>11</ele>
        <time>2019-07-14T11:38:53Z</time>
      </trkpt>
      <trkpt lat="47.78434" lon="-3.68794">
        <ele>11</ele>
        <time>2019-07-14T11:38:54Z</time>
      </trkpt>
      <trkpt lat="47.78435" lon="-3.68789">
        <ele>11</ele>
        <time>2019-07-14T11:38:55Z</time>
      </trkpt>
      <trkpt lat="47.78436" lon="-3.68782">
        <ele>11</ele>
        <time>2019-07-14T11:38:56Z</time>
      </trkpt>
      <trkpt lat="47.78438" lon="-3.68776">
        <ele>11</ele>
        <time>2019-07-14T11:38:57Z</time>
      </trkpt>
      <trkpt lat="47.78439" lon="-3.6877">
        <ele>11</ele>
        <time>2019-07-14T11:38:58Z</time>
      </trkpt>
      <trkpt lat="47.78442" lon="-3.68765">
        <ele>11</ele>
        <time>2019-07-14T11:38:59Z</time>
      </trkpt>
      <trkpt lat="47.78444" lon="-3.68761">
        <ele>12</ele>
        <time>2019-07-14T11:39:00Z</time>
      </trkpt>
      <trkpt lat="47.78446" lon="-3.68757">
        <ele>11</ele>
        <time>2019-07-14T11:39:01Z</time>
      </trkpt>
      <trkpt lat="47.78447" lon="-3.68754">
        <ele>11</ele>
        <time>2019-07-14T11:39:02Z</time>
      </trkpt>
      <trkpt lat="47.7845" lon="-3.6875">
        <ele>11</ele>
        <time>2019-07-14T11:39:03Z</time>
      </trkpt>
      <trkpt lat="47.78453" lon="-3.68745">
        <ele>11</ele>
        <time>2019-07-14T11:39:04Z</time>
      </trkpt>
      <trkpt lat="47.78456" lon="-3.68741">
        <ele>12</ele>
        <time>2019-07-14T11:39:05Z</time>
      </trkpt>
      <trkpt lat="47.78458" lon="-3.68738">
        <ele>12</ele>
        <time>2019-07-14T11:39:06Z</time>
      </trkpt>
      <trkpt lat="47.7846" lon="-3.68736">
        <ele>12</ele>
        <time>2019-07-14T11:39:07Z</time>
      </trkpt>
      <trkpt lat="47.78463" lon="-3.68733">
        <ele>12</ele>
        <time>2019-07-14T11:39:08Z</time>
      </trkpt>
      <trkpt lat="47.78466" lon="-3.6873">
        <ele>12</ele>
        <time>2019-07-14T11:39:09Z</time>
      </trkpt>
      <trkpt lat="47.78469" lon="-3.68726">
        <ele>13</ele>
        <time>2019-07-14T11:39:10Z</time>
      </trkpt>
      <trkpt lat="47.78471" lon="-3.68722">
        <ele>13</ele>
        <time>2019-07-14T11:39:11Z</time>
      </trkpt>
      <trkpt lat="47.78474" lon="-3.68719">
        <ele>13</ele>
        <time>2019-07-14T11:39:12Z</time>
      </trkpt>
      <trkpt lat="47.78477" lon="-3.68714">
        <ele>13</ele>
        <time>2019-07-14T11:39:13Z</time>
      </trkpt>
      <trkpt lat="47.78481" lon="-3.6871">
        <ele>13</ele>
        <time>2019-07-14T11:39:14Z</time>
      </trkpt>
      <trkpt lat="47.78484" lon="-3.68705">
        <ele>13</ele>
        <time>2019-07-14T11:39:15Z</time>
      </trkpt>
      <trkpt lat="47.78487" lon="-3.687">
        <ele>13</ele>
        <time>2019-07-14T11:39:16Z</time>
      </trkpt>
      <trkpt lat="47.7849" lon="-3.68695">
        <ele>13</ele>
        <time>2019-07-14T11:39:17Z</time>
      </trkpt>
      <trkpt lat="47.78493" lon="-3.68691">
        <ele>13</ele>
        <time>2019-07-14T11:39:18Z</time>
      </trkpt>
      <trkpt lat="47.78495" lon="-3.68687">
        <ele>13</ele>
        <time>2019-07-14T11:39:19Z</time>
      </trkpt>
      <trkpt lat="47.78498" lon="-3.68683">
        <ele>13</ele>
        <time>2019-07-14T11:39:20Z</time>
      </trkpt>
      <trkpt lat="47.78501" lon="-3.68679">
        <ele>13</ele>
        <time>2019-07-14T11:39:21Z</time>
      </trkpt>
      <trkpt lat="47.78505" lon="-3.68676">
        <ele>13</ele>
        <time>2019-07-14T11:39:22Z</time>
      </trkpt>
      <trkpt lat="47.78509" lon="-3.68672">
        <ele>13</ele>
        <time>2019-07-14T11:39:23Z</time>
      </trkpt>
      <trkpt lat="47.78513" lon="-3.68667">
        <ele>13</ele>
        <time>2019-07-14T11:39:24Z</time>
      </trkpt>
      <trkpt lat="47.78516" lon="-3.68664">
        <ele>13</ele>
        <time>2019-07-14T11:39:25Z</time>
      </trkpt>
      <trkpt lat="47.7852" lon="-3.6866">
        <ele>13</ele>
        <time>2019-07-14T11:39:26Z</time>
      </trkpt>
      <trkpt lat="47.78524" lon="-3.68657">
        <ele>13</ele>
        <time>2019-07-14T11:39:27Z</time>
      </trkpt>
      <trkpt lat="47.78524" lon="-3.68657">
        <ele>13</ele>
        <time>2019-07-14T11:39:29Z</time>
      </trkpt>
      <trkpt lat="47.78524" lon="-3.68657">
        <ele>13</ele>
        <time>2019-07-14T11:39:30Z</time>
      </trkpt>
      <trkpt lat="47.78537" lon="-3.68647">
        <ele>13</ele>
        <time>2019-07-14T11:39:31Z</time>
      </trkpt>
      <trkpt lat="47.78541" lon="-3.68644">
        <ele>13</ele>
        <time>2019-07-14T11:39:32Z</time>
      </trkpt>
      <trkpt lat="47.78544" lon="-3.68642">
        <ele>13</ele>
        <time>2019-07-14T11:39:33Z</time>
      </trkpt>
      <trkpt lat="47.78548" lon="-3.68639">
        <ele>13</ele>
        <time>2019-07-14T11:39:34Z</time>
      </trkpt>
      <trkpt lat="47.78553" lon="-3.68636">
        <ele>13</ele>
        <time>2019-07-14T11:39:35Z</time>
      </trkpt>
      <trkpt lat="47.78556" lon="-3.68632">
        <ele>12</ele>
        <time>2019-07-14T11:39:36Z</time>
      </trkpt>
      <trkpt lat="47.7856" lon="-3.68629">
        <ele>13</ele>
        <time>2019-07-14T11:39:37Z</time>
      </trkpt>
      <trkpt lat="47.78562" lon="-3.68627">
        <ele>13</ele>
        <time>2019-07-14T11:39:38Z</time>
      </trkpt>
      <trkpt lat="47.78564" lon="-3.68624">
        <ele>14</ele>
        <time>2019-07-14T11:39:39Z</time>
      </trkpt>
      <trkpt lat="47.78567" lon="-3.68622">
        <ele>14</ele>
        <time>2019-07-14T11:39:40Z</time>
      </trkpt>
      <trkpt lat="47.78569" lon="-3.68621">
        <ele>15</ele>
        <time>2019-07-14T11:39:41Z</time>
      </trkpt>
      <trkpt lat="47.78572" lon="-3.68619">
        <ele>15</ele>
        <time>2019-07-14T11:39:42Z</time>
      </trkpt>
      <trkpt lat="47.78574" lon="-3.68618">
        <ele>16</ele>
        <time>2019-07-14T11:39:43Z</time>
      </trkpt>
      <trkpt lat="47.78577" lon="-3.68616">
        <ele>17</ele>
        <time>2019-07-14T11:39:44Z</time>
      </trkpt>
      <trkpt lat="47.7858" lon="-3.68615">
        <ele>17</ele>
        <time>2019-07-14T11:39:45Z</time>
      </trkpt>
      <trkpt lat="47.78583" lon="-3.68611">
        <ele>17</ele>
        <time>2019-07-14T11:39:46Z</time>
      </trkpt>
      <trkpt lat="47.78586" lon="-3.68608">
        <ele>17</ele>
        <time>2019-07-14T11:39:47Z</time>
      </trkpt>
      <trkpt lat="47.78589" lon="-3.68604">
        <ele>18</ele>
        <time>2019-07-14T11:39:48Z</time>
      </trkpt>
      <trkpt lat="47.78592" lon="-3.686">
        <ele>19</ele>
        <time>2019-07-14T11:39:49Z</time>
      </trkpt>
      <trkpt lat="47.78594" lon="-3.68599">
        <ele>19</ele>
        <time>2019-07-14T11:39:50Z</time>
      </trkpt>
      <trkpt lat="47.78598" lon="-3.68599">
        <ele>20</ele>
        <time>2019-07-14T11:39:51Z</time>
      </trkpt>
      <trkpt lat="47.78601" lon="-3.686">
        <ele>20</ele>
        <time>2019-07-14T11:39:52Z</time>
      </trkpt>
      <trkpt lat="47.78605" lon="-3.68601">
        <ele>21</ele>
        <time>2019-07-14T11:39:53Z</time>
      </trkpt>
      <trkpt lat="47.78607" lon="-3.68601">
        <ele>21</ele>
        <time>2019-07-14T11:39:54Z</time>
      </trkpt>
      <trkpt lat="47.78609" lon="-3.686">
        <ele>21</ele>
        <time>2019-07-14T11:39:55Z</time>
      </trkpt>
      <trkpt lat="47.78613" lon="-3.68599">
        <ele>21</ele>
        <time>2019-07-14T11:39:56Z</time>
      </trkpt>
      <trkpt lat="47.78616" lon="-3.68598">
        <ele>21</ele>
        <time>2019-07-14T11:39:57Z</time>
      </trkpt>
      <trkpt lat="47.78619" lon="-3.68596">
        <ele>21</ele>
        <time>2019-07-14T11:39:58Z</time>
      </trkpt>
      <trkpt lat="47.78623" lon="-3.68594">
        <ele>22</ele>
        <time>2019-07-14T11:39:59Z</time>
      </trkpt>
      <trkpt lat="47.78627" lon="-3.6859">
        <ele>21</ele>
        <time>2019-07-14T11:40:00Z</time>
      </trkpt>
      <trkpt lat="47.7863" lon="-3.68588">
        <ele>21</ele>
        <time>2019-07-14T11:40:01Z</time>
      </trkpt>
      <trkpt lat="47.78633" lon="-3.68585">
        <ele>21</ele>
        <time>2019-07-14T11:40:02Z</time>
      </trkpt>
      <trkpt lat="47.78637" lon="-3.68581">
        <ele>22</ele>
        <time>2019-07-14T11:40:03Z</time>
      </trkpt>
      <trkpt lat="47.7864" lon="-3.68579">
        <ele>22</ele>
        <time>2019-07-14T11:40:04Z</time>
      </trkpt>
      <trkpt lat="47.78643" lon="-3.68578">
        <ele>21</ele>
        <time>2019-07-14T11:40:05Z</time>
      </trkpt>
      <trkpt lat="47.78647" lon="-3.68576">
        <ele>21</ele>
        <time>2019-07-14T11:40:06Z</time>
      </trkpt>
      <trkpt lat="47.78651" lon="-3.68572">
        <ele>21</ele>
        <time>2019-07-14T11:40:07Z</time>
      </trkpt>
      <trkpt lat="47.78655" lon="-3.68569">
        <ele>21</ele>
        <time>2019-07-14T11:40:08Z</time>
      </trkpt>
      <trkpt lat="47.78659" lon="-3.68566">
        <ele>21</ele>
        <time>2019-07-14T11:40:09Z</time>
      </trkpt>
      <trkpt lat="47.78662" lon="-3.68564">
        <ele>21</ele>
        <time>2019-07-14T11:40:10Z</time>
      </trkpt>
      <trkpt lat="47.78664" lon="-3.68561">
        <ele>21</ele>
        <time>2019-07-14T11:40:11Z</time>
      </trkpt>
      <trkpt lat="47.78666" lon="-3.68557">
        <ele>21</ele>
        <time>2019-07-14T11:40:12Z</time>
      </trkpt>
      <trkpt lat="47.7867" lon="-3.68552">
        <ele>21</ele>
        <time>2019-07-14T11:40:13Z</time>
      </trkpt>
      <trkpt lat="47.78673" lon="-3.68547">
        <ele>21</ele>
        <time>2019-07-14T11:40:14Z</time>
      </trkpt>
      <trkpt lat="47.78678" lon="-3.68542">
        <ele>21</ele>
        <time>2019-07-14T11:40:15Z</time>
      </trkpt>
      <trkpt lat="47.78682" lon="-3.68536">
        <ele>21</ele>
        <time>2019-07-14T11:40:16Z</time>
      </trkpt>
      <trkpt lat="47.78686" lon="-3.68531">
        <ele>21</ele>
        <time>2019-07-14T11:40:17Z</time>
      </trkpt>
      <trkpt lat="47.7869" lon="-3.68526">
        <ele>21</ele>
        <time>2019-07-14T11:40:18Z</time>
      </trkpt>
      <trkpt lat="47.78694" lon="-3.68521">
        <ele>21</ele>
        <time>2019-07-14T11:40:19Z</time>
      </trkpt>
      <trkpt lat="47.78698" lon="-3.68516">
        <ele>21</ele>
        <time>2019-07-14T11:40:20Z</time>
      </trkpt>
      <trkpt lat="47.78701" lon="-3.68511">
        <ele>21</ele>
        <time>2019-07-14T11:40:21Z</time>
      </trkpt>
      <trkpt lat="47.78704" lon="-3.68505">
        <ele>21</ele>
        <time>2019-07-14T11:40:22Z</time>
      </trkpt>
      <trkpt lat="47.78708" lon="-3.685">
        <ele>21</ele>
        <time>2019-07-14T11:40:23Z</time>
      </trkpt>
      <trkpt lat="47.7871" lon="-3.68494">
        <ele>22</ele>
        <time>2019-07-14T11:40:24Z</time>
      </trkpt>
      <trkpt lat="47.78713" lon="-3.68487">
        <ele>21</ele>
        <time>2019-07-14T11:40:25Z</time>
      </trkpt>
      <trkpt lat="47.78716" lon="-3.6848">
        <ele>22</ele>
        <time>2019-07-14T11:40:26Z</time>
      </trkpt>
      <trkpt lat="47.78718" lon="-3.68473">
        <ele>22</ele>
        <time>2019-07-14T11:40:27Z</time>
      </trkpt>
      <trkpt lat="47.78721" lon="-3.68465">
        <ele>23</ele>
        <time>2019-07-14T11:40:28Z</time>
      </trkpt>
      <trkpt lat="47.78721" lon="-3.68457">
        <ele>23</ele>
        <time>2019-07-14T11:40:29Z</time>
      </trkpt>
      <trkpt lat="47.78723" lon="-3.68449">
        <ele>23</ele>
        <time>2019-07-14T11:40:30Z</time>
      </trkpt>
      <trkpt lat="47.78725" lon="-3.68441">
        <ele>23</ele>
        <time>2019-07-14T11:40:31Z</time>
      </trkpt>
      <trkpt lat="47.78725" lon="-3.68434">
        <ele>23</ele>
        <time>2019-07-14T11:40:32Z</time>
      </trkpt>
      <trkpt lat="47.78726" lon="-3.68427">
        <ele>23</ele>
        <time>2019-07-14T11:40:33Z</time>
      </trkpt>
      <trkpt lat="47.78728" lon="-3.68421">
        <ele>23</ele>
        <time>2019-07-14T11:40:34Z</time>
      </trkpt>
      <trkpt lat="47.78729" lon="-3.68415">
        <ele>23</ele>
        <time>2019-07-14T11:40:35Z</time>
      </trkpt>
      <trkpt lat="47.7873" lon="-3.68409">
        <ele>24</ele>
        <time>2019-07-14T11:40:36Z</time>
      </trkpt>
      <trkpt lat="47.7873" lon="-3.68402">
        <ele>24</ele>
        <time>2019-07-14T11:40:37Z</time>
      </trkpt>
      <trkpt lat="47.78731" lon="-3.68395">
        <ele>24</ele>
        <time>2019-07-14T11:40:38Z</time>
      </trkpt>
      <trkpt lat="47.78731" lon="-3.68389">
        <ele>25</ele>
        <time>2019-07-14T11:40:39Z</time>
      </trkpt>
      <trkpt lat="47.78731" lon="-3.68382">
        <ele>25</ele>
        <time>2019-07-14T11:40:40Z</time>
      </trkpt>
      <trkpt lat="47.78732" lon="-3.68375">
        <ele>25</ele>
        <time>2019-07-14T11:40:41Z</time>
      </trkpt>
      <trkpt lat="47.78733" lon="-3.68368">
        <ele>25</ele>
        <time>2019-07-14T11:40:42Z</time>
      </trkpt>
      <trkpt lat="47.78734" lon="-3.6836">
        <ele>24</ele>
        <time>2019-07-14T11:40:43Z</time>
      </trkpt>
      <trkpt lat="47.78734" lon="-3.68353">
        <ele>24</ele>
        <time>2019-07-14T11:40:44Z</time>
      </trkpt>
      <trkpt lat="47.78736" lon="-3.68346">
        <ele>24</ele>
        <time>2019-07-14T11:40:45Z</time>
      </trkpt>
      <trkpt lat="47.78736" lon="-3.68339">
        <ele>24</ele>
        <time>2019-07-14T11:40:46Z</time>
      </trkpt>
      <trkpt lat="47.78737" lon="-3.68332">
        <ele>23</ele>
        <time>2019-07-14T11:40:47Z</time>
      </trkpt>
      <trkpt lat="47.78738" lon="-3.68325">
        <ele>24</ele>
        <time>2019-07-14T11:40:48Z</time>
      </trkpt>
      <trkpt lat="47.78739" lon="-3.6832">
        <ele>24</ele>
        <time>2019-07-14T11:40:49Z</time>
      </trkpt>
      <trkpt lat="47.78741" lon="-3.68317">
        <ele>24</ele>
        <time>2019-07-14T11:40:50Z</time>
      </trkpt>
      <trkpt lat="47.78744" lon="-3.68316">
        <ele>24</ele>
        <time>2019-07-14T11:40:51Z</time>
      </trkpt>
      <trkpt lat="47.78747" lon="-3.68314">
        <ele>24</ele>
        <time>2019-07-14T11:40:52Z</time>
      </trkpt>
      <trkpt lat="47.78751" lon="-3.68313">
        <ele>24</ele>
        <time>2019-07-14T11:40:53Z</time>
      </trkpt>
      <trkpt lat="47.78754" lon="-3.68313">
        <ele>24</ele>
        <time>2019-07-14T11:40:54Z</time>
      </trkpt>
      <trkpt lat="47.78758" lon="-3.68314">
        <ele>24</ele>
        <time>2019-07-14T11:40:55Z</time>
      </trkpt>
      <trkpt lat="47.78763" lon="-3.68316">
        <ele>24</ele>
        <time>2019-07-14T11:40:56Z</time>
      </trkpt>
      <trkpt lat="47.78768" lon="-3.68317">
        <ele>24</ele>
        <time>2019-07-14T11:40:57Z</time>
      </trkpt>
      <trkpt lat="47.78773" lon="-3.68318">
        <ele>24</ele>
        <time>2019-07-14T11:40:58Z</time>
      </trkpt>
      <trkpt lat="47.78777" lon="-3.68317">
        <ele>24</ele>
        <time>2019-07-14T11:40:59Z</time>
      </trkpt>
      <trkpt lat="47.78782" lon="-3.68316">
        <ele>24</ele>
        <time>2019-07-14T11:41:00Z</time>
      </trkpt>
      <trkpt lat="47.78787" lon="-3.68314">
        <ele>24</ele>
        <time>2019-07-14T11:41:01Z</time>
      </trkpt>
      <trkpt lat="47.78792" lon="-3.68313">
        <ele>24</ele>
        <time>2019-07-14T11:41:02Z</time>
      </trkpt>
      <trkpt lat="47.78798" lon="-3.68312">
        <ele>24</ele>
        <time>2019-07-14T11:41:03Z</time>
      </trkpt>
      <trkpt lat="47.78804" lon="-3.68313">
        <ele>24</ele>
        <time>2019-07-14T11:41:04Z</time>
      </trkpt>
      <trkpt lat="47.7881" lon="-3.68313">
        <ele>24</ele>
        <time>2019-07-14T11:41:05Z</time>
      </trkpt>
      <trkpt lat="47.78816" lon="-3.68315">
        <ele>24</ele>
        <time>2019-07-14T11:41:06Z</time>
      </trkpt>
      <trkpt lat="47.78822" lon="-3.68316">
        <ele>24</ele>
        <time>2019-07-14T11:41:07Z</time>
      </trkpt>
      <trkpt lat="47.78822" lon="-3.68316">
        <ele>24</ele>
        <time>2019-07-14T11:41:12Z</time>
      </trkpt>
      <trkpt lat="47.78822" lon="-3.68316">
        <ele>24</ele>
        <time>2019-07-14T11:41:13Z</time>
      </trkpt>
      <trkpt lat="47.78862" lon="-3.68322">
        <ele>24</ele>
        <time>2019-07-14T11:41:14Z</time>
      </trkpt>
      <trkpt lat="47.78866" lon="-3.68323">
        <ele>24</ele>
        <time>2019-07-14T11:41:15Z</time>
      </trkpt>
      <trkpt lat="47.7887" lon="-3.68323">
        <ele>24</ele>
        <time>2019-07-14T11:41:16Z</time>
      </trkpt>
      <trkpt lat="47.78875" lon="-3.68322">
        <ele>25</ele>
        <time>2019-07-14T11:41:17Z</time>
      </trkpt>
      <trkpt lat="47.78878" lon="-3.68322">
        <ele>25</ele>
        <time>2019-07-14T11:41:18Z</time>
      </trkpt>
      <trkpt lat="47.78883" lon="-3.68322">
        <ele>25</ele>
        <time>2019-07-14T11:41:19Z</time>
      </trkpt>
      <trkpt lat="47.78888" lon="-3.68322">
        <ele>25</ele>
        <time>2019-07-14T11:41:20Z</time>
      </trkpt>
      <trkpt lat="47.78892" lon="-3.68322">
        <ele>25</ele>
        <time>2019-07-14T11:41:21Z</time>
      </trkpt>
      <trkpt lat="47.78897" lon="-3.68322">
        <ele>25</ele>
        <time>2019-07-14T11:41:22Z</time>
      </trkpt>
      <trkpt lat="47.78902" lon="-3.68321">
        <ele>25</ele>
        <time>2019-07-14T11:41:23Z</time>
      </trkpt>
      <trkpt lat="47.78907" lon="-3.68321">
        <ele>26</ele>
        <time>2019-07-14T11:41:24Z</time>
      </trkpt>
      <trkpt lat="47.78911" lon="-3.6832">
        <ele>26</ele>
        <time>2019-07-14T11:41:25Z</time>
      </trkpt>
      <trkpt lat="47.78916" lon="-3.68321">
        <ele>27</ele>
        <time>2019-07-14T11:41:26Z</time>
      </trkpt>
      <trkpt lat="47.78921" lon="-3.68321">
        <ele>27</ele>
        <time>2019-07-14T11:41:27Z</time>
      </trkpt>
      <trkpt lat="47.78926" lon="-3.68319">
        <ele>27</ele>
        <time>2019-07-14T11:41:28Z</time>
      </trkpt>
      <trkpt lat="47.78931" lon="-3.68317">
        <ele>26</ele>
        <time>2019-07-14T11:41:29Z</time>
      </trkpt>
      <trkpt lat="47.78935" lon="-3.68314">
        <ele>25</ele>
        <time>2019-07-14T11:41:30Z</time>
      </trkpt>
      <trkpt lat="47.78938" lon="-3.68311">
        <ele>25</ele>
        <time>2019-07-14T11:41:31Z</time>
      </trkpt>
      <trkpt lat="47.78943" lon="-3.68307">
        <ele>25</ele>
        <time>2019-07-14T11:41:32Z</time>
      </trkpt>
      <trkpt lat="47.78947" lon="-3.68303">
        <ele>26</ele>
        <time>2019-07-14T11:41:33Z</time>
      </trkpt>
      <trkpt lat="47.78952" lon="-3.68299">
        <ele>26</ele>
        <time>2019-07-14T11:41:34Z</time>
      </trkpt>
      <trkpt lat="47.78956" lon="-3.68295">
        <ele>26</ele>
        <time>2019-07-14T11:41:35Z</time>
      </trkpt>
      <trkpt lat="47.7896" lon="-3.68291">
        <ele>27</ele>
        <time>2019-07-14T11:41:36Z</time>
      </trkpt>
      <trkpt lat="47.78963" lon="-3.68286">
        <ele>27</ele>
        <time>2019-07-14T11:41:37Z</time>
      </trkpt>
      <trkpt lat="47.78967" lon="-3.68281">
        <ele>27</ele>
        <time>2019-07-14T11:41:38Z</time>
      </trkpt>
      <trkpt lat="47.78971" lon="-3.68277">
        <ele>27</ele>
        <time>2019-07-14T11:41:39Z</time>
      </trkpt>
      <trkpt lat="47.78976" lon="-3.68272">
        <ele>28</ele>
        <time>2019-07-14T11:41:40Z</time>
      </trkpt>
      <trkpt lat="47.7898" lon="-3.68268">
        <ele>27</ele>
        <time>2019-07-14T11:41:41Z</time>
      </trkpt>
      <trkpt lat="47.78983" lon="-3.68263">
        <ele>27</ele>
        <time>2019-07-14T11:41:42Z</time>
      </trkpt>
      <trkpt lat="47.78987" lon="-3.68258">
        <ele>26</ele>
        <time>2019-07-14T11:41:43Z</time>
      </trkpt>
      <trkpt lat="47.78992" lon="-3.68253">
        <ele>26</ele>
        <time>2019-07-14T11:41:44Z</time>
      </trkpt>
      <trkpt lat="47.78996" lon="-3.68249">
        <ele>25</ele>
        <time>2019-07-14T11:41:45Z</time>
      </trkpt>
      <trkpt lat="47.79" lon="-3.68244">
        <ele>25</ele>
        <time>2019-07-14T11:41:46Z</time>
      </trkpt>
      <trkpt lat="47.79003" lon="-3.68238">
        <ele>25</ele>
        <time>2019-07-14T11:41:47Z</time>
      </trkpt>
      <trkpt lat="47.79007" lon="-3.68233">
        <ele>25</ele>
        <time>2019-07-14T11:41:48Z</time>
      </trkpt>
      <trkpt lat="47.79012" lon="-3.68227">
        <ele>25</ele>
        <time>2019-07-14T11:41:49Z</time>
      </trkpt>
      <trkpt lat="47.79015" lon="-3.68221">
        <ele>25</ele>
        <time>2019-07-14T11:41:50Z</time>
      </trkpt>
      <trkpt lat="47.79019" lon="-3.68215">
        <ele>25</ele>
        <time>2019-07-14T11:41:51Z</time>
      </trkpt>
      <trkpt lat="47.79022" lon="-3.68209">
        <ele>25</ele>
        <time>2019-07-14T11:41:52Z</time>
      </trkpt>
      <trkpt lat="47.79026" lon="-3.68204">
        <ele>25</ele>
        <time>2019-07-14T11:41:53Z</time>
      </trkpt>
      <trkpt lat="47.79029" lon="-3.68199">
        <ele>25</ele>
        <time>2019-07-14T11:41:54Z</time>
      </trkpt>
      <trkpt lat="47.79033" lon="-3.68194">
        <ele>25</ele>
        <time>2019-07-14T11:41:55Z</time>
      </trkpt>
      <trkpt lat="47.79037" lon="-3.68189">
        <ele>25</ele>
        <time>2019-07-14T11:41:56Z</time>
      </trkpt>
      <trkpt lat="47.79041" lon="-3.68182">
        <ele>26</ele>
        <time>2019-07-14T11:41:57Z</time>
      </trkpt>
      <trkpt lat="47.79045" lon="-3.68176">
        <ele>26</ele>
        <time>2019-07-14T11:41:58Z</time>
      </trkpt>
      <trkpt lat="47.79048" lon="-3.6817">
        <ele>26</ele>
        <time>2019-07-14T11:41:59Z</time>
      </trkpt>
      <trkpt lat="47.79051" lon="-3.68164">
        <ele>26</ele>
        <time>2019-07-14T11:42:00Z</time>
      </trkpt>
      <trkpt lat="47.79054" lon="-3.68158">
        <ele>26</ele>
        <time>2019-07-14T11:42:01Z</time>
      </trkpt>
      <trkpt lat="47.79057" lon="-3.68152">
        <ele>26</ele>
        <time>2019-07-14T11:42:02Z</time>
      </trkpt>
      <trkpt lat="47.7906" lon="-3.68146">
        <ele>26</ele>
        <time>2019-07-14T11:42:03Z</time>
      </trkpt>
      <trkpt lat="47.79064" lon="-3.68139">
        <ele>26</ele>
        <time>2019-07-14T11:42:04Z</time>
      </trkpt>
      <trkpt lat="47.79068" lon="-3.68133">
        <ele>26</ele>
        <time>2019-07-14T11:42:05Z</time>
      </trkpt>
      <trkpt lat="47.79071" lon="-3.68127">
        <ele>26</ele>
        <time>2019-07-14T11:42:06Z</time>
      </trkpt>
      <trkpt lat="47.79074" lon="-3.68121">
        <ele>26</ele>
        <time>2019-07-14T11:42:07Z</time>
      </trkpt>
      <trkpt lat="47.79078" lon="-3.68114">
        <ele>26</ele>
        <time>2019-07-14T11:42:08Z</time>
      </trkpt>
      <trkpt lat="47.79081" lon="-3.68108">
        <ele>25</ele>
        <time>2019-07-14T11:42:09Z</time>
      </trkpt>
      <trkpt lat="47.79084" lon="-3.68102">
        <ele>25</ele>
        <time>2019-07-14T11:42:10Z</time>
      </trkpt>
      <trkpt lat="47.79088" lon="-3.68096">
        <ele>25</ele>
        <time>2019-07-14T11:42:11Z</time>
      </trkpt>
      <trkpt lat="47.79091" lon="-3.6809">
        <ele>25</ele>
        <time>2019-07-14T11:42:12Z</time>
      </trkpt>
      <trkpt lat="47.79094" lon="-3.68084">
        <ele>26</ele>
        <time>2019-07-14T11:42:13Z</time>
      </trkpt>
      <trkpt lat="47.79097" lon="-3.68079">
        <ele>26</ele>
        <time>2019-07-14T11:42:14Z</time>
      </trkpt>
      <trkpt lat="47.791" lon="-3.68074">
        <ele>26</ele>
        <time>2019-07-14T11:42:15Z</time>
      </trkpt>
      <trkpt lat="47.79102" lon="-3.68068">
        <ele>26</ele>
        <time>2019-07-14T11:42:16Z</time>
      </trkpt>
      <trkpt lat="47.79103" lon="-3.68062">
        <ele>26</ele>
        <time>2019-07-14T11:42:17Z</time>
      </trkpt>
      <trkpt lat="47.79103" lon="-3.68055">
        <ele>26</ele>
        <time>2019-07-14T11:42:18Z</time>
      </trkpt>
      <trkpt lat="47.79102" lon="-3.68049">
        <ele>26</ele>
        <time>2019-07-14T11:42:19Z</time>
      </trkpt>
      <trkpt lat="47.79101" lon="-3.68043">
        <ele>26</ele>
        <time>2019-07-14T11:42:20Z</time>
      </trkpt>
      <trkpt lat="47.79099" lon="-3.68037">
        <ele>26</ele>
        <time>2019-07-14T11:42:21Z</time>
      </trkpt>
      <trkpt lat="47.79097" lon="-3.6803">
        <ele>27</ele>
        <time>2019-07-14T11:42:22Z</time>
      </trkpt>
      <trkpt lat="47.79094" lon="-3.68024">
        <ele>27</ele>
        <time>2019-07-14T11:42:23Z</time>
      </trkpt>
      <trkpt lat="47.79091" lon="-3.68018">
        <ele>27</ele>
        <time>2019-07-14T11:42:24Z</time>
      </trkpt>
      <trkpt lat="47.79088" lon="-3.68012">
        <ele>27</ele>
        <time>2019-07-14T11:42:25Z</time>
      </trkpt>
      <trkpt lat="47.79086" lon="-3.68005">
        <ele>27</ele>
        <time>2019-07-14T11:42:26Z</time>
      </trkpt>
      <trkpt lat="47.79084" lon="-3.67998">
        <ele>27</ele>
        <time>2019-07-14T11:42:27Z</time>
      </trkpt>
      <trkpt lat="47.79082" lon="-3.67991">
        <ele>27</ele>
        <time>2019-07-14T11:42:28Z</time>
      </trkpt>
      <trkpt lat="47.7908" lon="-3.67985">
        <ele>27</ele>
        <time>2019-07-14T11:42:29Z</time>
      </trkpt>
      <trkpt lat="47.79078" lon="-3.67977">
        <ele>27</ele>
        <time>2019-07-14T11:42:30Z</time>
      </trkpt>
      <trkpt lat="47.79076" lon="-3.6797">
        <ele>27</ele>
        <time>2019-07-14T11:42:31Z</time>
      </trkpt>
      <trkpt lat="47.79073" lon="-3.67963">
        <ele>27</ele>
        <time>2019-07-14T11:42:32Z</time>
      </trkpt>
      <trkpt lat="47.79071" lon="-3.67955">
        <ele>28</ele>
        <time>2019-07-14T11:42:33Z</time>
      </trkpt>
      <trkpt lat="47.79069" lon="-3.67947">
        <ele>28</ele>
        <time>2019-07-14T11:42:34Z</time>
      </trkpt>
      <trkpt lat="47.79066" lon="-3.67939">
        <ele>28</ele>
        <time>2019-07-14T11:42:35Z</time>
      </trkpt>
      <trkpt lat="47.79064" lon="-3.67932">
        <ele>28</ele>
        <time>2019-07-14T11:42:36Z</time>
      </trkpt>
      <trkpt lat="47.79062" lon="-3.67924">
        <ele>29</ele>
        <time>2019-07-14T11:42:37Z</time>
      </trkpt>
      <trkpt lat="47.7906" lon="-3.67916">
        <ele>29</ele>
        <time>2019-07-14T11:42:38Z</time>
      </trkpt>
      <trkpt lat="47.79058" lon="-3.67908">
        <ele>29</ele>
        <time>2019-07-14T11:42:39Z</time>
      </trkpt>
      <trkpt lat="47.79055" lon="-3.67899">
        <ele>29</ele>
        <time>2019-07-14T11:42:40Z</time>
      </trkpt>
      <trkpt lat="47.79054" lon="-3.6789">
        <ele>29</ele>
        <time>2019-07-14T11:42:41Z</time>
      </trkpt>
      <trkpt lat="47.79052" lon="-3.67882">
        <ele>30</ele>
        <time>2019-07-14T11:42:42Z</time>
      </trkpt>
      <trkpt lat="47.79051" lon="-3.67874">
        <ele>30</ele>
        <time>2019-07-14T11:42:43Z</time>
      </trkpt>
      <trkpt lat="47.7905" lon="-3.67865">
        <ele>30</ele>
        <time>2019-07-14T11:42:44Z</time>
      </trkpt>
      <trkpt lat="47.79049" lon="-3.67856">
        <ele>30</ele>
        <time>2019-07-14T11:42:45Z</time>
      </trkpt>
      <trkpt lat="47.79048" lon="-3.67847">
        <ele>30</ele>
        <time>2019-07-14T11:42:46Z</time>
      </trkpt>
      <trkpt lat="47.79047" lon="-3.67838">
        <ele>30</ele>
        <time>2019-07-14T11:42:47Z</time>
      </trkpt>
      <trkpt lat="47.79045" lon="-3.67829">
        <ele>30</ele>
        <time>2019-07-14T11:42:48Z</time>
      </trkpt>
      <trkpt lat="47.79044" lon="-3.6782">
        <ele>31</ele>
        <time>2019-07-14T11:42:49Z</time>
      </trkpt>
      <trkpt lat="47.79043" lon="-3.67811">
        <ele>31</ele>
        <time>2019-07-14T11:42:50Z</time>
      </trkpt>
      <trkpt lat="47.79041" lon="-3.67802">
        <ele>31</ele>
        <time>2019-07-14T11:42:51Z</time>
      </trkpt>
      <trkpt lat="47.79039" lon="-3.67794">
        <ele>31</ele>
        <time>2019-07-14T11:42:52Z</time>
      </trkpt>
      <trkpt lat="47.79038" lon="-3.67786">
        <ele>31</ele>
        <time>2019-07-14T11:42:53Z</time>
      </trkpt>
      <trkpt lat="47.79038" lon="-3.67778">
        <ele>31</ele>
        <time>2019-07-14T11:42:54Z</time>
      </trkpt>
      <trkpt lat="47.79037" lon="-3.67771">
        <ele>31</ele>
        <time>2019-07-14T11:42:55Z</time>
      </trkpt>
      <trkpt lat="47.79036" lon="-3.67763">
        <ele>30</ele>
        <time>2019-07-14T11:42:56Z</time>
      </trkpt>
      <trkpt lat="47.79035" lon="-3.67755">
        <ele>31</ele>
        <time>2019-07-14T11:42:57Z</time>
      </trkpt>
      <trkpt lat="47.79034" lon="-3.67749">
        <ele>31</ele>
        <time>2019-07-14T11:42:58Z</time>
      </trkpt>
      <trkpt lat="47.79033" lon="-3.67741">
        <ele>31</ele>
        <time>2019-07-14T11:42:59Z</time>
      </trkpt>
      <trkpt lat="47.79033" lon="-3.67731">
        <ele>31</ele>
        <time>2019-07-14T11:43:00Z</time>
      </trkpt>
      <trkpt lat="47.79031" lon="-3.67722">
        <ele>30</ele>
        <time>2019-07-14T11:43:01Z</time>
      </trkpt>
      <trkpt lat="47.79029" lon="-3.67713">
        <ele>30</ele>
        <time>2019-07-14T11:43:02Z</time>
      </trkpt>
      <trkpt lat="47.79027" lon="-3.67704">
        <ele>30</ele>
        <time>2019-07-14T11:43:03Z</time>
      </trkpt>
      <trkpt lat="47.79024" lon="-3.67695">
        <ele>30</ele>
        <time>2019-07-14T11:43:04Z</time>
      </trkpt>
      <trkpt lat="47.79023" lon="-3.67687">
        <ele>30</ele>
        <time>2019-07-14T11:43:05Z</time>
      </trkpt>
      <trkpt lat="47.79022" lon="-3.6768">
        <ele>30</ele>
        <time>2019-07-14T11:43:06Z</time>
      </trkpt>
      <trkpt lat="47.79022" lon="-3.67672">
        <ele>30</ele>
        <time>2019-07-14T11:43:07Z</time>
      </trkpt>
      <trkpt lat="47.79022" lon="-3.67663">
        <ele>30</ele>
        <time>2019-07-14T11:43:08Z</time>
      </trkpt>
      <trkpt lat="47.79023" lon="-3.67654">
        <ele>30</ele>
        <time>2019-07-14T11:43:09Z</time>
      </trkpt>
      <trkpt lat="47.79023" lon="-3.67646">
        <ele>30</ele>
        <time>2019-07-14T11:43:10Z</time>
      </trkpt>
      <trkpt lat="47.79023" lon="-3.67638">
        <ele>30</ele>
        <time>2019-07-14T11:43:11Z</time>
      </trkpt>
      <trkpt lat="47.79023" lon="-3.67629">
        <ele>30</ele>
        <time>2019-07-14T11:43:12Z</time>
      </trkpt>
      <trkpt lat="47.79023" lon="-3.6762">
        <ele>30</ele>
        <time>2019-07-14T11:43:13Z</time>
      </trkpt>
      <trkpt lat="47.79023" lon="-3.67612">
        <ele>30</ele>
        <time>2019-07-14T11:43:14Z</time>
      </trkpt>
      <trkpt lat="47.79023" lon="-3.67604">
        <ele>30</ele>
        <time>2019-07-14T11:43:15Z</time>
      </trkpt>
      <trkpt lat="47.79023" lon="-3.67597">
        <ele>29</ele>
        <time>2019-07-14T11:43:16Z</time>
      </trkpt>
      <trkpt lat="47.79021" lon="-3.67591">
        <ele>29</ele>
        <time>2019-07-14T11:43:17Z</time>
      </trkpt>
      <trkpt lat="47.7902" lon="-3.67585">
        <ele>29</ele>
        <time>2019-07-14T11:43:18Z</time>
      </trkpt>
      <trkpt lat="47.79016" lon="-3.6758">
        <ele>29</ele>
        <time>2019-07-14T11:43:19Z</time>
      </trkpt>
      <trkpt lat="47.79013" lon="-3.67575">
        <ele>29</ele>
        <time>2019-07-14T11:43:20Z</time>
      </trkpt>
      <trkpt lat="47.79009" lon="-3.67571">
        <ele>29</ele>
        <time>2019-07-14T11:43:21Z</time>
      </trkpt>
      <trkpt lat="47.79007" lon="-3.67568">
        <ele>29</ele>
        <time>2019-07-14T11:43:22Z</time>
      </trkpt>
      <trkpt lat="47.79007" lon="-3.67566">
        <ele>29</ele>
        <time>2019-07-14T11:43:23Z</time>
      </trkpt>
      <trkpt lat="47.79007" lon="-3.67563">
        <ele>29</ele>
        <time>2019-07-14T11:43:24Z</time>
      </trkpt>
      <trkpt lat="47.79007" lon="-3.67562">
        <ele>30</ele>
        <time>2019-07-14T11:43:25Z</time>
      </trkpt>
      <trkpt lat="47.79009" lon="-3.67561">
        <ele>30</ele>
        <time>2019-07-14T11:43:26Z</time>
      </trkpt>
      <trkpt lat="47.7901" lon="-3.67559">
        <ele>30</ele>
        <time>2019-07-14T11:43:27Z</time>
      </trkpt>
      <trkpt lat="47.7901" lon="-3.67559">
        <ele>30</ele>
        <time>2019-07-14T11:43:28Z</time>
      </trkpt>
      <trkpt lat="47.79011" lon="-3.67559">
        <ele>30</ele>
        <time>2019-07-14T11:43:29Z</time>
      </trkpt>
      <trkpt lat="47.79009" lon="-3.67558">
        <ele>30</ele>
        <time>2019-07-14T11:43:32Z</time>
      </trkpt>
      <trkpt lat="47.79013" lon="-3.67558">
        <ele>31</ele>
        <time>2019-07-14T11:43:33Z</time>
      </trkpt>
      <trkpt lat="47.7901" lon="-3.67557">
        <ele>32</ele>
        <time>2019-07-14T11:43:34Z</time>
      </trkpt>
      <trkpt lat="47.79009" lon="-3.67556">
        <ele>32</ele>
        <time>2019-07-14T11:43:35Z</time>
      </trkpt>
      <trkpt lat="47.79009" lon="-3.67556">
        <ele>32</ele>
        <time>2019-07-14T11:43:36Z</time>
      </trkpt>
      <trkpt lat="47.7901" lon="-3.67554">
        <ele>33</ele>
        <time>2019-07-14T11:43:37Z</time>
      </trkpt>
      <trkpt lat="47.79012" lon="-3.67551">
        <ele>34</ele>
        <time>2019-07-14T11:43:38Z</time>
      </trkpt>
      <trkpt lat="47.79013" lon="-3.67549">
        <ele>34</ele>
        <time>2019-07-14T11:43:39Z</time>
      </trkpt>
      <trkpt lat="47.79014" lon="-3.67546">
        <ele>34</ele>
        <time>2019-07-14T11:43:40Z</time>
      </trkpt>
      <trkpt lat="47.79015" lon="-3.67543">
        <ele>34</ele>
        <time>2019-07-14T11:43:41Z</time>
      </trkpt>
      <trkpt lat="47.79018" lon="-3.67539">
        <ele>34</ele>
        <time>2019-07-14T11:43:42Z</time>
      </trkpt>
      <trkpt lat="47.7902" lon="-3.67535">
        <ele>35</ele>
        <time>2019-07-14T11:43:43Z</time>
      </trkpt>
      <trkpt lat="47.7902" lon="-3.67529">
        <ele>36</ele>
        <time>2019-07-14T11:43:44Z</time>
      </trkpt>
      <trkpt lat="47.79023" lon="-3.67524">
        <ele>37</ele>
        <time>2019-07-14T11:43:45Z</time>
      </trkpt>
      <trkpt lat="47.79024" lon="-3.67519">
        <ele>39</ele>
        <time>2019-07-14T11:43:46Z</time>
      </trkpt>
      <trkpt lat="47.79026" lon="-3.67513">
        <ele>39</ele>
        <time>2019-07-14T11:43:47Z</time>
      </trkpt>
      <trkpt lat="47.79026" lon="-3.67513">
        <ele>40</ele>
        <time>2019-07-14T11:43:49Z</time>
      </trkpt>
      <trkpt lat="47.79026" lon="-3.67513">
        <ele>42</ele>
        <time>2019-07-14T11:43:50Z</time>
      </trkpt>
      <trkpt lat="47.79036" lon="-3.67484">
        <ele>41</ele>
        <time>2019-07-14T11:43:51Z</time>
      </trkpt>
      <trkpt lat="47.79037" lon="-3.67476">
        <ele>41</ele>
        <time>2019-07-14T11:43:52Z</time>
      </trkpt>
      <trkpt lat="47.79039" lon="-3.67468">
        <ele>40</ele>
        <time>2019-07-14T11:43:53Z</time>
      </trkpt>
      <trkpt lat="47.7904" lon="-3.67461">
        <ele>40</ele>
        <time>2019-07-14T11:43:54Z</time>
      </trkpt>
      <trkpt lat="47.7904" lon="-3.67453">
        <ele>39</ele>
        <time>2019-07-14T11:43:55Z</time>
      </trkpt>
      <trkpt lat="47.79042" lon="-3.67446">
        <ele>41</ele>
        <time>2019-07-14T11:43:56Z</time>
      </trkpt>
      <trkpt lat="47.79044" lon="-3.6744">
        <ele>42</ele>
        <time>2019-07-14T11:43:57Z</time>
      </trkpt>
      <trkpt lat="47.79045" lon="-3.67434">
        <ele>42</ele>
        <time>2019-07-14T11:43:58Z</time>
      </trkpt>
      <trkpt lat="47.79046" lon="-3.67427">
        <ele>42</ele>
        <time>2019-07-14T11:43:59Z</time>
      </trkpt>
      <trkpt lat="47.79047" lon="-3.67422">
        <ele>41</ele>
        <time>2019-07-14T11:44:00Z</time>
      </trkpt>
      <trkpt lat="47.7905" lon="-3.67417">
        <ele>41</ele>
        <time>2019-07-14T11:44:01Z</time>
      </trkpt>
      <trkpt lat="47.79051" lon="-3.67412">
        <ele>40</ele>
        <time>2019-07-14T11:44:02Z</time>
      </trkpt>
      <trkpt lat="47.79052" lon="-3.67407">
        <ele>40</ele>
        <time>2019-07-14T11:44:03Z</time>
      </trkpt>
      <trkpt lat="47.79053" lon="-3.67403">
        <ele>40</ele>
        <time>2019-07-14T11:44:04Z</time>
      </trkpt>
      <trkpt lat="47.79054" lon="-3.674">
        <ele>39</ele>
        <time>2019-07-14T11:44:05Z</time>
      </trkpt>
      <trkpt lat="47.79055" lon="-3.67399">
        <ele>39</ele>
        <time>2019-07-14T11:44:06Z</time>
      </trkpt>
      <trkpt lat="47.79056" lon="-3.67397">
        <ele>39</ele>
        <time>2019-07-14T11:44:07Z</time>
      </trkpt>
      <trkpt lat="47.79058" lon="-3.67396">
        <ele>38</ele>
        <time>2019-07-14T11:44:08Z</time>
      </trkpt>
      <trkpt lat="47.7906" lon="-3.67395">
        <ele>39</ele>
        <time>2019-07-14T11:44:09Z</time>
      </trkpt>
      <trkpt lat="47.79062" lon="-3.67394">
        <ele>39</ele>
        <time>2019-07-14T11:44:10Z</time>
      </trkpt>
      <trkpt lat="47.79065" lon="-3.67393">
        <ele>39</ele>
        <time>2019-07-14T11:44:11Z</time>
      </trkpt>
      <trkpt lat="47.79068" lon="-3.67392">
        <ele>39</ele>
        <time>2019-07-14T11:44:12Z</time>
      </trkpt>
      <trkpt lat="47.79071" lon="-3.67392">
        <ele>39</ele>
        <time>2019-07-14T11:44:13Z</time>
      </trkpt>
      <trkpt lat="47.79075" lon="-3.67391">
        <ele>40</ele>
        <time>2019-07-14T11:44:14Z</time>
      </trkpt>
      <trkpt lat="47.79079" lon="-3.67391">
        <ele>41</ele>
        <time>2019-07-14T11:44:15Z</time>
      </trkpt>
      <trkpt lat="47.79084" lon="-3.67391">
        <ele>43</ele>
        <time>2019-07-14T11:44:16Z</time>
      </trkpt>
      <trkpt lat="47.79088" lon="-3.67391">
        <ele>43</ele>
        <time>2019-07-14T11:44:17Z</time>
      </trkpt>
      <trkpt lat="47.79092" lon="-3.67392">
        <ele>42</ele>
        <time>2019-07-14T11:44:18Z</time>
      </trkpt>
      <trkpt lat="47.79097" lon="-3.67393">
        <ele>42</ele>
        <time>2019-07-14T11:44:19Z</time>
      </trkpt>
      <trkpt lat="47.79101" lon="-3.67394">
        <ele>40</ele>
        <time>2019-07-14T11:44:20Z</time>
      </trkpt>
      <trkpt lat="47.79107" lon="-3.67394">
        <ele>40</ele>
        <time>2019-07-14T11:44:21Z</time>
      </trkpt>
      <trkpt lat="47.79112" lon="-3.67394">
        <ele>40</ele>
        <time>2019-07-14T11:44:22Z</time>
      </trkpt>
      <trkpt lat="47.79116" lon="-3.67394">
        <ele>40</ele>
        <time>2019-07-14T11:44:23Z</time>
      </trkpt>
      <trkpt lat="47.79119" lon="-3.67395">
        <ele>39</ele>
        <time>2019-07-14T11:44:24Z</time>
      </trkpt>
      <trkpt lat="47.79122" lon="-3.67397">
        <ele>38</ele>
        <time>2019-07-14T11:44:25Z</time>
      </trkpt>
      <trkpt lat="47.79127" lon="-3.67398">
        <ele>38</ele>
        <time>2019-07-14T11:44:26Z</time>
      </trkpt>
      <trkpt lat="47.79131" lon="-3.67399">
        <ele>38</ele>
        <time>2019-07-14T11:44:27Z</time>
      </trkpt>
      <trkpt lat="47.79135" lon="-3.674">
        <ele>38</ele>
        <time>2019-07-14T11:44:28Z</time>
      </trkpt>
      <trkpt lat="47.7914" lon="-3.67399">
        <ele>38</ele>
        <time>2019-07-14T11:44:29Z</time>
      </trkpt>
      <trkpt lat="47.79144" lon="-3.67399">
        <ele>38</ele>
        <time>2019-07-14T11:44:30Z</time>
      </trkpt>
      <trkpt lat="47.79149" lon="-3.67398">
        <ele>38</ele>
        <time>2019-07-14T11:44:31Z</time>
      </trkpt>
      <trkpt lat="47.79153" lon="-3.67399">
        <ele>37</ele>
        <time>2019-07-14T11:44:32Z</time>
      </trkpt>
      <trkpt lat="47.79157" lon="-3.674">
        <ele>37</ele>
        <time>2019-07-14T11:44:33Z</time>
      </trkpt>
      <trkpt lat="47.79163" lon="-3.674">
        <ele>38</ele>
        <time>2019-07-14T11:44:34Z</time>
      </trkpt>
      <trkpt lat="47.79168" lon="-3.67398">
        <ele>38</ele>
        <time>2019-07-14T11:44:35Z</time>
      </trkpt>
      <trkpt lat="47.79173" lon="-3.67398">
        <ele>38</ele>
        <time>2019-07-14T11:44:36Z</time>
      </trkpt>
      <trkpt lat="47.79179" lon="-3.67398">
        <ele>37</ele>
        <time>2019-07-14T11:44:37Z</time>
      </trkpt>
      <trkpt lat="47.79184" lon="-3.67399">
        <ele>37</ele>
        <time>2019-07-14T11:44:38Z</time>
      </trkpt>
      <trkpt lat="47.79189" lon="-3.67399">
        <ele>37</ele>
        <time>2019-07-14T11:44:39Z</time>
      </trkpt>
      <trkpt lat="47.79195" lon="-3.67398">
        <ele>36</ele>
        <time>2019-07-14T11:44:40Z</time>
      </trkpt>
      <trkpt lat="47.79199" lon="-3.67398">
        <ele>36</ele>
        <time>2019-07-14T11:44:41Z</time>
      </trkpt>
      <trkpt lat="47.79205" lon="-3.67397">
        <ele>36</ele>
        <time>2019-07-14T11:44:42Z</time>
      </trkpt>
      <trkpt lat="47.79211" lon="-3.67396">
        <ele>36</ele>
        <time>2019-07-14T11:44:43Z</time>
      </trkpt>
      <trkpt lat="47.79217" lon="-3.67396">
        <ele>36</ele>
        <time>2019-07-14T11:44:44Z</time>
      </trkpt>
      <trkpt lat="47.79222" lon="-3.67397">
        <ele>35</ele>
        <time>2019-07-14T11:44:45Z</time>
      </trkpt>
      <trkpt lat="47.79228" lon="-3.67397">
        <ele>36</ele>
        <time>2019-07-14T11:44:46Z</time>
      </trkpt>
      <trkpt lat="47.79232" lon="-3.67398">
        <ele>36</ele>
        <time>2019-07-14T11:44:47Z</time>
      </trkpt>
      <trkpt lat="47.79233" lon="-3.67399">
        <ele>37</ele>
        <time>2019-07-14T11:44:48Z</time>
      </trkpt>
      <trkpt lat="47.79237" lon="-3.67398">
        <ele>37</ele>
        <time>2019-07-14T11:44:49Z</time>
      </trkpt>
      <trkpt lat="47.79241" lon="-3.67398">
        <ele>37</ele>
        <time>2019-07-14T11:44:50Z</time>
      </trkpt>
      <trkpt lat="47.79246" lon="-3.67398">
        <ele>37</ele>
        <time>2019-07-14T11:44:51Z</time>
      </trkpt>
      <trkpt lat="47.79251" lon="-3.67399">
        <ele>36</ele>
        <time>2019-07-14T11:44:52Z</time>
      </trkpt>
      <trkpt lat="47.79257" lon="-3.67399">
        <ele>36</ele>
        <time>2019-07-14T11:44:53Z</time>
      </trkpt>
      <trkpt lat="47.79263" lon="-3.67398">
        <ele>36</ele>
        <time>2019-07-14T11:44:54Z</time>
      </trkpt>
      <trkpt lat="47.7927" lon="-3.67398">
        <ele>36</ele>
        <time>2019-07-14T11:44:55Z</time>
      </trkpt>
      <trkpt lat="47.79275" lon="-3.67399">
        <ele>35</ele>
        <time>2019-07-14T11:44:56Z</time>
      </trkpt>
      <trkpt lat="47.7928" lon="-3.67401">
        <ele>35</ele>
        <time>2019-07-14T11:44:57Z</time>
      </trkpt>
      <trkpt lat="47.79285" lon="-3.67401">
        <ele>35</ele>
        <time>2019-07-14T11:44:58Z</time>
      </trkpt>
      <trkpt lat="47.79291" lon="-3.674">
        <ele>35</ele>
        <time>2019-07-14T11:44:59Z</time>
      </trkpt>
      <trkpt lat="47.79298" lon="-3.67398">
        <ele>35</ele>
        <time>2019-07-14T11:45:00Z</time>
      </trkpt>
      <trkpt lat="47.79304" lon="-3.67395">
        <ele>36</ele>
        <time>2019-07-14T11:45:01Z</time>
      </trkpt>
      <trkpt lat="47.79309" lon="-3.67391">
        <ele>36</ele>
        <time>2019-07-14T11:45:02Z</time>
      </trkpt>
      <trkpt lat="47.79315" lon="-3.67387">
        <ele>35</ele>
        <time>2019-07-14T11:45:03Z</time>
      </trkpt>
      <trkpt lat="47.79322" lon="-3.67385">
        <ele>35</ele>
        <time>2019-07-14T11:45:04Z</time>
      </trkpt>
      <trkpt lat="47.79329" lon="-3.67382">
        <ele>35</ele>
        <time>2019-07-14T11:45:05Z</time>
      </trkpt>
      <trkpt lat="47.79336" lon="-3.67379">
        <ele>35</ele>
        <time>2019-07-14T11:45:06Z</time>
      </trkpt>
      <trkpt lat="47.79343" lon="-3.67374">
        <ele>35</ele>
        <time>2019-07-14T11:45:07Z</time>
      </trkpt>
      <trkpt lat="47.7935" lon="-3.67372">
        <ele>34</ele>
        <time>2019-07-14T11:45:08Z</time>
      </trkpt>
      <trkpt lat="47.79355" lon="-3.67371">
        <ele>34</ele>
        <time>2019-07-14T11:45:09Z</time>
      </trkpt>
      <trkpt lat="47.79362" lon="-3.67368">
        <ele>34</ele>
        <time>2019-07-14T11:45:10Z</time>
      </trkpt>
      <trkpt lat="47.79368" lon="-3.67366">
        <ele>34</ele>
        <time>2019-07-14T11:45:11Z</time>
      </trkpt>
      <trkpt lat="47.79375" lon="-3.67362">
        <ele>34</ele>
        <time>2019-07-14T11:45:12Z</time>
      </trkpt>
      <trkpt lat="47.79382" lon="-3.6736">
        <ele>34</ele>
        <time>2019-07-14T11:45:13Z</time>
      </trkpt>
      <trkpt lat="47.79389" lon="-3.6736">
        <ele>33</ele>
        <time>2019-07-14T11:45:14Z</time>
      </trkpt>
      <trkpt lat="47.79395" lon="-3.67359">
        <ele>32</ele>
        <time>2019-07-14T11:45:15Z</time>
      </trkpt>
      <trkpt lat="47.79401" lon="-3.67356">
        <ele>32</ele>
        <time>2019-07-14T11:45:16Z</time>
      </trkpt>
      <trkpt lat="47.79406" lon="-3.67351">
        <ele>32</ele>
        <time>2019-07-14T11:45:17Z</time>
      </trkpt>
      <trkpt lat="47.79409" lon="-3.67344">
        <ele>32</ele>
        <time>2019-07-14T11:45:18Z</time>
      </trkpt>
      <trkpt lat="47.79412" lon="-3.67337">
        <ele>32</ele>
        <time>2019-07-14T11:45:19Z</time>
      </trkpt>
      <trkpt lat="47.79415" lon="-3.67331">
        <ele>31</ele>
        <time>2019-07-14T11:45:20Z</time>
      </trkpt>
      <trkpt lat="47.79418" lon="-3.67326">
        <ele>31</ele>
        <time>2019-07-14T11:45:21Z</time>
      </trkpt>
      <trkpt lat="47.79422" lon="-3.67321">
        <ele>31</ele>
        <time>2019-07-14T11:45:22Z</time>
      </trkpt>
      <trkpt lat="47.79426" lon="-3.67313">
        <ele>32</ele>
        <time>2019-07-14T11:45:23Z</time>
      </trkpt>
      <trkpt lat="47.79428" lon="-3.67304">
        <ele>32</ele>
        <time>2019-07-14T11:45:24Z</time>
      </trkpt>
      <trkpt lat="47.79431" lon="-3.67295">
        <ele>31</ele>
        <time>2019-07-14T11:45:25Z</time>
      </trkpt>
      <trkpt lat="47.79433" lon="-3.67287">
        <ele>32</ele>
        <time>2019-07-14T11:45:26Z</time>
      </trkpt>
      <trkpt lat="47.79436" lon="-3.67279">
        <ele>32</ele>
        <time>2019-07-14T11:45:27Z</time>
      </trkpt>
      <trkpt lat="47.79439" lon="-3.67272">
        <ele>32</ele>
        <time>2019-07-14T11:45:28Z</time>
      </trkpt>
      <trkpt lat="47.7944" lon="-3.67266">
        <ele>32</ele>
        <time>2019-07-14T11:45:29Z</time>
      </trkpt>
      <trkpt lat="47.79442" lon="-3.67259">
        <ele>32</ele>
        <time>2019-07-14T11:45:30Z</time>
      </trkpt>
      <trkpt lat="47.79444" lon="-3.6725">
        <ele>32</ele>
        <time>2019-07-14T11:45:31Z</time>
      </trkpt>
      <trkpt lat="47.79447" lon="-3.67242">
        <ele>32</ele>
        <time>2019-07-14T11:45:32Z</time>
      </trkpt>
      <trkpt lat="47.79449" lon="-3.6723">
        <ele>32</ele>
        <time>2019-07-14T11:45:33Z</time>
      </trkpt>
      <trkpt lat="47.7945" lon="-3.6722">
        <ele>32</ele>
        <time>2019-07-14T11:45:34Z</time>
      </trkpt>
      <trkpt lat="47.79451" lon="-3.6721">
        <ele>31</ele>
        <time>2019-07-14T11:45:35Z</time>
      </trkpt>
      <trkpt lat="47.7945" lon="-3.67202">
        <ele>31</ele>
        <time>2019-07-14T11:45:36Z</time>
      </trkpt>
      <trkpt lat="47.79449" lon="-3.67194">
        <ele>31</ele>
        <time>2019-07-14T11:45:37Z</time>
      </trkpt>
      <trkpt lat="47.79447" lon="-3.67188">
        <ele>30</ele>
        <time>2019-07-14T11:45:38Z</time>
      </trkpt>
      <trkpt lat="47.79448" lon="-3.67181">
        <ele>30</ele>
        <time>2019-07-14T11:45:39Z</time>
      </trkpt>
      <trkpt lat="47.79448" lon="-3.67176">
        <ele>30</ele>
        <time>2019-07-14T11:45:40Z</time>
      </trkpt>
      <trkpt lat="47.7945" lon="-3.67171">
        <ele>30</ele>
        <time>2019-07-14T11:45:41Z</time>
      </trkpt>
      <trkpt lat="47.79449" lon="-3.67168">
        <ele>30</ele>
        <time>2019-07-14T11:45:42Z</time>
      </trkpt>
      <trkpt lat="47.79449" lon="-3.67166">
        <ele>29</ele>
        <time>2019-07-14T11:45:43Z</time>
      </trkpt>
      <trkpt lat="47.7945" lon="-3.67165">
        <ele>29</ele>
        <time>2019-07-14T11:45:44Z</time>
      </trkpt>
      <trkpt lat="47.79452" lon="-3.67164">
        <ele>29</ele>
        <time>2019-07-14T11:45:45Z</time>
      </trkpt>
      <trkpt lat="47.79452" lon="-3.67162">
        <ele>28</ele>
        <time>2019-07-14T11:45:46Z</time>
      </trkpt>
      <trkpt lat="47.79453" lon="-3.6716">
        <ele>28</ele>
        <time>2019-07-14T11:45:47Z</time>
      </trkpt>
      <trkpt lat="47.79454" lon="-3.67156">
        <ele>27</ele>
        <time>2019-07-14T11:45:48Z</time>
      </trkpt>
      <trkpt lat="47.79454" lon="-3.67154">
        <ele>27</ele>
        <time>2019-07-14T11:45:49Z</time>
      </trkpt>
      <trkpt lat="47.79454" lon="-3.67152">
        <ele>26</ele>
        <time>2019-07-14T11:45:50Z</time>
      </trkpt>
      <trkpt lat="47.79455" lon="-3.6715">
        <ele>26</ele>
        <time>2019-07-14T11:45:51Z</time>
      </trkpt>
      <trkpt lat="47.79458" lon="-3.67145">
        <ele>26</ele>
        <time>2019-07-14T11:45:52Z</time>
      </trkpt>
      <trkpt lat="47.79459" lon="-3.67142">
        <ele>26</ele>
        <time>2019-07-14T11:45:53Z</time>
      </trkpt>
      <trkpt lat="47.79461" lon="-3.67138">
        <ele>26</ele>
        <time>2019-07-14T11:45:54Z</time>
      </trkpt>
      <trkpt lat="47.79463" lon="-3.67132">
        <ele>26</ele>
        <time>2019-07-14T11:45:55Z</time>
      </trkpt>
      <trkpt lat="47.79464" lon="-3.67127">
        <ele>26</ele>
        <time>2019-07-14T11:45:56Z</time>
      </trkpt>
      <trkpt lat="47.79465" lon="-3.67122">
        <ele>26</ele>
        <time>2019-07-14T11:45:57Z</time>
      </trkpt>
      <trkpt lat="47.79467" lon="-3.67118">
        <ele>27</ele>
        <time>2019-07-14T11:45:58Z</time>
      </trkpt>
      <trkpt lat="47.79467" lon="-3.67115">
        <ele>27</ele>
        <time>2019-07-14T11:45:59Z</time>
      </trkpt>
      <trkpt lat="47.79468" lon="-3.67112">
        <ele>27</ele>
        <time>2019-07-14T11:46:00Z</time>
      </trkpt>
      <trkpt lat="47.79468" lon="-3.67111">
        <ele>27</ele>
        <time>2019-07-14T11:46:01Z</time>
      </trkpt>
      <trkpt lat="47.79469" lon="-3.67108">
        <ele>26</ele>
        <time>2019-07-14T11:46:02Z</time>
      </trkpt>
      <trkpt lat="47.79471" lon="-3.67106">
        <ele>26</ele>
        <time>2019-07-14T11:46:03Z</time>
      </trkpt>
      <trkpt lat="47.79473" lon="-3.67105">
        <ele>26</ele>
        <time>2019-07-14T11:46:04Z</time>
      </trkpt>
      <trkpt lat="47.79473" lon="-3.67103">
        <ele>26</ele>
        <time>2019-07-14T11:46:05Z</time>
      </trkpt>
      <trkpt lat="47.79475" lon="-3.67099">
        <ele>26</ele>
        <time>2019-07-14T11:46:06Z</time>
      </trkpt>
      <trkpt lat="47.79476" lon="-3.67097">
        <ele>26</ele>
        <time>2019-07-14T11:46:07Z</time>
      </trkpt>
      <trkpt lat="47.79478" lon="-3.67095">
        <ele>26</ele>
        <time>2019-07-14T11:46:08Z</time>
      </trkpt>
      <trkpt lat="47.7948" lon="-3.67094">
        <ele>26</ele>
        <time>2019-07-14T11:46:09Z</time>
      </trkpt>
      <trkpt lat="47.79483" lon="-3.67092">
        <ele>26</ele>
        <time>2019-07-14T11:46:10Z</time>
      </trkpt>
      <trkpt lat="47.79489" lon="-3.6709">
        <ele>26</ele>
        <time>2019-07-14T11:46:11Z</time>
      </trkpt>
      <trkpt lat="47.79493" lon="-3.67088">
        <ele>26</ele>
        <time>2019-07-14T11:46:12Z</time>
      </trkpt>
      <trkpt lat="47.79496" lon="-3.67086">
        <ele>25</ele>
        <time>2019-07-14T11:46:13Z</time>
      </trkpt>
      <trkpt lat="47.795" lon="-3.67084">
        <ele>25</ele>
        <time>2019-07-14T11:46:14Z</time>
      </trkpt>
      <trkpt lat="47.79503" lon="-3.67081">
        <ele>25</ele>
        <time>2019-07-14T11:46:15Z</time>
      </trkpt>
      <trkpt lat="47.79507" lon="-3.67078">
        <ele>25</ele>
        <time>2019-07-14T11:46:16Z</time>
      </trkpt>
      <trkpt lat="47.7951" lon="-3.67075">
        <ele>25</ele>
        <time>2019-07-14T11:46:17Z</time>
      </trkpt>
      <trkpt lat="47.79513" lon="-3.67071">
        <ele>25</ele>
        <time>2019-07-14T11:46:18Z</time>
      </trkpt>
      <trkpt lat="47.79516" lon="-3.67068">
        <ele>24</ele>
        <time>2019-07-14T11:46:19Z</time>
      </trkpt>
      <trkpt lat="47.79518" lon="-3.67066">
        <ele>24</ele>
        <time>2019-07-14T11:46:20Z</time>
      </trkpt>
      <trkpt lat="47.79521" lon="-3.67062">
        <ele>24</ele>
        <time>2019-07-14T11:46:21Z</time>
      </trkpt>
      <trkpt lat="47.79524" lon="-3.67059">
        <ele>24</ele>
        <time>2019-07-14T11:46:22Z</time>
      </trkpt>
      <trkpt lat="47.79526" lon="-3.67055">
        <ele>24</ele>
        <time>2019-07-14T11:46:23Z</time>
      </trkpt>
      <trkpt lat="47.79532" lon="-3.67049">
        <ele>24</ele>
        <time>2019-07-14T11:46:24Z</time>
      </trkpt>
      <trkpt lat="47.79536" lon="-3.67044">
        <ele>24</ele>
        <time>2019-07-14T11:46:25Z</time>
      </trkpt>
      <trkpt lat="47.7954" lon="-3.67038">
        <ele>24</ele>
        <time>2019-07-14T11:46:26Z</time>
      </trkpt>
      <trkpt lat="47.79543" lon="-3.67033">
        <ele>24</ele>
        <time>2019-07-14T11:46:27Z</time>
      </trkpt>
      <trkpt lat="47.79547" lon="-3.6703">
        <ele>25</ele>
        <time>2019-07-14T11:46:28Z</time>
      </trkpt>
      <trkpt lat="47.79549" lon="-3.67026">
        <ele>25</ele>
        <time>2019-07-14T11:46:29Z</time>
      </trkpt>
      <trkpt lat="47.79552" lon="-3.67024">
        <ele>25</ele>
        <time>2019-07-14T11:46:30Z</time>
      </trkpt>
      <trkpt lat="47.79555" lon="-3.67022">
        <ele>25</ele>
        <time>2019-07-14T11:46:31Z</time>
      </trkpt>
      <trkpt lat="47.79557" lon="-3.6702">
        <ele>25</ele>
        <time>2019-07-14T11:46:32Z</time>
      </trkpt>
      <trkpt lat="47.7956" lon="-3.67019">
        <ele>25</ele>
        <time>2019-07-14T11:46:33Z</time>
      </trkpt>
      <trkpt lat="47.79561" lon="-3.67017">
        <ele>25</ele>
        <time>2019-07-14T11:46:34Z</time>
      </trkpt>
      <trkpt lat="47.79562" lon="-3.67016">
        <ele>25</ele>
        <time>2019-07-14T11:46:35Z</time>
      </trkpt>
      <trkpt lat="47.79564" lon="-3.67013">
        <ele>25</ele>
        <time>2019-07-14T11:46:36Z</time>
      </trkpt>
      <trkpt lat="47.79565" lon="-3.6701">
        <ele>25</ele>
        <time>2019-07-14T11:46:37Z</time>
      </trkpt>
      <trkpt lat="47.79567" lon="-3.67007">
        <ele>25</ele>
        <time>2019-07-14T11:46:38Z</time>
      </trkpt>
      <trkpt lat="47.79569" lon="-3.67004">
        <ele>25</ele>
        <time>2019-07-14T11:46:39Z</time>
      </trkpt>
      <trkpt lat="47.79571" lon="-3.67002">
        <ele>25</ele>
        <time>2019-07-14T11:46:40Z</time>
      </trkpt>
      <trkpt lat="47.79574" lon="-3.66999">
        <ele>25</ele>
        <time>2019-07-14T11:46:41Z</time>
      </trkpt>
      <trkpt lat="47.79576" lon="-3.66997">
        <ele>25</ele>
        <time>2019-07-14T11:46:42Z</time>
      </trkpt>
      <trkpt lat="47.79576" lon="-3.66997">
        <ele>25</ele>
        <time>2019-07-14T11:46:45Z</time>
      </trkpt>
      <trkpt lat="47.79576" lon="-3.66997">
        <ele>25</ele>
        <time>2019-07-14T11:46:46Z</time>
      </trkpt>
      <trkpt lat="47.79587" lon="-3.66992">
        <ele>26</ele>
        <time>2019-07-14T11:46:47Z</time>
      </trkpt>
      <trkpt lat="47.79587" lon="-3.66992">
        <ele>25</ele>
        <time>2019-07-14T11:46:49Z</time>
      </trkpt>
      <trkpt lat="47.79587" lon="-3.66992">
        <ele>25</ele>
        <time>2019-07-14T11:46:50Z</time>
      </trkpt>
      <trkpt lat="47.796" lon="-3.66984">
        <ele>25</ele>
        <time>2019-07-14T11:46:51Z</time>
      </trkpt>
      <trkpt lat="47.79604" lon="-3.66982">
        <ele>25</ele>
        <time>2019-07-14T11:46:52Z</time>
      </trkpt>
      <trkpt lat="47.79609" lon="-3.66979">
        <ele>24</ele>
        <time>2019-07-14T11:46:53Z</time>
      </trkpt>
      <trkpt lat="47.79611" lon="-3.66976">
        <ele>24</ele>
        <time>2019-07-14T11:46:54Z</time>
      </trkpt>
      <trkpt lat="47.79614" lon="-3.66973">
        <ele>23</ele>
        <time>2019-07-14T11:46:55Z</time>
      </trkpt>
      <trkpt lat="47.79618" lon="-3.6697">
        <ele>24</ele>
        <time>2019-07-14T11:46:56Z</time>
      </trkpt>
      <trkpt lat="47.79619" lon="-3.66969">
        <ele>23</ele>
        <time>2019-07-14T11:46:57Z</time>
      </trkpt>
      <trkpt lat="47.79621" lon="-3.66967">
        <ele>23</ele>
        <time>2019-07-14T11:46:58Z</time>
      </trkpt>
      <trkpt lat="47.79624" lon="-3.66964">
        <ele>22</ele>
        <time>2019-07-14T11:46:59Z</time>
      </trkpt>
      <trkpt lat="47.79627" lon="-3.66961">
        <ele>22</ele>
        <time>2019-07-14T11:47:00Z</time>
      </trkpt>
      <trkpt lat="47.7963" lon="-3.66958">
        <ele>23</ele>
        <time>2019-07-14T11:47:01Z</time>
      </trkpt>
      <trkpt lat="47.79634" lon="-3.66955">
        <ele>23</ele>
        <time>2019-07-14T11:47:02Z</time>
      </trkpt>
      <trkpt lat="47.79638" lon="-3.66952">
        <ele>24</ele>
        <time>2019-07-14T11:47:03Z</time>
      </trkpt>
      <trkpt lat="47.7964" lon="-3.66949">
        <ele>23</ele>
        <time>2019-07-14T11:47:04Z</time>
      </trkpt>
      <trkpt lat="47.79642" lon="-3.66947">
        <ele>22</ele>
        <time>2019-07-14T11:47:05Z</time>
      </trkpt>
      <trkpt lat="47.79645" lon="-3.66944">
        <ele>20</ele>
        <time>2019-07-14T11:47:06Z</time>
      </trkpt>
      <trkpt lat="47.79648" lon="-3.66941">
        <ele>20</ele>
        <time>2019-07-14T11:47:07Z</time>
      </trkpt>
      <trkpt lat="47.79651" lon="-3.66938">
        <ele>19</ele>
        <time>2019-07-14T11:47:08Z</time>
      </trkpt>
      <trkpt lat="47.79655" lon="-3.66934">
        <ele>20</ele>
        <time>2019-07-14T11:47:09Z</time>
      </trkpt>
      <trkpt lat="47.79657" lon="-3.66933">
        <ele>19</ele>
        <time>2019-07-14T11:47:10Z</time>
      </trkpt>
      <trkpt lat="47.7966" lon="-3.66931">
        <ele>18</ele>
        <time>2019-07-14T11:47:11Z</time>
      </trkpt>
      <trkpt lat="47.79662" lon="-3.66927">
        <ele>16</ele>
        <time>2019-07-14T11:47:12Z</time>
      </trkpt>
      <trkpt lat="47.79666" lon="-3.66924">
        <ele>16</ele>
        <time>2019-07-14T11:47:13Z</time>
      </trkpt>
      <trkpt lat="47.7967" lon="-3.66921">
        <ele>16</ele>
        <time>2019-07-14T11:47:14Z</time>
      </trkpt>
      <trkpt lat="47.79674" lon="-3.66919">
        <ele>16</ele>
        <time>2019-07-14T11:47:15Z</time>
      </trkpt>
      <trkpt lat="47.79679" lon="-3.66917">
        <ele>16</ele>
        <time>2019-07-14T11:47:16Z</time>
      </trkpt>
      <trkpt lat="47.79682" lon="-3.66916">
        <ele>15</ele>
        <time>2019-07-14T11:47:17Z</time>
      </trkpt>
      <trkpt lat="47.79685" lon="-3.66915">
        <ele>14</ele>
        <time>2019-07-14T11:47:18Z</time>
      </trkpt>
      <trkpt lat="47.79688" lon="-3.66914">
        <ele>12</ele>
        <time>2019-07-14T11:47:19Z</time>
      </trkpt>
      <trkpt lat="47.79691" lon="-3.66913">
        <ele>15</ele>
        <time>2019-07-14T11:47:20Z</time>
      </trkpt>
      <trkpt lat="47.79694" lon="-3.6691">
        <ele>16</ele>
        <time>2019-07-14T11:47:21Z</time>
      </trkpt>
      <trkpt lat="47.79696" lon="-3.66909">
        <ele>17</ele>
        <time>2019-07-14T11:47:22Z</time>
      </trkpt>
      <trkpt lat="47.797" lon="-3.66909">
        <ele>16</ele>
        <time>2019-07-14T11:47:23Z</time>
      </trkpt>
      <trkpt lat="47.79704" lon="-3.66909">
        <ele>16</ele>
        <time>2019-07-14T11:47:24Z</time>
      </trkpt>
      <trkpt lat="47.79708" lon="-3.66907">
        <ele>16</ele>
        <time>2019-07-14T11:47:25Z</time>
      </trkpt>
      <trkpt lat="47.79712" lon="-3.66905">
        <ele>17</ele>
        <time>2019-07-14T11:47:26Z</time>
      </trkpt>
      <trkpt lat="47.79715" lon="-3.66901">
        <ele>17</ele>
        <time>2019-07-14T11:47:27Z</time>
      </trkpt>
      <trkpt lat="47.79717" lon="-3.66896">
        <ele>17</ele>
        <time>2019-07-14T11:47:28Z</time>
      </trkpt>
      <trkpt lat="47.79719" lon="-3.66892">
        <ele>17</ele>
        <time>2019-07-14T11:47:29Z</time>
      </trkpt>
      <trkpt lat="47.7972" lon="-3.66887">
        <ele>18</ele>
        <time>2019-07-14T11:47:30Z</time>
      </trkpt>
      <trkpt lat="47.79722" lon="-3.66882">
        <ele>18</ele>
        <time>2019-07-14T11:47:31Z</time>
      </trkpt>
      <trkpt lat="47.79723" lon="-3.66878">
        <ele>19</ele>
        <time>2019-07-14T11:47:32Z</time>
      </trkpt>
      <trkpt lat="47.79724" lon="-3.66873">
        <ele>20</ele>
        <time>2019-07-14T11:47:33Z</time>
      </trkpt>
      <trkpt lat="47.79725" lon="-3.66866">
        <ele>20</ele>
        <time>2019-07-14T11:47:34Z</time>
      </trkpt>
      <trkpt lat="47.79725" lon="-3.6686">
        <ele>20</ele>
        <time>2019-07-14T11:47:35Z</time>
      </trkpt>
      <trkpt lat="47.79726" lon="-3.66854">
        <ele>20</ele>
        <time>2019-07-14T11:47:36Z</time>
      </trkpt>
      <trkpt lat="47.79726" lon="-3.66848">
        <ele>21</ele>
        <time>2019-07-14T11:47:37Z</time>
      </trkpt>
      <trkpt lat="47.79727" lon="-3.66843">
        <ele>21</ele>
        <time>2019-07-14T11:47:38Z</time>
      </trkpt>
      <trkpt lat="47.79729" lon="-3.66838">
        <ele>22</ele>
        <time>2019-07-14T11:47:39Z</time>
      </trkpt>
      <trkpt lat="47.79729" lon="-3.66833">
        <ele>22</ele>
        <time>2019-07-14T11:47:40Z</time>
      </trkpt>
      <trkpt lat="47.7973" lon="-3.66828">
        <ele>22</ele>
        <time>2019-07-14T11:47:41Z</time>
      </trkpt>
      <trkpt lat="47.79731" lon="-3.66823">
        <ele>23</ele>
        <time>2019-07-14T11:47:42Z</time>
      </trkpt>
      <trkpt lat="47.79731" lon="-3.66823">
        <ele>24</ele>
        <time>2019-07-14T11:47:44Z</time>
      </trkpt>
      <trkpt lat="47.79731" lon="-3.66823">
        <ele>24</ele>
        <time>2019-07-14T11:47:45Z</time>
      </trkpt>
      <trkpt lat="47.7973" lon="-3.66799">
        <ele>24</ele>
        <time>2019-07-14T11:47:46Z</time>
      </trkpt>
      <trkpt lat="47.79731" lon="-3.66793">
        <ele>25</ele>
        <time>2019-07-14T11:47:47Z</time>
      </trkpt>
      <trkpt lat="47.79731" lon="-3.66787">
        <ele>25</ele>
        <time>2019-07-14T11:47:48Z</time>
      </trkpt>
      <trkpt lat="47.79731" lon="-3.66787">
        <ele>25</ele>
        <time>2019-07-14T11:47:50Z</time>
      </trkpt>
      <trkpt lat="47.79731" lon="-3.66787">
        <ele>26</ele>
        <time>2019-07-14T11:47:51Z</time>
      </trkpt>
      <trkpt lat="47.79732" lon="-3.66762">
        <ele>26</ele>
        <time>2019-07-14T11:47:52Z</time>
      </trkpt>
      <trkpt lat="47.79733" lon="-3.66756">
        <ele>27</ele>
        <time>2019-07-14T11:47:53Z</time>
      </trkpt>
      <trkpt lat="47.79733" lon="-3.66749">
        <ele>27</ele>
        <time>2019-07-14T11:47:54Z</time>
      </trkpt>
      <trkpt lat="47.79733" lon="-3.66743">
        <ele>28</ele>
        <time>2019-07-14T11:47:55Z</time>
      </trkpt>
      <trkpt lat="47.79734" lon="-3.66737">
        <ele>29</ele>
        <time>2019-07-14T11:47:56Z</time>
      </trkpt>
      <trkpt lat="47.79735" lon="-3.6673">
        <ele>31</ele>
        <time>2019-07-14T11:47:57Z</time>
      </trkpt>
      <trkpt lat="47.79736" lon="-3.66724">
        <ele>32</ele>
        <time>2019-07-14T11:47:58Z</time>
      </trkpt>
      <trkpt lat="47.79736" lon="-3.66717">
        <ele>32</ele>
        <time>2019-07-14T11:47:59Z</time>
      </trkpt>
      <trkpt lat="47.79735" lon="-3.66711">
        <ele>32</ele>
        <time>2019-07-14T11:48:00Z</time>
      </trkpt>
      <trkpt lat="47.79736" lon="-3.66705">
        <ele>33</ele>
        <time>2019-07-14T11:48:01Z</time>
      </trkpt>
      <trkpt lat="47.79736" lon="-3.66698">
        <ele>33</ele>
        <time>2019-07-14T11:48:02Z</time>
      </trkpt>
      <trkpt lat="47.79735" lon="-3.66691">
        <ele>33</ele>
        <time>2019-07-14T11:48:03Z</time>
      </trkpt>
      <trkpt lat="47.79735" lon="-3.66684">
        <ele>33</ele>
        <time>2019-07-14T11:48:04Z</time>
      </trkpt>
      <trkpt lat="47.79734" lon="-3.66677">
        <ele>32</ele>
        <time>2019-07-14T11:48:05Z</time>
      </trkpt>
      <trkpt lat="47.79733" lon="-3.6667">
        <ele>33</ele>
        <time>2019-07-14T11:48:06Z</time>
      </trkpt>
      <trkpt lat="47.79732" lon="-3.66662">
        <ele>33</ele>
        <time>2019-07-14T11:48:07Z</time>
      </trkpt>
      <trkpt lat="47.79731" lon="-3.66654">
        <ele>33</ele>
        <time>2019-07-14T11:48:08Z</time>
      </trkpt>
      <trkpt lat="47.7973" lon="-3.66646">
        <ele>34</ele>
        <time>2019-07-14T11:48:09Z</time>
      </trkpt>
      <trkpt lat="47.79729" lon="-3.66639">
        <ele>34</ele>
        <time>2019-07-14T11:48:10Z</time>
      </trkpt>
      <trkpt lat="47.79729" lon="-3.66633">
        <ele>34</ele>
        <time>2019-07-14T11:48:11Z</time>
      </trkpt>
      <trkpt lat="47.79728" lon="-3.66626">
        <ele>34</ele>
        <time>2019-07-14T11:48:12Z</time>
      </trkpt>
      <trkpt lat="47.79727" lon="-3.66619">
        <ele>34</ele>
        <time>2019-07-14T11:48:13Z</time>
      </trkpt>
      <trkpt lat="47.79726" lon="-3.66612">
        <ele>34</ele>
        <time>2019-07-14T11:48:14Z</time>
      </trkpt>
      <trkpt lat="47.79725" lon="-3.66603">
        <ele>34</ele>
        <time>2019-07-14T11:48:15Z</time>
      </trkpt>
      <trkpt lat="47.79723" lon="-3.66596">
        <ele>34</ele>
        <time>2019-07-14T11:48:16Z</time>
      </trkpt>
      <trkpt lat="47.79723" lon="-3.66587">
        <ele>35</ele>
        <time>2019-07-14T11:48:17Z</time>
      </trkpt>
      <trkpt lat="47.79722" lon="-3.6658">
        <ele>35</ele>
        <time>2019-07-14T11:48:18Z</time>
      </trkpt>
      <trkpt lat="47.79721" lon="-3.66572">
        <ele>35</ele>
        <time>2019-07-14T11:48:19Z</time>
      </trkpt>
      <trkpt lat="47.7972" lon="-3.66564">
        <ele>35</ele>
        <time>2019-07-14T11:48:20Z</time>
      </trkpt>
      <trkpt lat="47.79719" lon="-3.66555">
        <ele>34</ele>
        <time>2019-07-14T11:48:21Z</time>
      </trkpt>
      <trkpt lat="47.79719" lon="-3.66548">
        <ele>33</ele>
        <time>2019-07-14T11:48:22Z</time>
      </trkpt>
      <trkpt lat="47.7972" lon="-3.66542">
        <ele>33</ele>
        <time>2019-07-14T11:48:23Z</time>
      </trkpt>
      <trkpt lat="47.79723" lon="-3.66537">
        <ele>32</ele>
        <time>2019-07-14T11:48:24Z</time>
      </trkpt>
      <trkpt lat="47.79727" lon="-3.66535">
        <ele>32</ele>
        <time>2019-07-14T11:48:25Z</time>
      </trkpt>
      <trkpt lat="47.7973" lon="-3.66533">
        <ele>32</ele>
        <time>2019-07-14T11:48:26Z</time>
      </trkpt>
      <trkpt lat="47.79734" lon="-3.66532">
        <ele>31</ele>
        <time>2019-07-14T11:48:27Z</time>
      </trkpt>
      <trkpt lat="47.79738" lon="-3.6653">
        <ele>31</ele>
        <time>2019-07-14T11:48:28Z</time>
      </trkpt>
      <trkpt lat="47.79743" lon="-3.66528">
        <ele>30</ele>
        <time>2019-07-14T11:48:29Z</time>
      </trkpt>
      <trkpt lat="47.79747" lon="-3.66527">
        <ele>30</ele>
        <time>2019-07-14T11:48:30Z</time>
      </trkpt>
      <trkpt lat="47.79751" lon="-3.66525">
        <ele>29</ele>
        <time>2019-07-14T11:48:31Z</time>
      </trkpt>
      <trkpt lat="47.79756" lon="-3.66523">
        <ele>29</ele>
        <time>2019-07-14T11:48:32Z</time>
      </trkpt>
      <trkpt lat="47.7976" lon="-3.66521">
        <ele>29</ele>
        <time>2019-07-14T11:48:33Z</time>
      </trkpt>
      <trkpt lat="47.79764" lon="-3.66518">
        <ele>30</ele>
        <time>2019-07-14T11:48:34Z</time>
      </trkpt>
      <trkpt lat="47.79768" lon="-3.66514">
        <ele>29</ele>
        <time>2019-07-14T11:48:35Z</time>
      </trkpt>
      <trkpt lat="47.79772" lon="-3.6651">
        <ele>29</ele>
        <time>2019-07-14T11:48:36Z</time>
      </trkpt>
      <trkpt lat="47.79775" lon="-3.66506">
        <ele>29</ele>
        <time>2019-07-14T11:48:37Z</time>
      </trkpt>
      <trkpt lat="47.79779" lon="-3.66502">
        <ele>29</ele>
        <time>2019-07-14T11:48:38Z</time>
      </trkpt>
      <trkpt lat="47.7978" lon="-3.665">
        <ele>28</ele>
        <time>2019-07-14T11:48:39Z</time>
      </trkpt>
      <trkpt lat="47.79783" lon="-3.66496">
        <ele>28</ele>
        <time>2019-07-14T11:48:40Z</time>
      </trkpt>
      <trkpt lat="47.79785" lon="-3.66492">
        <ele>28</ele>
        <time>2019-07-14T11:48:41Z</time>
      </trkpt>
      <trkpt lat="47.79789" lon="-3.66488">
        <ele>28</ele>
        <time>2019-07-14T11:48:42Z</time>
      </trkpt>
      <trkpt lat="47.79789" lon="-3.66488">
        <ele>28</ele>
        <time>2019-07-14T11:48:44Z</time>
      </trkpt>
      <trkpt lat="47.79789" lon="-3.66488">
        <ele>27</ele>
        <time>2019-07-14T11:48:45Z</time>
      </trkpt>
      <trkpt lat="47.79803" lon="-3.66473">
        <ele>27</ele>
        <time>2019-07-14T11:48:46Z</time>
      </trkpt>
      <trkpt lat="47.79806" lon="-3.66469">
        <ele>27</ele>
        <time>2019-07-14T11:48:47Z</time>
      </trkpt>
      <trkpt lat="47.79808" lon="-3.66466">
        <ele>26</ele>
        <time>2019-07-14T11:48:48Z</time>
      </trkpt>
      <trkpt lat="47.79808" lon="-3.66466">
        <ele>28</ele>
        <time>2019-07-14T11:48:52Z</time>
      </trkpt>
      <trkpt lat="47.79808" lon="-3.66466">
        <ele>28</ele>
        <time>2019-07-14T11:48:56Z</time>
      </trkpt>
      <trkpt lat="47.79808" lon="-3.66466">
        <ele>28</ele>
        <time>2019-07-14T11:48:57Z</time>
      </trkpt>
      <trkpt lat="47.79846" lon="-3.6642">
        <ele>28</ele>
        <time>2019-07-14T11:48:58Z</time>
      </trkpt>
      <trkpt lat="47.7985" lon="-3.66416">
        <ele>29</ele>
        <time>2019-07-14T11:48:59Z</time>
      </trkpt>
      <trkpt lat="47.79854" lon="-3.66411">
        <ele>28</ele>
        <time>2019-07-14T11:49:00Z</time>
      </trkpt>
      <trkpt lat="47.79857" lon="-3.66407">
        <ele>28</ele>
        <time>2019-07-14T11:49:01Z</time>
      </trkpt>
      <trkpt lat="47.79861" lon="-3.66403">
        <ele>28</ele>
        <time>2019-07-14T11:49:02Z</time>
      </trkpt>
      <trkpt lat="47.79866" lon="-3.66397">
        <ele>28</ele>
        <time>2019-07-14T11:49:03Z</time>
      </trkpt>
      <trkpt lat="47.7987" lon="-3.66392">
        <ele>28</ele>
        <time>2019-07-14T11:49:04Z</time>
      </trkpt>
      <trkpt lat="47.79874" lon="-3.66387">
        <ele>28</ele>
        <time>2019-07-14T11:49:05Z</time>
      </trkpt>
      <trkpt lat="47.79877" lon="-3.66383">
        <ele>28</ele>
        <time>2019-07-14T11:49:06Z</time>
      </trkpt>
      <trkpt lat="47.79881" lon="-3.66378">
        <ele>27</ele>
        <time>2019-07-14T11:49:07Z</time>
      </trkpt>
      <trkpt lat="47.79884" lon="-3.66373">
        <ele>27</ele>
        <time>2019-07-14T11:49:08Z</time>
      </trkpt>
      <trkpt lat="47.79888" lon="-3.66368">
        <ele>27</ele>
        <time>2019-07-14T11:49:09Z</time>
      </trkpt>
      <trkpt lat="47.79892" lon="-3.66363">
        <ele>27</ele>
        <time>2019-07-14T11:49:10Z</time>
      </trkpt>
      <trkpt lat="47.79895" lon="-3.66359">
        <ele>26</ele>
        <time>2019-07-14T11:49:11Z</time>
      </trkpt>
      <trkpt lat="47.79899" lon="-3.66354">
        <ele>26</ele>
        <time>2019-07-14T11:49:12Z</time>
      </trkpt>
      <trkpt lat="47.79902" lon="-3.6635">
        <ele>26</ele>
        <time>2019-07-14T11:49:13Z</time>
      </trkpt>
      <trkpt lat="47.79906" lon="-3.66345">
        <ele>25</ele>
        <time>2019-07-14T11:49:14Z</time>
      </trkpt>
      <trkpt lat="47.7991" lon="-3.6634">
        <ele>26</ele>
        <time>2019-07-14T11:49:15Z</time>
      </trkpt>
      <trkpt lat="47.79913" lon="-3.66334">
        <ele>26</ele>
        <time>2019-07-14T11:49:16Z</time>
      </trkpt>
      <trkpt lat="47.79917" lon="-3.6633">
        <ele>26</ele>
        <time>2019-07-14T11:49:17Z</time>
      </trkpt>
      <trkpt lat="47.79921" lon="-3.66324">
        <ele>26</ele>
        <time>2019-07-14T11:49:18Z</time>
      </trkpt>
      <trkpt lat="47.79925" lon="-3.66319">
        <ele>26</ele>
        <time>2019-07-14T11:49:19Z</time>
      </trkpt>
      <trkpt lat="47.79929" lon="-3.66314">
        <ele>25</ele>
        <time>2019-07-14T11:49:20Z</time>
      </trkpt>
      <trkpt lat="47.79933" lon="-3.66309">
        <ele>26</ele>
        <time>2019-07-14T11:49:21Z</time>
      </trkpt>
      <trkpt lat="47.79936" lon="-3.66304">
        <ele>26</ele>
        <time>2019-07-14T11:49:22Z</time>
      </trkpt>
      <trkpt lat="47.7994" lon="-3.663">
        <ele>26</ele>
        <time>2019-07-14T11:49:23Z</time>
      </trkpt>
      <trkpt lat="47.79943" lon="-3.66295">
        <ele>26</ele>
        <time>2019-07-14T11:49:24Z</time>
      </trkpt>
      <trkpt lat="47.79946" lon="-3.66291">
        <ele>25</ele>
        <time>2019-07-14T11:49:25Z</time>
      </trkpt>
      <trkpt lat="47.7995" lon="-3.66286">
        <ele>25</ele>
        <time>2019-07-14T11:49:26Z</time>
      </trkpt>
      <trkpt lat="47.79954" lon="-3.66281">
        <ele>25</ele>
        <time>2019-07-14T11:49:27Z</time>
      </trkpt>
      <trkpt lat="47.79958" lon="-3.66277">
        <ele>25</ele>
        <time>2019-07-14T11:49:28Z</time>
      </trkpt>
      <trkpt lat="47.79961" lon="-3.66272">
        <ele>25</ele>
        <time>2019-07-14T11:49:29Z</time>
      </trkpt>
      <trkpt lat="47.79964" lon="-3.66268">
        <ele>26</ele>
        <time>2019-07-14T11:49:30Z</time>
      </trkpt>
      <trkpt lat="47.79968" lon="-3.66263">
        <ele>26</ele>
        <time>2019-07-14T11:49:31Z</time>
      </trkpt>
      <trkpt lat="47.79972" lon="-3.66258">
        <ele>26</ele>
        <time>2019-07-14T11:49:32Z</time>
      </trkpt>
      <trkpt lat="47.79975" lon="-3.66253">
        <ele>26</ele>
        <time>2019-07-14T11:49:33Z</time>
      </trkpt>
      <trkpt lat="47.79979" lon="-3.66248">
        <ele>26</ele>
        <time>2019-07-14T11:49:34Z</time>
      </trkpt>
      <trkpt lat="47.79983" lon="-3.66243">
        <ele>26</ele>
        <time>2019-07-14T11:49:35Z</time>
      </trkpt>
      <trkpt lat="47.79987" lon="-3.66238">
        <ele>26</ele>
        <time>2019-07-14T11:49:36Z</time>
      </trkpt>
      <trkpt lat="47.79991" lon="-3.66233">
        <ele>26</ele>
        <time>2019-07-14T11:49:37Z</time>
      </trkpt>
      <trkpt lat="47.79995" lon="-3.66229">
        <ele>27</ele>
        <time>2019-07-14T11:49:38Z</time>
      </trkpt>
      <trkpt lat="47.79999" lon="-3.66224">
        <ele>27</ele>
        <time>2019-07-14T11:49:39Z</time>
      </trkpt>
      <trkpt lat="47.80002" lon="-3.66219">
        <ele>27</ele>
        <time>2019-07-14T11:49:40Z</time>
      </trkpt>
      <trkpt lat="47.80006" lon="-3.66215">
        <ele>27</ele>
        <time>2019-07-14T11:49:41Z</time>
      </trkpt>
      <trkpt lat="47.8001" lon="-3.6621">
        <ele>27</ele>
        <time>2019-07-14T11:49:42Z</time>
      </trkpt>
      <trkpt lat="47.80013" lon="-3.66206">
        <ele>27</ele>
        <time>2019-07-14T11:49:43Z</time>
      </trkpt>
      <trkpt lat="47.80017" lon="-3.66201">
        <ele>27</ele>
        <time>2019-07-14T11:49:44Z</time>
      </trkpt>
      <trkpt lat="47.8002" lon="-3.66196">
        <ele>28</ele>
        <time>2019-07-14T11:49:45Z</time>
      </trkpt>
      <trkpt lat="47.80024" lon="-3.66192">
        <ele>28</ele>
        <time>2019-07-14T11:49:46Z</time>
      </trkpt>
      <trkpt lat="47.80027" lon="-3.66187">
        <ele>28</ele>
        <time>2019-07-14T11:49:47Z</time>
      </trkpt>
      <trkpt lat="47.8003" lon="-3.66183">
        <ele>28</ele>
        <time>2019-07-14T11:49:48Z</time>
      </trkpt>
      <trkpt lat="47.80033" lon="-3.66179">
        <ele>28</ele>
        <time>2019-07-14T11:49:49Z</time>
      </trkpt>
      <trkpt lat="47.80035" lon="-3.66176">
        <ele>28</ele>
        <time>2019-07-14T11:49:50Z</time>
      </trkpt>
      <trkpt lat="47.80038" lon="-3.66172">
        <ele>28</ele>
        <time>2019-07-14T11:49:51Z</time>
      </trkpt>
      <trkpt lat="47.80041" lon="-3.66169">
        <ele>29</ele>
        <time>2019-07-14T11:49:52Z</time>
      </trkpt>
      <trkpt lat="47.80045" lon="-3.66168">
        <ele>29</ele>
        <time>2019-07-14T11:49:53Z</time>
      </trkpt>
      <trkpt lat="47.80048" lon="-3.66168">
        <ele>29</ele>
        <time>2019-07-14T11:49:54Z</time>
      </trkpt>
      <trkpt lat="47.80052" lon="-3.6617">
        <ele>29</ele>
        <time>2019-07-14T11:49:55Z</time>
      </trkpt>
      <trkpt lat="47.80055" lon="-3.66173">
        <ele>29</ele>
        <time>2019-07-14T11:49:56Z</time>
      </trkpt>
      <trkpt lat="47.80058" lon="-3.66177">
        <ele>30</ele>
        <time>2019-07-14T11:49:57Z</time>
      </trkpt>
      <trkpt lat="47.8006" lon="-3.66183">
        <ele>30</ele>
        <time>2019-07-14T11:49:58Z</time>
      </trkpt>
      <trkpt lat="47.80063" lon="-3.66189">
        <ele>30</ele>
        <time>2019-07-14T11:49:59Z</time>
      </trkpt>
      <trkpt lat="47.80065" lon="-3.66195">
        <ele>30</ele>
        <time>2019-07-14T11:50:00Z</time>
      </trkpt>
      <trkpt lat="47.80067" lon="-3.662">
        <ele>30</ele>
        <time>2019-07-14T11:50:01Z</time>
      </trkpt>
      <trkpt lat="47.8007" lon="-3.66205">
        <ele>30</ele>
        <time>2019-07-14T11:50:02Z</time>
      </trkpt>
      <trkpt lat="47.80072" lon="-3.6621">
        <ele>30</ele>
        <time>2019-07-14T11:50:03Z</time>
      </trkpt>
      <trkpt lat="47.80074" lon="-3.66215">
        <ele>30</ele>
        <time>2019-07-14T11:50:04Z</time>
      </trkpt>
      <trkpt lat="47.80076" lon="-3.6622">
        <ele>30</ele>
        <time>2019-07-14T11:50:05Z</time>
      </trkpt>
      <trkpt lat="47.80079" lon="-3.66225">
        <ele>31</ele>
        <time>2019-07-14T11:50:06Z</time>
      </trkpt>
      <trkpt lat="47.80081" lon="-3.66231">
        <ele>31</ele>
        <time>2019-07-14T11:50:07Z</time>
      </trkpt>
      <trkpt lat="47.80085" lon="-3.66235">
        <ele>31</ele>
        <time>2019-07-14T11:50:08Z</time>
      </trkpt>
      <trkpt lat="47.80089" lon="-3.66236">
        <ele>31</ele>
        <time>2019-07-14T11:50:09Z</time>
      </trkpt>
      <trkpt lat="47.80093" lon="-3.66235">
        <ele>31</ele>
        <time>2019-07-14T11:50:10Z</time>
      </trkpt>
      <trkpt lat="47.80097" lon="-3.66231">
        <ele>31</ele>
        <time>2019-07-14T11:50:11Z</time>
      </trkpt>
      <trkpt lat="47.801" lon="-3.66226">
        <ele>31</ele>
        <time>2019-07-14T11:50:12Z</time>
      </trkpt>
      <trkpt lat="47.80104" lon="-3.6622">
        <ele>31</ele>
        <time>2019-07-14T11:50:13Z</time>
      </trkpt>
      <trkpt lat="47.80107" lon="-3.66215">
        <ele>31</ele>
        <time>2019-07-14T11:50:14Z</time>
      </trkpt>
      <trkpt lat="47.8011" lon="-3.66208">
        <ele>31</ele>
        <time>2019-07-14T11:50:15Z</time>
      </trkpt>
      <trkpt lat="47.80113" lon="-3.66202">
        <ele>31</ele>
        <time>2019-07-14T11:50:16Z</time>
      </trkpt>
      <trkpt lat="47.80116" lon="-3.66197">
        <ele>32</ele>
        <time>2019-07-14T11:50:17Z</time>
      </trkpt>
      <trkpt lat="47.80119" lon="-3.66191">
        <ele>32</ele>
        <time>2019-07-14T11:50:18Z</time>
      </trkpt>
      <trkpt lat="47.80121" lon="-3.66185">
        <ele>32</ele>
        <time>2019-07-14T11:50:19Z</time>
      </trkpt>
      <trkpt lat="47.80123" lon="-3.66179">
        <ele>32</ele>
        <time>2019-07-14T11:50:20Z</time>
      </trkpt>
      <trkpt lat="47.80126" lon="-3.66173">
        <ele>32</ele>
        <time>2019-07-14T11:50:21Z</time>
      </trkpt>
      <trkpt lat="47.80129" lon="-3.66167">
        <ele>32</ele>
        <time>2019-07-14T11:50:22Z</time>
      </trkpt>
      <trkpt lat="47.80132" lon="-3.6616">
        <ele>32</ele>
        <time>2019-07-14T11:50:23Z</time>
      </trkpt>
      <trkpt lat="47.80132" lon="-3.6616">
        <ele>32</ele>
        <time>2019-07-14T11:50:28Z</time>
      </trkpt>
      <trkpt lat="47.80132" lon="-3.6616">
        <ele>33</ele>
        <time>2019-07-14T11:50:29Z</time>
      </trkpt>
      <trkpt lat="47.80152" lon="-3.66116">
        <ele>33</ele>
        <time>2019-07-14T11:50:30Z</time>
      </trkpt>
      <trkpt lat="47.80155" lon="-3.6611">
        <ele>34</ele>
        <time>2019-07-14T11:50:31Z</time>
      </trkpt>
      <trkpt lat="47.80159" lon="-3.66104">
        <ele>34</ele>
        <time>2019-07-14T11:50:32Z</time>
      </trkpt>
      <trkpt lat="47.80162" lon="-3.66097">
        <ele>35</ele>
        <time>2019-07-14T11:50:33Z</time>
      </trkpt>
      <trkpt lat="47.80165" lon="-3.66091">
        <ele>35</ele>
        <time>2019-07-14T11:50:34Z</time>
      </trkpt>
      <trkpt lat="47.80169" lon="-3.66084">
        <ele>36</ele>
        <time>2019-07-14T11:50:35Z</time>
      </trkpt>
      <trkpt lat="47.80173" lon="-3.66078">
        <ele>36</ele>
        <time>2019-07-14T11:50:36Z</time>
      </trkpt>
      <trkpt lat="47.80177" lon="-3.66071">
        <ele>37</ele>
        <time>2019-07-14T11:50:37Z</time>
      </trkpt>
      <trkpt lat="47.8018" lon="-3.66066">
        <ele>37</ele>
        <time>2019-07-14T11:50:38Z</time>
      </trkpt>
      <trkpt lat="47.80185" lon="-3.6606">
        <ele>37</ele>
        <time>2019-07-14T11:50:39Z</time>
      </trkpt>
      <trkpt lat="47.8019" lon="-3.66055">
        <ele>37</ele>
        <time>2019-07-14T11:50:40Z</time>
      </trkpt>
      <trkpt lat="47.80195" lon="-3.6605">
        <ele>37</ele>
        <time>2019-07-14T11:50:41Z</time>
      </trkpt>
      <trkpt lat="47.80199" lon="-3.66045">
        <ele>37</ele>
        <time>2019-07-14T11:50:42Z</time>
      </trkpt>
      <trkpt lat="47.80203" lon="-3.6604">
        <ele>37</ele>
        <time>2019-07-14T11:50:43Z</time>
      </trkpt>
      <trkpt lat="47.80208" lon="-3.66035">
        <ele>37</ele>
        <time>2019-07-14T11:50:44Z</time>
      </trkpt>
      <trkpt lat="47.80213" lon="-3.66029">
        <ele>37</ele>
        <time>2019-07-14T11:50:45Z</time>
      </trkpt>
      <trkpt lat="47.80218" lon="-3.66024">
        <ele>37</ele>
        <time>2019-07-14T11:50:46Z</time>
      </trkpt>
      <trkpt lat="47.80222" lon="-3.66019">
        <ele>38</ele>
        <time>2019-07-14T11:50:47Z</time>
      </trkpt>
      <trkpt lat="47.80227" lon="-3.66015">
        <ele>38</ele>
        <time>2019-07-14T11:50:48Z</time>
      </trkpt>
      <trkpt lat="47.80231" lon="-3.6601">
        <ele>37</ele>
        <time>2019-07-14T11:50:49Z</time>
      </trkpt>
      <trkpt lat="47.80235" lon="-3.66005">
        <ele>37</ele>
        <time>2019-07-14T11:50:50Z</time>
      </trkpt>
      <trkpt lat="47.8024" lon="-3.66">
        <ele>37</ele>
        <time>2019-07-14T11:50:51Z</time>
      </trkpt>
      <trkpt lat="47.80244" lon="-3.65995">
        <ele>36</ele>
        <time>2019-07-14T11:50:52Z</time>
      </trkpt>
      <trkpt lat="47.80249" lon="-3.6599">
        <ele>36</ele>
        <time>2019-07-14T11:50:53Z</time>
      </trkpt>
      <trkpt lat="47.80254" lon="-3.65984">
        <ele>36</ele>
        <time>2019-07-14T11:50:54Z</time>
      </trkpt>
      <trkpt lat="47.80258" lon="-3.65979">
        <ele>35</ele>
        <time>2019-07-14T11:50:55Z</time>
      </trkpt>
      <trkpt lat="47.80262" lon="-3.65974">
        <ele>34</ele>
        <time>2019-07-14T11:50:56Z</time>
      </trkpt>
      <trkpt lat="47.80267" lon="-3.65969">
        <ele>34</ele>
        <time>2019-07-14T11:50:57Z</time>
      </trkpt>
      <trkpt lat="47.80272" lon="-3.65963">
        <ele>34</ele>
        <time>2019-07-14T11:50:58Z</time>
      </trkpt>
      <trkpt lat="47.80277" lon="-3.65958">
        <ele>34</ele>
        <time>2019-07-14T11:50:59Z</time>
      </trkpt>
      <trkpt lat="47.80282" lon="-3.65952">
        <ele>35</ele>
        <time>2019-07-14T11:51:00Z</time>
      </trkpt>
      <trkpt lat="47.80287" lon="-3.65947">
        <ele>35</ele>
        <time>2019-07-14T11:51:01Z</time>
      </trkpt>
      <trkpt lat="47.80292" lon="-3.65942">
        <ele>35</ele>
        <time>2019-07-14T11:51:02Z</time>
      </trkpt>
      <trkpt lat="47.80297" lon="-3.65937">
        <ele>35</ele>
        <time>2019-07-14T11:51:03Z</time>
      </trkpt>
      <trkpt lat="47.80302" lon="-3.65931">
        <ele>35</ele>
        <time>2019-07-14T11:51:04Z</time>
      </trkpt>
      <trkpt lat="47.80306" lon="-3.65926">
        <ele>34</ele>
        <time>2019-07-14T11:51:05Z</time>
      </trkpt>
      <trkpt lat="47.80312" lon="-3.6592">
        <ele>35</ele>
        <time>2019-07-14T11:51:06Z</time>
      </trkpt>
      <trkpt lat="47.80316" lon="-3.65916">
        <ele>34</ele>
        <time>2019-07-14T11:51:07Z</time>
      </trkpt>
      <trkpt lat="47.8032" lon="-3.65911">
        <ele>34</ele>
        <time>2019-07-14T11:51:08Z</time>
      </trkpt>
      <trkpt lat="47.80323" lon="-3.65908">
        <ele>33</ele>
        <time>2019-07-14T11:51:09Z</time>
      </trkpt>
      <trkpt lat="47.80327" lon="-3.65904">
        <ele>33</ele>
        <time>2019-07-14T11:51:10Z</time>
      </trkpt>
      <trkpt lat="47.80331" lon="-3.659">
        <ele>33</ele>
        <time>2019-07-14T11:51:11Z</time>
      </trkpt>
      <trkpt lat="47.80335" lon="-3.65896">
        <ele>32</ele>
        <time>2019-07-14T11:51:12Z</time>
      </trkpt>
      <trkpt lat="47.80339" lon="-3.65892">
        <ele>32</ele>
        <time>2019-07-14T11:51:13Z</time>
      </trkpt>
      <trkpt lat="47.80342" lon="-3.65889">
        <ele>32</ele>
        <time>2019-07-14T11:51:14Z</time>
      </trkpt>
      <trkpt lat="47.80346" lon="-3.65885">
        <ele>32</ele>
        <time>2019-07-14T11:51:15Z</time>
      </trkpt>
      <trkpt lat="47.8035" lon="-3.65881">
        <ele>32</ele>
        <time>2019-07-14T11:51:16Z</time>
      </trkpt>
      <trkpt lat="47.80355" lon="-3.65876">
        <ele>32</ele>
        <time>2019-07-14T11:51:17Z</time>
      </trkpt>
      <trkpt lat="47.8036" lon="-3.65871">
        <ele>32</ele>
        <time>2019-07-14T11:51:18Z</time>
      </trkpt>
      <trkpt lat="47.80366" lon="-3.65866">
        <ele>33</ele>
        <time>2019-07-14T11:51:19Z</time>
      </trkpt>
      <trkpt lat="47.80371" lon="-3.65861">
        <ele>33</ele>
        <time>2019-07-14T11:51:20Z</time>
      </trkpt>
      <trkpt lat="47.80376" lon="-3.65856">
        <ele>33</ele>
        <time>2019-07-14T11:51:21Z</time>
      </trkpt>
      <trkpt lat="47.80381" lon="-3.65851">
        <ele>33</ele>
        <time>2019-07-14T11:51:22Z</time>
      </trkpt>
      <trkpt lat="47.80385" lon="-3.65846">
        <ele>33</ele>
        <time>2019-07-14T11:51:23Z</time>
      </trkpt>
      <trkpt lat="47.80389" lon="-3.65841">
        <ele>34</ele>
        <time>2019-07-14T11:51:24Z</time>
      </trkpt>
      <trkpt lat="47.80393" lon="-3.65837">
        <ele>34</ele>
        <time>2019-07-14T11:51:25Z</time>
      </trkpt>
      <trkpt lat="47.80398" lon="-3.65832">
        <ele>34</ele>
        <time>2019-07-14T11:51:26Z</time>
      </trkpt>
      <trkpt lat="47.80401" lon="-3.65829">
        <ele>34</ele>
        <time>2019-07-14T11:51:27Z</time>
      </trkpt>
      <trkpt lat="47.80406" lon="-3.65826">
        <ele>34</ele>
        <time>2019-07-14T11:51:28Z</time>
      </trkpt>
      <trkpt lat="47.8041" lon="-3.65823">
        <ele>34</ele>
        <time>2019-07-14T11:51:29Z</time>
      </trkpt>
      <trkpt lat="47.80415" lon="-3.65819">
        <ele>34</ele>
        <time>2019-07-14T11:51:30Z</time>
      </trkpt>
      <trkpt lat="47.80419" lon="-3.65815">
        <ele>34</ele>
        <time>2019-07-14T11:51:31Z</time>
      </trkpt>
      <trkpt lat="47.80424" lon="-3.65812">
        <ele>34</ele>
        <time>2019-07-14T11:51:32Z</time>
      </trkpt>
      <trkpt lat="47.80428" lon="-3.65808">
        <ele>34</ele>
        <time>2019-07-14T11:51:33Z</time>
      </trkpt>
      <trkpt lat="47.80433" lon="-3.65802">
        <ele>34</ele>
        <time>2019-07-14T11:51:34Z</time>
      </trkpt>
      <trkpt lat="47.80437" lon="-3.65798">
        <ele>34</ele>
        <time>2019-07-14T11:51:35Z</time>
      </trkpt>
      <trkpt lat="47.80442" lon="-3.65793">
        <ele>34</ele>
        <time>2019-07-14T11:51:36Z</time>
      </trkpt>
      <trkpt lat="47.80447" lon="-3.65789">
        <ele>34</ele>
        <time>2019-07-14T11:51:37Z</time>
      </trkpt>
      <trkpt lat="47.80451" lon="-3.65786">
        <ele>34</ele>
        <time>2019-07-14T11:51:38Z</time>
      </trkpt>
      <trkpt lat="47.80455" lon="-3.65784">
        <ele>34</ele>
        <time>2019-07-14T11:51:39Z</time>
      </trkpt>
      <trkpt lat="47.80458" lon="-3.65782">
        <ele>33</ele>
        <time>2019-07-14T11:51:40Z</time>
      </trkpt>
      <trkpt lat="47.80462" lon="-3.6578">
        <ele>34</ele>
        <time>2019-07-14T11:51:41Z</time>
      </trkpt>
      <trkpt lat="47.80465" lon="-3.65777">
        <ele>34</ele>
        <time>2019-07-14T11:51:42Z</time>
      </trkpt>
      <trkpt lat="47.80467" lon="-3.65775">
        <ele>34</ele>
        <time>2019-07-14T11:51:43Z</time>
      </trkpt>
      <trkpt lat="47.8047" lon="-3.65772">
        <ele>34</ele>
        <time>2019-07-14T11:51:44Z</time>
      </trkpt>
      <trkpt lat="47.80472" lon="-3.65768">
        <ele>34</ele>
        <time>2019-07-14T11:51:45Z</time>
      </trkpt>
      <trkpt lat="47.80474" lon="-3.65764">
        <ele>34</ele>
        <time>2019-07-14T11:51:46Z</time>
      </trkpt>
      <trkpt lat="47.80476" lon="-3.65762">
        <ele>35</ele>
        <time>2019-07-14T11:51:47Z</time>
      </trkpt>
      <trkpt lat="47.80477" lon="-3.6576">
        <ele>35</ele>
        <time>2019-07-14T11:51:48Z</time>
      </trkpt>
      <trkpt lat="47.80479" lon="-3.65759">
        <ele>35</ele>
        <time>2019-07-14T11:51:49Z</time>
      </trkpt>
      <trkpt lat="47.8048" lon="-3.65759">
        <ele>36</ele>
        <time>2019-07-14T11:51:50Z</time>
      </trkpt>
      <trkpt lat="47.8048" lon="-3.65759">
        <ele>37</ele>
        <time>2019-07-14T11:51:51Z</time>
      </trkpt>
      <trkpt lat="47.8048" lon="-3.65759">
        <ele>38</ele>
        <time>2019-07-14T11:51:52Z</time>
      </trkpt>
      <trkpt lat="47.80491" lon="-3.65747">
        <ele>40</ele>
        <time>2019-07-14T11:51:53Z</time>
      </trkpt>
      <trkpt lat="47.8049" lon="-3.65747">
        <ele>40</ele>
        <time>2019-07-14T11:51:54Z</time>
      </trkpt>
      <trkpt lat="47.80487" lon="-3.65737">
        <ele>47</ele>
        <time>2019-07-14T11:51:57Z</time>
      </trkpt>
      <trkpt lat="47.80499" lon="-3.65736">
        <ele>71</ele>
        <time>2019-07-14T11:51:58Z</time>
      </trkpt>
      <trkpt lat="47.805" lon="-3.65736">
        <ele>74</ele>
        <time>2019-07-14T11:51:59Z</time>
      </trkpt>
      <trkpt lat="47.805" lon="-3.65736">
        <ele>76</ele>
        <time>2019-07-14T11:52:00Z</time>
      </trkpt>
      <trkpt lat="47.80507" lon="-3.65735">
        <ele>78</ele>
        <time>2019-07-14T11:52:01Z</time>
      </trkpt>
      <trkpt lat="47.80508" lon="-3.65733">
        <ele>77</ele>
        <time>2019-07-14T11:52:02Z</time>
      </trkpt>
      <trkpt lat="47.8051" lon="-3.6573">
        <ele>76</ele>
        <time>2019-07-14T11:52:03Z</time>
      </trkpt>
      <trkpt lat="47.80512" lon="-3.65727">
        <ele>75</ele>
        <time>2019-07-14T11:52:04Z</time>
      </trkpt>
      <trkpt lat="47.80513" lon="-3.65723">
        <ele>75</ele>
        <time>2019-07-14T11:52:05Z</time>
      </trkpt>
      <trkpt lat="47.80514" lon="-3.6572">
        <ele>74</ele>
        <time>2019-07-14T11:52:06Z</time>
      </trkpt>
      <trkpt lat="47.80514" lon="-3.65717">
        <ele>73</ele>
        <time>2019-07-14T11:52:07Z</time>
      </trkpt>
      <trkpt lat="47.80515" lon="-3.65714">
        <ele>72</ele>
        <time>2019-07-14T11:52:08Z</time>
      </trkpt>
      <trkpt lat="47.80515" lon="-3.65712">
        <ele>71</ele>
        <time>2019-07-14T11:52:09Z</time>
      </trkpt>
      <trkpt lat="47.80516" lon="-3.65709">
        <ele>70</ele>
        <time>2019-07-14T11:52:10Z</time>
      </trkpt>
      <trkpt lat="47.80518" lon="-3.65705">
        <ele>69</ele>
        <time>2019-07-14T11:52:11Z</time>
      </trkpt>
      <trkpt lat="47.80519" lon="-3.65701">
        <ele>68</ele>
        <time>2019-07-14T11:52:12Z</time>
      </trkpt>
      <trkpt lat="47.8052" lon="-3.65698">
        <ele>68</ele>
        <time>2019-07-14T11:52:13Z</time>
      </trkpt>
      <trkpt lat="47.80521" lon="-3.65694">
        <ele>67</ele>
        <time>2019-07-14T11:52:14Z</time>
      </trkpt>
      <trkpt lat="47.80522" lon="-3.6569">
        <ele>67</ele>
        <time>2019-07-14T11:52:15Z</time>
      </trkpt>
      <trkpt lat="47.80522" lon="-3.65686">
        <ele>66</ele>
        <time>2019-07-14T11:52:16Z</time>
      </trkpt>
      <trkpt lat="47.80522" lon="-3.65681">
        <ele>66</ele>
        <time>2019-07-14T11:52:17Z</time>
      </trkpt>
      <trkpt lat="47.80522" lon="-3.65675">
        <ele>65</ele>
        <time>2019-07-14T11:52:18Z</time>
      </trkpt>
      <trkpt lat="47.80523" lon="-3.6567">
        <ele>65</ele>
        <time>2019-07-14T11:52:19Z</time>
      </trkpt>
      <trkpt lat="47.80524" lon="-3.65664">
        <ele>64</ele>
        <time>2019-07-14T11:52:20Z</time>
      </trkpt>
      <trkpt lat="47.80524" lon="-3.65659">
        <ele>64</ele>
        <time>2019-07-14T11:52:21Z</time>
      </trkpt>
      <trkpt lat="47.80525" lon="-3.65654">
        <ele>63</ele>
        <time>2019-07-14T11:52:22Z</time>
      </trkpt>
      <trkpt lat="47.80525" lon="-3.6565">
        <ele>63</ele>
        <time>2019-07-14T11:52:23Z</time>
      </trkpt>
      <trkpt lat="47.80526" lon="-3.65646">
        <ele>62</ele>
        <time>2019-07-14T11:52:24Z</time>
      </trkpt>
      <trkpt lat="47.80527" lon="-3.65641">
        <ele>62</ele>
        <time>2019-07-14T11:52:25Z</time>
      </trkpt>
      <trkpt lat="47.80529" lon="-3.65635">
        <ele>62</ele>
        <time>2019-07-14T11:52:26Z</time>
      </trkpt>
      <trkpt lat="47.8053" lon="-3.65629">
        <ele>61</ele>
        <time>2019-07-14T11:52:27Z</time>
      </trkpt>
      <trkpt lat="47.80531" lon="-3.65623">
        <ele>61</ele>
        <time>2019-07-14T11:52:28Z</time>
      </trkpt>
      <trkpt lat="47.80533" lon="-3.65617">
        <ele>61</ele>
        <time>2019-07-14T11:52:29Z</time>
      </trkpt>
      <trkpt lat="47.80535" lon="-3.65611">
        <ele>60</ele>
        <time>2019-07-14T11:52:30Z</time>
      </trkpt>
      <trkpt lat="47.80537" lon="-3.65605">
        <ele>60</ele>
        <time>2019-07-14T11:52:31Z</time>
      </trkpt>
      <trkpt lat="47.80538" lon="-3.65599">
        <ele>59</ele>
        <time>2019-07-14T11:52:32Z</time>
      </trkpt>
      <trkpt lat="47.80539" lon="-3.65594">
        <ele>59</ele>
        <time>2019-07-14T11:52:33Z</time>
      </trkpt>
      <trkpt lat="47.8054" lon="-3.65588">
        <ele>59</ele>
        <time>2019-07-14T11:52:34Z</time>
      </trkpt>
      <trkpt lat="47.80541" lon="-3.65582">
        <ele>58</ele>
        <time>2019-07-14T11:52:35Z</time>
      </trkpt>
      <trkpt lat="47.80542" lon="-3.65576">
        <ele>58</ele>
        <time>2019-07-14T11:52:36Z</time>
      </trkpt>
      <trkpt lat="47.80544" lon="-3.6557">
        <ele>57</ele>
        <time>2019-07-14T11:52:37Z</time>
      </trkpt>
      <trkpt lat="47.80546" lon="-3.65564">
        <ele>57</ele>
        <time>2019-07-14T11:52:38Z</time>
      </trkpt>
      <trkpt lat="47.80548" lon="-3.65558">
        <ele>57</ele>
        <time>2019-07-14T11:52:39Z</time>
      </trkpt>
      <trkpt lat="47.8055" lon="-3.65552">
        <ele>57</ele>
        <time>2019-07-14T11:52:40Z</time>
      </trkpt>
      <trkpt lat="47.80552" lon="-3.65546">
        <ele>57</ele>
        <time>2019-07-14T11:52:41Z</time>
      </trkpt>
      <trkpt lat="47.80553" lon="-3.6554">
        <ele>57</ele>
        <time>2019-07-14T11:52:42Z</time>
      </trkpt>
      <trkpt lat="47.80554" lon="-3.65535">
        <ele>57</ele>
        <time>2019-07-14T11:52:43Z</time>
      </trkpt>
      <trkpt lat="47.80556" lon="-3.65529">
        <ele>56</ele>
        <time>2019-07-14T11:52:44Z</time>
      </trkpt>
      <trkpt lat="47.80558" lon="-3.65523">
        <ele>56</ele>
        <time>2019-07-14T11:52:45Z</time>
      </trkpt>
      <trkpt lat="47.8056" lon="-3.65516">
        <ele>56</ele>
        <time>2019-07-14T11:52:46Z</time>
      </trkpt>
      <trkpt lat="47.80561" lon="-3.6551">
        <ele>56</ele>
        <time>2019-07-14T11:52:47Z</time>
      </trkpt>
      <trkpt lat="47.80564" lon="-3.65505">
        <ele>56</ele>
        <time>2019-07-14T11:52:48Z</time>
      </trkpt>
      <trkpt lat="47.80565" lon="-3.655">
        <ele>56</ele>
        <time>2019-07-14T11:52:49Z</time>
      </trkpt>
      <trkpt lat="47.80567" lon="-3.65495">
        <ele>56</ele>
        <time>2019-07-14T11:52:50Z</time>
      </trkpt>
      <trkpt lat="47.80568" lon="-3.65491">
        <ele>56</ele>
        <time>2019-07-14T11:52:51Z</time>
      </trkpt>
      <trkpt lat="47.80569" lon="-3.65487">
        <ele>56</ele>
        <time>2019-07-14T11:52:52Z</time>
      </trkpt>
      <trkpt lat="47.80571" lon="-3.65482">
        <ele>56</ele>
        <time>2019-07-14T11:52:53Z</time>
      </trkpt>
      <trkpt lat="47.80572" lon="-3.65478">
        <ele>56</ele>
        <time>2019-07-14T11:52:54Z</time>
      </trkpt>
      <trkpt lat="47.80575" lon="-3.65474">
        <ele>56</ele>
        <time>2019-07-14T11:52:55Z</time>
      </trkpt>
      <trkpt lat="47.80577" lon="-3.65469">
        <ele>55</ele>
        <time>2019-07-14T11:52:56Z</time>
      </trkpt>
      <trkpt lat="47.80579" lon="-3.65465">
        <ele>55</ele>
        <time>2019-07-14T11:52:57Z</time>
      </trkpt>
      <trkpt lat="47.8058" lon="-3.65461">
        <ele>55</ele>
        <time>2019-07-14T11:52:58Z</time>
      </trkpt>
      <trkpt lat="47.80582" lon="-3.65457">
        <ele>55</ele>
        <time>2019-07-14T11:52:59Z</time>
      </trkpt>
      <trkpt lat="47.80584" lon="-3.65453">
        <ele>55</ele>
        <time>2019-07-14T11:53:00Z</time>
      </trkpt>
      <trkpt lat="47.80585" lon="-3.65448">
        <ele>55</ele>
        <time>2019-07-14T11:53:01Z</time>
      </trkpt>
      <trkpt lat="47.80586" lon="-3.65445">
        <ele>55</ele>
        <time>2019-07-14T11:53:02Z</time>
      </trkpt>
      <trkpt lat="47.80587" lon="-3.65442">
        <ele>55</ele>
        <time>2019-07-14T11:53:03Z</time>
      </trkpt>
      <trkpt lat="47.80589" lon="-3.65438">
        <ele>56</ele>
        <time>2019-07-14T11:53:04Z</time>
      </trkpt>
      <trkpt lat="47.80592" lon="-3.65434">
        <ele>56</ele>
        <time>2019-07-14T11:53:05Z</time>
      </trkpt>
      <trkpt lat="47.80595" lon="-3.65429">
        <ele>56</ele>
        <time>2019-07-14T11:53:06Z</time>
      </trkpt>
      <trkpt lat="47.80597" lon="-3.65424">
        <ele>56</ele>
        <time>2019-07-14T11:53:07Z</time>
      </trkpt>
      <trkpt lat="47.80599" lon="-3.65419">
        <ele>56</ele>
        <time>2019-07-14T11:53:08Z</time>
      </trkpt>
      <trkpt lat="47.80602" lon="-3.65415">
        <ele>56</ele>
        <time>2019-07-14T11:53:09Z</time>
      </trkpt>
      <trkpt lat="47.80604" lon="-3.65408">
        <ele>56</ele>
        <time>2019-07-14T11:53:10Z</time>
      </trkpt>
      <trkpt lat="47.80606" lon="-3.65403">
        <ele>56</ele>
        <time>2019-07-14T11:53:11Z</time>
      </trkpt>
      <trkpt lat="47.80608" lon="-3.65399">
        <ele>56</ele>
        <time>2019-07-14T11:53:12Z</time>
      </trkpt>
      <trkpt lat="47.80609" lon="-3.65395">
        <ele>56</ele>
        <time>2019-07-14T11:53:13Z</time>
      </trkpt>
      <trkpt lat="47.8061" lon="-3.65392">
        <ele>56</ele>
        <time>2019-07-14T11:53:14Z</time>
      </trkpt>
      <trkpt lat="47.80611" lon="-3.65388">
        <ele>56</ele>
        <time>2019-07-14T11:53:15Z</time>
      </trkpt>
      <trkpt lat="47.80612" lon="-3.65385">
        <ele>56</ele>
        <time>2019-07-14T11:53:16Z</time>
      </trkpt>
      <trkpt lat="47.80614" lon="-3.65381">
        <ele>56</ele>
        <time>2019-07-14T11:53:17Z</time>
      </trkpt>
      <trkpt lat="47.80615" lon="-3.65376">
        <ele>56</ele>
        <time>2019-07-14T11:53:18Z</time>
      </trkpt>
      <trkpt lat="47.80617" lon="-3.65373">
        <ele>56</ele>
        <time>2019-07-14T11:53:19Z</time>
      </trkpt>
      <trkpt lat="47.80619" lon="-3.65371">
        <ele>56</ele>
        <time>2019-07-14T11:53:20Z</time>
      </trkpt>
      <trkpt lat="47.8062" lon="-3.65368">
        <ele>57</ele>
        <time>2019-07-14T11:53:21Z</time>
      </trkpt>
      <trkpt lat="47.80621" lon="-3.65366">
        <ele>57</ele>
        <time>2019-07-14T11:53:22Z</time>
      </trkpt>
      <trkpt lat="47.80622" lon="-3.65364">
        <ele>57</ele>
        <time>2019-07-14T11:53:23Z</time>
      </trkpt>
      <trkpt lat="47.80623" lon="-3.65362">
        <ele>57</ele>
        <time>2019-07-14T11:53:24Z</time>
      </trkpt>
      <trkpt lat="47.80625" lon="-3.6536">
        <ele>57</ele>
        <time>2019-07-14T11:53:25Z</time>
      </trkpt>
      <trkpt lat="47.80626" lon="-3.65358">
        <ele>57</ele>
        <time>2019-07-14T11:53:26Z</time>
      </trkpt>
      <trkpt lat="47.80627" lon="-3.65356">
        <ele>57</ele>
        <time>2019-07-14T11:53:27Z</time>
      </trkpt>
      <trkpt lat="47.80628" lon="-3.65353">
        <ele>57</ele>
        <time>2019-07-14T11:53:28Z</time>
      </trkpt>
      <trkpt lat="47.80629" lon="-3.65351">
        <ele>57</ele>
        <time>2019-07-14T11:53:29Z</time>
      </trkpt>
      <trkpt lat="47.80631" lon="-3.65348">
        <ele>57</ele>
        <time>2019-07-14T11:53:30Z</time>
      </trkpt>
      <trkpt lat="47.80633" lon="-3.65346">
        <ele>57</ele>
        <time>2019-07-14T11:53:31Z</time>
      </trkpt>
      <trkpt lat="47.80635" lon="-3.65343">
        <ele>57</ele>
        <time>2019-07-14T11:53:32Z</time>
      </trkpt>
      <trkpt lat="47.80637" lon="-3.6534">
        <ele>57</ele>
        <time>2019-07-14T11:53:33Z</time>
      </trkpt>
      <trkpt lat="47.80639" lon="-3.65338">
        <ele>57</ele>
        <time>2019-07-14T11:53:34Z</time>
      </trkpt>
      <trkpt lat="47.80641" lon="-3.65335">
        <ele>57</ele>
        <time>2019-07-14T11:53:35Z</time>
      </trkpt>
      <trkpt lat="47.80643" lon="-3.65332">
        <ele>57</ele>
        <time>2019-07-14T11:53:36Z</time>
      </trkpt>
      <trkpt lat="47.80645" lon="-3.65328">
        <ele>58</ele>
        <time>2019-07-14T11:53:37Z</time>
      </trkpt>
      <trkpt lat="47.80648" lon="-3.65323">
        <ele>58</ele>
        <time>2019-07-14T11:53:38Z</time>
      </trkpt>
      <trkpt lat="47.80651" lon="-3.65317">
        <ele>58</ele>
        <time>2019-07-14T11:53:39Z</time>
      </trkpt>
      <trkpt lat="47.80653" lon="-3.65311">
        <ele>58</ele>
        <time>2019-07-14T11:53:40Z</time>
      </trkpt>
      <trkpt lat="47.80655" lon="-3.65304">
        <ele>58</ele>
        <time>2019-07-14T11:53:41Z</time>
      </trkpt>
      <trkpt lat="47.80658" lon="-3.65297">
        <ele>58</ele>
        <time>2019-07-14T11:53:42Z</time>
      </trkpt>
      <trkpt lat="47.80662" lon="-3.6529">
        <ele>58</ele>
        <time>2019-07-14T11:53:43Z</time>
      </trkpt>
      <trkpt lat="47.80664" lon="-3.65283">
        <ele>58</ele>
        <time>2019-07-14T11:53:44Z</time>
      </trkpt>
      <trkpt lat="47.80667" lon="-3.65277">
        <ele>58</ele>
        <time>2019-07-14T11:53:45Z</time>
      </trkpt>
      <trkpt lat="47.8067" lon="-3.65271">
        <ele>58</ele>
        <time>2019-07-14T11:53:46Z</time>
      </trkpt>
      <trkpt lat="47.80673" lon="-3.65265">
        <ele>58</ele>
        <time>2019-07-14T11:53:47Z</time>
      </trkpt>
      <trkpt lat="47.80676" lon="-3.65259">
        <ele>58</ele>
        <time>2019-07-14T11:53:48Z</time>
      </trkpt>
      <trkpt lat="47.80679" lon="-3.65253">
        <ele>58</ele>
        <time>2019-07-14T11:53:49Z</time>
      </trkpt>
      <trkpt lat="47.80682" lon="-3.65246">
        <ele>58</ele>
        <time>2019-07-14T11:53:50Z</time>
      </trkpt>
      <trkpt lat="47.80684" lon="-3.65239">
        <ele>58</ele>
        <time>2019-07-14T11:53:51Z</time>
      </trkpt>
      <trkpt lat="47.80687" lon="-3.65233">
        <ele>58</ele>
        <time>2019-07-14T11:53:52Z</time>
      </trkpt>
      <trkpt lat="47.8069" lon="-3.65227">
        <ele>58</ele>
        <time>2019-07-14T11:53:53Z</time>
      </trkpt>
      <trkpt lat="47.80692" lon="-3.65222">
        <ele>58</ele>
        <time>2019-07-14T11:53:54Z</time>
      </trkpt>
      <trkpt lat="47.80694" lon="-3.65217">
        <ele>58</ele>
        <time>2019-07-14T11:53:55Z</time>
      </trkpt>
      <trkpt lat="47.80697" lon="-3.6521">
        <ele>58</ele>
        <time>2019-07-14T11:53:56Z</time>
      </trkpt>
      <trkpt lat="47.807" lon="-3.65203">
        <ele>58</ele>
        <time>2019-07-14T11:53:57Z</time>
      </trkpt>
      <trkpt lat="47.80703" lon="-3.65196">
        <ele>58</ele>
        <time>2019-07-14T11:53:58Z</time>
      </trkpt>
      <trkpt lat="47.80705" lon="-3.65189">
        <ele>58</ele>
        <time>2019-07-14T11:53:59Z</time>
      </trkpt>
      <trkpt lat="47.80707" lon="-3.65183">
        <ele>58</ele>
        <time>2019-07-14T11:54:00Z</time>
      </trkpt>
      <trkpt lat="47.80708" lon="-3.65177">
        <ele>58</ele>
        <time>2019-07-14T11:54:01Z</time>
      </trkpt>
      <trkpt lat="47.8071" lon="-3.65171">
        <ele>58</ele>
        <time>2019-07-14T11:54:02Z</time>
      </trkpt>
      <trkpt lat="47.80711" lon="-3.65165">
        <ele>58</ele>
        <time>2019-07-14T11:54:03Z</time>
      </trkpt>
      <trkpt lat="47.80712" lon="-3.65159">
        <ele>58</ele>
        <time>2019-07-14T11:54:04Z</time>
      </trkpt>
      <trkpt lat="47.80713" lon="-3.65153">
        <ele>58</ele>
        <time>2019-07-14T11:54:05Z</time>
      </trkpt>
      <trkpt lat="47.80715" lon="-3.65148">
        <ele>58</ele>
        <time>2019-07-14T11:54:06Z</time>
      </trkpt>
      <trkpt lat="47.80716" lon="-3.65141">
        <ele>58</ele>
        <time>2019-07-14T11:54:07Z</time>
      </trkpt>
      <trkpt lat="47.80718" lon="-3.65135">
        <ele>58</ele>
        <time>2019-07-14T11:54:08Z</time>
      </trkpt>
      <trkpt lat="47.8072" lon="-3.65128">
        <ele>58</ele>
        <time>2019-07-14T11:54:09Z</time>
      </trkpt>
      <trkpt lat="47.80723" lon="-3.6512">
        <ele>58</ele>
        <time>2019-07-14T11:54:10Z</time>
      </trkpt>
      <trkpt lat="47.80726" lon="-3.65113">
        <ele>58</ele>
        <time>2019-07-14T11:54:11Z</time>
      </trkpt>
      <trkpt lat="47.80728" lon="-3.65105">
        <ele>58</ele>
        <time>2019-07-14T11:54:12Z</time>
      </trkpt>
      <trkpt lat="47.8073" lon="-3.65097">
        <ele>58</ele>
        <time>2019-07-14T11:54:13Z</time>
      </trkpt>
      <trkpt lat="47.80732" lon="-3.65091">
        <ele>58</ele>
        <time>2019-07-14T11:54:14Z</time>
      </trkpt>
      <trkpt lat="47.80733" lon="-3.65086">
        <ele>57</ele>
        <time>2019-07-14T11:54:15Z</time>
      </trkpt>
      <trkpt lat="47.80735" lon="-3.65084">
        <ele>57</ele>
        <time>2019-07-14T11:54:16Z</time>
      </trkpt>
      <trkpt lat="47.80738" lon="-3.65083">
        <ele>57</ele>
        <time>2019-07-14T11:54:17Z</time>
      </trkpt>
      <trkpt lat="47.80742" lon="-3.65083">
        <ele>57</ele>
        <time>2019-07-14T11:54:18Z</time>
      </trkpt>
      <trkpt lat="47.80744" lon="-3.65083">
        <ele>57</ele>
        <time>2019-07-14T11:54:19Z</time>
      </trkpt>
      <trkpt lat="47.80747" lon="-3.65083">
        <ele>57</ele>
        <time>2019-07-14T11:54:20Z</time>
      </trkpt>
      <trkpt lat="47.80751" lon="-3.65083">
        <ele>57</ele>
        <time>2019-07-14T11:54:21Z</time>
      </trkpt>
      <trkpt lat="47.80756" lon="-3.65083">
        <ele>57</ele>
        <time>2019-07-14T11:54:22Z</time>
      </trkpt>
      <trkpt lat="47.8076" lon="-3.65084">
        <ele>57</ele>
        <time>2019-07-14T11:54:23Z</time>
      </trkpt>
      <trkpt lat="47.80764" lon="-3.65085">
        <ele>57</ele>
        <time>2019-07-14T11:54:24Z</time>
      </trkpt>
      <trkpt lat="47.80768" lon="-3.65086">
        <ele>57</ele>
        <time>2019-07-14T11:54:25Z</time>
      </trkpt>
      <trkpt lat="47.80772" lon="-3.65087">
        <ele>57</ele>
        <time>2019-07-14T11:54:26Z</time>
      </trkpt>
      <trkpt lat="47.80776" lon="-3.65087">
        <ele>57</ele>
        <time>2019-07-14T11:54:27Z</time>
      </trkpt>
      <trkpt lat="47.80781" lon="-3.65087">
        <ele>57</ele>
        <time>2019-07-14T11:54:28Z</time>
      </trkpt>
      <trkpt lat="47.80785" lon="-3.65088">
        <ele>57</ele>
        <time>2019-07-14T11:54:29Z</time>
      </trkpt>
      <trkpt lat="47.80789" lon="-3.65089">
        <ele>56</ele>
        <time>2019-07-14T11:54:30Z</time>
      </trkpt>
      <trkpt lat="47.80793" lon="-3.6509">
        <ele>56</ele>
        <time>2019-07-14T11:54:31Z</time>
      </trkpt>
      <trkpt lat="47.80798" lon="-3.65092">
        <ele>56</ele>
        <time>2019-07-14T11:54:32Z</time>
      </trkpt>
      <trkpt lat="47.80802" lon="-3.65093">
        <ele>56</ele>
        <time>2019-07-14T11:54:33Z</time>
      </trkpt>
      <trkpt lat="47.80807" lon="-3.65094">
        <ele>56</ele>
        <time>2019-07-14T11:54:34Z</time>
      </trkpt>
      <trkpt lat="47.80812" lon="-3.65096">
        <ele>56</ele>
        <time>2019-07-14T11:54:35Z</time>
      </trkpt>
      <trkpt lat="47.80816" lon="-3.65097">
        <ele>56</ele>
        <time>2019-07-14T11:54:36Z</time>
      </trkpt>
      <trkpt lat="47.80821" lon="-3.65099">
        <ele>56</ele>
        <time>2019-07-14T11:54:37Z</time>
      </trkpt>
      <trkpt lat="47.80825" lon="-3.651">
        <ele>56</ele>
        <time>2019-07-14T11:54:38Z</time>
      </trkpt>
      <trkpt lat="47.80829" lon="-3.65101">
        <ele>56</ele>
        <time>2019-07-14T11:54:39Z</time>
      </trkpt>
      <trkpt lat="47.80833" lon="-3.65102">
        <ele>56</ele>
        <time>2019-07-14T11:54:40Z</time>
      </trkpt>
      <trkpt lat="47.80838" lon="-3.65103">
        <ele>56</ele>
        <time>2019-07-14T11:54:41Z</time>
      </trkpt>
      <trkpt lat="47.80842" lon="-3.65104">
        <ele>56</ele>
        <time>2019-07-14T11:54:42Z</time>
      </trkpt>
      <trkpt lat="47.80847" lon="-3.65105">
        <ele>56</ele>
        <time>2019-07-14T11:54:43Z</time>
      </trkpt>
      <trkpt lat="47.80851" lon="-3.65107">
        <ele>56</ele>
        <time>2019-07-14T11:54:44Z</time>
      </trkpt>
      <trkpt lat="47.80856" lon="-3.65108">
        <ele>56</ele>
        <time>2019-07-14T11:54:45Z</time>
      </trkpt>
      <trkpt lat="47.8086" lon="-3.65107">
        <ele>56</ele>
        <time>2019-07-14T11:54:46Z</time>
      </trkpt>
      <trkpt lat="47.80864" lon="-3.65103">
        <ele>56</ele>
        <time>2019-07-14T11:54:47Z</time>
      </trkpt>
      <trkpt lat="47.80865" lon="-3.65097">
        <ele>56</ele>
        <time>2019-07-14T11:54:48Z</time>
      </trkpt>
      <trkpt lat="47.80867" lon="-3.65091">
        <ele>55</ele>
        <time>2019-07-14T11:54:49Z</time>
      </trkpt>
      <trkpt lat="47.80869" lon="-3.65084">
        <ele>55</ele>
        <time>2019-07-14T11:54:50Z</time>
      </trkpt>
      <trkpt lat="47.80871" lon="-3.65077">
        <ele>55</ele>
        <time>2019-07-14T11:54:51Z</time>
      </trkpt>
      <trkpt lat="47.80872" lon="-3.65069">
        <ele>55</ele>
        <time>2019-07-14T11:54:52Z</time>
      </trkpt>
      <trkpt lat="47.80874" lon="-3.65061">
        <ele>55</ele>
        <time>2019-07-14T11:54:53Z</time>
      </trkpt>
      <trkpt lat="47.80875" lon="-3.65054">
        <ele>55</ele>
        <time>2019-07-14T11:54:54Z</time>
      </trkpt>
      <trkpt lat="47.80876" lon="-3.65046">
        <ele>55</ele>
        <time>2019-07-14T11:54:55Z</time>
      </trkpt>
      <trkpt lat="47.80879" lon="-3.65038">
        <ele>55</ele>
        <time>2019-07-14T11:54:56Z</time>
      </trkpt>
      <trkpt lat="47.80882" lon="-3.65032">
        <ele>54</ele>
        <time>2019-07-14T11:54:57Z</time>
      </trkpt>
      <trkpt lat="47.80885" lon="-3.65028">
        <ele>54</ele>
        <time>2019-07-14T11:54:58Z</time>
      </trkpt>
      <trkpt lat="47.80889" lon="-3.65026">
        <ele>54</ele>
        <time>2019-07-14T11:54:59Z</time>
      </trkpt>
      <trkpt lat="47.80894" lon="-3.65025">
        <ele>54</ele>
        <time>2019-07-14T11:55:00Z</time>
      </trkpt>
      <trkpt lat="47.80901" lon="-3.65026">
        <ele>54</ele>
        <time>2019-07-14T11:55:01Z</time>
      </trkpt>
      <trkpt lat="47.80907" lon="-3.65027">
        <ele>54</ele>
        <time>2019-07-14T11:55:02Z</time>
      </trkpt>
      <trkpt lat="47.80914" lon="-3.65027">
        <ele>54</ele>
        <time>2019-07-14T11:55:03Z</time>
      </trkpt>
      <trkpt lat="47.8092" lon="-3.65028">
        <ele>54</ele>
        <time>2019-07-14T11:55:04Z</time>
      </trkpt>
      <trkpt lat="47.80925" lon="-3.65029">
        <ele>53</ele>
        <time>2019-07-14T11:55:05Z</time>
      </trkpt>
      <trkpt lat="47.80931" lon="-3.65031">
        <ele>53</ele>
        <time>2019-07-14T11:55:06Z</time>
      </trkpt>
      <trkpt lat="47.80937" lon="-3.65033">
        <ele>53</ele>
        <time>2019-07-14T11:55:07Z</time>
      </trkpt>
      <trkpt lat="47.80943" lon="-3.65034">
        <ele>53</ele>
        <time>2019-07-14T11:55:08Z</time>
      </trkpt>
      <trkpt lat="47.8095" lon="-3.65036">
        <ele>53</ele>
        <time>2019-07-14T11:55:09Z</time>
      </trkpt>
      <trkpt lat="47.80957" lon="-3.65037">
        <ele>53</ele>
        <time>2019-07-14T11:55:10Z</time>
      </trkpt>
      <trkpt lat="47.80963" lon="-3.65039">
        <ele>53</ele>
        <time>2019-07-14T11:55:11Z</time>
      </trkpt>
      <trkpt lat="47.80971" lon="-3.65041">
        <ele>53</ele>
        <time>2019-07-14T11:55:12Z</time>
      </trkpt>
      <trkpt lat="47.80978" lon="-3.65044">
        <ele>53</ele>
        <time>2019-07-14T11:55:13Z</time>
      </trkpt>
      <trkpt lat="47.80986" lon="-3.65046">
        <ele>53</ele>
        <time>2019-07-14T11:55:14Z</time>
      </trkpt>
      <trkpt lat="47.80993" lon="-3.65049">
        <ele>52</ele>
        <time>2019-07-14T11:55:15Z</time>
      </trkpt>
      <trkpt lat="47.81001" lon="-3.65053">
        <ele>52</ele>
        <time>2019-07-14T11:55:16Z</time>
      </trkpt>
      <trkpt lat="47.81009" lon="-3.65056">
        <ele>52</ele>
        <time>2019-07-14T11:55:17Z</time>
      </trkpt>
      <trkpt lat="47.81017" lon="-3.65058">
        <ele>51</ele>
        <time>2019-07-14T11:55:18Z</time>
      </trkpt>
      <trkpt lat="47.81024" lon="-3.6506">
        <ele>51</ele>
        <time>2019-07-14T11:55:19Z</time>
      </trkpt>
      <trkpt lat="47.81032" lon="-3.65063">
        <ele>51</ele>
        <time>2019-07-14T11:55:20Z</time>
      </trkpt>
      <trkpt lat="47.8104" lon="-3.65066">
        <ele>51</ele>
        <time>2019-07-14T11:55:21Z</time>
      </trkpt>
      <trkpt lat="47.81047" lon="-3.65069">
        <ele>51</ele>
        <time>2019-07-14T11:55:22Z</time>
      </trkpt>
      <trkpt lat="47.81054" lon="-3.65072">
        <ele>51</ele>
        <time>2019-07-14T11:55:23Z</time>
      </trkpt>
      <trkpt lat="47.81062" lon="-3.65075">
        <ele>51</ele>
        <time>2019-07-14T11:55:24Z</time>
      </trkpt>
      <trkpt lat="47.81069" lon="-3.65078">
        <ele>51</ele>
        <time>2019-07-14T11:55:25Z</time>
      </trkpt>
      <trkpt lat="47.81077" lon="-3.65081">
        <ele>50</ele>
        <time>2019-07-14T11:55:26Z</time>
      </trkpt>
      <trkpt lat="47.81084" lon="-3.65084">
        <ele>50</ele>
        <time>2019-07-14T11:55:27Z</time>
      </trkpt>
      <trkpt lat="47.81091" lon="-3.65087">
        <ele>50</ele>
        <time>2019-07-14T11:55:28Z</time>
      </trkpt>
      <trkpt lat="47.81098" lon="-3.6509">
        <ele>50</ele>
        <time>2019-07-14T11:55:29Z</time>
      </trkpt>
      <trkpt lat="47.81104" lon="-3.65093">
        <ele>49</ele>
        <time>2019-07-14T11:55:30Z</time>
      </trkpt>
      <trkpt lat="47.81109" lon="-3.65092">
        <ele>49</ele>
        <time>2019-07-14T11:55:31Z</time>
      </trkpt>
      <trkpt lat="47.81114" lon="-3.65088">
        <ele>48</ele>
        <time>2019-07-14T11:55:32Z</time>
      </trkpt>
      <trkpt lat="47.8112" lon="-3.65083">
        <ele>48</ele>
        <time>2019-07-14T11:55:33Z</time>
      </trkpt>
      <trkpt lat="47.81126" lon="-3.65079">
        <ele>48</ele>
        <time>2019-07-14T11:55:34Z</time>
      </trkpt>
      <trkpt lat="47.81131" lon="-3.65076">
        <ele>48</ele>
        <time>2019-07-14T11:55:35Z</time>
      </trkpt>
      <trkpt lat="47.81137" lon="-3.65074">
        <ele>47</ele>
        <time>2019-07-14T11:55:36Z</time>
      </trkpt>
      <trkpt lat="47.81142" lon="-3.65074">
        <ele>47</ele>
        <time>2019-07-14T11:55:37Z</time>
      </trkpt>
      <trkpt lat="47.81147" lon="-3.65077">
        <ele>47</ele>
        <time>2019-07-14T11:55:38Z</time>
      </trkpt>
      <trkpt lat="47.81149" lon="-3.65082">
        <ele>47</ele>
        <time>2019-07-14T11:55:39Z</time>
      </trkpt>
      <trkpt lat="47.81151" lon="-3.65087">
        <ele>47</ele>
        <time>2019-07-14T11:55:40Z</time>
      </trkpt>
      <trkpt lat="47.81152" lon="-3.65092">
        <ele>46</ele>
        <time>2019-07-14T11:55:41Z</time>
      </trkpt>
      <trkpt lat="47.81153" lon="-3.65098">
        <ele>46</ele>
        <time>2019-07-14T11:55:42Z</time>
      </trkpt>
      <trkpt lat="47.81154" lon="-3.65104">
        <ele>46</ele>
        <time>2019-07-14T11:55:43Z</time>
      </trkpt>
      <trkpt lat="47.81153" lon="-3.6511">
        <ele>46</ele>
        <time>2019-07-14T11:55:44Z</time>
      </trkpt>
      <trkpt lat="47.81153" lon="-3.65116">
        <ele>46</ele>
        <time>2019-07-14T11:55:45Z</time>
      </trkpt>
      <trkpt lat="47.81153" lon="-3.65122">
        <ele>46</ele>
        <time>2019-07-14T11:55:46Z</time>
      </trkpt>
      <trkpt lat="47.81154" lon="-3.65127">
        <ele>46</ele>
        <time>2019-07-14T11:55:47Z</time>
      </trkpt>
      <trkpt lat="47.81156" lon="-3.65133">
        <ele>46</ele>
        <time>2019-07-14T11:55:48Z</time>
      </trkpt>
      <trkpt lat="47.8116" lon="-3.65137">
        <ele>46</ele>
        <time>2019-07-14T11:55:49Z</time>
      </trkpt>
      <trkpt lat="47.81164" lon="-3.6514">
        <ele>46</ele>
        <time>2019-07-14T11:55:50Z</time>
      </trkpt>
      <trkpt lat="47.81169" lon="-3.65142">
        <ele>46</ele>
        <time>2019-07-14T11:55:51Z</time>
      </trkpt>
      <trkpt lat="47.81173" lon="-3.65145">
        <ele>46</ele>
        <time>2019-07-14T11:55:52Z</time>
      </trkpt>
      <trkpt lat="47.81179" lon="-3.65147">
        <ele>46</ele>
        <time>2019-07-14T11:55:53Z</time>
      </trkpt>
      <trkpt lat="47.81184" lon="-3.65149">
        <ele>46</ele>
        <time>2019-07-14T11:55:54Z</time>
      </trkpt>
      <trkpt lat="47.8119" lon="-3.65152">
        <ele>45</ele>
        <time>2019-07-14T11:55:55Z</time>
      </trkpt>
      <trkpt lat="47.81195" lon="-3.65155">
        <ele>45</ele>
        <time>2019-07-14T11:55:56Z</time>
      </trkpt>
      <trkpt lat="47.812" lon="-3.65158">
        <ele>45</ele>
        <time>2019-07-14T11:55:57Z</time>
      </trkpt>
      <trkpt lat="47.81206" lon="-3.65161">
        <ele>45</ele>
        <time>2019-07-14T11:55:58Z</time>
      </trkpt>
      <trkpt lat="47.81211" lon="-3.65164">
        <ele>45</ele>
        <time>2019-07-14T11:55:59Z</time>
      </trkpt>
      <trkpt lat="47.81217" lon="-3.65167">
        <ele>44</ele>
        <time>2019-07-14T11:56:00Z</time>
      </trkpt>
      <trkpt lat="47.81223" lon="-3.65169">
        <ele>44</ele>
        <time>2019-07-14T11:56:01Z</time>
      </trkpt>
      <trkpt lat="47.81229" lon="-3.65172">
        <ele>44</ele>
        <time>2019-07-14T11:56:02Z</time>
      </trkpt>
      <trkpt lat="47.81234" lon="-3.65174">
        <ele>43</ele>
        <time>2019-07-14T11:56:03Z</time>
      </trkpt>
      <trkpt lat="47.8124" lon="-3.65176">
        <ele>43</ele>
        <time>2019-07-14T11:56:04Z</time>
      </trkpt>
      <trkpt lat="47.81246" lon="-3.65178">
        <ele>43</ele>
        <time>2019-07-14T11:56:05Z</time>
      </trkpt>
      <trkpt lat="47.81252" lon="-3.65181">
        <ele>42</ele>
        <time>2019-07-14T11:56:06Z</time>
      </trkpt>
      <trkpt lat="47.81258" lon="-3.65184">
        <ele>42</ele>
        <time>2019-07-14T11:56:07Z</time>
      </trkpt>
      <trkpt lat="47.81264" lon="-3.65187">
        <ele>42</ele>
        <time>2019-07-14T11:56:08Z</time>
      </trkpt>
      <trkpt lat="47.81271" lon="-3.65189">
        <ele>42</ele>
        <time>2019-07-14T11:56:09Z</time>
      </trkpt>
      <trkpt lat="47.81277" lon="-3.65191">
        <ele>41</ele>
        <time>2019-07-14T11:56:10Z</time>
      </trkpt>
      <trkpt lat="47.81284" lon="-3.65194">
        <ele>41</ele>
        <time>2019-07-14T11:56:11Z</time>
      </trkpt>
      <trkpt lat="47.81291" lon="-3.65196">
        <ele>41</ele>
        <time>2019-07-14T11:56:12Z</time>
      </trkpt>
      <trkpt lat="47.81297" lon="-3.65199">
        <ele>41</ele>
        <time>2019-07-14T11:56:13Z</time>
      </trkpt>
      <trkpt lat="47.81304" lon="-3.65201">
        <ele>40</ele>
        <time>2019-07-14T11:56:14Z</time>
      </trkpt>
      <trkpt lat="47.81311" lon="-3.65204">
        <ele>40</ele>
        <time>2019-07-14T11:56:15Z</time>
      </trkpt>
      <trkpt lat="47.81317" lon="-3.65206">
        <ele>40</ele>
        <time>2019-07-14T11:56:16Z</time>
      </trkpt>
      <trkpt lat="47.81324" lon="-3.65209">
        <ele>40</ele>
        <time>2019-07-14T11:56:17Z</time>
      </trkpt>
      <trkpt lat="47.81331" lon="-3.65212">
        <ele>40</ele>
        <time>2019-07-14T11:56:18Z</time>
      </trkpt>
      <trkpt lat="47.81337" lon="-3.65216">
        <ele>40</ele>
        <time>2019-07-14T11:56:19Z</time>
      </trkpt>
      <trkpt lat="47.81343" lon="-3.65221">
        <ele>39</ele>
        <time>2019-07-14T11:56:20Z</time>
      </trkpt>
      <trkpt lat="47.81349" lon="-3.65226">
        <ele>39</ele>
        <time>2019-07-14T11:56:21Z</time>
      </trkpt>
      <trkpt lat="47.81354" lon="-3.65231">
        <ele>39</ele>
        <time>2019-07-14T11:56:22Z</time>
      </trkpt>
      <trkpt lat="47.81359" lon="-3.65237">
        <ele>39</ele>
        <time>2019-07-14T11:56:23Z</time>
      </trkpt>
      <trkpt lat="47.81364" lon="-3.65242">
        <ele>39</ele>
        <time>2019-07-14T11:56:24Z</time>
      </trkpt>
      <trkpt lat="47.81369" lon="-3.65246">
        <ele>39</ele>
        <time>2019-07-14T11:56:25Z</time>
      </trkpt>
      <trkpt lat="47.81373" lon="-3.65251">
        <ele>39</ele>
        <time>2019-07-14T11:56:26Z</time>
      </trkpt>
      <trkpt lat="47.81379" lon="-3.65256">
        <ele>39</ele>
        <time>2019-07-14T11:56:27Z</time>
      </trkpt>
      <trkpt lat="47.81383" lon="-3.6526">
        <ele>39</ele>
        <time>2019-07-14T11:56:28Z</time>
      </trkpt>
      <trkpt lat="47.81388" lon="-3.65265">
        <ele>39</ele>
        <time>2019-07-14T11:56:29Z</time>
      </trkpt>
      <trkpt lat="47.81393" lon="-3.65269">
        <ele>39</ele>
        <time>2019-07-14T11:56:30Z</time>
      </trkpt>
      <trkpt lat="47.81398" lon="-3.65273">
        <ele>39</ele>
        <time>2019-07-14T11:56:31Z</time>
      </trkpt>
      <trkpt lat="47.81403" lon="-3.65278">
        <ele>39</ele>
        <time>2019-07-14T11:56:32Z</time>
      </trkpt>
      <trkpt lat="47.81408" lon="-3.65283">
        <ele>39</ele>
        <time>2019-07-14T11:56:33Z</time>
      </trkpt>
      <trkpt lat="47.81413" lon="-3.65288">
        <ele>39</ele>
        <time>2019-07-14T11:56:34Z</time>
      </trkpt>
      <trkpt lat="47.81419" lon="-3.65292">
        <ele>39</ele>
        <time>2019-07-14T11:56:35Z</time>
      </trkpt>
      <trkpt lat="47.81424" lon="-3.65295">
        <ele>39</ele>
        <time>2019-07-14T11:56:36Z</time>
      </trkpt>
      <trkpt lat="47.8143" lon="-3.65298">
        <ele>39</ele>
        <time>2019-07-14T11:56:37Z</time>
      </trkpt>
      <trkpt lat="47.81436" lon="-3.65301">
        <ele>39</ele>
        <time>2019-07-14T11:56:38Z</time>
      </trkpt>
      <trkpt lat="47.81443" lon="-3.65304">
        <ele>39</ele>
        <time>2019-07-14T11:56:39Z</time>
      </trkpt>
      <trkpt lat="47.8145" lon="-3.65308">
        <ele>39</ele>
        <time>2019-07-14T11:56:40Z</time>
      </trkpt>
      <trkpt lat="47.81456" lon="-3.65311">
        <ele>39</ele>
        <time>2019-07-14T11:56:41Z</time>
      </trkpt>
      <trkpt lat="47.81462" lon="-3.65314">
        <ele>39</ele>
        <time>2019-07-14T11:56:42Z</time>
      </trkpt>
      <trkpt lat="47.81468" lon="-3.65316">
        <ele>39</ele>
        <time>2019-07-14T11:56:43Z</time>
      </trkpt>
      <trkpt lat="47.81475" lon="-3.65319">
        <ele>39</ele>
        <time>2019-07-14T11:56:44Z</time>
      </trkpt>
      <trkpt lat="47.81481" lon="-3.65321">
        <ele>39</ele>
        <time>2019-07-14T11:56:45Z</time>
      </trkpt>
      <trkpt lat="47.81488" lon="-3.65323">
        <ele>39</ele>
        <time>2019-07-14T11:56:46Z</time>
      </trkpt>
      <trkpt lat="47.81494" lon="-3.65325">
        <ele>39</ele>
        <time>2019-07-14T11:56:47Z</time>
      </trkpt>
      <trkpt lat="47.81501" lon="-3.65327">
        <ele>39</ele>
        <time>2019-07-14T11:56:48Z</time>
      </trkpt>
      <trkpt lat="47.81507" lon="-3.65329">
        <ele>39</ele>
        <time>2019-07-14T11:56:49Z</time>
      </trkpt>
      <trkpt lat="47.81514" lon="-3.65331">
        <ele>39</ele>
        <time>2019-07-14T11:56:50Z</time>
      </trkpt>
      <trkpt lat="47.81521" lon="-3.65333">
        <ele>39</ele>
        <time>2019-07-14T11:56:51Z</time>
      </trkpt>
      <trkpt lat="47.81527" lon="-3.65334">
        <ele>39</ele>
        <time>2019-07-14T11:56:52Z</time>
      </trkpt>
      <trkpt lat="47.81534" lon="-3.65336">
        <ele>39</ele>
        <time>2019-07-14T11:56:53Z</time>
      </trkpt>
      <trkpt lat="47.8154" lon="-3.65338">
        <ele>39</ele>
        <time>2019-07-14T11:56:54Z</time>
      </trkpt>
      <trkpt lat="47.81547" lon="-3.6534">
        <ele>39</ele>
        <time>2019-07-14T11:56:55Z</time>
      </trkpt>
      <trkpt lat="47.81553" lon="-3.65341">
        <ele>39</ele>
        <time>2019-07-14T11:56:56Z</time>
      </trkpt>
      <trkpt lat="47.81558" lon="-3.65342">
        <ele>39</ele>
        <time>2019-07-14T11:56:57Z</time>
      </trkpt>
      <trkpt lat="47.81564" lon="-3.65344">
        <ele>39</ele>
        <time>2019-07-14T11:56:58Z</time>
      </trkpt>
      <trkpt lat="47.81571" lon="-3.65345">
        <ele>38</ele>
        <time>2019-07-14T11:56:59Z</time>
      </trkpt>
      <trkpt lat="47.81578" lon="-3.65346">
        <ele>38</ele>
        <time>2019-07-14T11:57:00Z</time>
      </trkpt>
      <trkpt lat="47.81585" lon="-3.65346">
        <ele>38</ele>
        <time>2019-07-14T11:57:01Z</time>
      </trkpt>
      <trkpt lat="47.81592" lon="-3.65347">
        <ele>38</ele>
        <time>2019-07-14T11:57:02Z</time>
      </trkpt>
      <trkpt lat="47.81598" lon="-3.65348">
        <ele>38</ele>
        <time>2019-07-14T11:57:03Z</time>
      </trkpt>
      <trkpt lat="47.81604" lon="-3.65349">
        <ele>38</ele>
        <time>2019-07-14T11:57:04Z</time>
      </trkpt>
      <trkpt lat="47.81609" lon="-3.6535">
        <ele>38</ele>
        <time>2019-07-14T11:57:05Z</time>
      </trkpt>
      <trkpt lat="47.81613" lon="-3.65351">
        <ele>38</ele>
        <time>2019-07-14T11:57:06Z</time>
      </trkpt>
      <trkpt lat="47.81618" lon="-3.65351">
        <ele>38</ele>
        <time>2019-07-14T11:57:07Z</time>
      </trkpt>
      <trkpt lat="47.81623" lon="-3.65351">
        <ele>38</ele>
        <time>2019-07-14T11:57:08Z</time>
      </trkpt>
      <trkpt lat="47.81629" lon="-3.65351">
        <ele>38</ele>
        <time>2019-07-14T11:57:09Z</time>
      </trkpt>
      <trkpt lat="47.81635" lon="-3.65352">
        <ele>37</ele>
        <time>2019-07-14T11:57:10Z</time>
      </trkpt>
      <trkpt lat="47.8164" lon="-3.65353">
        <ele>37</ele>
        <time>2019-07-14T11:57:11Z</time>
      </trkpt>
      <trkpt lat="47.81646" lon="-3.65354">
        <ele>37</ele>
        <time>2019-07-14T11:57:12Z</time>
      </trkpt>
      <trkpt lat="47.81651" lon="-3.65355">
        <ele>37</ele>
        <time>2019-07-14T11:57:13Z</time>
      </trkpt>
      <trkpt lat="47.81657" lon="-3.65356">
        <ele>37</ele>
        <time>2019-07-14T11:57:14Z</time>
      </trkpt>
      <trkpt lat="47.81662" lon="-3.65357">
        <ele>37</ele>
        <time>2019-07-14T11:57:15Z</time>
      </trkpt>
      <trkpt lat="47.81666" lon="-3.65358">
        <ele>37</ele>
        <time>2019-07-14T11:57:16Z</time>
      </trkpt>
      <trkpt lat="47.81672" lon="-3.65361">
        <ele>37</ele>
        <time>2019-07-14T11:57:17Z</time>
      </trkpt>
      <trkpt lat="47.81676" lon="-3.65363">
        <ele>37</ele>
        <time>2019-07-14T11:57:18Z</time>
      </trkpt>
      <trkpt lat="47.81681" lon="-3.65367">
        <ele>37</ele>
        <time>2019-07-14T11:57:19Z</time>
      </trkpt>
      <trkpt lat="47.81685" lon="-3.65371">
        <ele>37</ele>
        <time>2019-07-14T11:57:20Z</time>
      </trkpt>
      <trkpt lat="47.81689" lon="-3.65375">
        <ele>37</ele>
        <time>2019-07-14T11:57:21Z</time>
      </trkpt>
      <trkpt lat="47.81693" lon="-3.65379">
        <ele>37</ele>
        <time>2019-07-14T11:57:22Z</time>
      </trkpt>
      <trkpt lat="47.81696" lon="-3.65384">
        <ele>38</ele>
        <time>2019-07-14T11:57:23Z</time>
      </trkpt>
      <trkpt lat="47.81699" lon="-3.65389">
        <ele>38</ele>
        <time>2019-07-14T11:57:24Z</time>
      </trkpt>
      <trkpt lat="47.81702" lon="-3.65393">
        <ele>38</ele>
        <time>2019-07-14T11:57:25Z</time>
      </trkpt>
      <trkpt lat="47.81706" lon="-3.65397">
        <ele>38</ele>
        <time>2019-07-14T11:57:26Z</time>
      </trkpt>
      <trkpt lat="47.8171" lon="-3.65402">
        <ele>38</ele>
        <time>2019-07-14T11:57:27Z</time>
      </trkpt>
      <trkpt lat="47.81715" lon="-3.65407">
        <ele>38</ele>
        <time>2019-07-14T11:57:28Z</time>
      </trkpt>
      <trkpt lat="47.8172" lon="-3.65411">
        <ele>37</ele>
        <time>2019-07-14T11:57:29Z</time>
      </trkpt>
      <trkpt lat="47.81724" lon="-3.65416">
        <ele>37</ele>
        <time>2019-07-14T11:57:30Z</time>
      </trkpt>
      <trkpt lat="47.81728" lon="-3.65421">
        <ele>37</ele>
        <time>2019-07-14T11:57:31Z</time>
      </trkpt>
      <trkpt lat="47.81732" lon="-3.65427">
        <ele>37</ele>
        <time>2019-07-14T11:57:32Z</time>
      </trkpt>
      <trkpt lat="47.81735" lon="-3.65432">
        <ele>37</ele>
        <time>2019-07-14T11:57:33Z</time>
      </trkpt>
      <trkpt lat="47.81738" lon="-3.65437">
        <ele>37</ele>
        <time>2019-07-14T11:57:34Z</time>
      </trkpt>
      <trkpt lat="47.81741" lon="-3.6544">
        <ele>37</ele>
        <time>2019-07-14T11:57:35Z</time>
      </trkpt>
      <trkpt lat="47.81744" lon="-3.65442">
        <ele>37</ele>
        <time>2019-07-14T11:57:36Z</time>
      </trkpt>
      <trkpt lat="47.81747" lon="-3.65442">
        <ele>37</ele>
        <time>2019-07-14T11:57:37Z</time>
      </trkpt>
      <trkpt lat="47.81751" lon="-3.65438">
        <ele>37</ele>
        <time>2019-07-14T11:57:38Z</time>
      </trkpt>
      <trkpt lat="47.81754" lon="-3.65433">
        <ele>37</ele>
        <time>2019-07-14T11:57:39Z</time>
      </trkpt>
      <trkpt lat="47.81756" lon="-3.65427">
        <ele>38</ele>
        <time>2019-07-14T11:57:40Z</time>
      </trkpt>
      <trkpt lat="47.81758" lon="-3.6542">
        <ele>38</ele>
        <time>2019-07-14T11:57:41Z</time>
      </trkpt>
      <trkpt lat="47.8176" lon="-3.65412">
        <ele>38</ele>
        <time>2019-07-14T11:57:42Z</time>
      </trkpt>
      <trkpt lat="47.81762" lon="-3.65403">
        <ele>38</ele>
        <time>2019-07-14T11:57:43Z</time>
      </trkpt>
      <trkpt lat="47.81763" lon="-3.65395">
        <ele>38</ele>
        <time>2019-07-14T11:57:44Z</time>
      </trkpt>
      <trkpt lat="47.81764" lon="-3.65385">
        <ele>37</ele>
        <time>2019-07-14T11:57:45Z</time>
      </trkpt>
      <trkpt lat="47.81765" lon="-3.65374">
        <ele>37</ele>
        <time>2019-07-14T11:57:46Z</time>
      </trkpt>
      <trkpt lat="47.81766" lon="-3.65363">
        <ele>37</ele>
        <time>2019-07-14T11:57:47Z</time>
      </trkpt>
      <trkpt lat="47.81765" lon="-3.65352">
        <ele>37</ele>
        <time>2019-07-14T11:57:48Z</time>
      </trkpt>
      <trkpt lat="47.81764" lon="-3.65342">
        <ele>37</ele>
        <time>2019-07-14T11:57:49Z</time>
      </trkpt>
      <trkpt lat="47.81763" lon="-3.6533">
        <ele>36</ele>
        <time>2019-07-14T11:57:50Z</time>
      </trkpt>
      <trkpt lat="47.81761" lon="-3.65319">
        <ele>36</ele>
        <time>2019-07-14T11:57:51Z</time>
      </trkpt>
      <trkpt lat="47.8176" lon="-3.65308">
        <ele>36</ele>
        <time>2019-07-14T11:57:52Z</time>
      </trkpt>
      <trkpt lat="47.8176" lon="-3.65298">
        <ele>35</ele>
        <time>2019-07-14T11:57:53Z</time>
      </trkpt>
      <trkpt lat="47.8176" lon="-3.65289">
        <ele>35</ele>
        <time>2019-07-14T11:57:54Z</time>
      </trkpt>
      <trkpt lat="47.8176" lon="-3.6528">
        <ele>35</ele>
        <time>2019-07-14T11:57:55Z</time>
      </trkpt>
      <trkpt lat="47.81762" lon="-3.65272">
        <ele>34</ele>
        <time>2019-07-14T11:57:56Z</time>
      </trkpt>
      <trkpt lat="47.81764" lon="-3.65265">
        <ele>34</ele>
        <time>2019-07-14T11:57:57Z</time>
      </trkpt>
      <trkpt lat="47.81765" lon="-3.6526">
        <ele>34</ele>
        <time>2019-07-14T11:57:58Z</time>
      </trkpt>
      <trkpt lat="47.81767" lon="-3.65254">
        <ele>33</ele>
        <time>2019-07-14T11:57:59Z</time>
      </trkpt>
      <trkpt lat="47.81768" lon="-3.65249">
        <ele>32</ele>
        <time>2019-07-14T11:58:00Z</time>
      </trkpt>
      <trkpt lat="47.8177" lon="-3.65242">
        <ele>32</ele>
        <time>2019-07-14T11:58:01Z</time>
      </trkpt>
      <trkpt lat="47.8177" lon="-3.65236">
        <ele>31</ele>
        <time>2019-07-14T11:58:02Z</time>
      </trkpt>
      <trkpt lat="47.81769" lon="-3.65229">
        <ele>30</ele>
        <time>2019-07-14T11:58:03Z</time>
      </trkpt>
      <trkpt lat="47.81768" lon="-3.65223">
        <ele>30</ele>
        <time>2019-07-14T11:58:04Z</time>
      </trkpt>
      <trkpt lat="47.81767" lon="-3.65217">
        <ele>29</ele>
        <time>2019-07-14T11:58:05Z</time>
      </trkpt>
      <trkpt lat="47.81766" lon="-3.65212">
        <ele>29</ele>
        <time>2019-07-14T11:58:06Z</time>
      </trkpt>
      <trkpt lat="47.81764" lon="-3.65207">
        <ele>28</ele>
        <time>2019-07-14T11:58:07Z</time>
      </trkpt>
      <trkpt lat="47.81764" lon="-3.65203">
        <ele>28</ele>
        <time>2019-07-14T11:58:08Z</time>
      </trkpt>
      <trkpt lat="47.81765" lon="-3.65199">
        <ele>27</ele>
        <time>2019-07-14T11:58:09Z</time>
      </trkpt>
      <trkpt lat="47.81766" lon="-3.65197">
        <ele>27</ele>
        <time>2019-07-14T11:58:10Z</time>
      </trkpt>
      <trkpt lat="47.81768" lon="-3.65194">
        <ele>27</ele>
        <time>2019-07-14T11:58:11Z</time>
      </trkpt>
      <trkpt lat="47.8177" lon="-3.65191">
        <ele>27</ele>
        <time>2019-07-14T11:58:12Z</time>
      </trkpt>
      <trkpt lat="47.81771" lon="-3.65188">
        <ele>27</ele>
        <time>2019-07-14T11:58:13Z</time>
      </trkpt>
      <trkpt lat="47.81774" lon="-3.65184">
        <ele>27</ele>
        <time>2019-07-14T11:58:14Z</time>
      </trkpt>
      <trkpt lat="47.81776" lon="-3.65178">
        <ele>27</ele>
        <time>2019-07-14T11:58:15Z</time>
      </trkpt>
      <trkpt lat="47.81778" lon="-3.65172">
        <ele>27</ele>
        <time>2019-07-14T11:58:16Z</time>
      </trkpt>
      <trkpt lat="47.8178" lon="-3.65166">
        <ele>27</ele>
        <time>2019-07-14T11:58:17Z</time>
      </trkpt>
      <trkpt lat="47.8178" lon="-3.65161">
        <ele>27</ele>
        <time>2019-07-14T11:58:18Z</time>
      </trkpt>
      <trkpt lat="47.81781" lon="-3.65155">
        <ele>27</ele>
        <time>2019-07-14T11:58:19Z</time>
      </trkpt>
      <trkpt lat="47.8178" lon="-3.65149">
        <ele>27</ele>
        <time>2019-07-14T11:58:20Z</time>
      </trkpt>
      <trkpt lat="47.81778" lon="-3.65145">
        <ele>27</ele>
        <time>2019-07-14T11:58:21Z</time>
      </trkpt>
      <trkpt lat="47.81776" lon="-3.65141">
        <ele>27</ele>
        <time>2019-07-14T11:58:22Z</time>
      </trkpt>
      <trkpt lat="47.81774" lon="-3.65138">
        <ele>27</ele>
        <time>2019-07-14T11:58:23Z</time>
      </trkpt>
      <trkpt lat="47.81773" lon="-3.65135">
        <ele>27</ele>
        <time>2019-07-14T11:58:24Z</time>
      </trkpt>
      <trkpt lat="47.81771" lon="-3.65131">
        <ele>27</ele>
        <time>2019-07-14T11:58:25Z</time>
      </trkpt>
      <trkpt lat="47.8177" lon="-3.65127">
        <ele>28</ele>
        <time>2019-07-14T11:58:26Z</time>
      </trkpt>
      <trkpt lat="47.81768" lon="-3.65123">
        <ele>28</ele>
        <time>2019-07-14T11:58:27Z</time>
      </trkpt>
      <trkpt lat="47.81768" lon="-3.65119">
        <ele>28</ele>
        <time>2019-07-14T11:58:28Z</time>
      </trkpt>
      <trkpt lat="47.81767" lon="-3.65116">
        <ele>28</ele>
        <time>2019-07-14T11:58:29Z</time>
      </trkpt>
      <trkpt lat="47.81767" lon="-3.65113">
        <ele>28</ele>
        <time>2019-07-14T11:58:30Z</time>
      </trkpt>
      <trkpt lat="47.81767" lon="-3.6511">
        <ele>28</ele>
        <time>2019-07-14T11:58:31Z</time>
      </trkpt>
      <trkpt lat="47.81767" lon="-3.65106">
        <ele>28</ele>
        <time>2019-07-14T11:58:32Z</time>
      </trkpt>
      <trkpt lat="47.81767" lon="-3.65101">
        <ele>28</ele>
        <time>2019-07-14T11:58:33Z</time>
      </trkpt>
      <trkpt lat="47.81766" lon="-3.65096">
        <ele>28</ele>
        <time>2019-07-14T11:58:34Z</time>
      </trkpt>
      <trkpt lat="47.81765" lon="-3.65091">
        <ele>29</ele>
        <time>2019-07-14T11:58:35Z</time>
      </trkpt>
      <trkpt lat="47.81765" lon="-3.65086">
        <ele>29</ele>
        <time>2019-07-14T11:58:36Z</time>
      </trkpt>
      <trkpt lat="47.81764" lon="-3.65081">
        <ele>29</ele>
        <time>2019-07-14T11:58:37Z</time>
      </trkpt>
      <trkpt lat="47.81764" lon="-3.65077">
        <ele>29</ele>
        <time>2019-07-14T11:58:38Z</time>
      </trkpt>
      <trkpt lat="47.81764" lon="-3.65073">
        <ele>29</ele>
        <time>2019-07-14T11:58:39Z</time>
      </trkpt>
      <trkpt lat="47.81765" lon="-3.6507">
        <ele>29</ele>
        <time>2019-07-14T11:58:40Z</time>
      </trkpt>
      <trkpt lat="47.81766" lon="-3.65068">
        <ele>29</ele>
        <time>2019-07-14T11:58:41Z</time>
      </trkpt>
      <trkpt lat="47.81766" lon="-3.65066">
        <ele>30</ele>
        <time>2019-07-14T11:58:42Z</time>
      </trkpt>
      <trkpt lat="47.81767" lon="-3.65065">
        <ele>30</ele>
        <time>2019-07-14T11:58:43Z</time>
      </trkpt>
      <trkpt lat="47.81768" lon="-3.65063">
        <ele>30</ele>
        <time>2019-07-14T11:58:44Z</time>
      </trkpt>
      <trkpt lat="47.8177" lon="-3.65062">
        <ele>30</ele>
        <time>2019-07-14T11:58:45Z</time>
      </trkpt>
      <trkpt lat="47.81772" lon="-3.6506">
        <ele>30</ele>
        <time>2019-07-14T11:58:46Z</time>
      </trkpt>
      <trkpt lat="47.81774" lon="-3.65058">
        <ele>30</ele>
        <time>2019-07-14T11:58:47Z</time>
      </trkpt>
      <trkpt lat="47.81776" lon="-3.65057">
        <ele>30</ele>
        <time>2019-07-14T11:58:48Z</time>
      </trkpt>
      <trkpt lat="47.81778" lon="-3.65055">
        <ele>30</ele>
        <time>2019-07-14T11:58:49Z</time>
      </trkpt>
      <trkpt lat="47.81779" lon="-3.65054">
        <ele>31</ele>
        <time>2019-07-14T11:58:50Z</time>
      </trkpt>
      <trkpt lat="47.8178" lon="-3.65053">
        <ele>31</ele>
        <time>2019-07-14T11:58:51Z</time>
      </trkpt>
      <trkpt lat="47.81782" lon="-3.65052">
        <ele>31</ele>
        <time>2019-07-14T11:58:52Z</time>
      </trkpt>
      <trkpt lat="47.81784" lon="-3.6505">
        <ele>32</ele>
        <time>2019-07-14T11:58:53Z</time>
      </trkpt>
      <trkpt lat="47.81787" lon="-3.65049">
        <ele>32</ele>
        <time>2019-07-14T11:58:54Z</time>
      </trkpt>
      <trkpt lat="47.81789" lon="-3.65047">
        <ele>32</ele>
        <time>2019-07-14T11:58:55Z</time>
      </trkpt>
      <trkpt lat="47.81792" lon="-3.65045">
        <ele>32</ele>
        <time>2019-07-14T11:58:56Z</time>
      </trkpt>
      <trkpt lat="47.81794" lon="-3.65042">
        <ele>32</ele>
        <time>2019-07-14T11:58:57Z</time>
      </trkpt>
      <trkpt lat="47.81797" lon="-3.65038">
        <ele>33</ele>
        <time>2019-07-14T11:58:58Z</time>
      </trkpt>
      <trkpt lat="47.81799" lon="-3.65032">
        <ele>33</ele>
        <time>2019-07-14T11:58:59Z</time>
      </trkpt>
      <trkpt lat="47.81802" lon="-3.65027">
        <ele>33</ele>
        <time>2019-07-14T11:59:00Z</time>
      </trkpt>
      <trkpt lat="47.81804" lon="-3.65021">
        <ele>33</ele>
        <time>2019-07-14T11:59:01Z</time>
      </trkpt>
      <trkpt lat="47.81805" lon="-3.65014">
        <ele>34</ele>
        <time>2019-07-14T11:59:02Z</time>
      </trkpt>
      <trkpt lat="47.81807" lon="-3.65008">
        <ele>34</ele>
        <time>2019-07-14T11:59:03Z</time>
      </trkpt>
      <trkpt lat="47.81809" lon="-3.65001">
        <ele>34</ele>
        <time>2019-07-14T11:59:04Z</time>
      </trkpt>
      <trkpt lat="47.81811" lon="-3.64995">
        <ele>34</ele>
        <time>2019-07-14T11:59:05Z</time>
      </trkpt>
      <trkpt lat="47.81813" lon="-3.64989">
        <ele>35</ele>
        <time>2019-07-14T11:59:06Z</time>
      </trkpt>
      <trkpt lat="47.81815" lon="-3.64983">
        <ele>35</ele>
        <time>2019-07-14T11:59:07Z</time>
      </trkpt>
      <trkpt lat="47.81817" lon="-3.64977">
        <ele>35</ele>
        <time>2019-07-14T11:59:08Z</time>
      </trkpt>
      <trkpt lat="47.81819" lon="-3.64971">
        <ele>35</ele>
        <time>2019-07-14T11:59:09Z</time>
      </trkpt>
      <trkpt lat="47.8182" lon="-3.64965">
        <ele>35</ele>
        <time>2019-07-14T11:59:10Z</time>
      </trkpt>
      <trkpt lat="47.81822" lon="-3.64958">
        <ele>35</ele>
        <time>2019-07-14T11:59:11Z</time>
      </trkpt>
      <trkpt lat="47.81824" lon="-3.64952">
        <ele>35</ele>
        <time>2019-07-14T11:59:12Z</time>
      </trkpt>
      <trkpt lat="47.81826" lon="-3.64946">
        <ele>35</ele>
        <time>2019-07-14T11:59:13Z</time>
      </trkpt>
      <trkpt lat="47.8183" lon="-3.64941">
        <ele>35</ele>
        <time>2019-07-14T11:59:14Z</time>
      </trkpt>
      <trkpt lat="47.81834" lon="-3.64935">
        <ele>35</ele>
        <time>2019-07-14T11:59:15Z</time>
      </trkpt>
      <trkpt lat="47.81837" lon="-3.6493">
        <ele>35</ele>
        <time>2019-07-14T11:59:16Z</time>
      </trkpt>
      <trkpt lat="47.81842" lon="-3.64926">
        <ele>35</ele>
        <time>2019-07-14T11:59:17Z</time>
      </trkpt>
      <trkpt lat="47.81846" lon="-3.64921">
        <ele>35</ele>
        <time>2019-07-14T11:59:18Z</time>
      </trkpt>
      <trkpt lat="47.81849" lon="-3.64915">
        <ele>36</ele>
        <time>2019-07-14T11:59:19Z</time>
      </trkpt>
      <trkpt lat="47.81852" lon="-3.64908">
        <ele>36</ele>
        <time>2019-07-14T11:59:20Z</time>
      </trkpt>
      <trkpt lat="47.81854" lon="-3.64902">
        <ele>36</ele>
        <time>2019-07-14T11:59:21Z</time>
      </trkpt>
      <trkpt lat="47.81856" lon="-3.64895">
        <ele>36</ele>
        <time>2019-07-14T11:59:22Z</time>
      </trkpt>
      <trkpt lat="47.81858" lon="-3.6489">
        <ele>36</ele>
        <time>2019-07-14T11:59:23Z</time>
      </trkpt>
      <trkpt lat="47.81859" lon="-3.64885">
        <ele>36</ele>
        <time>2019-07-14T11:59:24Z</time>
      </trkpt>
      <trkpt lat="47.81861" lon="-3.64879">
        <ele>36</ele>
        <time>2019-07-14T11:59:25Z</time>
      </trkpt>
      <trkpt lat="47.81862" lon="-3.64873">
        <ele>36</ele>
        <time>2019-07-14T11:59:26Z</time>
      </trkpt>
      <trkpt lat="47.81862" lon="-3.64867">
        <ele>36</ele>
        <time>2019-07-14T11:59:27Z</time>
      </trkpt>
      <trkpt lat="47.81862" lon="-3.64861">
        <ele>36</ele>
        <time>2019-07-14T11:59:28Z</time>
      </trkpt>
      <trkpt lat="47.81861" lon="-3.64856">
        <ele>36</ele>
        <time>2019-07-14T11:59:29Z</time>
      </trkpt>
      <trkpt lat="47.8186" lon="-3.6485">
        <ele>37</ele>
        <time>2019-07-14T11:59:30Z</time>
      </trkpt>
      <trkpt lat="47.81859" lon="-3.64845">
        <ele>37</ele>
        <time>2019-07-14T11:59:31Z</time>
      </trkpt>
      <trkpt lat="47.81857" lon="-3.6484">
        <ele>37</ele>
        <time>2019-07-14T11:59:32Z</time>
      </trkpt>
      <trkpt lat="47.81856" lon="-3.64836">
        <ele>37</ele>
        <time>2019-07-14T11:59:33Z</time>
      </trkpt>
      <trkpt lat="47.81854" lon="-3.64831">
        <ele>37</ele>
        <time>2019-07-14T11:59:34Z</time>
      </trkpt>
      <trkpt lat="47.81852" lon="-3.64826">
        <ele>37</ele>
        <time>2019-07-14T11:59:35Z</time>
      </trkpt>
      <trkpt lat="47.8185" lon="-3.64821">
        <ele>37</ele>
        <time>2019-07-14T11:59:36Z</time>
      </trkpt>
      <trkpt lat="47.81848" lon="-3.64817">
        <ele>37</ele>
        <time>2019-07-14T11:59:37Z</time>
      </trkpt>
      <trkpt lat="47.81846" lon="-3.64812">
        <ele>37</ele>
        <time>2019-07-14T11:59:38Z</time>
      </trkpt>
      <trkpt lat="47.81844" lon="-3.64808">
        <ele>37</ele>
        <time>2019-07-14T11:59:39Z</time>
      </trkpt>
      <trkpt lat="47.81841" lon="-3.64803">
        <ele>37</ele>
        <time>2019-07-14T11:59:40Z</time>
      </trkpt>
      <trkpt lat="47.81838" lon="-3.64799">
        <ele>37</ele>
        <time>2019-07-14T11:59:41Z</time>
      </trkpt>
      <trkpt lat="47.81835" lon="-3.64795">
        <ele>38</ele>
        <time>2019-07-14T11:59:42Z</time>
      </trkpt>
      <trkpt lat="47.81832" lon="-3.64791">
        <ele>38</ele>
        <time>2019-07-14T11:59:43Z</time>
      </trkpt>
      <trkpt lat="47.81829" lon="-3.64787">
        <ele>38</ele>
        <time>2019-07-14T11:59:44Z</time>
      </trkpt>
      <trkpt lat="47.81826" lon="-3.64783">
        <ele>38</ele>
        <time>2019-07-14T11:59:45Z</time>
      </trkpt>
      <trkpt lat="47.81823" lon="-3.64779">
        <ele>38</ele>
        <time>2019-07-14T11:59:46Z</time>
      </trkpt>
      <trkpt lat="47.81821" lon="-3.64775">
        <ele>38</ele>
        <time>2019-07-14T11:59:47Z</time>
      </trkpt>
      <trkpt lat="47.81818" lon="-3.64771">
        <ele>38</ele>
        <time>2019-07-14T11:59:48Z</time>
      </trkpt>
      <trkpt lat="47.81815" lon="-3.64765">
        <ele>38</ele>
        <time>2019-07-14T11:59:49Z</time>
      </trkpt>
      <trkpt lat="47.81812" lon="-3.6476">
        <ele>38</ele>
        <time>2019-07-14T11:59:50Z</time>
      </trkpt>
      <trkpt lat="47.8181" lon="-3.64755">
        <ele>39</ele>
        <time>2019-07-14T11:59:51Z</time>
      </trkpt>
      <trkpt lat="47.81807" lon="-3.6475">
        <ele>39</ele>
        <time>2019-07-14T11:59:52Z</time>
      </trkpt>
      <trkpt lat="47.81805" lon="-3.64745">
        <ele>39</ele>
        <time>2019-07-14T11:59:53Z</time>
      </trkpt>
      <trkpt lat="47.81803" lon="-3.6474">
        <ele>39</ele>
        <time>2019-07-14T11:59:54Z</time>
      </trkpt>
      <trkpt lat="47.81801" lon="-3.64735">
        <ele>39</ele>
        <time>2019-07-14T11:59:55Z</time>
      </trkpt>
      <trkpt lat="47.818" lon="-3.64731">
        <ele>39</ele>
        <time>2019-07-14T11:59:56Z</time>
      </trkpt>
      <trkpt lat="47.81798" lon="-3.64726">
        <ele>39</ele>
        <time>2019-07-14T11:59:57Z</time>
      </trkpt>
      <trkpt lat="47.81797" lon="-3.64721">
        <ele>39</ele>
        <time>2019-07-14T11:59:58Z</time>
      </trkpt>
      <trkpt lat="47.81796" lon="-3.64716">
        <ele>39</ele>
        <time>2019-07-14T11:59:59Z</time>
      </trkpt>
      <trkpt lat="47.81795" lon="-3.64711">
        <ele>40</ele>
        <time>2019-07-14T12:00:00Z</time>
      </trkpt>
      <trkpt lat="47.81794" lon="-3.64705">
        <ele>40</ele>
        <time>2019-07-14T12:00:01Z</time>
      </trkpt>
      <trkpt lat="47.81794" lon="-3.64699">
        <ele>40</ele>
        <time>2019-07-14T12:00:02Z</time>
      </trkpt>
      <trkpt lat="47.81794" lon="-3.64693">
        <ele>40</ele>
        <time>2019-07-14T12:00:03Z</time>
      </trkpt>
      <trkpt lat="47.81793" lon="-3.64687">
        <ele>40</ele>
        <time>2019-07-14T12:00:04Z</time>
      </trkpt>
      <trkpt lat="47.81793" lon="-3.6468">
        <ele>41</ele>
        <time>2019-07-14T12:00:05Z</time>
      </trkpt>
      <trkpt lat="47.81792" lon="-3.64674">
        <ele>41</ele>
        <time>2019-07-14T12:00:06Z</time>
      </trkpt>
      <trkpt lat="47.81792" lon="-3.64668">
        <ele>41</ele>
        <time>2019-07-14T12:00:07Z</time>
      </trkpt>
      <trkpt lat="47.81792" lon="-3.64662">
        <ele>41</ele>
        <time>2019-07-14T12:00:08Z</time>
      </trkpt>
      <trkpt lat="47.81791" lon="-3.64656">
        <ele>41</ele>
        <time>2019-07-14T12:00:09Z</time>
      </trkpt>
      <trkpt lat="47.81791" lon="-3.6465">
        <ele>41</ele>
        <time>2019-07-14T12:00:10Z</time>
      </trkpt>
      <trkpt lat="47.8179" lon="-3.64644">
        <ele>41</ele>
        <time>2019-07-14T12:00:11Z</time>
      </trkpt>
      <trkpt lat="47.8179" lon="-3.64638">
        <ele>41</ele>
        <time>2019-07-14T12:00:12Z</time>
      </trkpt>
      <trkpt lat="47.81789" lon="-3.64631">
        <ele>41</ele>
        <time>2019-07-14T12:00:13Z</time>
      </trkpt>
      <trkpt lat="47.81789" lon="-3.64624">
        <ele>41</ele>
        <time>2019-07-14T12:00:14Z</time>
      </trkpt>
      <trkpt lat="47.81788" lon="-3.64618">
        <ele>41</ele>
        <time>2019-07-14T12:00:15Z</time>
      </trkpt>
      <trkpt lat="47.81787" lon="-3.64612">
        <ele>42</ele>
        <time>2019-07-14T12:00:16Z</time>
      </trkpt>
      <trkpt lat="47.81786" lon="-3.64604">
        <ele>42</ele>
        <time>2019-07-14T12:00:17Z</time>
      </trkpt>
      <trkpt lat="47.81783" lon="-3.64596">
        <ele>42</ele>
        <time>2019-07-14T12:00:18Z</time>
      </trkpt>
      <trkpt lat="47.81782" lon="-3.64589">
        <ele>42</ele>
        <time>2019-07-14T12:00:19Z</time>
      </trkpt>
      <trkpt lat="47.8178" lon="-3.64581">
        <ele>42</ele>
        <time>2019-07-14T12:00:20Z</time>
      </trkpt>
      <trkpt lat="47.81778" lon="-3.64573">
        <ele>42</ele>
        <time>2019-07-14T12:00:21Z</time>
      </trkpt>
      <trkpt lat="47.81775" lon="-3.64565">
        <ele>42</ele>
        <time>2019-07-14T12:00:22Z</time>
      </trkpt>
      <trkpt lat="47.81773" lon="-3.64557">
        <ele>42</ele>
        <time>2019-07-14T12:00:23Z</time>
      </trkpt>
      <trkpt lat="47.81771" lon="-3.64548">
        <ele>42</ele>
        <time>2019-07-14T12:00:24Z</time>
      </trkpt>
      <trkpt lat="47.81768" lon="-3.6454">
        <ele>42</ele>
        <time>2019-07-14T12:00:25Z</time>
      </trkpt>
      <trkpt lat="47.81766" lon="-3.64532">
        <ele>42</ele>
        <time>2019-07-14T12:00:26Z</time>
      </trkpt>
      <trkpt lat="47.81764" lon="-3.64524">
        <ele>42</ele>
        <time>2019-07-14T12:00:27Z</time>
      </trkpt>
      <trkpt lat="47.81762" lon="-3.64516">
        <ele>42</ele>
        <time>2019-07-14T12:00:28Z</time>
      </trkpt>
      <trkpt lat="47.81761" lon="-3.6451">
        <ele>42</ele>
        <time>2019-07-14T12:00:29Z</time>
      </trkpt>
      <trkpt lat="47.81761" lon="-3.64505">
        <ele>42</ele>
        <time>2019-07-14T12:00:30Z</time>
      </trkpt>
      <trkpt lat="47.81761" lon="-3.64497">
        <ele>42</ele>
        <time>2019-07-14T12:00:31Z</time>
      </trkpt>
      <trkpt lat="47.8176" lon="-3.6449">
        <ele>42</ele>
        <time>2019-07-14T12:00:32Z</time>
      </trkpt>
      <trkpt lat="47.81759" lon="-3.64482">
        <ele>43</ele>
        <time>2019-07-14T12:00:33Z</time>
      </trkpt>
      <trkpt lat="47.81758" lon="-3.64474">
        <ele>43</ele>
        <time>2019-07-14T12:00:34Z</time>
      </trkpt>
      <trkpt lat="47.81757" lon="-3.64467">
        <ele>43</ele>
        <time>2019-07-14T12:00:35Z</time>
      </trkpt>
      <trkpt lat="47.81756" lon="-3.64458">
        <ele>43</ele>
        <time>2019-07-14T12:00:36Z</time>
      </trkpt>
      <trkpt lat="47.81754" lon="-3.6445">
        <ele>43</ele>
        <time>2019-07-14T12:00:37Z</time>
      </trkpt>
      <trkpt lat="47.81753" lon="-3.64442">
        <ele>43</ele>
        <time>2019-07-14T12:00:38Z</time>
      </trkpt>
      <trkpt lat="47.81751" lon="-3.64433">
        <ele>43</ele>
        <time>2019-07-14T12:00:39Z</time>
      </trkpt>
      <trkpt lat="47.8175" lon="-3.64424">
        <ele>44</ele>
        <time>2019-07-14T12:00:40Z</time>
      </trkpt>
      <trkpt lat="47.81748" lon="-3.64413">
        <ele>44</ele>
        <time>2019-07-14T12:00:41Z</time>
      </trkpt>
      <trkpt lat="47.81746" lon="-3.64403">
        <ele>44</ele>
        <time>2019-07-14T12:00:42Z</time>
      </trkpt>
      <trkpt lat="47.81744" lon="-3.64393">
        <ele>44</ele>
        <time>2019-07-14T12:00:43Z</time>
      </trkpt>
      <trkpt lat="47.81742" lon="-3.64384">
        <ele>44</ele>
        <time>2019-07-14T12:00:44Z</time>
      </trkpt>
      <trkpt lat="47.8174" lon="-3.64374">
        <ele>44</ele>
        <time>2019-07-14T12:00:45Z</time>
      </trkpt>
      <trkpt lat="47.81738" lon="-3.64363">
        <ele>44</ele>
        <time>2019-07-14T12:00:46Z</time>
      </trkpt>
      <trkpt lat="47.81737" lon="-3.64353">
        <ele>44</ele>
        <time>2019-07-14T12:00:47Z</time>
      </trkpt>
      <trkpt lat="47.81734" lon="-3.64343">
        <ele>44</ele>
        <time>2019-07-14T12:00:48Z</time>
      </trkpt>
      <trkpt lat="47.81732" lon="-3.64334">
        <ele>44</ele>
        <time>2019-07-14T12:00:49Z</time>
      </trkpt>
      <trkpt lat="47.8173" lon="-3.64325">
        <ele>44</ele>
        <time>2019-07-14T12:00:50Z</time>
      </trkpt>
      <trkpt lat="47.81729" lon="-3.64318">
        <ele>44</ele>
        <time>2019-07-14T12:00:51Z</time>
      </trkpt>
      <trkpt lat="47.81727" lon="-3.64312">
        <ele>44</ele>
        <time>2019-07-14T12:00:52Z</time>
      </trkpt>
      <trkpt lat="47.81726" lon="-3.64305">
        <ele>44</ele>
        <time>2019-07-14T12:00:53Z</time>
      </trkpt>
      <trkpt lat="47.81724" lon="-3.643">
        <ele>43</ele>
        <time>2019-07-14T12:00:54Z</time>
      </trkpt>
      <trkpt lat="47.81722" lon="-3.64296">
        <ele>43</ele>
        <time>2019-07-14T12:00:55Z</time>
      </trkpt>
      <trkpt lat="47.81718" lon="-3.64295">
        <ele>43</ele>
        <time>2019-07-14T12:00:56Z</time>
      </trkpt>
      <trkpt lat="47.81715" lon="-3.64294">
        <ele>44</ele>
        <time>2019-07-14T12:00:57Z</time>
      </trkpt>
      <trkpt lat="47.81711" lon="-3.64293">
        <ele>44</ele>
        <time>2019-07-14T12:00:58Z</time>
      </trkpt>
      <trkpt lat="47.81706" lon="-3.64292">
        <ele>44</ele>
        <time>2019-07-14T12:00:59Z</time>
      </trkpt>
      <trkpt lat="47.81702" lon="-3.64292">
        <ele>44</ele>
        <time>2019-07-14T12:01:00Z</time>
      </trkpt>
      <trkpt lat="47.81698" lon="-3.64291">
        <ele>44</ele>
        <time>2019-07-14T12:01:01Z</time>
      </trkpt>
      <trkpt lat="47.81694" lon="-3.6429">
        <ele>44</ele>
        <time>2019-07-14T12:01:02Z</time>
      </trkpt>
      <trkpt lat="47.8169" lon="-3.64291">
        <ele>44</ele>
        <time>2019-07-14T12:01:03Z</time>
      </trkpt>
      <trkpt lat="47.81685" lon="-3.64291">
        <ele>44</ele>
        <time>2019-07-14T12:01:04Z</time>
      </trkpt>
      <trkpt lat="47.81681" lon="-3.64291">
        <ele>44</ele>
        <time>2019-07-14T12:01:05Z</time>
      </trkpt>
      <trkpt lat="47.81676" lon="-3.64291">
        <ele>44</ele>
        <time>2019-07-14T12:01:06Z</time>
      </trkpt>
      <trkpt lat="47.81671" lon="-3.64291">
        <ele>44</ele>
        <time>2019-07-14T12:01:07Z</time>
      </trkpt>
      <trkpt lat="47.81666" lon="-3.64291">
        <ele>44</ele>
        <time>2019-07-14T12:01:08Z</time>
      </trkpt>
      <trkpt lat="47.81661" lon="-3.64292">
        <ele>44</ele>
        <time>2019-07-14T12:01:09Z</time>
      </trkpt>
      <trkpt lat="47.81656" lon="-3.64292">
        <ele>44</ele>
        <time>2019-07-14T12:01:10Z</time>
      </trkpt>
      <trkpt lat="47.81651" lon="-3.64292">
        <ele>44</ele>
        <time>2019-07-14T12:01:11Z</time>
      </trkpt>
      <trkpt lat="47.81646" lon="-3.64293">
        <ele>44</ele>
        <time>2019-07-14T12:01:12Z</time>
      </trkpt>
      <trkpt lat="47.81641" lon="-3.64294">
        <ele>43</ele>
        <time>2019-07-14T12:01:13Z</time>
      </trkpt>
      <trkpt lat="47.81636" lon="-3.64295">
        <ele>43</ele>
        <time>2019-07-14T12:01:14Z</time>
      </trkpt>
      <trkpt lat="47.8163" lon="-3.64296">
        <ele>43</ele>
        <time>2019-07-14T12:01:15Z</time>
      </trkpt>
      <trkpt lat="47.81626" lon="-3.64297">
        <ele>43</ele>
        <time>2019-07-14T12:01:16Z</time>
      </trkpt>
      <trkpt lat="47.81621" lon="-3.64297">
        <ele>42</ele>
        <time>2019-07-14T12:01:17Z</time>
      </trkpt>
      <trkpt lat="47.81616" lon="-3.64298">
        <ele>42</ele>
        <time>2019-07-14T12:01:18Z</time>
      </trkpt>
      <trkpt lat="47.81612" lon="-3.64298">
        <ele>42</ele>
        <time>2019-07-14T12:01:19Z</time>
      </trkpt>
      <trkpt lat="47.81607" lon="-3.64299">
        <ele>42</ele>
        <time>2019-07-14T12:01:20Z</time>
      </trkpt>
      <trkpt lat="47.81602" lon="-3.643">
        <ele>42</ele>
        <time>2019-07-14T12:01:21Z</time>
      </trkpt>
      <trkpt lat="47.81597" lon="-3.643">
        <ele>41</ele>
        <time>2019-07-14T12:01:22Z</time>
      </trkpt>
      <trkpt lat="47.81592" lon="-3.64299">
        <ele>41</ele>
        <time>2019-07-14T12:01:23Z</time>
      </trkpt>
      <trkpt lat="47.81588" lon="-3.64299">
        <ele>41</ele>
        <time>2019-07-14T12:01:24Z</time>
      </trkpt>
      <trkpt lat="47.81583" lon="-3.64299">
        <ele>41</ele>
        <time>2019-07-14T12:01:25Z</time>
      </trkpt>
      <trkpt lat="47.81579" lon="-3.64301">
        <ele>41</ele>
        <time>2019-07-14T12:01:26Z</time>
      </trkpt>
      <trkpt lat="47.81573" lon="-3.64301">
        <ele>40</ele>
        <time>2019-07-14T12:01:27Z</time>
      </trkpt>
      <trkpt lat="47.81568" lon="-3.64302">
        <ele>40</ele>
        <time>2019-07-14T12:01:28Z</time>
      </trkpt>
      <trkpt lat="47.81563" lon="-3.64302">
        <ele>40</ele>
        <time>2019-07-14T12:01:29Z</time>
      </trkpt>
      <trkpt lat="47.81557" lon="-3.64302">
        <ele>40</ele>
        <time>2019-07-14T12:01:30Z</time>
      </trkpt>
      <trkpt lat="47.81553" lon="-3.64303">
        <ele>40</ele>
        <time>2019-07-14T12:01:31Z</time>
      </trkpt>
      <trkpt lat="47.81547" lon="-3.64303">
        <ele>40</ele>
        <time>2019-07-14T12:01:32Z</time>
      </trkpt>
      <trkpt lat="47.81541" lon="-3.64303">
        <ele>39</ele>
        <time>2019-07-14T12:01:33Z</time>
      </trkpt>
      <trkpt lat="47.81535" lon="-3.64304">
        <ele>39</ele>
        <time>2019-07-14T12:01:34Z</time>
      </trkpt>
      <trkpt lat="47.8153" lon="-3.64304">
        <ele>39</ele>
        <time>2019-07-14T12:01:35Z</time>
      </trkpt>
      <trkpt lat="47.81525" lon="-3.64305">
        <ele>39</ele>
        <time>2019-07-14T12:01:36Z</time>
      </trkpt>
      <trkpt lat="47.8152" lon="-3.64305">
        <ele>39</ele>
        <time>2019-07-14T12:01:37Z</time>
      </trkpt>
      <trkpt lat="47.81515" lon="-3.64306">
        <ele>39</ele>
        <time>2019-07-14T12:01:38Z</time>
      </trkpt>
      <trkpt lat="47.81511" lon="-3.64306">
        <ele>39</ele>
        <time>2019-07-14T12:01:39Z</time>
      </trkpt>
      <trkpt lat="47.81507" lon="-3.64307">
        <ele>39</ele>
        <time>2019-07-14T12:01:40Z</time>
      </trkpt>
      <trkpt lat="47.81504" lon="-3.64307">
        <ele>39</ele>
        <time>2019-07-14T12:01:41Z</time>
      </trkpt>
      <trkpt lat="47.81501" lon="-3.64307">
        <ele>38</ele>
        <time>2019-07-14T12:01:42Z</time>
      </trkpt>
      <trkpt lat="47.81497" lon="-3.64306">
        <ele>38</ele>
        <time>2019-07-14T12:01:43Z</time>
      </trkpt>
      <trkpt lat="47.81493" lon="-3.64305">
        <ele>38</ele>
        <time>2019-07-14T12:01:44Z</time>
      </trkpt>
      <trkpt lat="47.81488" lon="-3.64305">
        <ele>38</ele>
        <time>2019-07-14T12:01:45Z</time>
      </trkpt>
      <trkpt lat="47.81484" lon="-3.64306">
        <ele>38</ele>
        <time>2019-07-14T12:01:46Z</time>
      </trkpt>
      <trkpt lat="47.81479" lon="-3.64306">
        <ele>38</ele>
        <time>2019-07-14T12:01:47Z</time>
      </trkpt>
      <trkpt lat="47.81474" lon="-3.64307">
        <ele>38</ele>
        <time>2019-07-14T12:01:48Z</time>
      </trkpt>
      <trkpt lat="47.81468" lon="-3.64307">
        <ele>38</ele>
        <time>2019-07-14T12:01:49Z</time>
      </trkpt>
      <trkpt lat="47.81464" lon="-3.64307">
        <ele>38</ele>
        <time>2019-07-14T12:01:50Z</time>
      </trkpt>
      <trkpt lat="47.81458" lon="-3.64307">
        <ele>38</ele>
        <time>2019-07-14T12:01:51Z</time>
      </trkpt>
      <trkpt lat="47.81453" lon="-3.64308">
        <ele>38</ele>
        <time>2019-07-14T12:01:52Z</time>
      </trkpt>
      <trkpt lat="47.81448" lon="-3.64308">
        <ele>38</ele>
        <time>2019-07-14T12:01:53Z</time>
      </trkpt>
      <trkpt lat="47.81443" lon="-3.64308">
        <ele>38</ele>
        <time>2019-07-14T12:01:54Z</time>
      </trkpt>
      <trkpt lat="47.81438" lon="-3.64309">
        <ele>38</ele>
        <time>2019-07-14T12:01:55Z</time>
      </trkpt>
      <trkpt lat="47.81432" lon="-3.6431">
        <ele>38</ele>
        <time>2019-07-14T12:01:56Z</time>
      </trkpt>
      <trkpt lat="47.81427" lon="-3.64312">
        <ele>38</ele>
        <time>2019-07-14T12:01:57Z</time>
      </trkpt>
      <trkpt lat="47.81422" lon="-3.64314">
        <ele>38</ele>
        <time>2019-07-14T12:01:58Z</time>
      </trkpt>
      <trkpt lat="47.81417" lon="-3.64316">
        <ele>37</ele>
        <time>2019-07-14T12:01:59Z</time>
      </trkpt>
      <trkpt lat="47.81412" lon="-3.64319">
        <ele>37</ele>
        <time>2019-07-14T12:02:00Z</time>
      </trkpt>
      <trkpt lat="47.81406" lon="-3.64323">
        <ele>37</ele>
        <time>2019-07-14T12:02:01Z</time>
      </trkpt>
      <trkpt lat="47.81401" lon="-3.64326">
        <ele>37</ele>
        <time>2019-07-14T12:02:02Z</time>
      </trkpt>
      <trkpt lat="47.81396" lon="-3.6433">
        <ele>37</ele>
        <time>2019-07-14T12:02:03Z</time>
      </trkpt>
      <trkpt lat="47.81391" lon="-3.64334">
        <ele>37</ele>
        <time>2019-07-14T12:02:04Z</time>
      </trkpt>
      <trkpt lat="47.81386" lon="-3.64338">
        <ele>37</ele>
        <time>2019-07-14T12:02:05Z</time>
      </trkpt>
      <trkpt lat="47.81382" lon="-3.64341">
        <ele>37</ele>
        <time>2019-07-14T12:02:06Z</time>
      </trkpt>
      <trkpt lat="47.81378" lon="-3.64344">
        <ele>37</ele>
        <time>2019-07-14T12:02:07Z</time>
      </trkpt>
      <trkpt lat="47.81374" lon="-3.64346">
        <ele>37</ele>
        <time>2019-07-14T12:02:08Z</time>
      </trkpt>
      <trkpt lat="47.81371" lon="-3.64347">
        <ele>38</ele>
        <time>2019-07-14T12:02:09Z</time>
      </trkpt>
      <trkpt lat="47.81368" lon="-3.64346">
        <ele>38</ele>
        <time>2019-07-14T12:02:10Z</time>
      </trkpt>
      <trkpt lat="47.81365" lon="-3.64345">
        <ele>38</ele>
        <time>2019-07-14T12:02:11Z</time>
      </trkpt>
      <trkpt lat="47.81363" lon="-3.64342">
        <ele>38</ele>
        <time>2019-07-14T12:02:12Z</time>
      </trkpt>
      <trkpt lat="47.8136" lon="-3.64338">
        <ele>38</ele>
        <time>2019-07-14T12:02:13Z</time>
      </trkpt>
      <trkpt lat="47.81358" lon="-3.64335">
        <ele>38</ele>
        <time>2019-07-14T12:02:14Z</time>
      </trkpt>
      <trkpt lat="47.81355" lon="-3.64332">
        <ele>39</ele>
        <time>2019-07-14T12:02:15Z</time>
      </trkpt>
      <trkpt lat="47.81351" lon="-3.64329">
        <ele>39</ele>
        <time>2019-07-14T12:02:16Z</time>
      </trkpt>
      <trkpt lat="47.81348" lon="-3.64326">
        <ele>39</ele>
        <time>2019-07-14T12:02:17Z</time>
      </trkpt>
      <trkpt lat="47.81345" lon="-3.64323">
        <ele>39</ele>
        <time>2019-07-14T12:02:18Z</time>
      </trkpt>
      <trkpt lat="47.81343" lon="-3.64318">
        <ele>39</ele>
        <time>2019-07-14T12:02:19Z</time>
      </trkpt>
      <trkpt lat="47.8134" lon="-3.64312">
        <ele>39</ele>
        <time>2019-07-14T12:02:20Z</time>
      </trkpt>
      <trkpt lat="47.81338" lon="-3.64307">
        <ele>39</ele>
        <time>2019-07-14T12:02:21Z</time>
      </trkpt>
      <trkpt lat="47.81335" lon="-3.64301">
        <ele>39</ele>
        <time>2019-07-14T12:02:22Z</time>
      </trkpt>
      <trkpt lat="47.81333" lon="-3.64296">
        <ele>39</ele>
        <time>2019-07-14T12:02:23Z</time>
      </trkpt>
      <trkpt lat="47.8133" lon="-3.6429">
        <ele>39</ele>
        <time>2019-07-14T12:02:24Z</time>
      </trkpt>
      <trkpt lat="47.81327" lon="-3.64284">
        <ele>39</ele>
        <time>2019-07-14T12:02:25Z</time>
      </trkpt>
      <trkpt lat="47.81325" lon="-3.64278">
        <ele>38</ele>
        <time>2019-07-14T12:02:26Z</time>
      </trkpt>
      <trkpt lat="47.81322" lon="-3.64273">
        <ele>39</ele>
        <time>2019-07-14T12:02:27Z</time>
      </trkpt>
      <trkpt lat="47.81319" lon="-3.64267">
        <ele>39</ele>
        <time>2019-07-14T12:02:28Z</time>
      </trkpt>
      <trkpt lat="47.81316" lon="-3.64261">
        <ele>39</ele>
        <time>2019-07-14T12:02:29Z</time>
      </trkpt>
      <trkpt lat="47.81314" lon="-3.64255">
        <ele>39</ele>
        <time>2019-07-14T12:02:30Z</time>
      </trkpt>
      <trkpt lat="47.81311" lon="-3.64249">
        <ele>39</ele>
        <time>2019-07-14T12:02:31Z</time>
      </trkpt>
      <trkpt lat="47.81308" lon="-3.64243">
        <ele>39</ele>
        <time>2019-07-14T12:02:32Z</time>
      </trkpt>
      <trkpt lat="47.81305" lon="-3.64237">
        <ele>39</ele>
        <time>2019-07-14T12:02:33Z</time>
      </trkpt>
      <trkpt lat="47.81303" lon="-3.6423">
        <ele>39</ele>
        <time>2019-07-14T12:02:34Z</time>
      </trkpt>
      <trkpt lat="47.81301" lon="-3.64224">
        <ele>39</ele>
        <time>2019-07-14T12:02:35Z</time>
      </trkpt>
      <trkpt lat="47.81298" lon="-3.64218">
        <ele>39</ele>
        <time>2019-07-14T12:02:36Z</time>
      </trkpt>
      <trkpt lat="47.81296" lon="-3.64211">
        <ele>39</ele>
        <time>2019-07-14T12:02:37Z</time>
      </trkpt>
      <trkpt lat="47.81294" lon="-3.64205">
        <ele>39</ele>
        <time>2019-07-14T12:02:38Z</time>
      </trkpt>
      <trkpt lat="47.81291" lon="-3.64199">
        <ele>39</ele>
        <time>2019-07-14T12:02:39Z</time>
      </trkpt>
      <trkpt lat="47.81289" lon="-3.64191">
        <ele>39</ele>
        <time>2019-07-14T12:02:40Z</time>
      </trkpt>
      <trkpt lat="47.81287" lon="-3.64184">
        <ele>39</ele>
        <time>2019-07-14T12:02:41Z</time>
      </trkpt>
      <trkpt lat="47.81285" lon="-3.64178">
        <ele>39</ele>
        <time>2019-07-14T12:02:42Z</time>
      </trkpt>
      <trkpt lat="47.81283" lon="-3.64171">
        <ele>38</ele>
        <time>2019-07-14T12:02:43Z</time>
      </trkpt>
      <trkpt lat="47.81281" lon="-3.64163">
        <ele>38</ele>
        <time>2019-07-14T12:02:44Z</time>
      </trkpt>
      <trkpt lat="47.81279" lon="-3.64156">
        <ele>38</ele>
        <time>2019-07-14T12:02:45Z</time>
      </trkpt>
      <trkpt lat="47.81278" lon="-3.64148">
        <ele>39</ele>
        <time>2019-07-14T12:02:46Z</time>
      </trkpt>
      <trkpt lat="47.81276" lon="-3.64141">
        <ele>39</ele>
        <time>2019-07-14T12:02:47Z</time>
      </trkpt>
      <trkpt lat="47.81274" lon="-3.64134">
        <ele>39</ele>
        <time>2019-07-14T12:02:48Z</time>
      </trkpt>
      <trkpt lat="47.81273" lon="-3.64127">
        <ele>39</ele>
        <time>2019-07-14T12:02:49Z</time>
      </trkpt>
      <trkpt lat="47.81271" lon="-3.64119">
        <ele>39</ele>
        <time>2019-07-14T12:02:50Z</time>
      </trkpt>
      <trkpt lat="47.8127" lon="-3.64112">
        <ele>39</ele>
        <time>2019-07-14T12:02:51Z</time>
      </trkpt>
      <trkpt lat="47.81269" lon="-3.64104">
        <ele>39</ele>
        <time>2019-07-14T12:02:52Z</time>
      </trkpt>
      <trkpt lat="47.81268" lon="-3.64097">
        <ele>39</ele>
        <time>2019-07-14T12:02:53Z</time>
      </trkpt>
      <trkpt lat="47.81267" lon="-3.64089">
        <ele>39</ele>
        <time>2019-07-14T12:02:54Z</time>
      </trkpt>
      <trkpt lat="47.81266" lon="-3.64081">
        <ele>39</ele>
        <time>2019-07-14T12:02:55Z</time>
      </trkpt>
      <trkpt lat="47.81265" lon="-3.64074">
        <ele>39</ele>
        <time>2019-07-14T12:02:56Z</time>
      </trkpt>
      <trkpt lat="47.81264" lon="-3.64066">
        <ele>40</ele>
        <time>2019-07-14T12:02:57Z</time>
      </trkpt>
      <trkpt lat="47.81264" lon="-3.64058">
        <ele>40</ele>
        <time>2019-07-14T12:02:58Z</time>
      </trkpt>
      <trkpt lat="47.81263" lon="-3.6405">
        <ele>40</ele>
        <time>2019-07-14T12:02:59Z</time>
      </trkpt>
      <trkpt lat="47.81263" lon="-3.64043">
        <ele>40</ele>
        <time>2019-07-14T12:03:00Z</time>
      </trkpt>
      <trkpt lat="47.81262" lon="-3.64035">
        <ele>40</ele>
        <time>2019-07-14T12:03:01Z</time>
      </trkpt>
      <trkpt lat="47.81262" lon="-3.64027">
        <ele>41</ele>
        <time>2019-07-14T12:03:02Z</time>
      </trkpt>
      <trkpt lat="47.81262" lon="-3.6402">
        <ele>41</ele>
        <time>2019-07-14T12:03:03Z</time>
      </trkpt>
      <trkpt lat="47.81263" lon="-3.64013">
        <ele>41</ele>
        <time>2019-07-14T12:03:04Z</time>
      </trkpt>
      <trkpt lat="47.81263" lon="-3.64005">
        <ele>42</ele>
        <time>2019-07-14T12:03:05Z</time>
      </trkpt>
      <trkpt lat="47.81264" lon="-3.63998">
        <ele>42</ele>
        <time>2019-07-14T12:03:06Z</time>
      </trkpt>
      <trkpt lat="47.81264" lon="-3.6399">
        <ele>42</ele>
        <time>2019-07-14T12:03:07Z</time>
      </trkpt>
      <trkpt lat="47.81264" lon="-3.63983">
        <ele>42</ele>
        <time>2019-07-14T12:03:08Z</time>
      </trkpt>
      <trkpt lat="47.81264" lon="-3.63975">
        <ele>43</ele>
        <time>2019-07-14T12:03:09Z</time>
      </trkpt>
      <trkpt lat="47.81265" lon="-3.63968">
        <ele>43</ele>
        <time>2019-07-14T12:03:10Z</time>
      </trkpt>
      <trkpt lat="47.81265" lon="-3.63961">
        <ele>43</ele>
        <time>2019-07-14T12:03:11Z</time>
      </trkpt>
      <trkpt lat="47.81266" lon="-3.63954">
        <ele>43</ele>
        <time>2019-07-14T12:03:12Z</time>
      </trkpt>
      <trkpt lat="47.81267" lon="-3.63947">
        <ele>43</ele>
        <time>2019-07-14T12:03:13Z</time>
      </trkpt>
      <trkpt lat="47.81268" lon="-3.63939">
        <ele>44</ele>
        <time>2019-07-14T12:03:14Z</time>
      </trkpt>
      <trkpt lat="47.81268" lon="-3.63932">
        <ele>44</ele>
        <time>2019-07-14T12:03:15Z</time>
      </trkpt>
      <trkpt lat="47.8127" lon="-3.63925">
        <ele>44</ele>
        <time>2019-07-14T12:03:16Z</time>
      </trkpt>
      <trkpt lat="47.81271" lon="-3.63918">
        <ele>44</ele>
        <time>2019-07-14T12:03:17Z</time>
      </trkpt>
      <trkpt lat="47.81272" lon="-3.63911">
        <ele>44</ele>
        <time>2019-07-14T12:03:18Z</time>
      </trkpt>
      <trkpt lat="47.81274" lon="-3.63904">
        <ele>44</ele>
        <time>2019-07-14T12:03:19Z</time>
      </trkpt>
      <trkpt lat="47.81275" lon="-3.63897">
        <ele>45</ele>
        <time>2019-07-14T12:03:20Z</time>
      </trkpt>
      <trkpt lat="47.81277" lon="-3.63889">
        <ele>45</ele>
        <time>2019-07-14T12:03:21Z</time>
      </trkpt>
      <trkpt lat="47.81278" lon="-3.63882">
        <ele>45</ele>
        <time>2019-07-14T12:03:22Z</time>
      </trkpt>
      <trkpt lat="47.8128" lon="-3.63875">
        <ele>45</ele>
        <time>2019-07-14T12:03:23Z</time>
      </trkpt>
      <trkpt lat="47.81281" lon="-3.63868">
        <ele>45</ele>
        <time>2019-07-14T12:03:24Z</time>
      </trkpt>
      <trkpt lat="47.81283" lon="-3.63861">
        <ele>45</ele>
        <time>2019-07-14T12:03:25Z</time>
      </trkpt>
      <trkpt lat="47.81285" lon="-3.63853">
        <ele>45</ele>
        <time>2019-07-14T12:03:26Z</time>
      </trkpt>
      <trkpt lat="47.81286" lon="-3.63846">
        <ele>45</ele>
        <time>2019-07-14T12:03:27Z</time>
      </trkpt>
      <trkpt lat="47.81288" lon="-3.63839">
        <ele>45</ele>
        <time>2019-07-14T12:03:28Z</time>
      </trkpt>
      <trkpt lat="47.81289" lon="-3.63832">
        <ele>45</ele>
        <time>2019-07-14T12:03:29Z</time>
      </trkpt>
      <trkpt lat="47.81291" lon="-3.63825">
        <ele>45</ele>
        <time>2019-07-14T12:03:30Z</time>
      </trkpt>
      <trkpt lat="47.81293" lon="-3.63818">
        <ele>46</ele>
        <time>2019-07-14T12:03:31Z</time>
      </trkpt>
      <trkpt lat="47.81294" lon="-3.63811">
        <ele>46</ele>
        <time>2019-07-14T12:03:32Z</time>
      </trkpt>
      <trkpt lat="47.81296" lon="-3.63804">
        <ele>46</ele>
        <time>2019-07-14T12:03:33Z</time>
      </trkpt>
      <trkpt lat="47.81297" lon="-3.63796">
        <ele>46</ele>
        <time>2019-07-14T12:03:34Z</time>
      </trkpt>
      <trkpt lat="47.81299" lon="-3.63789">
        <ele>46</ele>
        <time>2019-07-14T12:03:35Z</time>
      </trkpt>
      <trkpt lat="47.81301" lon="-3.63781">
        <ele>46</ele>
        <time>2019-07-14T12:03:36Z</time>
      </trkpt>
      <trkpt lat="47.81302" lon="-3.63773">
        <ele>46</ele>
        <time>2019-07-14T12:03:37Z</time>
      </trkpt>
      <trkpt lat="47.81304" lon="-3.63766">
        <ele>46</ele>
        <time>2019-07-14T12:03:38Z</time>
      </trkpt>
      <trkpt lat="47.81306" lon="-3.63758">
        <ele>46</ele>
        <time>2019-07-14T12:03:39Z</time>
      </trkpt>
      <trkpt lat="47.81308" lon="-3.6375">
        <ele>46</ele>
        <time>2019-07-14T12:03:40Z</time>
      </trkpt>
      <trkpt lat="47.8131" lon="-3.63742">
        <ele>46</ele>
        <time>2019-07-14T12:03:41Z</time>
      </trkpt>
      <trkpt lat="47.81311" lon="-3.63734">
        <ele>46</ele>
        <time>2019-07-14T12:03:42Z</time>
      </trkpt>
      <trkpt lat="47.81313" lon="-3.63726">
        <ele>46</ele>
        <time>2019-07-14T12:03:43Z</time>
      </trkpt>
      <trkpt lat="47.81315" lon="-3.63718">
        <ele>46</ele>
        <time>2019-07-14T12:03:44Z</time>
      </trkpt>
      <trkpt lat="47.81317" lon="-3.63709">
        <ele>46</ele>
        <time>2019-07-14T12:03:45Z</time>
      </trkpt>
      <trkpt lat="47.81318" lon="-3.63701">
        <ele>46</ele>
        <time>2019-07-14T12:03:46Z</time>
      </trkpt>
      <trkpt lat="47.8132" lon="-3.63693">
        <ele>46</ele>
        <time>2019-07-14T12:03:47Z</time>
      </trkpt>
      <trkpt lat="47.81323" lon="-3.63685">
        <ele>46</ele>
        <time>2019-07-14T12:03:48Z</time>
      </trkpt>
      <trkpt lat="47.81324" lon="-3.63676">
        <ele>46</ele>
        <time>2019-07-14T12:03:49Z</time>
      </trkpt>
      <trkpt lat="47.81326" lon="-3.63669">
        <ele>46</ele>
        <time>2019-07-14T12:03:50Z</time>
      </trkpt>
      <trkpt lat="47.81328" lon="-3.63662">
        <ele>46</ele>
        <time>2019-07-14T12:03:51Z</time>
      </trkpt>
      <trkpt lat="47.8133" lon="-3.63654">
        <ele>46</ele>
        <time>2019-07-14T12:03:52Z</time>
      </trkpt>
      <trkpt lat="47.81331" lon="-3.63646">
        <ele>46</ele>
        <time>2019-07-14T12:03:53Z</time>
      </trkpt>
      <trkpt lat="47.81333" lon="-3.63639">
        <ele>46</ele>
        <time>2019-07-14T12:03:54Z</time>
      </trkpt>
      <trkpt lat="47.81335" lon="-3.63631">
        <ele>46</ele>
        <time>2019-07-14T12:03:55Z</time>
      </trkpt>
      <trkpt lat="47.81337" lon="-3.63623">
        <ele>46</ele>
        <time>2019-07-14T12:03:56Z</time>
      </trkpt>
      <trkpt lat="47.81339" lon="-3.63614">
        <ele>46</ele>
        <time>2019-07-14T12:03:57Z</time>
      </trkpt>
      <trkpt lat="47.8134" lon="-3.63606">
        <ele>46</ele>
        <time>2019-07-14T12:03:58Z</time>
      </trkpt>
      <trkpt lat="47.81342" lon="-3.63597">
        <ele>46</ele>
        <time>2019-07-14T12:03:59Z</time>
      </trkpt>
      <trkpt lat="47.81344" lon="-3.63589">
        <ele>46</ele>
        <time>2019-07-14T12:04:00Z</time>
      </trkpt>
      <trkpt lat="47.81346" lon="-3.63581">
        <ele>46</ele>
        <time>2019-07-14T12:04:01Z</time>
      </trkpt>
      <trkpt lat="47.81347" lon="-3.63572">
        <ele>46</ele>
        <time>2019-07-14T12:04:02Z</time>
      </trkpt>
      <trkpt lat="47.81349" lon="-3.63564">
        <ele>46</ele>
        <time>2019-07-14T12:04:03Z</time>
      </trkpt>
      <trkpt lat="47.8135" lon="-3.63555">
        <ele>46</ele>
        <time>2019-07-14T12:04:04Z</time>
      </trkpt>
      <trkpt lat="47.81352" lon="-3.63547">
        <ele>46</ele>
        <time>2019-07-14T12:04:05Z</time>
      </trkpt>
      <trkpt lat="47.81354" lon="-3.63538">
        <ele>46</ele>
        <time>2019-07-14T12:04:06Z</time>
      </trkpt>
      <trkpt lat="47.81355" lon="-3.63529">
        <ele>46</ele>
        <time>2019-07-14T12:04:07Z</time>
      </trkpt>
      <trkpt lat="47.81356" lon="-3.63521">
        <ele>46</ele>
        <time>2019-07-14T12:04:08Z</time>
      </trkpt>
      <trkpt lat="47.81358" lon="-3.63512">
        <ele>46</ele>
        <time>2019-07-14T12:04:09Z</time>
      </trkpt>
      <trkpt lat="47.81359" lon="-3.63503">
        <ele>46</ele>
        <time>2019-07-14T12:04:10Z</time>
      </trkpt>
      <trkpt lat="47.8136" lon="-3.63495">
        <ele>46</ele>
        <time>2019-07-14T12:04:11Z</time>
      </trkpt>
      <trkpt lat="47.81362" lon="-3.63486">
        <ele>46</ele>
        <time>2019-07-14T12:04:12Z</time>
      </trkpt>
      <trkpt lat="47.81363" lon="-3.63477">
        <ele>46</ele>
        <time>2019-07-14T12:04:13Z</time>
      </trkpt>
      <trkpt lat="47.81364" lon="-3.63468">
        <ele>46</ele>
        <time>2019-07-14T12:04:14Z</time>
      </trkpt>
      <trkpt lat="47.81364" lon="-3.63459">
        <ele>46</ele>
        <time>2019-07-14T12:04:15Z</time>
      </trkpt>
      <trkpt lat="47.81366" lon="-3.63451">
        <ele>46</ele>
        <time>2019-07-14T12:04:16Z</time>
      </trkpt>
      <trkpt lat="47.81367" lon="-3.63442">
        <ele>46</ele>
        <time>2019-07-14T12:04:17Z</time>
      </trkpt>
      <trkpt lat="47.81368" lon="-3.63433">
        <ele>46</ele>
        <time>2019-07-14T12:04:18Z</time>
      </trkpt>
      <trkpt lat="47.81369" lon="-3.63424">
        <ele>46</ele>
        <time>2019-07-14T12:04:19Z</time>
      </trkpt>
      <trkpt lat="47.8137" lon="-3.63415">
        <ele>46</ele>
        <time>2019-07-14T12:04:20Z</time>
      </trkpt>
      <trkpt lat="47.81371" lon="-3.63406">
        <ele>46</ele>
        <time>2019-07-14T12:04:21Z</time>
      </trkpt>
      <trkpt lat="47.81372" lon="-3.63397">
        <ele>47</ele>
        <time>2019-07-14T12:04:22Z</time>
      </trkpt>
      <trkpt lat="47.81373" lon="-3.63388">
        <ele>47</ele>
        <time>2019-07-14T12:04:23Z</time>
      </trkpt>
      <trkpt lat="47.81374" lon="-3.63379">
        <ele>47</ele>
        <time>2019-07-14T12:04:24Z</time>
      </trkpt>
      <trkpt lat="47.81375" lon="-3.6337">
        <ele>47</ele>
        <time>2019-07-14T12:04:25Z</time>
      </trkpt>
      <trkpt lat="47.81376" lon="-3.63362">
        <ele>47</ele>
        <time>2019-07-14T12:04:26Z</time>
      </trkpt>
      <trkpt lat="47.81377" lon="-3.63353">
        <ele>47</ele>
        <time>2019-07-14T12:04:27Z</time>
      </trkpt>
      <trkpt lat="47.81378" lon="-3.63344">
        <ele>47</ele>
        <time>2019-07-14T12:04:28Z</time>
      </trkpt>
      <trkpt lat="47.81379" lon="-3.63336">
        <ele>47</ele>
        <time>2019-07-14T12:04:29Z</time>
      </trkpt>
      <trkpt lat="47.8138" lon="-3.63327">
        <ele>48</ele>
        <time>2019-07-14T12:04:30Z</time>
      </trkpt>
      <trkpt lat="47.81381" lon="-3.63318">
        <ele>48</ele>
        <time>2019-07-14T12:04:31Z</time>
      </trkpt>
      <trkpt lat="47.81382" lon="-3.6331">
        <ele>48</ele>
        <time>2019-07-14T12:04:32Z</time>
      </trkpt>
      <trkpt lat="47.81383" lon="-3.63301">
        <ele>48</ele>
        <time>2019-07-14T12:04:33Z</time>
      </trkpt>
      <trkpt lat="47.81384" lon="-3.63292">
        <ele>48</ele>
        <time>2019-07-14T12:04:34Z</time>
      </trkpt>
      <trkpt lat="47.81386" lon="-3.63284">
        <ele>48</ele>
        <time>2019-07-14T12:04:35Z</time>
      </trkpt>
      <trkpt lat="47.81387" lon="-3.63275">
        <ele>48</ele>
        <time>2019-07-14T12:04:36Z</time>
      </trkpt>
      <trkpt lat="47.81388" lon="-3.63267">
        <ele>48</ele>
        <time>2019-07-14T12:04:37Z</time>
      </trkpt>
      <trkpt lat="47.8139" lon="-3.63258">
        <ele>49</ele>
        <time>2019-07-14T12:04:38Z</time>
      </trkpt>
      <trkpt lat="47.81391" lon="-3.6325">
        <ele>49</ele>
        <time>2019-07-14T12:04:39Z</time>
      </trkpt>
      <trkpt lat="47.81392" lon="-3.63241">
        <ele>49</ele>
        <time>2019-07-14T12:04:40Z</time>
      </trkpt>
      <trkpt lat="47.81393" lon="-3.63232">
        <ele>49</ele>
        <time>2019-07-14T12:04:41Z</time>
      </trkpt>
      <trkpt lat="47.81394" lon="-3.63224">
        <ele>49</ele>
        <time>2019-07-14T12:04:42Z</time>
      </trkpt>
      <trkpt lat="47.81395" lon="-3.63215">
        <ele>49</ele>
        <time>2019-07-14T12:04:43Z</time>
      </trkpt>
      <trkpt lat="47.81397" lon="-3.63207">
        <ele>49</ele>
        <time>2019-07-14T12:04:44Z</time>
      </trkpt>
      <trkpt lat="47.81398" lon="-3.63199">
        <ele>49</ele>
        <time>2019-07-14T12:04:45Z</time>
      </trkpt>
      <trkpt lat="47.81399" lon="-3.63191">
        <ele>49</ele>
        <time>2019-07-14T12:04:46Z</time>
      </trkpt>
      <trkpt lat="47.814" lon="-3.63183">
        <ele>49</ele>
        <time>2019-07-14T12:04:47Z</time>
      </trkpt>
      <trkpt lat="47.81402" lon="-3.63176">
        <ele>50</ele>
        <time>2019-07-14T12:04:48Z</time>
      </trkpt>
      <trkpt lat="47.81403" lon="-3.63168">
        <ele>50</ele>
        <time>2019-07-14T12:04:49Z</time>
      </trkpt>
      <trkpt lat="47.81404" lon="-3.6316">
        <ele>50</ele>
        <time>2019-07-14T12:04:50Z</time>
      </trkpt>
      <trkpt lat="47.81405" lon="-3.63152">
        <ele>50</ele>
        <time>2019-07-14T12:04:51Z</time>
      </trkpt>
      <trkpt lat="47.81405" lon="-3.63144">
        <ele>50</ele>
        <time>2019-07-14T12:04:52Z</time>
      </trkpt>
      <trkpt lat="47.81406" lon="-3.63135">
        <ele>50</ele>
        <time>2019-07-14T12:04:53Z</time>
      </trkpt>
      <trkpt lat="47.81406" lon="-3.63127">
        <ele>50</ele>
        <time>2019-07-14T12:04:54Z</time>
      </trkpt>
      <trkpt lat="47.81406" lon="-3.63118">
        <ele>50</ele>
        <time>2019-07-14T12:04:55Z</time>
      </trkpt>
      <trkpt lat="47.81405" lon="-3.6311">
        <ele>50</ele>
        <time>2019-07-14T12:04:56Z</time>
      </trkpt>
      <trkpt lat="47.81403" lon="-3.63102">
        <ele>50</ele>
        <time>2019-07-14T12:04:57Z</time>
      </trkpt>
      <trkpt lat="47.81402" lon="-3.63094">
        <ele>50</ele>
        <time>2019-07-14T12:04:58Z</time>
      </trkpt>
      <trkpt lat="47.814" lon="-3.63086">
        <ele>50</ele>
        <time>2019-07-14T12:04:59Z</time>
      </trkpt>
      <trkpt lat="47.81397" lon="-3.63078">
        <ele>50</ele>
        <time>2019-07-14T12:05:00Z</time>
      </trkpt>
      <trkpt lat="47.81395" lon="-3.6307">
        <ele>50</ele>
        <time>2019-07-14T12:05:01Z</time>
      </trkpt>
      <trkpt lat="47.81392" lon="-3.63062">
        <ele>50</ele>
        <time>2019-07-14T12:05:02Z</time>
      </trkpt>
      <trkpt lat="47.81389" lon="-3.63054">
        <ele>50</ele>
        <time>2019-07-14T12:05:03Z</time>
      </trkpt>
      <trkpt lat="47.81386" lon="-3.63047">
        <ele>49</ele>
        <time>2019-07-14T12:05:04Z</time>
      </trkpt>
      <trkpt lat="47.81384" lon="-3.63039">
        <ele>49</ele>
        <time>2019-07-14T12:05:05Z</time>
      </trkpt>
      <trkpt lat="47.81381" lon="-3.63031">
        <ele>49</ele>
        <time>2019-07-14T12:05:06Z</time>
      </trkpt>
      <trkpt lat="47.81379" lon="-3.63022">
        <ele>49</ele>
        <time>2019-07-14T12:05:07Z</time>
      </trkpt>
      <trkpt lat="47.81376" lon="-3.63014">
        <ele>49</ele>
        <time>2019-07-14T12:05:08Z</time>
      </trkpt>
      <trkpt lat="47.81374" lon="-3.63006">
        <ele>49</ele>
        <time>2019-07-14T12:05:09Z</time>
      </trkpt>
      <trkpt lat="47.81372" lon="-3.62998">
        <ele>49</ele>
        <time>2019-07-14T12:05:10Z</time>
      </trkpt>
      <trkpt lat="47.81369" lon="-3.6299">
        <ele>49</ele>
        <time>2019-07-14T12:05:11Z</time>
      </trkpt>
      <trkpt lat="47.81367" lon="-3.62983">
        <ele>49</ele>
        <time>2019-07-14T12:05:12Z</time>
      </trkpt>
      <trkpt lat="47.81364" lon="-3.62976">
        <ele>49</ele>
        <time>2019-07-14T12:05:13Z</time>
      </trkpt>
      <trkpt lat="47.81362" lon="-3.62969">
        <ele>49</ele>
        <time>2019-07-14T12:05:14Z</time>
      </trkpt>
      <trkpt lat="47.81361" lon="-3.62961">
        <ele>49</ele>
        <time>2019-07-14T12:05:15Z</time>
      </trkpt>
      <trkpt lat="47.81362" lon="-3.62955">
        <ele>49</ele>
        <time>2019-07-14T12:05:16Z</time>
      </trkpt>
      <trkpt lat="47.81363" lon="-3.62949">
        <ele>49</ele>
        <time>2019-07-14T12:05:17Z</time>
      </trkpt>
      <trkpt lat="47.81367" lon="-3.62943">
        <ele>49</ele>
        <time>2019-07-14T12:05:18Z</time>
      </trkpt>
      <trkpt lat="47.8137" lon="-3.62939">
        <ele>48</ele>
        <time>2019-07-14T12:05:19Z</time>
      </trkpt>
      <trkpt lat="47.81373" lon="-3.62935">
        <ele>48</ele>
        <time>2019-07-14T12:05:20Z</time>
      </trkpt>
      <trkpt lat="47.81376" lon="-3.62929">
        <ele>48</ele>
        <time>2019-07-14T12:05:21Z</time>
      </trkpt>
      <trkpt lat="47.8138" lon="-3.62924">
        <ele>49</ele>
        <time>2019-07-14T12:05:22Z</time>
      </trkpt>
      <trkpt lat="47.81383" lon="-3.62919">
        <ele>49</ele>
        <time>2019-07-14T12:05:23Z</time>
      </trkpt>
      <trkpt lat="47.81386" lon="-3.62914">
        <ele>49</ele>
        <time>2019-07-14T12:05:24Z</time>
      </trkpt>
      <trkpt lat="47.81388" lon="-3.62908">
        <ele>49</ele>
        <time>2019-07-14T12:05:25Z</time>
      </trkpt>
      <trkpt lat="47.8139" lon="-3.62902">
        <ele>49</ele>
        <time>2019-07-14T12:05:26Z</time>
      </trkpt>
      <trkpt lat="47.81392" lon="-3.62895">
        <ele>49</ele>
        <time>2019-07-14T12:05:27Z</time>
      </trkpt>
      <trkpt lat="47.81393" lon="-3.62888">
        <ele>49</ele>
        <time>2019-07-14T12:05:28Z</time>
      </trkpt>
      <trkpt lat="47.81395" lon="-3.62881">
        <ele>49</ele>
        <time>2019-07-14T12:05:29Z</time>
      </trkpt>
      <trkpt lat="47.81397" lon="-3.62874">
        <ele>49</ele>
        <time>2019-07-14T12:05:30Z</time>
      </trkpt>
      <trkpt lat="47.81398" lon="-3.62866">
        <ele>49</ele>
        <time>2019-07-14T12:05:31Z</time>
      </trkpt>
      <trkpt lat="47.81399" lon="-3.62859">
        <ele>48</ele>
        <time>2019-07-14T12:05:32Z</time>
      </trkpt>
      <trkpt lat="47.81399" lon="-3.62852">
        <ele>48</ele>
        <time>2019-07-14T12:05:33Z</time>
      </trkpt>
      <trkpt lat="47.81397" lon="-3.62847">
        <ele>48</ele>
        <time>2019-07-14T12:05:34Z</time>
      </trkpt>
      <trkpt lat="47.81393" lon="-3.62843">
        <ele>48</ele>
        <time>2019-07-14T12:05:35Z</time>
      </trkpt>
      <trkpt lat="47.81389" lon="-3.62839">
        <ele>48</ele>
        <time>2019-07-14T12:05:36Z</time>
      </trkpt>
      <trkpt lat="47.81385" lon="-3.62834">
        <ele>48</ele>
        <time>2019-07-14T12:05:37Z</time>
      </trkpt>
      <trkpt lat="47.8138" lon="-3.62829">
        <ele>48</ele>
        <time>2019-07-14T12:05:38Z</time>
      </trkpt>
      <trkpt lat="47.81376" lon="-3.62824">
        <ele>48</ele>
        <time>2019-07-14T12:05:39Z</time>
      </trkpt>
      <trkpt lat="47.81372" lon="-3.62819">
        <ele>48</ele>
        <time>2019-07-14T12:05:40Z</time>
      </trkpt>
      <trkpt lat="47.81368" lon="-3.62813">
        <ele>48</ele>
        <time>2019-07-14T12:05:41Z</time>
      </trkpt>
      <trkpt lat="47.81363" lon="-3.62808">
        <ele>48</ele>
        <time>2019-07-14T12:05:42Z</time>
      </trkpt>
      <trkpt lat="47.81359" lon="-3.62802">
        <ele>48</ele>
        <time>2019-07-14T12:05:43Z</time>
      </trkpt>
      <trkpt lat="47.81354" lon="-3.62796">
        <ele>48</ele>
        <time>2019-07-14T12:05:44Z</time>
      </trkpt>
      <trkpt lat="47.8135" lon="-3.6279">
        <ele>47</ele>
        <time>2019-07-14T12:05:45Z</time>
      </trkpt>
      <trkpt lat="47.81344" lon="-3.62785">
        <ele>47</ele>
        <time>2019-07-14T12:05:46Z</time>
      </trkpt>
      <trkpt lat="47.8134" lon="-3.62779">
        <ele>47</ele>
        <time>2019-07-14T12:05:47Z</time>
      </trkpt>
      <trkpt lat="47.81335" lon="-3.62772">
        <ele>47</ele>
        <time>2019-07-14T12:05:48Z</time>
      </trkpt>
      <trkpt lat="47.8133" lon="-3.62766">
        <ele>47</ele>
        <time>2019-07-14T12:05:49Z</time>
      </trkpt>
      <trkpt lat="47.81325" lon="-3.62761">
        <ele>47</ele>
        <time>2019-07-14T12:05:50Z</time>
      </trkpt>
      <trkpt lat="47.81321" lon="-3.62756">
        <ele>46</ele>
        <time>2019-07-14T12:05:51Z</time>
      </trkpt>
      <trkpt lat="47.81317" lon="-3.62751">
        <ele>46</ele>
        <time>2019-07-14T12:05:52Z</time>
      </trkpt>
      <trkpt lat="47.81314" lon="-3.62746">
        <ele>46</ele>
        <time>2019-07-14T12:05:53Z</time>
      </trkpt>
      <trkpt lat="47.81311" lon="-3.62742">
        <ele>46</ele>
        <time>2019-07-14T12:05:54Z</time>
      </trkpt>
      <trkpt lat="47.81308" lon="-3.62738">
        <ele>46</ele>
        <time>2019-07-14T12:05:55Z</time>
      </trkpt>
      <trkpt lat="47.81305" lon="-3.62734">
        <ele>46</ele>
        <time>2019-07-14T12:05:56Z</time>
      </trkpt>
      <trkpt lat="47.81301" lon="-3.62732">
        <ele>46</ele>
        <time>2019-07-14T12:05:57Z</time>
      </trkpt>
      <trkpt lat="47.81298" lon="-3.62728">
        <ele>46</ele>
        <time>2019-07-14T12:05:58Z</time>
      </trkpt>
      <trkpt lat="47.81297" lon="-3.62725">
        <ele>46</ele>
        <time>2019-07-14T12:05:59Z</time>
      </trkpt>
      <trkpt lat="47.81298" lon="-3.62721">
        <ele>46</ele>
        <time>2019-07-14T12:06:00Z</time>
      </trkpt>
      <trkpt lat="47.813" lon="-3.62716">
        <ele>45</ele>
        <time>2019-07-14T12:06:01Z</time>
      </trkpt>
      <trkpt lat="47.81302" lon="-3.6271">
        <ele>45</ele>
        <time>2019-07-14T12:06:02Z</time>
      </trkpt>
      <trkpt lat="47.81305" lon="-3.62705">
        <ele>45</ele>
        <time>2019-07-14T12:06:03Z</time>
      </trkpt>
      <trkpt lat="47.81307" lon="-3.62699">
        <ele>45</ele>
        <time>2019-07-14T12:06:04Z</time>
      </trkpt>
      <trkpt lat="47.81308" lon="-3.62693">
        <ele>45</ele>
        <time>2019-07-14T12:06:05Z</time>
      </trkpt>
      <trkpt lat="47.81307" lon="-3.62687">
        <ele>45</ele>
        <time>2019-07-14T12:06:06Z</time>
      </trkpt>
      <trkpt lat="47.81303" lon="-3.62684">
        <ele>44</ele>
        <time>2019-07-14T12:06:07Z</time>
      </trkpt>
      <trkpt lat="47.81299" lon="-3.62681">
        <ele>44</ele>
        <time>2019-07-14T12:06:08Z</time>
      </trkpt>
      <trkpt lat="47.81294" lon="-3.62678">
        <ele>44</ele>
        <time>2019-07-14T12:06:09Z</time>
      </trkpt>
      <trkpt lat="47.8129" lon="-3.62674">
        <ele>44</ele>
        <time>2019-07-14T12:06:10Z</time>
      </trkpt>
      <trkpt lat="47.81285" lon="-3.62669">
        <ele>44</ele>
        <time>2019-07-14T12:06:11Z</time>
      </trkpt>
      <trkpt lat="47.8128" lon="-3.62665">
        <ele>44</ele>
        <time>2019-07-14T12:06:12Z</time>
      </trkpt>
      <trkpt lat="47.81275" lon="-3.62662">
        <ele>43</ele>
        <time>2019-07-14T12:06:13Z</time>
      </trkpt>
      <trkpt lat="47.8127" lon="-3.62658">
        <ele>43</ele>
        <time>2019-07-14T12:06:14Z</time>
      </trkpt>
      <trkpt lat="47.81265" lon="-3.62654">
        <ele>43</ele>
        <time>2019-07-14T12:06:15Z</time>
      </trkpt>
      <trkpt lat="47.81261" lon="-3.62649">
        <ele>43</ele>
        <time>2019-07-14T12:06:16Z</time>
      </trkpt>
      <trkpt lat="47.81256" lon="-3.62644">
        <ele>43</ele>
        <time>2019-07-14T12:06:17Z</time>
      </trkpt>
      <trkpt lat="47.81253" lon="-3.62638">
        <ele>43</ele>
        <time>2019-07-14T12:06:18Z</time>
      </trkpt>
      <trkpt lat="47.8125" lon="-3.62632">
        <ele>44</ele>
        <time>2019-07-14T12:06:19Z</time>
      </trkpt>
      <trkpt lat="47.81248" lon="-3.62625">
        <ele>44</ele>
        <time>2019-07-14T12:06:20Z</time>
      </trkpt>
      <trkpt lat="47.81247" lon="-3.62619">
        <ele>44</ele>
        <time>2019-07-14T12:06:21Z</time>
      </trkpt>
      <trkpt lat="47.81248" lon="-3.62614">
        <ele>44</ele>
        <time>2019-07-14T12:06:22Z</time>
      </trkpt>
      <trkpt lat="47.8125" lon="-3.62608">
        <ele>44</ele>
        <time>2019-07-14T12:06:23Z</time>
      </trkpt>
      <trkpt lat="47.81253" lon="-3.62602">
        <ele>44</ele>
        <time>2019-07-14T12:06:24Z</time>
      </trkpt>
      <trkpt lat="47.81255" lon="-3.62596">
        <ele>44</ele>
        <time>2019-07-14T12:06:25Z</time>
      </trkpt>
      <trkpt lat="47.81258" lon="-3.62592">
        <ele>44</ele>
        <time>2019-07-14T12:06:26Z</time>
      </trkpt>
      <trkpt lat="47.81261" lon="-3.62587">
        <ele>44</ele>
        <time>2019-07-14T12:06:27Z</time>
      </trkpt>
      <trkpt lat="47.81263" lon="-3.62581">
        <ele>44</ele>
        <time>2019-07-14T12:06:28Z</time>
      </trkpt>
      <trkpt lat="47.81265" lon="-3.62575">
        <ele>44</ele>
        <time>2019-07-14T12:06:29Z</time>
      </trkpt>
      <trkpt lat="47.81267" lon="-3.6257">
        <ele>44</ele>
        <time>2019-07-14T12:06:30Z</time>
      </trkpt>
      <trkpt lat="47.8127" lon="-3.62565">
        <ele>44</ele>
        <time>2019-07-14T12:06:31Z</time>
      </trkpt>
      <trkpt lat="47.81272" lon="-3.62559">
        <ele>44</ele>
        <time>2019-07-14T12:06:32Z</time>
      </trkpt>
      <trkpt lat="47.81275" lon="-3.62553">
        <ele>44</ele>
        <time>2019-07-14T12:06:33Z</time>
      </trkpt>
      <trkpt lat="47.81278" lon="-3.62547">
        <ele>44</ele>
        <time>2019-07-14T12:06:34Z</time>
      </trkpt>
      <trkpt lat="47.81281" lon="-3.62541">
        <ele>44</ele>
        <time>2019-07-14T12:06:35Z</time>
      </trkpt>
      <trkpt lat="47.81284" lon="-3.62535">
        <ele>45</ele>
        <time>2019-07-14T12:06:36Z</time>
      </trkpt>
      <trkpt lat="47.81287" lon="-3.62529">
        <ele>45</ele>
        <time>2019-07-14T12:06:37Z</time>
      </trkpt>
      <trkpt lat="47.8129" lon="-3.62523">
        <ele>45</ele>
        <time>2019-07-14T12:06:38Z</time>
      </trkpt>
      <trkpt lat="47.81293" lon="-3.62517">
        <ele>45</ele>
        <time>2019-07-14T12:06:39Z</time>
      </trkpt>
      <trkpt lat="47.81296" lon="-3.62511">
        <ele>45</ele>
        <time>2019-07-14T12:06:40Z</time>
      </trkpt>
      <trkpt lat="47.81299" lon="-3.62505">
        <ele>45</ele>
        <time>2019-07-14T12:06:41Z</time>
      </trkpt>
      <trkpt lat="47.81302" lon="-3.62499">
        <ele>45</ele>
        <time>2019-07-14T12:06:42Z</time>
      </trkpt>
      <trkpt lat="47.81305" lon="-3.62492">
        <ele>45</ele>
        <time>2019-07-14T12:06:43Z</time>
      </trkpt>
      <trkpt lat="47.81308" lon="-3.62486">
        <ele>45</ele>
        <time>2019-07-14T12:06:44Z</time>
      </trkpt>
      <trkpt lat="47.81311" lon="-3.62479">
        <ele>45</ele>
        <time>2019-07-14T12:06:45Z</time>
      </trkpt>
      <trkpt lat="47.81314" lon="-3.62473">
        <ele>45</ele>
        <time>2019-07-14T12:06:46Z</time>
      </trkpt>
      <trkpt lat="47.81317" lon="-3.62466">
        <ele>45</ele>
        <time>2019-07-14T12:06:47Z</time>
      </trkpt>
      <trkpt lat="47.81319" lon="-3.6246">
        <ele>45</ele>
        <time>2019-07-14T12:06:48Z</time>
      </trkpt>
      <trkpt lat="47.81322" lon="-3.62453">
        <ele>45</ele>
        <time>2019-07-14T12:06:49Z</time>
      </trkpt>
      <trkpt lat="47.81325" lon="-3.62446">
        <ele>45</ele>
        <time>2019-07-14T12:06:50Z</time>
      </trkpt>
      <trkpt lat="47.81328" lon="-3.62438">
        <ele>45</ele>
        <time>2019-07-14T12:06:51Z</time>
      </trkpt>
      <trkpt lat="47.81331" lon="-3.62432">
        <ele>45</ele>
        <time>2019-07-14T12:06:52Z</time>
      </trkpt>
      <trkpt lat="47.81334" lon="-3.62425">
        <ele>45</ele>
        <time>2019-07-14T12:06:53Z</time>
      </trkpt>
      <trkpt lat="47.81337" lon="-3.62418">
        <ele>45</ele>
        <time>2019-07-14T12:06:54Z</time>
      </trkpt>
      <trkpt lat="47.81339" lon="-3.62411">
        <ele>45</ele>
        <time>2019-07-14T12:06:55Z</time>
      </trkpt>
      <trkpt lat="47.81342" lon="-3.62405">
        <ele>45</ele>
        <time>2019-07-14T12:06:56Z</time>
      </trkpt>
      <trkpt lat="47.81345" lon="-3.62398">
        <ele>45</ele>
        <time>2019-07-14T12:06:57Z</time>
      </trkpt>
      <trkpt lat="47.81349" lon="-3.62392">
        <ele>46</ele>
        <time>2019-07-14T12:06:58Z</time>
      </trkpt>
      <trkpt lat="47.81353" lon="-3.62386">
        <ele>46</ele>
        <time>2019-07-14T12:06:59Z</time>
      </trkpt>
      <trkpt lat="47.81356" lon="-3.6238">
        <ele>46</ele>
        <time>2019-07-14T12:07:00Z</time>
      </trkpt>
      <trkpt lat="47.8136" lon="-3.62375">
        <ele>46</ele>
        <time>2019-07-14T12:07:01Z</time>
      </trkpt>
      <trkpt lat="47.81364" lon="-3.62369">
        <ele>46</ele>
        <time>2019-07-14T12:07:02Z</time>
      </trkpt>
      <trkpt lat="47.81368" lon="-3.62364">
        <ele>46</ele>
        <time>2019-07-14T12:07:03Z</time>
      </trkpt>
      <trkpt lat="47.81372" lon="-3.62359">
        <ele>46</ele>
        <time>2019-07-14T12:07:04Z</time>
      </trkpt>
      <trkpt lat="47.81376" lon="-3.62354">
        <ele>46</ele>
        <time>2019-07-14T12:07:05Z</time>
      </trkpt>
      <trkpt lat="47.81379" lon="-3.6235">
        <ele>47</ele>
        <time>2019-07-14T12:07:06Z</time>
      </trkpt>
      <trkpt lat="47.81383" lon="-3.62346">
        <ele>47</ele>
        <time>2019-07-14T12:07:07Z</time>
      </trkpt>
      <trkpt lat="47.81386" lon="-3.62342">
        <ele>47</ele>
        <time>2019-07-14T12:07:08Z</time>
      </trkpt>
      <trkpt lat="47.8139" lon="-3.62338">
        <ele>47</ele>
        <time>2019-07-14T12:07:09Z</time>
      </trkpt>
      <trkpt lat="47.81393" lon="-3.62334">
        <ele>47</ele>
        <time>2019-07-14T12:07:10Z</time>
      </trkpt>
      <trkpt lat="47.81396" lon="-3.6233">
        <ele>48</ele>
        <time>2019-07-14T12:07:11Z</time>
      </trkpt>
      <trkpt lat="47.81399" lon="-3.62327">
        <ele>48</ele>
        <time>2019-07-14T12:07:12Z</time>
      </trkpt>
      <trkpt lat="47.81403" lon="-3.62324">
        <ele>48</ele>
        <time>2019-07-14T12:07:13Z</time>
      </trkpt>
      <trkpt lat="47.81406" lon="-3.62321">
        <ele>48</ele>
        <time>2019-07-14T12:07:14Z</time>
      </trkpt>
      <trkpt lat="47.8141" lon="-3.62319">
        <ele>48</ele>
        <time>2019-07-14T12:07:15Z</time>
      </trkpt>
      <trkpt lat="47.81412" lon="-3.62318">
        <ele>49</ele>
        <time>2019-07-14T12:07:16Z</time>
      </trkpt>
      <trkpt lat="47.81413" lon="-3.62317">
        <ele>49</ele>
        <time>2019-07-14T12:07:17Z</time>
      </trkpt>
      <trkpt lat="47.81414" lon="-3.62317">
        <ele>49</ele>
        <time>2019-07-14T12:07:18Z</time>
      </trkpt>
      <trkpt lat="47.81415" lon="-3.62317">
        <ele>49</ele>
        <time>2019-07-14T12:07:19Z</time>
      </trkpt>
      <trkpt lat="47.81417" lon="-3.62317">
        <ele>49</ele>
        <time>2019-07-14T12:07:20Z</time>
      </trkpt>
      <trkpt lat="47.81419" lon="-3.62318">
        <ele>49</ele>
        <time>2019-07-14T12:07:21Z</time>
      </trkpt>
      <trkpt lat="47.81421" lon="-3.62319">
        <ele>49</ele>
        <time>2019-07-14T12:07:22Z</time>
      </trkpt>
      <trkpt lat="47.81425" lon="-3.62319">
        <ele>49</ele>
        <time>2019-07-14T12:07:23Z</time>
      </trkpt>
      <trkpt lat="47.81428" lon="-3.62318">
        <ele>49</ele>
        <time>2019-07-14T12:07:24Z</time>
      </trkpt>
      <trkpt lat="47.81432" lon="-3.62316">
        <ele>49</ele>
        <time>2019-07-14T12:07:25Z</time>
      </trkpt>
      <trkpt lat="47.81436" lon="-3.62313">
        <ele>50</ele>
        <time>2019-07-14T12:07:26Z</time>
      </trkpt>
      <trkpt lat="47.81438" lon="-3.62308">
        <ele>50</ele>
        <time>2019-07-14T12:07:27Z</time>
      </trkpt>
      <trkpt lat="47.81438" lon="-3.62302">
        <ele>50</ele>
        <time>2019-07-14T12:07:28Z</time>
      </trkpt>
      <trkpt lat="47.81437" lon="-3.62296">
        <ele>50</ele>
        <time>2019-07-14T12:07:29Z</time>
      </trkpt>
      <trkpt lat="47.81435" lon="-3.6229">
        <ele>50</ele>
        <time>2019-07-14T12:07:30Z</time>
      </trkpt>
      <trkpt lat="47.81433" lon="-3.62283">
        <ele>50</ele>
        <time>2019-07-14T12:07:31Z</time>
      </trkpt>
      <trkpt lat="47.81431" lon="-3.62276">
        <ele>50</ele>
        <time>2019-07-14T12:07:32Z</time>
      </trkpt>
      <trkpt lat="47.81429" lon="-3.62268">
        <ele>50</ele>
        <time>2019-07-14T12:07:33Z</time>
      </trkpt>
      <trkpt lat="47.81427" lon="-3.6226">
        <ele>50</ele>
        <time>2019-07-14T12:07:34Z</time>
      </trkpt>
      <trkpt lat="47.81425" lon="-3.62253">
        <ele>50</ele>
        <time>2019-07-14T12:07:35Z</time>
      </trkpt>
      <trkpt lat="47.81423" lon="-3.62245">
        <ele>50</ele>
        <time>2019-07-14T12:07:36Z</time>
      </trkpt>
      <trkpt lat="47.81421" lon="-3.62237">
        <ele>50</ele>
        <time>2019-07-14T12:07:37Z</time>
      </trkpt>
      <trkpt lat="47.81419" lon="-3.6223">
        <ele>50</ele>
        <time>2019-07-14T12:07:38Z</time>
      </trkpt>
      <trkpt lat="47.81417" lon="-3.62222">
        <ele>50</ele>
        <time>2019-07-14T12:07:39Z</time>
      </trkpt>
      <trkpt lat="47.81415" lon="-3.62214">
        <ele>50</ele>
        <time>2019-07-14T12:07:40Z</time>
      </trkpt>
      <trkpt lat="47.81413" lon="-3.62206">
        <ele>50</ele>
        <time>2019-07-14T12:07:41Z</time>
      </trkpt>
      <trkpt lat="47.81411" lon="-3.62198">
        <ele>50</ele>
        <time>2019-07-14T12:07:42Z</time>
      </trkpt>
      <trkpt lat="47.81409" lon="-3.62189">
        <ele>50</ele>
        <time>2019-07-14T12:07:43Z</time>
      </trkpt>
      <trkpt lat="47.81408" lon="-3.62181">
        <ele>50</ele>
        <time>2019-07-14T12:07:44Z</time>
      </trkpt>
      <trkpt lat="47.81407" lon="-3.62172">
        <ele>50</ele>
        <time>2019-07-14T12:07:45Z</time>
      </trkpt>
      <trkpt lat="47.81406" lon="-3.62164">
        <ele>50</ele>
        <time>2019-07-14T12:07:46Z</time>
      </trkpt>
      <trkpt lat="47.81406" lon="-3.62155">
        <ele>50</ele>
        <time>2019-07-14T12:07:47Z</time>
      </trkpt>
      <trkpt lat="47.81405" lon="-3.62147">
        <ele>50</ele>
        <time>2019-07-14T12:07:48Z</time>
      </trkpt>
      <trkpt lat="47.81405" lon="-3.62139">
        <ele>49</ele>
        <time>2019-07-14T12:07:49Z</time>
      </trkpt>
      <trkpt lat="47.81405" lon="-3.62131">
        <ele>49</ele>
        <time>2019-07-14T12:07:50Z</time>
      </trkpt>
      <trkpt lat="47.81405" lon="-3.62125">
        <ele>49</ele>
        <time>2019-07-14T12:07:51Z</time>
      </trkpt>
      <trkpt lat="47.81404" lon="-3.62118">
        <ele>49</ele>
        <time>2019-07-14T12:07:52Z</time>
      </trkpt>
      <trkpt lat="47.81404" lon="-3.62112">
        <ele>49</ele>
        <time>2019-07-14T12:07:53Z</time>
      </trkpt>
      <trkpt lat="47.81405" lon="-3.62106">
        <ele>49</ele>
        <time>2019-07-14T12:07:54Z</time>
      </trkpt>
      <trkpt lat="47.81406" lon="-3.621">
        <ele>49</ele>
        <time>2019-07-14T12:07:55Z</time>
      </trkpt>
      <trkpt lat="47.81406" lon="-3.62093">
        <ele>49</ele>
        <time>2019-07-14T12:07:56Z</time>
      </trkpt>
      <trkpt lat="47.81407" lon="-3.62086">
        <ele>49</ele>
        <time>2019-07-14T12:07:57Z</time>
      </trkpt>
      <trkpt lat="47.81408" lon="-3.62078">
        <ele>49</ele>
        <time>2019-07-14T12:07:58Z</time>
      </trkpt>
      <trkpt lat="47.81409" lon="-3.6207">
        <ele>49</ele>
        <time>2019-07-14T12:07:59Z</time>
      </trkpt>
      <trkpt lat="47.8141" lon="-3.62061">
        <ele>49</ele>
        <time>2019-07-14T12:08:00Z</time>
      </trkpt>
      <trkpt lat="47.81411" lon="-3.62053">
        <ele>48</ele>
        <time>2019-07-14T12:08:01Z</time>
      </trkpt>
      <trkpt lat="47.81412" lon="-3.62044">
        <ele>48</ele>
        <time>2019-07-14T12:08:02Z</time>
      </trkpt>
      <trkpt lat="47.81412" lon="-3.62036">
        <ele>48</ele>
        <time>2019-07-14T12:08:03Z</time>
      </trkpt>
      <trkpt lat="47.81413" lon="-3.62027">
        <ele>48</ele>
        <time>2019-07-14T12:08:04Z</time>
      </trkpt>
      <trkpt lat="47.81414" lon="-3.62017">
        <ele>48</ele>
        <time>2019-07-14T12:08:05Z</time>
      </trkpt>
      <trkpt lat="47.81415" lon="-3.62008">
        <ele>48</ele>
        <time>2019-07-14T12:08:06Z</time>
      </trkpt>
      <trkpt lat="47.81416" lon="-3.61999">
        <ele>48</ele>
        <time>2019-07-14T12:08:07Z</time>
      </trkpt>
      <trkpt lat="47.81416" lon="-3.61989">
        <ele>48</ele>
        <time>2019-07-14T12:08:08Z</time>
      </trkpt>
      <trkpt lat="47.81417" lon="-3.6198">
        <ele>48</ele>
        <time>2019-07-14T12:08:09Z</time>
      </trkpt>
      <trkpt lat="47.81417" lon="-3.6197">
        <ele>47</ele>
        <time>2019-07-14T12:08:10Z</time>
      </trkpt>
      <trkpt lat="47.81418" lon="-3.6196">
        <ele>47</ele>
        <time>2019-07-14T12:08:11Z</time>
      </trkpt>
      <trkpt lat="47.81418" lon="-3.61951">
        <ele>47</ele>
        <time>2019-07-14T12:08:12Z</time>
      </trkpt>
      <trkpt lat="47.81418" lon="-3.61941">
        <ele>47</ele>
        <time>2019-07-14T12:08:13Z</time>
      </trkpt>
      <trkpt lat="47.81417" lon="-3.61932">
        <ele>47</ele>
        <time>2019-07-14T12:08:14Z</time>
      </trkpt>
      <trkpt lat="47.81416" lon="-3.61923">
        <ele>46</ele>
        <time>2019-07-14T12:08:15Z</time>
      </trkpt>
      <trkpt lat="47.81416" lon="-3.61913">
        <ele>46</ele>
        <time>2019-07-14T12:08:16Z</time>
      </trkpt>
      <trkpt lat="47.81414" lon="-3.61904">
        <ele>46</ele>
        <time>2019-07-14T12:08:17Z</time>
      </trkpt>
      <trkpt lat="47.81413" lon="-3.61894">
        <ele>46</ele>
        <time>2019-07-14T12:08:18Z</time>
      </trkpt>
      <trkpt lat="47.81412" lon="-3.61884">
        <ele>46</ele>
        <time>2019-07-14T12:08:19Z</time>
      </trkpt>
      <trkpt lat="47.8141" lon="-3.61874">
        <ele>45</ele>
        <time>2019-07-14T12:08:20Z</time>
      </trkpt>
      <trkpt lat="47.81408" lon="-3.61864">
        <ele>45</ele>
        <time>2019-07-14T12:08:21Z</time>
      </trkpt>
      <trkpt lat="47.81406" lon="-3.61854">
        <ele>45</ele>
        <time>2019-07-14T12:08:22Z</time>
      </trkpt>
      <trkpt lat="47.81405" lon="-3.61844">
        <ele>45</ele>
        <time>2019-07-14T12:08:23Z</time>
      </trkpt>
      <trkpt lat="47.81403" lon="-3.61833">
        <ele>45</ele>
        <time>2019-07-14T12:08:24Z</time>
      </trkpt>
      <trkpt lat="47.81401" lon="-3.61823">
        <ele>45</ele>
        <time>2019-07-14T12:08:25Z</time>
      </trkpt>
      <trkpt lat="47.814" lon="-3.61814">
        <ele>45</ele>
        <time>2019-07-14T12:08:26Z</time>
      </trkpt>
      <trkpt lat="47.81398" lon="-3.61803">
        <ele>45</ele>
        <time>2019-07-14T12:08:27Z</time>
      </trkpt>
      <trkpt lat="47.81396" lon="-3.61793">
        <ele>44</ele>
        <time>2019-07-14T12:08:28Z</time>
      </trkpt>
      <trkpt lat="47.81395" lon="-3.61782">
        <ele>44</ele>
        <time>2019-07-14T12:08:29Z</time>
      </trkpt>
      <trkpt lat="47.81394" lon="-3.61772">
        <ele>44</ele>
        <time>2019-07-14T12:08:30Z</time>
      </trkpt>
      <trkpt lat="47.81393" lon="-3.61761">
        <ele>44</ele>
        <time>2019-07-14T12:08:31Z</time>
      </trkpt>
      <trkpt lat="47.81393" lon="-3.61751">
        <ele>44</ele>
        <time>2019-07-14T12:08:32Z</time>
      </trkpt>
      <trkpt lat="47.81392" lon="-3.6174">
        <ele>44</ele>
        <time>2019-07-14T12:08:33Z</time>
      </trkpt>
      <trkpt lat="47.81392" lon="-3.61729">
        <ele>44</ele>
        <time>2019-07-14T12:08:34Z</time>
      </trkpt>
      <trkpt lat="47.81392" lon="-3.61719">
        <ele>44</ele>
        <time>2019-07-14T12:08:35Z</time>
      </trkpt>
      <trkpt lat="47.81392" lon="-3.61709">
        <ele>44</ele>
        <time>2019-07-14T12:08:36Z</time>
      </trkpt>
      <trkpt lat="47.81393" lon="-3.61698">
        <ele>44</ele>
        <time>2019-07-14T12:08:37Z</time>
      </trkpt>
      <trkpt lat="47.81393" lon="-3.61688">
        <ele>44</ele>
        <time>2019-07-14T12:08:38Z</time>
      </trkpt>
      <trkpt lat="47.81394" lon="-3.61677">
        <ele>44</ele>
        <time>2019-07-14T12:08:39Z</time>
      </trkpt>
      <trkpt lat="47.81394" lon="-3.61667">
        <ele>44</ele>
        <time>2019-07-14T12:08:40Z</time>
      </trkpt>
      <trkpt lat="47.81395" lon="-3.61656">
        <ele>44</ele>
        <time>2019-07-14T12:08:41Z</time>
      </trkpt>
      <trkpt lat="47.81395" lon="-3.61646">
        <ele>45</ele>
        <time>2019-07-14T12:08:42Z</time>
      </trkpt>
      <trkpt lat="47.81396" lon="-3.61636">
        <ele>45</ele>
        <time>2019-07-14T12:08:43Z</time>
      </trkpt>
      <trkpt lat="47.81396" lon="-3.61626">
        <ele>45</ele>
        <time>2019-07-14T12:08:44Z</time>
      </trkpt>
      <trkpt lat="47.81397" lon="-3.61616">
        <ele>45</ele>
        <time>2019-07-14T12:08:45Z</time>
      </trkpt>
      <trkpt lat="47.81397" lon="-3.61606">
        <ele>45</ele>
        <time>2019-07-14T12:08:46Z</time>
      </trkpt>
      <trkpt lat="47.81397" lon="-3.61597">
        <ele>45</ele>
        <time>2019-07-14T12:08:47Z</time>
      </trkpt>
      <trkpt lat="47.81398" lon="-3.61587">
        <ele>45</ele>
        <time>2019-07-14T12:08:48Z</time>
      </trkpt>
      <trkpt lat="47.81399" lon="-3.61578">
        <ele>45</ele>
        <time>2019-07-14T12:08:49Z</time>
      </trkpt>
      <trkpt lat="47.81399" lon="-3.61568">
        <ele>45</ele>
        <time>2019-07-14T12:08:50Z</time>
      </trkpt>
      <trkpt lat="47.81399" lon="-3.61559">
        <ele>46</ele>
        <time>2019-07-14T12:08:51Z</time>
      </trkpt>
      <trkpt lat="47.81399" lon="-3.6155">
        <ele>46</ele>
        <time>2019-07-14T12:08:52Z</time>
      </trkpt>
      <trkpt lat="47.81399" lon="-3.61541">
        <ele>46</ele>
        <time>2019-07-14T12:08:53Z</time>
      </trkpt>
      <trkpt lat="47.81399" lon="-3.61532">
        <ele>46</ele>
        <time>2019-07-14T12:08:54Z</time>
      </trkpt>
      <trkpt lat="47.81399" lon="-3.61522">
        <ele>46</ele>
        <time>2019-07-14T12:08:55Z</time>
      </trkpt>
      <trkpt lat="47.81398" lon="-3.61513">
        <ele>46</ele>
        <time>2019-07-14T12:08:56Z</time>
      </trkpt>
      <trkpt lat="47.81398" lon="-3.61504">
        <ele>47</ele>
        <time>2019-07-14T12:08:57Z</time>
      </trkpt>
      <trkpt lat="47.81397" lon="-3.61495">
        <ele>47</ele>
        <time>2019-07-14T12:08:58Z</time>
      </trkpt>
      <trkpt lat="47.81396" lon="-3.61485">
        <ele>47</ele>
        <time>2019-07-14T12:08:59Z</time>
      </trkpt>
      <trkpt lat="47.81396" lon="-3.61476">
        <ele>47</ele>
        <time>2019-07-14T12:09:00Z</time>
      </trkpt>
      <trkpt lat="47.81395" lon="-3.61467">
        <ele>47</ele>
        <time>2019-07-14T12:09:01Z</time>
      </trkpt>
      <trkpt lat="47.81395" lon="-3.61459">
        <ele>48</ele>
        <time>2019-07-14T12:09:02Z</time>
      </trkpt>
      <trkpt lat="47.81394" lon="-3.61451">
        <ele>48</ele>
        <time>2019-07-14T12:09:03Z</time>
      </trkpt>
      <trkpt lat="47.81393" lon="-3.61443">
        <ele>48</ele>
        <time>2019-07-14T12:09:04Z</time>
      </trkpt>
      <trkpt lat="47.81393" lon="-3.61436">
        <ele>48</ele>
        <time>2019-07-14T12:09:05Z</time>
      </trkpt>
      <trkpt lat="47.81392" lon="-3.61429">
        <ele>48</ele>
        <time>2019-07-14T12:09:06Z</time>
      </trkpt>
      <trkpt lat="47.8139" lon="-3.61423">
        <ele>48</ele>
        <time>2019-07-14T12:09:07Z</time>
      </trkpt>
      <trkpt lat="47.81388" lon="-3.61417">
        <ele>49</ele>
        <time>2019-07-14T12:09:08Z</time>
      </trkpt>
      <trkpt lat="47.81384" lon="-3.61413">
        <ele>49</ele>
        <time>2019-07-14T12:09:09Z</time>
      </trkpt>
      <trkpt lat="47.81379" lon="-3.61411">
        <ele>49</ele>
        <time>2019-07-14T12:09:10Z</time>
      </trkpt>
      <trkpt lat="47.81374" lon="-3.6141">
        <ele>49</ele>
        <time>2019-07-14T12:09:11Z</time>
      </trkpt>
      <trkpt lat="47.81369" lon="-3.6141">
        <ele>49</ele>
        <time>2019-07-14T12:09:12Z</time>
      </trkpt>
      <trkpt lat="47.81363" lon="-3.6141">
        <ele>49</ele>
        <time>2019-07-14T12:09:13Z</time>
      </trkpt>
      <trkpt lat="47.81358" lon="-3.6141">
        <ele>49</ele>
        <time>2019-07-14T12:09:14Z</time>
      </trkpt>
      <trkpt lat="47.81353" lon="-3.6141">
        <ele>48</ele>
        <time>2019-07-14T12:09:15Z</time>
      </trkpt>
      <trkpt lat="47.81347" lon="-3.61411">
        <ele>48</ele>
        <time>2019-07-14T12:09:16Z</time>
      </trkpt>
      <trkpt lat="47.81341" lon="-3.61411">
        <ele>48</ele>
        <time>2019-07-14T12:09:17Z</time>
      </trkpt>
      <trkpt lat="47.81336" lon="-3.61412">
        <ele>48</ele>
        <time>2019-07-14T12:09:18Z</time>
      </trkpt>
      <trkpt lat="47.8133" lon="-3.61412">
        <ele>48</ele>
        <time>2019-07-14T12:09:19Z</time>
      </trkpt>
      <trkpt lat="47.81325" lon="-3.61412">
        <ele>48</ele>
        <time>2019-07-14T12:09:20Z</time>
      </trkpt>
      <trkpt lat="47.81319" lon="-3.61413">
        <ele>48</ele>
        <time>2019-07-14T12:09:21Z</time>
      </trkpt>
      <trkpt lat="47.81314" lon="-3.61413">
        <ele>48</ele>
        <time>2019-07-14T12:09:22Z</time>
      </trkpt>
      <trkpt lat="47.81308" lon="-3.61412">
        <ele>48</ele>
        <time>2019-07-14T12:09:23Z</time>
      </trkpt>
      <trkpt lat="47.81302" lon="-3.61412">
        <ele>48</ele>
        <time>2019-07-14T12:09:24Z</time>
      </trkpt>
      <trkpt lat="47.81295" lon="-3.61412">
        <ele>48</ele>
        <time>2019-07-14T12:09:25Z</time>
      </trkpt>
      <trkpt lat="47.81289" lon="-3.61411">
        <ele>48</ele>
        <time>2019-07-14T12:09:26Z</time>
      </trkpt>
      <trkpt lat="47.81283" lon="-3.6141">
        <ele>48</ele>
        <time>2019-07-14T12:09:27Z</time>
      </trkpt>
      <trkpt lat="47.81277" lon="-3.61409">
        <ele>48</ele>
        <time>2019-07-14T12:09:28Z</time>
      </trkpt>
      <trkpt lat="47.81271" lon="-3.61407">
        <ele>48</ele>
        <time>2019-07-14T12:09:29Z</time>
      </trkpt>
      <trkpt lat="47.81264" lon="-3.61404">
        <ele>48</ele>
        <time>2019-07-14T12:09:30Z</time>
      </trkpt>
      <trkpt lat="47.81258" lon="-3.61402">
        <ele>48</ele>
        <time>2019-07-14T12:09:31Z</time>
      </trkpt>
      <trkpt lat="47.81252" lon="-3.61398">
        <ele>48</ele>
        <time>2019-07-14T12:09:32Z</time>
      </trkpt>
      <trkpt lat="47.81245" lon="-3.61395">
        <ele>48</ele>
        <time>2019-07-14T12:09:33Z</time>
      </trkpt>
      <trkpt lat="47.81239" lon="-3.61392">
        <ele>47</ele>
        <time>2019-07-14T12:09:34Z</time>
      </trkpt>
      <trkpt lat="47.81233" lon="-3.61388">
        <ele>47</ele>
        <time>2019-07-14T12:09:35Z</time>
      </trkpt>
      <trkpt lat="47.81227" lon="-3.61384">
        <ele>47</ele>
        <time>2019-07-14T12:09:36Z</time>
      </trkpt>
      <trkpt lat="47.81221" lon="-3.6138">
        <ele>47</ele>
        <time>2019-07-14T12:09:37Z</time>
      </trkpt>
      <trkpt lat="47.81215" lon="-3.61376">
        <ele>47</ele>
        <time>2019-07-14T12:09:38Z</time>
      </trkpt>
      <trkpt lat="47.81209" lon="-3.61372">
        <ele>47</ele>
        <time>2019-07-14T12:09:39Z</time>
      </trkpt>
      <trkpt lat="47.81203" lon="-3.61368">
        <ele>47</ele>
        <time>2019-07-14T12:09:40Z</time>
      </trkpt>
      <trkpt lat="47.81197" lon="-3.61365">
        <ele>47</ele>
        <time>2019-07-14T12:09:41Z</time>
      </trkpt>
      <trkpt lat="47.81191" lon="-3.61361">
        <ele>47</ele>
        <time>2019-07-14T12:09:42Z</time>
      </trkpt>
      <trkpt lat="47.81185" lon="-3.61357">
        <ele>47</ele>
        <time>2019-07-14T12:09:43Z</time>
      </trkpt>
      <trkpt lat="47.81179" lon="-3.61353">
        <ele>47</ele>
        <time>2019-07-14T12:09:44Z</time>
      </trkpt>
      <trkpt lat="47.81173" lon="-3.61349">
        <ele>47</ele>
        <time>2019-07-14T12:09:45Z</time>
      </trkpt>
      <trkpt lat="47.81167" lon="-3.61345">
        <ele>47</ele>
        <time>2019-07-14T12:09:46Z</time>
      </trkpt>
      <trkpt lat="47.81161" lon="-3.61341">
        <ele>47</ele>
        <time>2019-07-14T12:09:47Z</time>
      </trkpt>
      <trkpt lat="47.81155" lon="-3.61337">
        <ele>46</ele>
        <time>2019-07-14T12:09:48Z</time>
      </trkpt>
      <trkpt lat="47.81149" lon="-3.61332">
        <ele>46</ele>
        <time>2019-07-14T12:09:49Z</time>
      </trkpt>
      <trkpt lat="47.81142" lon="-3.61328">
        <ele>46</ele>
        <time>2019-07-14T12:09:50Z</time>
      </trkpt>
      <trkpt lat="47.81136" lon="-3.61324">
        <ele>46</ele>
        <time>2019-07-14T12:09:51Z</time>
      </trkpt>
      <trkpt lat="47.8113" lon="-3.6132">
        <ele>46</ele>
        <time>2019-07-14T12:09:52Z</time>
      </trkpt>
      <trkpt lat="47.81124" lon="-3.61315">
        <ele>46</ele>
        <time>2019-07-14T12:09:53Z</time>
      </trkpt>
      <trkpt lat="47.81117" lon="-3.61311">
        <ele>46</ele>
        <time>2019-07-14T12:09:54Z</time>
      </trkpt>
      <trkpt lat="47.81111" lon="-3.61306">
        <ele>46</ele>
        <time>2019-07-14T12:09:55Z</time>
      </trkpt>
      <trkpt lat="47.81105" lon="-3.61302">
        <ele>46</ele>
        <time>2019-07-14T12:09:56Z</time>
      </trkpt>
      <trkpt lat="47.81098" lon="-3.61297">
        <ele>46</ele>
        <time>2019-07-14T12:09:57Z</time>
      </trkpt>
      <trkpt lat="47.81092" lon="-3.61293">
        <ele>45</ele>
        <time>2019-07-14T12:09:58Z</time>
      </trkpt>
      <trkpt lat="47.81085" lon="-3.61289">
        <ele>45</ele>
        <time>2019-07-14T12:09:59Z</time>
      </trkpt>
      <trkpt lat="47.81079" lon="-3.61284">
        <ele>45</ele>
        <time>2019-07-14T12:10:00Z</time>
      </trkpt>
      <trkpt lat="47.81072" lon="-3.6128">
        <ele>45</ele>
        <time>2019-07-14T12:10:01Z</time>
      </trkpt>
      <trkpt lat="47.81066" lon="-3.61276">
        <ele>45</ele>
        <time>2019-07-14T12:10:02Z</time>
      </trkpt>
      <trkpt lat="47.81059" lon="-3.61271">
        <ele>45</ele>
        <time>2019-07-14T12:10:03Z</time>
      </trkpt>
      <trkpt lat="47.81053" lon="-3.61267">
        <ele>45</ele>
        <time>2019-07-14T12:10:04Z</time>
      </trkpt>
      <trkpt lat="47.81046" lon="-3.61263">
        <ele>45</ele>
        <time>2019-07-14T12:10:05Z</time>
      </trkpt>
      <trkpt lat="47.8104" lon="-3.61259">
        <ele>44</ele>
        <time>2019-07-14T12:10:06Z</time>
      </trkpt>
      <trkpt lat="47.81033" lon="-3.61256">
        <ele>44</ele>
        <time>2019-07-14T12:10:07Z</time>
      </trkpt>
      <trkpt lat="47.81026" lon="-3.61252">
        <ele>44</ele>
        <time>2019-07-14T12:10:08Z</time>
      </trkpt>
      <trkpt lat="47.81019" lon="-3.6125">
        <ele>44</ele>
        <time>2019-07-14T12:10:09Z</time>
      </trkpt>
      <trkpt lat="47.81012" lon="-3.61247">
        <ele>44</ele>
        <time>2019-07-14T12:10:10Z</time>
      </trkpt>
      <trkpt lat="47.81005" lon="-3.61245">
        <ele>44</ele>
        <time>2019-07-14T12:10:11Z</time>
      </trkpt>
      <trkpt lat="47.80998" lon="-3.61244">
        <ele>44</ele>
        <time>2019-07-14T12:10:12Z</time>
      </trkpt>
      <trkpt lat="47.80991" lon="-3.61243">
        <ele>43</ele>
        <time>2019-07-14T12:10:13Z</time>
      </trkpt>
      <trkpt lat="47.80983" lon="-3.61242">
        <ele>43</ele>
        <time>2019-07-14T12:10:14Z</time>
      </trkpt>
      <trkpt lat="47.80975" lon="-3.61241">
        <ele>43</ele>
        <time>2019-07-14T12:10:15Z</time>
      </trkpt>
      <trkpt lat="47.80967" lon="-3.61241">
        <ele>43</ele>
        <time>2019-07-14T12:10:16Z</time>
      </trkpt>
      <trkpt lat="47.80959" lon="-3.61241">
        <ele>43</ele>
        <time>2019-07-14T12:10:17Z</time>
      </trkpt>
      <trkpt lat="47.8095" lon="-3.61241">
        <ele>42</ele>
        <time>2019-07-14T12:10:18Z</time>
      </trkpt>
      <trkpt lat="47.80942" lon="-3.61241">
        <ele>42</ele>
        <time>2019-07-14T12:10:19Z</time>
      </trkpt>
      <trkpt lat="47.80933" lon="-3.61241">
        <ele>42</ele>
        <time>2019-07-14T12:10:20Z</time>
      </trkpt>
      <trkpt lat="47.80924" lon="-3.61241">
        <ele>42</ele>
        <time>2019-07-14T12:10:21Z</time>
      </trkpt>
      <trkpt lat="47.80915" lon="-3.61241">
        <ele>42</ele>
        <time>2019-07-14T12:10:22Z</time>
      </trkpt>
      <trkpt lat="47.80906" lon="-3.61241">
        <ele>41</ele>
        <time>2019-07-14T12:10:23Z</time>
      </trkpt>
      <trkpt lat="47.80897" lon="-3.61241">
        <ele>41</ele>
        <time>2019-07-14T12:10:24Z</time>
      </trkpt>
      <trkpt lat="47.80888" lon="-3.61241">
        <ele>41</ele>
        <time>2019-07-14T12:10:25Z</time>
      </trkpt>
      <trkpt lat="47.80879" lon="-3.61242">
        <ele>41</ele>
        <time>2019-07-14T12:10:26Z</time>
      </trkpt>
      <trkpt lat="47.8087" lon="-3.61242">
        <ele>40</ele>
        <time>2019-07-14T12:10:27Z</time>
      </trkpt>
      <trkpt lat="47.80862" lon="-3.61242">
        <ele>40</ele>
        <time>2019-07-14T12:10:28Z</time>
      </trkpt>
      <trkpt lat="47.80854" lon="-3.61242">
        <ele>40</ele>
        <time>2019-07-14T12:10:29Z</time>
      </trkpt>
      <trkpt lat="47.80846" lon="-3.61243">
        <ele>40</ele>
        <time>2019-07-14T12:10:30Z</time>
      </trkpt>
      <trkpt lat="47.80838" lon="-3.61244">
        <ele>40</ele>
        <time>2019-07-14T12:10:31Z</time>
      </trkpt>
      <trkpt lat="47.80831" lon="-3.61244">
        <ele>39</ele>
        <time>2019-07-14T12:10:32Z</time>
      </trkpt>
      <trkpt lat="47.80824" lon="-3.61244">
        <ele>39</ele>
        <time>2019-07-14T12:10:33Z</time>
      </trkpt>
      <trkpt lat="47.80817" lon="-3.61243">
        <ele>40</ele>
        <time>2019-07-14T12:10:34Z</time>
      </trkpt>
      <trkpt lat="47.8081" lon="-3.61243">
        <ele>40</ele>
        <time>2019-07-14T12:10:35Z</time>
      </trkpt>
      <trkpt lat="47.80803" lon="-3.61243">
        <ele>40</ele>
        <time>2019-07-14T12:10:36Z</time>
      </trkpt>
      <trkpt lat="47.80796" lon="-3.61244">
        <ele>40</ele>
        <time>2019-07-14T12:10:37Z</time>
      </trkpt>
      <trkpt lat="47.80789" lon="-3.61244">
        <ele>40</ele>
        <time>2019-07-14T12:10:38Z</time>
      </trkpt>
      <trkpt lat="47.80782" lon="-3.61243">
        <ele>40</ele>
        <time>2019-07-14T12:10:39Z</time>
      </trkpt>
      <trkpt lat="47.80775" lon="-3.61243">
        <ele>41</ele>
        <time>2019-07-14T12:10:40Z</time>
      </trkpt>
      <trkpt lat="47.80769" lon="-3.61243">
        <ele>41</ele>
        <time>2019-07-14T12:10:41Z</time>
      </trkpt>
      <trkpt lat="47.80763" lon="-3.61243">
        <ele>41</ele>
        <time>2019-07-14T12:10:42Z</time>
      </trkpt>
      <trkpt lat="47.80756" lon="-3.61244">
        <ele>41</ele>
        <time>2019-07-14T12:10:43Z</time>
      </trkpt>
      <trkpt lat="47.8075" lon="-3.61244">
        <ele>42</ele>
        <time>2019-07-14T12:10:44Z</time>
      </trkpt>
      <trkpt lat="47.80743" lon="-3.61244">
        <ele>42</ele>
        <time>2019-07-14T12:10:45Z</time>
      </trkpt>
      <trkpt lat="47.80737" lon="-3.61244">
        <ele>42</ele>
        <time>2019-07-14T12:10:46Z</time>
      </trkpt>
      <trkpt lat="47.80731" lon="-3.61245">
        <ele>42</ele>
        <time>2019-07-14T12:10:47Z</time>
      </trkpt>
      <trkpt lat="47.80724" lon="-3.61245">
        <ele>42</ele>
        <time>2019-07-14T12:10:48Z</time>
      </trkpt>
      <trkpt lat="47.80718" lon="-3.61245">
        <ele>42</ele>
        <time>2019-07-14T12:10:49Z</time>
      </trkpt>
      <trkpt lat="47.80712" lon="-3.61246">
        <ele>43</ele>
        <time>2019-07-14T12:10:50Z</time>
      </trkpt>
      <trkpt lat="47.80706" lon="-3.61247">
        <ele>43</ele>
        <time>2019-07-14T12:10:51Z</time>
      </trkpt>
      <trkpt lat="47.807" lon="-3.61248">
        <ele>43</ele>
        <time>2019-07-14T12:10:52Z</time>
      </trkpt>
      <trkpt lat="47.80693" lon="-3.61249">
        <ele>43</ele>
        <time>2019-07-14T12:10:53Z</time>
      </trkpt>
      <trkpt lat="47.80687" lon="-3.6125">
        <ele>43</ele>
        <time>2019-07-14T12:10:54Z</time>
      </trkpt>
      <trkpt lat="47.80681" lon="-3.61251">
        <ele>43</ele>
        <time>2019-07-14T12:10:55Z</time>
      </trkpt>
      <trkpt lat="47.80675" lon="-3.61253">
        <ele>43</ele>
        <time>2019-07-14T12:10:56Z</time>
      </trkpt>
      <trkpt lat="47.80669" lon="-3.61255">
        <ele>43</ele>
        <time>2019-07-14T12:10:57Z</time>
      </trkpt>
      <trkpt lat="47.80663" lon="-3.61257">
        <ele>43</ele>
        <time>2019-07-14T12:10:58Z</time>
      </trkpt>
      <trkpt lat="47.80657" lon="-3.61259">
        <ele>43</ele>
        <time>2019-07-14T12:10:59Z</time>
      </trkpt>
      <trkpt lat="47.80651" lon="-3.61261">
        <ele>43</ele>
        <time>2019-07-14T12:11:00Z</time>
      </trkpt>
      <trkpt lat="47.80645" lon="-3.61264">
        <ele>43</ele>
        <time>2019-07-14T12:11:01Z</time>
      </trkpt>
      <trkpt lat="47.8064" lon="-3.61267">
        <ele>43</ele>
        <time>2019-07-14T12:11:02Z</time>
      </trkpt>
      <trkpt lat="47.80634" lon="-3.6127">
        <ele>43</ele>
        <time>2019-07-14T12:11:03Z</time>
      </trkpt>
      <trkpt lat="47.80628" lon="-3.61272">
        <ele>43</ele>
        <time>2019-07-14T12:11:04Z</time>
      </trkpt>
      <trkpt lat="47.80623" lon="-3.61275">
        <ele>43</ele>
        <time>2019-07-14T12:11:05Z</time>
      </trkpt>
      <trkpt lat="47.80617" lon="-3.61279">
        <ele>43</ele>
        <time>2019-07-14T12:11:06Z</time>
      </trkpt>
      <trkpt lat="47.80612" lon="-3.61282">
        <ele>43</ele>
        <time>2019-07-14T12:11:07Z</time>
      </trkpt>
      <trkpt lat="47.80606" lon="-3.61284">
        <ele>43</ele>
        <time>2019-07-14T12:11:08Z</time>
      </trkpt>
      <trkpt lat="47.806" lon="-3.61288">
        <ele>43</ele>
        <time>2019-07-14T12:11:09Z</time>
      </trkpt>
      <trkpt lat="47.80594" lon="-3.61291">
        <ele>43</ele>
        <time>2019-07-14T12:11:10Z</time>
      </trkpt>
      <trkpt lat="47.80588" lon="-3.61294">
        <ele>44</ele>
        <time>2019-07-14T12:11:11Z</time>
      </trkpt>
      <trkpt lat="47.80583" lon="-3.61296">
        <ele>44</ele>
        <time>2019-07-14T12:11:12Z</time>
      </trkpt>
      <trkpt lat="47.80577" lon="-3.61299">
        <ele>44</ele>
        <time>2019-07-14T12:11:13Z</time>
      </trkpt>
      <trkpt lat="47.80572" lon="-3.61302">
        <ele>44</ele>
        <time>2019-07-14T12:11:14Z</time>
      </trkpt>
      <trkpt lat="47.80566" lon="-3.61305">
        <ele>44</ele>
        <time>2019-07-14T12:11:15Z</time>
      </trkpt>
      <trkpt lat="47.80561" lon="-3.61308">
        <ele>45</ele>
        <time>2019-07-14T12:11:16Z</time>
      </trkpt>
      <trkpt lat="47.80555" lon="-3.61311">
        <ele>45</ele>
        <time>2019-07-14T12:11:17Z</time>
      </trkpt>
      <trkpt lat="47.8055" lon="-3.61314">
        <ele>45</ele>
        <time>2019-07-14T12:11:18Z</time>
      </trkpt>
      <trkpt lat="47.80544" lon="-3.61317">
        <ele>45</ele>
        <time>2019-07-14T12:11:19Z</time>
      </trkpt>
      <trkpt lat="47.80539" lon="-3.61319">
        <ele>46</ele>
        <time>2019-07-14T12:11:20Z</time>
      </trkpt>
      <trkpt lat="47.80533" lon="-3.61322">
        <ele>46</ele>
        <time>2019-07-14T12:11:21Z</time>
      </trkpt>
      <trkpt lat="47.80528" lon="-3.61325">
        <ele>46</ele>
        <time>2019-07-14T12:11:22Z</time>
      </trkpt>
      <trkpt lat="47.80522" lon="-3.61328">
        <ele>47</ele>
        <time>2019-07-14T12:11:23Z</time>
      </trkpt>
      <trkpt lat="47.80517" lon="-3.61331">
        <ele>47</ele>
        <time>2019-07-14T12:11:24Z</time>
      </trkpt>
      <trkpt lat="47.80512" lon="-3.61334">
        <ele>47</ele>
        <time>2019-07-14T12:11:25Z</time>
      </trkpt>
      <trkpt lat="47.80506" lon="-3.61337">
        <ele>48</ele>
        <time>2019-07-14T12:11:26Z</time>
      </trkpt>
      <trkpt lat="47.80501" lon="-3.61341">
        <ele>48</ele>
        <time>2019-07-14T12:11:27Z</time>
      </trkpt>
      <trkpt lat="47.80496" lon="-3.61344">
        <ele>48</ele>
        <time>2019-07-14T12:11:28Z</time>
      </trkpt>
      <trkpt lat="47.8049" lon="-3.61347">
        <ele>48</ele>
        <time>2019-07-14T12:11:29Z</time>
      </trkpt>
      <trkpt lat="47.80485" lon="-3.6135">
        <ele>48</ele>
        <time>2019-07-14T12:11:30Z</time>
      </trkpt>
      <trkpt lat="47.8048" lon="-3.61353">
        <ele>48</ele>
        <time>2019-07-14T12:11:31Z</time>
      </trkpt>
      <trkpt lat="47.80474" lon="-3.61356">
        <ele>48</ele>
        <time>2019-07-14T12:11:32Z</time>
      </trkpt>
      <trkpt lat="47.80469" lon="-3.61359">
        <ele>48</ele>
        <time>2019-07-14T12:11:33Z</time>
      </trkpt>
      <trkpt lat="47.80464" lon="-3.61362">
        <ele>48</ele>
        <time>2019-07-14T12:11:34Z</time>
      </trkpt>
      <trkpt lat="47.80458" lon="-3.61365">
        <ele>49</ele>
        <time>2019-07-14T12:11:35Z</time>
      </trkpt>
      <trkpt lat="47.80453" lon="-3.61368">
        <ele>49</ele>
        <time>2019-07-14T12:11:36Z</time>
      </trkpt>
      <trkpt lat="47.80448" lon="-3.61371">
        <ele>49</ele>
        <time>2019-07-14T12:11:37Z</time>
      </trkpt>
      <trkpt lat="47.80443" lon="-3.61374">
        <ele>49</ele>
        <time>2019-07-14T12:11:38Z</time>
      </trkpt>
      <trkpt lat="47.80438" lon="-3.61377">
        <ele>49</ele>
        <time>2019-07-14T12:11:39Z</time>
      </trkpt>
      <trkpt lat="47.80432" lon="-3.6138">
        <ele>49</ele>
        <time>2019-07-14T12:11:40Z</time>
      </trkpt>
      <trkpt lat="47.80427" lon="-3.61383">
        <ele>49</ele>
        <time>2019-07-14T12:11:41Z</time>
      </trkpt>
      <trkpt lat="47.80422" lon="-3.61386">
        <ele>49</ele>
        <time>2019-07-14T12:11:42Z</time>
      </trkpt>
      <trkpt lat="47.80417" lon="-3.61388">
        <ele>49</ele>
        <time>2019-07-14T12:11:43Z</time>
      </trkpt>
      <trkpt lat="47.80411" lon="-3.61391">
        <ele>49</ele>
        <time>2019-07-14T12:11:44Z</time>
      </trkpt>
      <trkpt lat="47.80406" lon="-3.61394">
        <ele>49</ele>
        <time>2019-07-14T12:11:45Z</time>
      </trkpt>
      <trkpt lat="47.80401" lon="-3.61396">
        <ele>49</ele>
        <time>2019-07-14T12:11:46Z</time>
      </trkpt>
      <trkpt lat="47.80395" lon="-3.61397">
        <ele>49</ele>
        <time>2019-07-14T12:11:47Z</time>
      </trkpt>
      <trkpt lat="47.8039" lon="-3.61398">
        <ele>49</ele>
        <time>2019-07-14T12:11:48Z</time>
      </trkpt>
      <trkpt lat="47.80385" lon="-3.61399">
        <ele>49</ele>
        <time>2019-07-14T12:11:49Z</time>
      </trkpt>
      <trkpt lat="47.80379" lon="-3.614">
        <ele>49</ele>
        <time>2019-07-14T12:11:50Z</time>
      </trkpt>
      <trkpt lat="47.80373" lon="-3.61401">
        <ele>49</ele>
        <time>2019-07-14T12:11:51Z</time>
      </trkpt>
      <trkpt lat="47.80368" lon="-3.61401">
        <ele>49</ele>
        <time>2019-07-14T12:11:52Z</time>
      </trkpt>
      <trkpt lat="47.80362" lon="-3.61401">
        <ele>49</ele>
        <time>2019-07-14T12:11:53Z</time>
      </trkpt>
      <trkpt lat="47.80356" lon="-3.61401">
        <ele>49</ele>
        <time>2019-07-14T12:11:54Z</time>
      </trkpt>
      <trkpt lat="47.8035" lon="-3.61401">
        <ele>50</ele>
        <time>2019-07-14T12:11:55Z</time>
      </trkpt>
      <trkpt lat="47.80344" lon="-3.61401">
        <ele>50</ele>
        <time>2019-07-14T12:11:56Z</time>
      </trkpt>
      <trkpt lat="47.80338" lon="-3.61401">
        <ele>50</ele>
        <time>2019-07-14T12:11:57Z</time>
      </trkpt>
      <trkpt lat="47.80333" lon="-3.614">
        <ele>50</ele>
        <time>2019-07-14T12:11:58Z</time>
      </trkpt>
      <trkpt lat="47.80326" lon="-3.614">
        <ele>50</ele>
        <time>2019-07-14T12:11:59Z</time>
      </trkpt>
      <trkpt lat="47.8032" lon="-3.61399">
        <ele>50</ele>
        <time>2019-07-14T12:12:00Z</time>
      </trkpt>
      <trkpt lat="47.80315" lon="-3.61399">
        <ele>50</ele>
        <time>2019-07-14T12:12:01Z</time>
      </trkpt>
      <trkpt lat="47.80309" lon="-3.61398">
        <ele>50</ele>
        <time>2019-07-14T12:12:02Z</time>
      </trkpt>
      <trkpt lat="47.80303" lon="-3.61398">
        <ele>50</ele>
        <time>2019-07-14T12:12:03Z</time>
      </trkpt>
      <trkpt lat="47.80296" lon="-3.61397">
        <ele>50</ele>
        <time>2019-07-14T12:12:04Z</time>
      </trkpt>
      <trkpt lat="47.8029" lon="-3.61397">
        <ele>50</ele>
        <time>2019-07-14T12:12:05Z</time>
      </trkpt>
      <trkpt lat="47.80284" lon="-3.61396">
        <ele>49</ele>
        <time>2019-07-14T12:12:06Z</time>
      </trkpt>
      <trkpt lat="47.80278" lon="-3.61396">
        <ele>49</ele>
        <time>2019-07-14T12:12:07Z</time>
      </trkpt>
      <trkpt lat="47.80272" lon="-3.61395">
        <ele>49</ele>
        <time>2019-07-14T12:12:08Z</time>
      </trkpt>
      <trkpt lat="47.80266" lon="-3.61395">
        <ele>49</ele>
        <time>2019-07-14T12:12:09Z</time>
      </trkpt>
      <trkpt lat="47.8026" lon="-3.61394">
        <ele>49</ele>
        <time>2019-07-14T12:12:10Z</time>
      </trkpt>
      <trkpt lat="47.80254" lon="-3.61394">
        <ele>49</ele>
        <time>2019-07-14T12:12:11Z</time>
      </trkpt>
      <trkpt lat="47.80247" lon="-3.61393">
        <ele>49</ele>
        <time>2019-07-14T12:12:12Z</time>
      </trkpt>
      <trkpt lat="47.80241" lon="-3.61393">
        <ele>49</ele>
        <time>2019-07-14T12:12:13Z</time>
      </trkpt>
      <trkpt lat="47.80236" lon="-3.61393">
        <ele>49</ele>
        <time>2019-07-14T12:12:14Z</time>
      </trkpt>
      <trkpt lat="47.8023" lon="-3.61392">
        <ele>49</ele>
        <time>2019-07-14T12:12:15Z</time>
      </trkpt>
      <trkpt lat="47.80225" lon="-3.61391">
        <ele>49</ele>
        <time>2019-07-14T12:12:16Z</time>
      </trkpt>
      <trkpt lat="47.8022" lon="-3.61391">
        <ele>49</ele>
        <time>2019-07-14T12:12:17Z</time>
      </trkpt>
      <trkpt lat="47.80215" lon="-3.6139">
        <ele>49</ele>
        <time>2019-07-14T12:12:18Z</time>
      </trkpt>
      <trkpt lat="47.8021" lon="-3.6139">
        <ele>49</ele>
        <time>2019-07-14T12:12:19Z</time>
      </trkpt>
      <trkpt lat="47.80205" lon="-3.6139">
        <ele>49</ele>
        <time>2019-07-14T12:12:20Z</time>
      </trkpt>
      <trkpt lat="47.80199" lon="-3.6139">
        <ele>49</ele>
        <time>2019-07-14T12:12:21Z</time>
      </trkpt>
      <trkpt lat="47.80194" lon="-3.61389">
        <ele>49</ele>
        <time>2019-07-14T12:12:22Z</time>
      </trkpt>
      <trkpt lat="47.8019" lon="-3.61386">
        <ele>49</ele>
        <time>2019-07-14T12:12:23Z</time>
      </trkpt>
      <trkpt lat="47.80186" lon="-3.61381">
        <ele>49</ele>
        <time>2019-07-14T12:12:24Z</time>
      </trkpt>
      <trkpt lat="47.80182" lon="-3.61377">
        <ele>49</ele>
        <time>2019-07-14T12:12:25Z</time>
      </trkpt>
      <trkpt lat="47.80179" lon="-3.61371">
        <ele>49</ele>
        <time>2019-07-14T12:12:26Z</time>
      </trkpt>
      <trkpt lat="47.80177" lon="-3.61363">
        <ele>49</ele>
        <time>2019-07-14T12:12:27Z</time>
      </trkpt>
      <trkpt lat="47.80176" lon="-3.61355">
        <ele>49</ele>
        <time>2019-07-14T12:12:28Z</time>
      </trkpt>
      <trkpt lat="47.80176" lon="-3.61347">
        <ele>49</ele>
        <time>2019-07-14T12:12:29Z</time>
      </trkpt>
      <trkpt lat="47.80176" lon="-3.61338">
        <ele>50</ele>
        <time>2019-07-14T12:12:30Z</time>
      </trkpt>
      <trkpt lat="47.80175" lon="-3.61329">
        <ele>50</ele>
        <time>2019-07-14T12:12:31Z</time>
      </trkpt>
      <trkpt lat="47.80175" lon="-3.61319">
        <ele>50</ele>
        <time>2019-07-14T12:12:32Z</time>
      </trkpt>
      <trkpt lat="47.80175" lon="-3.6131">
        <ele>50</ele>
        <time>2019-07-14T12:12:33Z</time>
      </trkpt>
      <trkpt lat="47.80175" lon="-3.61301">
        <ele>50</ele>
        <time>2019-07-14T12:12:34Z</time>
      </trkpt>
      <trkpt lat="47.80174" lon="-3.61293">
        <ele>50</ele>
        <time>2019-07-14T12:12:35Z</time>
      </trkpt>
      <trkpt lat="47.80174" lon="-3.61284">
        <ele>51</ele>
        <time>2019-07-14T12:12:36Z</time>
      </trkpt>
      <trkpt lat="47.80174" lon="-3.61275">
        <ele>51</ele>
        <time>2019-07-14T12:12:37Z</time>
      </trkpt>
      <trkpt lat="47.80174" lon="-3.61266">
        <ele>51</ele>
        <time>2019-07-14T12:12:38Z</time>
      </trkpt>
      <trkpt lat="47.80174" lon="-3.61257">
        <ele>51</ele>
        <time>2019-07-14T12:12:39Z</time>
      </trkpt>
      <trkpt lat="47.80174" lon="-3.61248">
        <ele>51</ele>
        <time>2019-07-14T12:12:40Z</time>
      </trkpt>
      <trkpt lat="47.80174" lon="-3.61238">
        <ele>52</ele>
        <time>2019-07-14T12:12:41Z</time>
      </trkpt>
      <trkpt lat="47.80174" lon="-3.61229">
        <ele>52</ele>
        <time>2019-07-14T12:12:42Z</time>
      </trkpt>
      <trkpt lat="47.80174" lon="-3.6122">
        <ele>52</ele>
        <time>2019-07-14T12:12:43Z</time>
      </trkpt>
      <trkpt lat="47.80174" lon="-3.6121">
        <ele>52</ele>
        <time>2019-07-14T12:12:44Z</time>
      </trkpt>
      <trkpt lat="47.80175" lon="-3.61201">
        <ele>53</ele>
        <time>2019-07-14T12:12:45Z</time>
      </trkpt>
      <trkpt lat="47.80175" lon="-3.61192">
        <ele>53</ele>
        <time>2019-07-14T12:12:46Z</time>
      </trkpt>
      <trkpt lat="47.80175" lon="-3.61182">
        <ele>53</ele>
        <time>2019-07-14T12:12:47Z</time>
      </trkpt>
      <trkpt lat="47.80175" lon="-3.61172">
        <ele>54</ele>
        <time>2019-07-14T12:12:48Z</time>
      </trkpt>
      <trkpt lat="47.80175" lon="-3.61163">
        <ele>54</ele>
        <time>2019-07-14T12:12:49Z</time>
      </trkpt>
      <trkpt lat="47.80175" lon="-3.61153">
        <ele>54</ele>
        <time>2019-07-14T12:12:50Z</time>
      </trkpt>
      <trkpt lat="47.80176" lon="-3.61143">
        <ele>54</ele>
        <time>2019-07-14T12:12:51Z</time>
      </trkpt>
      <trkpt lat="47.80176" lon="-3.61133">
        <ele>55</ele>
        <time>2019-07-14T12:12:52Z</time>
      </trkpt>
      <trkpt lat="47.80176" lon="-3.61123">
        <ele>55</ele>
        <time>2019-07-14T12:12:53Z</time>
      </trkpt>
      <trkpt lat="47.80176" lon="-3.61114">
        <ele>55</ele>
        <time>2019-07-14T12:12:54Z</time>
      </trkpt>
      <trkpt lat="47.80176" lon="-3.61104">
        <ele>55</ele>
        <time>2019-07-14T12:12:55Z</time>
      </trkpt>
      <trkpt lat="47.80176" lon="-3.61094">
        <ele>55</ele>
        <time>2019-07-14T12:12:56Z</time>
      </trkpt>
      <trkpt lat="47.80176" lon="-3.61084">
        <ele>55</ele>
        <time>2019-07-14T12:12:57Z</time>
      </trkpt>
      <trkpt lat="47.80177" lon="-3.61074">
        <ele>55</ele>
        <time>2019-07-14T12:12:58Z</time>
      </trkpt>
      <trkpt lat="47.80177" lon="-3.61064">
        <ele>56</ele>
        <time>2019-07-14T12:12:59Z</time>
      </trkpt>
      <trkpt lat="47.80177" lon="-3.61055">
        <ele>56</ele>
        <time>2019-07-14T12:13:00Z</time>
      </trkpt>
      <trkpt lat="47.80177" lon="-3.61045">
        <ele>56</ele>
        <time>2019-07-14T12:13:01Z</time>
      </trkpt>
      <trkpt lat="47.80177" lon="-3.61035">
        <ele>56</ele>
        <time>2019-07-14T12:13:02Z</time>
      </trkpt>
      <trkpt lat="47.80177" lon="-3.61025">
        <ele>56</ele>
        <time>2019-07-14T12:13:03Z</time>
      </trkpt>
      <trkpt lat="47.80177" lon="-3.61015">
        <ele>56</ele>
        <time>2019-07-14T12:13:04Z</time>
      </trkpt>
      <trkpt lat="47.80177" lon="-3.61004">
        <ele>56</ele>
        <time>2019-07-14T12:13:05Z</time>
      </trkpt>
      <trkpt lat="47.80176" lon="-3.60994">
        <ele>56</ele>
        <time>2019-07-14T12:13:06Z</time>
      </trkpt>
      <trkpt lat="47.80176" lon="-3.60984">
        <ele>56</ele>
        <time>2019-07-14T12:13:07Z</time>
      </trkpt>
      <trkpt lat="47.80176" lon="-3.60974">
        <ele>56</ele>
        <time>2019-07-14T12:13:08Z</time>
      </trkpt>
      <trkpt lat="47.80176" lon="-3.60964">
        <ele>56</ele>
        <time>2019-07-14T12:13:09Z</time>
      </trkpt>
      <trkpt lat="47.80176" lon="-3.60954">
        <ele>56</ele>
        <time>2019-07-14T12:13:10Z</time>
      </trkpt>
      <trkpt lat="47.80175" lon="-3.60944">
        <ele>55</ele>
        <time>2019-07-14T12:13:11Z</time>
      </trkpt>
      <trkpt lat="47.80175" lon="-3.60934">
        <ele>55</ele>
        <time>2019-07-14T12:13:12Z</time>
      </trkpt>
      <trkpt lat="47.80175" lon="-3.60925">
        <ele>55</ele>
        <time>2019-07-14T12:13:13Z</time>
      </trkpt>
      <trkpt lat="47.80175" lon="-3.60916">
        <ele>55</ele>
        <time>2019-07-14T12:13:14Z</time>
      </trkpt>
      <trkpt lat="47.80175" lon="-3.60906">
        <ele>55</ele>
        <time>2019-07-14T12:13:15Z</time>
      </trkpt>
      <trkpt lat="47.80175" lon="-3.60897">
        <ele>55</ele>
        <time>2019-07-14T12:13:16Z</time>
      </trkpt>
      <trkpt lat="47.80175" lon="-3.60888">
        <ele>55</ele>
        <time>2019-07-14T12:13:17Z</time>
      </trkpt>
      <trkpt lat="47.80174" lon="-3.60878">
        <ele>55</ele>
        <time>2019-07-14T12:13:18Z</time>
      </trkpt>
      <trkpt lat="47.80174" lon="-3.60868">
        <ele>55</ele>
        <time>2019-07-14T12:13:19Z</time>
      </trkpt>
      <trkpt lat="47.80174" lon="-3.60859">
        <ele>55</ele>
        <time>2019-07-14T12:13:20Z</time>
      </trkpt>
      <trkpt lat="47.80174" lon="-3.60849">
        <ele>55</ele>
        <time>2019-07-14T12:13:21Z</time>
      </trkpt>
      <trkpt lat="47.80174" lon="-3.6084">
        <ele>55</ele>
        <time>2019-07-14T12:13:22Z</time>
      </trkpt>
      <trkpt lat="47.80174" lon="-3.60831">
        <ele>56</ele>
        <time>2019-07-14T12:13:23Z</time>
      </trkpt>
      <trkpt lat="47.80174" lon="-3.60822">
        <ele>56</ele>
        <time>2019-07-14T12:13:24Z</time>
      </trkpt>
      <trkpt lat="47.80173" lon="-3.60813">
        <ele>56</ele>
        <time>2019-07-14T12:13:25Z</time>
      </trkpt>
      <trkpt lat="47.80171" lon="-3.60806">
        <ele>56</ele>
        <time>2019-07-14T12:13:26Z</time>
      </trkpt>
      <trkpt lat="47.80166" lon="-3.60802">
        <ele>56</ele>
        <time>2019-07-14T12:13:27Z</time>
      </trkpt>
      <trkpt lat="47.80162" lon="-3.608">
        <ele>56</ele>
        <time>2019-07-14T12:13:28Z</time>
      </trkpt>
      <trkpt lat="47.80157" lon="-3.60802">
        <ele>56</ele>
        <time>2019-07-14T12:13:29Z</time>
      </trkpt>
      <trkpt lat="47.80152" lon="-3.60806">
        <ele>56</ele>
        <time>2019-07-14T12:13:30Z</time>
      </trkpt>
      <trkpt lat="47.80147" lon="-3.60809">
        <ele>56</ele>
        <time>2019-07-14T12:13:31Z</time>
      </trkpt>
      <trkpt lat="47.80142" lon="-3.60813">
        <ele>55</ele>
        <time>2019-07-14T12:13:32Z</time>
      </trkpt>
      <trkpt lat="47.80137" lon="-3.60816">
        <ele>55</ele>
        <time>2019-07-14T12:13:33Z</time>
      </trkpt>
      <trkpt lat="47.80132" lon="-3.6082">
        <ele>55</ele>
        <time>2019-07-14T12:13:34Z</time>
      </trkpt>
      <trkpt lat="47.80126" lon="-3.60824">
        <ele>55</ele>
        <time>2019-07-14T12:13:35Z</time>
      </trkpt>
      <trkpt lat="47.8012" lon="-3.60828">
        <ele>55</ele>
        <time>2019-07-14T12:13:36Z</time>
      </trkpt>
      <trkpt lat="47.80115" lon="-3.60832">
        <ele>55</ele>
        <time>2019-07-14T12:13:37Z</time>
      </trkpt>
      <trkpt lat="47.80109" lon="-3.60835">
        <ele>55</ele>
        <time>2019-07-14T12:13:38Z</time>
      </trkpt>
      <trkpt lat="47.80103" lon="-3.60839">
        <ele>55</ele>
        <time>2019-07-14T12:13:39Z</time>
      </trkpt>
      <trkpt lat="47.80097" lon="-3.60844">
        <ele>55</ele>
        <time>2019-07-14T12:13:40Z</time>
      </trkpt>
      <trkpt lat="47.80091" lon="-3.60849">
        <ele>55</ele>
        <time>2019-07-14T12:13:41Z</time>
      </trkpt>
      <trkpt lat="47.80086" lon="-3.60853">
        <ele>55</ele>
        <time>2019-07-14T12:13:42Z</time>
      </trkpt>
      <trkpt lat="47.8008" lon="-3.60859">
        <ele>55</ele>
        <time>2019-07-14T12:13:43Z</time>
      </trkpt>
      <trkpt lat="47.80073" lon="-3.60864">
        <ele>55</ele>
        <time>2019-07-14T12:13:44Z</time>
      </trkpt>
      <trkpt lat="47.80067" lon="-3.60869">
        <ele>55</ele>
        <time>2019-07-14T12:13:45Z</time>
      </trkpt>
      <trkpt lat="47.80062" lon="-3.60875">
        <ele>54</ele>
        <time>2019-07-14T12:13:46Z</time>
      </trkpt>
      <trkpt lat="47.80056" lon="-3.6088">
        <ele>54</ele>
        <time>2019-07-14T12:13:47Z</time>
      </trkpt>
      <trkpt lat="47.8005" lon="-3.60886">
        <ele>54</ele>
        <time>2019-07-14T12:13:48Z</time>
      </trkpt>
      <trkpt lat="47.80044" lon="-3.60892">
        <ele>54</ele>
        <time>2019-07-14T12:13:49Z</time>
      </trkpt>
      <trkpt lat="47.80037" lon="-3.60897">
        <ele>54</ele>
        <time>2019-07-14T12:13:50Z</time>
      </trkpt>
      <trkpt lat="47.80031" lon="-3.60903">
        <ele>54</ele>
        <time>2019-07-14T12:13:51Z</time>
      </trkpt>
      <trkpt lat="47.80025" lon="-3.60909">
        <ele>54</ele>
        <time>2019-07-14T12:13:52Z</time>
      </trkpt>
      <trkpt lat="47.80018" lon="-3.60915">
        <ele>54</ele>
        <time>2019-07-14T12:13:53Z</time>
      </trkpt>
      <trkpt lat="47.80012" lon="-3.60921">
        <ele>55</ele>
        <time>2019-07-14T12:13:54Z</time>
      </trkpt>
      <trkpt lat="47.80005" lon="-3.60926">
        <ele>55</ele>
        <time>2019-07-14T12:13:55Z</time>
      </trkpt>
      <trkpt lat="47.79999" lon="-3.60932">
        <ele>55</ele>
        <time>2019-07-14T12:13:56Z</time>
      </trkpt>
      <trkpt lat="47.79993" lon="-3.60938">
        <ele>55</ele>
        <time>2019-07-14T12:13:57Z</time>
      </trkpt>
      <trkpt lat="47.79987" lon="-3.60944">
        <ele>55</ele>
        <time>2019-07-14T12:13:58Z</time>
      </trkpt>
      <trkpt lat="47.79981" lon="-3.60949">
        <ele>55</ele>
        <time>2019-07-14T12:13:59Z</time>
      </trkpt>
      <trkpt lat="47.79975" lon="-3.60953">
        <ele>55</ele>
        <time>2019-07-14T12:14:00Z</time>
      </trkpt>
      <trkpt lat="47.79969" lon="-3.60958">
        <ele>55</ele>
        <time>2019-07-14T12:14:01Z</time>
      </trkpt>
      <trkpt lat="47.79964" lon="-3.60962">
        <ele>55</ele>
        <time>2019-07-14T12:14:02Z</time>
      </trkpt>
      <trkpt lat="47.79958" lon="-3.60965">
        <ele>56</ele>
        <time>2019-07-14T12:14:03Z</time>
      </trkpt>
      <trkpt lat="47.79952" lon="-3.60968">
        <ele>56</ele>
        <time>2019-07-14T12:14:04Z</time>
      </trkpt>
      <trkpt lat="47.79947" lon="-3.60972">
        <ele>56</ele>
        <time>2019-07-14T12:14:05Z</time>
      </trkpt>
      <trkpt lat="47.79941" lon="-3.60974">
        <ele>56</ele>
        <time>2019-07-14T12:14:06Z</time>
      </trkpt>
      <trkpt lat="47.79935" lon="-3.60978">
        <ele>56</ele>
        <time>2019-07-14T12:14:07Z</time>
      </trkpt>
      <trkpt lat="47.7993" lon="-3.60982">
        <ele>56</ele>
        <time>2019-07-14T12:14:08Z</time>
      </trkpt>
      <trkpt lat="47.79924" lon="-3.60985">
        <ele>56</ele>
        <time>2019-07-14T12:14:09Z</time>
      </trkpt>
      <trkpt lat="47.79919" lon="-3.60988">
        <ele>56</ele>
        <time>2019-07-14T12:14:10Z</time>
      </trkpt>
      <trkpt lat="47.79913" lon="-3.60991">
        <ele>56</ele>
        <time>2019-07-14T12:14:11Z</time>
      </trkpt>
      <trkpt lat="47.79907" lon="-3.60995">
        <ele>56</ele>
        <time>2019-07-14T12:14:12Z</time>
      </trkpt>
      <trkpt lat="47.79901" lon="-3.60998">
        <ele>56</ele>
        <time>2019-07-14T12:14:13Z</time>
      </trkpt>
      <trkpt lat="47.79896" lon="-3.61001">
        <ele>56</ele>
        <time>2019-07-14T12:14:14Z</time>
      </trkpt>
      <trkpt lat="47.7989" lon="-3.61004">
        <ele>56</ele>
        <time>2019-07-14T12:14:15Z</time>
      </trkpt>
      <trkpt lat="47.79884" lon="-3.61007">
        <ele>56</ele>
        <time>2019-07-14T12:14:16Z</time>
      </trkpt>
      <trkpt lat="47.79878" lon="-3.6101">
        <ele>56</ele>
        <time>2019-07-14T12:14:17Z</time>
      </trkpt>
      <trkpt lat="47.79872" lon="-3.61013">
        <ele>56</ele>
        <time>2019-07-14T12:14:18Z</time>
      </trkpt>
      <trkpt lat="47.79866" lon="-3.61016">
        <ele>56</ele>
        <time>2019-07-14T12:14:19Z</time>
      </trkpt>
      <trkpt lat="47.7986" lon="-3.6102">
        <ele>56</ele>
        <time>2019-07-14T12:14:20Z</time>
      </trkpt>
      <trkpt lat="47.79854" lon="-3.61024">
        <ele>57</ele>
        <time>2019-07-14T12:14:21Z</time>
      </trkpt>
      <trkpt lat="47.79848" lon="-3.61028">
        <ele>57</ele>
        <time>2019-07-14T12:14:22Z</time>
      </trkpt>
      <trkpt lat="47.79842" lon="-3.61032">
        <ele>57</ele>
        <time>2019-07-14T12:14:23Z</time>
      </trkpt>
      <trkpt lat="47.79836" lon="-3.61038">
        <ele>57</ele>
        <time>2019-07-14T12:14:24Z</time>
      </trkpt>
      <trkpt lat="47.7983" lon="-3.61042">
        <ele>57</ele>
        <time>2019-07-14T12:14:25Z</time>
      </trkpt>
      <trkpt lat="47.79824" lon="-3.61046">
        <ele>56</ele>
        <time>2019-07-14T12:14:26Z</time>
      </trkpt>
      <trkpt lat="47.79818" lon="-3.61051">
        <ele>56</ele>
        <time>2019-07-14T12:14:27Z</time>
      </trkpt>
      <trkpt lat="47.79813" lon="-3.61056">
        <ele>56</ele>
        <time>2019-07-14T12:14:28Z</time>
      </trkpt>
      <trkpt lat="47.79807" lon="-3.61061">
        <ele>56</ele>
        <time>2019-07-14T12:14:29Z</time>
      </trkpt>
      <trkpt lat="47.79802" lon="-3.61065">
        <ele>56</ele>
        <time>2019-07-14T12:14:30Z</time>
      </trkpt>
      <trkpt lat="47.79796" lon="-3.61069">
        <ele>56</ele>
        <time>2019-07-14T12:14:31Z</time>
      </trkpt>
      <trkpt lat="47.7979" lon="-3.61074">
        <ele>56</ele>
        <time>2019-07-14T12:14:32Z</time>
      </trkpt>
      <trkpt lat="47.79784" lon="-3.61078">
        <ele>56</ele>
        <time>2019-07-14T12:14:33Z</time>
      </trkpt>
      <trkpt lat="47.79778" lon="-3.61082">
        <ele>56</ele>
        <time>2019-07-14T12:14:34Z</time>
      </trkpt>
      <trkpt lat="47.79772" lon="-3.61088">
        <ele>56</ele>
        <time>2019-07-14T12:14:35Z</time>
      </trkpt>
      <trkpt lat="47.79766" lon="-3.61093">
        <ele>56</ele>
        <time>2019-07-14T12:14:36Z</time>
      </trkpt>
      <trkpt lat="47.79759" lon="-3.61099">
        <ele>56</ele>
        <time>2019-07-14T12:14:37Z</time>
      </trkpt>
      <trkpt lat="47.79754" lon="-3.61106">
        <ele>56</ele>
        <time>2019-07-14T12:14:38Z</time>
      </trkpt>
      <trkpt lat="47.79748" lon="-3.61111">
        <ele>56</ele>
        <time>2019-07-14T12:14:39Z</time>
      </trkpt>
      <trkpt lat="47.79742" lon="-3.61117">
        <ele>55</ele>
        <time>2019-07-14T12:14:40Z</time>
      </trkpt>
      <trkpt lat="47.79735" lon="-3.61123">
        <ele>55</ele>
        <time>2019-07-14T12:14:41Z</time>
      </trkpt>
      <trkpt lat="47.79729" lon="-3.61128">
        <ele>55</ele>
        <time>2019-07-14T12:14:42Z</time>
      </trkpt>
      <trkpt lat="47.79722" lon="-3.61134">
        <ele>55</ele>
        <time>2019-07-14T12:14:43Z</time>
      </trkpt>
      <trkpt lat="47.79715" lon="-3.6114">
        <ele>54</ele>
        <time>2019-07-14T12:14:44Z</time>
      </trkpt>
      <trkpt lat="47.79709" lon="-3.61146">
        <ele>54</ele>
        <time>2019-07-14T12:14:45Z</time>
      </trkpt>
      <trkpt lat="47.79702" lon="-3.61152">
        <ele>54</ele>
        <time>2019-07-14T12:14:46Z</time>
      </trkpt>
      <trkpt lat="47.79695" lon="-3.61157">
        <ele>53</ele>
        <time>2019-07-14T12:14:47Z</time>
      </trkpt>
      <trkpt lat="47.79688" lon="-3.61162">
        <ele>53</ele>
        <time>2019-07-14T12:14:48Z</time>
      </trkpt>
      <trkpt lat="47.79682" lon="-3.61167">
        <ele>53</ele>
        <time>2019-07-14T12:14:49Z</time>
      </trkpt>
      <trkpt lat="47.79674" lon="-3.61172">
        <ele>53</ele>
        <time>2019-07-14T12:14:50Z</time>
      </trkpt>
      <trkpt lat="47.79667" lon="-3.61177">
        <ele>52</ele>
        <time>2019-07-14T12:14:51Z</time>
      </trkpt>
      <trkpt lat="47.7966" lon="-3.61183">
        <ele>52</ele>
        <time>2019-07-14T12:14:52Z</time>
      </trkpt>
      <trkpt lat="47.79652" lon="-3.61188">
        <ele>52</ele>
        <time>2019-07-14T12:14:53Z</time>
      </trkpt>
      <trkpt lat="47.79645" lon="-3.61194">
        <ele>51</ele>
        <time>2019-07-14T12:14:54Z</time>
      </trkpt>
      <trkpt lat="47.79637" lon="-3.612">
        <ele>51</ele>
        <time>2019-07-14T12:14:55Z</time>
      </trkpt>
      <trkpt lat="47.7963" lon="-3.61206">
        <ele>51</ele>
        <time>2019-07-14T12:14:56Z</time>
      </trkpt>
      <trkpt lat="47.79623" lon="-3.61213">
        <ele>50</ele>
        <time>2019-07-14T12:14:57Z</time>
      </trkpt>
      <trkpt lat="47.79616" lon="-3.61218">
        <ele>50</ele>
        <time>2019-07-14T12:14:58Z</time>
      </trkpt>
      <trkpt lat="47.79608" lon="-3.61223">
        <ele>50</ele>
        <time>2019-07-14T12:14:59Z</time>
      </trkpt>
      <trkpt lat="47.79601" lon="-3.61228">
        <ele>49</ele>
        <time>2019-07-14T12:15:00Z</time>
      </trkpt>
      <trkpt lat="47.79593" lon="-3.61233">
        <ele>49</ele>
        <time>2019-07-14T12:15:01Z</time>
      </trkpt>
      <trkpt lat="47.79586" lon="-3.61239">
        <ele>49</ele>
        <time>2019-07-14T12:15:02Z</time>
      </trkpt>
      <trkpt lat="47.79578" lon="-3.61245">
        <ele>48</ele>
        <time>2019-07-14T12:15:03Z</time>
      </trkpt>
      <trkpt lat="47.79571" lon="-3.6125">
        <ele>48</ele>
        <time>2019-07-14T12:15:04Z</time>
      </trkpt>
      <trkpt lat="47.79564" lon="-3.61256">
        <ele>48</ele>
        <time>2019-07-14T12:15:05Z</time>
      </trkpt>
      <trkpt lat="47.79557" lon="-3.61262">
        <ele>47</ele>
        <time>2019-07-14T12:15:06Z</time>
      </trkpt>
      <trkpt lat="47.7955" lon="-3.61268">
        <ele>47</ele>
        <time>2019-07-14T12:15:07Z</time>
      </trkpt>
      <trkpt lat="47.79542" lon="-3.61273">
        <ele>47</ele>
        <time>2019-07-14T12:15:08Z</time>
      </trkpt>
      <trkpt lat="47.79535" lon="-3.61278">
        <ele>47</ele>
        <time>2019-07-14T12:15:09Z</time>
      </trkpt>
      <trkpt lat="47.79528" lon="-3.61283">
        <ele>47</ele>
        <time>2019-07-14T12:15:10Z</time>
      </trkpt>
      <trkpt lat="47.79521" lon="-3.61289">
        <ele>47</ele>
        <time>2019-07-14T12:15:11Z</time>
      </trkpt>
      <trkpt lat="47.79513" lon="-3.61295">
        <ele>47</ele>
        <time>2019-07-14T12:15:12Z</time>
      </trkpt>
      <trkpt lat="47.79506" lon="-3.613">
        <ele>46</ele>
        <time>2019-07-14T12:15:13Z</time>
      </trkpt>
      <trkpt lat="47.79498" lon="-3.61306">
        <ele>46</ele>
        <time>2019-07-14T12:15:14Z</time>
      </trkpt>
      <trkpt lat="47.79491" lon="-3.61312">
        <ele>46</ele>
        <time>2019-07-14T12:15:15Z</time>
      </trkpt>
      <trkpt lat="47.79483" lon="-3.61318">
        <ele>46</ele>
        <time>2019-07-14T12:15:16Z</time>
      </trkpt>
      <trkpt lat="47.79476" lon="-3.61324">
        <ele>46</ele>
        <time>2019-07-14T12:15:17Z</time>
      </trkpt>
      <trkpt lat="47.79469" lon="-3.6133">
        <ele>46</ele>
        <time>2019-07-14T12:15:18Z</time>
      </trkpt>
      <trkpt lat="47.79461" lon="-3.61335">
        <ele>46</ele>
        <time>2019-07-14T12:15:19Z</time>
      </trkpt>
      <trkpt lat="47.79454" lon="-3.61341">
        <ele>45</ele>
        <time>2019-07-14T12:15:20Z</time>
      </trkpt>
      <trkpt lat="47.79447" lon="-3.61347">
        <ele>45</ele>
        <time>2019-07-14T12:15:21Z</time>
      </trkpt>
      <trkpt lat="47.79439" lon="-3.61353">
        <ele>45</ele>
        <time>2019-07-14T12:15:22Z</time>
      </trkpt>
      <trkpt lat="47.79432" lon="-3.61359">
        <ele>45</ele>
        <time>2019-07-14T12:15:23Z</time>
      </trkpt>
      <trkpt lat="47.79425" lon="-3.61364">
        <ele>45</ele>
        <time>2019-07-14T12:15:24Z</time>
      </trkpt>
      <trkpt lat="47.79418" lon="-3.61369">
        <ele>45</ele>
        <time>2019-07-14T12:15:25Z</time>
      </trkpt>
      <trkpt lat="47.79411" lon="-3.61374">
        <ele>45</ele>
        <time>2019-07-14T12:15:26Z</time>
      </trkpt>
      <trkpt lat="47.79404" lon="-3.61379">
        <ele>45</ele>
        <time>2019-07-14T12:15:27Z</time>
      </trkpt>
      <trkpt lat="47.79397" lon="-3.61385">
        <ele>45</ele>
        <time>2019-07-14T12:15:28Z</time>
      </trkpt>
      <trkpt lat="47.7939" lon="-3.6139">
        <ele>45</ele>
        <time>2019-07-14T12:15:29Z</time>
      </trkpt>
      <trkpt lat="47.79383" lon="-3.61396">
        <ele>45</ele>
        <time>2019-07-14T12:15:30Z</time>
      </trkpt>
      <trkpt lat="47.79376" lon="-3.61402">
        <ele>44</ele>
        <time>2019-07-14T12:15:31Z</time>
      </trkpt>
      <trkpt lat="47.79369" lon="-3.61407">
        <ele>44</ele>
        <time>2019-07-14T12:15:32Z</time>
      </trkpt>
      <trkpt lat="47.79362" lon="-3.61413">
        <ele>44</ele>
        <time>2019-07-14T12:15:33Z</time>
      </trkpt>
      <trkpt lat="47.79355" lon="-3.61419">
        <ele>44</ele>
        <time>2019-07-14T12:15:34Z</time>
      </trkpt>
      <trkpt lat="47.79348" lon="-3.61424">
        <ele>44</ele>
        <time>2019-07-14T12:15:35Z</time>
      </trkpt>
      <trkpt lat="47.7934" lon="-3.6143">
        <ele>43</ele>
        <time>2019-07-14T12:15:36Z</time>
      </trkpt>
      <trkpt lat="47.79333" lon="-3.61436">
        <ele>43</ele>
        <time>2019-07-14T12:15:37Z</time>
      </trkpt>
      <trkpt lat="47.79326" lon="-3.61442">
        <ele>43</ele>
        <time>2019-07-14T12:15:38Z</time>
      </trkpt>
      <trkpt lat="47.79319" lon="-3.61448">
        <ele>43</ele>
        <time>2019-07-14T12:15:39Z</time>
      </trkpt>
      <trkpt lat="47.79312" lon="-3.61453">
        <ele>42</ele>
        <time>2019-07-14T12:15:40Z</time>
      </trkpt>
      <trkpt lat="47.79305" lon="-3.61459">
        <ele>42</ele>
        <time>2019-07-14T12:15:41Z</time>
      </trkpt>
      <trkpt lat="47.79298" lon="-3.61465">
        <ele>42</ele>
        <time>2019-07-14T12:15:42Z</time>
      </trkpt>
      <trkpt lat="47.7929" lon="-3.6147">
        <ele>42</ele>
        <time>2019-07-14T12:15:43Z</time>
      </trkpt>
      <trkpt lat="47.79283" lon="-3.61476">
        <ele>42</ele>
        <time>2019-07-14T12:15:44Z</time>
      </trkpt>
      <trkpt lat="47.79276" lon="-3.61481">
        <ele>42</ele>
        <time>2019-07-14T12:15:45Z</time>
      </trkpt>
      <trkpt lat="47.79269" lon="-3.61487">
        <ele>42</ele>
        <time>2019-07-14T12:15:46Z</time>
      </trkpt>
      <trkpt lat="47.79261" lon="-3.61492">
        <ele>42</ele>
        <time>2019-07-14T12:15:47Z</time>
      </trkpt>
      <trkpt lat="47.79254" lon="-3.61498">
        <ele>41</ele>
        <time>2019-07-14T12:15:48Z</time>
      </trkpt>
      <trkpt lat="47.79246" lon="-3.61503">
        <ele>41</ele>
        <time>2019-07-14T12:15:49Z</time>
      </trkpt>
      <trkpt lat="47.79239" lon="-3.61508">
        <ele>41</ele>
        <time>2019-07-14T12:15:50Z</time>
      </trkpt>
      <trkpt lat="47.79232" lon="-3.61514">
        <ele>41</ele>
        <time>2019-07-14T12:15:51Z</time>
      </trkpt>
      <trkpt lat="47.79225" lon="-3.61519">
        <ele>41</ele>
        <time>2019-07-14T12:15:52Z</time>
      </trkpt>
      <trkpt lat="47.79218" lon="-3.61525">
        <ele>41</ele>
        <time>2019-07-14T12:15:53Z</time>
      </trkpt>
      <trkpt lat="47.79211" lon="-3.6153">
        <ele>41</ele>
        <time>2019-07-14T12:15:54Z</time>
      </trkpt>
      <trkpt lat="47.79205" lon="-3.61535">
        <ele>41</ele>
        <time>2019-07-14T12:15:55Z</time>
      </trkpt>
      <trkpt lat="47.79198" lon="-3.6154">
        <ele>41</ele>
        <time>2019-07-14T12:15:56Z</time>
      </trkpt>
      <trkpt lat="47.79192" lon="-3.61544">
        <ele>41</ele>
        <time>2019-07-14T12:15:57Z</time>
      </trkpt>
      <trkpt lat="47.79186" lon="-3.61549">
        <ele>41</ele>
        <time>2019-07-14T12:15:58Z</time>
      </trkpt>
      <trkpt lat="47.79181" lon="-3.61554">
        <ele>41</ele>
        <time>2019-07-14T12:15:59Z</time>
      </trkpt>
      <trkpt lat="47.79176" lon="-3.61559">
        <ele>41</ele>
        <time>2019-07-14T12:16:00Z</time>
      </trkpt>
      <trkpt lat="47.79171" lon="-3.61564">
        <ele>42</ele>
        <time>2019-07-14T12:16:01Z</time>
      </trkpt>
      <trkpt lat="47.79166" lon="-3.61569">
        <ele>42</ele>
        <time>2019-07-14T12:16:02Z</time>
      </trkpt>
      <trkpt lat="47.79161" lon="-3.61571">
        <ele>42</ele>
        <time>2019-07-14T12:16:03Z</time>
      </trkpt>
      <trkpt lat="47.79155" lon="-3.61571">
        <ele>42</ele>
        <time>2019-07-14T12:16:04Z</time>
      </trkpt>
      <trkpt lat="47.7915" lon="-3.61569">
        <ele>42</ele>
        <time>2019-07-14T12:16:05Z</time>
      </trkpt>
      <trkpt lat="47.79143" lon="-3.61567">
        <ele>42</ele>
        <time>2019-07-14T12:16:06Z</time>
      </trkpt>
      <trkpt lat="47.79137" lon="-3.61564">
        <ele>42</ele>
        <time>2019-07-14T12:16:07Z</time>
      </trkpt>
      <trkpt lat="47.7913" lon="-3.61561">
        <ele>41</ele>
        <time>2019-07-14T12:16:08Z</time>
      </trkpt>
      <trkpt lat="47.79123" lon="-3.61557">
        <ele>41</ele>
        <time>2019-07-14T12:16:09Z</time>
      </trkpt>
      <trkpt lat="47.79115" lon="-3.61554">
        <ele>41</ele>
        <time>2019-07-14T12:16:10Z</time>
      </trkpt>
      <trkpt lat="47.79108" lon="-3.61551">
        <ele>41</ele>
        <time>2019-07-14T12:16:11Z</time>
      </trkpt>
      <trkpt lat="47.791" lon="-3.61547">
        <ele>40</ele>
        <time>2019-07-14T12:16:12Z</time>
      </trkpt>
      <trkpt lat="47.79094" lon="-3.61545">
        <ele>40</ele>
        <time>2019-07-14T12:16:13Z</time>
      </trkpt>
      <trkpt lat="47.79088" lon="-3.61544">
        <ele>40</ele>
        <time>2019-07-14T12:16:14Z</time>
      </trkpt>
      <trkpt lat="47.79083" lon="-3.61544">
        <ele>39</ele>
        <time>2019-07-14T12:16:15Z</time>
      </trkpt>
      <trkpt lat="47.79079" lon="-3.61545">
        <ele>39</ele>
        <time>2019-07-14T12:16:16Z</time>
      </trkpt>
      <trkpt lat="47.79074" lon="-3.61548">
        <ele>38</ele>
        <time>2019-07-14T12:16:17Z</time>
      </trkpt>
      <trkpt lat="47.7907" lon="-3.6155">
        <ele>38</ele>
        <time>2019-07-14T12:16:18Z</time>
      </trkpt>
      <trkpt lat="47.79065" lon="-3.61551">
        <ele>37</ele>
        <time>2019-07-14T12:16:19Z</time>
      </trkpt>
      <trkpt lat="47.79061" lon="-3.61552">
        <ele>37</ele>
        <time>2019-07-14T12:16:20Z</time>
      </trkpt>
      <trkpt lat="47.79057" lon="-3.61551">
        <ele>37</ele>
        <time>2019-07-14T12:16:21Z</time>
      </trkpt>
      <trkpt lat="47.79053" lon="-3.61551">
        <ele>36</ele>
        <time>2019-07-14T12:16:22Z</time>
      </trkpt>
      <trkpt lat="47.79049" lon="-3.61551">
        <ele>36</ele>
        <time>2019-07-14T12:16:23Z</time>
      </trkpt>
      <trkpt lat="47.79045" lon="-3.6155">
        <ele>36</ele>
        <time>2019-07-14T12:16:24Z</time>
      </trkpt>
      <trkpt lat="47.7904" lon="-3.6155">
        <ele>36</ele>
        <time>2019-07-14T12:16:25Z</time>
      </trkpt>
      <trkpt lat="47.79036" lon="-3.6155">
        <ele>35</ele>
        <time>2019-07-14T12:16:26Z</time>
      </trkpt>
      <trkpt lat="47.79032" lon="-3.61548">
        <ele>35</ele>
        <time>2019-07-14T12:16:27Z</time>
      </trkpt>
      <trkpt lat="47.79028" lon="-3.61545">
        <ele>35</ele>
        <time>2019-07-14T12:16:28Z</time>
      </trkpt>
      <trkpt lat="47.79026" lon="-3.61539">
        <ele>35</ele>
        <time>2019-07-14T12:16:29Z</time>
      </trkpt>
      <trkpt lat="47.79025" lon="-3.61532">
        <ele>35</ele>
        <time>2019-07-14T12:16:30Z</time>
      </trkpt>
      <trkpt lat="47.79025" lon="-3.61525">
        <ele>34</ele>
        <time>2019-07-14T12:16:31Z</time>
      </trkpt>
      <trkpt lat="47.79025" lon="-3.61518">
        <ele>34</ele>
        <time>2019-07-14T12:16:32Z</time>
      </trkpt>
      <trkpt lat="47.79024" lon="-3.61511">
        <ele>34</ele>
        <time>2019-07-14T12:16:33Z</time>
      </trkpt>
      <trkpt lat="47.79023" lon="-3.61503">
        <ele>34</ele>
        <time>2019-07-14T12:16:34Z</time>
      </trkpt>
      <trkpt lat="47.79022" lon="-3.61495">
        <ele>34</ele>
        <time>2019-07-14T12:16:35Z</time>
      </trkpt>
      <trkpt lat="47.79021" lon="-3.61486">
        <ele>34</ele>
        <time>2019-07-14T12:16:36Z</time>
      </trkpt>
      <trkpt lat="47.7902" lon="-3.61478">
        <ele>34</ele>
        <time>2019-07-14T12:16:37Z</time>
      </trkpt>
      <trkpt lat="47.7902" lon="-3.61469">
        <ele>34</ele>
        <time>2019-07-14T12:16:38Z</time>
      </trkpt>
      <trkpt lat="47.79019" lon="-3.6146">
        <ele>34</ele>
        <time>2019-07-14T12:16:39Z</time>
      </trkpt>
      <trkpt lat="47.79018" lon="-3.61452">
        <ele>34</ele>
        <time>2019-07-14T12:16:40Z</time>
      </trkpt>
      <trkpt lat="47.79017" lon="-3.61444">
        <ele>34</ele>
        <time>2019-07-14T12:16:41Z</time>
      </trkpt>
      <trkpt lat="47.79016" lon="-3.61436">
        <ele>34</ele>
        <time>2019-07-14T12:16:42Z</time>
      </trkpt>
      <trkpt lat="47.79014" lon="-3.61427">
        <ele>34</ele>
        <time>2019-07-14T12:16:43Z</time>
      </trkpt>
      <trkpt lat="47.79013" lon="-3.61419">
        <ele>34</ele>
        <time>2019-07-14T12:16:44Z</time>
      </trkpt>
      <trkpt lat="47.79011" lon="-3.61412">
        <ele>34</ele>
        <time>2019-07-14T12:16:45Z</time>
      </trkpt>
      <trkpt lat="47.79007" lon="-3.61409">
        <ele>34</ele>
        <time>2019-07-14T12:16:46Z</time>
      </trkpt>
      <trkpt lat="47.79003" lon="-3.61408">
        <ele>34</ele>
        <time>2019-07-14T12:16:47Z</time>
      </trkpt>
      <trkpt lat="47.78999" lon="-3.6141">
        <ele>34</ele>
        <time>2019-07-14T12:16:48Z</time>
      </trkpt>
      <trkpt lat="47.78995" lon="-3.61413">
        <ele>34</ele>
        <time>2019-07-14T12:16:49Z</time>
      </trkpt>
      <trkpt lat="47.78991" lon="-3.61415">
        <ele>34</ele>
        <time>2019-07-14T12:16:50Z</time>
      </trkpt>
      <trkpt lat="47.78986" lon="-3.61418">
        <ele>34</ele>
        <time>2019-07-14T12:16:51Z</time>
      </trkpt>
      <trkpt lat="47.78981" lon="-3.6142">
        <ele>34</ele>
        <time>2019-07-14T12:16:52Z</time>
      </trkpt>
      <trkpt lat="47.78976" lon="-3.61424">
        <ele>34</ele>
        <time>2019-07-14T12:16:53Z</time>
      </trkpt>
      <trkpt lat="47.7897" lon="-3.61427">
        <ele>34</ele>
        <time>2019-07-14T12:16:54Z</time>
      </trkpt>
      <trkpt lat="47.78964" lon="-3.6143">
        <ele>34</ele>
        <time>2019-07-14T12:16:55Z</time>
      </trkpt>
      <trkpt lat="47.78959" lon="-3.61432">
        <ele>34</ele>
        <time>2019-07-14T12:16:56Z</time>
      </trkpt>
      <trkpt lat="47.78954" lon="-3.61433">
        <ele>34</ele>
        <time>2019-07-14T12:16:57Z</time>
      </trkpt>
      <trkpt lat="47.78948" lon="-3.61436">
        <ele>34</ele>
        <time>2019-07-14T12:16:58Z</time>
      </trkpt>
      <trkpt lat="47.78943" lon="-3.6144">
        <ele>33</ele>
        <time>2019-07-14T12:16:59Z</time>
      </trkpt>
      <trkpt lat="47.78936" lon="-3.61443">
        <ele>33</ele>
        <time>2019-07-14T12:17:00Z</time>
      </trkpt>
      <trkpt lat="47.78931" lon="-3.61446">
        <ele>33</ele>
        <time>2019-07-14T12:17:01Z</time>
      </trkpt>
      <trkpt lat="47.78925" lon="-3.61448">
        <ele>33</ele>
        <time>2019-07-14T12:17:02Z</time>
      </trkpt>
      <trkpt lat="47.78919" lon="-3.61449">
        <ele>33</ele>
        <time>2019-07-14T12:17:03Z</time>
      </trkpt>
      <trkpt lat="47.78913" lon="-3.61451">
        <ele>33</ele>
        <time>2019-07-14T12:17:04Z</time>
      </trkpt>
      <trkpt lat="47.78907" lon="-3.61451">
        <ele>33</ele>
        <time>2019-07-14T12:17:05Z</time>
      </trkpt>
      <trkpt lat="47.78902" lon="-3.61452">
        <ele>33</ele>
        <time>2019-07-14T12:17:06Z</time>
      </trkpt>
      <trkpt lat="47.78896" lon="-3.61453">
        <ele>32</ele>
        <time>2019-07-14T12:17:07Z</time>
      </trkpt>
      <trkpt lat="47.7889" lon="-3.61454">
        <ele>32</ele>
        <time>2019-07-14T12:17:08Z</time>
      </trkpt>
      <trkpt lat="47.78885" lon="-3.61455">
        <ele>32</ele>
        <time>2019-07-14T12:17:09Z</time>
      </trkpt>
      <trkpt lat="47.78878" lon="-3.61456">
        <ele>32</ele>
        <time>2019-07-14T12:17:10Z</time>
      </trkpt>
      <trkpt lat="47.78873" lon="-3.61457">
        <ele>32</ele>
        <time>2019-07-14T12:17:11Z</time>
      </trkpt>
      <trkpt lat="47.78867" lon="-3.61457">
        <ele>32</ele>
        <time>2019-07-14T12:17:12Z</time>
      </trkpt>
      <trkpt lat="47.78861" lon="-3.61456">
        <ele>32</ele>
        <time>2019-07-14T12:17:13Z</time>
      </trkpt>
      <trkpt lat="47.78855" lon="-3.61454">
        <ele>32</ele>
        <time>2019-07-14T12:17:14Z</time>
      </trkpt>
      <trkpt lat="47.78849" lon="-3.61452">
        <ele>32</ele>
        <time>2019-07-14T12:17:15Z</time>
      </trkpt>
      <trkpt lat="47.78844" lon="-3.6145">
        <ele>32</ele>
        <time>2019-07-14T12:17:16Z</time>
      </trkpt>
      <trkpt lat="47.78838" lon="-3.61447">
        <ele>31</ele>
        <time>2019-07-14T12:17:17Z</time>
      </trkpt>
      <trkpt lat="47.78832" lon="-3.61445">
        <ele>31</ele>
        <time>2019-07-14T12:17:18Z</time>
      </trkpt>
      <trkpt lat="47.78825" lon="-3.61442">
        <ele>31</ele>
        <time>2019-07-14T12:17:19Z</time>
      </trkpt>
      <trkpt lat="47.78819" lon="-3.6144">
        <ele>31</ele>
        <time>2019-07-14T12:17:20Z</time>
      </trkpt>
      <trkpt lat="47.78815" lon="-3.61437">
        <ele>31</ele>
        <time>2019-07-14T12:17:21Z</time>
      </trkpt>
      <trkpt lat="47.78811" lon="-3.61436">
        <ele>31</ele>
        <time>2019-07-14T12:17:22Z</time>
      </trkpt>
      <trkpt lat="47.78807" lon="-3.61434">
        <ele>30</ele>
        <time>2019-07-14T12:17:23Z</time>
      </trkpt>
      <trkpt lat="47.78803" lon="-3.61434">
        <ele>30</ele>
        <time>2019-07-14T12:17:24Z</time>
      </trkpt>
      <trkpt lat="47.788" lon="-3.61434">
        <ele>30</ele>
        <time>2019-07-14T12:17:25Z</time>
      </trkpt>
      <trkpt lat="47.78796" lon="-3.61434">
        <ele>30</ele>
        <time>2019-07-14T12:17:26Z</time>
      </trkpt>
      <trkpt lat="47.78793" lon="-3.61434">
        <ele>30</ele>
        <time>2019-07-14T12:17:27Z</time>
      </trkpt>
      <trkpt lat="47.7879" lon="-3.61434">
        <ele>30</ele>
        <time>2019-07-14T12:17:28Z</time>
      </trkpt>
      <trkpt lat="47.78789" lon="-3.61434">
        <ele>30</ele>
        <time>2019-07-14T12:17:29Z</time>
      </trkpt>
      <trkpt lat="47.78789" lon="-3.61433">
        <ele>30</ele>
        <time>2019-07-14T12:17:30Z</time>
      </trkpt>
      <trkpt lat="47.78788" lon="-3.61433">
        <ele>29</ele>
        <time>2019-07-14T12:17:31Z</time>
      </trkpt>
      <trkpt lat="47.78786" lon="-3.61432">
        <ele>29</ele>
        <time>2019-07-14T12:17:32Z</time>
      </trkpt>
      <trkpt lat="47.78784" lon="-3.61432">
        <ele>29</ele>
        <time>2019-07-14T12:17:33Z</time>
      </trkpt>
      <trkpt lat="47.78782" lon="-3.61432">
        <ele>29</ele>
        <time>2019-07-14T12:17:34Z</time>
      </trkpt>
      <trkpt lat="47.78779" lon="-3.61432">
        <ele>29</ele>
        <time>2019-07-14T12:17:35Z</time>
      </trkpt>
      <trkpt lat="47.78776" lon="-3.61432">
        <ele>29</ele>
        <time>2019-07-14T12:17:36Z</time>
      </trkpt>
      <trkpt lat="47.78773" lon="-3.61432">
        <ele>28</ele>
        <time>2019-07-14T12:17:37Z</time>
      </trkpt>
      <trkpt lat="47.7877" lon="-3.61431">
        <ele>28</ele>
        <time>2019-07-14T12:17:38Z</time>
      </trkpt>
      <trkpt lat="47.78767" lon="-3.6143">
        <ele>28</ele>
        <time>2019-07-14T12:17:39Z</time>
      </trkpt>
      <trkpt lat="47.78764" lon="-3.61429">
        <ele>28</ele>
        <time>2019-07-14T12:17:40Z</time>
      </trkpt>
      <trkpt lat="47.78762" lon="-3.61427">
        <ele>28</ele>
        <time>2019-07-14T12:17:41Z</time>
      </trkpt>
      <trkpt lat="47.78759" lon="-3.61425">
        <ele>28</ele>
        <time>2019-07-14T12:17:42Z</time>
      </trkpt>
      <trkpt lat="47.78756" lon="-3.61424">
        <ele>27</ele>
        <time>2019-07-14T12:17:43Z</time>
      </trkpt>
      <trkpt lat="47.78753" lon="-3.61422">
        <ele>27</ele>
        <time>2019-07-14T12:17:44Z</time>
      </trkpt>
      <trkpt lat="47.7875" lon="-3.6142">
        <ele>27</ele>
        <time>2019-07-14T12:17:45Z</time>
      </trkpt>
      <trkpt lat="47.78748" lon="-3.61416">
        <ele>27</ele>
        <time>2019-07-14T12:17:46Z</time>
      </trkpt>
      <trkpt lat="47.78747" lon="-3.61412">
        <ele>27</ele>
        <time>2019-07-14T12:17:47Z</time>
      </trkpt>
      <trkpt lat="47.78746" lon="-3.61407">
        <ele>27</ele>
        <time>2019-07-14T12:17:48Z</time>
      </trkpt>
      <trkpt lat="47.78745" lon="-3.61402">
        <ele>27</ele>
        <time>2019-07-14T12:17:49Z</time>
      </trkpt>
      <trkpt lat="47.78745" lon="-3.61397">
        <ele>27</ele>
        <time>2019-07-14T12:17:50Z</time>
      </trkpt>
      <trkpt lat="47.78744" lon="-3.61391">
        <ele>27</ele>
        <time>2019-07-14T12:17:51Z</time>
      </trkpt>
      <trkpt lat="47.78743" lon="-3.61385">
        <ele>27</ele>
        <time>2019-07-14T12:17:52Z</time>
      </trkpt>
      <trkpt lat="47.78743" lon="-3.61379">
        <ele>27</ele>
        <time>2019-07-14T12:17:53Z</time>
      </trkpt>
      <trkpt lat="47.78743" lon="-3.61373">
        <ele>27</ele>
        <time>2019-07-14T12:17:54Z</time>
      </trkpt>
      <trkpt lat="47.78742" lon="-3.61366">
        <ele>27</ele>
        <time>2019-07-14T12:17:55Z</time>
      </trkpt>
      <trkpt lat="47.78741" lon="-3.6136">
        <ele>27</ele>
        <time>2019-07-14T12:17:56Z</time>
      </trkpt>
      <trkpt lat="47.78741" lon="-3.61354">
        <ele>27</ele>
        <time>2019-07-14T12:17:57Z</time>
      </trkpt>
      <trkpt lat="47.7874" lon="-3.61347">
        <ele>28</ele>
        <time>2019-07-14T12:17:58Z</time>
      </trkpt>
      <trkpt lat="47.7874" lon="-3.61341">
        <ele>28</ele>
        <time>2019-07-14T12:17:59Z</time>
      </trkpt>
      <trkpt lat="47.78739" lon="-3.61334">
        <ele>28</ele>
        <time>2019-07-14T12:18:00Z</time>
      </trkpt>
      <trkpt lat="47.78738" lon="-3.61328">
        <ele>28</ele>
        <time>2019-07-14T12:18:01Z</time>
      </trkpt>
      <trkpt lat="47.78737" lon="-3.61321">
        <ele>28</ele>
        <time>2019-07-14T12:18:02Z</time>
      </trkpt>
      <trkpt lat="47.78736" lon="-3.61315">
        <ele>28</ele>
        <time>2019-07-14T12:18:03Z</time>
      </trkpt>
      <trkpt lat="47.78736" lon="-3.61309">
        <ele>28</ele>
        <time>2019-07-14T12:18:04Z</time>
      </trkpt>
      <trkpt lat="47.78736" lon="-3.61304">
        <ele>28</ele>
        <time>2019-07-14T12:18:05Z</time>
      </trkpt>
      <trkpt lat="47.78735" lon="-3.61298">
        <ele>28</ele>
        <time>2019-07-14T12:18:06Z</time>
      </trkpt>
      <trkpt lat="47.78735" lon="-3.61291">
        <ele>28</ele>
        <time>2019-07-14T12:18:07Z</time>
      </trkpt>
      <trkpt lat="47.78735" lon="-3.61284">
        <ele>28</ele>
        <time>2019-07-14T12:18:08Z</time>
      </trkpt>
      <trkpt lat="47.78735" lon="-3.61278">
        <ele>28</ele>
        <time>2019-07-14T12:18:09Z</time>
      </trkpt>
      <trkpt lat="47.78734" lon="-3.61272">
        <ele>28</ele>
        <time>2019-07-14T12:18:10Z</time>
      </trkpt>
      <trkpt lat="47.78734" lon="-3.61265">
        <ele>28</ele>
        <time>2019-07-14T12:18:11Z</time>
      </trkpt>
      <trkpt lat="47.78734" lon="-3.61259">
        <ele>28</ele>
        <time>2019-07-14T12:18:12Z</time>
      </trkpt>
      <trkpt lat="47.78733" lon="-3.61252">
        <ele>28</ele>
        <time>2019-07-14T12:18:13Z</time>
      </trkpt>
      <trkpt lat="47.78733" lon="-3.61246">
        <ele>28</ele>
        <time>2019-07-14T12:18:14Z</time>
      </trkpt>
      <trkpt lat="47.78733" lon="-3.6124">
        <ele>28</ele>
        <time>2019-07-14T12:18:15Z</time>
      </trkpt>
      <trkpt lat="47.78732" lon="-3.61233">
        <ele>28</ele>
        <time>2019-07-14T12:18:16Z</time>
      </trkpt>
      <trkpt lat="47.78732" lon="-3.61227">
        <ele>28</ele>
        <time>2019-07-14T12:18:17Z</time>
      </trkpt>
      <trkpt lat="47.78731" lon="-3.61222">
        <ele>29</ele>
        <time>2019-07-14T12:18:18Z</time>
      </trkpt>
      <trkpt lat="47.78731" lon="-3.61216">
        <ele>29</ele>
        <time>2019-07-14T12:18:19Z</time>
      </trkpt>
      <trkpt lat="47.78731" lon="-3.6121">
        <ele>29</ele>
        <time>2019-07-14T12:18:20Z</time>
      </trkpt>
      <trkpt lat="47.7873" lon="-3.61204">
        <ele>29</ele>
        <time>2019-07-14T12:18:21Z</time>
      </trkpt>
      <trkpt lat="47.7873" lon="-3.61198">
        <ele>29</ele>
        <time>2019-07-14T12:18:22Z</time>
      </trkpt>
      <trkpt lat="47.7873" lon="-3.61193">
        <ele>30</ele>
        <time>2019-07-14T12:18:23Z</time>
      </trkpt>
      <trkpt lat="47.7873" lon="-3.61187">
        <ele>30</ele>
        <time>2019-07-14T12:18:24Z</time>
      </trkpt>
      <trkpt lat="47.78729" lon="-3.61181">
        <ele>30</ele>
        <time>2019-07-14T12:18:25Z</time>
      </trkpt>
      <trkpt lat="47.78729" lon="-3.61175">
        <ele>31</ele>
        <time>2019-07-14T12:18:26Z</time>
      </trkpt>
      <trkpt lat="47.78728" lon="-3.6117">
        <ele>31</ele>
        <time>2019-07-14T12:18:27Z</time>
      </trkpt>
      <trkpt lat="47.78728" lon="-3.61164">
        <ele>31</ele>
        <time>2019-07-14T12:18:28Z</time>
      </trkpt>
      <trkpt lat="47.78727" lon="-3.61158">
        <ele>32</ele>
        <time>2019-07-14T12:18:29Z</time>
      </trkpt>
      <trkpt lat="47.78727" lon="-3.61153">
        <ele>32</ele>
        <time>2019-07-14T12:18:30Z</time>
      </trkpt>
      <trkpt lat="47.78727" lon="-3.61147">
        <ele>32</ele>
        <time>2019-07-14T12:18:31Z</time>
      </trkpt>
      <trkpt lat="47.78726" lon="-3.61141">
        <ele>32</ele>
        <time>2019-07-14T12:18:32Z</time>
      </trkpt>
      <trkpt lat="47.78726" lon="-3.61135">
        <ele>32</ele>
        <time>2019-07-14T12:18:33Z</time>
      </trkpt>
      <trkpt lat="47.78725" lon="-3.61129">
        <ele>33</ele>
        <time>2019-07-14T12:18:34Z</time>
      </trkpt>
      <trkpt lat="47.78725" lon="-3.61123">
        <ele>33</ele>
        <time>2019-07-14T12:18:35Z</time>
      </trkpt>
      <trkpt lat="47.78724" lon="-3.61118">
        <ele>33</ele>
        <time>2019-07-14T12:18:36Z</time>
      </trkpt>
      <trkpt lat="47.78724" lon="-3.61112">
        <ele>33</ele>
        <time>2019-07-14T12:18:37Z</time>
      </trkpt>
      <trkpt lat="47.78723" lon="-3.61106">
        <ele>33</ele>
        <time>2019-07-14T12:18:38Z</time>
      </trkpt>
      <trkpt lat="47.78723" lon="-3.611">
        <ele>34</ele>
        <time>2019-07-14T12:18:39Z</time>
      </trkpt>
      <trkpt lat="47.78722" lon="-3.61094">
        <ele>34</ele>
        <time>2019-07-14T12:18:40Z</time>
      </trkpt>
      <trkpt lat="47.78722" lon="-3.61088">
        <ele>34</ele>
        <time>2019-07-14T12:18:41Z</time>
      </trkpt>
      <trkpt lat="47.78721" lon="-3.61082">
        <ele>34</ele>
        <time>2019-07-14T12:18:42Z</time>
      </trkpt>
      <trkpt lat="47.78721" lon="-3.61076">
        <ele>34</ele>
        <time>2019-07-14T12:18:43Z</time>
      </trkpt>
      <trkpt lat="47.7872" lon="-3.6107">
        <ele>34</ele>
        <time>2019-07-14T12:18:44Z</time>
      </trkpt>
      <trkpt lat="47.7872" lon="-3.61064">
        <ele>34</ele>
        <time>2019-07-14T12:18:45Z</time>
      </trkpt>
      <trkpt lat="47.78719" lon="-3.61058">
        <ele>34</ele>
        <time>2019-07-14T12:18:46Z</time>
      </trkpt>
      <trkpt lat="47.78718" lon="-3.61052">
        <ele>35</ele>
        <time>2019-07-14T12:18:47Z</time>
      </trkpt>
      <trkpt lat="47.78718" lon="-3.61046">
        <ele>35</ele>
        <time>2019-07-14T12:18:48Z</time>
      </trkpt>
      <trkpt lat="47.78717" lon="-3.6104">
        <ele>35</ele>
        <time>2019-07-14T12:18:49Z</time>
      </trkpt>
      <trkpt lat="47.78716" lon="-3.61034">
        <ele>35</ele>
        <time>2019-07-14T12:18:50Z</time>
      </trkpt>
      <trkpt lat="47.78715" lon="-3.61028">
        <ele>35</ele>
        <time>2019-07-14T12:18:51Z</time>
      </trkpt>
      <trkpt lat="47.78714" lon="-3.61023">
        <ele>35</ele>
        <time>2019-07-14T12:18:52Z</time>
      </trkpt>
      <trkpt lat="47.78714" lon="-3.61018">
        <ele>35</ele>
        <time>2019-07-14T12:18:53Z</time>
      </trkpt>
      <trkpt lat="47.78713" lon="-3.61014">
        <ele>35</ele>
        <time>2019-07-14T12:18:54Z</time>
      </trkpt>
      <trkpt lat="47.78712" lon="-3.61009">
        <ele>35</ele>
        <time>2019-07-14T12:18:55Z</time>
      </trkpt>
      <trkpt lat="47.78712" lon="-3.61006">
        <ele>35</ele>
        <time>2019-07-14T12:18:56Z</time>
      </trkpt>
      <trkpt lat="47.78711" lon="-3.61003">
        <ele>35</ele>
        <time>2019-07-14T12:18:57Z</time>
      </trkpt>
      <trkpt lat="47.7871" lon="-3.61">
        <ele>35</ele>
        <time>2019-07-14T12:18:58Z</time>
      </trkpt>
      <trkpt lat="47.78708" lon="-3.60998">
        <ele>35</ele>
        <time>2019-07-14T12:18:59Z</time>
      </trkpt>
      <trkpt lat="47.78705" lon="-3.60998">
        <ele>35</ele>
        <time>2019-07-14T12:19:00Z</time>
      </trkpt>
      <trkpt lat="47.78702" lon="-3.61">
        <ele>35</ele>
        <time>2019-07-14T12:19:01Z</time>
      </trkpt>
      <trkpt lat="47.78699" lon="-3.61002">
        <ele>35</ele>
        <time>2019-07-14T12:19:02Z</time>
      </trkpt>
      <trkpt lat="47.78695" lon="-3.61004">
        <ele>34</ele>
        <time>2019-07-14T12:19:03Z</time>
      </trkpt>
      <trkpt lat="47.78691" lon="-3.61006">
        <ele>34</ele>
        <time>2019-07-14T12:19:04Z</time>
      </trkpt>
      <trkpt lat="47.78686" lon="-3.61009">
        <ele>34</ele>
        <time>2019-07-14T12:19:05Z</time>
      </trkpt>
      <trkpt lat="47.78682" lon="-3.61012">
        <ele>34</ele>
        <time>2019-07-14T12:19:06Z</time>
      </trkpt>
      <trkpt lat="47.78677" lon="-3.61015">
        <ele>34</ele>
        <time>2019-07-14T12:19:07Z</time>
      </trkpt>
      <trkpt lat="47.78672" lon="-3.61018">
        <ele>34</ele>
        <time>2019-07-14T12:19:08Z</time>
      </trkpt>
      <trkpt lat="47.78666" lon="-3.61021">
        <ele>34</ele>
        <time>2019-07-14T12:19:09Z</time>
      </trkpt>
      <trkpt lat="47.78661" lon="-3.61024">
        <ele>33</ele>
        <time>2019-07-14T12:19:10Z</time>
      </trkpt>
      <trkpt lat="47.78656" lon="-3.61027">
        <ele>33</ele>
        <time>2019-07-14T12:19:11Z</time>
      </trkpt>
      <trkpt lat="47.78651" lon="-3.6103">
        <ele>33</ele>
        <time>2019-07-14T12:19:12Z</time>
      </trkpt>
      <trkpt lat="47.78645" lon="-3.61033">
        <ele>33</ele>
        <time>2019-07-14T12:19:13Z</time>
      </trkpt>
      <trkpt lat="47.7864" lon="-3.61036">
        <ele>33</ele>
        <time>2019-07-14T12:19:14Z</time>
      </trkpt>
      <trkpt lat="47.78634" lon="-3.61039">
        <ele>33</ele>
        <time>2019-07-14T12:19:15Z</time>
      </trkpt>
      <trkpt lat="47.78629" lon="-3.61041">
        <ele>33</ele>
        <time>2019-07-14T12:19:16Z</time>
      </trkpt>
      <trkpt lat="47.78623" lon="-3.61043">
        <ele>33</ele>
        <time>2019-07-14T12:19:17Z</time>
      </trkpt>
      <trkpt lat="47.78618" lon="-3.61045">
        <ele>33</ele>
        <time>2019-07-14T12:19:18Z</time>
      </trkpt>
      <trkpt lat="47.78613" lon="-3.61047">
        <ele>33</ele>
        <time>2019-07-14T12:19:19Z</time>
      </trkpt>
      <trkpt lat="47.78608" lon="-3.61049">
        <ele>33</ele>
        <time>2019-07-14T12:19:20Z</time>
      </trkpt>
      <trkpt lat="47.78603" lon="-3.61051">
        <ele>33</ele>
        <time>2019-07-14T12:19:21Z</time>
      </trkpt>
      <trkpt lat="47.78597" lon="-3.61053">
        <ele>33</ele>
        <time>2019-07-14T12:19:22Z</time>
      </trkpt>
      <trkpt lat="47.78592" lon="-3.61055">
        <ele>33</ele>
        <time>2019-07-14T12:19:23Z</time>
      </trkpt>
      <trkpt lat="47.78586" lon="-3.61057">
        <ele>33</ele>
        <time>2019-07-14T12:19:24Z</time>
      </trkpt>
      <trkpt lat="47.7858" lon="-3.6106">
        <ele>33</ele>
        <time>2019-07-14T12:19:25Z</time>
      </trkpt>
      <trkpt lat="47.78574" lon="-3.61062">
        <ele>33</ele>
        <time>2019-07-14T12:19:26Z</time>
      </trkpt>
      <trkpt lat="47.78569" lon="-3.61064">
        <ele>33</ele>
        <time>2019-07-14T12:19:27Z</time>
      </trkpt>
      <trkpt lat="47.78563" lon="-3.61066">
        <ele>33</ele>
        <time>2019-07-14T12:19:28Z</time>
      </trkpt>
      <trkpt lat="47.78557" lon="-3.61069">
        <ele>33</ele>
        <time>2019-07-14T12:19:29Z</time>
      </trkpt>
      <trkpt lat="47.78551" lon="-3.61071">
        <ele>33</ele>
        <time>2019-07-14T12:19:30Z</time>
      </trkpt>
      <trkpt lat="47.78546" lon="-3.61073">
        <ele>33</ele>
        <time>2019-07-14T12:19:31Z</time>
      </trkpt>
      <trkpt lat="47.7854" lon="-3.61075">
        <ele>33</ele>
        <time>2019-07-14T12:19:32Z</time>
      </trkpt>
      <trkpt lat="47.78534" lon="-3.61078">
        <ele>33</ele>
        <time>2019-07-14T12:19:33Z</time>
      </trkpt>
      <trkpt lat="47.78528" lon="-3.61079">
        <ele>34</ele>
        <time>2019-07-14T12:19:34Z</time>
      </trkpt>
      <trkpt lat="47.78522" lon="-3.61081">
        <ele>34</ele>
        <time>2019-07-14T12:19:35Z</time>
      </trkpt>
      <trkpt lat="47.78516" lon="-3.61082">
        <ele>34</ele>
        <time>2019-07-14T12:19:36Z</time>
      </trkpt>
      <trkpt lat="47.7851" lon="-3.61084">
        <ele>34</ele>
        <time>2019-07-14T12:19:37Z</time>
      </trkpt>
      <trkpt lat="47.78504" lon="-3.61085">
        <ele>34</ele>
        <time>2019-07-14T12:19:38Z</time>
      </trkpt>
      <trkpt lat="47.78498" lon="-3.61086">
        <ele>34</ele>
        <time>2019-07-14T12:19:39Z</time>
      </trkpt>
      <trkpt lat="47.78492" lon="-3.61087">
        <ele>34</ele>
        <time>2019-07-14T12:19:40Z</time>
      </trkpt>
      <trkpt lat="47.78487" lon="-3.61088">
        <ele>34</ele>
        <time>2019-07-14T12:19:41Z</time>
      </trkpt>
      <trkpt lat="47.78481" lon="-3.61088">
        <ele>34</ele>
        <time>2019-07-14T12:19:42Z</time>
      </trkpt>
      <trkpt lat="47.78475" lon="-3.61089">
        <ele>34</ele>
        <time>2019-07-14T12:19:43Z</time>
      </trkpt>
      <trkpt lat="47.78469" lon="-3.61089">
        <ele>34</ele>
        <time>2019-07-14T12:19:44Z</time>
      </trkpt>
      <trkpt lat="47.78463" lon="-3.6109">
        <ele>34</ele>
        <time>2019-07-14T12:19:45Z</time>
      </trkpt>
      <trkpt lat="47.78457" lon="-3.61091">
        <ele>35</ele>
        <time>2019-07-14T12:19:46Z</time>
      </trkpt>
      <trkpt lat="47.78452" lon="-3.61091">
        <ele>35</ele>
        <time>2019-07-14T12:19:47Z</time>
      </trkpt>
      <trkpt lat="47.78447" lon="-3.61092">
        <ele>35</ele>
        <time>2019-07-14T12:19:48Z</time>
      </trkpt>
      <trkpt lat="47.78442" lon="-3.61092">
        <ele>35</ele>
        <time>2019-07-14T12:19:49Z</time>
      </trkpt>
      <trkpt lat="47.78438" lon="-3.61093">
        <ele>35</ele>
        <time>2019-07-14T12:19:50Z</time>
      </trkpt>
      <trkpt lat="47.78433" lon="-3.61093">
        <ele>35</ele>
        <time>2019-07-14T12:19:51Z</time>
      </trkpt>
      <trkpt lat="47.78429" lon="-3.61091">
        <ele>35</ele>
        <time>2019-07-14T12:19:52Z</time>
      </trkpt>
      <trkpt lat="47.78425" lon="-3.61088">
        <ele>35</ele>
        <time>2019-07-14T12:19:53Z</time>
      </trkpt>
      <trkpt lat="47.78421" lon="-3.61085">
        <ele>35</ele>
        <time>2019-07-14T12:19:54Z</time>
      </trkpt>
      <trkpt lat="47.78416" lon="-3.61081">
        <ele>35</ele>
        <time>2019-07-14T12:19:55Z</time>
      </trkpt>
      <trkpt lat="47.78412" lon="-3.61078">
        <ele>35</ele>
        <time>2019-07-14T12:19:56Z</time>
      </trkpt>
      <trkpt lat="47.78408" lon="-3.61074">
        <ele>35</ele>
        <time>2019-07-14T12:19:57Z</time>
      </trkpt>
      <trkpt lat="47.78403" lon="-3.61071">
        <ele>35</ele>
        <time>2019-07-14T12:19:58Z</time>
      </trkpt>
      <trkpt lat="47.78399" lon="-3.61067">
        <ele>35</ele>
        <time>2019-07-14T12:19:59Z</time>
      </trkpt>
      <trkpt lat="47.78394" lon="-3.61064">
        <ele>35</ele>
        <time>2019-07-14T12:20:00Z</time>
      </trkpt>
      <trkpt lat="47.78389" lon="-3.61061">
        <ele>36</ele>
        <time>2019-07-14T12:20:01Z</time>
      </trkpt>
      <trkpt lat="47.78383" lon="-3.61057">
        <ele>36</ele>
        <time>2019-07-14T12:20:02Z</time>
      </trkpt>
      <trkpt lat="47.78378" lon="-3.61054">
        <ele>36</ele>
        <time>2019-07-14T12:20:03Z</time>
      </trkpt>
      <trkpt lat="47.78372" lon="-3.61051">
        <ele>36</ele>
        <time>2019-07-14T12:20:04Z</time>
      </trkpt>
      <trkpt lat="47.78366" lon="-3.61048">
        <ele>36</ele>
        <time>2019-07-14T12:20:05Z</time>
      </trkpt>
      <trkpt lat="47.7836" lon="-3.61046">
        <ele>36</ele>
        <time>2019-07-14T12:20:06Z</time>
      </trkpt>
      <trkpt lat="47.78354" lon="-3.61042">
        <ele>36</ele>
        <time>2019-07-14T12:20:07Z</time>
      </trkpt>
      <trkpt lat="47.78349" lon="-3.61039">
        <ele>36</ele>
        <time>2019-07-14T12:20:08Z</time>
      </trkpt>
      <trkpt lat="47.78343" lon="-3.61036">
        <ele>35</ele>
        <time>2019-07-14T12:20:09Z</time>
      </trkpt>
      <trkpt lat="47.78337" lon="-3.61032">
        <ele>35</ele>
        <time>2019-07-14T12:20:10Z</time>
      </trkpt>
      <trkpt lat="47.78331" lon="-3.61029">
        <ele>35</ele>
        <time>2019-07-14T12:20:11Z</time>
      </trkpt>
      <trkpt lat="47.78326" lon="-3.61026">
        <ele>35</ele>
        <time>2019-07-14T12:20:12Z</time>
      </trkpt>
      <trkpt lat="47.78319" lon="-3.61023">
        <ele>35</ele>
        <time>2019-07-14T12:20:13Z</time>
      </trkpt>
      <trkpt lat="47.78313" lon="-3.61019">
        <ele>35</ele>
        <time>2019-07-14T12:20:14Z</time>
      </trkpt>
      <trkpt lat="47.78307" lon="-3.61016">
        <ele>35</ele>
        <time>2019-07-14T12:20:15Z</time>
      </trkpt>
      <trkpt lat="47.78301" lon="-3.61012">
        <ele>35</ele>
        <time>2019-07-14T12:20:16Z</time>
      </trkpt>
      <trkpt lat="47.78294" lon="-3.61009">
        <ele>34</ele>
        <time>2019-07-14T12:20:17Z</time>
      </trkpt>
      <trkpt lat="47.78288" lon="-3.61006">
        <ele>34</ele>
        <time>2019-07-14T12:20:18Z</time>
      </trkpt>
      <trkpt lat="47.78281" lon="-3.61004">
        <ele>34</ele>
        <time>2019-07-14T12:20:19Z</time>
      </trkpt>
      <trkpt lat="47.78276" lon="-3.61001">
        <ele>34</ele>
        <time>2019-07-14T12:20:20Z</time>
      </trkpt>
      <trkpt lat="47.7827" lon="-3.60998">
        <ele>34</ele>
        <time>2019-07-14T12:20:21Z</time>
      </trkpt>
      <trkpt lat="47.78264" lon="-3.60996">
        <ele>34</ele>
        <time>2019-07-14T12:20:22Z</time>
      </trkpt>
      <trkpt lat="47.78258" lon="-3.60994">
        <ele>34</ele>
        <time>2019-07-14T12:20:23Z</time>
      </trkpt>
      <trkpt lat="47.78252" lon="-3.60992">
        <ele>34</ele>
        <time>2019-07-14T12:20:24Z</time>
      </trkpt>
      <trkpt lat="47.78246" lon="-3.60989">
        <ele>34</ele>
        <time>2019-07-14T12:20:25Z</time>
      </trkpt>
      <trkpt lat="47.78241" lon="-3.60986">
        <ele>34</ele>
        <time>2019-07-14T12:20:26Z</time>
      </trkpt>
      <trkpt lat="47.78235" lon="-3.60983">
        <ele>34</ele>
        <time>2019-07-14T12:20:27Z</time>
      </trkpt>
      <trkpt lat="47.7823" lon="-3.60981">
        <ele>34</ele>
        <time>2019-07-14T12:20:28Z</time>
      </trkpt>
      <trkpt lat="47.78225" lon="-3.6098">
        <ele>34</ele>
        <time>2019-07-14T12:20:29Z</time>
      </trkpt>
      <trkpt lat="47.7822" lon="-3.60978">
        <ele>34</ele>
        <time>2019-07-14T12:20:30Z</time>
      </trkpt>
      <trkpt lat="47.78215" lon="-3.60976">
        <ele>34</ele>
        <time>2019-07-14T12:20:31Z</time>
      </trkpt>
      <trkpt lat="47.7821" lon="-3.60974">
        <ele>34</ele>
        <time>2019-07-14T12:20:32Z</time>
      </trkpt>
      <trkpt lat="47.78205" lon="-3.60972">
        <ele>34</ele>
        <time>2019-07-14T12:20:33Z</time>
      </trkpt>
      <trkpt lat="47.78199" lon="-3.6097">
        <ele>34</ele>
        <time>2019-07-14T12:20:34Z</time>
      </trkpt>
      <trkpt lat="47.78194" lon="-3.60967">
        <ele>34</ele>
        <time>2019-07-14T12:20:35Z</time>
      </trkpt>
      <trkpt lat="47.78188" lon="-3.60965">
        <ele>35</ele>
        <time>2019-07-14T12:20:36Z</time>
      </trkpt>
      <trkpt lat="47.78182" lon="-3.60962">
        <ele>35</ele>
        <time>2019-07-14T12:20:37Z</time>
      </trkpt>
      <trkpt lat="47.78175" lon="-3.60959">
        <ele>35</ele>
        <time>2019-07-14T12:20:38Z</time>
      </trkpt>
      <trkpt lat="47.78168" lon="-3.60956">
        <ele>35</ele>
        <time>2019-07-14T12:20:39Z</time>
      </trkpt>
      <trkpt lat="47.78161" lon="-3.60953">
        <ele>35</ele>
        <time>2019-07-14T12:20:40Z</time>
      </trkpt>
      <trkpt lat="47.78154" lon="-3.60949">
        <ele>34</ele>
        <time>2019-07-14T12:20:41Z</time>
      </trkpt>
      <trkpt lat="47.78147" lon="-3.60946">
        <ele>34</ele>
        <time>2019-07-14T12:20:42Z</time>
      </trkpt>
      <trkpt lat="47.78141" lon="-3.60943">
        <ele>34</ele>
        <time>2019-07-14T12:20:43Z</time>
      </trkpt>
      <trkpt lat="47.78135" lon="-3.6094">
        <ele>34</ele>
        <time>2019-07-14T12:20:44Z</time>
      </trkpt>
      <trkpt lat="47.78128" lon="-3.60937">
        <ele>34</ele>
        <time>2019-07-14T12:20:45Z</time>
      </trkpt>
      <trkpt lat="47.78122" lon="-3.60935">
        <ele>34</ele>
        <time>2019-07-14T12:20:46Z</time>
      </trkpt>
      <trkpt lat="47.78116" lon="-3.60933">
        <ele>34</ele>
        <time>2019-07-14T12:20:47Z</time>
      </trkpt>
      <trkpt lat="47.78109" lon="-3.60931">
        <ele>34</ele>
        <time>2019-07-14T12:20:48Z</time>
      </trkpt>
      <trkpt lat="47.78102" lon="-3.60929">
        <ele>34</ele>
        <time>2019-07-14T12:20:49Z</time>
      </trkpt>
      <trkpt lat="47.78095" lon="-3.60927">
        <ele>34</ele>
        <time>2019-07-14T12:20:50Z</time>
      </trkpt>
      <trkpt lat="47.78088" lon="-3.60925">
        <ele>34</ele>
        <time>2019-07-14T12:20:51Z</time>
      </trkpt>
      <trkpt lat="47.78082" lon="-3.60925">
        <ele>34</ele>
        <time>2019-07-14T12:20:52Z</time>
      </trkpt>
      <trkpt lat="47.78075" lon="-3.60925">
        <ele>34</ele>
        <time>2019-07-14T12:20:53Z</time>
      </trkpt>
      <trkpt lat="47.78068" lon="-3.60925">
        <ele>33</ele>
        <time>2019-07-14T12:20:54Z</time>
      </trkpt>
      <trkpt lat="47.78062" lon="-3.60925">
        <ele>33</ele>
        <time>2019-07-14T12:20:55Z</time>
      </trkpt>
      <trkpt lat="47.78059" lon="-3.60925">
        <ele>33</ele>
        <time>2019-07-14T12:20:56Z</time>
      </trkpt>
      <trkpt lat="47.78058" lon="-3.60925">
        <ele>33</ele>
        <time>2019-07-14T12:20:57Z</time>
      </trkpt>
      <trkpt lat="47.78057" lon="-3.60925">
        <ele>33</ele>
        <time>2019-07-14T12:20:58Z</time>
      </trkpt>
      <trkpt lat="47.78057" lon="-3.60925">
        <ele>33</ele>
        <time>2019-07-14T12:20:59Z</time>
      </trkpt>
      <trkpt lat="47.78057" lon="-3.60925">
        <ele>33</ele>
        <time>2019-07-14T12:21:00Z</time>
      </trkpt>
      <trkpt lat="47.78057" lon="-3.60925">
        <ele>33</ele>
        <time>2019-07-14T12:21:01Z</time>
      </trkpt>
      <trkpt lat="47.78057" lon="-3.60925">
        <ele>32</ele>
        <time>2019-07-14T12:21:02Z</time>
      </trkpt>
      <trkpt lat="47.78057" lon="-3.60925">
        <ele>32</ele>
        <time>2019-07-14T12:21:03Z</time>
      </trkpt>
      <trkpt lat="47.78057" lon="-3.60925">
        <ele>32</ele>
        <time>2019-07-14T12:21:04Z</time>
      </trkpt>
      <trkpt lat="47.78056" lon="-3.60925">
        <ele>32</ele>
        <time>2019-07-14T12:21:05Z</time>
      </trkpt>
      <trkpt lat="47.78056" lon="-3.60925">
        <ele>32</ele>
        <time>2019-07-14T12:21:06Z</time>
      </trkpt>
      <trkpt lat="47.78056" lon="-3.60925">
        <ele>32</ele>
        <time>2019-07-14T12:21:07Z</time>
      </trkpt>
      <trkpt lat="47.78055" lon="-3.60923">
        <ele>32</ele>
        <time>2019-07-14T12:21:08Z</time>
      </trkpt>
      <trkpt lat="47.78055" lon="-3.60921">
        <ele>32</ele>
        <time>2019-07-14T12:21:09Z</time>
      </trkpt>
      <trkpt lat="47.78055" lon="-3.60919">
        <ele>32</ele>
        <time>2019-07-14T12:21:10Z</time>
      </trkpt>
      <trkpt lat="47.78055" lon="-3.60917">
        <ele>32</ele>
        <time>2019-07-14T12:21:11Z</time>
      </trkpt>
      <trkpt lat="47.78055" lon="-3.60914">
        <ele>32</ele>
        <time>2019-07-14T12:21:12Z</time>
      </trkpt>
      <trkpt lat="47.78055" lon="-3.60911">
        <ele>31</ele>
        <time>2019-07-14T12:21:13Z</time>
      </trkpt>
      <trkpt lat="47.78055" lon="-3.60907">
        <ele>31</ele>
        <time>2019-07-14T12:21:14Z</time>
      </trkpt>
      <trkpt lat="47.78056" lon="-3.60903">
        <ele>31</ele>
        <time>2019-07-14T12:21:15Z</time>
      </trkpt>
      <trkpt lat="47.78056" lon="-3.60898">
        <ele>31</ele>
        <time>2019-07-14T12:21:16Z</time>
      </trkpt>
      <trkpt lat="47.78055" lon="-3.60894">
        <ele>31</ele>
        <time>2019-07-14T12:21:17Z</time>
      </trkpt>
      <trkpt lat="47.78055" lon="-3.60889">
        <ele>31</ele>
        <time>2019-07-14T12:21:18Z</time>
      </trkpt>
      <trkpt lat="47.78055" lon="-3.60884">
        <ele>31</ele>
        <time>2019-07-14T12:21:19Z</time>
      </trkpt>
      <trkpt lat="47.78054" lon="-3.60878">
        <ele>31</ele>
        <time>2019-07-14T12:21:20Z</time>
      </trkpt>
      <trkpt lat="47.78054" lon="-3.60871">
        <ele>31</ele>
        <time>2019-07-14T12:21:21Z</time>
      </trkpt>
      <trkpt lat="47.78054" lon="-3.60865">
        <ele>31</ele>
        <time>2019-07-14T12:21:22Z</time>
      </trkpt>
      <trkpt lat="47.78053" lon="-3.60859">
        <ele>31</ele>
        <time>2019-07-14T12:21:23Z</time>
      </trkpt>
      <trkpt lat="47.78053" lon="-3.60854">
        <ele>31</ele>
        <time>2019-07-14T12:21:24Z</time>
      </trkpt>
      <trkpt lat="47.78053" lon="-3.60848">
        <ele>31</ele>
        <time>2019-07-14T12:21:25Z</time>
      </trkpt>
      <trkpt lat="47.78052" lon="-3.60842">
        <ele>31</ele>
        <time>2019-07-14T12:21:26Z</time>
      </trkpt>
      <trkpt lat="47.78051" lon="-3.60837">
        <ele>31</ele>
        <time>2019-07-14T12:21:27Z</time>
      </trkpt>
      <trkpt lat="47.78049" lon="-3.60833">
        <ele>31</ele>
        <time>2019-07-14T12:21:28Z</time>
      </trkpt>
      <trkpt lat="47.78047" lon="-3.60828">
        <ele>31</ele>
        <time>2019-07-14T12:21:29Z</time>
      </trkpt>
      <trkpt lat="47.78044" lon="-3.60822">
        <ele>31</ele>
        <time>2019-07-14T12:21:30Z</time>
      </trkpt>
      <trkpt lat="47.78041" lon="-3.60817">
        <ele>31</ele>
        <time>2019-07-14T12:21:31Z</time>
      </trkpt>
      <trkpt lat="47.78037" lon="-3.60812">
        <ele>31</ele>
        <time>2019-07-14T12:21:32Z</time>
      </trkpt>
      <trkpt lat="47.78034" lon="-3.60806">
        <ele>31</ele>
        <time>2019-07-14T12:21:33Z</time>
      </trkpt>
      <trkpt lat="47.78031" lon="-3.60801">
        <ele>31</ele>
        <time>2019-07-14T12:21:34Z</time>
      </trkpt>
      <trkpt lat="47.78029" lon="-3.60795">
        <ele>31</ele>
        <time>2019-07-14T12:21:35Z</time>
      </trkpt>
      <trkpt lat="47.78027" lon="-3.6079">
        <ele>31</ele>
        <time>2019-07-14T12:21:36Z</time>
      </trkpt>
      <trkpt lat="47.78026" lon="-3.60787">
        <ele>30</ele>
        <time>2019-07-14T12:21:37Z</time>
      </trkpt>
      <trkpt lat="47.78026" lon="-3.60784">
        <ele>30</ele>
        <time>2019-07-14T12:21:38Z</time>
      </trkpt>
      <trkpt lat="47.78025" lon="-3.6078">
        <ele>30</ele>
        <time>2019-07-14T12:21:39Z</time>
      </trkpt>
      <trkpt lat="47.78025" lon="-3.60776">
        <ele>30</ele>
        <time>2019-07-14T12:21:40Z</time>
      </trkpt>
      <trkpt lat="47.78024" lon="-3.60773">
        <ele>30</ele>
        <time>2019-07-14T12:21:41Z</time>
      </trkpt>
      <trkpt lat="47.78022" lon="-3.60768">
        <ele>30</ele>
        <time>2019-07-14T12:21:42Z</time>
      </trkpt>
      <trkpt lat="47.78022" lon="-3.60764">
        <ele>30</ele>
        <time>2019-07-14T12:21:43Z</time>
      </trkpt>
      <trkpt lat="47.78021" lon="-3.6076">
        <ele>30</ele>
        <time>2019-07-14T12:21:44Z</time>
      </trkpt>
      <trkpt lat="47.7802" lon="-3.60756">
        <ele>29</ele>
        <time>2019-07-14T12:21:45Z</time>
      </trkpt>
      <trkpt lat="47.7802" lon="-3.60752">
        <ele>29</ele>
        <time>2019-07-14T12:21:46Z</time>
      </trkpt>
      <trkpt lat="47.78018" lon="-3.60748">
        <ele>29</ele>
        <time>2019-07-14T12:21:47Z</time>
      </trkpt>
      <trkpt lat="47.78017" lon="-3.60745">
        <ele>29</ele>
        <time>2019-07-14T12:21:48Z</time>
      </trkpt>
      <trkpt lat="47.78015" lon="-3.60743">
        <ele>28</ele>
        <time>2019-07-14T12:21:49Z</time>
      </trkpt>
      <trkpt lat="47.78013" lon="-3.60741">
        <ele>28</ele>
        <time>2019-07-14T12:21:50Z</time>
      </trkpt>
      <trkpt lat="47.78011" lon="-3.6074">
        <ele>28</ele>
        <time>2019-07-14T12:21:51Z</time>
      </trkpt>
      <trkpt lat="47.78008" lon="-3.60739">
        <ele>27</ele>
        <time>2019-07-14T12:21:52Z</time>
      </trkpt>
      <trkpt lat="47.78004" lon="-3.60738">
        <ele>27</ele>
        <time>2019-07-14T12:21:53Z</time>
      </trkpt>
      <trkpt lat="47.78" lon="-3.60738">
        <ele>27</ele>
        <time>2019-07-14T12:21:54Z</time>
      </trkpt>
      <trkpt lat="47.77996" lon="-3.6074">
        <ele>26</ele>
        <time>2019-07-14T12:21:55Z</time>
      </trkpt>
      <trkpt lat="47.77992" lon="-3.60741">
        <ele>26</ele>
        <time>2019-07-14T12:21:56Z</time>
      </trkpt>
      <trkpt lat="47.77988" lon="-3.60742">
        <ele>26</ele>
        <time>2019-07-14T12:21:57Z</time>
      </trkpt>
      <trkpt lat="47.77984" lon="-3.60743">
        <ele>25</ele>
        <time>2019-07-14T12:21:58Z</time>
      </trkpt>
      <trkpt lat="47.7798" lon="-3.60743">
        <ele>25</ele>
        <time>2019-07-14T12:21:59Z</time>
      </trkpt>
      <trkpt lat="47.77976" lon="-3.60743">
        <ele>25</ele>
        <time>2019-07-14T12:22:00Z</time>
      </trkpt>
      <trkpt lat="47.77972" lon="-3.60743">
        <ele>25</ele>
        <time>2019-07-14T12:22:01Z</time>
      </trkpt>
      <trkpt lat="47.77967" lon="-3.60743">
        <ele>25</ele>
        <time>2019-07-14T12:22:02Z</time>
      </trkpt>
      <trkpt lat="47.77963" lon="-3.60742">
        <ele>24</ele>
        <time>2019-07-14T12:22:03Z</time>
      </trkpt>
      <trkpt lat="47.77959" lon="-3.60741">
        <ele>24</ele>
        <time>2019-07-14T12:22:04Z</time>
      </trkpt>
      <trkpt lat="47.77954" lon="-3.60741">
        <ele>24</ele>
        <time>2019-07-14T12:22:05Z</time>
      </trkpt>
      <trkpt lat="47.77949" lon="-3.60741">
        <ele>23</ele>
        <time>2019-07-14T12:22:06Z</time>
      </trkpt>
      <trkpt lat="47.77944" lon="-3.60742">
        <ele>23</ele>
        <time>2019-07-14T12:22:07Z</time>
      </trkpt>
      <trkpt lat="47.7794" lon="-3.60742">
        <ele>22</ele>
        <time>2019-07-14T12:22:08Z</time>
      </trkpt>
      <trkpt lat="47.77935" lon="-3.60742">
        <ele>22</ele>
        <time>2019-07-14T12:22:09Z</time>
      </trkpt>
      <trkpt lat="47.77932" lon="-3.60742">
        <ele>22</ele>
        <time>2019-07-14T12:22:10Z</time>
      </trkpt>
      <trkpt lat="47.77928" lon="-3.60742">
        <ele>21</ele>
        <time>2019-07-14T12:22:11Z</time>
      </trkpt>
      <trkpt lat="47.77924" lon="-3.60741">
        <ele>21</ele>
        <time>2019-07-14T12:22:12Z</time>
      </trkpt>
      <trkpt lat="47.77921" lon="-3.60741">
        <ele>21</ele>
        <time>2019-07-14T12:22:13Z</time>
      </trkpt>
      <trkpt lat="47.77918" lon="-3.60742">
        <ele>20</ele>
        <time>2019-07-14T12:22:14Z</time>
      </trkpt>
      <trkpt lat="47.77915" lon="-3.60742">
        <ele>20</ele>
        <time>2019-07-14T12:22:15Z</time>
      </trkpt>
      <trkpt lat="47.77912" lon="-3.60743">
        <ele>20</ele>
        <time>2019-07-14T12:22:16Z</time>
      </trkpt>
      <trkpt lat="47.7791" lon="-3.60744">
        <ele>19</ele>
        <time>2019-07-14T12:22:17Z</time>
      </trkpt>
      <trkpt lat="47.77907" lon="-3.60746">
        <ele>19</ele>
        <time>2019-07-14T12:22:18Z</time>
      </trkpt>
      <trkpt lat="47.77906" lon="-3.60748">
        <ele>19</ele>
        <time>2019-07-14T12:22:19Z</time>
      </trkpt>
      <trkpt lat="47.77904" lon="-3.6075">
        <ele>19</ele>
        <time>2019-07-14T12:22:20Z</time>
      </trkpt>
      <trkpt lat="47.77904" lon="-3.6075">
        <ele>18</ele>
        <time>2019-07-14T12:22:21Z</time>
      </trkpt>
      <trkpt lat="47.77903" lon="-3.6075">
        <ele>18</ele>
        <time>2019-07-14T12:22:22Z</time>
      </trkpt>
      <trkpt lat="47.77903" lon="-3.6075">
        <ele>18</ele>
        <time>2019-07-14T12:22:23Z</time>
      </trkpt>
      <trkpt lat="47.77899" lon="-3.60744">
        <ele>17</ele>
        <time>2019-07-14T12:22:24Z</time>
      </trkpt>
      <trkpt lat="47.779" lon="-3.60741">
        <ele>17</ele>
        <time>2019-07-14T12:22:25Z</time>
      </trkpt>
      <trkpt lat="47.779" lon="-3.60738">
        <ele>17</ele>
        <time>2019-07-14T12:22:26Z</time>
      </trkpt>
      <trkpt lat="47.779" lon="-3.60736">
        <ele>16</ele>
        <time>2019-07-14T12:22:27Z</time>
      </trkpt>
      <trkpt lat="47.779" lon="-3.60733">
        <ele>16</ele>
        <time>2019-07-14T12:22:28Z</time>
      </trkpt>
      <trkpt lat="47.779" lon="-3.6073">
        <ele>16</ele>
        <time>2019-07-14T12:22:29Z</time>
      </trkpt>
      <trkpt lat="47.77901" lon="-3.60727">
        <ele>16</ele>
        <time>2019-07-14T12:22:30Z</time>
      </trkpt>
      <trkpt lat="47.77901" lon="-3.60724">
        <ele>16</ele>
        <time>2019-07-14T12:22:31Z</time>
      </trkpt>
      <trkpt lat="47.77901" lon="-3.60721">
        <ele>16</ele>
        <time>2019-07-14T12:22:32Z</time>
      </trkpt>
      <trkpt lat="47.77901" lon="-3.60718">
        <ele>16</ele>
        <time>2019-07-14T12:22:33Z</time>
      </trkpt>
      <trkpt lat="47.77902" lon="-3.60715">
        <ele>16</ele>
        <time>2019-07-14T12:22:34Z</time>
      </trkpt>
      <trkpt lat="47.77903" lon="-3.60711">
        <ele>16</ele>
        <time>2019-07-14T12:22:35Z</time>
      </trkpt>
      <trkpt lat="47.77903" lon="-3.60706">
        <ele>16</ele>
        <time>2019-07-14T12:22:36Z</time>
      </trkpt>
      <trkpt lat="47.77904" lon="-3.607">
        <ele>16</ele>
        <time>2019-07-14T12:22:37Z</time>
      </trkpt>
      <trkpt lat="47.77904" lon="-3.60692">
        <ele>16</ele>
        <time>2019-07-14T12:22:38Z</time>
      </trkpt>
      <trkpt lat="47.77904" lon="-3.60685">
        <ele>16</ele>
        <time>2019-07-14T12:22:39Z</time>
      </trkpt>
      <trkpt lat="47.77904" lon="-3.60677">
        <ele>16</ele>
        <time>2019-07-14T12:22:40Z</time>
      </trkpt>
      <trkpt lat="47.77904" lon="-3.60668">
        <ele>16</ele>
        <time>2019-07-14T12:22:41Z</time>
      </trkpt>
      <trkpt lat="47.77904" lon="-3.60659">
        <ele>16</ele>
        <time>2019-07-14T12:22:42Z</time>
      </trkpt>
      <trkpt lat="47.77905" lon="-3.60649">
        <ele>16</ele>
        <time>2019-07-14T12:22:43Z</time>
      </trkpt>
      <trkpt lat="47.77906" lon="-3.60642">
        <ele>16</ele>
        <time>2019-07-14T12:22:44Z</time>
      </trkpt>
      <trkpt lat="47.77906" lon="-3.60634">
        <ele>16</ele>
        <time>2019-07-14T12:22:45Z</time>
      </trkpt>
      <trkpt lat="47.77906" lon="-3.60626">
        <ele>16</ele>
        <time>2019-07-14T12:22:46Z</time>
      </trkpt>
      <trkpt lat="47.77907" lon="-3.60621">
        <ele>16</ele>
        <time>2019-07-14T12:22:47Z</time>
      </trkpt>
      <trkpt lat="47.77907" lon="-3.60616">
        <ele>16</ele>
        <time>2019-07-14T12:22:48Z</time>
      </trkpt>
      <trkpt lat="47.77906" lon="-3.60613">
        <ele>16</ele>
        <time>2019-07-14T12:22:49Z</time>
      </trkpt>
      <trkpt lat="47.77906" lon="-3.6061">
        <ele>16</ele>
        <time>2019-07-14T12:22:50Z</time>
      </trkpt>
      <trkpt lat="47.77906" lon="-3.60606">
        <ele>16</ele>
        <time>2019-07-14T12:22:51Z</time>
      </trkpt>
      <trkpt lat="47.77906" lon="-3.60602">
        <ele>16</ele>
        <time>2019-07-14T12:22:52Z</time>
      </trkpt>
      <trkpt lat="47.77905" lon="-3.60596">
        <ele>16</ele>
        <time>2019-07-14T12:22:53Z</time>
      </trkpt>
      <trkpt lat="47.77904" lon="-3.6059">
        <ele>16</ele>
        <time>2019-07-14T12:22:54Z</time>
      </trkpt>
      <trkpt lat="47.77903" lon="-3.60585">
        <ele>16</ele>
        <time>2019-07-14T12:22:55Z</time>
      </trkpt>
      <trkpt lat="47.77903" lon="-3.60579">
        <ele>16</ele>
        <time>2019-07-14T12:22:56Z</time>
      </trkpt>
      <trkpt lat="47.77902" lon="-3.60573">
        <ele>16</ele>
        <time>2019-07-14T12:22:57Z</time>
      </trkpt>
      <trkpt lat="47.779" lon="-3.60567">
        <ele>16</ele>
        <time>2019-07-14T12:22:58Z</time>
      </trkpt>
      <trkpt lat="47.77899" lon="-3.6056">
        <ele>16</ele>
        <time>2019-07-14T12:22:59Z</time>
      </trkpt>
      <trkpt lat="47.77897" lon="-3.60552">
        <ele>16</ele>
        <time>2019-07-14T12:23:00Z</time>
      </trkpt>
      <trkpt lat="47.77894" lon="-3.60545">
        <ele>17</ele>
        <time>2019-07-14T12:23:01Z</time>
      </trkpt>
      <trkpt lat="47.77892" lon="-3.60539">
        <ele>17</ele>
        <time>2019-07-14T12:23:02Z</time>
      </trkpt>
      <trkpt lat="47.7789" lon="-3.60533">
        <ele>17</ele>
        <time>2019-07-14T12:23:03Z</time>
      </trkpt>
      <trkpt lat="47.77888" lon="-3.60528">
        <ele>17</ele>
        <time>2019-07-14T12:23:04Z</time>
      </trkpt>
      <trkpt lat="47.77885" lon="-3.60524">
        <ele>17</ele>
        <time>2019-07-14T12:23:05Z</time>
      </trkpt>
      <trkpt lat="47.77882" lon="-3.6052">
        <ele>17</ele>
        <time>2019-07-14T12:23:06Z</time>
      </trkpt>
      <trkpt lat="47.77877" lon="-3.60518">
        <ele>17</ele>
        <time>2019-07-14T12:23:07Z</time>
      </trkpt>
      <trkpt lat="47.77873" lon="-3.60517">
        <ele>17</ele>
        <time>2019-07-14T12:23:08Z</time>
      </trkpt>
      <trkpt lat="47.7787" lon="-3.60516">
        <ele>17</ele>
        <time>2019-07-14T12:23:09Z</time>
      </trkpt>
      <trkpt lat="47.77867" lon="-3.60515">
        <ele>17</ele>
        <time>2019-07-14T12:23:10Z</time>
      </trkpt>
      <trkpt lat="47.77863" lon="-3.60514">
        <ele>16</ele>
        <time>2019-07-14T12:23:11Z</time>
      </trkpt>
      <trkpt lat="47.7786" lon="-3.60513">
        <ele>16</ele>
        <time>2019-07-14T12:23:12Z</time>
      </trkpt>
      <trkpt lat="47.77858" lon="-3.60511">
        <ele>16</ele>
        <time>2019-07-14T12:23:13Z</time>
      </trkpt>
      <trkpt lat="47.77854" lon="-3.6051">
        <ele>16</ele>
        <time>2019-07-14T12:23:14Z</time>
      </trkpt>
      <trkpt lat="47.77852" lon="-3.60508">
        <ele>16</ele>
        <time>2019-07-14T12:23:15Z</time>
      </trkpt>
      <trkpt lat="47.77851" lon="-3.60506">
        <ele>16</ele>
        <time>2019-07-14T12:23:16Z</time>
      </trkpt>
      <trkpt lat="47.77849" lon="-3.60505">
        <ele>15</ele>
        <time>2019-07-14T12:23:17Z</time>
      </trkpt>
      <trkpt lat="47.77846" lon="-3.60503">
        <ele>15</ele>
        <time>2019-07-14T12:23:18Z</time>
      </trkpt>
      <trkpt lat="47.77843" lon="-3.60503">
        <ele>15</ele>
        <time>2019-07-14T12:23:19Z</time>
      </trkpt>
      <trkpt lat="47.77839" lon="-3.60502">
        <ele>15</ele>
        <time>2019-07-14T12:23:20Z</time>
      </trkpt>
      <trkpt lat="47.77835" lon="-3.60501">
        <ele>14</ele>
        <time>2019-07-14T12:23:21Z</time>
      </trkpt>
      <trkpt lat="47.7783" lon="-3.605">
        <ele>14</ele>
        <time>2019-07-14T12:23:22Z</time>
      </trkpt>
      <trkpt lat="47.77826" lon="-3.60497">
        <ele>14</ele>
        <time>2019-07-14T12:23:23Z</time>
      </trkpt>
      <trkpt lat="47.77821" lon="-3.60494">
        <ele>13</ele>
        <time>2019-07-14T12:23:24Z</time>
      </trkpt>
      <trkpt lat="47.77815" lon="-3.60491">
        <ele>13</ele>
        <time>2019-07-14T12:23:25Z</time>
      </trkpt>
      <trkpt lat="47.7781" lon="-3.60488">
        <ele>13</ele>
        <time>2019-07-14T12:23:26Z</time>
      </trkpt>
      <trkpt lat="47.77805" lon="-3.60484">
        <ele>12</ele>
        <time>2019-07-14T12:23:27Z</time>
      </trkpt>
      <trkpt lat="47.77799" lon="-3.60479">
        <ele>12</ele>
        <time>2019-07-14T12:23:28Z</time>
      </trkpt>
      <trkpt lat="47.77793" lon="-3.60474">
        <ele>12</ele>
        <time>2019-07-14T12:23:29Z</time>
      </trkpt>
      <trkpt lat="47.77786" lon="-3.60469">
        <ele>12</ele>
        <time>2019-07-14T12:23:30Z</time>
      </trkpt>
      <trkpt lat="47.77779" lon="-3.60465">
        <ele>11</ele>
        <time>2019-07-14T12:23:31Z</time>
      </trkpt>
      <trkpt lat="47.77772" lon="-3.6046">
        <ele>11</ele>
        <time>2019-07-14T12:23:32Z</time>
      </trkpt>
      <trkpt lat="47.77765" lon="-3.60455">
        <ele>11</ele>
        <time>2019-07-14T12:23:33Z</time>
      </trkpt>
      <trkpt lat="47.77758" lon="-3.6045">
        <ele>10</ele>
        <time>2019-07-14T12:23:34Z</time>
      </trkpt>
      <trkpt lat="47.7775" lon="-3.60445">
        <ele>10</ele>
        <time>2019-07-14T12:23:35Z</time>
      </trkpt>
      <trkpt lat="47.77743" lon="-3.60441">
        <ele>9</ele>
        <time>2019-07-14T12:23:36Z</time>
      </trkpt>
      <trkpt lat="47.77736" lon="-3.60436">
        <ele>8</ele>
        <time>2019-07-14T12:23:37Z</time>
      </trkpt>
      <trkpt lat="47.77729" lon="-3.60432">
        <ele>8</ele>
        <time>2019-07-14T12:23:38Z</time>
      </trkpt>
      <trkpt lat="47.77722" lon="-3.60427">
        <ele>7</ele>
        <time>2019-07-14T12:23:39Z</time>
      </trkpt>
      <trkpt lat="47.77715" lon="-3.60423">
        <ele>7</ele>
        <time>2019-07-14T12:23:40Z</time>
      </trkpt>
      <trkpt lat="47.77709" lon="-3.60418">
        <ele>6</ele>
        <time>2019-07-14T12:23:41Z</time>
      </trkpt>
      <trkpt lat="47.77703" lon="-3.60414">
        <ele>6</ele>
        <time>2019-07-14T12:23:42Z</time>
      </trkpt>
      <trkpt lat="47.77697" lon="-3.6041">
        <ele>5</ele>
        <time>2019-07-14T12:23:43Z</time>
      </trkpt>
      <trkpt lat="47.77691" lon="-3.60406">
        <ele>5</ele>
        <time>2019-07-14T12:23:44Z</time>
      </trkpt>
      <trkpt lat="47.77686" lon="-3.60403">
        <ele>5</ele>
        <time>2019-07-14T12:23:45Z</time>
      </trkpt>
      <trkpt lat="47.77681" lon="-3.60399">
        <ele>4</ele>
        <time>2019-07-14T12:23:46Z</time>
      </trkpt>
      <trkpt lat="47.77676" lon="-3.60396">
        <ele>4</ele>
        <time>2019-07-14T12:23:47Z</time>
      </trkpt>
      <trkpt lat="47.77672" lon="-3.60393">
        <ele>4</ele>
        <time>2019-07-14T12:23:48Z</time>
      </trkpt>
      <trkpt lat="47.77668" lon="-3.6039">
        <ele>4</ele>
        <time>2019-07-14T12:23:49Z</time>
      </trkpt>
      <trkpt lat="47.77664" lon="-3.60386">
        <ele>3</ele>
        <time>2019-07-14T12:23:50Z</time>
      </trkpt>
      <trkpt lat="47.77661" lon="-3.60383">
        <ele>3</ele>
        <time>2019-07-14T12:23:51Z</time>
      </trkpt>
      <trkpt lat="47.77658" lon="-3.60378">
        <ele>3</ele>
        <time>2019-07-14T12:23:52Z</time>
      </trkpt>
      <trkpt lat="47.77656" lon="-3.60374">
        <ele>3</ele>
        <time>2019-07-14T12:23:53Z</time>
      </trkpt>
      <trkpt lat="47.77654" lon="-3.60369">
        <ele>3</ele>
        <time>2019-07-14T12:23:54Z</time>
      </trkpt>
      <trkpt lat="47.77652" lon="-3.60364">
        <ele>3</ele>
        <time>2019-07-14T12:23:55Z</time>
      </trkpt>
      <trkpt lat="47.77651" lon="-3.60358">
        <ele>3</ele>
        <time>2019-07-14T12:23:56Z</time>
      </trkpt>
      <trkpt lat="47.77651" lon="-3.60353">
        <ele>3</ele>
        <time>2019-07-14T12:23:57Z</time>
      </trkpt>
      <trkpt lat="47.77652" lon="-3.60346">
        <ele>3</ele>
        <time>2019-07-14T12:23:58Z</time>
      </trkpt>
      <trkpt lat="47.77653" lon="-3.6034">
        <ele>3</ele>
        <time>2019-07-14T12:23:59Z</time>
      </trkpt>
      <trkpt lat="47.77654" lon="-3.60333">
        <ele>3</ele>
        <time>2019-07-14T12:24:00Z</time>
      </trkpt>
      <trkpt lat="47.77655" lon="-3.60325">
        <ele>3</ele>
        <time>2019-07-14T12:24:01Z</time>
      </trkpt>
      <trkpt lat="47.77656" lon="-3.60317">
        <ele>3</ele>
        <time>2019-07-14T12:24:02Z</time>
      </trkpt>
      <trkpt lat="47.77656" lon="-3.60309">
        <ele>3</ele>
        <time>2019-07-14T12:24:03Z</time>
      </trkpt>
      <trkpt lat="47.77656" lon="-3.603">
        <ele>3</ele>
        <time>2019-07-14T12:24:04Z</time>
      </trkpt>
      <trkpt lat="47.77655" lon="-3.60291">
        <ele>3</ele>
        <time>2019-07-14T12:24:05Z</time>
      </trkpt>
      <trkpt lat="47.77655" lon="-3.60283">
        <ele>3</ele>
        <time>2019-07-14T12:24:06Z</time>
      </trkpt>
      <trkpt lat="47.77655" lon="-3.60274">
        <ele>3</ele>
        <time>2019-07-14T12:24:07Z</time>
      </trkpt>
      <trkpt lat="47.77655" lon="-3.60265">
        <ele>3</ele>
        <time>2019-07-14T12:24:08Z</time>
      </trkpt>
      <trkpt lat="47.77654" lon="-3.60255">
        <ele>3</ele>
        <time>2019-07-14T12:24:09Z</time>
      </trkpt>
      <trkpt lat="47.77653" lon="-3.60247">
        <ele>3</ele>
        <time>2019-07-14T12:24:10Z</time>
      </trkpt>
      <trkpt lat="47.77653" lon="-3.60238">
        <ele>3</ele>
        <time>2019-07-14T12:24:11Z</time>
      </trkpt>
      <trkpt lat="47.77652" lon="-3.60229">
        <ele>3</ele>
        <time>2019-07-14T12:24:12Z</time>
      </trkpt>
      <trkpt lat="47.77652" lon="-3.6022">
        <ele>2</ele>
        <time>2019-07-14T12:24:13Z</time>
      </trkpt>
      <trkpt lat="47.77654" lon="-3.60212">
        <ele>2</ele>
        <time>2019-07-14T12:24:14Z</time>
      </trkpt>
      <trkpt lat="47.77656" lon="-3.60203">
        <ele>2</ele>
        <time>2019-07-14T12:24:15Z</time>
      </trkpt>
      <trkpt lat="47.77658" lon="-3.60195">
        <ele>2</ele>
        <time>2019-07-14T12:24:16Z</time>
      </trkpt>
      <trkpt lat="47.77661" lon="-3.60187">
        <ele>2</ele>
        <time>2019-07-14T12:24:17Z</time>
      </trkpt>
      <trkpt lat="47.77664" lon="-3.6018">
        <ele>2</ele>
        <time>2019-07-14T12:24:18Z</time>
      </trkpt>
      <trkpt lat="47.77666" lon="-3.60174">
        <ele>2</ele>
        <time>2019-07-14T12:24:19Z</time>
      </trkpt>
      <trkpt lat="47.77669" lon="-3.60169">
        <ele>3</ele>
        <time>2019-07-14T12:24:20Z</time>
      </trkpt>
      <trkpt lat="47.77671" lon="-3.60163">
        <ele>3</ele>
        <time>2019-07-14T12:24:21Z</time>
      </trkpt>
      <trkpt lat="47.77673" lon="-3.60157">
        <ele>3</ele>
        <time>2019-07-14T12:24:22Z</time>
      </trkpt>
      <trkpt lat="47.77675" lon="-3.60151">
        <ele>3</ele>
        <time>2019-07-14T12:24:23Z</time>
      </trkpt>
      <trkpt lat="47.77677" lon="-3.60146">
        <ele>3</ele>
        <time>2019-07-14T12:24:24Z</time>
      </trkpt>
      <trkpt lat="47.77678" lon="-3.6014">
        <ele>3</ele>
        <time>2019-07-14T12:24:25Z</time>
      </trkpt>
      <trkpt lat="47.7768" lon="-3.60134">
        <ele>4</ele>
        <time>2019-07-14T12:24:26Z</time>
      </trkpt>
      <trkpt lat="47.77681" lon="-3.60128">
        <ele>4</ele>
        <time>2019-07-14T12:24:27Z</time>
      </trkpt>
      <trkpt lat="47.77682" lon="-3.60123">
        <ele>4</ele>
        <time>2019-07-14T12:24:28Z</time>
      </trkpt>
      <trkpt lat="47.77683" lon="-3.60116">
        <ele>4</ele>
        <time>2019-07-14T12:24:29Z</time>
      </trkpt>
      <trkpt lat="47.77684" lon="-3.6011">
        <ele>5</ele>
        <time>2019-07-14T12:24:30Z</time>
      </trkpt>
      <trkpt lat="47.77685" lon="-3.60104">
        <ele>5</ele>
        <time>2019-07-14T12:24:31Z</time>
      </trkpt>
      <trkpt lat="47.77685" lon="-3.60097">
        <ele>6</ele>
        <time>2019-07-14T12:24:32Z</time>
      </trkpt>
      <trkpt lat="47.77686" lon="-3.6009">
        <ele>6</ele>
        <time>2019-07-14T12:24:33Z</time>
      </trkpt>
      <trkpt lat="47.77686" lon="-3.60084">
        <ele>6</ele>
        <time>2019-07-14T12:24:34Z</time>
      </trkpt>
      <trkpt lat="47.77686" lon="-3.60077">
        <ele>6</ele>
        <time>2019-07-14T12:24:35Z</time>
      </trkpt>
      <trkpt lat="47.77687" lon="-3.6007">
        <ele>7</ele>
        <time>2019-07-14T12:24:36Z</time>
      </trkpt>
      <trkpt lat="47.77687" lon="-3.60064">
        <ele>7</ele>
        <time>2019-07-14T12:24:37Z</time>
      </trkpt>
      <trkpt lat="47.77686" lon="-3.60057">
        <ele>7</ele>
        <time>2019-07-14T12:24:38Z</time>
      </trkpt>
      <trkpt lat="47.77686" lon="-3.60051">
        <ele>7</ele>
        <time>2019-07-14T12:24:39Z</time>
      </trkpt>
      <trkpt lat="47.77685" lon="-3.60044">
        <ele>8</ele>
        <time>2019-07-14T12:24:40Z</time>
      </trkpt>
      <trkpt lat="47.77684" lon="-3.60038">
        <ele>8</ele>
        <time>2019-07-14T12:24:41Z</time>
      </trkpt>
      <trkpt lat="47.77684" lon="-3.60031">
        <ele>8</ele>
        <time>2019-07-14T12:24:42Z</time>
      </trkpt>
      <trkpt lat="47.77684" lon="-3.60025">
        <ele>9</ele>
        <time>2019-07-14T12:24:43Z</time>
      </trkpt>
      <trkpt lat="47.77684" lon="-3.60018">
        <ele>9</ele>
        <time>2019-07-14T12:24:44Z</time>
      </trkpt>
      <trkpt lat="47.77684" lon="-3.60012">
        <ele>9</ele>
        <time>2019-07-14T12:24:45Z</time>
      </trkpt>
      <trkpt lat="47.77684" lon="-3.60005">
        <ele>10</ele>
        <time>2019-07-14T12:24:46Z</time>
      </trkpt>
      <trkpt lat="47.77684" lon="-3.59999">
        <ele>10</ele>
        <time>2019-07-14T12:24:47Z</time>
      </trkpt>
      <trkpt lat="47.77684" lon="-3.59993">
        <ele>10</ele>
        <time>2019-07-14T12:24:48Z</time>
      </trkpt>
      <trkpt lat="47.77683" lon="-3.59987">
        <ele>10</ele>
        <time>2019-07-14T12:24:49Z</time>
      </trkpt>
      <trkpt lat="47.77683" lon="-3.59982">
        <ele>11</ele>
        <time>2019-07-14T12:24:50Z</time>
      </trkpt>
      <trkpt lat="47.77683" lon="-3.59977">
        <ele>11</ele>
        <time>2019-07-14T12:24:51Z</time>
      </trkpt>
      <trkpt lat="47.77683" lon="-3.59973">
        <ele>11</ele>
        <time>2019-07-14T12:24:52Z</time>
      </trkpt>
      <trkpt lat="47.77683" lon="-3.59969">
        <ele>11</ele>
        <time>2019-07-14T12:24:53Z</time>
      </trkpt>
      <trkpt lat="47.77683" lon="-3.59964">
        <ele>11</ele>
        <time>2019-07-14T12:24:54Z</time>
      </trkpt>
      <trkpt lat="47.77683" lon="-3.5996">
        <ele>12</ele>
        <time>2019-07-14T12:24:55Z</time>
      </trkpt>
      <trkpt lat="47.77683" lon="-3.59955">
        <ele>12</ele>
        <time>2019-07-14T12:24:56Z</time>
      </trkpt>
      <trkpt lat="47.77683" lon="-3.59949">
        <ele>12</ele>
        <time>2019-07-14T12:24:57Z</time>
      </trkpt>
      <trkpt lat="47.77683" lon="-3.59943">
        <ele>12</ele>
        <time>2019-07-14T12:24:58Z</time>
      </trkpt>
      <trkpt lat="47.77683" lon="-3.59937">
        <ele>12</ele>
        <time>2019-07-14T12:24:59Z</time>
      </trkpt>
      <trkpt lat="47.77683" lon="-3.59931">
        <ele>12</ele>
        <time>2019-07-14T12:25:00Z</time>
      </trkpt>
      <trkpt lat="47.77683" lon="-3.59924">
        <ele>12</ele>
        <time>2019-07-14T12:25:01Z</time>
      </trkpt>
      <trkpt lat="47.77683" lon="-3.59918">
        <ele>12</ele>
        <time>2019-07-14T12:25:02Z</time>
      </trkpt>
      <trkpt lat="47.77683" lon="-3.59911">
        <ele>12</ele>
        <time>2019-07-14T12:25:03Z</time>
      </trkpt>
      <trkpt lat="47.77683" lon="-3.59905">
        <ele>12</ele>
        <time>2019-07-14T12:25:04Z</time>
      </trkpt>
      <trkpt lat="47.77683" lon="-3.59899">
        <ele>12</ele>
        <time>2019-07-14T12:25:05Z</time>
      </trkpt>
      <trkpt lat="47.77683" lon="-3.59893">
        <ele>12</ele>
        <time>2019-07-14T12:25:06Z</time>
      </trkpt>
      <trkpt lat="47.77683" lon="-3.59887">
        <ele>12</ele>
        <time>2019-07-14T12:25:07Z</time>
      </trkpt>
      <trkpt lat="47.77684" lon="-3.59881">
        <ele>12</ele>
        <time>2019-07-14T12:25:08Z</time>
      </trkpt>
      <trkpt lat="47.77684" lon="-3.59876">
        <ele>12</ele>
        <time>2019-07-14T12:25:09Z</time>
      </trkpt>
      <trkpt lat="47.77684" lon="-3.59869">
        <ele>12</ele>
        <time>2019-07-14T12:25:10Z</time>
      </trkpt>
      <trkpt lat="47.77684" lon="-3.59863">
        <ele>12</ele>
        <time>2019-07-14T12:25:11Z</time>
      </trkpt>
      <trkpt lat="47.77685" lon="-3.59857">
        <ele>12</ele>
        <time>2019-07-14T12:25:12Z</time>
      </trkpt>
      <trkpt lat="47.77685" lon="-3.5985">
        <ele>12</ele>
        <time>2019-07-14T12:25:13Z</time>
      </trkpt>
      <trkpt lat="47.77685" lon="-3.59844">
        <ele>13</ele>
        <time>2019-07-14T12:25:14Z</time>
      </trkpt>
      <trkpt lat="47.77685" lon="-3.59837">
        <ele>13</ele>
        <time>2019-07-14T12:25:15Z</time>
      </trkpt>
      <trkpt lat="47.77686" lon="-3.59831">
        <ele>13</ele>
        <time>2019-07-14T12:25:16Z</time>
      </trkpt>
      <trkpt lat="47.77686" lon="-3.59825">
        <ele>13</ele>
        <time>2019-07-14T12:25:17Z</time>
      </trkpt>
      <trkpt lat="47.77686" lon="-3.59818">
        <ele>13</ele>
        <time>2019-07-14T12:25:18Z</time>
      </trkpt>
      <trkpt lat="47.77686" lon="-3.59812">
        <ele>13</ele>
        <time>2019-07-14T12:25:19Z</time>
      </trkpt>
      <trkpt lat="47.77686" lon="-3.59806">
        <ele>13</ele>
        <time>2019-07-14T12:25:20Z</time>
      </trkpt>
      <trkpt lat="47.77686" lon="-3.59799">
        <ele>13</ele>
        <time>2019-07-14T12:25:21Z</time>
      </trkpt>
      <trkpt lat="47.77686" lon="-3.59793">
        <ele>13</ele>
        <time>2019-07-14T12:25:22Z</time>
      </trkpt>
      <trkpt lat="47.77686" lon="-3.59786">
        <ele>13</ele>
        <time>2019-07-14T12:25:23Z</time>
      </trkpt>
      <trkpt lat="47.77687" lon="-3.5978">
        <ele>13</ele>
        <time>2019-07-14T12:25:24Z</time>
      </trkpt>
      <trkpt lat="47.77687" lon="-3.59773">
        <ele>13</ele>
        <time>2019-07-14T12:25:25Z</time>
      </trkpt>
      <trkpt lat="47.77687" lon="-3.59767">
        <ele>13</ele>
        <time>2019-07-14T12:25:26Z</time>
      </trkpt>
      <trkpt lat="47.77687" lon="-3.5976">
        <ele>14</ele>
        <time>2019-07-14T12:25:27Z</time>
      </trkpt>
      <trkpt lat="47.77687" lon="-3.59753">
        <ele>14</ele>
        <time>2019-07-14T12:25:28Z</time>
      </trkpt>
      <trkpt lat="47.77687" lon="-3.59747">
        <ele>14</ele>
        <time>2019-07-14T12:25:29Z</time>
      </trkpt>
      <trkpt lat="47.77687" lon="-3.5974">
        <ele>14</ele>
        <time>2019-07-14T12:25:30Z</time>
      </trkpt>
      <trkpt lat="47.77687" lon="-3.59733">
        <ele>14</ele>
        <time>2019-07-14T12:25:31Z</time>
      </trkpt>
      <trkpt lat="47.77687" lon="-3.59727">
        <ele>14</ele>
        <time>2019-07-14T12:25:32Z</time>
      </trkpt>
      <trkpt lat="47.77688" lon="-3.5972">
        <ele>14</ele>
        <time>2019-07-14T12:25:33Z</time>
      </trkpt>
      <trkpt lat="47.77688" lon="-3.59714">
        <ele>14</ele>
        <time>2019-07-14T12:25:34Z</time>
      </trkpt>
      <trkpt lat="47.77688" lon="-3.59707">
        <ele>14</ele>
        <time>2019-07-14T12:25:35Z</time>
      </trkpt>
      <trkpt lat="47.77688" lon="-3.597">
        <ele>14</ele>
        <time>2019-07-14T12:25:36Z</time>
      </trkpt>
      <trkpt lat="47.77689" lon="-3.59693">
        <ele>14</ele>
        <time>2019-07-14T12:25:37Z</time>
      </trkpt>
      <trkpt lat="47.77689" lon="-3.59686">
        <ele>14</ele>
        <time>2019-07-14T12:25:38Z</time>
      </trkpt>
      <trkpt lat="47.77689" lon="-3.59679">
        <ele>14</ele>
        <time>2019-07-14T12:25:39Z</time>
      </trkpt>
      <trkpt lat="47.77689" lon="-3.59672">
        <ele>14</ele>
        <time>2019-07-14T12:25:40Z</time>
      </trkpt>
      <trkpt lat="47.77689" lon="-3.59665">
        <ele>14</ele>
        <time>2019-07-14T12:25:41Z</time>
      </trkpt>
      <trkpt lat="47.77689" lon="-3.59657">
        <ele>14</ele>
        <time>2019-07-14T12:25:42Z</time>
      </trkpt>
      <trkpt lat="47.77689" lon="-3.5965">
        <ele>15</ele>
        <time>2019-07-14T12:25:43Z</time>
      </trkpt>
      <trkpt lat="47.77689" lon="-3.59643">
        <ele>15</ele>
        <time>2019-07-14T12:25:44Z</time>
      </trkpt>
      <trkpt lat="47.77688" lon="-3.59635">
        <ele>15</ele>
        <time>2019-07-14T12:25:45Z</time>
      </trkpt>
      <trkpt lat="47.77688" lon="-3.59628">
        <ele>15</ele>
        <time>2019-07-14T12:25:46Z</time>
      </trkpt>
      <trkpt lat="47.77689" lon="-3.5962">
        <ele>15</ele>
        <time>2019-07-14T12:25:47Z</time>
      </trkpt>
      <trkpt lat="47.77688" lon="-3.59612">
        <ele>15</ele>
        <time>2019-07-14T12:25:48Z</time>
      </trkpt>
      <trkpt lat="47.77688" lon="-3.59605">
        <ele>15</ele>
        <time>2019-07-14T12:25:49Z</time>
      </trkpt>
      <trkpt lat="47.77688" lon="-3.59597">
        <ele>15</ele>
        <time>2019-07-14T12:25:50Z</time>
      </trkpt>
      <trkpt lat="47.77688" lon="-3.59589">
        <ele>15</ele>
        <time>2019-07-14T12:25:51Z</time>
      </trkpt>
      <trkpt lat="47.77688" lon="-3.59581">
        <ele>15</ele>
        <time>2019-07-14T12:25:52Z</time>
      </trkpt>
      <trkpt lat="47.77688" lon="-3.59573">
        <ele>15</ele>
        <time>2019-07-14T12:25:53Z</time>
      </trkpt>
      <trkpt lat="47.77688" lon="-3.59565">
        <ele>15</ele>
        <time>2019-07-14T12:25:54Z</time>
      </trkpt>
      <trkpt lat="47.77688" lon="-3.59558">
        <ele>15</ele>
        <time>2019-07-14T12:25:55Z</time>
      </trkpt>
      <trkpt lat="47.77688" lon="-3.5955">
        <ele>15</ele>
        <time>2019-07-14T12:25:56Z</time>
      </trkpt>
      <trkpt lat="47.77687" lon="-3.59542">
        <ele>15</ele>
        <time>2019-07-14T12:25:57Z</time>
      </trkpt>
      <trkpt lat="47.77687" lon="-3.59534">
        <ele>15</ele>
        <time>2019-07-14T12:25:58Z</time>
      </trkpt>
      <trkpt lat="47.77687" lon="-3.59526">
        <ele>15</ele>
        <time>2019-07-14T12:25:59Z</time>
      </trkpt>
      <trkpt lat="47.77687" lon="-3.59518">
        <ele>15</ele>
        <time>2019-07-14T12:26:00Z</time>
      </trkpt>
      <trkpt lat="47.77687" lon="-3.5951">
        <ele>15</ele>
        <time>2019-07-14T12:26:01Z</time>
      </trkpt>
      <trkpt lat="47.77687" lon="-3.59502">
        <ele>15</ele>
        <time>2019-07-14T12:26:02Z</time>
      </trkpt>
      <trkpt lat="47.77687" lon="-3.59494">
        <ele>15</ele>
        <time>2019-07-14T12:26:03Z</time>
      </trkpt>
      <trkpt lat="47.77687" lon="-3.59486">
        <ele>15</ele>
        <time>2019-07-14T12:26:04Z</time>
      </trkpt>
      <trkpt lat="47.77687" lon="-3.59479">
        <ele>16</ele>
        <time>2019-07-14T12:26:05Z</time>
      </trkpt>
      <trkpt lat="47.77687" lon="-3.59472">
        <ele>16</ele>
        <time>2019-07-14T12:26:06Z</time>
      </trkpt>
      <trkpt lat="47.77688" lon="-3.59465">
        <ele>16</ele>
        <time>2019-07-14T12:26:07Z</time>
      </trkpt>
      <trkpt lat="47.77688" lon="-3.59458">
        <ele>16</ele>
        <time>2019-07-14T12:26:08Z</time>
      </trkpt>
      <trkpt lat="47.7769" lon="-3.59451">
        <ele>16</ele>
        <time>2019-07-14T12:26:09Z</time>
      </trkpt>
      <trkpt lat="47.77691" lon="-3.59444">
        <ele>16</ele>
        <time>2019-07-14T12:26:10Z</time>
      </trkpt>
      <trkpt lat="47.77693" lon="-3.59437">
        <ele>16</ele>
        <time>2019-07-14T12:26:11Z</time>
      </trkpt>
      <trkpt lat="47.77696" lon="-3.59431">
        <ele>16</ele>
        <time>2019-07-14T12:26:12Z</time>
      </trkpt>
      <trkpt lat="47.77699" lon="-3.59425">
        <ele>16</ele>
        <time>2019-07-14T12:26:13Z</time>
      </trkpt>
      <trkpt lat="47.77702" lon="-3.59419">
        <ele>16</ele>
        <time>2019-07-14T12:26:14Z</time>
      </trkpt>
      <trkpt lat="47.77705" lon="-3.59414">
        <ele>16</ele>
        <time>2019-07-14T12:26:15Z</time>
      </trkpt>
      <trkpt lat="47.77709" lon="-3.59408">
        <ele>16</ele>
        <time>2019-07-14T12:26:16Z</time>
      </trkpt>
      <trkpt lat="47.77713" lon="-3.59404">
        <ele>17</ele>
        <time>2019-07-14T12:26:17Z</time>
      </trkpt>
      <trkpt lat="47.77717" lon="-3.59401">
        <ele>17</ele>
        <time>2019-07-14T12:26:18Z</time>
      </trkpt>
      <trkpt lat="47.77721" lon="-3.59398">
        <ele>17</ele>
        <time>2019-07-14T12:26:19Z</time>
      </trkpt>
      <trkpt lat="47.77726" lon="-3.59397">
        <ele>17</ele>
        <time>2019-07-14T12:26:20Z</time>
      </trkpt>
      <trkpt lat="47.7773" lon="-3.59396">
        <ele>17</ele>
        <time>2019-07-14T12:26:21Z</time>
      </trkpt>
      <trkpt lat="47.77735" lon="-3.59395">
        <ele>17</ele>
        <time>2019-07-14T12:26:22Z</time>
      </trkpt>
      <trkpt lat="47.7774" lon="-3.59394">
        <ele>17</ele>
        <time>2019-07-14T12:26:23Z</time>
      </trkpt>
      <trkpt lat="47.77745" lon="-3.59392">
        <ele>18</ele>
        <time>2019-07-14T12:26:24Z</time>
      </trkpt>
      <trkpt lat="47.7775" lon="-3.59391">
        <ele>18</ele>
        <time>2019-07-14T12:26:25Z</time>
      </trkpt>
      <trkpt lat="47.77754" lon="-3.5939">
        <ele>18</ele>
        <time>2019-07-14T12:26:26Z</time>
      </trkpt>
      <trkpt lat="47.77759" lon="-3.59388">
        <ele>18</ele>
        <time>2019-07-14T12:26:27Z</time>
      </trkpt>
      <trkpt lat="47.77765" lon="-3.59387">
        <ele>18</ele>
        <time>2019-07-14T12:26:28Z</time>
      </trkpt>
      <trkpt lat="47.77769" lon="-3.59386">
        <ele>18</ele>
        <time>2019-07-14T12:26:29Z</time>
      </trkpt>
      <trkpt lat="47.77774" lon="-3.59385">
        <ele>19</ele>
        <time>2019-07-14T12:26:30Z</time>
      </trkpt>
      <trkpt lat="47.77779" lon="-3.59384">
        <ele>19</ele>
        <time>2019-07-14T12:26:31Z</time>
      </trkpt>
      <trkpt lat="47.77784" lon="-3.59383">
        <ele>19</ele>
        <time>2019-07-14T12:26:32Z</time>
      </trkpt>
      <trkpt lat="47.77789" lon="-3.59381">
        <ele>19</ele>
        <time>2019-07-14T12:26:33Z</time>
      </trkpt>
      <trkpt lat="47.77794" lon="-3.5938">
        <ele>19</ele>
        <time>2019-07-14T12:26:34Z</time>
      </trkpt>
      <trkpt lat="47.77799" lon="-3.59378">
        <ele>19</ele>
        <time>2019-07-14T12:26:35Z</time>
      </trkpt>
      <trkpt lat="47.77803" lon="-3.59377">
        <ele>19</ele>
        <time>2019-07-14T12:26:36Z</time>
      </trkpt>
      <trkpt lat="47.77808" lon="-3.59375">
        <ele>20</ele>
        <time>2019-07-14T12:26:37Z</time>
      </trkpt>
      <trkpt lat="47.77813" lon="-3.59374">
        <ele>20</ele>
        <time>2019-07-14T12:26:38Z</time>
      </trkpt>
      <trkpt lat="47.77818" lon="-3.59372">
        <ele>20</ele>
        <time>2019-07-14T12:26:39Z</time>
      </trkpt>
      <trkpt lat="47.77823" lon="-3.59371">
        <ele>20</ele>
        <time>2019-07-14T12:26:40Z</time>
      </trkpt>
      <trkpt lat="47.77827" lon="-3.59369">
        <ele>20</ele>
        <time>2019-07-14T12:26:41Z</time>
      </trkpt>
      <trkpt lat="47.77831" lon="-3.59368">
        <ele>20</ele>
        <time>2019-07-14T12:26:42Z</time>
      </trkpt>
      <trkpt lat="47.77833" lon="-3.59366">
        <ele>21</ele>
        <time>2019-07-14T12:26:43Z</time>
      </trkpt>
      <trkpt lat="47.77836" lon="-3.59365">
        <ele>21</ele>
        <time>2019-07-14T12:26:44Z</time>
      </trkpt>
      <trkpt lat="47.7784" lon="-3.59362">
        <ele>21</ele>
        <time>2019-07-14T12:26:45Z</time>
      </trkpt>
      <trkpt lat="47.77845" lon="-3.5936">
        <ele>21</ele>
        <time>2019-07-14T12:26:46Z</time>
      </trkpt>
      <trkpt lat="47.7785" lon="-3.59357">
        <ele>21</ele>
        <time>2019-07-14T12:26:47Z</time>
      </trkpt>
      <trkpt lat="47.77854" lon="-3.59355">
        <ele>21</ele>
        <time>2019-07-14T12:26:48Z</time>
      </trkpt>
      <trkpt lat="47.7786" lon="-3.59352">
        <ele>22</ele>
        <time>2019-07-14T12:26:49Z</time>
      </trkpt>
      <trkpt lat="47.77864" lon="-3.59348">
        <ele>22</ele>
        <time>2019-07-14T12:26:50Z</time>
      </trkpt>
      <trkpt lat="47.7787" lon="-3.59345">
        <ele>22</ele>
        <time>2019-07-14T12:26:51Z</time>
      </trkpt>
      <trkpt lat="47.77874" lon="-3.59342">
        <ele>22</ele>
        <time>2019-07-14T12:26:52Z</time>
      </trkpt>
      <trkpt lat="47.77879" lon="-3.59339">
        <ele>22</ele>
        <time>2019-07-14T12:26:53Z</time>
      </trkpt>
      <trkpt lat="47.77884" lon="-3.59335">
        <ele>23</ele>
        <time>2019-07-14T12:26:54Z</time>
      </trkpt>
      <trkpt lat="47.77889" lon="-3.59332">
        <ele>23</ele>
        <time>2019-07-14T12:26:55Z</time>
      </trkpt>
      <trkpt lat="47.77894" lon="-3.59329">
        <ele>23</ele>
        <time>2019-07-14T12:26:56Z</time>
      </trkpt>
      <trkpt lat="47.77898" lon="-3.59326">
        <ele>24</ele>
        <time>2019-07-14T12:26:57Z</time>
      </trkpt>
      <trkpt lat="47.77902" lon="-3.59323">
        <ele>24</ele>
        <time>2019-07-14T12:26:58Z</time>
      </trkpt>
      <trkpt lat="47.77906" lon="-3.59319">
        <ele>24</ele>
        <time>2019-07-14T12:26:59Z</time>
      </trkpt>
      <trkpt lat="47.77911" lon="-3.59316">
        <ele>24</ele>
        <time>2019-07-14T12:27:00Z</time>
      </trkpt>
      <trkpt lat="47.77916" lon="-3.59312">
        <ele>24</ele>
        <time>2019-07-14T12:27:01Z</time>
      </trkpt>
      <trkpt lat="47.7792" lon="-3.59309">
        <ele>25</ele>
        <time>2019-07-14T12:27:02Z</time>
      </trkpt>
      <trkpt lat="47.77925" lon="-3.59306">
        <ele>25</ele>
        <time>2019-07-14T12:27:03Z</time>
      </trkpt>
      <trkpt lat="47.7793" lon="-3.59303">
        <ele>25</ele>
        <time>2019-07-14T12:27:04Z</time>
      </trkpt>
      <trkpt lat="47.77934" lon="-3.593">
        <ele>26</ele>
        <time>2019-07-14T12:27:05Z</time>
      </trkpt>
      <trkpt lat="47.77939" lon="-3.59298">
        <ele>26</ele>
        <time>2019-07-14T12:27:06Z</time>
      </trkpt>
      <trkpt lat="47.77944" lon="-3.59295">
        <ele>26</ele>
        <time>2019-07-14T12:27:07Z</time>
      </trkpt>
      <trkpt lat="47.7795" lon="-3.59292">
        <ele>26</ele>
        <time>2019-07-14T12:27:08Z</time>
      </trkpt>
      <trkpt lat="47.77955" lon="-3.5929">
        <ele>27</ele>
        <time>2019-07-14T12:27:09Z</time>
      </trkpt>
      <trkpt lat="47.7796" lon="-3.59288">
        <ele>27</ele>
        <time>2019-07-14T12:27:10Z</time>
      </trkpt>
      <trkpt lat="47.77965" lon="-3.59286">
        <ele>27</ele>
        <time>2019-07-14T12:27:11Z</time>
      </trkpt>
      <trkpt lat="47.7797" lon="-3.59284">
        <ele>27</ele>
        <time>2019-07-14T12:27:12Z</time>
      </trkpt>
      <trkpt lat="47.77976" lon="-3.59283">
        <ele>28</ele>
        <time>2019-07-14T12:27:13Z</time>
      </trkpt>
      <trkpt lat="47.77981" lon="-3.59281">
        <ele>28</ele>
        <time>2019-07-14T12:27:14Z</time>
      </trkpt>
      <trkpt lat="47.77986" lon="-3.59279">
        <ele>28</ele>
        <time>2019-07-14T12:27:15Z</time>
      </trkpt>
      <trkpt lat="47.77991" lon="-3.59277">
        <ele>28</ele>
        <time>2019-07-14T12:27:16Z</time>
      </trkpt>
      <trkpt lat="47.77996" lon="-3.59276">
        <ele>28</ele>
        <time>2019-07-14T12:27:17Z</time>
      </trkpt>
      <trkpt lat="47.78001" lon="-3.59275">
        <ele>28</ele>
        <time>2019-07-14T12:27:18Z</time>
      </trkpt>
      <trkpt lat="47.78006" lon="-3.59273">
        <ele>29</ele>
        <time>2019-07-14T12:27:19Z</time>
      </trkpt>
      <trkpt lat="47.78011" lon="-3.59272">
        <ele>29</ele>
        <time>2019-07-14T12:27:20Z</time>
      </trkpt>
      <trkpt lat="47.78016" lon="-3.5927">
        <ele>29</ele>
        <time>2019-07-14T12:27:21Z</time>
      </trkpt>
      <trkpt lat="47.78021" lon="-3.59268">
        <ele>29</ele>
        <time>2019-07-14T12:27:22Z</time>
      </trkpt>
      <trkpt lat="47.78026" lon="-3.59267">
        <ele>29</ele>
        <time>2019-07-14T12:27:23Z</time>
      </trkpt>
      <trkpt lat="47.78031" lon="-3.59265">
        <ele>29</ele>
        <time>2019-07-14T12:27:24Z</time>
      </trkpt>
      <trkpt lat="47.78035" lon="-3.59264">
        <ele>29</ele>
        <time>2019-07-14T12:27:25Z</time>
      </trkpt>
      <trkpt lat="47.7804" lon="-3.59263">
        <ele>30</ele>
        <time>2019-07-14T12:27:26Z</time>
      </trkpt>
      <trkpt lat="47.78045" lon="-3.59261">
        <ele>30</ele>
        <time>2019-07-14T12:27:27Z</time>
      </trkpt>
      <trkpt lat="47.78049" lon="-3.5926">
        <ele>30</ele>
        <time>2019-07-14T12:27:28Z</time>
      </trkpt>
      <trkpt lat="47.78054" lon="-3.59259">
        <ele>30</ele>
        <time>2019-07-14T12:27:29Z</time>
      </trkpt>
      <trkpt lat="47.7806" lon="-3.59257">
        <ele>30</ele>
        <time>2019-07-14T12:27:30Z</time>
      </trkpt>
      <trkpt lat="47.78064" lon="-3.59255">
        <ele>30</ele>
        <time>2019-07-14T12:27:31Z</time>
      </trkpt>
      <trkpt lat="47.78069" lon="-3.59253">
        <ele>31</ele>
        <time>2019-07-14T12:27:32Z</time>
      </trkpt>
      <trkpt lat="47.78074" lon="-3.59251">
        <ele>31</ele>
        <time>2019-07-14T12:27:33Z</time>
      </trkpt>
      <trkpt lat="47.78079" lon="-3.59248">
        <ele>31</ele>
        <time>2019-07-14T12:27:34Z</time>
      </trkpt>
      <trkpt lat="47.78084" lon="-3.59246">
        <ele>31</ele>
        <time>2019-07-14T12:27:35Z</time>
      </trkpt>
      <trkpt lat="47.78088" lon="-3.59244">
        <ele>32</ele>
        <time>2019-07-14T12:27:36Z</time>
      </trkpt>
      <trkpt lat="47.78093" lon="-3.5924">
        <ele>32</ele>
        <time>2019-07-14T12:27:37Z</time>
      </trkpt>
      <trkpt lat="47.78097" lon="-3.59237">
        <ele>32</ele>
        <time>2019-07-14T12:27:38Z</time>
      </trkpt>
      <trkpt lat="47.78101" lon="-3.59234">
        <ele>32</ele>
        <time>2019-07-14T12:27:39Z</time>
      </trkpt>
      <trkpt lat="47.78106" lon="-3.5923">
        <ele>32</ele>
        <time>2019-07-14T12:27:40Z</time>
      </trkpt>
      <trkpt lat="47.7811" lon="-3.59226">
        <ele>33</ele>
        <time>2019-07-14T12:27:41Z</time>
      </trkpt>
      <trkpt lat="47.78114" lon="-3.59222">
        <ele>33</ele>
        <time>2019-07-14T12:27:42Z</time>
      </trkpt>
      <trkpt lat="47.78118" lon="-3.59217">
        <ele>33</ele>
        <time>2019-07-14T12:27:43Z</time>
      </trkpt>
      <trkpt lat="47.78122" lon="-3.59212">
        <ele>33</ele>
        <time>2019-07-14T12:27:44Z</time>
      </trkpt>
      <trkpt lat="47.78125" lon="-3.59207">
        <ele>34</ele>
        <time>2019-07-14T12:27:45Z</time>
      </trkpt>
      <trkpt lat="47.78129" lon="-3.59202">
        <ele>34</ele>
        <time>2019-07-14T12:27:46Z</time>
      </trkpt>
      <trkpt lat="47.78132" lon="-3.59197">
        <ele>34</ele>
        <time>2019-07-14T12:27:47Z</time>
      </trkpt>
      <trkpt lat="47.78135" lon="-3.59191">
        <ele>34</ele>
        <time>2019-07-14T12:27:48Z</time>
      </trkpt>
      <trkpt lat="47.78139" lon="-3.59186">
        <ele>35</ele>
        <time>2019-07-14T12:27:49Z</time>
      </trkpt>
      <trkpt lat="47.78142" lon="-3.5918">
        <ele>35</ele>
        <time>2019-07-14T12:27:50Z</time>
      </trkpt>
      <trkpt lat="47.78145" lon="-3.59174">
        <ele>35</ele>
        <time>2019-07-14T12:27:51Z</time>
      </trkpt>
      <trkpt lat="47.78148" lon="-3.59168">
        <ele>35</ele>
        <time>2019-07-14T12:27:52Z</time>
      </trkpt>
      <trkpt lat="47.78152" lon="-3.59162">
        <ele>35</ele>
        <time>2019-07-14T12:27:53Z</time>
      </trkpt>
      <trkpt lat="47.78155" lon="-3.59155">
        <ele>36</ele>
        <time>2019-07-14T12:27:54Z</time>
      </trkpt>
      <trkpt lat="47.78158" lon="-3.59149">
        <ele>36</ele>
        <time>2019-07-14T12:27:55Z</time>
      </trkpt>
      <trkpt lat="47.78161" lon="-3.59142">
        <ele>36</ele>
        <time>2019-07-14T12:27:56Z</time>
      </trkpt>
      <trkpt lat="47.78164" lon="-3.59136">
        <ele>36</ele>
        <time>2019-07-14T12:27:57Z</time>
      </trkpt>
      <trkpt lat="47.78167" lon="-3.59129">
        <ele>36</ele>
        <time>2019-07-14T12:27:58Z</time>
      </trkpt>
      <trkpt lat="47.78171" lon="-3.59123">
        <ele>36</ele>
        <time>2019-07-14T12:27:59Z</time>
      </trkpt>
      <trkpt lat="47.78174" lon="-3.59116">
        <ele>37</ele>
        <time>2019-07-14T12:28:00Z</time>
      </trkpt>
      <trkpt lat="47.78177" lon="-3.59109">
        <ele>37</ele>
        <time>2019-07-14T12:28:01Z</time>
      </trkpt>
      <trkpt lat="47.7818" lon="-3.59103">
        <ele>37</ele>
        <time>2019-07-14T12:28:02Z</time>
      </trkpt>
      <trkpt lat="47.78183" lon="-3.59097">
        <ele>37</ele>
        <time>2019-07-14T12:28:03Z</time>
      </trkpt>
      <trkpt lat="47.78187" lon="-3.5909">
        <ele>37</ele>
        <time>2019-07-14T12:28:04Z</time>
      </trkpt>
      <trkpt lat="47.7819" lon="-3.59084">
        <ele>37</ele>
        <time>2019-07-14T12:28:05Z</time>
      </trkpt>
      <trkpt lat="47.78193" lon="-3.59078">
        <ele>37</ele>
        <time>2019-07-14T12:28:06Z</time>
      </trkpt>
      <trkpt lat="47.78196" lon="-3.59073">
        <ele>38</ele>
        <time>2019-07-14T12:28:07Z</time>
      </trkpt>
      <trkpt lat="47.78199" lon="-3.59067">
        <ele>38</ele>
        <time>2019-07-14T12:28:08Z</time>
      </trkpt>
      <trkpt lat="47.78202" lon="-3.59061">
        <ele>38</ele>
        <time>2019-07-14T12:28:09Z</time>
      </trkpt>
      <trkpt lat="47.78205" lon="-3.59056">
        <ele>38</ele>
        <time>2019-07-14T12:28:10Z</time>
      </trkpt>
      <trkpt lat="47.78208" lon="-3.59051">
        <ele>38</ele>
        <time>2019-07-14T12:28:11Z</time>
      </trkpt>
      <trkpt lat="47.78212" lon="-3.59048">
        <ele>38</ele>
        <time>2019-07-14T12:28:12Z</time>
      </trkpt>
      <trkpt lat="47.78216" lon="-3.59046">
        <ele>38</ele>
        <time>2019-07-14T12:28:13Z</time>
      </trkpt>
      <trkpt lat="47.7822" lon="-3.59047">
        <ele>38</ele>
        <time>2019-07-14T12:28:14Z</time>
      </trkpt>
      <trkpt lat="47.78225" lon="-3.59048">
        <ele>38</ele>
        <time>2019-07-14T12:28:15Z</time>
      </trkpt>
      <trkpt lat="47.78229" lon="-3.5905">
        <ele>38</ele>
        <time>2019-07-14T12:28:16Z</time>
      </trkpt>
      <trkpt lat="47.78235" lon="-3.59052">
        <ele>38</ele>
        <time>2019-07-14T12:28:17Z</time>
      </trkpt>
      <trkpt lat="47.7824" lon="-3.59053">
        <ele>38</ele>
        <time>2019-07-14T12:28:18Z</time>
      </trkpt>
      <trkpt lat="47.78246" lon="-3.59055">
        <ele>38</ele>
        <time>2019-07-14T12:28:19Z</time>
      </trkpt>
      <trkpt lat="47.78252" lon="-3.59057">
        <ele>38</ele>
        <time>2019-07-14T12:28:20Z</time>
      </trkpt>
      <trkpt lat="47.78258" lon="-3.59059">
        <ele>38</ele>
        <time>2019-07-14T12:28:21Z</time>
      </trkpt>
      <trkpt lat="47.78264" lon="-3.5906">
        <ele>39</ele>
        <time>2019-07-14T12:28:22Z</time>
      </trkpt>
      <trkpt lat="47.7827" lon="-3.59062">
        <ele>39</ele>
        <time>2019-07-14T12:28:23Z</time>
      </trkpt>
      <trkpt lat="47.78276" lon="-3.59064">
        <ele>39</ele>
        <time>2019-07-14T12:28:24Z</time>
      </trkpt>
      <trkpt lat="47.78281" lon="-3.59066">
        <ele>39</ele>
        <time>2019-07-14T12:28:25Z</time>
      </trkpt>
      <trkpt lat="47.78288" lon="-3.59067">
        <ele>39</ele>
        <time>2019-07-14T12:28:26Z</time>
      </trkpt>
      <trkpt lat="47.78294" lon="-3.59067">
        <ele>39</ele>
        <time>2019-07-14T12:28:27Z</time>
      </trkpt>
      <trkpt lat="47.78301" lon="-3.59068">
        <ele>39</ele>
        <time>2019-07-14T12:28:28Z</time>
      </trkpt>
      <trkpt lat="47.78308" lon="-3.59067">
        <ele>39</ele>
        <time>2019-07-14T12:28:29Z</time>
      </trkpt>
      <trkpt lat="47.78314" lon="-3.59065">
        <ele>38</ele>
        <time>2019-07-14T12:28:30Z</time>
      </trkpt>
      <trkpt lat="47.7832" lon="-3.59061">
        <ele>38</ele>
        <time>2019-07-14T12:28:31Z</time>
      </trkpt>
      <trkpt lat="47.78326" lon="-3.59057">
        <ele>38</ele>
        <time>2019-07-14T12:28:32Z</time>
      </trkpt>
      <trkpt lat="47.78331" lon="-3.59052">
        <ele>38</ele>
        <time>2019-07-14T12:28:33Z</time>
      </trkpt>
      <trkpt lat="47.78337" lon="-3.59049">
        <ele>38</ele>
        <time>2019-07-14T12:28:34Z</time>
      </trkpt>
      <trkpt lat="47.78343" lon="-3.59046">
        <ele>38</ele>
        <time>2019-07-14T12:28:35Z</time>
      </trkpt>
      <trkpt lat="47.78349" lon="-3.59044">
        <ele>37</ele>
        <time>2019-07-14T12:28:36Z</time>
      </trkpt>
      <trkpt lat="47.78355" lon="-3.59042">
        <ele>37</ele>
        <time>2019-07-14T12:28:37Z</time>
      </trkpt>
      <trkpt lat="47.78361" lon="-3.59041">
        <ele>37</ele>
        <time>2019-07-14T12:28:38Z</time>
      </trkpt>
      <trkpt lat="47.78366" lon="-3.5904">
        <ele>37</ele>
        <time>2019-07-14T12:28:39Z</time>
      </trkpt>
      <trkpt lat="47.7837" lon="-3.59039">
        <ele>37</ele>
        <time>2019-07-14T12:28:40Z</time>
      </trkpt>
      <trkpt lat="47.78373" lon="-3.59038">
        <ele>37</ele>
        <time>2019-07-14T12:28:41Z</time>
      </trkpt>
      <trkpt lat="47.78377" lon="-3.59038">
        <ele>37</ele>
        <time>2019-07-14T12:28:42Z</time>
      </trkpt>
      <trkpt lat="47.7838" lon="-3.59039">
        <ele>37</ele>
        <time>2019-07-14T12:28:43Z</time>
      </trkpt>
      <trkpt lat="47.78384" lon="-3.59041">
        <ele>37</ele>
        <time>2019-07-14T12:28:44Z</time>
      </trkpt>
      <trkpt lat="47.78388" lon="-3.59041">
        <ele>37</ele>
        <time>2019-07-14T12:28:45Z</time>
      </trkpt>
      <trkpt lat="47.78392" lon="-3.59042">
        <ele>37</ele>
        <time>2019-07-14T12:28:46Z</time>
      </trkpt>
      <trkpt lat="47.78396" lon="-3.59042">
        <ele>37</ele>
        <time>2019-07-14T12:28:47Z</time>
      </trkpt>
      <trkpt lat="47.784" lon="-3.59041">
        <ele>37</ele>
        <time>2019-07-14T12:28:48Z</time>
      </trkpt>
      <trkpt lat="47.78404" lon="-3.5904">
        <ele>37</ele>
        <time>2019-07-14T12:28:49Z</time>
      </trkpt>
      <trkpt lat="47.78408" lon="-3.59039">
        <ele>37</ele>
        <time>2019-07-14T12:28:50Z</time>
      </trkpt>
      <trkpt lat="47.78412" lon="-3.59038">
        <ele>37</ele>
        <time>2019-07-14T12:28:51Z</time>
      </trkpt>
      <trkpt lat="47.78417" lon="-3.59037">
        <ele>37</ele>
        <time>2019-07-14T12:28:52Z</time>
      </trkpt>
      <trkpt lat="47.78422" lon="-3.59036">
        <ele>37</ele>
        <time>2019-07-14T12:28:53Z</time>
      </trkpt>
      <trkpt lat="47.78426" lon="-3.59034">
        <ele>37</ele>
        <time>2019-07-14T12:28:54Z</time>
      </trkpt>
      <trkpt lat="47.7843" lon="-3.59033">
        <ele>38</ele>
        <time>2019-07-14T12:28:55Z</time>
      </trkpt>
      <trkpt lat="47.78435" lon="-3.59032">
        <ele>38</ele>
        <time>2019-07-14T12:28:56Z</time>
      </trkpt>
      <trkpt lat="47.78438" lon="-3.59031">
        <ele>38</ele>
        <time>2019-07-14T12:28:57Z</time>
      </trkpt>
      <trkpt lat="47.78442" lon="-3.59029">
        <ele>38</ele>
        <time>2019-07-14T12:28:58Z</time>
      </trkpt>
      <trkpt lat="47.78445" lon="-3.59028">
        <ele>38</ele>
        <time>2019-07-14T12:28:59Z</time>
      </trkpt>
      <trkpt lat="47.7845" lon="-3.59027">
        <ele>39</ele>
        <time>2019-07-14T12:29:00Z</time>
      </trkpt>
      <trkpt lat="47.78454" lon="-3.59025">
        <ele>39</ele>
        <time>2019-07-14T12:29:01Z</time>
      </trkpt>
      <trkpt lat="47.78458" lon="-3.59023">
        <ele>39</ele>
        <time>2019-07-14T12:29:02Z</time>
      </trkpt>
      <trkpt lat="47.78462" lon="-3.59022">
        <ele>39</ele>
        <time>2019-07-14T12:29:03Z</time>
      </trkpt>
      <trkpt lat="47.78465" lon="-3.59021">
        <ele>39</ele>
        <time>2019-07-14T12:29:04Z</time>
      </trkpt>
      <trkpt lat="47.78468" lon="-3.5902">
        <ele>39</ele>
        <time>2019-07-14T12:29:05Z</time>
      </trkpt>
      <trkpt lat="47.78472" lon="-3.59018">
        <ele>40</ele>
        <time>2019-07-14T12:29:06Z</time>
      </trkpt>
      <trkpt lat="47.78476" lon="-3.59016">
        <ele>40</ele>
        <time>2019-07-14T12:29:07Z</time>
      </trkpt>
      <trkpt lat="47.78481" lon="-3.59015">
        <ele>40</ele>
        <time>2019-07-14T12:29:08Z</time>
      </trkpt>
      <trkpt lat="47.78485" lon="-3.59014">
        <ele>40</ele>
        <time>2019-07-14T12:29:09Z</time>
      </trkpt>
      <trkpt lat="47.7849" lon="-3.59012">
        <ele>40</ele>
        <time>2019-07-14T12:29:10Z</time>
      </trkpt>
      <trkpt lat="47.78494" lon="-3.59011">
        <ele>40</ele>
        <time>2019-07-14T12:29:11Z</time>
      </trkpt>
      <trkpt lat="47.78498" lon="-3.59009">
        <ele>40</ele>
        <time>2019-07-14T12:29:12Z</time>
      </trkpt>
      <trkpt lat="47.78501" lon="-3.59007">
        <ele>40</ele>
        <time>2019-07-14T12:29:13Z</time>
      </trkpt>
      <trkpt lat="47.78504" lon="-3.59006">
        <ele>40</ele>
        <time>2019-07-14T12:29:14Z</time>
      </trkpt>
      <trkpt lat="47.78507" lon="-3.59006">
        <ele>40</ele>
        <time>2019-07-14T12:29:15Z</time>
      </trkpt>
      <trkpt lat="47.78511" lon="-3.59004">
        <ele>40</ele>
        <time>2019-07-14T12:29:16Z</time>
      </trkpt>
      <trkpt lat="47.78515" lon="-3.59003">
        <ele>40</ele>
        <time>2019-07-14T12:29:17Z</time>
      </trkpt>
      <trkpt lat="47.78518" lon="-3.59">
        <ele>40</ele>
        <time>2019-07-14T12:29:18Z</time>
      </trkpt>
      <trkpt lat="47.78522" lon="-3.58997">
        <ele>40</ele>
        <time>2019-07-14T12:29:19Z</time>
      </trkpt>
      <trkpt lat="47.78527" lon="-3.58992">
        <ele>40</ele>
        <time>2019-07-14T12:29:20Z</time>
      </trkpt>
      <trkpt lat="47.78531" lon="-3.58988">
        <ele>40</ele>
        <time>2019-07-14T12:29:21Z</time>
      </trkpt>
      <trkpt lat="47.78536" lon="-3.58982">
        <ele>40</ele>
        <time>2019-07-14T12:29:22Z</time>
      </trkpt>
      <trkpt lat="47.7854" lon="-3.58978">
        <ele>41</ele>
        <time>2019-07-14T12:29:23Z</time>
      </trkpt>
      <trkpt lat="47.78545" lon="-3.58973">
        <ele>41</ele>
        <time>2019-07-14T12:29:24Z</time>
      </trkpt>
      <trkpt lat="47.78549" lon="-3.58968">
        <ele>41</ele>
        <time>2019-07-14T12:29:25Z</time>
      </trkpt>
      <trkpt lat="47.78554" lon="-3.58964">
        <ele>41</ele>
        <time>2019-07-14T12:29:26Z</time>
      </trkpt>
      <trkpt lat="47.78558" lon="-3.5896">
        <ele>41</ele>
        <time>2019-07-14T12:29:27Z</time>
      </trkpt>
      <trkpt lat="47.78563" lon="-3.58957">
        <ele>41</ele>
        <time>2019-07-14T12:29:28Z</time>
      </trkpt>
      <trkpt lat="47.78566" lon="-3.58953">
        <ele>41</ele>
        <time>2019-07-14T12:29:29Z</time>
      </trkpt>
      <trkpt lat="47.7857" lon="-3.58949">
        <ele>41</ele>
        <time>2019-07-14T12:29:30Z</time>
      </trkpt>
      <trkpt lat="47.78573" lon="-3.58946">
        <ele>41</ele>
        <time>2019-07-14T12:29:31Z</time>
      </trkpt>
      <trkpt lat="47.78578" lon="-3.58943">
        <ele>41</ele>
        <time>2019-07-14T12:29:32Z</time>
      </trkpt>
      <trkpt lat="47.78583" lon="-3.58939">
        <ele>41</ele>
        <time>2019-07-14T12:29:33Z</time>
      </trkpt>
      <trkpt lat="47.78588" lon="-3.58936">
        <ele>41</ele>
        <time>2019-07-14T12:29:34Z</time>
      </trkpt>
      <trkpt lat="47.78593" lon="-3.58932">
        <ele>41</ele>
        <time>2019-07-14T12:29:35Z</time>
      </trkpt>
      <trkpt lat="47.78599" lon="-3.5893">
        <ele>41</ele>
        <time>2019-07-14T12:29:36Z</time>
      </trkpt>
      <trkpt lat="47.78605" lon="-3.58927">
        <ele>42</ele>
        <time>2019-07-14T12:29:37Z</time>
      </trkpt>
      <trkpt lat="47.7861" lon="-3.58923">
        <ele>42</ele>
        <time>2019-07-14T12:29:38Z</time>
      </trkpt>
      <trkpt lat="47.78616" lon="-3.5892">
        <ele>42</ele>
        <time>2019-07-14T12:29:39Z</time>
      </trkpt>
      <trkpt lat="47.78621" lon="-3.58916">
        <ele>42</ele>
        <time>2019-07-14T12:29:40Z</time>
      </trkpt>
      <trkpt lat="47.78626" lon="-3.58913">
        <ele>42</ele>
        <time>2019-07-14T12:29:41Z</time>
      </trkpt>
      <trkpt lat="47.78632" lon="-3.58909">
        <ele>42</ele>
        <time>2019-07-14T12:29:42Z</time>
      </trkpt>
      <trkpt lat="47.78638" lon="-3.58906">
        <ele>42</ele>
        <time>2019-07-14T12:29:43Z</time>
      </trkpt>
      <trkpt lat="47.78644" lon="-3.58903">
        <ele>42</ele>
        <time>2019-07-14T12:29:44Z</time>
      </trkpt>
      <trkpt lat="47.78649" lon="-3.589">
        <ele>42</ele>
        <time>2019-07-14T12:29:45Z</time>
      </trkpt>
      <trkpt lat="47.78655" lon="-3.58896">
        <ele>42</ele>
        <time>2019-07-14T12:29:46Z</time>
      </trkpt>
      <trkpt lat="47.7866" lon="-3.58893">
        <ele>42</ele>
        <time>2019-07-14T12:29:47Z</time>
      </trkpt>
      <trkpt lat="47.78665" lon="-3.5889">
        <ele>42</ele>
        <time>2019-07-14T12:29:48Z</time>
      </trkpt>
      <trkpt lat="47.7867" lon="-3.58886">
        <ele>42</ele>
        <time>2019-07-14T12:29:49Z</time>
      </trkpt>
      <trkpt lat="47.78676" lon="-3.58883">
        <ele>42</ele>
        <time>2019-07-14T12:29:50Z</time>
      </trkpt>
      <trkpt lat="47.78681" lon="-3.58879">
        <ele>42</ele>
        <time>2019-07-14T12:29:51Z</time>
      </trkpt>
      <trkpt lat="47.78687" lon="-3.58876">
        <ele>42</ele>
        <time>2019-07-14T12:29:52Z</time>
      </trkpt>
      <trkpt lat="47.78694" lon="-3.58873">
        <ele>42</ele>
        <time>2019-07-14T12:29:53Z</time>
      </trkpt>
      <trkpt lat="47.78701" lon="-3.5887">
        <ele>42</ele>
        <time>2019-07-14T12:29:54Z</time>
      </trkpt>
      <trkpt lat="47.78708" lon="-3.58868">
        <ele>42</ele>
        <time>2019-07-14T12:29:55Z</time>
      </trkpt>
      <trkpt lat="47.78715" lon="-3.58866">
        <ele>42</ele>
        <time>2019-07-14T12:29:56Z</time>
      </trkpt>
      <trkpt lat="47.78723" lon="-3.58865">
        <ele>42</ele>
        <time>2019-07-14T12:29:57Z</time>
      </trkpt>
      <trkpt lat="47.7873" lon="-3.58863">
        <ele>42</ele>
        <time>2019-07-14T12:29:58Z</time>
      </trkpt>
      <trkpt lat="47.78737" lon="-3.58862">
        <ele>42</ele>
        <time>2019-07-14T12:29:59Z</time>
      </trkpt>
      <trkpt lat="47.78743" lon="-3.5886">
        <ele>42</ele>
        <time>2019-07-14T12:30:00Z</time>
      </trkpt>
      <trkpt lat="47.78748" lon="-3.58859">
        <ele>42</ele>
        <time>2019-07-14T12:30:01Z</time>
      </trkpt>
      <trkpt lat="47.78753" lon="-3.58856">
        <ele>42</ele>
        <time>2019-07-14T12:30:02Z</time>
      </trkpt>
      <trkpt lat="47.78758" lon="-3.58853">
        <ele>42</ele>
        <time>2019-07-14T12:30:03Z</time>
      </trkpt>
      <trkpt lat="47.78762" lon="-3.58849">
        <ele>42</ele>
        <time>2019-07-14T12:30:04Z</time>
      </trkpt>
      <trkpt lat="47.78766" lon="-3.58843">
        <ele>42</ele>
        <time>2019-07-14T12:30:05Z</time>
      </trkpt>
      <trkpt lat="47.78769" lon="-3.58837">
        <ele>42</ele>
        <time>2019-07-14T12:30:06Z</time>
      </trkpt>
      <trkpt lat="47.78772" lon="-3.58831">
        <ele>42</ele>
        <time>2019-07-14T12:30:07Z</time>
      </trkpt>
      <trkpt lat="47.78775" lon="-3.58824">
        <ele>41</ele>
        <time>2019-07-14T12:30:08Z</time>
      </trkpt>
      <trkpt lat="47.78778" lon="-3.58817">
        <ele>41</ele>
        <time>2019-07-14T12:30:09Z</time>
      </trkpt>
      <trkpt lat="47.78781" lon="-3.5881">
        <ele>41</ele>
        <time>2019-07-14T12:30:10Z</time>
      </trkpt>
      <trkpt lat="47.78784" lon="-3.58801">
        <ele>41</ele>
        <time>2019-07-14T12:30:11Z</time>
      </trkpt>
      <trkpt lat="47.78786" lon="-3.58794">
        <ele>40</ele>
        <time>2019-07-14T12:30:12Z</time>
      </trkpt>
      <trkpt lat="47.78789" lon="-3.58785">
        <ele>40</ele>
        <time>2019-07-14T12:30:13Z</time>
      </trkpt>
      <trkpt lat="47.78792" lon="-3.58777">
        <ele>39</ele>
        <time>2019-07-14T12:30:14Z</time>
      </trkpt>
      <trkpt lat="47.78794" lon="-3.58769">
        <ele>39</ele>
        <time>2019-07-14T12:30:15Z</time>
      </trkpt>
      <trkpt lat="47.78796" lon="-3.5876">
        <ele>39</ele>
        <time>2019-07-14T12:30:16Z</time>
      </trkpt>
      <trkpt lat="47.78796" lon="-3.58752">
        <ele>38</ele>
        <time>2019-07-14T12:30:17Z</time>
      </trkpt>
      <trkpt lat="47.78796" lon="-3.58744">
        <ele>38</ele>
        <time>2019-07-14T12:30:18Z</time>
      </trkpt>
      <trkpt lat="47.78795" lon="-3.58736">
        <ele>38</ele>
        <time>2019-07-14T12:30:19Z</time>
      </trkpt>
      <trkpt lat="47.78794" lon="-3.58728">
        <ele>38</ele>
        <time>2019-07-14T12:30:20Z</time>
      </trkpt>
      <trkpt lat="47.78793" lon="-3.5872">
        <ele>38</ele>
        <time>2019-07-14T12:30:21Z</time>
      </trkpt>
      <trkpt lat="47.78792" lon="-3.58712">
        <ele>38</ele>
        <time>2019-07-14T12:30:22Z</time>
      </trkpt>
      <trkpt lat="47.78791" lon="-3.58704">
        <ele>38</ele>
        <time>2019-07-14T12:30:23Z</time>
      </trkpt>
      <trkpt lat="47.7879" lon="-3.58696">
        <ele>38</ele>
        <time>2019-07-14T12:30:24Z</time>
      </trkpt>
      <trkpt lat="47.78789" lon="-3.58688">
        <ele>37</ele>
        <time>2019-07-14T12:30:25Z</time>
      </trkpt>
      <trkpt lat="47.78788" lon="-3.58679">
        <ele>37</ele>
        <time>2019-07-14T12:30:26Z</time>
      </trkpt>
      <trkpt lat="47.78787" lon="-3.58671">
        <ele>37</ele>
        <time>2019-07-14T12:30:27Z</time>
      </trkpt>
      <trkpt lat="47.78786" lon="-3.58662">
        <ele>38</ele>
        <time>2019-07-14T12:30:28Z</time>
      </trkpt>
      <trkpt lat="47.78784" lon="-3.58654">
        <ele>38</ele>
        <time>2019-07-14T12:30:29Z</time>
      </trkpt>
      <trkpt lat="47.78783" lon="-3.58645">
        <ele>38</ele>
        <time>2019-07-14T12:30:30Z</time>
      </trkpt>
      <trkpt lat="47.78782" lon="-3.58637">
        <ele>38</ele>
        <time>2019-07-14T12:30:31Z</time>
      </trkpt>
      <trkpt lat="47.78781" lon="-3.58628">
        <ele>38</ele>
        <time>2019-07-14T12:30:32Z</time>
      </trkpt>
      <trkpt lat="47.7878" lon="-3.5862">
        <ele>38</ele>
        <time>2019-07-14T12:30:33Z</time>
      </trkpt>
      <trkpt lat="47.78778" lon="-3.58612">
        <ele>37</ele>
        <time>2019-07-14T12:30:34Z</time>
      </trkpt>
      <trkpt lat="47.78777" lon="-3.58603">
        <ele>37</ele>
        <time>2019-07-14T12:30:35Z</time>
      </trkpt>
      <trkpt lat="47.78776" lon="-3.58595">
        <ele>37</ele>
        <time>2019-07-14T12:30:36Z</time>
      </trkpt>
      <trkpt lat="47.78774" lon="-3.58587">
        <ele>37</ele>
        <time>2019-07-14T12:30:37Z</time>
      </trkpt>
      <trkpt lat="47.78773" lon="-3.58579">
        <ele>37</ele>
        <time>2019-07-14T12:30:38Z</time>
      </trkpt>
      <trkpt lat="47.78772" lon="-3.58572">
        <ele>37</ele>
        <time>2019-07-14T12:30:39Z</time>
      </trkpt>
      <trkpt lat="47.7877" lon="-3.58564">
        <ele>37</ele>
        <time>2019-07-14T12:30:40Z</time>
      </trkpt>
      <trkpt lat="47.78769" lon="-3.58557">
        <ele>37</ele>
        <time>2019-07-14T12:30:41Z</time>
      </trkpt>
      <trkpt lat="47.78766" lon="-3.58549">
        <ele>37</ele>
        <time>2019-07-14T12:30:42Z</time>
      </trkpt>
      <trkpt lat="47.78764" lon="-3.58542">
        <ele>38</ele>
        <time>2019-07-14T12:30:43Z</time>
      </trkpt>
      <trkpt lat="47.78762" lon="-3.58535">
        <ele>38</ele>
        <time>2019-07-14T12:30:44Z</time>
      </trkpt>
      <trkpt lat="47.7876" lon="-3.58528">
        <ele>38</ele>
        <time>2019-07-14T12:30:45Z</time>
      </trkpt>
      <trkpt lat="47.78757" lon="-3.58521">
        <ele>38</ele>
        <time>2019-07-14T12:30:46Z</time>
      </trkpt>
      <trkpt lat="47.78754" lon="-3.58514">
        <ele>38</ele>
        <time>2019-07-14T12:30:47Z</time>
      </trkpt>
      <trkpt lat="47.78751" lon="-3.58507">
        <ele>38</ele>
        <time>2019-07-14T12:30:48Z</time>
      </trkpt>
      <trkpt lat="47.78748" lon="-3.585">
        <ele>39</ele>
        <time>2019-07-14T12:30:49Z</time>
      </trkpt>
      <trkpt lat="47.78746" lon="-3.58493">
        <ele>39</ele>
        <time>2019-07-14T12:30:50Z</time>
      </trkpt>
      <trkpt lat="47.78743" lon="-3.58486">
        <ele>39</ele>
        <time>2019-07-14T12:30:51Z</time>
      </trkpt>
      <trkpt lat="47.7874" lon="-3.5848">
        <ele>39</ele>
        <time>2019-07-14T12:30:52Z</time>
      </trkpt>
      <trkpt lat="47.78737" lon="-3.58473">
        <ele>39</ele>
        <time>2019-07-14T12:30:53Z</time>
      </trkpt>
      <trkpt lat="47.78734" lon="-3.58466">
        <ele>39</ele>
        <time>2019-07-14T12:30:54Z</time>
      </trkpt>
      <trkpt lat="47.78731" lon="-3.5846">
        <ele>39</ele>
        <time>2019-07-14T12:30:55Z</time>
      </trkpt>
      <trkpt lat="47.78728" lon="-3.58453">
        <ele>39</ele>
        <time>2019-07-14T12:30:56Z</time>
      </trkpt>
      <trkpt lat="47.78725" lon="-3.58446">
        <ele>40</ele>
        <time>2019-07-14T12:30:57Z</time>
      </trkpt>
      <trkpt lat="47.78722" lon="-3.5844">
        <ele>40</ele>
        <time>2019-07-14T12:30:58Z</time>
      </trkpt>
      <trkpt lat="47.78719" lon="-3.58433">
        <ele>40</ele>
        <time>2019-07-14T12:30:59Z</time>
      </trkpt>
      <trkpt lat="47.78717" lon="-3.58426">
        <ele>40</ele>
        <time>2019-07-14T12:31:00Z</time>
      </trkpt>
      <trkpt lat="47.78714" lon="-3.58419">
        <ele>40</ele>
        <time>2019-07-14T12:31:01Z</time>
      </trkpt>
      <trkpt lat="47.78712" lon="-3.58412">
        <ele>41</ele>
        <time>2019-07-14T12:31:02Z</time>
      </trkpt>
      <trkpt lat="47.7871" lon="-3.58405">
        <ele>41</ele>
        <time>2019-07-14T12:31:03Z</time>
      </trkpt>
      <trkpt lat="47.78708" lon="-3.58397">
        <ele>41</ele>
        <time>2019-07-14T12:31:04Z</time>
      </trkpt>
      <trkpt lat="47.78705" lon="-3.5839">
        <ele>41</ele>
        <time>2019-07-14T12:31:05Z</time>
      </trkpt>
      <trkpt lat="47.78702" lon="-3.58383">
        <ele>41</ele>
        <time>2019-07-14T12:31:06Z</time>
      </trkpt>
      <trkpt lat="47.787" lon="-3.58376">
        <ele>41</ele>
        <time>2019-07-14T12:31:07Z</time>
      </trkpt>
      <trkpt lat="47.78698" lon="-3.58369">
        <ele>42</ele>
        <time>2019-07-14T12:31:08Z</time>
      </trkpt>
      <trkpt lat="47.78695" lon="-3.58362">
        <ele>42</ele>
        <time>2019-07-14T12:31:09Z</time>
      </trkpt>
      <trkpt lat="47.78693" lon="-3.58355">
        <ele>42</ele>
        <time>2019-07-14T12:31:10Z</time>
      </trkpt>
      <trkpt lat="47.7869" lon="-3.58348">
        <ele>42</ele>
        <time>2019-07-14T12:31:11Z</time>
      </trkpt>
      <trkpt lat="47.78688" lon="-3.58342">
        <ele>42</ele>
        <time>2019-07-14T12:31:12Z</time>
      </trkpt>
      <trkpt lat="47.78686" lon="-3.58335">
        <ele>42</ele>
        <time>2019-07-14T12:31:13Z</time>
      </trkpt>
      <trkpt lat="47.78683" lon="-3.58328">
        <ele>42</ele>
        <time>2019-07-14T12:31:14Z</time>
      </trkpt>
      <trkpt lat="47.7868" lon="-3.58322">
        <ele>42</ele>
        <time>2019-07-14T12:31:15Z</time>
      </trkpt>
      <trkpt lat="47.78677" lon="-3.58315">
        <ele>42</ele>
        <time>2019-07-14T12:31:16Z</time>
      </trkpt>
      <trkpt lat="47.78674" lon="-3.5831">
        <ele>43</ele>
        <time>2019-07-14T12:31:17Z</time>
      </trkpt>
      <trkpt lat="47.78672" lon="-3.58304">
        <ele>43</ele>
        <time>2019-07-14T12:31:18Z</time>
      </trkpt>
      <trkpt lat="47.7867" lon="-3.58298">
        <ele>43</ele>
        <time>2019-07-14T12:31:19Z</time>
      </trkpt>
      <trkpt lat="47.78668" lon="-3.58294">
        <ele>43</ele>
        <time>2019-07-14T12:31:20Z</time>
      </trkpt>
      <trkpt lat="47.78666" lon="-3.58289">
        <ele>43</ele>
        <time>2019-07-14T12:31:21Z</time>
      </trkpt>
      <trkpt lat="47.78663" lon="-3.58284">
        <ele>43</ele>
        <time>2019-07-14T12:31:22Z</time>
      </trkpt>
      <trkpt lat="47.78661" lon="-3.58278">
        <ele>44</ele>
        <time>2019-07-14T12:31:23Z</time>
      </trkpt>
      <trkpt lat="47.78658" lon="-3.58272">
        <ele>44</ele>
        <time>2019-07-14T12:31:24Z</time>
      </trkpt>
      <trkpt lat="47.78655" lon="-3.58266">
        <ele>44</ele>
        <time>2019-07-14T12:31:25Z</time>
      </trkpt>
      <trkpt lat="47.78652" lon="-3.5826">
        <ele>44</ele>
        <time>2019-07-14T12:31:26Z</time>
      </trkpt>
      <trkpt lat="47.78649" lon="-3.58253">
        <ele>44</ele>
        <time>2019-07-14T12:31:27Z</time>
      </trkpt>
      <trkpt lat="47.78646" lon="-3.58247">
        <ele>45</ele>
        <time>2019-07-14T12:31:28Z</time>
      </trkpt>
      <trkpt lat="47.78643" lon="-3.58241">
        <ele>45</ele>
        <time>2019-07-14T12:31:29Z</time>
      </trkpt>
      <trkpt lat="47.7864" lon="-3.58235">
        <ele>45</ele>
        <time>2019-07-14T12:31:30Z</time>
      </trkpt>
      <trkpt lat="47.78637" lon="-3.58228">
        <ele>45</ele>
        <time>2019-07-14T12:31:31Z</time>
      </trkpt>
      <trkpt lat="47.78634" lon="-3.58222">
        <ele>45</ele>
        <time>2019-07-14T12:31:32Z</time>
      </trkpt>
      <trkpt lat="47.78632" lon="-3.58216">
        <ele>45</ele>
        <time>2019-07-14T12:31:33Z</time>
      </trkpt>
      <trkpt lat="47.78629" lon="-3.58211">
        <ele>46</ele>
        <time>2019-07-14T12:31:34Z</time>
      </trkpt>
      <trkpt lat="47.78628" lon="-3.58206">
        <ele>46</ele>
        <time>2019-07-14T12:31:35Z</time>
      </trkpt>
      <trkpt lat="47.78626" lon="-3.58202">
        <ele>46</ele>
        <time>2019-07-14T12:31:36Z</time>
      </trkpt>
      <trkpt lat="47.78624" lon="-3.58197">
        <ele>46</ele>
        <time>2019-07-14T12:31:37Z</time>
      </trkpt>
      <trkpt lat="47.78622" lon="-3.58192">
        <ele>46</ele>
        <time>2019-07-14T12:31:38Z</time>
      </trkpt>
      <trkpt lat="47.7862" lon="-3.58187">
        <ele>46</ele>
        <time>2019-07-14T12:31:39Z</time>
      </trkpt>
      <trkpt lat="47.78617" lon="-3.58182">
        <ele>46</ele>
        <time>2019-07-14T12:31:40Z</time>
      </trkpt>
      <trkpt lat="47.78614" lon="-3.58177">
        <ele>46</ele>
        <time>2019-07-14T12:31:41Z</time>
      </trkpt>
      <trkpt lat="47.7861" lon="-3.58174">
        <ele>46</ele>
        <time>2019-07-14T12:31:42Z</time>
      </trkpt>
      <trkpt lat="47.78606" lon="-3.58172">
        <ele>46</ele>
        <time>2019-07-14T12:31:43Z</time>
      </trkpt>
      <trkpt lat="47.78601" lon="-3.58172">
        <ele>46</ele>
        <time>2019-07-14T12:31:44Z</time>
      </trkpt>
      <trkpt lat="47.78596" lon="-3.58172">
        <ele>46</ele>
        <time>2019-07-14T12:31:45Z</time>
      </trkpt>
      <trkpt lat="47.78591" lon="-3.58172">
        <ele>46</ele>
        <time>2019-07-14T12:31:46Z</time>
      </trkpt>
      <trkpt lat="47.78586" lon="-3.58172">
        <ele>46</ele>
        <time>2019-07-14T12:31:47Z</time>
      </trkpt>
      <trkpt lat="47.78581" lon="-3.58172">
        <ele>46</ele>
        <time>2019-07-14T12:31:48Z</time>
      </trkpt>
      <trkpt lat="47.78575" lon="-3.58173">
        <ele>46</ele>
        <time>2019-07-14T12:31:49Z</time>
      </trkpt>
      <trkpt lat="47.7857" lon="-3.58173">
        <ele>46</ele>
        <time>2019-07-14T12:31:50Z</time>
      </trkpt>
      <trkpt lat="47.78565" lon="-3.58172">
        <ele>46</ele>
        <time>2019-07-14T12:31:51Z</time>
      </trkpt>
      <trkpt lat="47.7856" lon="-3.58172">
        <ele>46</ele>
        <time>2019-07-14T12:31:52Z</time>
      </trkpt>
      <trkpt lat="47.78554" lon="-3.58171">
        <ele>46</ele>
        <time>2019-07-14T12:31:53Z</time>
      </trkpt>
      <trkpt lat="47.7855" lon="-3.58171">
        <ele>46</ele>
        <time>2019-07-14T12:31:54Z</time>
      </trkpt>
      <trkpt lat="47.78544" lon="-3.5817">
        <ele>46</ele>
        <time>2019-07-14T12:31:55Z</time>
      </trkpt>
      <trkpt lat="47.78539" lon="-3.5817">
        <ele>46</ele>
        <time>2019-07-14T12:31:56Z</time>
      </trkpt>
      <trkpt lat="47.78534" lon="-3.5817">
        <ele>46</ele>
        <time>2019-07-14T12:31:57Z</time>
      </trkpt>
      <trkpt lat="47.78529" lon="-3.58169">
        <ele>46</ele>
        <time>2019-07-14T12:31:58Z</time>
      </trkpt>
      <trkpt lat="47.78524" lon="-3.58168">
        <ele>46</ele>
        <time>2019-07-14T12:31:59Z</time>
      </trkpt>
      <trkpt lat="47.78518" lon="-3.58168">
        <ele>46</ele>
        <time>2019-07-14T12:32:00Z</time>
      </trkpt>
      <trkpt lat="47.78513" lon="-3.58167">
        <ele>47</ele>
        <time>2019-07-14T12:32:01Z</time>
      </trkpt>
      <trkpt lat="47.78508" lon="-3.58167">
        <ele>47</ele>
        <time>2019-07-14T12:32:02Z</time>
      </trkpt>
      <trkpt lat="47.78502" lon="-3.58167">
        <ele>47</ele>
        <time>2019-07-14T12:32:03Z</time>
      </trkpt>
      <trkpt lat="47.78497" lon="-3.58167">
        <ele>47</ele>
        <time>2019-07-14T12:32:04Z</time>
      </trkpt>
      <trkpt lat="47.78492" lon="-3.58166">
        <ele>47</ele>
        <time>2019-07-14T12:32:05Z</time>
      </trkpt>
      <trkpt lat="47.78487" lon="-3.58166">
        <ele>47</ele>
        <time>2019-07-14T12:32:06Z</time>
      </trkpt>
      <trkpt lat="47.78481" lon="-3.58166">
        <ele>47</ele>
        <time>2019-07-14T12:32:07Z</time>
      </trkpt>
      <trkpt lat="47.78477" lon="-3.58166">
        <ele>47</ele>
        <time>2019-07-14T12:32:08Z</time>
      </trkpt>
      <trkpt lat="47.78471" lon="-3.58166">
        <ele>47</ele>
        <time>2019-07-14T12:32:09Z</time>
      </trkpt>
      <trkpt lat="47.78466" lon="-3.58166">
        <ele>47</ele>
        <time>2019-07-14T12:32:10Z</time>
      </trkpt>
      <trkpt lat="47.78461" lon="-3.58166">
        <ele>47</ele>
        <time>2019-07-14T12:32:11Z</time>
      </trkpt>
      <trkpt lat="47.78455" lon="-3.58166">
        <ele>48</ele>
        <time>2019-07-14T12:32:12Z</time>
      </trkpt>
      <trkpt lat="47.7845" lon="-3.58167">
        <ele>48</ele>
        <time>2019-07-14T12:32:13Z</time>
      </trkpt>
      <trkpt lat="47.78445" lon="-3.58167">
        <ele>48</ele>
        <time>2019-07-14T12:32:14Z</time>
      </trkpt>
      <trkpt lat="47.7844" lon="-3.58167">
        <ele>48</ele>
        <time>2019-07-14T12:32:15Z</time>
      </trkpt>
      <trkpt lat="47.78434" lon="-3.58167">
        <ele>48</ele>
        <time>2019-07-14T12:32:16Z</time>
      </trkpt>
      <trkpt lat="47.78429" lon="-3.58168">
        <ele>48</ele>
        <time>2019-07-14T12:32:17Z</time>
      </trkpt>
      <trkpt lat="47.78423" lon="-3.58169">
        <ele>48</ele>
        <time>2019-07-14T12:32:18Z</time>
      </trkpt>
      <trkpt lat="47.78417" lon="-3.58169">
        <ele>48</ele>
        <time>2019-07-14T12:32:19Z</time>
      </trkpt>
      <trkpt lat="47.78411" lon="-3.5817">
        <ele>48</ele>
        <time>2019-07-14T12:32:20Z</time>
      </trkpt>
      <trkpt lat="47.78405" lon="-3.58171">
        <ele>47</ele>
        <time>2019-07-14T12:32:21Z</time>
      </trkpt>
      <trkpt lat="47.78399" lon="-3.58171">
        <ele>47</ele>
        <time>2019-07-14T12:32:22Z</time>
      </trkpt>
      <trkpt lat="47.78393" lon="-3.58172">
        <ele>47</ele>
        <time>2019-07-14T12:32:23Z</time>
      </trkpt>
      <trkpt lat="47.78387" lon="-3.58173">
        <ele>47</ele>
        <time>2019-07-14T12:32:24Z</time>
      </trkpt>
      <trkpt lat="47.78381" lon="-3.58174">
        <ele>47</ele>
        <time>2019-07-14T12:32:25Z</time>
      </trkpt>
      <trkpt lat="47.78375" lon="-3.58173">
        <ele>47</ele>
        <time>2019-07-14T12:32:26Z</time>
      </trkpt>
      <trkpt lat="47.7837" lon="-3.58169">
        <ele>47</ele>
        <time>2019-07-14T12:32:27Z</time>
      </trkpt>
      <trkpt lat="47.78367" lon="-3.58163">
        <ele>47</ele>
        <time>2019-07-14T12:32:28Z</time>
      </trkpt>
      <trkpt lat="47.78366" lon="-3.58155">
        <ele>47</ele>
        <time>2019-07-14T12:32:29Z</time>
      </trkpt>
      <trkpt lat="47.78366" lon="-3.58148">
        <ele>47</ele>
        <time>2019-07-14T12:32:30Z</time>
      </trkpt>
      <trkpt lat="47.78367" lon="-3.5814">
        <ele>47</ele>
        <time>2019-07-14T12:32:31Z</time>
      </trkpt>
      <trkpt lat="47.78367" lon="-3.58133">
        <ele>47</ele>
        <time>2019-07-14T12:32:32Z</time>
      </trkpt>
      <trkpt lat="47.78368" lon="-3.58125">
        <ele>47</ele>
        <time>2019-07-14T12:32:33Z</time>
      </trkpt>
      <trkpt lat="47.78368" lon="-3.58118">
        <ele>47</ele>
        <time>2019-07-14T12:32:34Z</time>
      </trkpt>
      <trkpt lat="47.78368" lon="-3.58111">
        <ele>48</ele>
        <time>2019-07-14T12:32:35Z</time>
      </trkpt>
      <trkpt lat="47.78368" lon="-3.58107">
        <ele>48</ele>
        <time>2019-07-14T12:32:36Z</time>
      </trkpt>
      <trkpt lat="47.78366" lon="-3.58104">
        <ele>48</ele>
        <time>2019-07-14T12:32:37Z</time>
      </trkpt>
      <trkpt lat="47.78364" lon="-3.58102">
        <ele>48</ele>
        <time>2019-07-14T12:32:38Z</time>
      </trkpt>
      <trkpt lat="47.78362" lon="-3.58101">
        <ele>48</ele>
        <time>2019-07-14T12:32:39Z</time>
      </trkpt>
      <trkpt lat="47.78359" lon="-3.58099">
        <ele>48</ele>
        <time>2019-07-14T12:32:40Z</time>
      </trkpt>
      <trkpt lat="47.78355" lon="-3.58097">
        <ele>48</ele>
        <time>2019-07-14T12:32:41Z</time>
      </trkpt>
      <trkpt lat="47.78351" lon="-3.58094">
        <ele>49</ele>
        <time>2019-07-14T12:32:42Z</time>
      </trkpt>
      <trkpt lat="47.78348" lon="-3.5809">
        <ele>49</ele>
        <time>2019-07-14T12:32:43Z</time>
      </trkpt>
      <trkpt lat="47.78344" lon="-3.58086">
        <ele>48</ele>
        <time>2019-07-14T12:32:44Z</time>
      </trkpt>
      <trkpt lat="47.7834" lon="-3.58081">
        <ele>48</ele>
        <time>2019-07-14T12:32:45Z</time>
      </trkpt>
      <trkpt lat="47.78336" lon="-3.58077">
        <ele>48</ele>
        <time>2019-07-14T12:32:46Z</time>
      </trkpt>
      <trkpt lat="47.78331" lon="-3.58072">
        <ele>48</ele>
        <time>2019-07-14T12:32:47Z</time>
      </trkpt>
      <trkpt lat="47.78327" lon="-3.58068">
        <ele>48</ele>
        <time>2019-07-14T12:32:48Z</time>
      </trkpt>
      <trkpt lat="47.78324" lon="-3.58064">
        <ele>48</ele>
        <time>2019-07-14T12:32:49Z</time>
      </trkpt>
      <trkpt lat="47.7832" lon="-3.5806">
        <ele>48</ele>
        <time>2019-07-14T12:32:50Z</time>
      </trkpt>
      <trkpt lat="47.78316" lon="-3.58056">
        <ele>48</ele>
        <time>2019-07-14T12:32:51Z</time>
      </trkpt>
      <trkpt lat="47.78312" lon="-3.58053">
        <ele>48</ele>
        <time>2019-07-14T12:32:52Z</time>
      </trkpt>
      <trkpt lat="47.78308" lon="-3.58049">
        <ele>48</ele>
        <time>2019-07-14T12:32:53Z</time>
      </trkpt>
      <trkpt lat="47.78304" lon="-3.58045">
        <ele>47</ele>
        <time>2019-07-14T12:32:54Z</time>
      </trkpt>
      <trkpt lat="47.783" lon="-3.58041">
        <ele>47</ele>
        <time>2019-07-14T12:32:55Z</time>
      </trkpt>
      <trkpt lat="47.78295" lon="-3.58037">
        <ele>47</ele>
        <time>2019-07-14T12:32:56Z</time>
      </trkpt>
      <trkpt lat="47.78291" lon="-3.58033">
        <ele>47</ele>
        <time>2019-07-14T12:32:57Z</time>
      </trkpt>
      <trkpt lat="47.78287" lon="-3.58029">
        <ele>47</ele>
        <time>2019-07-14T12:32:58Z</time>
      </trkpt>
      <trkpt lat="47.78282" lon="-3.58025">
        <ele>47</ele>
        <time>2019-07-14T12:32:59Z</time>
      </trkpt>
      <trkpt lat="47.78278" lon="-3.5802">
        <ele>46</ele>
        <time>2019-07-14T12:33:00Z</time>
      </trkpt>
      <trkpt lat="47.78274" lon="-3.58016">
        <ele>46</ele>
        <time>2019-07-14T12:33:01Z</time>
      </trkpt>
      <trkpt lat="47.78269" lon="-3.58012">
        <ele>46</ele>
        <time>2019-07-14T12:33:02Z</time>
      </trkpt>
      <trkpt lat="47.78264" lon="-3.58007">
        <ele>46</ele>
        <time>2019-07-14T12:33:03Z</time>
      </trkpt>
      <trkpt lat="47.78259" lon="-3.58003">
        <ele>45</ele>
        <time>2019-07-14T12:33:04Z</time>
      </trkpt>
      <trkpt lat="47.78255" lon="-3.58">
        <ele>45</ele>
        <time>2019-07-14T12:33:05Z</time>
      </trkpt>
      <trkpt lat="47.78251" lon="-3.57996">
        <ele>45</ele>
        <time>2019-07-14T12:33:06Z</time>
      </trkpt>
      <trkpt lat="47.78248" lon="-3.57991">
        <ele>45</ele>
        <time>2019-07-14T12:33:07Z</time>
      </trkpt>
      <trkpt lat="47.78245" lon="-3.57985">
        <ele>45</ele>
        <time>2019-07-14T12:33:08Z</time>
      </trkpt>
      <trkpt lat="47.78243" lon="-3.57978">
        <ele>45</ele>
        <time>2019-07-14T12:33:09Z</time>
      </trkpt>
      <trkpt lat="47.78241" lon="-3.57972">
        <ele>45</ele>
        <time>2019-07-14T12:33:10Z</time>
      </trkpt>
      <trkpt lat="47.78239" lon="-3.57968">
        <ele>45</ele>
        <time>2019-07-14T12:33:11Z</time>
      </trkpt>
      <trkpt lat="47.78236" lon="-3.57966">
        <ele>45</ele>
        <time>2019-07-14T12:33:12Z</time>
      </trkpt>
      <trkpt lat="47.78233" lon="-3.57964">
        <ele>45</ele>
        <time>2019-07-14T12:33:13Z</time>
      </trkpt>
      <trkpt lat="47.78229" lon="-3.57962">
        <ele>45</ele>
        <time>2019-07-14T12:33:14Z</time>
      </trkpt>
      <trkpt lat="47.78225" lon="-3.57961">
        <ele>45</ele>
        <time>2019-07-14T12:33:15Z</time>
      </trkpt>
      <trkpt lat="47.78221" lon="-3.57959">
        <ele>45</ele>
        <time>2019-07-14T12:33:16Z</time>
      </trkpt>
      <trkpt lat="47.78216" lon="-3.57957">
        <ele>45</ele>
        <time>2019-07-14T12:33:17Z</time>
      </trkpt>
      <trkpt lat="47.78211" lon="-3.57955">
        <ele>45</ele>
        <time>2019-07-14T12:33:18Z</time>
      </trkpt>
      <trkpt lat="47.78207" lon="-3.57952">
        <ele>45</ele>
        <time>2019-07-14T12:33:19Z</time>
      </trkpt>
      <trkpt lat="47.78203" lon="-3.57947">
        <ele>45</ele>
        <time>2019-07-14T12:33:20Z</time>
      </trkpt>
      <trkpt lat="47.78202" lon="-3.57941">
        <ele>45</ele>
        <time>2019-07-14T12:33:21Z</time>
      </trkpt>
      <trkpt lat="47.78202" lon="-3.57934">
        <ele>45</ele>
        <time>2019-07-14T12:33:22Z</time>
      </trkpt>
      <trkpt lat="47.78203" lon="-3.57926">
        <ele>45</ele>
        <time>2019-07-14T12:33:23Z</time>
      </trkpt>
      <trkpt lat="47.78204" lon="-3.57917">
        <ele>44</ele>
        <time>2019-07-14T12:33:24Z</time>
      </trkpt>
      <trkpt lat="47.78205" lon="-3.57909">
        <ele>44</ele>
        <time>2019-07-14T12:33:25Z</time>
      </trkpt>
      <trkpt lat="47.78207" lon="-3.579">
        <ele>44</ele>
        <time>2019-07-14T12:33:26Z</time>
      </trkpt>
      <trkpt lat="47.78208" lon="-3.57891">
        <ele>44</ele>
        <time>2019-07-14T12:33:27Z</time>
      </trkpt>
      <trkpt lat="47.78209" lon="-3.57882">
        <ele>44</ele>
        <time>2019-07-14T12:33:28Z</time>
      </trkpt>
      <trkpt lat="47.78211" lon="-3.57873">
        <ele>44</ele>
        <time>2019-07-14T12:33:29Z</time>
      </trkpt>
      <trkpt lat="47.78212" lon="-3.57864">
        <ele>44</ele>
        <time>2019-07-14T12:33:30Z</time>
      </trkpt>
      <trkpt lat="47.78212" lon="-3.57858">
        <ele>44</ele>
        <time>2019-07-14T12:33:31Z</time>
      </trkpt>
      <trkpt lat="47.78211" lon="-3.57853">
        <ele>44</ele>
        <time>2019-07-14T12:33:32Z</time>
      </trkpt>
      <trkpt lat="47.78208" lon="-3.5785">
        <ele>44</ele>
        <time>2019-07-14T12:33:33Z</time>
      </trkpt>
      <trkpt lat="47.78204" lon="-3.57848">
        <ele>44</ele>
        <time>2019-07-14T12:33:34Z</time>
      </trkpt>
      <trkpt lat="47.78201" lon="-3.57846">
        <ele>44</ele>
        <time>2019-07-14T12:33:35Z</time>
      </trkpt>
      <trkpt lat="47.78197" lon="-3.57845">
        <ele>44</ele>
        <time>2019-07-14T12:33:36Z</time>
      </trkpt>
      <trkpt lat="47.78192" lon="-3.57843">
        <ele>44</ele>
        <time>2019-07-14T12:33:37Z</time>
      </trkpt>
      <trkpt lat="47.78186" lon="-3.57841">
        <ele>44</ele>
        <time>2019-07-14T12:33:38Z</time>
      </trkpt>
      <trkpt lat="47.7818" lon="-3.57839">
        <ele>44</ele>
        <time>2019-07-14T12:33:39Z</time>
      </trkpt>
      <trkpt lat="47.78174" lon="-3.57837">
        <ele>44</ele>
        <time>2019-07-14T12:33:40Z</time>
      </trkpt>
      <trkpt lat="47.78168" lon="-3.57836">
        <ele>44</ele>
        <time>2019-07-14T12:33:41Z</time>
      </trkpt>
      <trkpt lat="47.78162" lon="-3.57835">
        <ele>43</ele>
        <time>2019-07-14T12:33:42Z</time>
      </trkpt>
      <trkpt lat="47.78156" lon="-3.57833">
        <ele>43</ele>
        <time>2019-07-14T12:33:43Z</time>
      </trkpt>
      <trkpt lat="47.7815" lon="-3.57833">
        <ele>43</ele>
        <time>2019-07-14T12:33:44Z</time>
      </trkpt>
      <trkpt lat="47.78145" lon="-3.57833">
        <ele>43</ele>
        <time>2019-07-14T12:33:45Z</time>
      </trkpt>
      <trkpt lat="47.7814" lon="-3.57832">
        <ele>43</ele>
        <time>2019-07-14T12:33:46Z</time>
      </trkpt>
      <trkpt lat="47.78137" lon="-3.57829">
        <ele>43</ele>
        <time>2019-07-14T12:33:47Z</time>
      </trkpt>
      <trkpt lat="47.78135" lon="-3.57826">
        <ele>43</ele>
        <time>2019-07-14T12:33:48Z</time>
      </trkpt>
      <trkpt lat="47.78134" lon="-3.57823">
        <ele>43</ele>
        <time>2019-07-14T12:33:49Z</time>
      </trkpt>
      <trkpt lat="47.78134" lon="-3.57819">
        <ele>43</ele>
        <time>2019-07-14T12:33:50Z</time>
      </trkpt>
      <trkpt lat="47.78134" lon="-3.57816">
        <ele>43</ele>
        <time>2019-07-14T12:33:51Z</time>
      </trkpt>
      <trkpt lat="47.78135" lon="-3.57812">
        <ele>43</ele>
        <time>2019-07-14T12:33:52Z</time>
      </trkpt>
      <trkpt lat="47.78135" lon="-3.57808">
        <ele>43</ele>
        <time>2019-07-14T12:33:53Z</time>
      </trkpt>
      <trkpt lat="47.78136" lon="-3.57803">
        <ele>43</ele>
        <time>2019-07-14T12:33:54Z</time>
      </trkpt>
      <trkpt lat="47.78137" lon="-3.57797">
        <ele>43</ele>
        <time>2019-07-14T12:33:55Z</time>
      </trkpt>
      <trkpt lat="47.78138" lon="-3.57791">
        <ele>43</ele>
        <time>2019-07-14T12:33:56Z</time>
      </trkpt>
      <trkpt lat="47.78139" lon="-3.57785">
        <ele>43</ele>
        <time>2019-07-14T12:33:57Z</time>
      </trkpt>
      <trkpt lat="47.78139" lon="-3.57778">
        <ele>43</ele>
        <time>2019-07-14T12:33:58Z</time>
      </trkpt>
      <trkpt lat="47.78139" lon="-3.57773">
        <ele>43</ele>
        <time>2019-07-14T12:33:59Z</time>
      </trkpt>
      <trkpt lat="47.78138" lon="-3.57766">
        <ele>43</ele>
        <time>2019-07-14T12:34:00Z</time>
      </trkpt>
      <trkpt lat="47.78137" lon="-3.5776">
        <ele>42</ele>
        <time>2019-07-14T12:34:01Z</time>
      </trkpt>
      <trkpt lat="47.78137" lon="-3.57753">
        <ele>42</ele>
        <time>2019-07-14T12:34:02Z</time>
      </trkpt>
      <trkpt lat="47.78138" lon="-3.57746">
        <ele>42</ele>
        <time>2019-07-14T12:34:03Z</time>
      </trkpt>
      <trkpt lat="47.78139" lon="-3.57738">
        <ele>42</ele>
        <time>2019-07-14T12:34:04Z</time>
      </trkpt>
      <trkpt lat="47.7814" lon="-3.5773">
        <ele>42</ele>
        <time>2019-07-14T12:34:05Z</time>
      </trkpt>
      <trkpt lat="47.7814" lon="-3.57723">
        <ele>42</ele>
        <time>2019-07-14T12:34:06Z</time>
      </trkpt>
      <trkpt lat="47.7814" lon="-3.57716">
        <ele>42</ele>
        <time>2019-07-14T12:34:07Z</time>
      </trkpt>
      <trkpt lat="47.78139" lon="-3.57708">
        <ele>42</ele>
        <time>2019-07-14T12:34:08Z</time>
      </trkpt>
      <trkpt lat="47.78138" lon="-3.57701">
        <ele>42</ele>
        <time>2019-07-14T12:34:09Z</time>
      </trkpt>
      <trkpt lat="47.78138" lon="-3.57694">
        <ele>42</ele>
        <time>2019-07-14T12:34:10Z</time>
      </trkpt>
      <trkpt lat="47.78137" lon="-3.57687">
        <ele>42</ele>
        <time>2019-07-14T12:34:11Z</time>
      </trkpt>
      <trkpt lat="47.78136" lon="-3.5768">
        <ele>42</ele>
        <time>2019-07-14T12:34:12Z</time>
      </trkpt>
      <trkpt lat="47.78136" lon="-3.57674">
        <ele>42</ele>
        <time>2019-07-14T12:34:13Z</time>
      </trkpt>
      <trkpt lat="47.78135" lon="-3.57667">
        <ele>42</ele>
        <time>2019-07-14T12:34:14Z</time>
      </trkpt>
      <trkpt lat="47.78134" lon="-3.5766">
        <ele>42</ele>
        <time>2019-07-14T12:34:15Z</time>
      </trkpt>
      <trkpt lat="47.78133" lon="-3.57653">
        <ele>42</ele>
        <time>2019-07-14T12:34:16Z</time>
      </trkpt>
      <trkpt lat="47.78132" lon="-3.57646">
        <ele>42</ele>
        <time>2019-07-14T12:34:17Z</time>
      </trkpt>
      <trkpt lat="47.78131" lon="-3.57638">
        <ele>42</ele>
        <time>2019-07-14T12:34:18Z</time>
      </trkpt>
      <trkpt lat="47.78131" lon="-3.57631">
        <ele>42</ele>
        <time>2019-07-14T12:34:19Z</time>
      </trkpt>
      <trkpt lat="47.78131" lon="-3.57623">
        <ele>42</ele>
        <time>2019-07-14T12:34:20Z</time>
      </trkpt>
      <trkpt lat="47.78131" lon="-3.57615">
        <ele>42</ele>
        <time>2019-07-14T12:34:21Z</time>
      </trkpt>
      <trkpt lat="47.78131" lon="-3.57608">
        <ele>42</ele>
        <time>2019-07-14T12:34:22Z</time>
      </trkpt>
      <trkpt lat="47.78131" lon="-3.57599">
        <ele>41</ele>
        <time>2019-07-14T12:34:23Z</time>
      </trkpt>
      <trkpt lat="47.78132" lon="-3.57591">
        <ele>41</ele>
        <time>2019-07-14T12:34:24Z</time>
      </trkpt>
      <trkpt lat="47.78132" lon="-3.57583">
        <ele>41</ele>
        <time>2019-07-14T12:34:25Z</time>
      </trkpt>
      <trkpt lat="47.78132" lon="-3.57575">
        <ele>41</ele>
        <time>2019-07-14T12:34:26Z</time>
      </trkpt>
      <trkpt lat="47.78133" lon="-3.57566">
        <ele>41</ele>
        <time>2019-07-14T12:34:27Z</time>
      </trkpt>
      <trkpt lat="47.78133" lon="-3.57558">
        <ele>40</ele>
        <time>2019-07-14T12:34:28Z</time>
      </trkpt>
      <trkpt lat="47.78132" lon="-3.5755">
        <ele>40</ele>
        <time>2019-07-14T12:34:29Z</time>
      </trkpt>
      <trkpt lat="47.7813" lon="-3.57544">
        <ele>40</ele>
        <time>2019-07-14T12:34:30Z</time>
      </trkpt>
      <trkpt lat="47.78127" lon="-3.57539">
        <ele>40</ele>
        <time>2019-07-14T12:34:31Z</time>
      </trkpt>
      <trkpt lat="47.78123" lon="-3.57535">
        <ele>40</ele>
        <time>2019-07-14T12:34:32Z</time>
      </trkpt>
      <trkpt lat="47.7812" lon="-3.57531">
        <ele>40</ele>
        <time>2019-07-14T12:34:33Z</time>
      </trkpt>
      <trkpt lat="47.78115" lon="-3.57527">
        <ele>40</ele>
        <time>2019-07-14T12:34:34Z</time>
      </trkpt>
      <trkpt lat="47.7811" lon="-3.57524">
        <ele>40</ele>
        <time>2019-07-14T12:34:35Z</time>
      </trkpt>
      <trkpt lat="47.78105" lon="-3.57521">
        <ele>40</ele>
        <time>2019-07-14T12:34:36Z</time>
      </trkpt>
      <trkpt lat="47.781" lon="-3.57517">
        <ele>40</ele>
        <time>2019-07-14T12:34:37Z</time>
      </trkpt>
      <trkpt lat="47.78094" lon="-3.57514">
        <ele>40</ele>
        <time>2019-07-14T12:34:38Z</time>
      </trkpt>
      <trkpt lat="47.78089" lon="-3.57511">
        <ele>40</ele>
        <time>2019-07-14T12:34:39Z</time>
      </trkpt>
      <trkpt lat="47.78084" lon="-3.57507">
        <ele>40</ele>
        <time>2019-07-14T12:34:40Z</time>
      </trkpt>
      <trkpt lat="47.78079" lon="-3.57503">
        <ele>40</ele>
        <time>2019-07-14T12:34:41Z</time>
      </trkpt>
      <trkpt lat="47.78074" lon="-3.57498">
        <ele>40</ele>
        <time>2019-07-14T12:34:42Z</time>
      </trkpt>
      <trkpt lat="47.7807" lon="-3.57493">
        <ele>40</ele>
        <time>2019-07-14T12:34:43Z</time>
      </trkpt>
      <trkpt lat="47.78067" lon="-3.57487">
        <ele>40</ele>
        <time>2019-07-14T12:34:44Z</time>
      </trkpt>
      <trkpt lat="47.78065" lon="-3.57481">
        <ele>40</ele>
        <time>2019-07-14T12:34:45Z</time>
      </trkpt>
      <trkpt lat="47.78064" lon="-3.57474">
        <ele>40</ele>
        <time>2019-07-14T12:34:46Z</time>
      </trkpt>
      <trkpt lat="47.78065" lon="-3.5747">
        <ele>40</ele>
        <time>2019-07-14T12:34:47Z</time>
      </trkpt>
      <trkpt lat="47.78065" lon="-3.57466">
        <ele>40</ele>
        <time>2019-07-14T12:34:48Z</time>
      </trkpt>
      <trkpt lat="47.78064" lon="-3.57463">
        <ele>40</ele>
        <time>2019-07-14T12:34:49Z</time>
      </trkpt>
      <trkpt lat="47.78061" lon="-3.5746">
        <ele>40</ele>
        <time>2019-07-14T12:34:50Z</time>
      </trkpt>
      <trkpt lat="47.78058" lon="-3.57456">
        <ele>40</ele>
        <time>2019-07-14T12:34:51Z</time>
      </trkpt>
      <trkpt lat="47.78055" lon="-3.57452">
        <ele>40</ele>
        <time>2019-07-14T12:34:52Z</time>
      </trkpt>
      <trkpt lat="47.78052" lon="-3.57449">
        <ele>40</ele>
        <time>2019-07-14T12:34:53Z</time>
      </trkpt>
      <trkpt lat="47.78049" lon="-3.57445">
        <ele>40</ele>
        <time>2019-07-14T12:34:54Z</time>
      </trkpt>
      <trkpt lat="47.78046" lon="-3.57439">
        <ele>40</ele>
        <time>2019-07-14T12:34:55Z</time>
      </trkpt>
      <trkpt lat="47.78043" lon="-3.57435">
        <ele>40</ele>
        <time>2019-07-14T12:34:56Z</time>
      </trkpt>
      <trkpt lat="47.7804" lon="-3.57431">
        <ele>40</ele>
        <time>2019-07-14T12:34:57Z</time>
      </trkpt>
      <trkpt lat="47.78037" lon="-3.57427">
        <ele>40</ele>
        <time>2019-07-14T12:34:58Z</time>
      </trkpt>
      <trkpt lat="47.78034" lon="-3.57423">
        <ele>40</ele>
        <time>2019-07-14T12:34:59Z</time>
      </trkpt>
      <trkpt lat="47.78032" lon="-3.57419">
        <ele>40</ele>
        <time>2019-07-14T12:35:00Z</time>
      </trkpt>
      <trkpt lat="47.7803" lon="-3.57414">
        <ele>40</ele>
        <time>2019-07-14T12:35:01Z</time>
      </trkpt>
      <trkpt lat="47.78029" lon="-3.57409">
        <ele>40</ele>
        <time>2019-07-14T12:35:02Z</time>
      </trkpt>
      <trkpt lat="47.78028" lon="-3.57403">
        <ele>40</ele>
        <time>2019-07-14T12:35:03Z</time>
      </trkpt>
      <trkpt lat="47.78027" lon="-3.57397">
        <ele>40</ele>
        <time>2019-07-14T12:35:04Z</time>
      </trkpt>
      <trkpt lat="47.78026" lon="-3.57391">
        <ele>40</ele>
        <time>2019-07-14T12:35:05Z</time>
      </trkpt>
      <trkpt lat="47.78025" lon="-3.57386">
        <ele>40</ele>
        <time>2019-07-14T12:35:06Z</time>
      </trkpt>
      <trkpt lat="47.78023" lon="-3.57381">
        <ele>40</ele>
        <time>2019-07-14T12:35:07Z</time>
      </trkpt>
      <trkpt lat="47.78022" lon="-3.57376">
        <ele>40</ele>
        <time>2019-07-14T12:35:08Z</time>
      </trkpt>
      <trkpt lat="47.78021" lon="-3.57371">
        <ele>40</ele>
        <time>2019-07-14T12:35:09Z</time>
      </trkpt>
      <trkpt lat="47.78019" lon="-3.57367">
        <ele>40</ele>
        <time>2019-07-14T12:35:10Z</time>
      </trkpt>
      <trkpt lat="47.78015" lon="-3.57363">
        <ele>40</ele>
        <time>2019-07-14T12:35:11Z</time>
      </trkpt>
      <trkpt lat="47.78011" lon="-3.5736">
        <ele>40</ele>
        <time>2019-07-14T12:35:12Z</time>
      </trkpt>
      <trkpt lat="47.78007" lon="-3.5736">
        <ele>40</ele>
        <time>2019-07-14T12:35:13Z</time>
      </trkpt>
      <trkpt lat="47.78002" lon="-3.5736">
        <ele>40</ele>
        <time>2019-07-14T12:35:14Z</time>
      </trkpt>
      <trkpt lat="47.77998" lon="-3.5736">
        <ele>40</ele>
        <time>2019-07-14T12:35:15Z</time>
      </trkpt>
      <trkpt lat="47.77993" lon="-3.57359">
        <ele>40</ele>
        <time>2019-07-14T12:35:16Z</time>
      </trkpt>
      <trkpt lat="47.77988" lon="-3.57359">
        <ele>40</ele>
        <time>2019-07-14T12:35:17Z</time>
      </trkpt>
      <trkpt lat="47.77983" lon="-3.57358">
        <ele>40</ele>
        <time>2019-07-14T12:35:18Z</time>
      </trkpt>
      <trkpt lat="47.77978" lon="-3.57357">
        <ele>40</ele>
        <time>2019-07-14T12:35:19Z</time>
      </trkpt>
      <trkpt lat="47.77973" lon="-3.57356">
        <ele>40</ele>
        <time>2019-07-14T12:35:20Z</time>
      </trkpt>
      <trkpt lat="47.77968" lon="-3.57356">
        <ele>40</ele>
        <time>2019-07-14T12:35:21Z</time>
      </trkpt>
      <trkpt lat="47.77963" lon="-3.57355">
        <ele>40</ele>
        <time>2019-07-14T12:35:22Z</time>
      </trkpt>
      <trkpt lat="47.77958" lon="-3.57355">
        <ele>40</ele>
        <time>2019-07-14T12:35:23Z</time>
      </trkpt>
      <trkpt lat="47.77954" lon="-3.57355">
        <ele>40</ele>
        <time>2019-07-14T12:35:24Z</time>
      </trkpt>
      <trkpt lat="47.77949" lon="-3.57354">
        <ele>40</ele>
        <time>2019-07-14T12:35:25Z</time>
      </trkpt>
      <trkpt lat="47.77944" lon="-3.57354">
        <ele>40</ele>
        <time>2019-07-14T12:35:26Z</time>
      </trkpt>
      <trkpt lat="47.7794" lon="-3.57355">
        <ele>40</ele>
        <time>2019-07-14T12:35:27Z</time>
      </trkpt>
      <trkpt lat="47.77936" lon="-3.57355">
        <ele>40</ele>
        <time>2019-07-14T12:35:28Z</time>
      </trkpt>
      <trkpt lat="47.77931" lon="-3.57355">
        <ele>40</ele>
        <time>2019-07-14T12:35:29Z</time>
      </trkpt>
      <trkpt lat="47.77926" lon="-3.57356">
        <ele>41</ele>
        <time>2019-07-14T12:35:30Z</time>
      </trkpt>
      <trkpt lat="47.7792" lon="-3.57357">
        <ele>41</ele>
        <time>2019-07-14T12:35:31Z</time>
      </trkpt>
      <trkpt lat="47.77915" lon="-3.57358">
        <ele>41</ele>
        <time>2019-07-14T12:35:32Z</time>
      </trkpt>
      <trkpt lat="47.7791" lon="-3.57359">
        <ele>41</ele>
        <time>2019-07-14T12:35:33Z</time>
      </trkpt>
      <trkpt lat="47.77904" lon="-3.57359">
        <ele>41</ele>
        <time>2019-07-14T12:35:34Z</time>
      </trkpt>
      <trkpt lat="47.77899" lon="-3.5736">
        <ele>41</ele>
        <time>2019-07-14T12:35:35Z</time>
      </trkpt>
      <trkpt lat="47.77893" lon="-3.57361">
        <ele>41</ele>
        <time>2019-07-14T12:35:36Z</time>
      </trkpt>
      <trkpt lat="47.77887" lon="-3.57362">
        <ele>41</ele>
        <time>2019-07-14T12:35:37Z</time>
      </trkpt>
      <trkpt lat="47.77881" lon="-3.57363">
        <ele>41</ele>
        <time>2019-07-14T12:35:38Z</time>
      </trkpt>
      <trkpt lat="47.77874" lon="-3.57365">
        <ele>41</ele>
        <time>2019-07-14T12:35:39Z</time>
      </trkpt>
      <trkpt lat="47.77869" lon="-3.57366">
        <ele>41</ele>
        <time>2019-07-14T12:35:40Z</time>
      </trkpt>
      <trkpt lat="47.77863" lon="-3.57367">
        <ele>41</ele>
        <time>2019-07-14T12:35:41Z</time>
      </trkpt>
      <trkpt lat="47.77857" lon="-3.57367">
        <ele>41</ele>
        <time>2019-07-14T12:35:42Z</time>
      </trkpt>
      <trkpt lat="47.77851" lon="-3.57367">
        <ele>41</ele>
        <time>2019-07-14T12:35:43Z</time>
      </trkpt>
      <trkpt lat="47.77845" lon="-3.57369">
        <ele>41</ele>
        <time>2019-07-14T12:35:44Z</time>
      </trkpt>
      <trkpt lat="47.7784" lon="-3.57371">
        <ele>40</ele>
        <time>2019-07-14T12:35:45Z</time>
      </trkpt>
      <trkpt lat="47.77834" lon="-3.57372">
        <ele>40</ele>
        <time>2019-07-14T12:35:46Z</time>
      </trkpt>
      <trkpt lat="47.77829" lon="-3.57374">
        <ele>41</ele>
        <time>2019-07-14T12:35:47Z</time>
      </trkpt>
      <trkpt lat="47.77824" lon="-3.57375">
        <ele>41</ele>
        <time>2019-07-14T12:35:48Z</time>
      </trkpt>
      <trkpt lat="47.77818" lon="-3.57376">
        <ele>41</ele>
        <time>2019-07-14T12:35:49Z</time>
      </trkpt>
      <trkpt lat="47.77812" lon="-3.57377">
        <ele>41</ele>
        <time>2019-07-14T12:35:50Z</time>
      </trkpt>
      <trkpt lat="47.77807" lon="-3.57378">
        <ele>41</ele>
        <time>2019-07-14T12:35:51Z</time>
      </trkpt>
      <trkpt lat="47.778" lon="-3.57379">
        <ele>41</ele>
        <time>2019-07-14T12:35:52Z</time>
      </trkpt>
      <trkpt lat="47.77793" lon="-3.5738">
        <ele>40</ele>
        <time>2019-07-14T12:35:53Z</time>
      </trkpt>
      <trkpt lat="47.77787" lon="-3.5738">
        <ele>40</ele>
        <time>2019-07-14T12:35:54Z</time>
      </trkpt>
      <trkpt lat="47.77781" lon="-3.57382">
        <ele>40</ele>
        <time>2019-07-14T12:35:55Z</time>
      </trkpt>
      <trkpt lat="47.77774" lon="-3.57384">
        <ele>40</ele>
        <time>2019-07-14T12:35:56Z</time>
      </trkpt>
      <trkpt lat="47.77768" lon="-3.57386">
        <ele>40</ele>
        <time>2019-07-14T12:35:57Z</time>
      </trkpt>
      <trkpt lat="47.77761" lon="-3.57389">
        <ele>40</ele>
        <time>2019-07-14T12:35:58Z</time>
      </trkpt>
      <trkpt lat="47.77755" lon="-3.5739">
        <ele>39</ele>
        <time>2019-07-14T12:35:59Z</time>
      </trkpt>
      <trkpt lat="47.77749" lon="-3.57392">
        <ele>39</ele>
        <time>2019-07-14T12:36:00Z</time>
      </trkpt>
      <trkpt lat="47.77743" lon="-3.57395">
        <ele>39</ele>
        <time>2019-07-14T12:36:01Z</time>
      </trkpt>
      <trkpt lat="47.77736" lon="-3.57396">
        <ele>39</ele>
        <time>2019-07-14T12:36:02Z</time>
      </trkpt>
      <trkpt lat="47.7773" lon="-3.57398">
        <ele>39</ele>
        <time>2019-07-14T12:36:03Z</time>
      </trkpt>
      <trkpt lat="47.77723" lon="-3.57399">
        <ele>39</ele>
        <time>2019-07-14T12:36:04Z</time>
      </trkpt>
      <trkpt lat="47.77717" lon="-3.574">
        <ele>39</ele>
        <time>2019-07-14T12:36:05Z</time>
      </trkpt>
      <trkpt lat="47.77711" lon="-3.57402">
        <ele>38</ele>
        <time>2019-07-14T12:36:06Z</time>
      </trkpt>
      <trkpt lat="47.77705" lon="-3.57403">
        <ele>38</ele>
        <time>2019-07-14T12:36:07Z</time>
      </trkpt>
      <trkpt lat="47.77699" lon="-3.57405">
        <ele>38</ele>
        <time>2019-07-14T12:36:08Z</time>
      </trkpt>
      <trkpt lat="47.77693" lon="-3.57407">
        <ele>38</ele>
        <time>2019-07-14T12:36:09Z</time>
      </trkpt>
      <trkpt lat="47.77687" lon="-3.57409">
        <ele>38</ele>
        <time>2019-07-14T12:36:10Z</time>
      </trkpt>
      <trkpt lat="47.77681" lon="-3.57413">
        <ele>37</ele>
        <time>2019-07-14T12:36:11Z</time>
      </trkpt>
      <trkpt lat="47.77675" lon="-3.57416">
        <ele>37</ele>
        <time>2019-07-14T12:36:12Z</time>
      </trkpt>
      <trkpt lat="47.77669" lon="-3.5742">
        <ele>37</ele>
        <time>2019-07-14T12:36:13Z</time>
      </trkpt>
      <trkpt lat="47.77662" lon="-3.57423">
        <ele>37</ele>
        <time>2019-07-14T12:36:14Z</time>
      </trkpt>
      <trkpt lat="47.77656" lon="-3.57425">
        <ele>37</ele>
        <time>2019-07-14T12:36:15Z</time>
      </trkpt>
      <trkpt lat="47.7765" lon="-3.57428">
        <ele>37</ele>
        <time>2019-07-14T12:36:16Z</time>
      </trkpt>
      <trkpt lat="47.77644" lon="-3.57431">
        <ele>37</ele>
        <time>2019-07-14T12:36:17Z</time>
      </trkpt>
      <trkpt lat="47.77639" lon="-3.57435">
        <ele>37</ele>
        <time>2019-07-14T12:36:18Z</time>
      </trkpt>
      <trkpt lat="47.77634" lon="-3.5744">
        <ele>37</ele>
        <time>2019-07-14T12:36:19Z</time>
      </trkpt>
      <trkpt lat="47.7763" lon="-3.57445">
        <ele>37</ele>
        <time>2019-07-14T12:36:20Z</time>
      </trkpt>
      <trkpt lat="47.77628" lon="-3.5745">
        <ele>37</ele>
        <time>2019-07-14T12:36:21Z</time>
      </trkpt>
      <trkpt lat="47.77624" lon="-3.57455">
        <ele>37</ele>
        <time>2019-07-14T12:36:22Z</time>
      </trkpt>
      <trkpt lat="47.7762" lon="-3.57459">
        <ele>37</ele>
        <time>2019-07-14T12:36:23Z</time>
      </trkpt>
      <trkpt lat="47.77615" lon="-3.57463">
        <ele>36</ele>
        <time>2019-07-14T12:36:24Z</time>
      </trkpt>
      <trkpt lat="47.77609" lon="-3.57467">
        <ele>36</ele>
        <time>2019-07-14T12:36:25Z</time>
      </trkpt>
      <trkpt lat="47.77603" lon="-3.57471">
        <ele>36</ele>
        <time>2019-07-14T12:36:26Z</time>
      </trkpt>
      <trkpt lat="47.77597" lon="-3.57476">
        <ele>36</ele>
        <time>2019-07-14T12:36:27Z</time>
      </trkpt>
      <trkpt lat="47.77592" lon="-3.57481">
        <ele>36</ele>
        <time>2019-07-14T12:36:28Z</time>
      </trkpt>
      <trkpt lat="47.77587" lon="-3.57487">
        <ele>36</ele>
        <time>2019-07-14T12:36:29Z</time>
      </trkpt>
      <trkpt lat="47.77582" lon="-3.57492">
        <ele>36</ele>
        <time>2019-07-14T12:36:30Z</time>
      </trkpt>
      <trkpt lat="47.77577" lon="-3.57497">
        <ele>35</ele>
        <time>2019-07-14T12:36:31Z</time>
      </trkpt>
      <trkpt lat="47.77572" lon="-3.57501">
        <ele>35</ele>
        <time>2019-07-14T12:36:32Z</time>
      </trkpt>
      <trkpt lat="47.77566" lon="-3.57506">
        <ele>35</ele>
        <time>2019-07-14T12:36:33Z</time>
      </trkpt>
      <trkpt lat="47.77561" lon="-3.5751">
        <ele>35</ele>
        <time>2019-07-14T12:36:34Z</time>
      </trkpt>
      <trkpt lat="47.77555" lon="-3.57514">
        <ele>35</ele>
        <time>2019-07-14T12:36:35Z</time>
      </trkpt>
      <trkpt lat="47.7755" lon="-3.57518">
        <ele>34</ele>
        <time>2019-07-14T12:36:36Z</time>
      </trkpt>
      <trkpt lat="47.77545" lon="-3.57521">
        <ele>34</ele>
        <time>2019-07-14T12:36:37Z</time>
      </trkpt>
      <trkpt lat="47.7754" lon="-3.57522">
        <ele>34</ele>
        <time>2019-07-14T12:36:38Z</time>
      </trkpt>
      <trkpt lat="47.77535" lon="-3.57523">
        <ele>34</ele>
        <time>2019-07-14T12:36:39Z</time>
      </trkpt>
      <trkpt lat="47.77529" lon="-3.57525">
        <ele>34</ele>
        <time>2019-07-14T12:36:40Z</time>
      </trkpt>
      <trkpt lat="47.77523" lon="-3.57527">
        <ele>33</ele>
        <time>2019-07-14T12:36:41Z</time>
      </trkpt>
      <trkpt lat="47.77517" lon="-3.57529">
        <ele>33</ele>
        <time>2019-07-14T12:36:42Z</time>
      </trkpt>
      <trkpt lat="47.77511" lon="-3.57529">
        <ele>33</ele>
        <time>2019-07-14T12:36:43Z</time>
      </trkpt>
      <trkpt lat="47.77503" lon="-3.57529">
        <ele>33</ele>
        <time>2019-07-14T12:36:44Z</time>
      </trkpt>
      <trkpt lat="47.77497" lon="-3.57529">
        <ele>33</ele>
        <time>2019-07-14T12:36:45Z</time>
      </trkpt>
      <trkpt lat="47.7749" lon="-3.57526">
        <ele>32</ele>
        <time>2019-07-14T12:36:46Z</time>
      </trkpt>
      <trkpt lat="47.77485" lon="-3.57523">
        <ele>32</ele>
        <time>2019-07-14T12:36:47Z</time>
      </trkpt>
      <trkpt lat="47.77478" lon="-3.57518">
        <ele>32</ele>
        <time>2019-07-14T12:36:48Z</time>
      </trkpt>
      <trkpt lat="47.77471" lon="-3.57514">
        <ele>32</ele>
        <time>2019-07-14T12:36:49Z</time>
      </trkpt>
      <trkpt lat="47.77464" lon="-3.5751">
        <ele>31</ele>
        <time>2019-07-14T12:36:50Z</time>
      </trkpt>
      <trkpt lat="47.77457" lon="-3.57507">
        <ele>31</ele>
        <time>2019-07-14T12:36:51Z</time>
      </trkpt>
      <trkpt lat="47.7745" lon="-3.57504">
        <ele>31</ele>
        <time>2019-07-14T12:36:52Z</time>
      </trkpt>
      <trkpt lat="47.77443" lon="-3.57504">
        <ele>31</ele>
        <time>2019-07-14T12:36:53Z</time>
      </trkpt>
      <trkpt lat="47.77437" lon="-3.57506">
        <ele>30</ele>
        <time>2019-07-14T12:36:54Z</time>
      </trkpt>
      <trkpt lat="47.77432" lon="-3.57508">
        <ele>30</ele>
        <time>2019-07-14T12:36:55Z</time>
      </trkpt>
      <trkpt lat="47.77428" lon="-3.57508">
        <ele>30</ele>
        <time>2019-07-14T12:36:56Z</time>
      </trkpt>
      <trkpt lat="47.77424" lon="-3.57509">
        <ele>30</ele>
        <time>2019-07-14T12:36:57Z</time>
      </trkpt>
      <trkpt lat="47.7742" lon="-3.57509">
        <ele>30</ele>
        <time>2019-07-14T12:36:58Z</time>
      </trkpt>
      <trkpt lat="47.77415" lon="-3.57509">
        <ele>30</ele>
        <time>2019-07-14T12:36:59Z</time>
      </trkpt>
      <trkpt lat="47.7741" lon="-3.57507">
        <ele>30</ele>
        <time>2019-07-14T12:37:00Z</time>
      </trkpt>
      <trkpt lat="47.77406" lon="-3.57505">
        <ele>30</ele>
        <time>2019-07-14T12:37:01Z</time>
      </trkpt>
      <trkpt lat="47.77401" lon="-3.57503">
        <ele>29</ele>
        <time>2019-07-14T12:37:02Z</time>
      </trkpt>
      <trkpt lat="47.77396" lon="-3.57501">
        <ele>29</ele>
        <time>2019-07-14T12:37:03Z</time>
      </trkpt>
      <trkpt lat="47.77391" lon="-3.57499">
        <ele>29</ele>
        <time>2019-07-14T12:37:04Z</time>
      </trkpt>
      <trkpt lat="47.77386" lon="-3.57497">
        <ele>29</ele>
        <time>2019-07-14T12:37:05Z</time>
      </trkpt>
      <trkpt lat="47.77381" lon="-3.57494">
        <ele>29</ele>
        <time>2019-07-14T12:37:06Z</time>
      </trkpt>
      <trkpt lat="47.77376" lon="-3.57491">
        <ele>29</ele>
        <time>2019-07-14T12:37:07Z</time>
      </trkpt>
      <trkpt lat="47.77371" lon="-3.57488">
        <ele>29</ele>
        <time>2019-07-14T12:37:08Z</time>
      </trkpt>
      <trkpt lat="47.77366" lon="-3.57486">
        <ele>29</ele>
        <time>2019-07-14T12:37:09Z</time>
      </trkpt>
      <trkpt lat="47.77362" lon="-3.57484">
        <ele>29</ele>
        <time>2019-07-14T12:37:10Z</time>
      </trkpt>
      <trkpt lat="47.77357" lon="-3.57483">
        <ele>29</ele>
        <time>2019-07-14T12:37:11Z</time>
      </trkpt>
      <trkpt lat="47.77353" lon="-3.57482">
        <ele>29</ele>
        <time>2019-07-14T12:37:12Z</time>
      </trkpt>
      <trkpt lat="47.77349" lon="-3.57481">
        <ele>29</ele>
        <time>2019-07-14T12:37:13Z</time>
      </trkpt>
      <trkpt lat="47.77344" lon="-3.5748">
        <ele>29</ele>
        <time>2019-07-14T12:37:14Z</time>
      </trkpt>
      <trkpt lat="47.7734" lon="-3.57478">
        <ele>29</ele>
        <time>2019-07-14T12:37:15Z</time>
      </trkpt>
      <trkpt lat="47.77335" lon="-3.57476">
        <ele>29</ele>
        <time>2019-07-14T12:37:16Z</time>
      </trkpt>
      <trkpt lat="47.7733" lon="-3.57475">
        <ele>29</ele>
        <time>2019-07-14T12:37:17Z</time>
      </trkpt>
      <trkpt lat="47.77325" lon="-3.57474">
        <ele>28</ele>
        <time>2019-07-14T12:37:18Z</time>
      </trkpt>
      <trkpt lat="47.7732" lon="-3.57472">
        <ele>28</ele>
        <time>2019-07-14T12:37:19Z</time>
      </trkpt>
      <trkpt lat="47.77315" lon="-3.57471">
        <ele>28</ele>
        <time>2019-07-14T12:37:20Z</time>
      </trkpt>
      <trkpt lat="47.7731" lon="-3.57471">
        <ele>28</ele>
        <time>2019-07-14T12:37:21Z</time>
      </trkpt>
      <trkpt lat="47.77305" lon="-3.57472">
        <ele>28</ele>
        <time>2019-07-14T12:37:22Z</time>
      </trkpt>
      <trkpt lat="47.77299" lon="-3.57474">
        <ele>28</ele>
        <time>2019-07-14T12:37:23Z</time>
      </trkpt>
      <trkpt lat="47.77294" lon="-3.57475">
        <ele>28</ele>
        <time>2019-07-14T12:37:24Z</time>
      </trkpt>
      <trkpt lat="47.77289" lon="-3.57477">
        <ele>28</ele>
        <time>2019-07-14T12:37:25Z</time>
      </trkpt>
      <trkpt lat="47.77285" lon="-3.5748">
        <ele>28</ele>
        <time>2019-07-14T12:37:26Z</time>
      </trkpt>
      <trkpt lat="47.7728" lon="-3.57483">
        <ele>28</ele>
        <time>2019-07-14T12:37:27Z</time>
      </trkpt>
      <trkpt lat="47.77276" lon="-3.57485">
        <ele>28</ele>
        <time>2019-07-14T12:37:28Z</time>
      </trkpt>
      <trkpt lat="47.77271" lon="-3.57487">
        <ele>28</ele>
        <time>2019-07-14T12:37:29Z</time>
      </trkpt>
      <trkpt lat="47.77266" lon="-3.5749">
        <ele>28</ele>
        <time>2019-07-14T12:37:30Z</time>
      </trkpt>
      <trkpt lat="47.77261" lon="-3.57491">
        <ele>28</ele>
        <time>2019-07-14T12:37:31Z</time>
      </trkpt>
      <trkpt lat="47.77256" lon="-3.57493">
        <ele>28</ele>
        <time>2019-07-14T12:37:32Z</time>
      </trkpt>
      <trkpt lat="47.77251" lon="-3.57495">
        <ele>28</ele>
        <time>2019-07-14T12:37:33Z</time>
      </trkpt>
      <trkpt lat="47.77246" lon="-3.57497">
        <ele>28</ele>
        <time>2019-07-14T12:37:34Z</time>
      </trkpt>
      <trkpt lat="47.77242" lon="-3.57495">
        <ele>28</ele>
        <time>2019-07-14T12:37:35Z</time>
      </trkpt>
      <trkpt lat="47.77239" lon="-3.57492">
        <ele>28</ele>
        <time>2019-07-14T12:37:36Z</time>
      </trkpt>
      <trkpt lat="47.77237" lon="-3.57487">
        <ele>28</ele>
        <time>2019-07-14T12:37:37Z</time>
      </trkpt>
      <trkpt lat="47.77236" lon="-3.57483">
        <ele>28</ele>
        <time>2019-07-14T12:37:38Z</time>
      </trkpt>
      <trkpt lat="47.77236" lon="-3.57477">
        <ele>28</ele>
        <time>2019-07-14T12:37:39Z</time>
      </trkpt>
      <trkpt lat="47.77237" lon="-3.57471">
        <ele>28</ele>
        <time>2019-07-14T12:37:40Z</time>
      </trkpt>
      <trkpt lat="47.77239" lon="-3.57465">
        <ele>28</ele>
        <time>2019-07-14T12:37:41Z</time>
      </trkpt>
      <trkpt lat="47.77241" lon="-3.57459">
        <ele>28</ele>
        <time>2019-07-14T12:37:42Z</time>
      </trkpt>
      <trkpt lat="47.77244" lon="-3.57453">
        <ele>28</ele>
        <time>2019-07-14T12:37:43Z</time>
      </trkpt>
      <trkpt lat="47.77246" lon="-3.57447">
        <ele>28</ele>
        <time>2019-07-14T12:37:44Z</time>
      </trkpt>
      <trkpt lat="47.77247" lon="-3.57441">
        <ele>28</ele>
        <time>2019-07-14T12:37:45Z</time>
      </trkpt>
      <trkpt lat="47.7725" lon="-3.57434">
        <ele>28</ele>
        <time>2019-07-14T12:37:46Z</time>
      </trkpt>
      <trkpt lat="47.77252" lon="-3.57426">
        <ele>28</ele>
        <time>2019-07-14T12:37:47Z</time>
      </trkpt>
      <trkpt lat="47.77254" lon="-3.57418">
        <ele>28</ele>
        <time>2019-07-14T12:37:48Z</time>
      </trkpt>
      <trkpt lat="47.77256" lon="-3.57409">
        <ele>28</ele>
        <time>2019-07-14T12:37:49Z</time>
      </trkpt>
      <trkpt lat="47.77257" lon="-3.57399">
        <ele>28</ele>
        <time>2019-07-14T12:37:50Z</time>
      </trkpt>
      <trkpt lat="47.77258" lon="-3.5739">
        <ele>28</ele>
        <time>2019-07-14T12:37:51Z</time>
      </trkpt>
      <trkpt lat="47.7726" lon="-3.57384">
        <ele>27</ele>
        <time>2019-07-14T12:37:52Z</time>
      </trkpt>
      <trkpt lat="47.7726" lon="-3.57378">
        <ele>27</ele>
        <time>2019-07-14T12:37:53Z</time>
      </trkpt>
      <trkpt lat="47.77262" lon="-3.57371">
        <ele>27</ele>
        <time>2019-07-14T12:37:54Z</time>
      </trkpt>
      <trkpt lat="47.77264" lon="-3.57365">
        <ele>27</ele>
        <time>2019-07-14T12:37:55Z</time>
      </trkpt>
      <trkpt lat="47.77266" lon="-3.57361">
        <ele>26</ele>
        <time>2019-07-14T12:37:56Z</time>
      </trkpt>
      <trkpt lat="47.77267" lon="-3.57356">
        <ele>26</ele>
        <time>2019-07-14T12:37:57Z</time>
      </trkpt>
      <trkpt lat="47.77267" lon="-3.57351">
        <ele>26</ele>
        <time>2019-07-14T12:37:58Z</time>
      </trkpt>
      <trkpt lat="47.77267" lon="-3.57347">
        <ele>25</ele>
        <time>2019-07-14T12:37:59Z</time>
      </trkpt>
      <trkpt lat="47.77267" lon="-3.57344">
        <ele>25</ele>
        <time>2019-07-14T12:38:00Z</time>
      </trkpt>
      <trkpt lat="47.77265" lon="-3.57341">
        <ele>25</ele>
        <time>2019-07-14T12:38:01Z</time>
      </trkpt>
      <trkpt lat="47.77264" lon="-3.5734">
        <ele>25</ele>
        <time>2019-07-14T12:38:02Z</time>
      </trkpt>
      <trkpt lat="47.77261" lon="-3.57339">
        <ele>25</ele>
        <time>2019-07-14T12:38:03Z</time>
      </trkpt>
      <trkpt lat="47.77259" lon="-3.57339">
        <ele>25</ele>
        <time>2019-07-14T12:38:04Z</time>
      </trkpt>
      <trkpt lat="47.77257" lon="-3.57338">
        <ele>25</ele>
        <time>2019-07-14T12:38:05Z</time>
      </trkpt>
      <trkpt lat="47.77254" lon="-3.57338">
        <ele>25</ele>
        <time>2019-07-14T12:38:06Z</time>
      </trkpt>
      <trkpt lat="47.77252" lon="-3.57339">
        <ele>24</ele>
        <time>2019-07-14T12:38:07Z</time>
      </trkpt>
      <trkpt lat="47.7725" lon="-3.57338">
        <ele>24</ele>
        <time>2019-07-14T12:38:08Z</time>
      </trkpt>
      <trkpt lat="47.77247" lon="-3.57338">
        <ele>24</ele>
        <time>2019-07-14T12:38:09Z</time>
      </trkpt>
      <trkpt lat="47.77245" lon="-3.57338">
        <ele>24</ele>
        <time>2019-07-14T12:38:10Z</time>
      </trkpt>
      <trkpt lat="47.77243" lon="-3.57338">
        <ele>24</ele>
        <time>2019-07-14T12:38:11Z</time>
      </trkpt>
      <trkpt lat="47.7724" lon="-3.57337">
        <ele>24</ele>
        <time>2019-07-14T12:38:12Z</time>
      </trkpt>
      <trkpt lat="47.77237" lon="-3.57337">
        <ele>24</ele>
        <time>2019-07-14T12:38:13Z</time>
      </trkpt>
      <trkpt lat="47.77235" lon="-3.57336">
        <ele>24</ele>
        <time>2019-07-14T12:38:14Z</time>
      </trkpt>
      <trkpt lat="47.77232" lon="-3.57336">
        <ele>24</ele>
        <time>2019-07-14T12:38:15Z</time>
      </trkpt>
      <trkpt lat="47.77229" lon="-3.57336">
        <ele>24</ele>
        <time>2019-07-14T12:38:16Z</time>
      </trkpt>
      <trkpt lat="47.77225" lon="-3.57337">
        <ele>24</ele>
        <time>2019-07-14T12:38:17Z</time>
      </trkpt>
      <trkpt lat="47.77223" lon="-3.57337">
        <ele>24</ele>
        <time>2019-07-14T12:38:18Z</time>
      </trkpt>
      <trkpt lat="47.77219" lon="-3.57337">
        <ele>24</ele>
        <time>2019-07-14T12:38:19Z</time>
      </trkpt>
      <trkpt lat="47.77215" lon="-3.57337">
        <ele>23</ele>
        <time>2019-07-14T12:38:20Z</time>
      </trkpt>
      <trkpt lat="47.77212" lon="-3.57337">
        <ele>23</ele>
        <time>2019-07-14T12:38:21Z</time>
      </trkpt>
      <trkpt lat="47.77208" lon="-3.57337">
        <ele>23</ele>
        <time>2019-07-14T12:38:22Z</time>
      </trkpt>
      <trkpt lat="47.77204" lon="-3.57337">
        <ele>23</ele>
        <time>2019-07-14T12:38:23Z</time>
      </trkpt>
      <trkpt lat="47.772" lon="-3.57338">
        <ele>23</ele>
        <time>2019-07-14T12:38:24Z</time>
      </trkpt>
      <trkpt lat="47.77195" lon="-3.57339">
        <ele>23</ele>
        <time>2019-07-14T12:38:25Z</time>
      </trkpt>
      <trkpt lat="47.77192" lon="-3.57339">
        <ele>23</ele>
        <time>2019-07-14T12:38:26Z</time>
      </trkpt>
      <trkpt lat="47.77188" lon="-3.5734">
        <ele>23</ele>
        <time>2019-07-14T12:38:27Z</time>
      </trkpt>
      <trkpt lat="47.77184" lon="-3.57341">
        <ele>23</ele>
        <time>2019-07-14T12:38:28Z</time>
      </trkpt>
      <trkpt lat="47.77181" lon="-3.57343">
        <ele>23</ele>
        <time>2019-07-14T12:38:29Z</time>
      </trkpt>
      <trkpt lat="47.77178" lon="-3.57345">
        <ele>23</ele>
        <time>2019-07-14T12:38:30Z</time>
      </trkpt>
      <trkpt lat="47.77175" lon="-3.57348">
        <ele>23</ele>
        <time>2019-07-14T12:38:31Z</time>
      </trkpt>
      <trkpt lat="47.77172" lon="-3.5735">
        <ele>23</ele>
        <time>2019-07-14T12:38:32Z</time>
      </trkpt>
      <trkpt lat="47.77168" lon="-3.57352">
        <ele>23</ele>
        <time>2019-07-14T12:38:33Z</time>
      </trkpt>
      <trkpt lat="47.77165" lon="-3.57355">
        <ele>23</ele>
        <time>2019-07-14T12:38:34Z</time>
      </trkpt>
      <trkpt lat="47.77162" lon="-3.57358">
        <ele>24</ele>
        <time>2019-07-14T12:38:35Z</time>
      </trkpt>
      <trkpt lat="47.7716" lon="-3.57362">
        <ele>24</ele>
        <time>2019-07-14T12:38:36Z</time>
      </trkpt>
      <trkpt lat="47.77158" lon="-3.57366">
        <ele>24</ele>
        <time>2019-07-14T12:38:37Z</time>
      </trkpt>
      <trkpt lat="47.77156" lon="-3.5737">
        <ele>24</ele>
        <time>2019-07-14T12:38:38Z</time>
      </trkpt>
      <trkpt lat="47.77155" lon="-3.57376">
        <ele>24</ele>
        <time>2019-07-14T12:38:39Z</time>
      </trkpt>
      <trkpt lat="47.77154" lon="-3.57381">
        <ele>25</ele>
        <time>2019-07-14T12:38:40Z</time>
      </trkpt>
      <trkpt lat="47.77154" lon="-3.57386">
        <ele>25</ele>
        <time>2019-07-14T12:38:41Z</time>
      </trkpt>
      <trkpt lat="47.77154" lon="-3.57391">
        <ele>25</ele>
        <time>2019-07-14T12:38:42Z</time>
      </trkpt>
      <trkpt lat="47.77155" lon="-3.57396">
        <ele>25</ele>
        <time>2019-07-14T12:38:43Z</time>
      </trkpt>
      <trkpt lat="47.77155" lon="-3.57402">
        <ele>25</ele>
        <time>2019-07-14T12:38:44Z</time>
      </trkpt>
      <trkpt lat="47.77156" lon="-3.57406">
        <ele>26</ele>
        <time>2019-07-14T12:38:45Z</time>
      </trkpt>
      <trkpt lat="47.77155" lon="-3.57411">
        <ele>26</ele>
        <time>2019-07-14T12:38:46Z</time>
      </trkpt>
      <trkpt lat="47.77154" lon="-3.57415">
        <ele>26</ele>
        <time>2019-07-14T12:38:47Z</time>
      </trkpt>
      <trkpt lat="47.77153" lon="-3.57416">
        <ele>26</ele>
        <time>2019-07-14T12:38:48Z</time>
      </trkpt>
      <trkpt lat="47.77151" lon="-3.57417">
        <ele>26</ele>
        <time>2019-07-14T12:38:49Z</time>
      </trkpt>
      <trkpt lat="47.77149" lon="-3.57416">
        <ele>26</ele>
        <time>2019-07-14T12:38:50Z</time>
      </trkpt>
      <trkpt lat="47.77146" lon="-3.57414">
        <ele>26</ele>
        <time>2019-07-14T12:38:51Z</time>
      </trkpt>
      <trkpt lat="47.77142" lon="-3.57412">
        <ele>26</ele>
        <time>2019-07-14T12:38:52Z</time>
      </trkpt>
      <trkpt lat="47.77138" lon="-3.57411">
        <ele>26</ele>
        <time>2019-07-14T12:38:53Z</time>
      </trkpt>
      <trkpt lat="47.77134" lon="-3.5741">
        <ele>26</ele>
        <time>2019-07-14T12:38:54Z</time>
      </trkpt>
      <trkpt lat="47.7713" lon="-3.5741">
        <ele>26</ele>
        <time>2019-07-14T12:38:55Z</time>
      </trkpt>
      <trkpt lat="47.77127" lon="-3.5741">
        <ele>26</ele>
        <time>2019-07-14T12:38:56Z</time>
      </trkpt>
      <trkpt lat="47.77125" lon="-3.5741">
        <ele>25</ele>
        <time>2019-07-14T12:38:57Z</time>
      </trkpt>
      <trkpt lat="47.77123" lon="-3.5741">
        <ele>25</ele>
        <time>2019-07-14T12:38:58Z</time>
      </trkpt>
      <trkpt lat="47.77123" lon="-3.5741">
        <ele>25</ele>
        <time>2019-07-14T12:38:59Z</time>
      </trkpt>
      <trkpt lat="47.77123" lon="-3.57411">
        <ele>25</ele>
        <time>2019-07-14T12:39:00Z</time>
      </trkpt>
      <trkpt lat="47.77123" lon="-3.57411">
        <ele>25</ele>
        <time>2019-07-14T12:39:01Z</time>
      </trkpt>
      <trkpt lat="47.77126" lon="-3.57411">
        <ele>26</ele>
        <time>2019-07-14T12:39:02Z</time>
      </trkpt>
      <trkpt lat="47.77127" lon="-3.57412">
        <ele>26</ele>
        <time>2019-07-14T12:39:03Z</time>
      </trkpt>
      <trkpt lat="47.77128" lon="-3.57412">
        <ele>26</ele>
        <time>2019-07-14T12:39:04Z</time>
      </trkpt>
      <trkpt lat="47.77129" lon="-3.57413">
        <ele>26</ele>
        <time>2019-07-14T12:39:05Z</time>
      </trkpt>
      <trkpt lat="47.77128" lon="-3.57415">
        <ele>26</ele>
        <time>2019-07-14T12:39:06Z</time>
      </trkpt>
      <trkpt lat="47.77128" lon="-3.57415">
        <ele>26</ele>
        <time>2019-07-14T12:39:07Z</time>
      </trkpt>
      <trkpt lat="47.77127" lon="-3.57416">
        <ele>26</ele>
        <time>2019-07-14T12:39:08Z</time>
      </trkpt>
      <trkpt lat="47.77122" lon="-3.57418">
        <ele>26</ele>
        <time>2019-07-14T12:39:09Z</time>
      </trkpt>
      <trkpt lat="47.77119" lon="-3.57417">
        <ele>26</ele>
        <time>2019-07-14T12:39:10Z</time>
      </trkpt>
      <trkpt lat="47.77116" lon="-3.57416">
        <ele>26</ele>
        <time>2019-07-14T12:39:11Z</time>
      </trkpt>
      <trkpt lat="47.77113" lon="-3.57415">
        <ele>25</ele>
        <time>2019-07-14T12:39:12Z</time>
      </trkpt>
      <trkpt lat="47.7711" lon="-3.57415">
        <ele>25</ele>
        <time>2019-07-14T12:39:13Z</time>
      </trkpt>
      <trkpt lat="47.77107" lon="-3.57415">
        <ele>25</ele>
        <time>2019-07-14T12:39:14Z</time>
      </trkpt>
      <trkpt lat="47.77105" lon="-3.57415">
        <ele>25</ele>
        <time>2019-07-14T12:39:15Z</time>
      </trkpt>
      <trkpt lat="47.77102" lon="-3.57416">
        <ele>25</ele>
        <time>2019-07-14T12:39:16Z</time>
      </trkpt>
      <trkpt lat="47.77097" lon="-3.57415">
        <ele>25</ele>
        <time>2019-07-14T12:39:17Z</time>
      </trkpt>
      <trkpt lat="47.77093" lon="-3.57413">
        <ele>24</ele>
        <time>2019-07-14T12:39:18Z</time>
      </trkpt>
      <trkpt lat="47.77089" lon="-3.5741">
        <ele>24</ele>
        <time>2019-07-14T12:39:19Z</time>
      </trkpt>
      <trkpt lat="47.77084" lon="-3.57407">
        <ele>24</ele>
        <time>2019-07-14T12:39:20Z</time>
      </trkpt>
      <trkpt lat="47.77079" lon="-3.57403">
        <ele>24</ele>
        <time>2019-07-14T12:39:21Z</time>
      </trkpt>
      <trkpt lat="47.77074" lon="-3.57399">
        <ele>24</ele>
        <time>2019-07-14T12:39:22Z</time>
      </trkpt>
      <trkpt lat="47.7707" lon="-3.57395">
        <ele>23</ele>
        <time>2019-07-14T12:39:23Z</time>
      </trkpt>
      <trkpt lat="47.77065" lon="-3.57392">
        <ele>23</ele>
        <time>2019-07-14T12:39:24Z</time>
      </trkpt>
      <trkpt lat="47.7706" lon="-3.57389">
        <ele>23</ele>
        <time>2019-07-14T12:39:25Z</time>
      </trkpt>
      <trkpt lat="47.77055" lon="-3.57384">
        <ele>23</ele>
        <time>2019-07-14T12:39:26Z</time>
      </trkpt>
      <trkpt lat="47.77049" lon="-3.57378">
        <ele>23</ele>
        <time>2019-07-14T12:39:27Z</time>
      </trkpt>
      <trkpt lat="47.77042" lon="-3.57371">
        <ele>22</ele>
        <time>2019-07-14T12:39:28Z</time>
      </trkpt>
      <trkpt lat="47.77035" lon="-3.57365">
        <ele>22</ele>
        <time>2019-07-14T12:39:29Z</time>
      </trkpt>
      <trkpt lat="47.77028" lon="-3.57362">
        <ele>21</ele>
        <time>2019-07-14T12:39:30Z</time>
      </trkpt>
      <trkpt lat="47.77021" lon="-3.5736">
        <ele>20</ele>
        <time>2019-07-14T12:39:31Z</time>
      </trkpt>
      <trkpt lat="47.77014" lon="-3.57359">
        <ele>20</ele>
        <time>2019-07-14T12:39:32Z</time>
      </trkpt>
      <trkpt lat="47.77007" lon="-3.57358">
        <ele>19</ele>
        <time>2019-07-14T12:39:33Z</time>
      </trkpt>
      <trkpt lat="47.77" lon="-3.57356">
        <ele>19</ele>
        <time>2019-07-14T12:39:34Z</time>
      </trkpt>
      <trkpt lat="47.76995" lon="-3.57356">
        <ele>18</ele>
        <time>2019-07-14T12:39:35Z</time>
      </trkpt>
      <trkpt lat="47.76991" lon="-3.57355">
        <ele>18</ele>
        <time>2019-07-14T12:39:36Z</time>
      </trkpt>
      <trkpt lat="47.7699" lon="-3.57355">
        <ele>17</ele>
        <time>2019-07-14T12:39:37Z</time>
      </trkpt>
      <trkpt lat="47.76991" lon="-3.57353">
        <ele>17</ele>
        <time>2019-07-14T12:39:38Z</time>
      </trkpt>
      <trkpt lat="47.76991" lon="-3.5735">
        <ele>17</ele>
        <time>2019-07-14T12:39:39Z</time>
      </trkpt>
      <trkpt lat="47.76993" lon="-3.57349">
        <ele>17</ele>
        <time>2019-07-14T12:39:40Z</time>
      </trkpt>
      <trkpt lat="47.76995" lon="-3.57348">
        <ele>16</ele>
        <time>2019-07-14T12:39:41Z</time>
      </trkpt>
      <trkpt lat="47.76997" lon="-3.57346">
        <ele>16</ele>
        <time>2019-07-14T12:39:42Z</time>
      </trkpt>
      <trkpt lat="47.77" lon="-3.57344">
        <ele>16</ele>
        <time>2019-07-14T12:39:43Z</time>
      </trkpt>
      <trkpt lat="47.77003" lon="-3.57341">
        <ele>15</ele>
        <time>2019-07-14T12:39:44Z</time>
      </trkpt>
      <trkpt lat="47.77006" lon="-3.57338">
        <ele>15</ele>
        <time>2019-07-14T12:39:45Z</time>
      </trkpt>
      <trkpt lat="47.77009" lon="-3.57336">
        <ele>15</ele>
        <time>2019-07-14T12:39:46Z</time>
      </trkpt>
      <trkpt lat="47.77013" lon="-3.57333">
        <ele>14</ele>
        <time>2019-07-14T12:39:47Z</time>
      </trkpt>
      <trkpt lat="47.77017" lon="-3.5733">
        <ele>14</ele>
        <time>2019-07-14T12:39:48Z</time>
      </trkpt>
      <trkpt lat="47.77021" lon="-3.57327">
        <ele>14</ele>
        <time>2019-07-14T12:39:49Z</time>
      </trkpt>
      <trkpt lat="47.77024" lon="-3.57323">
        <ele>13</ele>
        <time>2019-07-14T12:39:50Z</time>
      </trkpt>
      <trkpt lat="47.77024" lon="-3.57319">
        <ele>13</ele>
        <time>2019-07-14T12:39:51Z</time>
      </trkpt>
      <trkpt lat="47.77023" lon="-3.57315">
        <ele>13</ele>
        <time>2019-07-14T12:39:52Z</time>
      </trkpt>
      <trkpt lat="47.77022" lon="-3.57311">
        <ele>12</ele>
        <time>2019-07-14T12:39:53Z</time>
      </trkpt>
      <trkpt lat="47.77021" lon="-3.57308">
        <ele>12</ele>
        <time>2019-07-14T12:39:54Z</time>
      </trkpt>
      <trkpt lat="47.77019" lon="-3.57306">
        <ele>11</ele>
        <time>2019-07-14T12:39:55Z</time>
      </trkpt>
      <trkpt lat="47.77017" lon="-3.57304">
        <ele>11</ele>
        <time>2019-07-14T12:39:56Z</time>
      </trkpt>
      <trkpt lat="47.77015" lon="-3.57302">
        <ele>11</ele>
        <time>2019-07-14T12:39:57Z</time>
      </trkpt>
      <trkpt lat="47.77014" lon="-3.573">
        <ele>10</ele>
        <time>2019-07-14T12:39:58Z</time>
      </trkpt>
      <trkpt lat="47.77013" lon="-3.57299">
        <ele>10</ele>
        <time>2019-07-14T12:39:59Z</time>
      </trkpt>
      <trkpt lat="47.77011" lon="-3.57297">
        <ele>9</ele>
        <time>2019-07-14T12:40:00Z</time>
      </trkpt>
      <trkpt lat="47.7701" lon="-3.57296">
        <ele>9</ele>
        <time>2019-07-14T12:40:01Z</time>
      </trkpt>
      <trkpt lat="47.77009" lon="-3.57295">
        <ele>9</ele>
        <time>2019-07-14T12:40:02Z</time>
      </trkpt>
      <trkpt lat="47.77008" lon="-3.57293">
        <ele>8</ele>
        <time>2019-07-14T12:40:03Z</time>
      </trkpt>
      <trkpt lat="47.77007" lon="-3.57291">
        <ele>8</ele>
        <time>2019-07-14T12:40:04Z</time>
      </trkpt>
      <trkpt lat="47.77006" lon="-3.5729">
        <ele>8</ele>
        <time>2019-07-14T12:40:05Z</time>
      </trkpt>
      <trkpt lat="47.77004" lon="-3.57288">
        <ele>7</ele>
        <time>2019-07-14T12:40:06Z</time>
      </trkpt>
      <trkpt lat="47.77004" lon="-3.57287">
        <ele>7</ele>
        <time>2019-07-14T12:40:07Z</time>
      </trkpt>
      <trkpt lat="47.77003" lon="-3.57285">
        <ele>7</ele>
        <time>2019-07-14T12:40:08Z</time>
      </trkpt>
      <trkpt lat="47.77001" lon="-3.57283">
        <ele>7</ele>
        <time>2019-07-14T12:40:09Z</time>
      </trkpt>
      <trkpt lat="47.77" lon="-3.57281">
        <ele>6</ele>
        <time>2019-07-14T12:40:10Z</time>
      </trkpt>
      <trkpt lat="47.76999" lon="-3.57279">
        <ele>6</ele>
        <time>2019-07-14T12:40:11Z</time>
      </trkpt>
      <trkpt lat="47.76997" lon="-3.57277">
        <ele>6</ele>
        <time>2019-07-14T12:40:12Z</time>
      </trkpt>
      <trkpt lat="47.76996" lon="-3.57275">
        <ele>6</ele>
        <time>2019-07-14T12:40:13Z</time>
      </trkpt>
      <trkpt lat="47.76994" lon="-3.57273">
        <ele>6</ele>
        <time>2019-07-14T12:40:14Z</time>
      </trkpt>
      <trkpt lat="47.76993" lon="-3.57271">
        <ele>6</ele>
        <time>2019-07-14T12:40:15Z</time>
      </trkpt>
      <trkpt lat="47.76992" lon="-3.57269">
        <ele>6</ele>
        <time>2019-07-14T12:40:16Z</time>
      </trkpt>
      <trkpt lat="47.76991" lon="-3.57267">
        <ele>6</ele>
        <time>2019-07-14T12:40:17Z</time>
      </trkpt>
      <trkpt lat="47.7699" lon="-3.57265">
        <ele>6</ele>
        <time>2019-07-14T12:40:18Z</time>
      </trkpt>
      <trkpt lat="47.76989" lon="-3.57262">
        <ele>6</ele>
        <time>2019-07-14T12:40:19Z</time>
      </trkpt>
      <trkpt lat="47.76988" lon="-3.5726">
        <ele>6</ele>
        <time>2019-07-14T12:40:20Z</time>
      </trkpt>
      <trkpt lat="47.76988" lon="-3.57258">
        <ele>6</ele>
        <time>2019-07-14T12:40:21Z</time>
      </trkpt>
      <trkpt lat="47.76987" lon="-3.57256">
        <ele>6</ele>
        <time>2019-07-14T12:40:22Z</time>
      </trkpt>
      <trkpt lat="47.76986" lon="-3.57253">
        <ele>6</ele>
        <time>2019-07-14T12:40:23Z</time>
      </trkpt>
      <trkpt lat="47.76985" lon="-3.57251">
        <ele>6</ele>
        <time>2019-07-14T12:40:24Z</time>
      </trkpt>
      <trkpt lat="47.76984" lon="-3.57249">
        <ele>6</ele>
        <time>2019-07-14T12:40:25Z</time>
      </trkpt>
      <trkpt lat="47.76983" lon="-3.57248">
        <ele>6</ele>
        <time>2019-07-14T12:40:26Z</time>
      </trkpt>
      <trkpt lat="47.76982" lon="-3.57245">
        <ele>6</ele>
        <time>2019-07-14T12:40:27Z</time>
      </trkpt>
      <trkpt lat="47.76981" lon="-3.57244">
        <ele>6</ele>
        <time>2019-07-14T12:40:28Z</time>
      </trkpt>
      <trkpt lat="47.7698" lon="-3.57242">
        <ele>6</ele>
        <time>2019-07-14T12:40:29Z</time>
      </trkpt>
      <trkpt lat="47.7698" lon="-3.5724">
        <ele>6</ele>
        <time>2019-07-14T12:40:30Z</time>
      </trkpt>
      <trkpt lat="47.76978" lon="-3.57238">
        <ele>6</ele>
        <time>2019-07-14T12:40:31Z</time>
      </trkpt>
      <trkpt lat="47.76978" lon="-3.57236">
        <ele>6</ele>
        <time>2019-07-14T12:40:32Z</time>
      </trkpt>
      <trkpt lat="47.76977" lon="-3.57234">
        <ele>6</ele>
        <time>2019-07-14T12:40:33Z</time>
      </trkpt>
      <trkpt lat="47.76976" lon="-3.57231">
        <ele>6</ele>
        <time>2019-07-14T12:40:34Z</time>
      </trkpt>
      <trkpt lat="47.76975" lon="-3.57229">
        <ele>7</ele>
        <time>2019-07-14T12:40:35Z</time>
      </trkpt>
      <trkpt lat="47.76974" lon="-3.57227">
        <ele>7</ele>
        <time>2019-07-14T12:40:36Z</time>
      </trkpt>
      <trkpt lat="47.76974" lon="-3.57224">
        <ele>7</ele>
        <time>2019-07-14T12:40:37Z</time>
      </trkpt>
      <trkpt lat="47.76973" lon="-3.57221">
        <ele>8</ele>
        <time>2019-07-14T12:40:38Z</time>
      </trkpt>
      <trkpt lat="47.76972" lon="-3.57219">
        <ele>8</ele>
        <time>2019-07-14T12:40:39Z</time>
      </trkpt>
      <trkpt lat="47.76971" lon="-3.57215">
        <ele>8</ele>
        <time>2019-07-14T12:40:40Z</time>
      </trkpt>
      <trkpt lat="47.7697" lon="-3.57212">
        <ele>8</ele>
        <time>2019-07-14T12:40:41Z</time>
      </trkpt>
      <trkpt lat="47.76969" lon="-3.5721">
        <ele>8</ele>
        <time>2019-07-14T12:40:42Z</time>
      </trkpt>
      <trkpt lat="47.76968" lon="-3.57207">
        <ele>8</ele>
        <time>2019-07-14T12:40:43Z</time>
      </trkpt>
      <trkpt lat="47.76967" lon="-3.57204">
        <ele>9</ele>
        <time>2019-07-14T12:40:44Z</time>
      </trkpt>
      <trkpt lat="47.76966" lon="-3.57201">
        <ele>9</ele>
        <time>2019-07-14T12:40:45Z</time>
      </trkpt>
      <trkpt lat="47.76965" lon="-3.57198">
        <ele>9</ele>
        <time>2019-07-14T12:40:46Z</time>
      </trkpt>
      <trkpt lat="47.76964" lon="-3.57195">
        <ele>9</ele>
        <time>2019-07-14T12:40:47Z</time>
      </trkpt>
      <trkpt lat="47.76963" lon="-3.57193">
        <ele>10</ele>
        <time>2019-07-14T12:40:48Z</time>
      </trkpt>
      <trkpt lat="47.76962" lon="-3.57191">
        <ele>10</ele>
        <time>2019-07-14T12:40:49Z</time>
      </trkpt>
      <trkpt lat="47.76961" lon="-3.57188">
        <ele>10</ele>
        <time>2019-07-14T12:40:50Z</time>
      </trkpt>
      <trkpt lat="47.7696" lon="-3.57185">
        <ele>10</ele>
        <time>2019-07-14T12:40:51Z</time>
      </trkpt>
      <trkpt lat="47.76959" lon="-3.57183">
        <ele>11</ele>
        <time>2019-07-14T12:40:52Z</time>
      </trkpt>
      <trkpt lat="47.76958" lon="-3.5718">
        <ele>11</ele>
        <time>2019-07-14T12:40:53Z</time>
      </trkpt>
      <trkpt lat="47.76957" lon="-3.57177">
        <ele>11</ele>
        <time>2019-07-14T12:40:54Z</time>
      </trkpt>
      <trkpt lat="47.76956" lon="-3.57174">
        <ele>11</ele>
        <time>2019-07-14T12:40:55Z</time>
      </trkpt>
      <trkpt lat="47.76956" lon="-3.57171">
        <ele>12</ele>
        <time>2019-07-14T12:40:56Z</time>
      </trkpt>
      <trkpt lat="47.76956" lon="-3.57168">
        <ele>12</ele>
        <time>2019-07-14T12:40:57Z</time>
      </trkpt>
      <trkpt lat="47.76956" lon="-3.57165">
        <ele>12</ele>
        <time>2019-07-14T12:40:58Z</time>
      </trkpt>
      <trkpt lat="47.76956" lon="-3.57162">
        <ele>12</ele>
        <time>2019-07-14T12:40:59Z</time>
      </trkpt>
      <trkpt lat="47.76955" lon="-3.57159">
        <ele>13</ele>
        <time>2019-07-14T12:41:00Z</time>
      </trkpt>
      <trkpt lat="47.76955" lon="-3.57156">
        <ele>13</ele>
        <time>2019-07-14T12:41:01Z</time>
      </trkpt>
      <trkpt lat="47.76955" lon="-3.57152">
        <ele>13</ele>
        <time>2019-07-14T12:41:02Z</time>
      </trkpt>
      <trkpt lat="47.76955" lon="-3.57149">
        <ele>13</ele>
        <time>2019-07-14T12:41:03Z</time>
      </trkpt>
      <trkpt lat="47.76954" lon="-3.57147">
        <ele>13</ele>
        <time>2019-07-14T12:41:04Z</time>
      </trkpt>
      <trkpt lat="47.76954" lon="-3.57145">
        <ele>14</ele>
        <time>2019-07-14T12:41:05Z</time>
      </trkpt>
      <trkpt lat="47.76953" lon="-3.57142">
        <ele>14</ele>
        <time>2019-07-14T12:41:06Z</time>
      </trkpt>
      <trkpt lat="47.76952" lon="-3.57139">
        <ele>14</ele>
        <time>2019-07-14T12:41:07Z</time>
      </trkpt>
      <trkpt lat="47.76952" lon="-3.57136">
        <ele>14</ele>
        <time>2019-07-14T12:41:08Z</time>
      </trkpt>
      <trkpt lat="47.76952" lon="-3.57132">
        <ele>14</ele>
        <time>2019-07-14T12:41:09Z</time>
      </trkpt>
      <trkpt lat="47.76952" lon="-3.57129">
        <ele>14</ele>
        <time>2019-07-14T12:41:10Z</time>
      </trkpt>
      <trkpt lat="47.76953" lon="-3.57125">
        <ele>15</ele>
        <time>2019-07-14T12:41:11Z</time>
      </trkpt>
      <trkpt lat="47.76954" lon="-3.57122">
        <ele>15</ele>
        <time>2019-07-14T12:41:12Z</time>
      </trkpt>
      <trkpt lat="47.76954" lon="-3.57119">
        <ele>15</ele>
        <time>2019-07-14T12:41:13Z</time>
      </trkpt>
      <trkpt lat="47.76954" lon="-3.57116">
        <ele>15</ele>
        <time>2019-07-14T12:41:14Z</time>
      </trkpt>
      <trkpt lat="47.76955" lon="-3.57113">
        <ele>16</ele>
        <time>2019-07-14T12:41:15Z</time>
      </trkpt>
      <trkpt lat="47.76955" lon="-3.5711">
        <ele>16</ele>
        <time>2019-07-14T12:41:16Z</time>
      </trkpt>
      <trkpt lat="47.76955" lon="-3.57107">
        <ele>16</ele>
        <time>2019-07-14T12:41:17Z</time>
      </trkpt>
      <trkpt lat="47.76955" lon="-3.57103">
        <ele>16</ele>
        <time>2019-07-14T12:41:18Z</time>
      </trkpt>
      <trkpt lat="47.76955" lon="-3.571">
        <ele>17</ele>
        <time>2019-07-14T12:41:19Z</time>
      </trkpt>
      <trkpt lat="47.76955" lon="-3.57096">
        <ele>17</ele>
        <time>2019-07-14T12:41:20Z</time>
      </trkpt>
      <trkpt lat="47.76955" lon="-3.57092">
        <ele>17</ele>
        <time>2019-07-14T12:41:21Z</time>
      </trkpt>
      <trkpt lat="47.76954" lon="-3.57088">
        <ele>17</ele>
        <time>2019-07-14T12:41:22Z</time>
      </trkpt>
      <trkpt lat="47.76954" lon="-3.57084">
        <ele>17</ele>
        <time>2019-07-14T12:41:23Z</time>
      </trkpt>
      <trkpt lat="47.76954" lon="-3.57079">
        <ele>17</ele>
        <time>2019-07-14T12:41:24Z</time>
      </trkpt>
      <trkpt lat="47.76954" lon="-3.57075">
        <ele>17</ele>
        <time>2019-07-14T12:41:25Z</time>
      </trkpt>
      <trkpt lat="47.76954" lon="-3.5707">
        <ele>18</ele>
        <time>2019-07-14T12:41:26Z</time>
      </trkpt>
      <trkpt lat="47.76954" lon="-3.57066">
        <ele>18</ele>
        <time>2019-07-14T12:41:27Z</time>
      </trkpt>
      <trkpt lat="47.76954" lon="-3.57062">
        <ele>18</ele>
        <time>2019-07-14T12:41:28Z</time>
      </trkpt>
      <trkpt lat="47.76954" lon="-3.57058">
        <ele>18</ele>
        <time>2019-07-14T12:41:29Z</time>
      </trkpt>
      <trkpt lat="47.76953" lon="-3.57053">
        <ele>18</ele>
        <time>2019-07-14T12:41:30Z</time>
      </trkpt>
      <trkpt lat="47.76953" lon="-3.57048">
        <ele>18</ele>
        <time>2019-07-14T12:41:31Z</time>
      </trkpt>
      <trkpt lat="47.76952" lon="-3.57043">
        <ele>18</ele>
        <time>2019-07-14T12:41:32Z</time>
      </trkpt>
      <trkpt lat="47.76951" lon="-3.57039">
        <ele>17</ele>
        <time>2019-07-14T12:41:33Z</time>
      </trkpt>
      <trkpt lat="47.7695" lon="-3.57035">
        <ele>17</ele>
        <time>2019-07-14T12:41:34Z</time>
      </trkpt>
      <trkpt lat="47.76949" lon="-3.57031">
        <ele>17</ele>
        <time>2019-07-14T12:41:35Z</time>
      </trkpt>
      <trkpt lat="47.76948" lon="-3.57028">
        <ele>17</ele>
        <time>2019-07-14T12:41:36Z</time>
      </trkpt>
      <trkpt lat="47.76947" lon="-3.57025">
        <ele>17</ele>
        <time>2019-07-14T12:41:37Z</time>
      </trkpt>
      <trkpt lat="47.76946" lon="-3.57022">
        <ele>17</ele>
        <time>2019-07-14T12:41:38Z</time>
      </trkpt>
      <trkpt lat="47.76945" lon="-3.57019">
        <ele>16</ele>
        <time>2019-07-14T12:41:39Z</time>
      </trkpt>
      <trkpt lat="47.76944" lon="-3.57015">
        <ele>16</ele>
        <time>2019-07-14T12:41:40Z</time>
      </trkpt>
      <trkpt lat="47.76942" lon="-3.57011">
        <ele>16</ele>
        <time>2019-07-14T12:41:41Z</time>
      </trkpt>
      <trkpt lat="47.7694" lon="-3.57007">
        <ele>16</ele>
        <time>2019-07-14T12:41:42Z</time>
      </trkpt>
      <trkpt lat="47.76938" lon="-3.57002">
        <ele>15</ele>
        <time>2019-07-14T12:41:43Z</time>
      </trkpt>
      <trkpt lat="47.76935" lon="-3.56997">
        <ele>15</ele>
        <time>2019-07-14T12:41:44Z</time>
      </trkpt>
      <trkpt lat="47.76933" lon="-3.56991">
        <ele>15</ele>
        <time>2019-07-14T12:41:45Z</time>
      </trkpt>
      <trkpt lat="47.76931" lon="-3.56985">
        <ele>14</ele>
        <time>2019-07-14T12:41:46Z</time>
      </trkpt>
      <trkpt lat="47.7693" lon="-3.56979">
        <ele>14</ele>
        <time>2019-07-14T12:41:47Z</time>
      </trkpt>
      <trkpt lat="47.76929" lon="-3.56972">
        <ele>14</ele>
        <time>2019-07-14T12:41:48Z</time>
      </trkpt>
      <trkpt lat="47.76928" lon="-3.56965">
        <ele>14</ele>
        <time>2019-07-14T12:41:49Z</time>
      </trkpt>
      <trkpt lat="47.76927" lon="-3.56958">
        <ele>14</ele>
        <time>2019-07-14T12:41:50Z</time>
      </trkpt>
      <trkpt lat="47.76925" lon="-3.56951">
        <ele>13</ele>
        <time>2019-07-14T12:41:51Z</time>
      </trkpt>
      <trkpt lat="47.76923" lon="-3.56943">
        <ele>13</ele>
        <time>2019-07-14T12:41:52Z</time>
      </trkpt>
      <trkpt lat="47.76921" lon="-3.56936">
        <ele>13</ele>
        <time>2019-07-14T12:41:53Z</time>
      </trkpt>
      <trkpt lat="47.76917" lon="-3.56929">
        <ele>12</ele>
        <time>2019-07-14T12:41:54Z</time>
      </trkpt>
      <trkpt lat="47.76913" lon="-3.56923">
        <ele>12</ele>
        <time>2019-07-14T12:41:55Z</time>
      </trkpt>
      <trkpt lat="47.76909" lon="-3.56916">
        <ele>12</ele>
        <time>2019-07-14T12:41:56Z</time>
      </trkpt>
      <trkpt lat="47.76905" lon="-3.56909">
        <ele>11</ele>
        <time>2019-07-14T12:41:57Z</time>
      </trkpt>
      <trkpt lat="47.76901" lon="-3.56903">
        <ele>11</ele>
        <time>2019-07-14T12:41:58Z</time>
      </trkpt>
      <trkpt lat="47.76896" lon="-3.56896">
        <ele>10</ele>
        <time>2019-07-14T12:41:59Z</time>
      </trkpt>
      <trkpt lat="47.76892" lon="-3.56889">
        <ele>10</ele>
        <time>2019-07-14T12:42:00Z</time>
      </trkpt>
      <trkpt lat="47.76889" lon="-3.56882">
        <ele>10</ele>
        <time>2019-07-14T12:42:01Z</time>
      </trkpt>
      <trkpt lat="47.76887" lon="-3.56873">
        <ele>9</ele>
        <time>2019-07-14T12:42:02Z</time>
      </trkpt>
      <trkpt lat="47.76887" lon="-3.56864">
        <ele>9</ele>
        <time>2019-07-14T12:42:03Z</time>
      </trkpt>
      <trkpt lat="47.76887" lon="-3.56856">
        <ele>9</ele>
        <time>2019-07-14T12:42:04Z</time>
      </trkpt>
      <trkpt lat="47.76888" lon="-3.56849">
        <ele>9</ele>
        <time>2019-07-14T12:42:05Z</time>
      </trkpt>
      <trkpt lat="47.7689" lon="-3.56843">
        <ele>9</ele>
        <time>2019-07-14T12:42:06Z</time>
      </trkpt>
      <trkpt lat="47.76892" lon="-3.56837">
        <ele>9</ele>
        <time>2019-07-14T12:42:07Z</time>
      </trkpt>
      <trkpt lat="47.76896" lon="-3.56834">
        <ele>9</ele>
        <time>2019-07-14T12:42:08Z</time>
      </trkpt>
      <trkpt lat="47.76899" lon="-3.5683">
        <ele>10</ele>
        <time>2019-07-14T12:42:09Z</time>
      </trkpt>
      <trkpt lat="47.76902" lon="-3.56825">
        <ele>10</ele>
        <time>2019-07-14T12:42:10Z</time>
      </trkpt>
      <trkpt lat="47.76906" lon="-3.56822">
        <ele>10</ele>
        <time>2019-07-14T12:42:11Z</time>
      </trkpt>
      <trkpt lat="47.7691" lon="-3.56819">
        <ele>10</ele>
        <time>2019-07-14T12:42:12Z</time>
      </trkpt>
      <trkpt lat="47.76913" lon="-3.56817">
        <ele>10</ele>
        <time>2019-07-14T12:42:13Z</time>
      </trkpt>
      <trkpt lat="47.76918" lon="-3.56815">
        <ele>10</ele>
        <time>2019-07-14T12:42:14Z</time>
      </trkpt>
      <trkpt lat="47.76921" lon="-3.56813">
        <ele>9</ele>
        <time>2019-07-14T12:42:15Z</time>
      </trkpt>
      <trkpt lat="47.76923" lon="-3.56808">
        <ele>9</ele>
        <time>2019-07-14T12:42:16Z</time>
      </trkpt>
      <trkpt lat="47.76924" lon="-3.56802">
        <ele>9</ele>
        <time>2019-07-14T12:42:17Z</time>
      </trkpt>
      <trkpt lat="47.76926" lon="-3.56796">
        <ele>9</ele>
        <time>2019-07-14T12:42:18Z</time>
      </trkpt>
      <trkpt lat="47.76928" lon="-3.56789">
        <ele>9</ele>
        <time>2019-07-14T12:42:19Z</time>
      </trkpt>
      <trkpt lat="47.7693" lon="-3.56783">
        <ele>8</ele>
        <time>2019-07-14T12:42:20Z</time>
      </trkpt>
      <trkpt lat="47.7693" lon="-3.56777">
        <ele>8</ele>
        <time>2019-07-14T12:42:21Z</time>
      </trkpt>
      <trkpt lat="47.76929" lon="-3.56771">
        <ele>8</ele>
        <time>2019-07-14T12:42:22Z</time>
      </trkpt>
      <trkpt lat="47.76929" lon="-3.56764">
        <ele>8</ele>
        <time>2019-07-14T12:42:23Z</time>
      </trkpt>
      <trkpt lat="47.76929" lon="-3.56758">
        <ele>7</ele>
        <time>2019-07-14T12:42:24Z</time>
      </trkpt>
      <trkpt lat="47.76928" lon="-3.56752">
        <ele>7</ele>
        <time>2019-07-14T12:42:25Z</time>
      </trkpt>
      <trkpt lat="47.76926" lon="-3.56747">
        <ele>6</ele>
        <time>2019-07-14T12:42:26Z</time>
      </trkpt>
      <trkpt lat="47.76922" lon="-3.56742">
        <ele>6</ele>
        <time>2019-07-14T12:42:27Z</time>
      </trkpt>
      <trkpt lat="47.76919" lon="-3.56737">
        <ele>6</ele>
        <time>2019-07-14T12:42:28Z</time>
      </trkpt>
      <trkpt lat="47.76916" lon="-3.5673">
        <ele>5</ele>
        <time>2019-07-14T12:42:29Z</time>
      </trkpt>
      <trkpt lat="47.76915" lon="-3.56723">
        <ele>5</ele>
        <time>2019-07-14T12:42:30Z</time>
      </trkpt>
      <trkpt lat="47.76916" lon="-3.56716">
        <ele>5</ele>
        <time>2019-07-14T12:42:31Z</time>
      </trkpt>
      <trkpt lat="47.76915" lon="-3.5671">
        <ele>5</ele>
        <time>2019-07-14T12:42:32Z</time>
      </trkpt>
      <trkpt lat="47.76913" lon="-3.56706">
        <ele>5</ele>
        <time>2019-07-14T12:42:33Z</time>
      </trkpt>
      <trkpt lat="47.76911" lon="-3.56702">
        <ele>5</ele>
        <time>2019-07-14T12:42:34Z</time>
      </trkpt>
      <trkpt lat="47.76909" lon="-3.56699">
        <ele>5</ele>
        <time>2019-07-14T12:42:35Z</time>
      </trkpt>
      <trkpt lat="47.76907" lon="-3.56694">
        <ele>5</ele>
        <time>2019-07-14T12:42:36Z</time>
      </trkpt>
      <trkpt lat="47.76906" lon="-3.5669">
        <ele>6</ele>
        <time>2019-07-14T12:42:37Z</time>
      </trkpt>
      <trkpt lat="47.76906" lon="-3.56687">
        <ele>6</ele>
        <time>2019-07-14T12:42:38Z</time>
      </trkpt>
      <trkpt lat="47.76906" lon="-3.56685">
        <ele>6</ele>
        <time>2019-07-14T12:42:39Z</time>
      </trkpt>
      <trkpt lat="47.76905" lon="-3.56683">
        <ele>6</ele>
        <time>2019-07-14T12:42:40Z</time>
      </trkpt>
      <trkpt lat="47.76903" lon="-3.5668">
        <ele>7</ele>
        <time>2019-07-14T12:42:41Z</time>
      </trkpt>
      <trkpt lat="47.76901" lon="-3.56676">
        <ele>7</ele>
        <time>2019-07-14T12:42:42Z</time>
      </trkpt>
      <trkpt lat="47.76899" lon="-3.56671">
        <ele>7</ele>
        <time>2019-07-14T12:42:43Z</time>
      </trkpt>
      <trkpt lat="47.76898" lon="-3.56666">
        <ele>7</ele>
        <time>2019-07-14T12:42:44Z</time>
      </trkpt>
      <trkpt lat="47.76899" lon="-3.5666">
        <ele>7</ele>
        <time>2019-07-14T12:42:45Z</time>
      </trkpt>
      <trkpt lat="47.76899" lon="-3.56654">
        <ele>7</ele>
        <time>2019-07-14T12:42:46Z</time>
      </trkpt>
      <trkpt lat="47.76899" lon="-3.56649">
        <ele>7</ele>
        <time>2019-07-14T12:42:47Z</time>
      </trkpt>
      <trkpt lat="47.76899" lon="-3.56643">
        <ele>8</ele>
        <time>2019-07-14T12:42:48Z</time>
      </trkpt>
      <trkpt lat="47.769" lon="-3.56638">
        <ele>8</ele>
        <time>2019-07-14T12:42:49Z</time>
      </trkpt>
      <trkpt lat="47.769" lon="-3.56633">
        <ele>8</ele>
        <time>2019-07-14T12:42:50Z</time>
      </trkpt>
      <trkpt lat="47.76901" lon="-3.56628">
        <ele>8</ele>
        <time>2019-07-14T12:42:51Z</time>
      </trkpt>
      <trkpt lat="47.76902" lon="-3.56624">
        <ele>8</ele>
        <time>2019-07-14T12:42:52Z</time>
      </trkpt>
      <trkpt lat="47.76902" lon="-3.5662">
        <ele>9</ele>
        <time>2019-07-14T12:42:53Z</time>
      </trkpt>
      <trkpt lat="47.76902" lon="-3.56616">
        <ele>9</ele>
        <time>2019-07-14T12:42:54Z</time>
      </trkpt>
      <trkpt lat="47.76902" lon="-3.56613">
        <ele>9</ele>
        <time>2019-07-14T12:42:55Z</time>
      </trkpt>
      <trkpt lat="47.76902" lon="-3.56609">
        <ele>9</ele>
        <time>2019-07-14T12:42:56Z</time>
      </trkpt>
      <trkpt lat="47.76901" lon="-3.56605">
        <ele>10</ele>
        <time>2019-07-14T12:42:57Z</time>
      </trkpt>
      <trkpt lat="47.76901" lon="-3.566">
        <ele>10</ele>
        <time>2019-07-14T12:42:58Z</time>
      </trkpt>
      <trkpt lat="47.769" lon="-3.56596">
        <ele>10</ele>
        <time>2019-07-14T12:42:59Z</time>
      </trkpt>
      <trkpt lat="47.76899" lon="-3.56592">
        <ele>10</ele>
        <time>2019-07-14T12:43:00Z</time>
      </trkpt>
      <trkpt lat="47.76898" lon="-3.56588">
        <ele>10</ele>
        <time>2019-07-14T12:43:01Z</time>
      </trkpt>
      <trkpt lat="47.76896" lon="-3.56584">
        <ele>10</ele>
        <time>2019-07-14T12:43:02Z</time>
      </trkpt>
      <trkpt lat="47.76895" lon="-3.5658">
        <ele>11</ele>
        <time>2019-07-14T12:43:03Z</time>
      </trkpt>
      <trkpt lat="47.76893" lon="-3.56576">
        <ele>11</ele>
        <time>2019-07-14T12:43:04Z</time>
      </trkpt>
      <trkpt lat="47.76892" lon="-3.56572">
        <ele>11</ele>
        <time>2019-07-14T12:43:05Z</time>
      </trkpt>
      <trkpt lat="47.76891" lon="-3.56568">
        <ele>11</ele>
        <time>2019-07-14T12:43:06Z</time>
      </trkpt>
      <trkpt lat="47.76891" lon="-3.56563">
        <ele>12</ele>
        <time>2019-07-14T12:43:07Z</time>
      </trkpt>
      <trkpt lat="47.76891" lon="-3.56557">
        <ele>12</ele>
        <time>2019-07-14T12:43:08Z</time>
      </trkpt>
      <trkpt lat="47.76891" lon="-3.56552">
        <ele>12</ele>
        <time>2019-07-14T12:43:09Z</time>
      </trkpt>
      <trkpt lat="47.76892" lon="-3.56546">
        <ele>12</ele>
        <time>2019-07-14T12:43:10Z</time>
      </trkpt>
      <trkpt lat="47.76892" lon="-3.56541">
        <ele>12</ele>
        <time>2019-07-14T12:43:11Z</time>
      </trkpt>
      <trkpt lat="47.76892" lon="-3.56535">
        <ele>12</ele>
        <time>2019-07-14T12:43:12Z</time>
      </trkpt>
      <trkpt lat="47.76891" lon="-3.5653">
        <ele>12</ele>
        <time>2019-07-14T12:43:13Z</time>
      </trkpt>
      <trkpt lat="47.76891" lon="-3.56525">
        <ele>13</ele>
        <time>2019-07-14T12:43:14Z</time>
      </trkpt>
      <trkpt lat="47.76892" lon="-3.5652">
        <ele>13</ele>
        <time>2019-07-14T12:43:15Z</time>
      </trkpt>
      <trkpt lat="47.76892" lon="-3.56514">
        <ele>13</ele>
        <time>2019-07-14T12:43:16Z</time>
      </trkpt>
      <trkpt lat="47.76892" lon="-3.56509">
        <ele>13</ele>
        <time>2019-07-14T12:43:17Z</time>
      </trkpt>
      <trkpt lat="47.76892" lon="-3.56503">
        <ele>13</ele>
        <time>2019-07-14T12:43:18Z</time>
      </trkpt>
      <trkpt lat="47.76894" lon="-3.56498">
        <ele>12</ele>
        <time>2019-07-14T12:43:19Z</time>
      </trkpt>
      <trkpt lat="47.76895" lon="-3.56493">
        <ele>12</ele>
        <time>2019-07-14T12:43:20Z</time>
      </trkpt>
      <trkpt lat="47.76896" lon="-3.56487">
        <ele>12</ele>
        <time>2019-07-14T12:43:21Z</time>
      </trkpt>
      <trkpt lat="47.76896" lon="-3.5648">
        <ele>12</ele>
        <time>2019-07-14T12:43:22Z</time>
      </trkpt>
      <trkpt lat="47.76897" lon="-3.56474">
        <ele>12</ele>
        <time>2019-07-14T12:43:23Z</time>
      </trkpt>
      <trkpt lat="47.76897" lon="-3.56467">
        <ele>12</ele>
        <time>2019-07-14T12:43:24Z</time>
      </trkpt>
      <trkpt lat="47.76897" lon="-3.5646">
        <ele>12</ele>
        <time>2019-07-14T12:43:25Z</time>
      </trkpt>
      <trkpt lat="47.76896" lon="-3.56454">
        <ele>12</ele>
        <time>2019-07-14T12:43:26Z</time>
      </trkpt>
      <trkpt lat="47.76895" lon="-3.56448">
        <ele>12</ele>
        <time>2019-07-14T12:43:27Z</time>
      </trkpt>
      <trkpt lat="47.76894" lon="-3.56443">
        <ele>12</ele>
        <time>2019-07-14T12:43:28Z</time>
      </trkpt>
      <trkpt lat="47.76893" lon="-3.56437">
        <ele>12</ele>
        <time>2019-07-14T12:43:29Z</time>
      </trkpt>
      <trkpt lat="47.76892" lon="-3.56431">
        <ele>12</ele>
        <time>2019-07-14T12:43:30Z</time>
      </trkpt>
      <trkpt lat="47.76892" lon="-3.56426">
        <ele>12</ele>
        <time>2019-07-14T12:43:31Z</time>
      </trkpt>
      <trkpt lat="47.76891" lon="-3.56421">
        <ele>12</ele>
        <time>2019-07-14T12:43:32Z</time>
      </trkpt>
      <trkpt lat="47.76889" lon="-3.56415">
        <ele>12</ele>
        <time>2019-07-14T12:43:33Z</time>
      </trkpt>
      <trkpt lat="47.76887" lon="-3.56409">
        <ele>11</ele>
        <time>2019-07-14T12:43:34Z</time>
      </trkpt>
      <trkpt lat="47.76886" lon="-3.56403">
        <ele>11</ele>
        <time>2019-07-14T12:43:35Z</time>
      </trkpt>
      <trkpt lat="47.76885" lon="-3.56396">
        <ele>11</ele>
        <time>2019-07-14T12:43:36Z</time>
      </trkpt>
      <trkpt lat="47.76884" lon="-3.5639">
        <ele>11</ele>
        <time>2019-07-14T12:43:37Z</time>
      </trkpt>
      <trkpt lat="47.76885" lon="-3.56384">
        <ele>11</ele>
        <time>2019-07-14T12:43:38Z</time>
      </trkpt>
      <trkpt lat="47.76886" lon="-3.56377">
        <ele>11</ele>
        <time>2019-07-14T12:43:39Z</time>
      </trkpt>
      <trkpt lat="47.76888" lon="-3.5637">
        <ele>11</ele>
        <time>2019-07-14T12:43:40Z</time>
      </trkpt>
      <trkpt lat="47.7689" lon="-3.56363">
        <ele>11</ele>
        <time>2019-07-14T12:43:41Z</time>
      </trkpt>
      <trkpt lat="47.76893" lon="-3.56356">
        <ele>10</ele>
        <time>2019-07-14T12:43:42Z</time>
      </trkpt>
      <trkpt lat="47.76895" lon="-3.56349">
        <ele>10</ele>
        <time>2019-07-14T12:43:43Z</time>
      </trkpt>
      <trkpt lat="47.76898" lon="-3.56342">
        <ele>10</ele>
        <time>2019-07-14T12:43:44Z</time>
      </trkpt>
      <trkpt lat="47.769" lon="-3.56334">
        <ele>10</ele>
        <time>2019-07-14T12:43:45Z</time>
      </trkpt>
      <trkpt lat="47.76903" lon="-3.56326">
        <ele>10</ele>
        <time>2019-07-14T12:43:46Z</time>
      </trkpt>
      <trkpt lat="47.76905" lon="-3.56318">
        <ele>10</ele>
        <time>2019-07-14T12:43:47Z</time>
      </trkpt>
      <trkpt lat="47.76907" lon="-3.56309">
        <ele>10</ele>
        <time>2019-07-14T12:43:48Z</time>
      </trkpt>
      <trkpt lat="47.76909" lon="-3.56302">
        <ele>10</ele>
        <time>2019-07-14T12:43:49Z</time>
      </trkpt>
      <trkpt lat="47.76912" lon="-3.56294">
        <ele>10</ele>
        <time>2019-07-14T12:43:50Z</time>
      </trkpt>
      <trkpt lat="47.76914" lon="-3.56286">
        <ele>10</ele>
        <time>2019-07-14T12:43:51Z</time>
      </trkpt>
      <trkpt lat="47.76916" lon="-3.56277">
        <ele>10</ele>
        <time>2019-07-14T12:43:52Z</time>
      </trkpt>
      <trkpt lat="47.76919" lon="-3.56269">
        <ele>9</ele>
        <time>2019-07-14T12:43:53Z</time>
      </trkpt>
      <trkpt lat="47.76921" lon="-3.56262">
        <ele>10</ele>
        <time>2019-07-14T12:43:54Z</time>
      </trkpt>
      <trkpt lat="47.76923" lon="-3.56255">
        <ele>10</ele>
        <time>2019-07-14T12:43:55Z</time>
      </trkpt>
      <trkpt lat="47.76925" lon="-3.56249">
        <ele>10</ele>
        <time>2019-07-14T12:43:56Z</time>
      </trkpt>
      <trkpt lat="47.76926" lon="-3.56242">
        <ele>10</ele>
        <time>2019-07-14T12:43:57Z</time>
      </trkpt>
      <trkpt lat="47.76928" lon="-3.56237">
        <ele>10</ele>
        <time>2019-07-14T12:43:58Z</time>
      </trkpt>
      <trkpt lat="47.7693" lon="-3.56231">
        <ele>10</ele>
        <time>2019-07-14T12:43:59Z</time>
      </trkpt>
      <trkpt lat="47.76932" lon="-3.56226">
        <ele>10</ele>
        <time>2019-07-14T12:44:00Z</time>
      </trkpt>
      <trkpt lat="47.76934" lon="-3.5622">
        <ele>10</ele>
        <time>2019-07-14T12:44:01Z</time>
      </trkpt>
      <trkpt lat="47.76936" lon="-3.56215">
        <ele>10</ele>
        <time>2019-07-14T12:44:02Z</time>
      </trkpt>
      <trkpt lat="47.76938" lon="-3.5621">
        <ele>10</ele>
        <time>2019-07-14T12:44:03Z</time>
      </trkpt>
      <trkpt lat="47.76939" lon="-3.56204">
        <ele>10</ele>
        <time>2019-07-14T12:44:04Z</time>
      </trkpt>
      <trkpt lat="47.76941" lon="-3.56199">
        <ele>11</ele>
        <time>2019-07-14T12:44:05Z</time>
      </trkpt>
      <trkpt lat="47.76942" lon="-3.56194">
        <ele>11</ele>
        <time>2019-07-14T12:44:06Z</time>
      </trkpt>
      <trkpt lat="47.76943" lon="-3.56188">
        <ele>11</ele>
        <time>2019-07-14T12:44:07Z</time>
      </trkpt>
      <trkpt lat="47.76944" lon="-3.56182">
        <ele>11</ele>
        <time>2019-07-14T12:44:08Z</time>
      </trkpt>
      <trkpt lat="47.76945" lon="-3.56176">
        <ele>11</ele>
        <time>2019-07-14T12:44:09Z</time>
      </trkpt>
      <trkpt lat="47.76945" lon="-3.5617">
        <ele>11</ele>
        <time>2019-07-14T12:44:10Z</time>
      </trkpt>
      <trkpt lat="47.76946" lon="-3.56164">
        <ele>12</ele>
        <time>2019-07-14T12:44:11Z</time>
      </trkpt>
      <trkpt lat="47.76947" lon="-3.56158">
        <ele>12</ele>
        <time>2019-07-14T12:44:12Z</time>
      </trkpt>
      <trkpt lat="47.76948" lon="-3.56152">
        <ele>12</ele>
        <time>2019-07-14T12:44:13Z</time>
      </trkpt>
      <trkpt lat="47.76949" lon="-3.56147">
        <ele>12</ele>
        <time>2019-07-14T12:44:14Z</time>
      </trkpt>
      <trkpt lat="47.76949" lon="-3.56141">
        <ele>12</ele>
        <time>2019-07-14T12:44:15Z</time>
      </trkpt>
      <trkpt lat="47.7695" lon="-3.56135">
        <ele>12</ele>
        <time>2019-07-14T12:44:16Z</time>
      </trkpt>
      <trkpt lat="47.76951" lon="-3.56129">
        <ele>13</ele>
        <time>2019-07-14T12:44:17Z</time>
      </trkpt>
      <trkpt lat="47.76952" lon="-3.56123">
        <ele>13</ele>
        <time>2019-07-14T12:44:18Z</time>
      </trkpt>
      <trkpt lat="47.76952" lon="-3.56117">
        <ele>13</ele>
        <time>2019-07-14T12:44:19Z</time>
      </trkpt>
      <trkpt lat="47.76952" lon="-3.56112">
        <ele>13</ele>
        <time>2019-07-14T12:44:20Z</time>
      </trkpt>
      <trkpt lat="47.76953" lon="-3.56106">
        <ele>13</ele>
        <time>2019-07-14T12:44:21Z</time>
      </trkpt>
      <trkpt lat="47.76954" lon="-3.56101">
        <ele>13</ele>
        <time>2019-07-14T12:44:22Z</time>
      </trkpt>
      <trkpt lat="47.76954" lon="-3.56096">
        <ele>14</ele>
        <time>2019-07-14T12:44:23Z</time>
      </trkpt>
      <trkpt lat="47.76955" lon="-3.5609">
        <ele>14</ele>
        <time>2019-07-14T12:44:24Z</time>
      </trkpt>
      <trkpt lat="47.76955" lon="-3.56085">
        <ele>14</ele>
        <time>2019-07-14T12:44:25Z</time>
      </trkpt>
      <trkpt lat="47.76955" lon="-3.56079">
        <ele>14</ele>
        <time>2019-07-14T12:44:26Z</time>
      </trkpt>
      <trkpt lat="47.76956" lon="-3.56074">
        <ele>15</ele>
        <time>2019-07-14T12:44:27Z</time>
      </trkpt>
      <trkpt lat="47.76956" lon="-3.56069">
        <ele>15</ele>
        <time>2019-07-14T12:44:28Z</time>
      </trkpt>
      <trkpt lat="47.76957" lon="-3.56064">
        <ele>15</ele>
        <time>2019-07-14T12:44:29Z</time>
      </trkpt>
      <trkpt lat="47.76957" lon="-3.5606">
        <ele>15</ele>
        <time>2019-07-14T12:44:30Z</time>
      </trkpt>
      <trkpt lat="47.76958" lon="-3.56057">
        <ele>16</ele>
        <time>2019-07-14T12:44:31Z</time>
      </trkpt>
      <trkpt lat="47.76958" lon="-3.56054">
        <ele>16</ele>
        <time>2019-07-14T12:44:32Z</time>
      </trkpt>
      <trkpt lat="47.76956" lon="-3.5605">
        <ele>16</ele>
        <time>2019-07-14T12:44:33Z</time>
      </trkpt>
      <trkpt lat="47.76954" lon="-3.56047">
        <ele>16</ele>
        <time>2019-07-14T12:44:34Z</time>
      </trkpt>
      <trkpt lat="47.76952" lon="-3.56044">
        <ele>16</ele>
        <time>2019-07-14T12:44:35Z</time>
      </trkpt>
      <trkpt lat="47.76952" lon="-3.5604">
        <ele>16</ele>
        <time>2019-07-14T12:44:36Z</time>
      </trkpt>
      <trkpt lat="47.76952" lon="-3.56038">
        <ele>16</ele>
        <time>2019-07-14T12:44:37Z</time>
      </trkpt>
      <trkpt lat="47.76955" lon="-3.56038">
        <ele>16</ele>
        <time>2019-07-14T12:44:38Z</time>
      </trkpt>
      <trkpt lat="47.76956" lon="-3.56037">
        <ele>16</ele>
        <time>2019-07-14T12:44:39Z</time>
      </trkpt>
      <trkpt lat="47.76958" lon="-3.56035">
        <ele>16</ele>
        <time>2019-07-14T12:44:40Z</time>
      </trkpt>
      <trkpt lat="47.76959" lon="-3.56032">
        <ele>16</ele>
        <time>2019-07-14T12:44:41Z</time>
      </trkpt>
      <trkpt lat="47.7696" lon="-3.56028">
        <ele>17</ele>
        <time>2019-07-14T12:44:42Z</time>
      </trkpt>
      <trkpt lat="47.76961" lon="-3.56023">
        <ele>17</ele>
        <time>2019-07-14T12:44:43Z</time>
      </trkpt>
      <trkpt lat="47.76963" lon="-3.56018">
        <ele>17</ele>
        <time>2019-07-14T12:44:44Z</time>
      </trkpt>
      <trkpt lat="47.76964" lon="-3.56013">
        <ele>17</ele>
        <time>2019-07-14T12:44:45Z</time>
      </trkpt>
      <trkpt lat="47.76965" lon="-3.56008">
        <ele>17</ele>
        <time>2019-07-14T12:44:46Z</time>
      </trkpt>
      <trkpt lat="47.76966" lon="-3.56003">
        <ele>18</ele>
        <time>2019-07-14T12:44:47Z</time>
      </trkpt>
      <trkpt lat="47.76967" lon="-3.55997">
        <ele>18</ele>
        <time>2019-07-14T12:44:48Z</time>
      </trkpt>
      <trkpt lat="47.76968" lon="-3.55991">
        <ele>18</ele>
        <time>2019-07-14T12:44:49Z</time>
      </trkpt>
      <trkpt lat="47.76968" lon="-3.55985">
        <ele>18</ele>
        <time>2019-07-14T12:44:50Z</time>
      </trkpt>
      <trkpt lat="47.76969" lon="-3.55979">
        <ele>18</ele>
        <time>2019-07-14T12:44:51Z</time>
      </trkpt>
      <trkpt lat="47.7697" lon="-3.55973">
        <ele>18</ele>
        <time>2019-07-14T12:44:52Z</time>
      </trkpt>
      <trkpt lat="47.76971" lon="-3.55967">
        <ele>19</ele>
        <time>2019-07-14T12:44:53Z</time>
      </trkpt>
      <trkpt lat="47.76972" lon="-3.55961">
        <ele>19</ele>
        <time>2019-07-14T12:44:54Z</time>
      </trkpt>
      <trkpt lat="47.76973" lon="-3.55954">
        <ele>19</ele>
        <time>2019-07-14T12:44:55Z</time>
      </trkpt>
      <trkpt lat="47.76974" lon="-3.55948">
        <ele>19</ele>
        <time>2019-07-14T12:44:56Z</time>
      </trkpt>
      <trkpt lat="47.76975" lon="-3.55942">
        <ele>19</ele>
        <time>2019-07-14T12:44:57Z</time>
      </trkpt>
      <trkpt lat="47.76976" lon="-3.55935">
        <ele>19</ele>
        <time>2019-07-14T12:44:58Z</time>
      </trkpt>
      <trkpt lat="47.76977" lon="-3.55929">
        <ele>19</ele>
        <time>2019-07-14T12:44:59Z</time>
      </trkpt>
      <trkpt lat="47.76978" lon="-3.55923">
        <ele>19</ele>
        <time>2019-07-14T12:45:00Z</time>
      </trkpt>
      <trkpt lat="47.7698" lon="-3.55917">
        <ele>20</ele>
        <time>2019-07-14T12:45:01Z</time>
      </trkpt>
      <trkpt lat="47.76982" lon="-3.55911">
        <ele>20</ele>
        <time>2019-07-14T12:45:02Z</time>
      </trkpt>
      <trkpt lat="47.76984" lon="-3.55905">
        <ele>20</ele>
        <time>2019-07-14T12:45:03Z</time>
      </trkpt>
      <trkpt lat="47.76986" lon="-3.55899">
        <ele>20</ele>
        <time>2019-07-14T12:45:04Z</time>
      </trkpt>
      <trkpt lat="47.76988" lon="-3.55894">
        <ele>20</ele>
        <time>2019-07-14T12:45:05Z</time>
      </trkpt>
      <trkpt lat="47.76989" lon="-3.55889">
        <ele>20</ele>
        <time>2019-07-14T12:45:06Z</time>
      </trkpt>
      <trkpt lat="47.76991" lon="-3.55884">
        <ele>20</ele>
        <time>2019-07-14T12:45:07Z</time>
      </trkpt>
      <trkpt lat="47.76992" lon="-3.55879">
        <ele>20</ele>
        <time>2019-07-14T12:45:08Z</time>
      </trkpt>
      <trkpt lat="47.76994" lon="-3.55875">
        <ele>20</ele>
        <time>2019-07-14T12:45:09Z</time>
      </trkpt>
      <trkpt lat="47.76995" lon="-3.55871">
        <ele>20</ele>
        <time>2019-07-14T12:45:10Z</time>
      </trkpt>
      <trkpt lat="47.76997" lon="-3.55867">
        <ele>20</ele>
        <time>2019-07-14T12:45:11Z</time>
      </trkpt>
      <trkpt lat="47.76998" lon="-3.55864">
        <ele>20</ele>
        <time>2019-07-14T12:45:12Z</time>
      </trkpt>
      <trkpt lat="47.76998" lon="-3.55861">
        <ele>20</ele>
        <time>2019-07-14T12:45:13Z</time>
      </trkpt>
      <trkpt lat="47.76998" lon="-3.55859">
        <ele>20</ele>
        <time>2019-07-14T12:45:14Z</time>
      </trkpt>
      <trkpt lat="47.76997" lon="-3.55857">
        <ele>20</ele>
        <time>2019-07-14T12:45:15Z</time>
      </trkpt>
      <trkpt lat="47.76995" lon="-3.55856">
        <ele>20</ele>
        <time>2019-07-14T12:45:16Z</time>
      </trkpt>
      <trkpt lat="47.76994" lon="-3.55855">
        <ele>20</ele>
        <time>2019-07-14T12:45:17Z</time>
      </trkpt>
      <trkpt lat="47.76994" lon="-3.55855">
        <ele>20</ele>
        <time>2019-07-14T12:45:18Z</time>
      </trkpt>
      <trkpt lat="47.7699" lon="-3.55856">
        <ele>20</ele>
        <time>2019-07-14T12:45:19Z</time>
      </trkpt>
      <trkpt lat="47.76987" lon="-3.55856">
        <ele>20</ele>
        <time>2019-07-14T12:45:20Z</time>
      </trkpt>
      <trkpt lat="47.76984" lon="-3.55857">
        <ele>19</ele>
        <time>2019-07-14T12:45:21Z</time>
      </trkpt>
      <trkpt lat="47.7698" lon="-3.55857">
        <ele>19</ele>
        <time>2019-07-14T12:45:22Z</time>
      </trkpt>
      <trkpt lat="47.76975" lon="-3.55858">
        <ele>19</ele>
        <time>2019-07-14T12:45:23Z</time>
      </trkpt>
      <trkpt lat="47.7697" lon="-3.55859">
        <ele>18</ele>
        <time>2019-07-14T12:45:24Z</time>
      </trkpt>
      <trkpt lat="47.76964" lon="-3.5586">
        <ele>18</ele>
        <time>2019-07-14T12:45:25Z</time>
      </trkpt>
      <trkpt lat="47.76958" lon="-3.55861">
        <ele>17</ele>
        <time>2019-07-14T12:45:26Z</time>
      </trkpt>
      <trkpt lat="47.76953" lon="-3.55862">
        <ele>17</ele>
        <time>2019-07-14T12:45:27Z</time>
      </trkpt>
      <trkpt lat="47.76948" lon="-3.55862">
        <ele>16</ele>
        <time>2019-07-14T12:45:28Z</time>
      </trkpt>
      <trkpt lat="47.76943" lon="-3.55861">
        <ele>16</ele>
        <time>2019-07-14T12:45:29Z</time>
      </trkpt>
      <trkpt lat="47.76938" lon="-3.5586">
        <ele>15</ele>
        <time>2019-07-14T12:45:30Z</time>
      </trkpt>
      <trkpt lat="47.76932" lon="-3.55859">
        <ele>15</ele>
        <time>2019-07-14T12:45:31Z</time>
      </trkpt>
      <trkpt lat="47.76925" lon="-3.55857">
        <ele>14</ele>
        <time>2019-07-14T12:45:32Z</time>
      </trkpt>
      <trkpt lat="47.76919" lon="-3.55856">
        <ele>14</ele>
        <time>2019-07-14T12:45:33Z</time>
      </trkpt>
      <trkpt lat="47.76912" lon="-3.55853">
        <ele>13</ele>
        <time>2019-07-14T12:45:34Z</time>
      </trkpt>
      <trkpt lat="47.76906" lon="-3.55849">
        <ele>13</ele>
        <time>2019-07-14T12:45:35Z</time>
      </trkpt>
      <trkpt lat="47.76899" lon="-3.55846">
        <ele>12</ele>
        <time>2019-07-14T12:45:36Z</time>
      </trkpt>
      <trkpt lat="47.76892" lon="-3.55842">
        <ele>12</ele>
        <time>2019-07-14T12:45:37Z</time>
      </trkpt>
      <trkpt lat="47.76886" lon="-3.55838">
        <ele>12</ele>
        <time>2019-07-14T12:45:38Z</time>
      </trkpt>
      <trkpt lat="47.76879" lon="-3.55834">
        <ele>11</ele>
        <time>2019-07-14T12:45:39Z</time>
      </trkpt>
      <trkpt lat="47.76873" lon="-3.55829">
        <ele>11</ele>
        <time>2019-07-14T12:45:40Z</time>
      </trkpt>
      <trkpt lat="47.76867" lon="-3.55824">
        <ele>11</ele>
        <time>2019-07-14T12:45:41Z</time>
      </trkpt>
      <trkpt lat="47.76862" lon="-3.5582">
        <ele>10</ele>
        <time>2019-07-14T12:45:42Z</time>
      </trkpt>
      <trkpt lat="47.76858" lon="-3.55816">
        <ele>10</ele>
        <time>2019-07-14T12:45:43Z</time>
      </trkpt>
      <trkpt lat="47.76856" lon="-3.5581">
        <ele>10</ele>
        <time>2019-07-14T12:45:44Z</time>
      </trkpt>
      <trkpt lat="47.76856" lon="-3.55804">
        <ele>9</ele>
        <time>2019-07-14T12:45:45Z</time>
      </trkpt>
      <trkpt lat="47.76858" lon="-3.55797">
        <ele>9</ele>
        <time>2019-07-14T12:45:46Z</time>
      </trkpt>
      <trkpt lat="47.7686" lon="-3.5579">
        <ele>8</ele>
        <time>2019-07-14T12:45:47Z</time>
      </trkpt>
      <trkpt lat="47.76862" lon="-3.55782">
        <ele>8</ele>
        <time>2019-07-14T12:45:48Z</time>
      </trkpt>
      <trkpt lat="47.76864" lon="-3.55773">
        <ele>8</ele>
        <time>2019-07-14T12:45:49Z</time>
      </trkpt>
      <trkpt lat="47.76866" lon="-3.55764">
        <ele>7</ele>
        <time>2019-07-14T12:45:50Z</time>
      </trkpt>
      <trkpt lat="47.76869" lon="-3.55755">
        <ele>7</ele>
        <time>2019-07-14T12:45:51Z</time>
      </trkpt>
      <trkpt lat="47.76872" lon="-3.55746">
        <ele>7</ele>
        <time>2019-07-14T12:45:52Z</time>
      </trkpt>
      <trkpt lat="47.76874" lon="-3.55737">
        <ele>7</ele>
        <time>2019-07-14T12:45:53Z</time>
      </trkpt>
      <trkpt lat="47.76876" lon="-3.55729">
        <ele>7</ele>
        <time>2019-07-14T12:45:54Z</time>
      </trkpt>
      <trkpt lat="47.76876" lon="-3.55723">
        <ele>7</ele>
        <time>2019-07-14T12:45:55Z</time>
      </trkpt>
      <trkpt lat="47.76877" lon="-3.55719">
        <ele>7</ele>
        <time>2019-07-14T12:45:56Z</time>
      </trkpt>
      <trkpt lat="47.76876" lon="-3.55717">
        <ele>7</ele>
        <time>2019-07-14T12:45:57Z</time>
      </trkpt>
      <trkpt lat="47.76876" lon="-3.55715">
        <ele>7</ele>
        <time>2019-07-14T12:45:58Z</time>
      </trkpt>
      <trkpt lat="47.76876" lon="-3.55713">
        <ele>7</ele>
        <time>2019-07-14T12:45:59Z</time>
      </trkpt>
      <trkpt lat="47.76876" lon="-3.5571">
        <ele>7</ele>
        <time>2019-07-14T12:46:00Z</time>
      </trkpt>
      <trkpt lat="47.76875" lon="-3.55706">
        <ele>7</ele>
        <time>2019-07-14T12:46:01Z</time>
      </trkpt>
      <trkpt lat="47.76873" lon="-3.55703">
        <ele>7</ele>
        <time>2019-07-14T12:46:02Z</time>
      </trkpt>
      <trkpt lat="47.76872" lon="-3.55699">
        <ele>6</ele>
        <time>2019-07-14T12:46:03Z</time>
      </trkpt>
      <trkpt lat="47.7687" lon="-3.55695">
        <ele>6</ele>
        <time>2019-07-14T12:46:04Z</time>
      </trkpt>
      <trkpt lat="47.76868" lon="-3.55692">
        <ele>6</ele>
        <time>2019-07-14T12:46:05Z</time>
      </trkpt>
      <trkpt lat="47.76866" lon="-3.55688">
        <ele>6</ele>
        <time>2019-07-14T12:46:06Z</time>
      </trkpt>
      <trkpt lat="47.76867" lon="-3.55683">
        <ele>6</ele>
        <time>2019-07-14T12:46:07Z</time>
      </trkpt>
      <trkpt lat="47.76868" lon="-3.55679">
        <ele>6</ele>
        <time>2019-07-14T12:46:08Z</time>
      </trkpt>
      <trkpt lat="47.7687" lon="-3.55675">
        <ele>6</ele>
        <time>2019-07-14T12:46:09Z</time>
      </trkpt>
      <trkpt lat="47.76873" lon="-3.5567">
        <ele>6</ele>
        <time>2019-07-14T12:46:10Z</time>
      </trkpt>
      <trkpt lat="47.76875" lon="-3.55666">
        <ele>6</ele>
        <time>2019-07-14T12:46:11Z</time>
      </trkpt>
      <trkpt lat="47.76878" lon="-3.55662">
        <ele>6</ele>
        <time>2019-07-14T12:46:12Z</time>
      </trkpt>
      <trkpt lat="47.76881" lon="-3.55656">
        <ele>6</ele>
        <time>2019-07-14T12:46:13Z</time>
      </trkpt>
      <trkpt lat="47.76883" lon="-3.55651">
        <ele>6</ele>
        <time>2019-07-14T12:46:14Z</time>
      </trkpt>
      <trkpt lat="47.76886" lon="-3.55646">
        <ele>6</ele>
        <time>2019-07-14T12:46:15Z</time>
      </trkpt>
      <trkpt lat="47.76887" lon="-3.5564">
        <ele>6</ele>
        <time>2019-07-14T12:46:16Z</time>
      </trkpt>
      <trkpt lat="47.76888" lon="-3.55635">
        <ele>5</ele>
        <time>2019-07-14T12:46:17Z</time>
      </trkpt>
      <trkpt lat="47.7689" lon="-3.55629">
        <ele>5</ele>
        <time>2019-07-14T12:46:18Z</time>
      </trkpt>
      <trkpt lat="47.76891" lon="-3.55624">
        <ele>5</ele>
        <time>2019-07-14T12:46:19Z</time>
      </trkpt>
      <trkpt lat="47.76892" lon="-3.55619">
        <ele>5</ele>
        <time>2019-07-14T12:46:20Z</time>
      </trkpt>
      <trkpt lat="47.76893" lon="-3.55614">
        <ele>5</ele>
        <time>2019-07-14T12:46:21Z</time>
      </trkpt>
      <trkpt lat="47.76895" lon="-3.55609">
        <ele>5</ele>
        <time>2019-07-14T12:46:22Z</time>
      </trkpt>
      <trkpt lat="47.76896" lon="-3.55603">
        <ele>5</ele>
        <time>2019-07-14T12:46:23Z</time>
      </trkpt>
      <trkpt lat="47.76896" lon="-3.55598">
        <ele>5</ele>
        <time>2019-07-14T12:46:24Z</time>
      </trkpt>
      <trkpt lat="47.76897" lon="-3.55593">
        <ele>5</ele>
        <time>2019-07-14T12:46:25Z</time>
      </trkpt>
      <trkpt lat="47.76898" lon="-3.55589">
        <ele>5</ele>
        <time>2019-07-14T12:46:26Z</time>
      </trkpt>
      <trkpt lat="47.76899" lon="-3.55585">
        <ele>5</ele>
        <time>2019-07-14T12:46:27Z</time>
      </trkpt>
      <trkpt lat="47.76901" lon="-3.55583">
        <ele>5</ele>
        <time>2019-07-14T12:46:28Z</time>
      </trkpt>
      <trkpt lat="47.76903" lon="-3.55581">
        <ele>5</ele>
        <time>2019-07-14T12:46:29Z</time>
      </trkpt>
      <trkpt lat="47.76905" lon="-3.5558">
        <ele>5</ele>
        <time>2019-07-14T12:46:30Z</time>
      </trkpt>
      <trkpt lat="47.76907" lon="-3.55577">
        <ele>5</ele>
        <time>2019-07-14T12:46:31Z</time>
      </trkpt>
      <trkpt lat="47.76909" lon="-3.55576">
        <ele>6</ele>
        <time>2019-07-14T12:46:32Z</time>
      </trkpt>
      <trkpt lat="47.76912" lon="-3.55575">
        <ele>6</ele>
        <time>2019-07-14T12:46:33Z</time>
      </trkpt>
      <trkpt lat="47.76915" lon="-3.55574">
        <ele>6</ele>
        <time>2019-07-14T12:46:34Z</time>
      </trkpt>
      <trkpt lat="47.76917" lon="-3.55573">
        <ele>6</ele>
        <time>2019-07-14T12:46:35Z</time>
      </trkpt>
      <trkpt lat="47.76919" lon="-3.55572">
        <ele>7</ele>
        <time>2019-07-14T12:46:36Z</time>
      </trkpt>
      <trkpt lat="47.76921" lon="-3.55571">
        <ele>7</ele>
        <time>2019-07-14T12:46:37Z</time>
      </trkpt>
      <trkpt lat="47.76923" lon="-3.55571">
        <ele>7</ele>
        <time>2019-07-14T12:46:38Z</time>
      </trkpt>
      <trkpt lat="47.76925" lon="-3.5557">
        <ele>7</ele>
        <time>2019-07-14T12:46:39Z</time>
      </trkpt>
      <trkpt lat="47.76926" lon="-3.55569">
        <ele>8</ele>
        <time>2019-07-14T12:46:40Z</time>
      </trkpt>
      <trkpt lat="47.76928" lon="-3.55568">
        <ele>8</ele>
        <time>2019-07-14T12:46:41Z</time>
      </trkpt>
      <trkpt lat="47.76929" lon="-3.55566">
        <ele>8</ele>
        <time>2019-07-14T12:46:42Z</time>
      </trkpt>
      <trkpt lat="47.7693" lon="-3.55564">
        <ele>8</ele>
        <time>2019-07-14T12:46:43Z</time>
      </trkpt>
      <trkpt lat="47.7693" lon="-3.55561">
        <ele>8</ele>
        <time>2019-07-14T12:46:44Z</time>
      </trkpt>
      <trkpt lat="47.7693" lon="-3.55557">
        <ele>8</ele>
        <time>2019-07-14T12:46:45Z</time>
      </trkpt>
      <trkpt lat="47.76929" lon="-3.55552">
        <ele>9</ele>
        <time>2019-07-14T12:46:46Z</time>
      </trkpt>
      <trkpt lat="47.76929" lon="-3.55547">
        <ele>9</ele>
        <time>2019-07-14T12:46:47Z</time>
      </trkpt>
      <trkpt lat="47.76929" lon="-3.55541">
        <ele>9</ele>
        <time>2019-07-14T12:46:48Z</time>
      </trkpt>
      <trkpt lat="47.76928" lon="-3.55535">
        <ele>8</ele>
        <time>2019-07-14T12:46:49Z</time>
      </trkpt>
      <trkpt lat="47.76928" lon="-3.55529">
        <ele>8</ele>
        <time>2019-07-14T12:46:50Z</time>
      </trkpt>
      <trkpt lat="47.76927" lon="-3.55523">
        <ele>8</ele>
        <time>2019-07-14T12:46:51Z</time>
      </trkpt>
      <trkpt lat="47.76927" lon="-3.55516">
        <ele>8</ele>
        <time>2019-07-14T12:46:52Z</time>
      </trkpt>
      <trkpt lat="47.76927" lon="-3.5551">
        <ele>8</ele>
        <time>2019-07-14T12:46:53Z</time>
      </trkpt>
      <trkpt lat="47.76927" lon="-3.55503">
        <ele>8</ele>
        <time>2019-07-14T12:46:54Z</time>
      </trkpt>
      <trkpt lat="47.76927" lon="-3.55497">
        <ele>8</ele>
        <time>2019-07-14T12:46:55Z</time>
      </trkpt>
      <trkpt lat="47.76928" lon="-3.55491">
        <ele>8</ele>
        <time>2019-07-14T12:46:56Z</time>
      </trkpt>
      <trkpt lat="47.76928" lon="-3.55485">
        <ele>8</ele>
        <time>2019-07-14T12:46:57Z</time>
      </trkpt>
      <trkpt lat="47.76928" lon="-3.55479">
        <ele>8</ele>
        <time>2019-07-14T12:46:58Z</time>
      </trkpt>
      <trkpt lat="47.76929" lon="-3.55474">
        <ele>8</ele>
        <time>2019-07-14T12:46:59Z</time>
      </trkpt>
      <trkpt lat="47.7693" lon="-3.55469">
        <ele>8</ele>
        <time>2019-07-14T12:47:00Z</time>
      </trkpt>
      <trkpt lat="47.76932" lon="-3.55464">
        <ele>8</ele>
        <time>2019-07-14T12:47:01Z</time>
      </trkpt>
      <trkpt lat="47.76933" lon="-3.55459">
        <ele>8</ele>
        <time>2019-07-14T12:47:02Z</time>
      </trkpt>
      <trkpt lat="47.76935" lon="-3.55455">
        <ele>9</ele>
        <time>2019-07-14T12:47:03Z</time>
      </trkpt>
      <trkpt lat="47.76936" lon="-3.55451">
        <ele>9</ele>
        <time>2019-07-14T12:47:04Z</time>
      </trkpt>
      <trkpt lat="47.76938" lon="-3.55447">
        <ele>9</ele>
        <time>2019-07-14T12:47:05Z</time>
      </trkpt>
      <trkpt lat="47.7694" lon="-3.55443">
        <ele>9</ele>
        <time>2019-07-14T12:47:06Z</time>
      </trkpt>
      <trkpt lat="47.76942" lon="-3.55441">
        <ele>10</ele>
        <time>2019-07-14T12:47:07Z</time>
      </trkpt>
      <trkpt lat="47.76945" lon="-3.55439">
        <ele>10</ele>
        <time>2019-07-14T12:47:08Z</time>
      </trkpt>
      <trkpt lat="47.76949" lon="-3.55437">
        <ele>10</ele>
        <time>2019-07-14T12:47:09Z</time>
      </trkpt>
      <trkpt lat="47.76952" lon="-3.55436">
        <ele>10</ele>
        <time>2019-07-14T12:47:10Z</time>
      </trkpt>
      <trkpt lat="47.76955" lon="-3.55436">
        <ele>11</ele>
        <time>2019-07-14T12:47:11Z</time>
      </trkpt>
      <trkpt lat="47.76958" lon="-3.55436">
        <ele>11</ele>
        <time>2019-07-14T12:47:12Z</time>
      </trkpt>
      <trkpt lat="47.76961" lon="-3.55436">
        <ele>11</ele>
        <time>2019-07-14T12:47:13Z</time>
      </trkpt>
      <trkpt lat="47.76964" lon="-3.55436">
        <ele>11</ele>
        <time>2019-07-14T12:47:14Z</time>
      </trkpt>
      <trkpt lat="47.76967" lon="-3.55436">
        <ele>11</ele>
        <time>2019-07-14T12:47:15Z</time>
      </trkpt>
      <trkpt lat="47.76969" lon="-3.55436">
        <ele>12</ele>
        <time>2019-07-14T12:47:16Z</time>
      </trkpt>
      <trkpt lat="47.76973" lon="-3.55436">
        <ele>12</ele>
        <time>2019-07-14T12:47:17Z</time>
      </trkpt>
      <trkpt lat="47.76976" lon="-3.55435">
        <ele>12</ele>
        <time>2019-07-14T12:47:18Z</time>
      </trkpt>
      <trkpt lat="47.76979" lon="-3.55436">
        <ele>12</ele>
        <time>2019-07-14T12:47:19Z</time>
      </trkpt>
      <trkpt lat="47.76982" lon="-3.55436">
        <ele>13</ele>
        <time>2019-07-14T12:47:20Z</time>
      </trkpt>
      <trkpt lat="47.76985" lon="-3.55435">
        <ele>13</ele>
        <time>2019-07-14T12:47:21Z</time>
      </trkpt>
      <trkpt lat="47.76988" lon="-3.55435">
        <ele>13</ele>
        <time>2019-07-14T12:47:22Z</time>
      </trkpt>
      <trkpt lat="47.76991" lon="-3.55435">
        <ele>13</ele>
        <time>2019-07-14T12:47:23Z</time>
      </trkpt>
      <trkpt lat="47.76992" lon="-3.55435">
        <ele>14</ele>
        <time>2019-07-14T12:47:24Z</time>
      </trkpt>
      <trkpt lat="47.76994" lon="-3.55434">
        <ele>14</ele>
        <time>2019-07-14T12:47:25Z</time>
      </trkpt>
      <trkpt lat="47.76995" lon="-3.55434">
        <ele>14</ele>
        <time>2019-07-14T12:47:26Z</time>
      </trkpt>
      <trkpt lat="47.76996" lon="-3.55434">
        <ele>14</ele>
        <time>2019-07-14T12:47:27Z</time>
      </trkpt>
      <trkpt lat="47.76996" lon="-3.55434">
        <ele>14</ele>
        <time>2019-07-14T12:47:28Z</time>
      </trkpt>
      <trkpt lat="47.77001" lon="-3.55435">
        <ele>15</ele>
        <time>2019-07-14T12:47:29Z</time>
      </trkpt>
      <trkpt lat="47.77004" lon="-3.55435">
        <ele>15</ele>
        <time>2019-07-14T12:47:30Z</time>
      </trkpt>
      <trkpt lat="47.77006" lon="-3.55434">
        <ele>15</ele>
        <time>2019-07-14T12:47:31Z</time>
      </trkpt>
      <trkpt lat="47.77008" lon="-3.55432">
        <ele>15</ele>
        <time>2019-07-14T12:47:32Z</time>
      </trkpt>
      <trkpt lat="47.7701" lon="-3.55429">
        <ele>15</ele>
        <time>2019-07-14T12:47:33Z</time>
      </trkpt>
      <trkpt lat="47.77012" lon="-3.55426">
        <ele>15</ele>
        <time>2019-07-14T12:47:34Z</time>
      </trkpt>
      <trkpt lat="47.77013" lon="-3.55423">
        <ele>15</ele>
        <time>2019-07-14T12:47:35Z</time>
      </trkpt>
      <trkpt lat="47.77013" lon="-3.5542">
        <ele>15</ele>
        <time>2019-07-14T12:47:36Z</time>
      </trkpt>
      <trkpt lat="47.77013" lon="-3.55416">
        <ele>15</ele>
        <time>2019-07-14T12:47:37Z</time>
      </trkpt>
      <trkpt lat="47.77013" lon="-3.55412">
        <ele>15</ele>
        <time>2019-07-14T12:47:38Z</time>
      </trkpt>
      <trkpt lat="47.77013" lon="-3.55407">
        <ele>15</ele>
        <time>2019-07-14T12:47:39Z</time>
      </trkpt>
      <trkpt lat="47.77013" lon="-3.55404">
        <ele>16</ele>
        <time>2019-07-14T12:47:40Z</time>
      </trkpt>
      <trkpt lat="47.77013" lon="-3.554">
        <ele>16</ele>
        <time>2019-07-14T12:47:41Z</time>
      </trkpt>
      <trkpt lat="47.77013" lon="-3.55396">
        <ele>16</ele>
        <time>2019-07-14T12:47:42Z</time>
      </trkpt>
      <trkpt lat="47.77013" lon="-3.55391">
        <ele>16</ele>
        <time>2019-07-14T12:47:43Z</time>
      </trkpt>
      <trkpt lat="47.77012" lon="-3.55387">
        <ele>16</ele>
        <time>2019-07-14T12:47:44Z</time>
      </trkpt>
      <trkpt lat="47.77011" lon="-3.55383">
        <ele>16</ele>
        <time>2019-07-14T12:47:45Z</time>
      </trkpt>
      <trkpt lat="47.77009" lon="-3.5538">
        <ele>16</ele>
        <time>2019-07-14T12:47:46Z</time>
      </trkpt>
      <trkpt lat="47.77007" lon="-3.55376">
        <ele>16</ele>
        <time>2019-07-14T12:47:47Z</time>
      </trkpt>
      <trkpt lat="47.77006" lon="-3.55371">
        <ele>16</ele>
        <time>2019-07-14T12:47:48Z</time>
      </trkpt>
      <trkpt lat="47.77005" lon="-3.55367">
        <ele>16</ele>
        <time>2019-07-14T12:47:49Z</time>
      </trkpt>
      <trkpt lat="47.77004" lon="-3.55363">
        <ele>16</ele>
        <time>2019-07-14T12:47:50Z</time>
      </trkpt>
      <trkpt lat="47.77004" lon="-3.55358">
        <ele>16</ele>
        <time>2019-07-14T12:47:51Z</time>
      </trkpt>
      <trkpt lat="47.77003" lon="-3.55354">
        <ele>16</ele>
        <time>2019-07-14T12:47:52Z</time>
      </trkpt>
      <trkpt lat="47.77003" lon="-3.5535">
        <ele>16</ele>
        <time>2019-07-14T12:47:53Z</time>
      </trkpt>
      <trkpt lat="47.77003" lon="-3.55346">
        <ele>16</ele>
        <time>2019-07-14T12:47:54Z</time>
      </trkpt>
      <trkpt lat="47.77003" lon="-3.55341">
        <ele>16</ele>
        <time>2019-07-14T12:47:55Z</time>
      </trkpt>
      <trkpt lat="47.77004" lon="-3.55336">
        <ele>16</ele>
        <time>2019-07-14T12:47:56Z</time>
      </trkpt>
      <trkpt lat="47.77004" lon="-3.55332">
        <ele>17</ele>
        <time>2019-07-14T12:47:57Z</time>
      </trkpt>
      <trkpt lat="47.77004" lon="-3.55327">
        <ele>17</ele>
        <time>2019-07-14T12:47:58Z</time>
      </trkpt>
      <trkpt lat="47.77005" lon="-3.55322">
        <ele>17</ele>
        <time>2019-07-14T12:47:59Z</time>
      </trkpt>
      <trkpt lat="47.77005" lon="-3.55317">
        <ele>17</ele>
        <time>2019-07-14T12:48:00Z</time>
      </trkpt>
      <trkpt lat="47.77007" lon="-3.55312">
        <ele>17</ele>
        <time>2019-07-14T12:48:01Z</time>
      </trkpt>
      <trkpt lat="47.77008" lon="-3.55308">
        <ele>18</ele>
        <time>2019-07-14T12:48:02Z</time>
      </trkpt>
      <trkpt lat="47.7701" lon="-3.55303">
        <ele>18</ele>
        <time>2019-07-14T12:48:03Z</time>
      </trkpt>
      <trkpt lat="47.77011" lon="-3.55299">
        <ele>18</ele>
        <time>2019-07-14T12:48:04Z</time>
      </trkpt>
      <trkpt lat="47.77013" lon="-3.55294">
        <ele>18</ele>
        <time>2019-07-14T12:48:05Z</time>
      </trkpt>
      <trkpt lat="47.77014" lon="-3.55289">
        <ele>18</ele>
        <time>2019-07-14T12:48:06Z</time>
      </trkpt>
      <trkpt lat="47.77015" lon="-3.55284">
        <ele>18</ele>
        <time>2019-07-14T12:48:07Z</time>
      </trkpt>
      <trkpt lat="47.77015" lon="-3.55278">
        <ele>18</ele>
        <time>2019-07-14T12:48:08Z</time>
      </trkpt>
      <trkpt lat="47.77016" lon="-3.55273">
        <ele>18</ele>
        <time>2019-07-14T12:48:09Z</time>
      </trkpt>
      <trkpt lat="47.77017" lon="-3.55267">
        <ele>19</ele>
        <time>2019-07-14T12:48:10Z</time>
      </trkpt>
      <trkpt lat="47.77017" lon="-3.55262">
        <ele>19</ele>
        <time>2019-07-14T12:48:11Z</time>
      </trkpt>
      <trkpt lat="47.77018" lon="-3.55256">
        <ele>19</ele>
        <time>2019-07-14T12:48:12Z</time>
      </trkpt>
      <trkpt lat="47.77018" lon="-3.55252">
        <ele>19</ele>
        <time>2019-07-14T12:48:13Z</time>
      </trkpt>
      <trkpt lat="47.7702" lon="-3.55247">
        <ele>19</ele>
        <time>2019-07-14T12:48:14Z</time>
      </trkpt>
      <trkpt lat="47.7702" lon="-3.55242">
        <ele>19</ele>
        <time>2019-07-14T12:48:15Z</time>
      </trkpt>
      <trkpt lat="47.77021" lon="-3.55239">
        <ele>19</ele>
        <time>2019-07-14T12:48:16Z</time>
      </trkpt>
      <trkpt lat="47.77023" lon="-3.55236">
        <ele>19</ele>
        <time>2019-07-14T12:48:17Z</time>
      </trkpt>
      <trkpt lat="47.77024" lon="-3.55232">
        <ele>19</ele>
        <time>2019-07-14T12:48:18Z</time>
      </trkpt>
      <trkpt lat="47.77024" lon="-3.55228">
        <ele>19</ele>
        <time>2019-07-14T12:48:19Z</time>
      </trkpt>
      <trkpt lat="47.77024" lon="-3.55223">
        <ele>19</ele>
        <time>2019-07-14T12:48:20Z</time>
      </trkpt>
      <trkpt lat="47.77024" lon="-3.55217">
        <ele>19</ele>
        <time>2019-07-14T12:48:21Z</time>
      </trkpt>
      <trkpt lat="47.77025" lon="-3.5521">
        <ele>19</ele>
        <time>2019-07-14T12:48:22Z</time>
      </trkpt>
      <trkpt lat="47.77026" lon="-3.55204">
        <ele>20</ele>
        <time>2019-07-14T12:48:23Z</time>
      </trkpt>
      <trkpt lat="47.77027" lon="-3.55197">
        <ele>20</ele>
        <time>2019-07-14T12:48:24Z</time>
      </trkpt>
      <trkpt lat="47.77027" lon="-3.55191">
        <ele>20</ele>
        <time>2019-07-14T12:48:25Z</time>
      </trkpt>
      <trkpt lat="47.77028" lon="-3.55185">
        <ele>20</ele>
        <time>2019-07-14T12:48:26Z</time>
      </trkpt>
      <trkpt lat="47.77027" lon="-3.55179">
        <ele>20</ele>
        <time>2019-07-14T12:48:27Z</time>
      </trkpt>
      <trkpt lat="47.77027" lon="-3.55175">
        <ele>20</ele>
        <time>2019-07-14T12:48:28Z</time>
      </trkpt>
      <trkpt lat="47.77026" lon="-3.55172">
        <ele>20</ele>
        <time>2019-07-14T12:48:29Z</time>
      </trkpt>
      <trkpt lat="47.77027" lon="-3.5517">
        <ele>20</ele>
        <time>2019-07-14T12:48:30Z</time>
      </trkpt>
      <trkpt lat="47.77027" lon="-3.55169">
        <ele>20</ele>
        <time>2019-07-14T12:48:31Z</time>
      </trkpt>
      <trkpt lat="47.77027" lon="-3.55169">
        <ele>20</ele>
        <time>2019-07-14T12:48:32Z</time>
      </trkpt>
      <trkpt lat="47.77026" lon="-3.55163">
        <ele>21</ele>
        <time>2019-07-14T12:48:33Z</time>
      </trkpt>
      <trkpt lat="47.77027" lon="-3.5516">
        <ele>21</ele>
        <time>2019-07-14T12:48:34Z</time>
      </trkpt>
      <trkpt lat="47.77029" lon="-3.55157">
        <ele>21</ele>
        <time>2019-07-14T12:48:35Z</time>
      </trkpt>
      <trkpt lat="47.77031" lon="-3.55154">
        <ele>21</ele>
        <time>2019-07-14T12:48:36Z</time>
      </trkpt>
      <trkpt lat="47.77033" lon="-3.55152">
        <ele>21</ele>
        <time>2019-07-14T12:48:37Z</time>
      </trkpt>
      <trkpt lat="47.77036" lon="-3.55149">
        <ele>21</ele>
        <time>2019-07-14T12:48:38Z</time>
      </trkpt>
      <trkpt lat="47.77038" lon="-3.55147">
        <ele>21</ele>
        <time>2019-07-14T12:48:39Z</time>
      </trkpt>
      <trkpt lat="47.77041" lon="-3.55146">
        <ele>21</ele>
        <time>2019-07-14T12:48:40Z</time>
      </trkpt>
      <trkpt lat="47.77043" lon="-3.55145">
        <ele>21</ele>
        <time>2019-07-14T12:48:41Z</time>
      </trkpt>
      <trkpt lat="47.77045" lon="-3.55143">
        <ele>21</ele>
        <time>2019-07-14T12:48:42Z</time>
      </trkpt>
      <trkpt lat="47.77046" lon="-3.55141">
        <ele>21</ele>
        <time>2019-07-14T12:48:43Z</time>
      </trkpt>
      <trkpt lat="47.77047" lon="-3.5514">
        <ele>21</ele>
        <time>2019-07-14T12:48:44Z</time>
      </trkpt>
      <trkpt lat="47.77049" lon="-3.55139">
        <ele>21</ele>
        <time>2019-07-14T12:48:45Z</time>
      </trkpt>
      <trkpt lat="47.7705" lon="-3.55138">
        <ele>21</ele>
        <time>2019-07-14T12:48:46Z</time>
      </trkpt>
      <trkpt lat="47.77051" lon="-3.55137">
        <ele>21</ele>
        <time>2019-07-14T12:48:47Z</time>
      </trkpt>
      <trkpt lat="47.77052" lon="-3.55136">
        <ele>21</ele>
        <time>2019-07-14T12:48:48Z</time>
      </trkpt>
      <trkpt lat="47.77053" lon="-3.55134">
        <ele>21</ele>
        <time>2019-07-14T12:48:49Z</time>
      </trkpt>
      <trkpt lat="47.77056" lon="-3.55133">
        <ele>21</ele>
        <time>2019-07-14T12:48:50Z</time>
      </trkpt>
      <trkpt lat="47.77058" lon="-3.55131">
        <ele>21</ele>
        <time>2019-07-14T12:48:51Z</time>
      </trkpt>
      <trkpt lat="47.7706" lon="-3.5513">
        <ele>22</ele>
        <time>2019-07-14T12:48:52Z</time>
      </trkpt>
      <trkpt lat="47.77063" lon="-3.55129">
        <ele>22</ele>
        <time>2019-07-14T12:48:53Z</time>
      </trkpt>
      <trkpt lat="47.77065" lon="-3.55129">
        <ele>22</ele>
        <time>2019-07-14T12:48:54Z</time>
      </trkpt>
      <trkpt lat="47.77068" lon="-3.55128">
        <ele>22</ele>
        <time>2019-07-14T12:48:55Z</time>
      </trkpt>
      <trkpt lat="47.77071" lon="-3.55127">
        <ele>22</ele>
        <time>2019-07-14T12:48:56Z</time>
      </trkpt>
      <trkpt lat="47.77073" lon="-3.55127">
        <ele>22</ele>
        <time>2019-07-14T12:48:57Z</time>
      </trkpt>
      <trkpt lat="47.77074" lon="-3.55128">
        <ele>22</ele>
        <time>2019-07-14T12:48:58Z</time>
      </trkpt>
      <trkpt lat="47.77077" lon="-3.55127">
        <ele>22</ele>
        <time>2019-07-14T12:48:59Z</time>
      </trkpt>
      <trkpt lat="47.77079" lon="-3.55127">
        <ele>22</ele>
        <time>2019-07-14T12:49:00Z</time>
      </trkpt>
      <trkpt lat="47.77082" lon="-3.55127">
        <ele>22</ele>
        <time>2019-07-14T12:49:01Z</time>
      </trkpt>
      <trkpt lat="47.77084" lon="-3.55127">
        <ele>22</ele>
        <time>2019-07-14T12:49:02Z</time>
      </trkpt>
      <trkpt lat="47.77087" lon="-3.55127">
        <ele>23</ele>
        <time>2019-07-14T12:49:03Z</time>
      </trkpt>
      <trkpt lat="47.77091" lon="-3.55127">
        <ele>23</ele>
        <time>2019-07-14T12:49:04Z</time>
      </trkpt>
      <trkpt lat="47.77095" lon="-3.55127">
        <ele>23</ele>
        <time>2019-07-14T12:49:05Z</time>
      </trkpt>
      <trkpt lat="47.77098" lon="-3.55128">
        <ele>23</ele>
        <time>2019-07-14T12:49:06Z</time>
      </trkpt>
      <trkpt lat="47.77101" lon="-3.55129">
        <ele>24</ele>
        <time>2019-07-14T12:49:07Z</time>
      </trkpt>
      <trkpt lat="47.77104" lon="-3.55129">
        <ele>24</ele>
        <time>2019-07-14T12:49:08Z</time>
      </trkpt>
      <trkpt lat="47.77107" lon="-3.5513">
        <ele>24</ele>
        <time>2019-07-14T12:49:09Z</time>
      </trkpt>
      <trkpt lat="47.7711" lon="-3.5513">
        <ele>25</ele>
        <time>2019-07-14T12:49:10Z</time>
      </trkpt>
      <trkpt lat="47.77113" lon="-3.5513">
        <ele>25</ele>
        <time>2019-07-14T12:49:11Z</time>
      </trkpt>
      <trkpt lat="47.77116" lon="-3.5513">
        <ele>25</ele>
        <time>2019-07-14T12:49:12Z</time>
      </trkpt>
      <trkpt lat="47.77118" lon="-3.55129">
        <ele>25</ele>
        <time>2019-07-14T12:49:13Z</time>
      </trkpt>
      <trkpt lat="47.77121" lon="-3.55129">
        <ele>25</ele>
        <time>2019-07-14T12:49:14Z</time>
      </trkpt>
      <trkpt lat="47.77124" lon="-3.55129">
        <ele>26</ele>
        <time>2019-07-14T12:49:15Z</time>
      </trkpt>
      <trkpt lat="47.77128" lon="-3.55129">
        <ele>26</ele>
        <time>2019-07-14T12:49:16Z</time>
      </trkpt>
      <trkpt lat="47.77131" lon="-3.55129">
        <ele>26</ele>
        <time>2019-07-14T12:49:17Z</time>
      </trkpt>
      <trkpt lat="47.77135" lon="-3.55129">
        <ele>26</ele>
        <time>2019-07-14T12:49:18Z</time>
      </trkpt>
      <trkpt lat="47.77139" lon="-3.55129">
        <ele>27</ele>
        <time>2019-07-14T12:49:19Z</time>
      </trkpt>
      <trkpt lat="47.77143" lon="-3.5513">
        <ele>27</ele>
        <time>2019-07-14T12:49:20Z</time>
      </trkpt>
      <trkpt lat="47.77146" lon="-3.55131">
        <ele>27</ele>
        <time>2019-07-14T12:49:21Z</time>
      </trkpt>
      <trkpt lat="47.7715" lon="-3.55132">
        <ele>27</ele>
        <time>2019-07-14T12:49:22Z</time>
      </trkpt>
      <trkpt lat="47.77153" lon="-3.55132">
        <ele>28</ele>
        <time>2019-07-14T12:49:23Z</time>
      </trkpt>
      <trkpt lat="47.77157" lon="-3.55133">
        <ele>28</ele>
        <time>2019-07-14T12:49:24Z</time>
      </trkpt>
      <trkpt lat="47.7716" lon="-3.55134">
        <ele>28</ele>
        <time>2019-07-14T12:49:25Z</time>
      </trkpt>
      <trkpt lat="47.77164" lon="-3.55135">
        <ele>28</ele>
        <time>2019-07-14T12:49:26Z</time>
      </trkpt>
      <trkpt lat="47.77167" lon="-3.55136">
        <ele>28</ele>
        <time>2019-07-14T12:49:27Z</time>
      </trkpt>
      <trkpt lat="47.77172" lon="-3.55137">
        <ele>28</ele>
        <time>2019-07-14T12:49:28Z</time>
      </trkpt>
      <trkpt lat="47.77176" lon="-3.55137">
        <ele>29</ele>
        <time>2019-07-14T12:49:29Z</time>
      </trkpt>
      <trkpt lat="47.77179" lon="-3.55138">
        <ele>29</ele>
        <time>2019-07-14T12:49:30Z</time>
      </trkpt>
      <trkpt lat="47.77182" lon="-3.55139">
        <ele>29</ele>
        <time>2019-07-14T12:49:31Z</time>
      </trkpt>
      <trkpt lat="47.77186" lon="-3.55141">
        <ele>29</ele>
        <time>2019-07-14T12:49:32Z</time>
      </trkpt>
      <trkpt lat="47.77189" lon="-3.55142">
        <ele>29</ele>
        <time>2019-07-14T12:49:33Z</time>
      </trkpt>
      <trkpt lat="47.77192" lon="-3.55144">
        <ele>29</ele>
        <time>2019-07-14T12:49:34Z</time>
      </trkpt>
      <trkpt lat="47.77195" lon="-3.55145">
        <ele>29</ele>
        <time>2019-07-14T12:49:35Z</time>
      </trkpt>
      <trkpt lat="47.77199" lon="-3.55146">
        <ele>30</ele>
        <time>2019-07-14T12:49:36Z</time>
      </trkpt>
      <trkpt lat="47.77202" lon="-3.55148">
        <ele>30</ele>
        <time>2019-07-14T12:49:37Z</time>
      </trkpt>
      <trkpt lat="47.77206" lon="-3.5515">
        <ele>30</ele>
        <time>2019-07-14T12:49:38Z</time>
      </trkpt>
      <trkpt lat="47.7721" lon="-3.55152">
        <ele>30</ele>
        <time>2019-07-14T12:49:39Z</time>
      </trkpt>
      <trkpt lat="47.77213" lon="-3.55154">
        <ele>30</ele>
        <time>2019-07-14T12:49:40Z</time>
      </trkpt>
      <trkpt lat="47.77217" lon="-3.55155">
        <ele>30</ele>
        <time>2019-07-14T12:49:41Z</time>
      </trkpt>
      <trkpt lat="47.7722" lon="-3.55157">
        <ele>31</ele>
        <time>2019-07-14T12:49:42Z</time>
      </trkpt>
      <trkpt lat="47.77224" lon="-3.55159">
        <ele>31</ele>
        <time>2019-07-14T12:49:43Z</time>
      </trkpt>
      <trkpt lat="47.77227" lon="-3.5516">
        <ele>31</ele>
        <time>2019-07-14T12:49:44Z</time>
      </trkpt>
      <trkpt lat="47.77231" lon="-3.55162">
        <ele>31</ele>
        <time>2019-07-14T12:49:45Z</time>
      </trkpt>
      <trkpt lat="47.77234" lon="-3.55164">
        <ele>31</ele>
        <time>2019-07-14T12:49:46Z</time>
      </trkpt>
      <trkpt lat="47.77237" lon="-3.55165">
        <ele>31</ele>
        <time>2019-07-14T12:49:47Z</time>
      </trkpt>
      <trkpt lat="47.77241" lon="-3.55167">
        <ele>31</ele>
        <time>2019-07-14T12:49:48Z</time>
      </trkpt>
      <trkpt lat="47.77245" lon="-3.55168">
        <ele>32</ele>
        <time>2019-07-14T12:49:49Z</time>
      </trkpt>
      <trkpt lat="47.77248" lon="-3.5517">
        <ele>32</ele>
        <time>2019-07-14T12:49:50Z</time>
      </trkpt>
      <trkpt lat="47.77252" lon="-3.55172">
        <ele>32</ele>
        <time>2019-07-14T12:49:51Z</time>
      </trkpt>
      <trkpt lat="47.77255" lon="-3.55174">
        <ele>33</ele>
        <time>2019-07-14T12:49:52Z</time>
      </trkpt>
      <trkpt lat="47.77259" lon="-3.55176">
        <ele>33</ele>
        <time>2019-07-14T12:49:53Z</time>
      </trkpt>
      <trkpt lat="47.77261" lon="-3.55178">
        <ele>33</ele>
        <time>2019-07-14T12:49:54Z</time>
      </trkpt>
      <trkpt lat="47.77264" lon="-3.55179">
        <ele>33</ele>
        <time>2019-07-14T12:49:55Z</time>
      </trkpt>
      <trkpt lat="47.77267" lon="-3.5518">
        <ele>34</ele>
        <time>2019-07-14T12:49:56Z</time>
      </trkpt>
      <trkpt lat="47.77268" lon="-3.5518">
        <ele>34</ele>
        <time>2019-07-14T12:49:57Z</time>
      </trkpt>
      <trkpt lat="47.7727" lon="-3.55181">
        <ele>34</ele>
        <time>2019-07-14T12:49:58Z</time>
      </trkpt>
      <trkpt lat="47.7727" lon="-3.55181">
        <ele>34</ele>
        <time>2019-07-14T12:49:59Z</time>
      </trkpt>
      <trkpt lat="47.77271" lon="-3.55181">
        <ele>34</ele>
        <time>2019-07-14T12:50:00Z</time>
      </trkpt>
      <trkpt lat="47.77276" lon="-3.55178">
        <ele>35</ele>
        <time>2019-07-14T12:50:01Z</time>
      </trkpt>
      <trkpt lat="47.77277" lon="-3.55175">
        <ele>35</ele>
        <time>2019-07-14T12:50:02Z</time>
      </trkpt>
      <trkpt lat="47.77277" lon="-3.55171">
        <ele>35</ele>
        <time>2019-07-14T12:50:03Z</time>
      </trkpt>
      <trkpt lat="47.77277" lon="-3.55166">
        <ele>35</ele>
        <time>2019-07-14T12:50:04Z</time>
      </trkpt>
      <trkpt lat="47.77278" lon="-3.55162">
        <ele>35</ele>
        <time>2019-07-14T12:50:05Z</time>
      </trkpt>
      <trkpt lat="47.77278" lon="-3.55158">
        <ele>35</ele>
        <time>2019-07-14T12:50:06Z</time>
      </trkpt>
      <trkpt lat="47.77278" lon="-3.55154">
        <ele>35</ele>
        <time>2019-07-14T12:50:07Z</time>
      </trkpt>
      <trkpt lat="47.77278" lon="-3.5515">
        <ele>35</ele>
        <time>2019-07-14T12:50:08Z</time>
      </trkpt>
      <trkpt lat="47.77279" lon="-3.55145">
        <ele>35</ele>
        <time>2019-07-14T12:50:09Z</time>
      </trkpt>
      <trkpt lat="47.77279" lon="-3.55141">
        <ele>35</ele>
        <time>2019-07-14T12:50:10Z</time>
      </trkpt>
      <trkpt lat="47.77279" lon="-3.55137">
        <ele>35</ele>
        <time>2019-07-14T12:50:11Z</time>
      </trkpt>
      <trkpt lat="47.77279" lon="-3.55132">
        <ele>35</ele>
        <time>2019-07-14T12:50:12Z</time>
      </trkpt>
      <trkpt lat="47.77279" lon="-3.55127">
        <ele>34</ele>
        <time>2019-07-14T12:50:13Z</time>
      </trkpt>
      <trkpt lat="47.77279" lon="-3.55121">
        <ele>34</ele>
        <time>2019-07-14T12:50:14Z</time>
      </trkpt>
      <trkpt lat="47.7728" lon="-3.55117">
        <ele>34</ele>
        <time>2019-07-14T12:50:15Z</time>
      </trkpt>
      <trkpt lat="47.7728" lon="-3.55112">
        <ele>34</ele>
        <time>2019-07-14T12:50:16Z</time>
      </trkpt>
      <trkpt lat="47.7728" lon="-3.55106">
        <ele>34</ele>
        <time>2019-07-14T12:50:17Z</time>
      </trkpt>
      <trkpt lat="47.77281" lon="-3.55101">
        <ele>34</ele>
        <time>2019-07-14T12:50:18Z</time>
      </trkpt>
      <trkpt lat="47.77281" lon="-3.55096">
        <ele>34</ele>
        <time>2019-07-14T12:50:19Z</time>
      </trkpt>
      <trkpt lat="47.77281" lon="-3.55092">
        <ele>34</ele>
        <time>2019-07-14T12:50:20Z</time>
      </trkpt>
      <trkpt lat="47.77279" lon="-3.5509">
        <ele>34</ele>
        <time>2019-07-14T12:50:21Z</time>
      </trkpt>
      <trkpt lat="47.77277" lon="-3.55089">
        <ele>34</ele>
        <time>2019-07-14T12:50:22Z</time>
      </trkpt>
      <trkpt lat="47.77276" lon="-3.55092">
        <ele>34</ele>
        <time>2019-07-14T12:50:23Z</time>
      </trkpt>
      <trkpt lat="47.77275" lon="-3.55095">
        <ele>34</ele>
        <time>2019-07-14T12:50:24Z</time>
      </trkpt>
      <trkpt lat="47.77275" lon="-3.55098">
        <ele>34</ele>
        <time>2019-07-14T12:50:25Z</time>
      </trkpt>
      <trkpt lat="47.77275" lon="-3.55101">
        <ele>34</ele>
        <time>2019-07-14T12:50:26Z</time>
      </trkpt>
      <trkpt lat="47.77274" lon="-3.55103">
        <ele>34</ele>
        <time>2019-07-14T12:50:27Z</time>
      </trkpt>
      <trkpt lat="47.77273" lon="-3.55104">
        <ele>34</ele>
        <time>2019-07-14T12:50:28Z</time>
      </trkpt>
      <trkpt lat="47.77271" lon="-3.55104">
        <ele>34</ele>
        <time>2019-07-14T12:50:29Z</time>
      </trkpt>
      <trkpt lat="47.77269" lon="-3.55104">
        <ele>34</ele>
        <time>2019-07-14T12:50:30Z</time>
      </trkpt>
      <trkpt lat="47.77269" lon="-3.55103">
        <ele>34</ele>
        <time>2019-07-14T12:50:31Z</time>
      </trkpt>
      <trkpt lat="47.77268" lon="-3.55103">
        <ele>34</ele>
        <time>2019-07-14T12:50:32Z</time>
      </trkpt>
      <trkpt lat="47.77268" lon="-3.55103">
        <ele>34</ele>
        <time>2019-07-14T12:50:33Z</time>
      </trkpt>
      <trkpt lat="47.77268" lon="-3.55103">
        <ele>34</ele>
        <time>2019-07-14T12:50:34Z</time>
      </trkpt>
    </trkseg>
  </trk>
</gpx>